<?xml version="1.0" encoding="UTF-8"?>
<gpx version="1.1" creator="https://www.youtrack.es" xsi:schemaLocation="http://www.topografix.com/GPX/1/1 http://www.topografix.com/GPX/1/1/gpx.xsd http://www.garmin.com/xmlschemas/GpxExtensions/v3 http://www.garmin.com/xmlschemas/GpxExtensionsv3.xsd http://www.garmin.com/xmlschemas/TrackPointExtension/v1 http://www.garmin.com/xmlschemas/TrackPointExtensionv1.xsd" xmlns:gpxtpx="http://www.garmin.com/xmlschemas/TrackPointExtension/v1" xmlns:gpxx="http://www.garmin.com/xmlschemas/GpxExtensions/v3" xmlns:xsi="http://www.w3.org/2001/XMLSchema-instance">
  <metadata>
    <link href="https://www.youtrack.es">
      <text>YouTrack.es</text>
    </link>
    <time>2026-05-09T03:20:03Z</time>
  </metadata>
  <trk>
    <src>https://www.youtrack.es</src>
    <link href="https://www.youtrack.es/ruta/40311-olvega">
      <text>YouTrack.es</text>
    </link>
    <trkseg>
      <trkpt lat="41.770962" lon="-2.477804">
        <ele>1086.8</ele>
        <time>2023-02-11T08:37:00.000Z</time>
      </trkpt>
      <trkpt lat="41.77102" lon="-2.477827">
        <ele>1080.6</ele>
        <time>2023-02-11T08:37:01.000Z</time>
      </trkpt>
      <trkpt lat="41.771071" lon="-2.477874">
        <ele>1080</ele>
        <time>2023-02-11T08:37:02.000Z</time>
      </trkpt>
      <trkpt lat="41.77111" lon="-2.477939">
        <ele>1079.8</ele>
        <time>2023-02-11T08:37:03.000Z</time>
      </trkpt>
      <trkpt lat="41.771138" lon="-2.478011">
        <ele>1079.4</ele>
        <time>2023-02-11T08:37:04.000Z</time>
      </trkpt>
      <trkpt lat="41.771167" lon="-2.478083">
        <ele>1079.4</ele>
        <time>2023-02-11T08:37:05.000Z</time>
      </trkpt>
      <trkpt lat="41.7712" lon="-2.478152">
        <ele>1079</ele>
        <time>2023-02-11T08:37:06.000Z</time>
      </trkpt>
      <trkpt lat="41.771238" lon="-2.478218">
        <ele>1075.4</ele>
        <time>2023-02-11T08:37:07.000Z</time>
      </trkpt>
      <trkpt lat="41.771279" lon="-2.478281">
        <ele>1078</ele>
        <time>2023-02-11T08:37:08.000Z</time>
      </trkpt>
      <trkpt lat="41.771323" lon="-2.478342">
        <ele>1079</ele>
        <time>2023-02-11T08:37:09.000Z</time>
      </trkpt>
      <trkpt lat="41.771367" lon="-2.478404">
        <ele>1078.8</ele>
        <time>2023-02-11T08:37:10.000Z</time>
      </trkpt>
      <trkpt lat="41.771407" lon="-2.478468">
        <ele>1079</ele>
        <time>2023-02-11T08:37:11.000Z</time>
      </trkpt>
      <trkpt lat="41.771445" lon="-2.478535">
        <ele>1079.2</ele>
        <time>2023-02-11T08:37:12.000Z</time>
      </trkpt>
      <trkpt lat="41.771485" lon="-2.478603">
        <ele>1079.2</ele>
        <time>2023-02-11T08:37:13.000Z</time>
      </trkpt>
      <trkpt lat="41.771523" lon="-2.478671">
        <ele>1079.2</ele>
        <time>2023-02-11T08:37:14.000Z</time>
      </trkpt>
      <trkpt lat="41.771563" lon="-2.478742">
        <ele>1079.2</ele>
        <time>2023-02-11T08:37:15.000Z</time>
      </trkpt>
      <trkpt lat="41.771604" lon="-2.478815">
        <ele>1079.2</ele>
        <time>2023-02-11T08:37:16.000Z</time>
      </trkpt>
      <trkpt lat="41.771644" lon="-2.478889">
        <ele>1079</ele>
        <time>2023-02-11T08:37:17.000Z</time>
      </trkpt>
      <trkpt lat="41.771682" lon="-2.478965">
        <ele>1079</ele>
        <time>2023-02-11T08:37:18.000Z</time>
      </trkpt>
      <trkpt lat="41.77172" lon="-2.479043">
        <ele>1079</ele>
        <time>2023-02-11T08:37:19.000Z</time>
      </trkpt>
      <trkpt lat="41.771757" lon="-2.479121">
        <ele>1079</ele>
        <time>2023-02-11T08:37:20.000Z</time>
      </trkpt>
      <trkpt lat="41.771794" lon="-2.479201">
        <ele>1079</ele>
        <time>2023-02-11T08:37:21.000Z</time>
      </trkpt>
      <trkpt lat="41.771833" lon="-2.479278">
        <ele>1079</ele>
        <time>2023-02-11T08:37:22.000Z</time>
      </trkpt>
      <trkpt lat="41.771871" lon="-2.479357">
        <ele>1079</ele>
        <time>2023-02-11T08:37:24.000Z</time>
      </trkpt>
      <trkpt lat="41.771904" lon="-2.47942">
        <ele>1079</ele>
        <time>2023-02-11T08:37:25.000Z</time>
      </trkpt>
      <trkpt lat="41.771945" lon="-2.4795">
        <ele>1079</ele>
        <time>2023-02-11T08:37:26.000Z</time>
      </trkpt>
      <trkpt lat="41.771988" lon="-2.479577">
        <ele>1079</ele>
        <time>2023-02-11T08:37:27.000Z</time>
      </trkpt>
      <trkpt lat="41.772029" lon="-2.479655">
        <ele>1079</ele>
        <time>2023-02-11T08:37:28.000Z</time>
      </trkpt>
      <trkpt lat="41.772071" lon="-2.479732">
        <ele>1079</ele>
        <time>2023-02-11T08:37:29.000Z</time>
      </trkpt>
      <trkpt lat="41.772114" lon="-2.47981">
        <ele>1078.8</ele>
        <time>2023-02-11T08:37:30.000Z</time>
      </trkpt>
      <trkpt lat="41.772159" lon="-2.479886">
        <ele>1078.8</ele>
        <time>2023-02-11T08:37:31.000Z</time>
      </trkpt>
      <trkpt lat="41.772202" lon="-2.479963">
        <ele>1078.8</ele>
        <time>2023-02-11T08:37:32.000Z</time>
      </trkpt>
      <trkpt lat="41.772247" lon="-2.480041">
        <ele>1078.8</ele>
        <time>2023-02-11T08:37:33.000Z</time>
      </trkpt>
      <trkpt lat="41.772291" lon="-2.480118">
        <ele>1078.8</ele>
        <time>2023-02-11T08:37:34.000Z</time>
      </trkpt>
      <trkpt lat="41.772335" lon="-2.480196">
        <ele>1078.8</ele>
        <time>2023-02-11T08:37:35.000Z</time>
      </trkpt>
      <trkpt lat="41.772379" lon="-2.480275">
        <ele>1078.8</ele>
        <time>2023-02-11T08:37:36.000Z</time>
      </trkpt>
      <trkpt lat="41.772425" lon="-2.480352">
        <ele>1078.6</ele>
        <time>2023-02-11T08:37:37.000Z</time>
      </trkpt>
      <trkpt lat="41.772471" lon="-2.48043">
        <ele>1078.4</ele>
        <time>2023-02-11T08:37:38.000Z</time>
      </trkpt>
      <trkpt lat="41.772519" lon="-2.480508">
        <ele>1078.4</ele>
        <time>2023-02-11T08:37:39.000Z</time>
      </trkpt>
      <trkpt lat="41.772568" lon="-2.480587">
        <ele>1078.4</ele>
        <time>2023-02-11T08:37:40.000Z</time>
      </trkpt>
      <trkpt lat="41.772616" lon="-2.480663">
        <ele>1078.4</ele>
        <time>2023-02-11T08:37:41.000Z</time>
      </trkpt>
      <trkpt lat="41.772665" lon="-2.48074">
        <ele>1078.4</ele>
        <time>2023-02-11T08:37:42.000Z</time>
      </trkpt>
      <trkpt lat="41.772714" lon="-2.480817">
        <ele>1078.4</ele>
        <time>2023-02-11T08:37:43.000Z</time>
      </trkpt>
      <trkpt lat="41.772762" lon="-2.480895">
        <ele>1078.4</ele>
        <time>2023-02-11T08:37:44.000Z</time>
      </trkpt>
      <trkpt lat="41.77281" lon="-2.480974">
        <ele>1078.2</ele>
        <time>2023-02-11T08:37:45.000Z</time>
      </trkpt>
      <trkpt lat="41.772858" lon="-2.481051">
        <ele>1078.2</ele>
        <time>2023-02-11T08:37:46.000Z</time>
      </trkpt>
      <trkpt lat="41.77291" lon="-2.481129">
        <ele>1078.2</ele>
        <time>2023-02-11T08:37:47.000Z</time>
      </trkpt>
      <trkpt lat="41.772961" lon="-2.481207">
        <ele>1078.2</ele>
        <time>2023-02-11T08:37:48.000Z</time>
      </trkpt>
      <trkpt lat="41.773013" lon="-2.481285">
        <ele>1078</ele>
        <time>2023-02-11T08:37:49.000Z</time>
      </trkpt>
      <trkpt lat="41.773064" lon="-2.481365">
        <ele>1078</ele>
        <time>2023-02-11T08:37:50.000Z</time>
      </trkpt>
      <trkpt lat="41.773116" lon="-2.481444">
        <ele>1078</ele>
        <time>2023-02-11T08:37:51.000Z</time>
      </trkpt>
      <trkpt lat="41.773169" lon="-2.481523">
        <ele>1078</ele>
        <time>2023-02-11T08:37:52.000Z</time>
      </trkpt>
      <trkpt lat="41.773221" lon="-2.481601">
        <ele>1078</ele>
        <time>2023-02-11T08:37:53.000Z</time>
      </trkpt>
      <trkpt lat="41.773274" lon="-2.48168">
        <ele>1078</ele>
        <time>2023-02-11T08:37:54.000Z</time>
      </trkpt>
      <trkpt lat="41.773327" lon="-2.481759">
        <ele>1077.8</ele>
        <time>2023-02-11T08:37:55.000Z</time>
      </trkpt>
      <trkpt lat="41.77338" lon="-2.481839">
        <ele>1077.8</ele>
        <time>2023-02-11T08:37:56.000Z</time>
      </trkpt>
      <trkpt lat="41.773434" lon="-2.481917">
        <ele>1077.8</ele>
        <time>2023-02-11T08:37:57.000Z</time>
      </trkpt>
      <trkpt lat="41.773489" lon="-2.481991">
        <ele>1077.8</ele>
        <time>2023-02-11T08:37:58.000Z</time>
      </trkpt>
      <trkpt lat="41.773544" lon="-2.482065">
        <ele>1077.8</ele>
        <time>2023-02-11T08:37:59.000Z</time>
      </trkpt>
      <trkpt lat="41.773599" lon="-2.482139">
        <ele>1077.8</ele>
        <time>2023-02-11T08:38:00.000Z</time>
      </trkpt>
      <trkpt lat="41.773655" lon="-2.482212">
        <ele>1077.8</ele>
        <time>2023-02-11T08:38:01.000Z</time>
      </trkpt>
      <trkpt lat="41.773709" lon="-2.482285">
        <ele>1077.8</ele>
        <time>2023-02-11T08:38:02.000Z</time>
      </trkpt>
      <trkpt lat="41.773762" lon="-2.48236">
        <ele>1077.8</ele>
        <time>2023-02-11T08:38:03.000Z</time>
      </trkpt>
      <trkpt lat="41.773814" lon="-2.482434">
        <ele>1077.8</ele>
        <time>2023-02-11T08:38:04.000Z</time>
      </trkpt>
      <trkpt lat="41.773869" lon="-2.48251">
        <ele>1077.8</ele>
        <time>2023-02-11T08:38:05.000Z</time>
      </trkpt>
      <trkpt lat="41.773922" lon="-2.482582">
        <ele>1077.8</ele>
        <time>2023-02-11T08:38:06.000Z</time>
      </trkpt>
      <trkpt lat="41.773976" lon="-2.482654">
        <ele>1077.8</ele>
        <time>2023-02-11T08:38:07.000Z</time>
      </trkpt>
      <trkpt lat="41.774031" lon="-2.482725">
        <ele>1077.8</ele>
        <time>2023-02-11T08:38:08.000Z</time>
      </trkpt>
      <trkpt lat="41.774085" lon="-2.482799">
        <ele>1077.8</ele>
        <time>2023-02-11T08:38:09.000Z</time>
      </trkpt>
      <trkpt lat="41.774141" lon="-2.482872">
        <ele>1078</ele>
        <time>2023-02-11T08:38:10.000Z</time>
      </trkpt>
      <trkpt lat="41.774197" lon="-2.482945">
        <ele>1078</ele>
        <time>2023-02-11T08:38:11.000Z</time>
      </trkpt>
      <trkpt lat="41.774253" lon="-2.483017">
        <ele>1078</ele>
        <time>2023-02-11T08:38:12.000Z</time>
      </trkpt>
      <trkpt lat="41.774309" lon="-2.483088">
        <ele>1078</ele>
        <time>2023-02-11T08:38:13.000Z</time>
      </trkpt>
      <trkpt lat="41.774365" lon="-2.483158">
        <ele>1078</ele>
        <time>2023-02-11T08:38:14.000Z</time>
      </trkpt>
      <trkpt lat="41.774419" lon="-2.483227">
        <ele>1078</ele>
        <time>2023-02-11T08:38:15.000Z</time>
      </trkpt>
      <trkpt lat="41.774475" lon="-2.483295">
        <ele>1078</ele>
        <time>2023-02-11T08:38:16.000Z</time>
      </trkpt>
      <trkpt lat="41.774532" lon="-2.483363">
        <ele>1078</ele>
        <time>2023-02-11T08:38:17.000Z</time>
      </trkpt>
      <trkpt lat="41.774588" lon="-2.483432">
        <ele>1078.2</ele>
        <time>2023-02-11T08:38:18.000Z</time>
      </trkpt>
      <trkpt lat="41.774642" lon="-2.4835">
        <ele>1078.2</ele>
        <time>2023-02-11T08:38:19.000Z</time>
      </trkpt>
      <trkpt lat="41.774697" lon="-2.483566">
        <ele>1078.2</ele>
        <time>2023-02-11T08:38:20.000Z</time>
      </trkpt>
      <trkpt lat="41.774749" lon="-2.483629">
        <ele>1078.4</ele>
        <time>2023-02-11T08:38:21.000Z</time>
      </trkpt>
      <trkpt lat="41.774798" lon="-2.483693">
        <ele>1078.6</ele>
        <time>2023-02-11T08:38:22.000Z</time>
      </trkpt>
      <trkpt lat="41.774851" lon="-2.483756">
        <ele>1078.8</ele>
        <time>2023-02-11T08:38:23.000Z</time>
      </trkpt>
      <trkpt lat="41.774903" lon="-2.483817">
        <ele>1078.8</ele>
        <time>2023-02-11T08:38:24.000Z</time>
      </trkpt>
      <trkpt lat="41.774957" lon="-2.483878">
        <ele>1079</ele>
        <time>2023-02-11T08:38:25.000Z</time>
      </trkpt>
      <trkpt lat="41.775013" lon="-2.483935">
        <ele>1079.2</ele>
        <time>2023-02-11T08:38:26.000Z</time>
      </trkpt>
      <trkpt lat="41.775071" lon="-2.483983">
        <ele>1079.2</ele>
        <time>2023-02-11T08:38:27.000Z</time>
      </trkpt>
      <trkpt lat="41.775135" lon="-2.484022">
        <ele>1079.4</ele>
        <time>2023-02-11T08:38:28.000Z</time>
      </trkpt>
      <trkpt lat="41.7752" lon="-2.48405">
        <ele>1079.6</ele>
        <time>2023-02-11T08:38:29.000Z</time>
      </trkpt>
      <trkpt lat="41.775267" lon="-2.484066">
        <ele>1080</ele>
        <time>2023-02-11T08:38:30.000Z</time>
      </trkpt>
      <trkpt lat="41.775334" lon="-2.484081">
        <ele>1080.2</ele>
        <time>2023-02-11T08:38:31.000Z</time>
      </trkpt>
      <trkpt lat="41.7754" lon="-2.4841">
        <ele>1080.2</ele>
        <time>2023-02-11T08:38:32.000Z</time>
      </trkpt>
      <trkpt lat="41.775464" lon="-2.484129">
        <ele>1080.4</ele>
        <time>2023-02-11T08:38:33.000Z</time>
      </trkpt>
      <trkpt lat="41.77552" lon="-2.484168">
        <ele>1080.4</ele>
        <time>2023-02-11T08:38:34.000Z</time>
      </trkpt>
      <trkpt lat="41.775569" lon="-2.484223">
        <ele>1080.8</ele>
        <time>2023-02-11T08:38:35.000Z</time>
      </trkpt>
      <trkpt lat="41.775613" lon="-2.484291">
        <ele>1081</ele>
        <time>2023-02-11T08:38:36.000Z</time>
      </trkpt>
      <trkpt lat="41.775643" lon="-2.484372">
        <ele>1081.2</ele>
        <time>2023-02-11T08:38:37.000Z</time>
      </trkpt>
      <trkpt lat="41.775662" lon="-2.484458">
        <ele>1081.4</ele>
        <time>2023-02-11T08:38:38.000Z</time>
      </trkpt>
      <trkpt lat="41.775675" lon="-2.484548">
        <ele>1081.6</ele>
        <time>2023-02-11T08:38:39.000Z</time>
      </trkpt>
      <trkpt lat="41.775694" lon="-2.484637">
        <ele>1081.6</ele>
        <time>2023-02-11T08:38:40.000Z</time>
      </trkpt>
      <trkpt lat="41.775718" lon="-2.484726">
        <ele>1081.8</ele>
        <time>2023-02-11T08:38:41.000Z</time>
      </trkpt>
      <trkpt lat="41.775749" lon="-2.484812">
        <ele>1082</ele>
        <time>2023-02-11T08:38:42.000Z</time>
      </trkpt>
      <trkpt lat="41.775787" lon="-2.484894">
        <ele>1082</ele>
        <time>2023-02-11T08:38:43.000Z</time>
      </trkpt>
      <trkpt lat="41.77583" lon="-2.484966">
        <ele>1082.2</ele>
        <time>2023-02-11T08:38:44.000Z</time>
      </trkpt>
      <trkpt lat="41.775878" lon="-2.485034">
        <ele>1082.4</ele>
        <time>2023-02-11T08:38:45.000Z</time>
      </trkpt>
      <trkpt lat="41.775927" lon="-2.485101">
        <ele>1082.4</ele>
        <time>2023-02-11T08:38:46.000Z</time>
      </trkpt>
      <trkpt lat="41.775977" lon="-2.485162">
        <ele>1082.6</ele>
        <time>2023-02-11T08:38:47.000Z</time>
      </trkpt>
      <trkpt lat="41.776027" lon="-2.485225">
        <ele>1082.8</ele>
        <time>2023-02-11T08:38:48.000Z</time>
      </trkpt>
      <trkpt lat="41.776078" lon="-2.485288">
        <ele>1083</ele>
        <time>2023-02-11T08:38:49.000Z</time>
      </trkpt>
      <trkpt lat="41.776128" lon="-2.485352">
        <ele>1083.2</ele>
        <time>2023-02-11T08:38:50.000Z</time>
      </trkpt>
      <trkpt lat="41.776177" lon="-2.485413">
        <ele>1083.4</ele>
        <time>2023-02-11T08:38:51.000Z</time>
      </trkpt>
      <trkpt lat="41.776226" lon="-2.485474">
        <ele>1083.4</ele>
        <time>2023-02-11T08:38:52.000Z</time>
      </trkpt>
      <trkpt lat="41.776277" lon="-2.485532">
        <ele>1083.6</ele>
        <time>2023-02-11T08:38:53.000Z</time>
      </trkpt>
      <trkpt lat="41.776328" lon="-2.485593">
        <ele>1083.6</ele>
        <time>2023-02-11T08:38:54.000Z</time>
      </trkpt>
      <trkpt lat="41.776379" lon="-2.485656">
        <ele>1083.8</ele>
        <time>2023-02-11T08:38:55.000Z</time>
      </trkpt>
      <trkpt lat="41.77643" lon="-2.48572">
        <ele>1083.8</ele>
        <time>2023-02-11T08:38:56.000Z</time>
      </trkpt>
      <trkpt lat="41.776478" lon="-2.485781">
        <ele>1083.8</ele>
        <time>2023-02-11T08:38:57.000Z</time>
      </trkpt>
      <trkpt lat="41.776527" lon="-2.485841">
        <ele>1084</ele>
        <time>2023-02-11T08:38:58.000Z</time>
      </trkpt>
      <trkpt lat="41.776575" lon="-2.485903">
        <ele>1084.2</ele>
        <time>2023-02-11T08:38:59.000Z</time>
      </trkpt>
      <trkpt lat="41.776625" lon="-2.485967">
        <ele>1084.4</ele>
        <time>2023-02-11T08:39:00.000Z</time>
      </trkpt>
      <trkpt lat="41.776676" lon="-2.486028">
        <ele>1084.2</ele>
        <time>2023-02-11T08:39:01.000Z</time>
      </trkpt>
      <trkpt lat="41.776728" lon="-2.486091">
        <ele>1084.4</ele>
        <time>2023-02-11T08:39:02.000Z</time>
      </trkpt>
      <trkpt lat="41.776779" lon="-2.486154">
        <ele>1084.4</ele>
        <time>2023-02-11T08:39:03.000Z</time>
      </trkpt>
      <trkpt lat="41.776829" lon="-2.486218">
        <ele>1084.4</ele>
        <time>2023-02-11T08:39:04.000Z</time>
      </trkpt>
      <trkpt lat="41.77688" lon="-2.486283">
        <ele>1084.4</ele>
        <time>2023-02-11T08:39:05.000Z</time>
      </trkpt>
      <trkpt lat="41.776933" lon="-2.486348">
        <ele>1084.6</ele>
        <time>2023-02-11T08:39:06.000Z</time>
      </trkpt>
      <trkpt lat="41.776987" lon="-2.486415">
        <ele>1084.6</ele>
        <time>2023-02-11T08:39:07.000Z</time>
      </trkpt>
      <trkpt lat="41.77704" lon="-2.486481">
        <ele>1084.8</ele>
        <time>2023-02-11T08:39:08.000Z</time>
      </trkpt>
      <trkpt lat="41.777092" lon="-2.486549">
        <ele>1084.8</ele>
        <time>2023-02-11T08:39:09.000Z</time>
      </trkpt>
      <trkpt lat="41.777146" lon="-2.486618">
        <ele>1084.8</ele>
        <time>2023-02-11T08:39:10.000Z</time>
      </trkpt>
      <trkpt lat="41.777198" lon="-2.486687">
        <ele>1085</ele>
        <time>2023-02-11T08:39:11.000Z</time>
      </trkpt>
      <trkpt lat="41.777251" lon="-2.486753">
        <ele>1085</ele>
        <time>2023-02-11T08:39:12.000Z</time>
      </trkpt>
      <trkpt lat="41.777306" lon="-2.48682">
        <ele>1085</ele>
        <time>2023-02-11T08:39:13.000Z</time>
      </trkpt>
      <trkpt lat="41.777361" lon="-2.486888">
        <ele>1085</ele>
        <time>2023-02-11T08:39:14.000Z</time>
      </trkpt>
      <trkpt lat="41.777415" lon="-2.486957">
        <ele>1085</ele>
        <time>2023-02-11T08:39:15.000Z</time>
      </trkpt>
      <trkpt lat="41.777469" lon="-2.487025">
        <ele>1085.2</ele>
        <time>2023-02-11T08:39:16.000Z</time>
      </trkpt>
      <trkpt lat="41.777525" lon="-2.487093">
        <ele>1085.2</ele>
        <time>2023-02-11T08:39:17.000Z</time>
      </trkpt>
      <trkpt lat="41.777583" lon="-2.487162">
        <ele>1085.4</ele>
        <time>2023-02-11T08:39:18.000Z</time>
      </trkpt>
      <trkpt lat="41.77764" lon="-2.487229">
        <ele>1085.4</ele>
        <time>2023-02-11T08:39:19.000Z</time>
      </trkpt>
      <trkpt lat="41.777699" lon="-2.487297">
        <ele>1085.4</ele>
        <time>2023-02-11T08:39:20.000Z</time>
      </trkpt>
      <trkpt lat="41.777757" lon="-2.487367">
        <ele>1085.4</ele>
        <time>2023-02-11T08:39:21.000Z</time>
      </trkpt>
      <trkpt lat="41.777816" lon="-2.487439">
        <ele>1085.4</ele>
        <time>2023-02-11T08:39:22.000Z</time>
      </trkpt>
      <trkpt lat="41.777877" lon="-2.487508">
        <ele>1085.4</ele>
        <time>2023-02-11T08:39:23.000Z</time>
      </trkpt>
      <trkpt lat="41.777937" lon="-2.48758">
        <ele>1085.4</ele>
        <time>2023-02-11T08:39:24.000Z</time>
      </trkpt>
      <trkpt lat="41.777999" lon="-2.487654">
        <ele>1085.4</ele>
        <time>2023-02-11T08:39:25.000Z</time>
      </trkpt>
      <trkpt lat="41.778061" lon="-2.487728">
        <ele>1085.4</ele>
        <time>2023-02-11T08:39:26.000Z</time>
      </trkpt>
      <trkpt lat="41.778122" lon="-2.487804">
        <ele>1085.4</ele>
        <time>2023-02-11T08:39:27.000Z</time>
      </trkpt>
      <trkpt lat="41.778184" lon="-2.48788">
        <ele>1085.4</ele>
        <time>2023-02-11T08:39:28.000Z</time>
      </trkpt>
      <trkpt lat="41.778247" lon="-2.487957">
        <ele>1085.4</ele>
        <time>2023-02-11T08:39:29.000Z</time>
      </trkpt>
      <trkpt lat="41.778311" lon="-2.488034">
        <ele>1085.4</ele>
        <time>2023-02-11T08:39:30.000Z</time>
      </trkpt>
      <trkpt lat="41.778375" lon="-2.488111">
        <ele>1085.2</ele>
        <time>2023-02-11T08:39:31.000Z</time>
      </trkpt>
      <trkpt lat="41.77844" lon="-2.488188">
        <ele>1085.2</ele>
        <time>2023-02-11T08:39:32.000Z</time>
      </trkpt>
      <trkpt lat="41.778503" lon="-2.488268">
        <ele>1085</ele>
        <time>2023-02-11T08:39:33.000Z</time>
      </trkpt>
      <trkpt lat="41.778568" lon="-2.488347">
        <ele>1084.8</ele>
        <time>2023-02-11T08:39:34.000Z</time>
      </trkpt>
      <trkpt lat="41.778635" lon="-2.488427">
        <ele>1084.8</ele>
        <time>2023-02-11T08:39:35.000Z</time>
      </trkpt>
      <trkpt lat="41.778702" lon="-2.488507">
        <ele>1084.6</ele>
        <time>2023-02-11T08:39:36.000Z</time>
      </trkpt>
      <trkpt lat="41.778772" lon="-2.488585">
        <ele>1084.6</ele>
        <time>2023-02-11T08:39:37.000Z</time>
      </trkpt>
      <trkpt lat="41.778848" lon="-2.488658">
        <ele>1084.4</ele>
        <time>2023-02-11T08:39:38.000Z</time>
      </trkpt>
      <trkpt lat="41.77893" lon="-2.488725">
        <ele>1084.4</ele>
        <time>2023-02-11T08:39:39.000Z</time>
      </trkpt>
      <trkpt lat="41.779015" lon="-2.488778">
        <ele>1084.2</ele>
        <time>2023-02-11T08:39:40.000Z</time>
      </trkpt>
      <trkpt lat="41.779099" lon="-2.488818">
        <ele>1084</ele>
        <time>2023-02-11T08:39:41.000Z</time>
      </trkpt>
      <trkpt lat="41.779189" lon="-2.48885">
        <ele>1083.8</ele>
        <time>2023-02-11T08:39:42.000Z</time>
      </trkpt>
      <trkpt lat="41.77928" lon="-2.488871">
        <ele>1083.8</ele>
        <time>2023-02-11T08:39:43.000Z</time>
      </trkpt>
      <trkpt lat="41.77937" lon="-2.488881">
        <ele>1083.6</ele>
        <time>2023-02-11T08:39:44.000Z</time>
      </trkpt>
      <trkpt lat="41.779459" lon="-2.488879">
        <ele>1083.4</ele>
        <time>2023-02-11T08:39:45.000Z</time>
      </trkpt>
      <trkpt lat="41.779543" lon="-2.488867">
        <ele>1083.4</ele>
        <time>2023-02-11T08:39:46.000Z</time>
      </trkpt>
      <trkpt lat="41.779627" lon="-2.488848">
        <ele>1083.2</ele>
        <time>2023-02-11T08:39:47.000Z</time>
      </trkpt>
      <trkpt lat="41.779707" lon="-2.488819">
        <ele>1083.2</ele>
        <time>2023-02-11T08:39:48.000Z</time>
      </trkpt>
      <trkpt lat="41.779778" lon="-2.488779">
        <ele>1083.2</ele>
        <time>2023-02-11T08:39:49.000Z</time>
      </trkpt>
      <trkpt lat="41.779846" lon="-2.488728">
        <ele>1083</ele>
        <time>2023-02-11T08:39:50.000Z</time>
      </trkpt>
      <trkpt lat="41.779906" lon="-2.48867">
        <ele>1083</ele>
        <time>2023-02-11T08:39:51.000Z</time>
      </trkpt>
      <trkpt lat="41.779961" lon="-2.48861">
        <ele>1083</ele>
        <time>2023-02-11T08:39:52.000Z</time>
      </trkpt>
      <trkpt lat="41.780013" lon="-2.488545">
        <ele>1083</ele>
        <time>2023-02-11T08:39:53.000Z</time>
      </trkpt>
      <trkpt lat="41.780063" lon="-2.488478">
        <ele>1083</ele>
        <time>2023-02-11T08:39:54.000Z</time>
      </trkpt>
      <trkpt lat="41.780111" lon="-2.488411">
        <ele>1083</ele>
        <time>2023-02-11T08:39:55.000Z</time>
      </trkpt>
      <trkpt lat="41.780157" lon="-2.488343">
        <ele>1083</ele>
        <time>2023-02-11T08:39:56.000Z</time>
      </trkpt>
      <trkpt lat="41.780204" lon="-2.488278">
        <ele>1083</ele>
        <time>2023-02-11T08:39:57.000Z</time>
      </trkpt>
      <trkpt lat="41.78025" lon="-2.488213">
        <ele>1083</ele>
        <time>2023-02-11T08:39:58.000Z</time>
      </trkpt>
      <trkpt lat="41.780297" lon="-2.488152">
        <ele>1083</ele>
        <time>2023-02-11T08:39:59.000Z</time>
      </trkpt>
      <trkpt lat="41.780342" lon="-2.488093">
        <ele>1083.2</ele>
        <time>2023-02-11T08:40:00.000Z</time>
      </trkpt>
      <trkpt lat="41.780383" lon="-2.48803">
        <ele>1083.6</ele>
        <time>2023-02-11T08:40:01.000Z</time>
      </trkpt>
      <trkpt lat="41.780426" lon="-2.48797">
        <ele>1083.6</ele>
        <time>2023-02-11T08:40:02.000Z</time>
      </trkpt>
      <trkpt lat="41.780467" lon="-2.487912">
        <ele>1084</ele>
        <time>2023-02-11T08:40:03.000Z</time>
      </trkpt>
      <trkpt lat="41.780512" lon="-2.487854">
        <ele>1084.2</ele>
        <time>2023-02-11T08:40:04.000Z</time>
      </trkpt>
      <trkpt lat="41.780552" lon="-2.487793">
        <ele>1084.6</ele>
        <time>2023-02-11T08:40:05.000Z</time>
      </trkpt>
      <trkpt lat="41.780593" lon="-2.487729">
        <ele>1084.6</ele>
        <time>2023-02-11T08:40:06.000Z</time>
      </trkpt>
      <trkpt lat="41.780629" lon="-2.487665">
        <ele>1084.8</ele>
        <time>2023-02-11T08:40:07.000Z</time>
      </trkpt>
      <trkpt lat="41.780666" lon="-2.487603">
        <ele>1085</ele>
        <time>2023-02-11T08:40:08.000Z</time>
      </trkpt>
      <trkpt lat="41.780705" lon="-2.487539">
        <ele>1085.6</ele>
        <time>2023-02-11T08:40:09.000Z</time>
      </trkpt>
      <trkpt lat="41.780745" lon="-2.487475">
        <ele>1085.8</ele>
        <time>2023-02-11T08:40:10.000Z</time>
      </trkpt>
      <trkpt lat="41.780787" lon="-2.487414">
        <ele>1086</ele>
        <time>2023-02-11T08:40:11.000Z</time>
      </trkpt>
      <trkpt lat="41.780828" lon="-2.487351">
        <ele>1086</ele>
        <time>2023-02-11T08:40:12.000Z</time>
      </trkpt>
      <trkpt lat="41.780865" lon="-2.487277">
        <ele>1086.2</ele>
        <time>2023-02-11T08:40:13.000Z</time>
      </trkpt>
      <trkpt lat="41.780898" lon="-2.487202">
        <ele>1086.4</ele>
        <time>2023-02-11T08:40:14.000Z</time>
      </trkpt>
      <trkpt lat="41.780935" lon="-2.487124">
        <ele>1086.6</ele>
        <time>2023-02-11T08:40:15.000Z</time>
      </trkpt>
      <trkpt lat="41.780974" lon="-2.487045">
        <ele>1087</ele>
        <time>2023-02-11T08:40:16.000Z</time>
      </trkpt>
      <trkpt lat="41.781014" lon="-2.486972">
        <ele>1087</ele>
        <time>2023-02-11T08:40:17.000Z</time>
      </trkpt>
      <trkpt lat="41.78105" lon="-2.4869">
        <ele>1087.2</ele>
        <time>2023-02-11T08:40:18.000Z</time>
      </trkpt>
      <trkpt lat="41.781087" lon="-2.486827">
        <ele>1087.4</ele>
        <time>2023-02-11T08:40:19.000Z</time>
      </trkpt>
      <trkpt lat="41.781125" lon="-2.486755">
        <ele>1087.4</ele>
        <time>2023-02-11T08:40:20.000Z</time>
      </trkpt>
      <trkpt lat="41.78116" lon="-2.486681">
        <ele>1087.8</ele>
        <time>2023-02-11T08:40:21.000Z</time>
      </trkpt>
      <trkpt lat="41.781196" lon="-2.486607">
        <ele>1088</ele>
        <time>2023-02-11T08:40:22.000Z</time>
      </trkpt>
      <trkpt lat="41.781231" lon="-2.486532">
        <ele>1088</ele>
        <time>2023-02-11T08:40:23.000Z</time>
      </trkpt>
      <trkpt lat="41.781267" lon="-2.486456">
        <ele>1088.2</ele>
        <time>2023-02-11T08:40:24.000Z</time>
      </trkpt>
      <trkpt lat="41.781301" lon="-2.486379">
        <ele>1088.4</ele>
        <time>2023-02-11T08:40:25.000Z</time>
      </trkpt>
      <trkpt lat="41.781335" lon="-2.486303">
        <ele>1088.6</ele>
        <time>2023-02-11T08:40:26.000Z</time>
      </trkpt>
      <trkpt lat="41.781367" lon="-2.486224">
        <ele>1088.6</ele>
        <time>2023-02-11T08:40:27.000Z</time>
      </trkpt>
      <trkpt lat="41.781399" lon="-2.486144">
        <ele>1088.8</ele>
        <time>2023-02-11T08:40:28.000Z</time>
      </trkpt>
      <trkpt lat="41.781434" lon="-2.486062">
        <ele>1088.8</ele>
        <time>2023-02-11T08:40:29.000Z</time>
      </trkpt>
      <trkpt lat="41.78147" lon="-2.485979">
        <ele>1088.8</ele>
        <time>2023-02-11T08:40:30.000Z</time>
      </trkpt>
      <trkpt lat="41.781501" lon="-2.485897">
        <ele>1088.8</ele>
        <time>2023-02-11T08:40:31.000Z</time>
      </trkpt>
      <trkpt lat="41.781533" lon="-2.485812">
        <ele>1088.8</ele>
        <time>2023-02-11T08:40:32.000Z</time>
      </trkpt>
      <trkpt lat="41.781565" lon="-2.485726">
        <ele>1089</ele>
        <time>2023-02-11T08:40:33.000Z</time>
      </trkpt>
      <trkpt lat="41.781598" lon="-2.485644">
        <ele>1089</ele>
        <time>2023-02-11T08:40:34.000Z</time>
      </trkpt>
      <trkpt lat="41.781631" lon="-2.485557">
        <ele>1089</ele>
        <time>2023-02-11T08:40:35.000Z</time>
      </trkpt>
      <trkpt lat="41.781663" lon="-2.48547">
        <ele>1089</ele>
        <time>2023-02-11T08:40:36.000Z</time>
      </trkpt>
      <trkpt lat="41.781696" lon="-2.485381">
        <ele>1089</ele>
        <time>2023-02-11T08:40:37.000Z</time>
      </trkpt>
      <trkpt lat="41.781725" lon="-2.48529">
        <ele>1089</ele>
        <time>2023-02-11T08:40:38.000Z</time>
      </trkpt>
      <trkpt lat="41.781752" lon="-2.485198">
        <ele>1089</ele>
        <time>2023-02-11T08:40:39.000Z</time>
      </trkpt>
      <trkpt lat="41.781777" lon="-2.485105">
        <ele>1089</ele>
        <time>2023-02-11T08:40:40.000Z</time>
      </trkpt>
      <trkpt lat="41.781799" lon="-2.485013">
        <ele>1089</ele>
        <time>2023-02-11T08:40:41.000Z</time>
      </trkpt>
      <trkpt lat="41.781825" lon="-2.484917">
        <ele>1089</ele>
        <time>2023-02-11T08:40:42.000Z</time>
      </trkpt>
      <trkpt lat="41.781854" lon="-2.484817">
        <ele>1089</ele>
        <time>2023-02-11T08:40:43.000Z</time>
      </trkpt>
      <trkpt lat="41.781885" lon="-2.484717">
        <ele>1089</ele>
        <time>2023-02-11T08:40:44.000Z</time>
      </trkpt>
      <trkpt lat="41.781917" lon="-2.484614">
        <ele>1089</ele>
        <time>2023-02-11T08:40:45.000Z</time>
      </trkpt>
      <trkpt lat="41.781945" lon="-2.48451">
        <ele>1089</ele>
        <time>2023-02-11T08:40:46.000Z</time>
      </trkpt>
      <trkpt lat="41.781971" lon="-2.484408">
        <ele>1089</ele>
        <time>2023-02-11T08:40:47.000Z</time>
      </trkpt>
      <trkpt lat="41.781997" lon="-2.484307">
        <ele>1089</ele>
        <time>2023-02-11T08:40:48.000Z</time>
      </trkpt>
      <trkpt lat="41.782015" lon="-2.484206">
        <ele>1089</ele>
        <time>2023-02-11T08:40:49.000Z</time>
      </trkpt>
      <trkpt lat="41.782035" lon="-2.484103">
        <ele>1089</ele>
        <time>2023-02-11T08:40:50.000Z</time>
      </trkpt>
      <trkpt lat="41.782058" lon="-2.483999">
        <ele>1089</ele>
        <time>2023-02-11T08:40:51.000Z</time>
      </trkpt>
      <trkpt lat="41.782079" lon="-2.483896">
        <ele>1089</ele>
        <time>2023-02-11T08:40:52.000Z</time>
      </trkpt>
      <trkpt lat="41.782098" lon="-2.483792">
        <ele>1088.8</ele>
        <time>2023-02-11T08:40:53.000Z</time>
      </trkpt>
      <trkpt lat="41.782116" lon="-2.48369">
        <ele>1088.8</ele>
        <time>2023-02-11T08:40:54.000Z</time>
      </trkpt>
      <trkpt lat="41.782136" lon="-2.483589">
        <ele>1088.8</ele>
        <time>2023-02-11T08:40:55.000Z</time>
      </trkpt>
      <trkpt lat="41.782154" lon="-2.483488">
        <ele>1088.8</ele>
        <time>2023-02-11T08:40:56.000Z</time>
      </trkpt>
      <trkpt lat="41.782171" lon="-2.483384">
        <ele>1088.8</ele>
        <time>2023-02-11T08:40:57.000Z</time>
      </trkpt>
      <trkpt lat="41.782187" lon="-2.483279">
        <ele>1088.8</ele>
        <time>2023-02-11T08:40:58.000Z</time>
      </trkpt>
      <trkpt lat="41.782196" lon="-2.48317">
        <ele>1088.6</ele>
        <time>2023-02-11T08:40:59.000Z</time>
      </trkpt>
      <trkpt lat="41.78221" lon="-2.483059">
        <ele>1088.6</ele>
        <time>2023-02-11T08:41:00.000Z</time>
      </trkpt>
      <trkpt lat="41.782223" lon="-2.482946">
        <ele>1088.6</ele>
        <time>2023-02-11T08:41:01.000Z</time>
      </trkpt>
      <trkpt lat="41.782237" lon="-2.482834">
        <ele>1088.4</ele>
        <time>2023-02-11T08:41:02.000Z</time>
      </trkpt>
      <trkpt lat="41.78225" lon="-2.48272">
        <ele>1088.4</ele>
        <time>2023-02-11T08:41:03.000Z</time>
      </trkpt>
      <trkpt lat="41.782264" lon="-2.482606">
        <ele>1088.2</ele>
        <time>2023-02-11T08:41:04.000Z</time>
      </trkpt>
      <trkpt lat="41.782279" lon="-2.48249">
        <ele>1088</ele>
        <time>2023-02-11T08:41:05.000Z</time>
      </trkpt>
      <trkpt lat="41.782297" lon="-2.482373">
        <ele>1087.8</ele>
        <time>2023-02-11T08:41:06.000Z</time>
      </trkpt>
      <trkpt lat="41.782321" lon="-2.482251">
        <ele>1087.6</ele>
        <time>2023-02-11T08:41:07.000Z</time>
      </trkpt>
      <trkpt lat="41.782346" lon="-2.482128">
        <ele>1087.4</ele>
        <time>2023-02-11T08:41:08.000Z</time>
      </trkpt>
      <trkpt lat="41.78237" lon="-2.482004">
        <ele>1087.2</ele>
        <time>2023-02-11T08:41:09.000Z</time>
      </trkpt>
      <trkpt lat="41.78239" lon="-2.481877">
        <ele>1086.6</ele>
        <time>2023-02-11T08:41:10.000Z</time>
      </trkpt>
      <trkpt lat="41.782411" lon="-2.481752">
        <ele>1086.4</ele>
        <time>2023-02-11T08:41:11.000Z</time>
      </trkpt>
      <trkpt lat="41.782434" lon="-2.481625">
        <ele>1085.8</ele>
        <time>2023-02-11T08:41:12.000Z</time>
      </trkpt>
      <trkpt lat="41.782456" lon="-2.481497">
        <ele>1085.2</ele>
        <time>2023-02-11T08:41:13.000Z</time>
      </trkpt>
      <trkpt lat="41.782479" lon="-2.481367">
        <ele>1085.2</ele>
        <time>2023-02-11T08:41:14.000Z</time>
      </trkpt>
      <trkpt lat="41.7825" lon="-2.481236">
        <ele>1085</ele>
        <time>2023-02-11T08:41:15.000Z</time>
      </trkpt>
      <trkpt lat="41.782525" lon="-2.481099">
        <ele>1084.8</ele>
        <time>2023-02-11T08:41:16.000Z</time>
      </trkpt>
      <trkpt lat="41.782549" lon="-2.480959">
        <ele>1084</ele>
        <time>2023-02-11T08:41:17.000Z</time>
      </trkpt>
      <trkpt lat="41.782574" lon="-2.480817">
        <ele>1083.8</ele>
        <time>2023-02-11T08:41:18.000Z</time>
      </trkpt>
      <trkpt lat="41.782597" lon="-2.480671">
        <ele>1083.2</ele>
        <time>2023-02-11T08:41:19.000Z</time>
      </trkpt>
      <trkpt lat="41.782618" lon="-2.480525">
        <ele>1083</ele>
        <time>2023-02-11T08:41:20.000Z</time>
      </trkpt>
      <trkpt lat="41.78264" lon="-2.48038">
        <ele>1082.2</ele>
        <time>2023-02-11T08:41:21.000Z</time>
      </trkpt>
      <trkpt lat="41.782664" lon="-2.480234">
        <ele>1081.4</ele>
        <time>2023-02-11T08:41:22.000Z</time>
      </trkpt>
      <trkpt lat="41.782689" lon="-2.480087">
        <ele>1081</ele>
        <time>2023-02-11T08:41:23.000Z</time>
      </trkpt>
      <trkpt lat="41.782716" lon="-2.47994">
        <ele>1080.2</ele>
        <time>2023-02-11T08:41:24.000Z</time>
      </trkpt>
      <trkpt lat="41.782743" lon="-2.47979">
        <ele>1080</ele>
        <time>2023-02-11T08:41:25.000Z</time>
      </trkpt>
      <trkpt lat="41.782772" lon="-2.47964">
        <ele>1079.4</ele>
        <time>2023-02-11T08:41:26.000Z</time>
      </trkpt>
      <trkpt lat="41.782802" lon="-2.479492">
        <ele>1079</ele>
        <time>2023-02-11T08:41:27.000Z</time>
      </trkpt>
      <trkpt lat="41.78283" lon="-2.479339">
        <ele>1078</ele>
        <time>2023-02-11T08:41:28.000Z</time>
      </trkpt>
      <trkpt lat="41.782857" lon="-2.479183">
        <ele>1077.6</ele>
        <time>2023-02-11T08:41:29.000Z</time>
      </trkpt>
      <trkpt lat="41.782885" lon="-2.479026">
        <ele>1077</ele>
        <time>2023-02-11T08:41:30.000Z</time>
      </trkpt>
      <trkpt lat="41.782913" lon="-2.478865">
        <ele>1076.4</ele>
        <time>2023-02-11T08:41:31.000Z</time>
      </trkpt>
      <trkpt lat="41.78294" lon="-2.478704">
        <ele>1076.2</ele>
        <time>2023-02-11T08:41:32.000Z</time>
      </trkpt>
      <trkpt lat="41.782965" lon="-2.478542">
        <ele>1075.6</ele>
        <time>2023-02-11T08:41:33.000Z</time>
      </trkpt>
      <trkpt lat="41.782982" lon="-2.47838">
        <ele>1075.4</ele>
        <time>2023-02-11T08:41:34.000Z</time>
      </trkpt>
      <trkpt lat="41.782997" lon="-2.478219">
        <ele>1074.8</ele>
        <time>2023-02-11T08:41:35.000Z</time>
      </trkpt>
      <trkpt lat="41.783013" lon="-2.478058">
        <ele>1074.6</ele>
        <time>2023-02-11T08:41:36.000Z</time>
      </trkpt>
      <trkpt lat="41.783028" lon="-2.477899">
        <ele>1074.2</ele>
        <time>2023-02-11T08:41:37.000Z</time>
      </trkpt>
      <trkpt lat="41.783037" lon="-2.47774">
        <ele>1073.8</ele>
        <time>2023-02-11T08:41:38.000Z</time>
      </trkpt>
      <trkpt lat="41.783042" lon="-2.477584">
        <ele>1073.2</ele>
        <time>2023-02-11T08:41:39.000Z</time>
      </trkpt>
      <trkpt lat="41.783044" lon="-2.477431">
        <ele>1072.8</ele>
        <time>2023-02-11T08:41:40.000Z</time>
      </trkpt>
      <trkpt lat="41.783043" lon="-2.477282">
        <ele>1072.6</ele>
        <time>2023-02-11T08:41:41.000Z</time>
      </trkpt>
      <trkpt lat="41.783041" lon="-2.47714">
        <ele>1072.4</ele>
        <time>2023-02-11T08:41:42.000Z</time>
      </trkpt>
      <trkpt lat="41.783037" lon="-2.477006">
        <ele>1072.4</ele>
        <time>2023-02-11T08:41:43.000Z</time>
      </trkpt>
      <trkpt lat="41.78303" lon="-2.476878">
        <ele>1072.4</ele>
        <time>2023-02-11T08:41:44.000Z</time>
      </trkpt>
      <trkpt lat="41.783022" lon="-2.476757">
        <ele>1072.4</ele>
        <time>2023-02-11T08:41:45.000Z</time>
      </trkpt>
      <trkpt lat="41.783013" lon="-2.476641">
        <ele>1072.2</ele>
        <time>2023-02-11T08:41:46.000Z</time>
      </trkpt>
      <trkpt lat="41.783002" lon="-2.476532">
        <ele>1072.2</ele>
        <time>2023-02-11T08:41:47.000Z</time>
      </trkpt>
      <trkpt lat="41.78299" lon="-2.476428">
        <ele>1072.2</ele>
        <time>2023-02-11T08:41:48.000Z</time>
      </trkpt>
      <trkpt lat="41.78298" lon="-2.476331">
        <ele>1072.4</ele>
        <time>2023-02-11T08:41:49.000Z</time>
      </trkpt>
      <trkpt lat="41.782967" lon="-2.476238">
        <ele>1072.6</ele>
        <time>2023-02-11T08:41:50.000Z</time>
      </trkpt>
      <trkpt lat="41.782953" lon="-2.476146">
        <ele>1073</ele>
        <time>2023-02-11T08:41:51.000Z</time>
      </trkpt>
      <trkpt lat="41.782938" lon="-2.476058">
        <ele>1073.4</ele>
        <time>2023-02-11T08:41:52.000Z</time>
      </trkpt>
      <trkpt lat="41.782921" lon="-2.475969">
        <ele>1074.2</ele>
        <time>2023-02-11T08:41:53.000Z</time>
      </trkpt>
      <trkpt lat="41.7829" lon="-2.475881">
        <ele>1074.4</ele>
        <time>2023-02-11T08:41:54.000Z</time>
      </trkpt>
      <trkpt lat="41.78287" lon="-2.475793">
        <ele>1075</ele>
        <time>2023-02-11T08:41:55.000Z</time>
      </trkpt>
      <trkpt lat="41.782829" lon="-2.475712">
        <ele>1075.2</ele>
        <time>2023-02-11T08:41:56.000Z</time>
      </trkpt>
      <trkpt lat="41.782776" lon="-2.475639">
        <ele>1075.4</ele>
        <time>2023-02-11T08:41:57.000Z</time>
      </trkpt>
      <trkpt lat="41.782712" lon="-2.475574">
        <ele>1075.6</ele>
        <time>2023-02-11T08:41:58.000Z</time>
      </trkpt>
      <trkpt lat="41.782644" lon="-2.475514">
        <ele>1075.8</ele>
        <time>2023-02-11T08:41:59.000Z</time>
      </trkpt>
      <trkpt lat="41.782577" lon="-2.475454">
        <ele>1075.8</ele>
        <time>2023-02-11T08:42:00.000Z</time>
      </trkpt>
      <trkpt lat="41.782516" lon="-2.475387">
        <ele>1075.8</ele>
        <time>2023-02-11T08:42:01.000Z</time>
      </trkpt>
      <trkpt lat="41.78246" lon="-2.475311">
        <ele>1075.8</ele>
        <time>2023-02-11T08:42:02.000Z</time>
      </trkpt>
      <trkpt lat="41.782413" lon="-2.475226">
        <ele>1075.8</ele>
        <time>2023-02-11T08:42:03.000Z</time>
      </trkpt>
      <trkpt lat="41.782379" lon="-2.475132">
        <ele>1075.8</ele>
        <time>2023-02-11T08:42:04.000Z</time>
      </trkpt>
      <trkpt lat="41.782362" lon="-2.475028">
        <ele>1075.4</ele>
        <time>2023-02-11T08:42:05.000Z</time>
      </trkpt>
      <trkpt lat="41.782367" lon="-2.474922">
        <ele>1075.4</ele>
        <time>2023-02-11T08:42:06.000Z</time>
      </trkpt>
      <trkpt lat="41.782391" lon="-2.474824">
        <ele>1075.2</ele>
        <time>2023-02-11T08:42:07.000Z</time>
      </trkpt>
      <trkpt lat="41.782433" lon="-2.474739">
        <ele>1075.2</ele>
        <time>2023-02-11T08:42:08.000Z</time>
      </trkpt>
      <trkpt lat="41.78249" lon="-2.474675">
        <ele>1075.2</ele>
        <time>2023-02-11T08:42:09.000Z</time>
      </trkpt>
      <trkpt lat="41.782556" lon="-2.474625">
        <ele>1075.2</ele>
        <time>2023-02-11T08:42:10.000Z</time>
      </trkpt>
      <trkpt lat="41.782628" lon="-2.47459">
        <ele>1075.2</ele>
        <time>2023-02-11T08:42:11.000Z</time>
      </trkpt>
      <trkpt lat="41.7827" lon="-2.474566">
        <ele>1075.2</ele>
        <time>2023-02-11T08:42:12.000Z</time>
      </trkpt>
      <trkpt lat="41.782771" lon="-2.474548">
        <ele>1075.2</ele>
        <time>2023-02-11T08:42:13.000Z</time>
      </trkpt>
      <trkpt lat="41.782844" lon="-2.474535">
        <ele>1075.2</ele>
        <time>2023-02-11T08:42:14.000Z</time>
      </trkpt>
      <trkpt lat="41.782913" lon="-2.474525">
        <ele>1075.2</ele>
        <time>2023-02-11T08:42:15.000Z</time>
      </trkpt>
      <trkpt lat="41.78298" lon="-2.474525">
        <ele>1075.4</ele>
        <time>2023-02-11T08:42:16.000Z</time>
      </trkpt>
      <trkpt lat="41.783047" lon="-2.474529">
        <ele>1075.6</ele>
        <time>2023-02-11T08:42:17.000Z</time>
      </trkpt>
      <trkpt lat="41.783114" lon="-2.474537">
        <ele>1075.8</ele>
        <time>2023-02-11T08:42:18.000Z</time>
      </trkpt>
      <trkpt lat="41.783178" lon="-2.47455">
        <ele>1076</ele>
        <time>2023-02-11T08:42:19.000Z</time>
      </trkpt>
      <trkpt lat="41.78324" lon="-2.474566">
        <ele>1076.2</ele>
        <time>2023-02-11T08:42:20.000Z</time>
      </trkpt>
      <trkpt lat="41.783302" lon="-2.474584">
        <ele>1076.2</ele>
        <time>2023-02-11T08:42:21.000Z</time>
      </trkpt>
      <trkpt lat="41.783361" lon="-2.474605">
        <ele>1076.4</ele>
        <time>2023-02-11T08:42:22.000Z</time>
      </trkpt>
      <trkpt lat="41.78342" lon="-2.474628">
        <ele>1076.6</ele>
        <time>2023-02-11T08:42:23.000Z</time>
      </trkpt>
      <trkpt lat="41.783477" lon="-2.474654">
        <ele>1076.6</ele>
        <time>2023-02-11T08:42:24.000Z</time>
      </trkpt>
      <trkpt lat="41.783533" lon="-2.474684">
        <ele>1076.8</ele>
        <time>2023-02-11T08:42:25.000Z</time>
      </trkpt>
      <trkpt lat="41.783591" lon="-2.474717">
        <ele>1076.8</ele>
        <time>2023-02-11T08:42:26.000Z</time>
      </trkpt>
      <trkpt lat="41.783646" lon="-2.474752">
        <ele>1077</ele>
        <time>2023-02-11T08:42:27.000Z</time>
      </trkpt>
      <trkpt lat="41.783702" lon="-2.47479">
        <ele>1077.2</ele>
        <time>2023-02-11T08:42:28.000Z</time>
      </trkpt>
      <trkpt lat="41.783755" lon="-2.474831">
        <ele>1077.2</ele>
        <time>2023-02-11T08:42:29.000Z</time>
      </trkpt>
      <trkpt lat="41.783806" lon="-2.474875">
        <ele>1077.2</ele>
        <time>2023-02-11T08:42:30.000Z</time>
      </trkpt>
      <trkpt lat="41.783856" lon="-2.474917">
        <ele>1077.4</ele>
        <time>2023-02-11T08:42:31.000Z</time>
      </trkpt>
      <trkpt lat="41.783907" lon="-2.47496">
        <ele>1077.6</ele>
        <time>2023-02-11T08:42:32.000Z</time>
      </trkpt>
      <trkpt lat="41.783958" lon="-2.475002">
        <ele>1077.6</ele>
        <time>2023-02-11T08:42:33.000Z</time>
      </trkpt>
      <trkpt lat="41.78401" lon="-2.47504">
        <ele>1077.8</ele>
        <time>2023-02-11T08:42:34.000Z</time>
      </trkpt>
      <trkpt lat="41.784063" lon="-2.475073">
        <ele>1077.8</ele>
        <time>2023-02-11T08:42:35.000Z</time>
      </trkpt>
      <trkpt lat="41.784117" lon="-2.4751">
        <ele>1078</ele>
        <time>2023-02-11T08:42:36.000Z</time>
      </trkpt>
      <trkpt lat="41.78417" lon="-2.475125">
        <ele>1078.2</ele>
        <time>2023-02-11T08:42:37.000Z</time>
      </trkpt>
      <trkpt lat="41.784221" lon="-2.475146">
        <ele>1078.6</ele>
        <time>2023-02-11T08:42:38.000Z</time>
      </trkpt>
      <trkpt lat="41.784272" lon="-2.475162">
        <ele>1078.6</ele>
        <time>2023-02-11T08:42:39.000Z</time>
      </trkpt>
      <trkpt lat="41.784323" lon="-2.475176">
        <ele>1078.8</ele>
        <time>2023-02-11T08:42:40.000Z</time>
      </trkpt>
      <trkpt lat="41.784373" lon="-2.475187">
        <ele>1079</ele>
        <time>2023-02-11T08:42:41.000Z</time>
      </trkpt>
      <trkpt lat="41.784423" lon="-2.475195">
        <ele>1079.2</ele>
        <time>2023-02-11T08:42:42.000Z</time>
      </trkpt>
      <trkpt lat="41.784474" lon="-2.475202">
        <ele>1079.6</ele>
        <time>2023-02-11T08:42:43.000Z</time>
      </trkpt>
      <trkpt lat="41.78452" lon="-2.475207">
        <ele>1079.8</ele>
        <time>2023-02-11T08:42:44.000Z</time>
      </trkpt>
      <trkpt lat="41.784564" lon="-2.475213">
        <ele>1080</ele>
        <time>2023-02-11T08:42:45.000Z</time>
      </trkpt>
      <trkpt lat="41.784608" lon="-2.475221">
        <ele>1080</ele>
        <time>2023-02-11T08:42:46.000Z</time>
      </trkpt>
      <trkpt lat="41.784652" lon="-2.475227">
        <ele>1080.4</ele>
        <time>2023-02-11T08:42:47.000Z</time>
      </trkpt>
      <trkpt lat="41.784695" lon="-2.475234">
        <ele>1080.6</ele>
        <time>2023-02-11T08:42:48.000Z</time>
      </trkpt>
      <trkpt lat="41.784736" lon="-2.475239">
        <ele>1080.8</ele>
        <time>2023-02-11T08:42:49.000Z</time>
      </trkpt>
      <trkpt lat="41.784778" lon="-2.475243">
        <ele>1081.2</ele>
        <time>2023-02-11T08:42:50.000Z</time>
      </trkpt>
      <trkpt lat="41.784822" lon="-2.475247">
        <ele>1081.4</ele>
        <time>2023-02-11T08:42:51.000Z</time>
      </trkpt>
      <trkpt lat="41.784863" lon="-2.475252">
        <ele>1081.6</ele>
        <time>2023-02-11T08:42:52.000Z</time>
      </trkpt>
      <trkpt lat="41.784905" lon="-2.475256">
        <ele>1081.8</ele>
        <time>2023-02-11T08:42:53.000Z</time>
      </trkpt>
      <trkpt lat="41.784949" lon="-2.475262">
        <ele>1082</ele>
        <time>2023-02-11T08:42:54.000Z</time>
      </trkpt>
      <trkpt lat="41.784994" lon="-2.475268">
        <ele>1082</ele>
        <time>2023-02-11T08:42:55.000Z</time>
      </trkpt>
      <trkpt lat="41.78504" lon="-2.475274">
        <ele>1082.2</ele>
        <time>2023-02-11T08:42:56.000Z</time>
      </trkpt>
      <trkpt lat="41.785084" lon="-2.475282">
        <ele>1082.4</ele>
        <time>2023-02-11T08:42:57.000Z</time>
      </trkpt>
      <trkpt lat="41.78513" lon="-2.475291">
        <ele>1082.8</ele>
        <time>2023-02-11T08:42:58.000Z</time>
      </trkpt>
      <trkpt lat="41.785177" lon="-2.475296">
        <ele>1083</ele>
        <time>2023-02-11T08:42:59.000Z</time>
      </trkpt>
      <trkpt lat="41.785223" lon="-2.4753">
        <ele>1083.2</ele>
        <time>2023-02-11T08:43:00.000Z</time>
      </trkpt>
      <trkpt lat="41.785267" lon="-2.475303">
        <ele>1083.6</ele>
        <time>2023-02-11T08:43:01.000Z</time>
      </trkpt>
      <trkpt lat="41.785314" lon="-2.475308">
        <ele>1083.8</ele>
        <time>2023-02-11T08:43:02.000Z</time>
      </trkpt>
      <trkpt lat="41.785361" lon="-2.475314">
        <ele>1084</ele>
        <time>2023-02-11T08:43:03.000Z</time>
      </trkpt>
      <trkpt lat="41.785407" lon="-2.475323">
        <ele>1084.2</ele>
        <time>2023-02-11T08:43:04.000Z</time>
      </trkpt>
      <trkpt lat="41.785453" lon="-2.475332">
        <ele>1084.4</ele>
        <time>2023-02-11T08:43:05.000Z</time>
      </trkpt>
      <trkpt lat="41.785499" lon="-2.475341">
        <ele>1084.6</ele>
        <time>2023-02-11T08:43:06.000Z</time>
      </trkpt>
      <trkpt lat="41.785545" lon="-2.475348">
        <ele>1085</ele>
        <time>2023-02-11T08:43:07.000Z</time>
      </trkpt>
      <trkpt lat="41.78559" lon="-2.475353">
        <ele>1085.4</ele>
        <time>2023-02-11T08:43:08.000Z</time>
      </trkpt>
      <trkpt lat="41.785636" lon="-2.475354">
        <ele>1085.4</ele>
        <time>2023-02-11T08:43:09.000Z</time>
      </trkpt>
      <trkpt lat="41.785685" lon="-2.475359">
        <ele>1085.8</ele>
        <time>2023-02-11T08:43:10.000Z</time>
      </trkpt>
      <trkpt lat="41.785731" lon="-2.475365">
        <ele>1086</ele>
        <time>2023-02-11T08:43:11.000Z</time>
      </trkpt>
      <trkpt lat="41.785777" lon="-2.475376">
        <ele>1086.2</ele>
        <time>2023-02-11T08:43:12.000Z</time>
      </trkpt>
      <trkpt lat="41.785822" lon="-2.475385">
        <ele>1086.6</ele>
        <time>2023-02-11T08:43:13.000Z</time>
      </trkpt>
      <trkpt lat="41.785868" lon="-2.475394">
        <ele>1087</ele>
        <time>2023-02-11T08:43:14.000Z</time>
      </trkpt>
      <trkpt lat="41.785916" lon="-2.4754">
        <ele>1087.2</ele>
        <time>2023-02-11T08:43:15.000Z</time>
      </trkpt>
      <trkpt lat="41.785962" lon="-2.475404">
        <ele>1087.6</ele>
        <time>2023-02-11T08:43:16.000Z</time>
      </trkpt>
      <trkpt lat="41.786009" lon="-2.475403">
        <ele>1087.8</ele>
        <time>2023-02-11T08:43:17.000Z</time>
      </trkpt>
      <trkpt lat="41.786055" lon="-2.475404">
        <ele>1088</ele>
        <time>2023-02-11T08:43:18.000Z</time>
      </trkpt>
      <trkpt lat="41.786099" lon="-2.475408">
        <ele>1088.4</ele>
        <time>2023-02-11T08:43:19.000Z</time>
      </trkpt>
      <trkpt lat="41.786143" lon="-2.475413">
        <ele>1088.8</ele>
        <time>2023-02-11T08:43:20.000Z</time>
      </trkpt>
      <trkpt lat="41.786189" lon="-2.475416">
        <ele>1089.4</ele>
        <time>2023-02-11T08:43:21.000Z</time>
      </trkpt>
      <trkpt lat="41.786238" lon="-2.47541">
        <ele>1089.6</ele>
        <time>2023-02-11T08:43:22.000Z</time>
      </trkpt>
      <trkpt lat="41.786286" lon="-2.475397">
        <ele>1090</ele>
        <time>2023-02-11T08:43:23.000Z</time>
      </trkpt>
      <trkpt lat="41.786335" lon="-2.475387">
        <ele>1090</ele>
        <time>2023-02-11T08:43:24.000Z</time>
      </trkpt>
      <trkpt lat="41.786381" lon="-2.47538">
        <ele>1090.2</ele>
        <time>2023-02-11T08:43:25.000Z</time>
      </trkpt>
      <trkpt lat="41.786428" lon="-2.475368">
        <ele>1090.4</ele>
        <time>2023-02-11T08:43:26.000Z</time>
      </trkpt>
      <trkpt lat="41.786476" lon="-2.475347">
        <ele>1090.6</ele>
        <time>2023-02-11T08:43:27.000Z</time>
      </trkpt>
      <trkpt lat="41.786523" lon="-2.475321">
        <ele>1091.2</ele>
        <time>2023-02-11T08:43:28.000Z</time>
      </trkpt>
      <trkpt lat="41.786573" lon="-2.475296">
        <ele>1091.4</ele>
        <time>2023-02-11T08:43:29.000Z</time>
      </trkpt>
      <trkpt lat="41.786622" lon="-2.475272">
        <ele>1091.6</ele>
        <time>2023-02-11T08:43:30.000Z</time>
      </trkpt>
      <trkpt lat="41.78667" lon="-2.475239">
        <ele>1091.4</ele>
        <time>2023-02-11T08:43:31.000Z</time>
      </trkpt>
      <trkpt lat="41.78672" lon="-2.4752">
        <ele>1092</ele>
        <time>2023-02-11T08:43:32.000Z</time>
      </trkpt>
      <trkpt lat="41.78677" lon="-2.475158">
        <ele>1092.2</ele>
        <time>2023-02-11T08:43:33.000Z</time>
      </trkpt>
      <trkpt lat="41.786819" lon="-2.475114">
        <ele>1092.2</ele>
        <time>2023-02-11T08:43:34.000Z</time>
      </trkpt>
      <trkpt lat="41.78687" lon="-2.475069">
        <ele>1092.4</ele>
        <time>2023-02-11T08:43:35.000Z</time>
      </trkpt>
      <trkpt lat="41.786922" lon="-2.475024">
        <ele>1092.6</ele>
        <time>2023-02-11T08:43:36.000Z</time>
      </trkpt>
      <trkpt lat="41.786974" lon="-2.474977">
        <ele>1092.8</ele>
        <time>2023-02-11T08:43:37.000Z</time>
      </trkpt>
      <trkpt lat="41.787028" lon="-2.47493">
        <ele>1092.8</ele>
        <time>2023-02-11T08:43:38.000Z</time>
      </trkpt>
      <trkpt lat="41.787082" lon="-2.474883">
        <ele>1093</ele>
        <time>2023-02-11T08:43:39.000Z</time>
      </trkpt>
      <trkpt lat="41.787138" lon="-2.474836">
        <ele>1093.2</ele>
        <time>2023-02-11T08:43:40.000Z</time>
      </trkpt>
      <trkpt lat="41.787193" lon="-2.474787">
        <ele>1093.2</ele>
        <time>2023-02-11T08:43:41.000Z</time>
      </trkpt>
      <trkpt lat="41.787248" lon="-2.474739">
        <ele>1093.2</ele>
        <time>2023-02-11T08:43:42.000Z</time>
      </trkpt>
      <trkpt lat="41.787305" lon="-2.474689">
        <ele>1093.2</ele>
        <time>2023-02-11T08:43:43.000Z</time>
      </trkpt>
      <trkpt lat="41.787364" lon="-2.474639">
        <ele>1093.2</ele>
        <time>2023-02-11T08:43:44.000Z</time>
      </trkpt>
      <trkpt lat="41.787423" lon="-2.474587">
        <ele>1093.2</ele>
        <time>2023-02-11T08:43:45.000Z</time>
      </trkpt>
      <trkpt lat="41.787485" lon="-2.474534">
        <ele>1093.2</ele>
        <time>2023-02-11T08:43:46.000Z</time>
      </trkpt>
      <trkpt lat="41.787547" lon="-2.47448">
        <ele>1093.2</ele>
        <time>2023-02-11T08:43:47.000Z</time>
      </trkpt>
      <trkpt lat="41.787611" lon="-2.474426">
        <ele>1093.2</ele>
        <time>2023-02-11T08:43:48.000Z</time>
      </trkpt>
      <trkpt lat="41.787673" lon="-2.474371">
        <ele>1093.2</ele>
        <time>2023-02-11T08:43:49.000Z</time>
      </trkpt>
      <trkpt lat="41.787736" lon="-2.474312">
        <ele>1093.2</ele>
        <time>2023-02-11T08:43:50.000Z</time>
      </trkpt>
      <trkpt lat="41.787802" lon="-2.474254">
        <ele>1093.2</ele>
        <time>2023-02-11T08:43:51.000Z</time>
      </trkpt>
      <trkpt lat="41.787872" lon="-2.474195">
        <ele>1093</ele>
        <time>2023-02-11T08:43:52.000Z</time>
      </trkpt>
      <trkpt lat="41.787941" lon="-2.474137">
        <ele>1093</ele>
        <time>2023-02-11T08:43:53.000Z</time>
      </trkpt>
      <trkpt lat="41.78801" lon="-2.474078">
        <ele>1093</ele>
        <time>2023-02-11T08:43:54.000Z</time>
      </trkpt>
      <trkpt lat="41.788079" lon="-2.474019">
        <ele>1093</ele>
        <time>2023-02-11T08:43:55.000Z</time>
      </trkpt>
      <trkpt lat="41.78815" lon="-2.473959">
        <ele>1093</ele>
        <time>2023-02-11T08:43:56.000Z</time>
      </trkpt>
      <trkpt lat="41.78822" lon="-2.473898">
        <ele>1092.8</ele>
        <time>2023-02-11T08:43:57.000Z</time>
      </trkpt>
      <trkpt lat="41.788291" lon="-2.473837">
        <ele>1092.8</ele>
        <time>2023-02-11T08:43:58.000Z</time>
      </trkpt>
      <trkpt lat="41.788363" lon="-2.473776">
        <ele>1092.8</ele>
        <time>2023-02-11T08:43:59.000Z</time>
      </trkpt>
      <trkpt lat="41.788436" lon="-2.473715">
        <ele>1092.6</ele>
        <time>2023-02-11T08:44:00.000Z</time>
      </trkpt>
      <trkpt lat="41.788508" lon="-2.473654">
        <ele>1092.6</ele>
        <time>2023-02-11T08:44:01.000Z</time>
      </trkpt>
      <trkpt lat="41.788579" lon="-2.473592">
        <ele>1092.6</ele>
        <time>2023-02-11T08:44:02.000Z</time>
      </trkpt>
      <trkpt lat="41.78865" lon="-2.473528">
        <ele>1092.6</ele>
        <time>2023-02-11T08:44:03.000Z</time>
      </trkpt>
      <trkpt lat="41.788719" lon="-2.473468">
        <ele>1092.6</ele>
        <time>2023-02-11T08:44:04.000Z</time>
      </trkpt>
      <trkpt lat="41.788789" lon="-2.473408">
        <ele>1092.4</ele>
        <time>2023-02-11T08:44:05.000Z</time>
      </trkpt>
      <trkpt lat="41.788859" lon="-2.473348">
        <ele>1092.4</ele>
        <time>2023-02-11T08:44:06.000Z</time>
      </trkpt>
      <trkpt lat="41.78893" lon="-2.473284">
        <ele>1092.4</ele>
        <time>2023-02-11T08:44:07.000Z</time>
      </trkpt>
      <trkpt lat="41.789002" lon="-2.47322">
        <ele>1092.4</ele>
        <time>2023-02-11T08:44:08.000Z</time>
      </trkpt>
      <trkpt lat="41.789078" lon="-2.473153">
        <ele>1092.2</ele>
        <time>2023-02-11T08:44:09.000Z</time>
      </trkpt>
      <trkpt lat="41.789155" lon="-2.473089">
        <ele>1092.2</ele>
        <time>2023-02-11T08:44:10.000Z</time>
      </trkpt>
      <trkpt lat="41.789231" lon="-2.473022">
        <ele>1092</ele>
        <time>2023-02-11T08:44:11.000Z</time>
      </trkpt>
      <trkpt lat="41.78931" lon="-2.472955">
        <ele>1091.8</ele>
        <time>2023-02-11T08:44:12.000Z</time>
      </trkpt>
      <trkpt lat="41.789388" lon="-2.472884">
        <ele>1091.6</ele>
        <time>2023-02-11T08:44:13.000Z</time>
      </trkpt>
      <trkpt lat="41.789466" lon="-2.472813">
        <ele>1091.6</ele>
        <time>2023-02-11T08:44:14.000Z</time>
      </trkpt>
      <trkpt lat="41.789546" lon="-2.472742">
        <ele>1091.4</ele>
        <time>2023-02-11T08:44:15.000Z</time>
      </trkpt>
      <trkpt lat="41.789626" lon="-2.472667">
        <ele>1091.2</ele>
        <time>2023-02-11T08:44:16.000Z</time>
      </trkpt>
      <trkpt lat="41.789706" lon="-2.472591">
        <ele>1090.8</ele>
        <time>2023-02-11T08:44:17.000Z</time>
      </trkpt>
      <trkpt lat="41.789786" lon="-2.472512">
        <ele>1090.4</ele>
        <time>2023-02-11T08:44:18.000Z</time>
      </trkpt>
      <trkpt lat="41.789866" lon="-2.472433">
        <ele>1090.4</ele>
        <time>2023-02-11T08:44:19.000Z</time>
      </trkpt>
      <trkpt lat="41.789946" lon="-2.472352">
        <ele>1090</ele>
        <time>2023-02-11T08:44:20.000Z</time>
      </trkpt>
      <trkpt lat="41.790027" lon="-2.472267">
        <ele>1090</ele>
        <time>2023-02-11T08:44:21.000Z</time>
      </trkpt>
      <trkpt lat="41.790109" lon="-2.472183">
        <ele>1089.2</ele>
        <time>2023-02-11T08:44:22.000Z</time>
      </trkpt>
      <trkpt lat="41.790191" lon="-2.4721">
        <ele>1089</ele>
        <time>2023-02-11T08:44:23.000Z</time>
      </trkpt>
      <trkpt lat="41.790275" lon="-2.472013">
        <ele>1088.4</ele>
        <time>2023-02-11T08:44:24.000Z</time>
      </trkpt>
      <trkpt lat="41.790363" lon="-2.471925">
        <ele>1088.2</ele>
        <time>2023-02-11T08:44:25.000Z</time>
      </trkpt>
      <trkpt lat="41.790451" lon="-2.471835">
        <ele>1087.8</ele>
        <time>2023-02-11T08:44:26.000Z</time>
      </trkpt>
      <trkpt lat="41.790539" lon="-2.471741">
        <ele>1087.2</ele>
        <time>2023-02-11T08:44:27.000Z</time>
      </trkpt>
      <trkpt lat="41.790629" lon="-2.471648">
        <ele>1087.2</ele>
        <time>2023-02-11T08:44:28.000Z</time>
      </trkpt>
      <trkpt lat="41.790722" lon="-2.471551">
        <ele>1086.4</ele>
        <time>2023-02-11T08:44:29.000Z</time>
      </trkpt>
      <trkpt lat="41.790815" lon="-2.471455">
        <ele>1086.2</ele>
        <time>2023-02-11T08:44:30.000Z</time>
      </trkpt>
      <trkpt lat="41.790911" lon="-2.471355">
        <ele>1085.8</ele>
        <time>2023-02-11T08:44:31.000Z</time>
      </trkpt>
      <trkpt lat="41.791007" lon="-2.471255">
        <ele>1085.6</ele>
        <time>2023-02-11T08:44:32.000Z</time>
      </trkpt>
      <trkpt lat="41.791106" lon="-2.471153">
        <ele>1085.2</ele>
        <time>2023-02-11T08:44:33.000Z</time>
      </trkpt>
      <trkpt lat="41.791206" lon="-2.471048">
        <ele>1084.8</ele>
        <time>2023-02-11T08:44:34.000Z</time>
      </trkpt>
      <trkpt lat="41.791307" lon="-2.470942">
        <ele>1084</ele>
        <time>2023-02-11T08:44:35.000Z</time>
      </trkpt>
      <trkpt lat="41.791408" lon="-2.470836">
        <ele>1082.8</ele>
        <time>2023-02-11T08:44:36.000Z</time>
      </trkpt>
      <trkpt lat="41.791511" lon="-2.47073">
        <ele>1082.4</ele>
        <time>2023-02-11T08:44:37.000Z</time>
      </trkpt>
      <trkpt lat="41.791613" lon="-2.470624">
        <ele>1081.2</ele>
        <time>2023-02-11T08:44:38.000Z</time>
      </trkpt>
      <trkpt lat="41.791716" lon="-2.470515">
        <ele>1080.6</ele>
        <time>2023-02-11T08:44:39.000Z</time>
      </trkpt>
      <trkpt lat="41.79182" lon="-2.470408">
        <ele>1079.8</ele>
        <time>2023-02-11T08:44:40.000Z</time>
      </trkpt>
      <trkpt lat="41.791921" lon="-2.470301">
        <ele>1079.4</ele>
        <time>2023-02-11T08:44:41.000Z</time>
      </trkpt>
      <trkpt lat="41.792021" lon="-2.470193">
        <ele>1078.6</ele>
        <time>2023-02-11T08:44:42.000Z</time>
      </trkpt>
      <trkpt lat="41.792121" lon="-2.470088">
        <ele>1078.2</ele>
        <time>2023-02-11T08:44:43.000Z</time>
      </trkpt>
      <trkpt lat="41.792219" lon="-2.469986">
        <ele>1077.2</ele>
        <time>2023-02-11T08:44:44.000Z</time>
      </trkpt>
      <trkpt lat="41.792314" lon="-2.469886">
        <ele>1076.4</ele>
        <time>2023-02-11T08:44:45.000Z</time>
      </trkpt>
      <trkpt lat="41.792405" lon="-2.469788">
        <ele>1075.8</ele>
        <time>2023-02-11T08:44:46.000Z</time>
      </trkpt>
      <trkpt lat="41.792497" lon="-2.469692">
        <ele>1075</ele>
        <time>2023-02-11T08:44:47.000Z</time>
      </trkpt>
      <trkpt lat="41.792592" lon="-2.4696">
        <ele>1074.6</ele>
        <time>2023-02-11T08:44:48.000Z</time>
      </trkpt>
      <trkpt lat="41.792692" lon="-2.469511">
        <ele>1074</ele>
        <time>2023-02-11T08:44:49.000Z</time>
      </trkpt>
      <trkpt lat="41.792796" lon="-2.469428">
        <ele>1073.8</ele>
        <time>2023-02-11T08:44:50.000Z</time>
      </trkpt>
      <trkpt lat="41.792904" lon="-2.469358">
        <ele>1073.6</ele>
        <time>2023-02-11T08:44:51.000Z</time>
      </trkpt>
      <trkpt lat="41.793017" lon="-2.469295">
        <ele>1073.4</ele>
        <time>2023-02-11T08:44:52.000Z</time>
      </trkpt>
      <trkpt lat="41.793134" lon="-2.469243">
        <ele>1073.2</ele>
        <time>2023-02-11T08:44:53.000Z</time>
      </trkpt>
      <trkpt lat="41.793255" lon="-2.469199">
        <ele>1073</ele>
        <time>2023-02-11T08:44:54.000Z</time>
      </trkpt>
      <trkpt lat="41.793379" lon="-2.469163">
        <ele>1072.8</ele>
        <time>2023-02-11T08:44:55.000Z</time>
      </trkpt>
      <trkpt lat="41.793503" lon="-2.46914">
        <ele>1072.6</ele>
        <time>2023-02-11T08:44:56.000Z</time>
      </trkpt>
      <trkpt lat="41.793628" lon="-2.469125">
        <ele>1072.4</ele>
        <time>2023-02-11T08:44:57.000Z</time>
      </trkpt>
      <trkpt lat="41.793755" lon="-2.46912">
        <ele>1071.4</ele>
        <time>2023-02-11T08:44:58.000Z</time>
      </trkpt>
      <trkpt lat="41.793886" lon="-2.469125">
        <ele>1070.8</ele>
        <time>2023-02-11T08:44:59.000Z</time>
      </trkpt>
      <trkpt lat="41.794017" lon="-2.469133">
        <ele>1069.6</ele>
        <time>2023-02-11T08:45:00.000Z</time>
      </trkpt>
      <trkpt lat="41.794149" lon="-2.469146">
        <ele>1069</ele>
        <time>2023-02-11T08:45:01.000Z</time>
      </trkpt>
      <trkpt lat="41.794282" lon="-2.469163">
        <ele>1068.6</ele>
        <time>2023-02-11T08:45:02.000Z</time>
      </trkpt>
      <trkpt lat="41.794415" lon="-2.469184">
        <ele>1067.4</ele>
        <time>2023-02-11T08:45:03.000Z</time>
      </trkpt>
      <trkpt lat="41.794549" lon="-2.469204">
        <ele>1067</ele>
        <time>2023-02-11T08:45:04.000Z</time>
      </trkpt>
      <trkpt lat="41.794684" lon="-2.469224">
        <ele>1065.8</ele>
        <time>2023-02-11T08:45:05.000Z</time>
      </trkpt>
      <trkpt lat="41.794819" lon="-2.469244">
        <ele>1065.2</ele>
        <time>2023-02-11T08:45:06.000Z</time>
      </trkpt>
      <trkpt lat="41.794957" lon="-2.469264">
        <ele>1064.2</ele>
        <time>2023-02-11T08:45:07.000Z</time>
      </trkpt>
      <trkpt lat="41.795095" lon="-2.469286">
        <ele>1063.8</ele>
        <time>2023-02-11T08:45:08.000Z</time>
      </trkpt>
      <trkpt lat="41.795235" lon="-2.469307">
        <ele>1062.8</ele>
        <time>2023-02-11T08:45:09.000Z</time>
      </trkpt>
      <trkpt lat="41.795376" lon="-2.469328">
        <ele>1062.4</ele>
        <time>2023-02-11T08:45:10.000Z</time>
      </trkpt>
      <trkpt lat="41.795517" lon="-2.469348">
        <ele>1061.4</ele>
        <time>2023-02-11T08:45:11.000Z</time>
      </trkpt>
      <trkpt lat="41.795658" lon="-2.469366">
        <ele>1060.2</ele>
        <time>2023-02-11T08:45:12.000Z</time>
      </trkpt>
      <trkpt lat="41.795799" lon="-2.469378">
        <ele>1059.8</ele>
        <time>2023-02-11T08:45:13.000Z</time>
      </trkpt>
      <trkpt lat="41.795938" lon="-2.469379">
        <ele>1058.6</ele>
        <time>2023-02-11T08:45:14.000Z</time>
      </trkpt>
      <trkpt lat="41.796074" lon="-2.469371">
        <ele>1058</ele>
        <time>2023-02-11T08:45:15.000Z</time>
      </trkpt>
      <trkpt lat="41.796212" lon="-2.469353">
        <ele>1057</ele>
        <time>2023-02-11T08:45:16.000Z</time>
      </trkpt>
      <trkpt lat="41.796344" lon="-2.469325">
        <ele>1056.6</ele>
        <time>2023-02-11T08:45:17.000Z</time>
      </trkpt>
      <trkpt lat="41.796476" lon="-2.469287">
        <ele>1055.6</ele>
        <time>2023-02-11T08:45:18.000Z</time>
      </trkpt>
      <trkpt lat="41.796604" lon="-2.469239">
        <ele>1055</ele>
        <time>2023-02-11T08:45:19.000Z</time>
      </trkpt>
      <trkpt lat="41.796729" lon="-2.469185">
        <ele>1054.2</ele>
        <time>2023-02-11T08:45:20.000Z</time>
      </trkpt>
      <trkpt lat="41.796849" lon="-2.469123">
        <ele>1053.2</ele>
        <time>2023-02-11T08:45:21.000Z</time>
      </trkpt>
      <trkpt lat="41.796967" lon="-2.469053">
        <ele>1053</ele>
        <time>2023-02-11T08:45:22.000Z</time>
      </trkpt>
      <trkpt lat="41.797083" lon="-2.468974">
        <ele>1052.2</ele>
        <time>2023-02-11T08:45:23.000Z</time>
      </trkpt>
      <trkpt lat="41.797194" lon="-2.468892">
        <ele>1052</ele>
        <time>2023-02-11T08:45:24.000Z</time>
      </trkpt>
      <trkpt lat="41.797302" lon="-2.468808">
        <ele>1051.4</ele>
        <time>2023-02-11T08:45:25.000Z</time>
      </trkpt>
      <trkpt lat="41.797412" lon="-2.468725">
        <ele>1051.2</ele>
        <time>2023-02-11T08:45:26.000Z</time>
      </trkpt>
      <trkpt lat="41.797523" lon="-2.468642">
        <ele>1050.8</ele>
        <time>2023-02-11T08:45:27.000Z</time>
      </trkpt>
      <trkpt lat="41.797634" lon="-2.468559">
        <ele>1050.8</ele>
        <time>2023-02-11T08:45:28.000Z</time>
      </trkpt>
      <trkpt lat="41.797745" lon="-2.468478">
        <ele>1050.6</ele>
        <time>2023-02-11T08:45:29.000Z</time>
      </trkpt>
      <trkpt lat="41.797855" lon="-2.468397">
        <ele>1050</ele>
        <time>2023-02-11T08:45:30.000Z</time>
      </trkpt>
      <trkpt lat="41.797966" lon="-2.468315">
        <ele>1049.8</ele>
        <time>2023-02-11T08:45:31.000Z</time>
      </trkpt>
      <trkpt lat="41.798078" lon="-2.468232">
        <ele>1049.4</ele>
        <time>2023-02-11T08:45:32.000Z</time>
      </trkpt>
      <trkpt lat="41.798192" lon="-2.468151">
        <ele>1049</ele>
        <time>2023-02-11T08:45:33.000Z</time>
      </trkpt>
      <trkpt lat="41.798309" lon="-2.468071">
        <ele>1048.4</ele>
        <time>2023-02-11T08:45:34.000Z</time>
      </trkpt>
      <trkpt lat="41.798425" lon="-2.46799">
        <ele>1048</ele>
        <time>2023-02-11T08:45:35.000Z</time>
      </trkpt>
      <trkpt lat="41.798543" lon="-2.467909">
        <ele>1047</ele>
        <time>2023-02-11T08:45:36.000Z</time>
      </trkpt>
      <trkpt lat="41.798662" lon="-2.467829">
        <ele>1046.6</ele>
        <time>2023-02-11T08:45:37.000Z</time>
      </trkpt>
      <trkpt lat="41.798783" lon="-2.46775">
        <ele>1045.8</ele>
        <time>2023-02-11T08:45:38.000Z</time>
      </trkpt>
      <trkpt lat="41.798904" lon="-2.467671">
        <ele>1044.8</ele>
        <time>2023-02-11T08:45:39.000Z</time>
      </trkpt>
      <trkpt lat="41.799027" lon="-2.467593">
        <ele>1044.2</ele>
        <time>2023-02-11T08:45:40.000Z</time>
      </trkpt>
      <trkpt lat="41.79915" lon="-2.467515">
        <ele>1043</ele>
        <time>2023-02-11T08:45:41.000Z</time>
      </trkpt>
      <trkpt lat="41.799275" lon="-2.467438">
        <ele>1042.4</ele>
        <time>2023-02-11T08:45:42.000Z</time>
      </trkpt>
      <trkpt lat="41.799399" lon="-2.467361">
        <ele>1041.4</ele>
        <time>2023-02-11T08:45:43.000Z</time>
      </trkpt>
      <trkpt lat="41.799522" lon="-2.467285">
        <ele>1041</ele>
        <time>2023-02-11T08:45:44.000Z</time>
      </trkpt>
      <trkpt lat="41.799645" lon="-2.467208">
        <ele>1040</ele>
        <time>2023-02-11T08:45:45.000Z</time>
      </trkpt>
      <trkpt lat="41.799765" lon="-2.467131">
        <ele>1039.6</ele>
        <time>2023-02-11T08:45:46.000Z</time>
      </trkpt>
      <trkpt lat="41.799887" lon="-2.467055">
        <ele>1038.8</ele>
        <time>2023-02-11T08:45:47.000Z</time>
      </trkpt>
      <trkpt lat="41.800011" lon="-2.466979">
        <ele>1038</ele>
        <time>2023-02-11T08:45:48.000Z</time>
      </trkpt>
      <trkpt lat="41.800135" lon="-2.466902">
        <ele>1037.4</ele>
        <time>2023-02-11T08:45:49.000Z</time>
      </trkpt>
      <trkpt lat="41.800255" lon="-2.466821">
        <ele>1036.2</ele>
        <time>2023-02-11T08:45:50.000Z</time>
      </trkpt>
      <trkpt lat="41.800373" lon="-2.466734">
        <ele>1035.6</ele>
        <time>2023-02-11T08:45:51.000Z</time>
      </trkpt>
      <trkpt lat="41.800484" lon="-2.466637">
        <ele>1034.6</ele>
        <time>2023-02-11T08:45:52.000Z</time>
      </trkpt>
      <trkpt lat="41.800589" lon="-2.466531">
        <ele>1034.2</ele>
        <time>2023-02-11T08:45:53.000Z</time>
      </trkpt>
      <trkpt lat="41.800688" lon="-2.466418">
        <ele>1033.4</ele>
        <time>2023-02-11T08:45:54.000Z</time>
      </trkpt>
      <trkpt lat="41.800786" lon="-2.466303">
        <ele>1032.8</ele>
        <time>2023-02-11T08:45:55.000Z</time>
      </trkpt>
      <trkpt lat="41.80088" lon="-2.466181">
        <ele>1032.6</ele>
        <time>2023-02-11T08:45:56.000Z</time>
      </trkpt>
      <trkpt lat="41.800971" lon="-2.466062">
        <ele>1031.8</ele>
        <time>2023-02-11T08:45:57.000Z</time>
      </trkpt>
      <trkpt lat="41.801058" lon="-2.465941">
        <ele>1031.2</ele>
        <time>2023-02-11T08:45:58.000Z</time>
      </trkpt>
      <trkpt lat="41.801141" lon="-2.465818">
        <ele>1030.6</ele>
        <time>2023-02-11T08:45:59.000Z</time>
      </trkpt>
      <trkpt lat="41.801226" lon="-2.4657">
        <ele>1030.2</ele>
        <time>2023-02-11T08:46:00.000Z</time>
      </trkpt>
      <trkpt lat="41.80131" lon="-2.465584">
        <ele>1029.8</ele>
        <time>2023-02-11T08:46:01.000Z</time>
      </trkpt>
      <trkpt lat="41.801391" lon="-2.465469">
        <ele>1029.4</ele>
        <time>2023-02-11T08:46:02.000Z</time>
      </trkpt>
      <trkpt lat="41.801469" lon="-2.465355">
        <ele>1028.8</ele>
        <time>2023-02-11T08:46:03.000Z</time>
      </trkpt>
      <trkpt lat="41.801545" lon="-2.465245">
        <ele>1028.4</ele>
        <time>2023-02-11T08:46:04.000Z</time>
      </trkpt>
      <trkpt lat="41.80162" lon="-2.465139">
        <ele>1028.2</ele>
        <time>2023-02-11T08:46:05.000Z</time>
      </trkpt>
      <trkpt lat="41.801694" lon="-2.465035">
        <ele>1028</ele>
        <time>2023-02-11T08:46:06.000Z</time>
      </trkpt>
      <trkpt lat="41.801765" lon="-2.464936">
        <ele>1028</ele>
        <time>2023-02-11T08:46:07.000Z</time>
      </trkpt>
      <trkpt lat="41.801833" lon="-2.464838">
        <ele>1027.8</ele>
        <time>2023-02-11T08:46:08.000Z</time>
      </trkpt>
      <trkpt lat="41.801899" lon="-2.464744">
        <ele>1027.8</ele>
        <time>2023-02-11T08:46:09.000Z</time>
      </trkpt>
      <trkpt lat="41.801962" lon="-2.464652">
        <ele>1027.8</ele>
        <time>2023-02-11T08:46:10.000Z</time>
      </trkpt>
      <trkpt lat="41.802024" lon="-2.464563">
        <ele>1027.8</ele>
        <time>2023-02-11T08:46:11.000Z</time>
      </trkpt>
      <trkpt lat="41.802086" lon="-2.464478">
        <ele>1027.8</ele>
        <time>2023-02-11T08:46:12.000Z</time>
      </trkpt>
      <trkpt lat="41.802145" lon="-2.464395">
        <ele>1028</ele>
        <time>2023-02-11T08:46:13.000Z</time>
      </trkpt>
      <trkpt lat="41.802203" lon="-2.464314">
        <ele>1028</ele>
        <time>2023-02-11T08:46:14.000Z</time>
      </trkpt>
      <trkpt lat="41.802258" lon="-2.464236">
        <ele>1028.2</ele>
        <time>2023-02-11T08:46:15.000Z</time>
      </trkpt>
      <trkpt lat="41.802314" lon="-2.464159">
        <ele>1028.4</ele>
        <time>2023-02-11T08:46:16.000Z</time>
      </trkpt>
      <trkpt lat="41.802369" lon="-2.464082">
        <ele>1028.8</ele>
        <time>2023-02-11T08:46:17.000Z</time>
      </trkpt>
      <trkpt lat="41.802423" lon="-2.464006">
        <ele>1028.8</ele>
        <time>2023-02-11T08:46:18.000Z</time>
      </trkpt>
      <trkpt lat="41.802477" lon="-2.463934">
        <ele>1029.4</ele>
        <time>2023-02-11T08:46:19.000Z</time>
      </trkpt>
      <trkpt lat="41.802528" lon="-2.46386">
        <ele>1029.6</ele>
        <time>2023-02-11T08:46:20.000Z</time>
      </trkpt>
      <trkpt lat="41.802578" lon="-2.463786">
        <ele>1030</ele>
        <time>2023-02-11T08:46:21.000Z</time>
      </trkpt>
      <trkpt lat="41.802629" lon="-2.463715">
        <ele>1030.2</ele>
        <time>2023-02-11T08:46:22.000Z</time>
      </trkpt>
      <trkpt lat="41.802679" lon="-2.463645">
        <ele>1030.4</ele>
        <time>2023-02-11T08:46:23.000Z</time>
      </trkpt>
      <trkpt lat="41.80273" lon="-2.463576">
        <ele>1030.6</ele>
        <time>2023-02-11T08:46:24.000Z</time>
      </trkpt>
      <trkpt lat="41.802779" lon="-2.463506">
        <ele>1030.8</ele>
        <time>2023-02-11T08:46:25.000Z</time>
      </trkpt>
      <trkpt lat="41.802828" lon="-2.463437">
        <ele>1031</ele>
        <time>2023-02-11T08:46:26.000Z</time>
      </trkpt>
      <trkpt lat="41.802875" lon="-2.463369">
        <ele>1031.2</ele>
        <time>2023-02-11T08:46:27.000Z</time>
      </trkpt>
      <trkpt lat="41.802922" lon="-2.463303">
        <ele>1031.6</ele>
        <time>2023-02-11T08:46:28.000Z</time>
      </trkpt>
      <trkpt lat="41.80297" lon="-2.463235">
        <ele>1031.6</ele>
        <time>2023-02-11T08:46:29.000Z</time>
      </trkpt>
      <trkpt lat="41.803019" lon="-2.463167">
        <ele>1032.2</ele>
        <time>2023-02-11T08:46:30.000Z</time>
      </trkpt>
      <trkpt lat="41.803066" lon="-2.463101">
        <ele>1032.4</ele>
        <time>2023-02-11T08:46:31.000Z</time>
      </trkpt>
      <trkpt lat="41.803113" lon="-2.463035">
        <ele>1032.6</ele>
        <time>2023-02-11T08:46:32.000Z</time>
      </trkpt>
      <trkpt lat="41.80316" lon="-2.462969">
        <ele>1032.8</ele>
        <time>2023-02-11T08:46:33.000Z</time>
      </trkpt>
      <trkpt lat="41.803207" lon="-2.462904">
        <ele>1033</ele>
        <time>2023-02-11T08:46:34.000Z</time>
      </trkpt>
      <trkpt lat="41.803254" lon="-2.46284">
        <ele>1033.2</ele>
        <time>2023-02-11T08:46:35.000Z</time>
      </trkpt>
      <trkpt lat="41.8033" lon="-2.462775">
        <ele>1033.4</ele>
        <time>2023-02-11T08:46:36.000Z</time>
      </trkpt>
      <trkpt lat="41.803349" lon="-2.462709">
        <ele>1033.6</ele>
        <time>2023-02-11T08:46:37.000Z</time>
      </trkpt>
      <trkpt lat="41.803395" lon="-2.462642">
        <ele>1033.8</ele>
        <time>2023-02-11T08:46:38.000Z</time>
      </trkpt>
      <trkpt lat="41.803443" lon="-2.462578">
        <ele>1034</ele>
        <time>2023-02-11T08:46:39.000Z</time>
      </trkpt>
      <trkpt lat="41.80349" lon="-2.462514">
        <ele>1034.2</ele>
        <time>2023-02-11T08:46:40.000Z</time>
      </trkpt>
      <trkpt lat="41.803534" lon="-2.462449">
        <ele>1034.4</ele>
        <time>2023-02-11T08:46:41.000Z</time>
      </trkpt>
      <trkpt lat="41.803582" lon="-2.462383">
        <ele>1034.8</ele>
        <time>2023-02-11T08:46:42.000Z</time>
      </trkpt>
      <trkpt lat="41.80363" lon="-2.462318">
        <ele>1035</ele>
        <time>2023-02-11T08:46:43.000Z</time>
      </trkpt>
      <trkpt lat="41.803679" lon="-2.46225">
        <ele>1035.6</ele>
        <time>2023-02-11T08:46:44.000Z</time>
      </trkpt>
      <trkpt lat="41.803728" lon="-2.462181">
        <ele>1035.6</ele>
        <time>2023-02-11T08:46:45.000Z</time>
      </trkpt>
      <trkpt lat="41.803776" lon="-2.462113">
        <ele>1035.8</ele>
        <time>2023-02-11T08:46:46.000Z</time>
      </trkpt>
      <trkpt lat="41.803824" lon="-2.462043">
        <ele>1036</ele>
        <time>2023-02-11T08:46:47.000Z</time>
      </trkpt>
      <trkpt lat="41.803872" lon="-2.461972">
        <ele>1036.2</ele>
        <time>2023-02-11T08:46:48.000Z</time>
      </trkpt>
      <trkpt lat="41.803922" lon="-2.461902">
        <ele>1036.4</ele>
        <time>2023-02-11T08:46:49.000Z</time>
      </trkpt>
      <trkpt lat="41.803971" lon="-2.461833">
        <ele>1036.4</ele>
        <time>2023-02-11T08:46:50.000Z</time>
      </trkpt>
      <trkpt lat="41.804021" lon="-2.461763">
        <ele>1037</ele>
        <time>2023-02-11T08:46:51.000Z</time>
      </trkpt>
      <trkpt lat="41.804072" lon="-2.461692">
        <ele>1037</ele>
        <time>2023-02-11T08:46:52.000Z</time>
      </trkpt>
      <trkpt lat="41.804124" lon="-2.461622">
        <ele>1037.2</ele>
        <time>2023-02-11T08:46:53.000Z</time>
      </trkpt>
      <trkpt lat="41.804175" lon="-2.461549">
        <ele>1037.4</ele>
        <time>2023-02-11T08:46:54.000Z</time>
      </trkpt>
      <trkpt lat="41.804227" lon="-2.461476">
        <ele>1037.6</ele>
        <time>2023-02-11T08:46:55.000Z</time>
      </trkpt>
      <trkpt lat="41.804279" lon="-2.461402">
        <ele>1037.6</ele>
        <time>2023-02-11T08:46:56.000Z</time>
      </trkpt>
      <trkpt lat="41.804331" lon="-2.461329">
        <ele>1037.8</ele>
        <time>2023-02-11T08:46:57.000Z</time>
      </trkpt>
      <trkpt lat="41.804384" lon="-2.461257">
        <ele>1037.8</ele>
        <time>2023-02-11T08:46:58.000Z</time>
      </trkpt>
      <trkpt lat="41.804435" lon="-2.461183">
        <ele>1038</ele>
        <time>2023-02-11T08:46:59.000Z</time>
      </trkpt>
      <trkpt lat="41.804488" lon="-2.461111">
        <ele>1038</ele>
        <time>2023-02-11T08:47:00.000Z</time>
      </trkpt>
      <trkpt lat="41.804542" lon="-2.461037">
        <ele>1038.2</ele>
        <time>2023-02-11T08:47:01.000Z</time>
      </trkpt>
      <trkpt lat="41.804596" lon="-2.460963">
        <ele>1038.4</ele>
        <time>2023-02-11T08:47:02.000Z</time>
      </trkpt>
      <trkpt lat="41.804651" lon="-2.460889">
        <ele>1038.4</ele>
        <time>2023-02-11T08:47:03.000Z</time>
      </trkpt>
      <trkpt lat="41.804706" lon="-2.460813">
        <ele>1038.6</ele>
        <time>2023-02-11T08:47:04.000Z</time>
      </trkpt>
      <trkpt lat="41.80476" lon="-2.460737">
        <ele>1038.6</ele>
        <time>2023-02-11T08:47:05.000Z</time>
      </trkpt>
      <trkpt lat="41.804817" lon="-2.460658">
        <ele>1038.8</ele>
        <time>2023-02-11T08:47:06.000Z</time>
      </trkpt>
      <trkpt lat="41.804876" lon="-2.460577">
        <ele>1038.8</ele>
        <time>2023-02-11T08:47:07.000Z</time>
      </trkpt>
      <trkpt lat="41.804934" lon="-2.460495">
        <ele>1038.8</ele>
        <time>2023-02-11T08:47:08.000Z</time>
      </trkpt>
      <trkpt lat="41.804992" lon="-2.460414">
        <ele>1039</ele>
        <time>2023-02-11T08:47:09.000Z</time>
      </trkpt>
      <trkpt lat="41.805052" lon="-2.460334">
        <ele>1039</ele>
        <time>2023-02-11T08:47:10.000Z</time>
      </trkpt>
      <trkpt lat="41.805111" lon="-2.460253">
        <ele>1039</ele>
        <time>2023-02-11T08:47:11.000Z</time>
      </trkpt>
      <trkpt lat="41.805168" lon="-2.46017">
        <ele>1039</ele>
        <time>2023-02-11T08:47:12.000Z</time>
      </trkpt>
      <trkpt lat="41.805226" lon="-2.460087">
        <ele>1039</ele>
        <time>2023-02-11T08:47:13.000Z</time>
      </trkpt>
      <trkpt lat="41.805283" lon="-2.460002">
        <ele>1039</ele>
        <time>2023-02-11T08:47:14.000Z</time>
      </trkpt>
      <trkpt lat="41.805338" lon="-2.459917">
        <ele>1038.8</ele>
        <time>2023-02-11T08:47:15.000Z</time>
      </trkpt>
      <trkpt lat="41.805396" lon="-2.459832">
        <ele>1038.6</ele>
        <time>2023-02-11T08:47:16.000Z</time>
      </trkpt>
      <trkpt lat="41.805454" lon="-2.459747">
        <ele>1038.6</ele>
        <time>2023-02-11T08:47:17.000Z</time>
      </trkpt>
      <trkpt lat="41.80551" lon="-2.459662">
        <ele>1038.6</ele>
        <time>2023-02-11T08:47:18.000Z</time>
      </trkpt>
      <trkpt lat="41.805568" lon="-2.459577">
        <ele>1038.6</ele>
        <time>2023-02-11T08:47:19.000Z</time>
      </trkpt>
      <trkpt lat="41.805626" lon="-2.459492">
        <ele>1038.4</ele>
        <time>2023-02-11T08:47:20.000Z</time>
      </trkpt>
      <trkpt lat="41.805686" lon="-2.45941">
        <ele>1038.4</ele>
        <time>2023-02-11T08:47:21.000Z</time>
      </trkpt>
      <trkpt lat="41.805746" lon="-2.459327">
        <ele>1038.2</ele>
        <time>2023-02-11T08:47:22.000Z</time>
      </trkpt>
      <trkpt lat="41.805803" lon="-2.459243">
        <ele>1038.2</ele>
        <time>2023-02-11T08:47:23.000Z</time>
      </trkpt>
      <trkpt lat="41.805859" lon="-2.45916">
        <ele>1038.2</ele>
        <time>2023-02-11T08:47:24.000Z</time>
      </trkpt>
      <trkpt lat="41.805917" lon="-2.459077">
        <ele>1038</ele>
        <time>2023-02-11T08:47:25.000Z</time>
      </trkpt>
      <trkpt lat="41.805977" lon="-2.458997">
        <ele>1038</ele>
        <time>2023-02-11T08:47:26.000Z</time>
      </trkpt>
      <trkpt lat="41.806037" lon="-2.458918">
        <ele>1038</ele>
        <time>2023-02-11T08:47:27.000Z</time>
      </trkpt>
      <trkpt lat="41.806095" lon="-2.458836">
        <ele>1038</ele>
        <time>2023-02-11T08:47:28.000Z</time>
      </trkpt>
      <trkpt lat="41.806152" lon="-2.458753">
        <ele>1038</ele>
        <time>2023-02-11T08:47:29.000Z</time>
      </trkpt>
      <trkpt lat="41.806209" lon="-2.458671">
        <ele>1038</ele>
        <time>2023-02-11T08:47:30.000Z</time>
      </trkpt>
      <trkpt lat="41.806268" lon="-2.45859">
        <ele>1038</ele>
        <time>2023-02-11T08:47:31.000Z</time>
      </trkpt>
      <trkpt lat="41.806326" lon="-2.458507">
        <ele>1038</ele>
        <time>2023-02-11T08:47:32.000Z</time>
      </trkpt>
      <trkpt lat="41.806384" lon="-2.458422">
        <ele>1037.8</ele>
        <time>2023-02-11T08:47:33.000Z</time>
      </trkpt>
      <trkpt lat="41.806442" lon="-2.458338">
        <ele>1037.8</ele>
        <time>2023-02-11T08:47:34.000Z</time>
      </trkpt>
      <trkpt lat="41.806501" lon="-2.458254">
        <ele>1037.8</ele>
        <time>2023-02-11T08:47:35.000Z</time>
      </trkpt>
      <trkpt lat="41.806562" lon="-2.458171">
        <ele>1037.8</ele>
        <time>2023-02-11T08:47:36.000Z</time>
      </trkpt>
      <trkpt lat="41.806621" lon="-2.458087">
        <ele>1037.6</ele>
        <time>2023-02-11T08:47:37.000Z</time>
      </trkpt>
      <trkpt lat="41.806679" lon="-2.458003">
        <ele>1037.6</ele>
        <time>2023-02-11T08:47:38.000Z</time>
      </trkpt>
      <trkpt lat="41.806739" lon="-2.457919">
        <ele>1037.6</ele>
        <time>2023-02-11T08:47:39.000Z</time>
      </trkpt>
      <trkpt lat="41.806799" lon="-2.457832">
        <ele>1037.4</ele>
        <time>2023-02-11T08:47:40.000Z</time>
      </trkpt>
      <trkpt lat="41.806862" lon="-2.457745">
        <ele>1037.4</ele>
        <time>2023-02-11T08:47:41.000Z</time>
      </trkpt>
      <trkpt lat="41.806928" lon="-2.457657">
        <ele>1037.4</ele>
        <time>2023-02-11T08:47:42.000Z</time>
      </trkpt>
      <trkpt lat="41.806993" lon="-2.457568">
        <ele>1037</ele>
        <time>2023-02-11T08:47:43.000Z</time>
      </trkpt>
      <trkpt lat="41.807058" lon="-2.457478">
        <ele>1037</ele>
        <time>2023-02-11T08:47:44.000Z</time>
      </trkpt>
      <trkpt lat="41.807124" lon="-2.457386">
        <ele>1037</ele>
        <time>2023-02-11T08:47:45.000Z</time>
      </trkpt>
      <trkpt lat="41.807194" lon="-2.45729">
        <ele>1036.8</ele>
        <time>2023-02-11T08:47:46.000Z</time>
      </trkpt>
      <trkpt lat="41.807262" lon="-2.457196">
        <ele>1036.6</ele>
        <time>2023-02-11T08:47:47.000Z</time>
      </trkpt>
      <trkpt lat="41.807333" lon="-2.457099">
        <ele>1036.4</ele>
        <time>2023-02-11T08:47:48.000Z</time>
      </trkpt>
      <trkpt lat="41.807405" lon="-2.456997">
        <ele>1036</ele>
        <time>2023-02-11T08:47:49.000Z</time>
      </trkpt>
      <trkpt lat="41.80748" lon="-2.456893">
        <ele>1035.2</ele>
        <time>2023-02-11T08:47:50.000Z</time>
      </trkpt>
      <trkpt lat="41.807557" lon="-2.456786">
        <ele>1034.8</ele>
        <time>2023-02-11T08:47:51.000Z</time>
      </trkpt>
      <trkpt lat="41.807636" lon="-2.456677">
        <ele>1034.2</ele>
        <time>2023-02-11T08:47:52.000Z</time>
      </trkpt>
      <trkpt lat="41.807718" lon="-2.456566">
        <ele>1034</ele>
        <time>2023-02-11T08:47:53.000Z</time>
      </trkpt>
      <trkpt lat="41.807802" lon="-2.456453">
        <ele>1033.4</ele>
        <time>2023-02-11T08:47:54.000Z</time>
      </trkpt>
      <trkpt lat="41.807887" lon="-2.456334">
        <ele>1033</ele>
        <time>2023-02-11T08:47:55.000Z</time>
      </trkpt>
      <trkpt lat="41.807973" lon="-2.456213">
        <ele>1032.2</ele>
        <time>2023-02-11T08:47:56.000Z</time>
      </trkpt>
      <trkpt lat="41.808063" lon="-2.456091">
        <ele>1031.6</ele>
        <time>2023-02-11T08:47:57.000Z</time>
      </trkpt>
      <trkpt lat="41.808155" lon="-2.455966">
        <ele>1030.6</ele>
        <time>2023-02-11T08:47:58.000Z</time>
      </trkpt>
      <trkpt lat="41.808245" lon="-2.455843">
        <ele>1029.6</ele>
        <time>2023-02-11T08:47:59.000Z</time>
      </trkpt>
      <trkpt lat="41.808334" lon="-2.455719">
        <ele>1029</ele>
        <time>2023-02-11T08:48:00.000Z</time>
      </trkpt>
      <trkpt lat="41.808419" lon="-2.455598">
        <ele>1027.8</ele>
        <time>2023-02-11T08:48:01.000Z</time>
      </trkpt>
      <trkpt lat="41.808504" lon="-2.455479">
        <ele>1027.2</ele>
        <time>2023-02-11T08:48:02.000Z</time>
      </trkpt>
      <trkpt lat="41.808585" lon="-2.455361">
        <ele>1026.4</ele>
        <time>2023-02-11T08:48:03.000Z</time>
      </trkpt>
      <trkpt lat="41.808665" lon="-2.455246">
        <ele>1026</ele>
        <time>2023-02-11T08:48:04.000Z</time>
      </trkpt>
      <trkpt lat="41.808748" lon="-2.455134">
        <ele>1025.4</ele>
        <time>2023-02-11T08:48:05.000Z</time>
      </trkpt>
      <trkpt lat="41.808829" lon="-2.455024">
        <ele>1025.2</ele>
        <time>2023-02-11T08:48:06.000Z</time>
      </trkpt>
      <trkpt lat="41.80891" lon="-2.454915">
        <ele>1024.6</ele>
        <time>2023-02-11T08:48:07.000Z</time>
      </trkpt>
      <trkpt lat="41.808989" lon="-2.454808">
        <ele>1024.4</ele>
        <time>2023-02-11T08:48:08.000Z</time>
      </trkpt>
      <trkpt lat="41.809065" lon="-2.454703">
        <ele>1024.2</ele>
        <time>2023-02-11T08:48:09.000Z</time>
      </trkpt>
      <trkpt lat="41.809143" lon="-2.454599">
        <ele>1023.8</ele>
        <time>2023-02-11T08:48:10.000Z</time>
      </trkpt>
      <trkpt lat="41.80922" lon="-2.454494">
        <ele>1023.6</ele>
        <time>2023-02-11T08:48:11.000Z</time>
      </trkpt>
      <trkpt lat="41.809289" lon="-2.454387">
        <ele>1023.4</ele>
        <time>2023-02-11T08:48:12.000Z</time>
      </trkpt>
      <trkpt lat="41.80936" lon="-2.454279">
        <ele>1023.2</ele>
        <time>2023-02-11T08:48:13.000Z</time>
      </trkpt>
      <trkpt lat="41.80943" lon="-2.454174">
        <ele>1022.8</ele>
        <time>2023-02-11T08:48:14.000Z</time>
      </trkpt>
      <trkpt lat="41.809502" lon="-2.454068">
        <ele>1022.4</ele>
        <time>2023-02-11T08:48:15.000Z</time>
      </trkpt>
      <trkpt lat="41.809571" lon="-2.453962">
        <ele>1022.2</ele>
        <time>2023-02-11T08:48:16.000Z</time>
      </trkpt>
      <trkpt lat="41.809639" lon="-2.453857">
        <ele>1022.2</ele>
        <time>2023-02-11T08:48:17.000Z</time>
      </trkpt>
      <trkpt lat="41.809702" lon="-2.453753">
        <ele>1022</ele>
        <time>2023-02-11T08:48:18.000Z</time>
      </trkpt>
      <trkpt lat="41.809764" lon="-2.453649">
        <ele>1022</ele>
        <time>2023-02-11T08:48:19.000Z</time>
      </trkpt>
      <trkpt lat="41.809827" lon="-2.453543">
        <ele>1022</ele>
        <time>2023-02-11T08:48:20.000Z</time>
      </trkpt>
      <trkpt lat="41.809888" lon="-2.453438">
        <ele>1022</ele>
        <time>2023-02-11T08:48:21.000Z</time>
      </trkpt>
      <trkpt lat="41.809943" lon="-2.453334">
        <ele>1022</ele>
        <time>2023-02-11T08:48:22.000Z</time>
      </trkpt>
      <trkpt lat="41.81" lon="-2.453232">
        <ele>1022</ele>
        <time>2023-02-11T08:48:23.000Z</time>
      </trkpt>
      <trkpt lat="41.810054" lon="-2.45313">
        <ele>1022</ele>
        <time>2023-02-11T08:48:24.000Z</time>
      </trkpt>
      <trkpt lat="41.810109" lon="-2.453032">
        <ele>1021.8</ele>
        <time>2023-02-11T08:48:25.000Z</time>
      </trkpt>
      <trkpt lat="41.810162" lon="-2.452937">
        <ele>1021.8</ele>
        <time>2023-02-11T08:48:26.000Z</time>
      </trkpt>
      <trkpt lat="41.810215" lon="-2.452842">
        <ele>1021.8</ele>
        <time>2023-02-11T08:48:27.000Z</time>
      </trkpt>
      <trkpt lat="41.81026" lon="-2.452747">
        <ele>1021.6</ele>
        <time>2023-02-11T08:48:28.000Z</time>
      </trkpt>
      <trkpt lat="41.810309" lon="-2.452657">
        <ele>1021.6</ele>
        <time>2023-02-11T08:48:29.000Z</time>
      </trkpt>
      <trkpt lat="41.810357" lon="-2.452566">
        <ele>1021.4</ele>
        <time>2023-02-11T08:48:30.000Z</time>
      </trkpt>
      <trkpt lat="41.810404" lon="-2.452479">
        <ele>1021.4</ele>
        <time>2023-02-11T08:48:31.000Z</time>
      </trkpt>
      <trkpt lat="41.810452" lon="-2.452391">
        <ele>1021.4</ele>
        <time>2023-02-11T08:48:32.000Z</time>
      </trkpt>
      <trkpt lat="41.810498" lon="-2.452304">
        <ele>1021.4</ele>
        <time>2023-02-11T08:48:33.000Z</time>
      </trkpt>
      <trkpt lat="41.810542" lon="-2.452214">
        <ele>1021.4</ele>
        <time>2023-02-11T08:48:34.000Z</time>
      </trkpt>
      <trkpt lat="41.810589" lon="-2.452123">
        <ele>1021.2</ele>
        <time>2023-02-11T08:48:35.000Z</time>
      </trkpt>
      <trkpt lat="41.810635" lon="-2.452031">
        <ele>1021.2</ele>
        <time>2023-02-11T08:48:36.000Z</time>
      </trkpt>
      <trkpt lat="41.810682" lon="-2.45194">
        <ele>1021</ele>
        <time>2023-02-11T08:48:37.000Z</time>
      </trkpt>
      <trkpt lat="41.810724" lon="-2.451852">
        <ele>1021</ele>
        <time>2023-02-11T08:48:38.000Z</time>
      </trkpt>
      <trkpt lat="41.810769" lon="-2.451766">
        <ele>1020.8</ele>
        <time>2023-02-11T08:48:39.000Z</time>
      </trkpt>
      <trkpt lat="41.810815" lon="-2.451681">
        <ele>1020.8</ele>
        <time>2023-02-11T08:48:40.000Z</time>
      </trkpt>
      <trkpt lat="41.81086" lon="-2.451598">
        <ele>1020.8</ele>
        <time>2023-02-11T08:48:41.000Z</time>
      </trkpt>
      <trkpt lat="41.810905" lon="-2.451515">
        <ele>1020.6</ele>
        <time>2023-02-11T08:48:42.000Z</time>
      </trkpt>
      <trkpt lat="41.810948" lon="-2.451437">
        <ele>1020.6</ele>
        <time>2023-02-11T08:48:43.000Z</time>
      </trkpt>
      <trkpt lat="41.81099" lon="-2.451367">
        <ele>1020.6</ele>
        <time>2023-02-11T08:48:44.000Z</time>
      </trkpt>
      <trkpt lat="41.81103" lon="-2.451302">
        <ele>1020.6</ele>
        <time>2023-02-11T08:48:45.000Z</time>
      </trkpt>
      <trkpt lat="41.811068" lon="-2.45124">
        <ele>1020.6</ele>
        <time>2023-02-11T08:48:46.000Z</time>
      </trkpt>
      <trkpt lat="41.811103" lon="-2.451183">
        <ele>1020.8</ele>
        <time>2023-02-11T08:48:47.000Z</time>
      </trkpt>
      <trkpt lat="41.811132" lon="-2.451133">
        <ele>1020.8</ele>
        <time>2023-02-11T08:48:48.000Z</time>
      </trkpt>
      <trkpt lat="41.811157" lon="-2.451093">
        <ele>1021</ele>
        <time>2023-02-11T08:48:49.000Z</time>
      </trkpt>
      <trkpt lat="41.811176" lon="-2.451059">
        <ele>1021</ele>
        <time>2023-02-11T08:48:50.000Z</time>
      </trkpt>
      <trkpt lat="41.811191" lon="-2.451027">
        <ele>1021</ele>
        <time>2023-02-11T08:48:51.000Z</time>
      </trkpt>
      <trkpt lat="41.811203" lon="-2.451002">
        <ele>1021</ele>
        <time>2023-02-11T08:48:52.000Z</time>
      </trkpt>
      <trkpt lat="41.811211" lon="-2.450985">
        <ele>1021.2</ele>
        <time>2023-02-11T08:48:53.000Z</time>
      </trkpt>
      <trkpt lat="41.811214" lon="-2.450978">
        <ele>1021.2</ele>
        <time>2023-02-11T08:48:54.000Z</time>
      </trkpt>
      <trkpt lat="41.811214" lon="-2.450978">
        <ele>1021.4</ele>
        <time>2023-02-11T08:48:55.000Z</time>
      </trkpt>
      <trkpt lat="41.811214" lon="-2.450978">
        <ele>1021.4</ele>
        <time>2023-02-11T08:48:56.000Z</time>
      </trkpt>
      <trkpt lat="41.811225" lon="-2.450924">
        <ele>1021.2</ele>
        <time>2023-02-11T08:54:49.000Z</time>
      </trkpt>
      <trkpt lat="41.811242" lon="-2.450913">
        <ele>1021.2</ele>
        <time>2023-02-11T08:54:50.000Z</time>
      </trkpt>
      <trkpt lat="41.811267" lon="-2.450902">
        <ele>1021.2</ele>
        <time>2023-02-11T08:54:51.000Z</time>
      </trkpt>
      <trkpt lat="41.811294" lon="-2.450889">
        <ele>1021</ele>
        <time>2023-02-11T08:54:52.000Z</time>
      </trkpt>
      <trkpt lat="41.811325" lon="-2.45087">
        <ele>1021.2</ele>
        <time>2023-02-11T08:54:53.000Z</time>
      </trkpt>
      <trkpt lat="41.81136" lon="-2.450844">
        <ele>1021.2</ele>
        <time>2023-02-11T08:54:54.000Z</time>
      </trkpt>
      <trkpt lat="41.811397" lon="-2.450811">
        <ele>1021.2</ele>
        <time>2023-02-11T08:54:55.000Z</time>
      </trkpt>
      <trkpt lat="41.81144" lon="-2.450775">
        <ele>1021.2</ele>
        <time>2023-02-11T08:54:56.000Z</time>
      </trkpt>
      <trkpt lat="41.811487" lon="-2.450739">
        <ele>1021.2</ele>
        <time>2023-02-11T08:54:57.000Z</time>
      </trkpt>
      <trkpt lat="41.811533" lon="-2.450702">
        <ele>1021.4</ele>
        <time>2023-02-11T08:54:58.000Z</time>
      </trkpt>
      <trkpt lat="41.811583" lon="-2.450664">
        <ele>1021.4</ele>
        <time>2023-02-11T08:54:59.000Z</time>
      </trkpt>
      <trkpt lat="41.811635" lon="-2.450628">
        <ele>1021.4</ele>
        <time>2023-02-11T08:55:00.000Z</time>
      </trkpt>
      <trkpt lat="41.811687" lon="-2.450591">
        <ele>1021.4</ele>
        <time>2023-02-11T08:55:01.000Z</time>
      </trkpt>
      <trkpt lat="41.811739" lon="-2.450555">
        <ele>1021.4</ele>
        <time>2023-02-11T08:55:02.000Z</time>
      </trkpt>
      <trkpt lat="41.811793" lon="-2.450519">
        <ele>1021.4</ele>
        <time>2023-02-11T08:55:03.000Z</time>
      </trkpt>
      <trkpt lat="41.811848" lon="-2.450486">
        <ele>1021.4</ele>
        <time>2023-02-11T08:55:04.000Z</time>
      </trkpt>
      <trkpt lat="41.811904" lon="-2.450454">
        <ele>1021.4</ele>
        <time>2023-02-11T08:55:05.000Z</time>
      </trkpt>
      <trkpt lat="41.811961" lon="-2.450423">
        <ele>1021.4</ele>
        <time>2023-02-11T08:55:06.000Z</time>
      </trkpt>
      <trkpt lat="41.81202" lon="-2.450392">
        <ele>1021.4</ele>
        <time>2023-02-11T08:55:07.000Z</time>
      </trkpt>
      <trkpt lat="41.81208" lon="-2.450361">
        <ele>1021.4</ele>
        <time>2023-02-11T08:55:08.000Z</time>
      </trkpt>
      <trkpt lat="41.812143" lon="-2.450327">
        <ele>1021.2</ele>
        <time>2023-02-11T08:55:09.000Z</time>
      </trkpt>
      <trkpt lat="41.812207" lon="-2.450293">
        <ele>1021.2</ele>
        <time>2023-02-11T08:55:10.000Z</time>
      </trkpt>
      <trkpt lat="41.812271" lon="-2.45026">
        <ele>1021.2</ele>
        <time>2023-02-11T08:55:11.000Z</time>
      </trkpt>
      <trkpt lat="41.812335" lon="-2.450225">
        <ele>1021</ele>
        <time>2023-02-11T08:55:12.000Z</time>
      </trkpt>
      <trkpt lat="41.812403" lon="-2.450189">
        <ele>1021</ele>
        <time>2023-02-11T08:55:13.000Z</time>
      </trkpt>
      <trkpt lat="41.812472" lon="-2.450151">
        <ele>1020.8</ele>
        <time>2023-02-11T08:55:14.000Z</time>
      </trkpt>
      <trkpt lat="41.812542" lon="-2.450113">
        <ele>1020.8</ele>
        <time>2023-02-11T08:55:15.000Z</time>
      </trkpt>
      <trkpt lat="41.812617" lon="-2.450076">
        <ele>1020.6</ele>
        <time>2023-02-11T08:55:16.000Z</time>
      </trkpt>
      <trkpt lat="41.812692" lon="-2.450038">
        <ele>1020.6</ele>
        <time>2023-02-11T08:55:17.000Z</time>
      </trkpt>
      <trkpt lat="41.812769" lon="-2.449998">
        <ele>1020.2</ele>
        <time>2023-02-11T08:55:18.000Z</time>
      </trkpt>
      <trkpt lat="41.812846" lon="-2.449958">
        <ele>1020</ele>
        <time>2023-02-11T08:55:19.000Z</time>
      </trkpt>
      <trkpt lat="41.812926" lon="-2.449916">
        <ele>1019.8</ele>
        <time>2023-02-11T08:55:20.000Z</time>
      </trkpt>
      <trkpt lat="41.813012" lon="-2.449872">
        <ele>1019.4</ele>
        <time>2023-02-11T08:55:21.000Z</time>
      </trkpt>
      <trkpt lat="41.813098" lon="-2.449822">
        <ele>1019.2</ele>
        <time>2023-02-11T08:55:22.000Z</time>
      </trkpt>
      <trkpt lat="41.813188" lon="-2.449764">
        <ele>1019</ele>
        <time>2023-02-11T08:55:23.000Z</time>
      </trkpt>
      <trkpt lat="41.813277" lon="-2.449699">
        <ele>1018.8</ele>
        <time>2023-02-11T08:55:24.000Z</time>
      </trkpt>
      <trkpt lat="41.813366" lon="-2.449627">
        <ele>1018.6</ele>
        <time>2023-02-11T08:55:25.000Z</time>
      </trkpt>
      <trkpt lat="41.813451" lon="-2.449541">
        <ele>1018.4</ele>
        <time>2023-02-11T08:55:26.000Z</time>
      </trkpt>
      <trkpt lat="41.81353" lon="-2.449446">
        <ele>1017.8</ele>
        <time>2023-02-11T08:55:27.000Z</time>
      </trkpt>
      <trkpt lat="41.813607" lon="-2.449339">
        <ele>1017.2</ele>
        <time>2023-02-11T08:55:28.000Z</time>
      </trkpt>
      <trkpt lat="41.81368" lon="-2.449225">
        <ele>1016.6</ele>
        <time>2023-02-11T08:55:29.000Z</time>
      </trkpt>
      <trkpt lat="41.813748" lon="-2.449105">
        <ele>1015.4</ele>
        <time>2023-02-11T08:55:30.000Z</time>
      </trkpt>
      <trkpt lat="41.813812" lon="-2.448981">
        <ele>1015</ele>
        <time>2023-02-11T08:55:31.000Z</time>
      </trkpt>
      <trkpt lat="41.81387" lon="-2.448853">
        <ele>1013.4</ele>
        <time>2023-02-11T08:55:32.000Z</time>
      </trkpt>
      <trkpt lat="41.813925" lon="-2.448723">
        <ele>1013</ele>
        <time>2023-02-11T08:55:33.000Z</time>
      </trkpt>
      <trkpt lat="41.813977" lon="-2.448596">
        <ele>1011.8</ele>
        <time>2023-02-11T08:55:34.000Z</time>
      </trkpt>
      <trkpt lat="41.814026" lon="-2.448469">
        <ele>1011.6</ele>
        <time>2023-02-11T08:55:35.000Z</time>
      </trkpt>
      <trkpt lat="41.814072" lon="-2.448344">
        <ele>1011</ele>
        <time>2023-02-11T08:55:36.000Z</time>
      </trkpt>
      <trkpt lat="41.814118" lon="-2.448224">
        <ele>1010.4</ele>
        <time>2023-02-11T08:55:37.000Z</time>
      </trkpt>
      <trkpt lat="41.814163" lon="-2.448109">
        <ele>1010.2</ele>
        <time>2023-02-11T08:55:38.000Z</time>
      </trkpt>
      <trkpt lat="41.814205" lon="-2.447999">
        <ele>1010</ele>
        <time>2023-02-11T08:55:39.000Z</time>
      </trkpt>
      <trkpt lat="41.814248" lon="-2.447894">
        <ele>1009.8</ele>
        <time>2023-02-11T08:55:40.000Z</time>
      </trkpt>
      <trkpt lat="41.814289" lon="-2.447791">
        <ele>1009.6</ele>
        <time>2023-02-11T08:55:41.000Z</time>
      </trkpt>
      <trkpt lat="41.81433" lon="-2.44769">
        <ele>1009.4</ele>
        <time>2023-02-11T08:55:42.000Z</time>
      </trkpt>
      <trkpt lat="41.81437" lon="-2.44759">
        <ele>1009.2</ele>
        <time>2023-02-11T08:55:43.000Z</time>
      </trkpt>
      <trkpt lat="41.814411" lon="-2.447491">
        <ele>1009.2</ele>
        <time>2023-02-11T08:55:44.000Z</time>
      </trkpt>
      <trkpt lat="41.81445" lon="-2.447394">
        <ele>1009</ele>
        <time>2023-02-11T08:55:45.000Z</time>
      </trkpt>
      <trkpt lat="41.814488" lon="-2.447295">
        <ele>1008.8</ele>
        <time>2023-02-11T08:55:46.000Z</time>
      </trkpt>
      <trkpt lat="41.814527" lon="-2.4472">
        <ele>1008.8</ele>
        <time>2023-02-11T08:55:47.000Z</time>
      </trkpt>
      <trkpt lat="41.814565" lon="-2.447107">
        <ele>1008.8</ele>
        <time>2023-02-11T08:55:48.000Z</time>
      </trkpt>
      <trkpt lat="41.814602" lon="-2.447012">
        <ele>1008.6</ele>
        <time>2023-02-11T08:55:49.000Z</time>
      </trkpt>
      <trkpt lat="41.81464" lon="-2.446919">
        <ele>1008.6</ele>
        <time>2023-02-11T08:55:50.000Z</time>
      </trkpt>
      <trkpt lat="41.814676" lon="-2.446825">
        <ele>1008.4</ele>
        <time>2023-02-11T08:55:51.000Z</time>
      </trkpt>
      <trkpt lat="41.814714" lon="-2.44673">
        <ele>1008.4</ele>
        <time>2023-02-11T08:55:52.000Z</time>
      </trkpt>
      <trkpt lat="41.814752" lon="-2.446635">
        <ele>1008.4</ele>
        <time>2023-02-11T08:55:53.000Z</time>
      </trkpt>
      <trkpt lat="41.814789" lon="-2.446544">
        <ele>1008.2</ele>
        <time>2023-02-11T08:55:54.000Z</time>
      </trkpt>
      <trkpt lat="41.814825" lon="-2.446455">
        <ele>1008.2</ele>
        <time>2023-02-11T08:55:55.000Z</time>
      </trkpt>
      <trkpt lat="41.814861" lon="-2.446362">
        <ele>1008.2</ele>
        <time>2023-02-11T08:55:56.000Z</time>
      </trkpt>
      <trkpt lat="41.814897" lon="-2.44627">
        <ele>1008</ele>
        <time>2023-02-11T08:55:57.000Z</time>
      </trkpt>
      <trkpt lat="41.814932" lon="-2.446183">
        <ele>1008</ele>
        <time>2023-02-11T08:55:58.000Z</time>
      </trkpt>
      <trkpt lat="41.814965" lon="-2.446099">
        <ele>1007.8</ele>
        <time>2023-02-11T08:55:59.000Z</time>
      </trkpt>
      <trkpt lat="41.814999" lon="-2.446016">
        <ele>1007.8</ele>
        <time>2023-02-11T08:56:00.000Z</time>
      </trkpt>
      <trkpt lat="41.81503" lon="-2.445933">
        <ele>1007.8</ele>
        <time>2023-02-11T08:56:01.000Z</time>
      </trkpt>
      <trkpt lat="41.815059" lon="-2.445853">
        <ele>1008</ele>
        <time>2023-02-11T08:56:02.000Z</time>
      </trkpt>
      <trkpt lat="41.815093" lon="-2.445775">
        <ele>1008</ele>
        <time>2023-02-11T08:56:03.000Z</time>
      </trkpt>
      <trkpt lat="41.815124" lon="-2.445698">
        <ele>1008</ele>
        <time>2023-02-11T08:56:04.000Z</time>
      </trkpt>
      <trkpt lat="41.815154" lon="-2.445621">
        <ele>1008</ele>
        <time>2023-02-11T08:56:05.000Z</time>
      </trkpt>
      <trkpt lat="41.815181" lon="-2.445545">
        <ele>1008.2</ele>
        <time>2023-02-11T08:56:06.000Z</time>
      </trkpt>
      <trkpt lat="41.815212" lon="-2.445472">
        <ele>1008.4</ele>
        <time>2023-02-11T08:56:07.000Z</time>
      </trkpt>
      <trkpt lat="41.815242" lon="-2.445402">
        <ele>1008.8</ele>
        <time>2023-02-11T08:56:08.000Z</time>
      </trkpt>
      <trkpt lat="41.815276" lon="-2.445333">
        <ele>1009</ele>
        <time>2023-02-11T08:56:09.000Z</time>
      </trkpt>
      <trkpt lat="41.815307" lon="-2.445267">
        <ele>1009.2</ele>
        <time>2023-02-11T08:56:10.000Z</time>
      </trkpt>
      <trkpt lat="41.815338" lon="-2.445204">
        <ele>1009.4</ele>
        <time>2023-02-11T08:56:11.000Z</time>
      </trkpt>
      <trkpt lat="41.815372" lon="-2.445146">
        <ele>1009.6</ele>
        <time>2023-02-11T08:56:12.000Z</time>
      </trkpt>
      <trkpt lat="41.815409" lon="-2.445089">
        <ele>1010.2</ele>
        <time>2023-02-11T08:56:13.000Z</time>
      </trkpt>
      <trkpt lat="41.815449" lon="-2.445036">
        <ele>1010.2</ele>
        <time>2023-02-11T08:56:14.000Z</time>
      </trkpt>
      <trkpt lat="41.81549" lon="-2.444985">
        <ele>1010.6</ele>
        <time>2023-02-11T08:56:15.000Z</time>
      </trkpt>
      <trkpt lat="41.815541" lon="-2.444937">
        <ele>1010.8</ele>
        <time>2023-02-11T08:56:16.000Z</time>
      </trkpt>
      <trkpt lat="41.815588" lon="-2.444895">
        <ele>1011.2</ele>
        <time>2023-02-11T08:56:17.000Z</time>
      </trkpt>
      <trkpt lat="41.815636" lon="-2.444862">
        <ele>1011.4</ele>
        <time>2023-02-11T08:56:18.000Z</time>
      </trkpt>
      <trkpt lat="41.815686" lon="-2.444838">
        <ele>1011.4</ele>
        <time>2023-02-11T08:56:19.000Z</time>
      </trkpt>
      <trkpt lat="41.815744" lon="-2.444823">
        <ele>1011.6</ele>
        <time>2023-02-11T08:56:20.000Z</time>
      </trkpt>
      <trkpt lat="41.815809" lon="-2.444814">
        <ele>1011.8</ele>
        <time>2023-02-11T08:56:21.000Z</time>
      </trkpt>
      <trkpt lat="41.815871" lon="-2.444811">
        <ele>1012</ele>
        <time>2023-02-11T08:56:22.000Z</time>
      </trkpt>
      <trkpt lat="41.815935" lon="-2.444811">
        <ele>1012.2</ele>
        <time>2023-02-11T08:56:23.000Z</time>
      </trkpt>
      <trkpt lat="41.815999" lon="-2.444812">
        <ele>1012</ele>
        <time>2023-02-11T08:56:24.000Z</time>
      </trkpt>
      <trkpt lat="41.816065" lon="-2.444813">
        <ele>1012.2</ele>
        <time>2023-02-11T08:56:25.000Z</time>
      </trkpt>
      <trkpt lat="41.816132" lon="-2.444818">
        <ele>1012.4</ele>
        <time>2023-02-11T08:56:26.000Z</time>
      </trkpt>
      <trkpt lat="41.816196" lon="-2.444821">
        <ele>1012.4</ele>
        <time>2023-02-11T08:56:27.000Z</time>
      </trkpt>
      <trkpt lat="41.81626" lon="-2.444824">
        <ele>1012.6</ele>
        <time>2023-02-11T08:56:28.000Z</time>
      </trkpt>
      <trkpt lat="41.816325" lon="-2.444826">
        <ele>1012.6</ele>
        <time>2023-02-11T08:56:29.000Z</time>
      </trkpt>
      <trkpt lat="41.816392" lon="-2.444827">
        <ele>1012.6</ele>
        <time>2023-02-11T08:56:30.000Z</time>
      </trkpt>
      <trkpt lat="41.816463" lon="-2.444829">
        <ele>1012.6</ele>
        <time>2023-02-11T08:56:31.000Z</time>
      </trkpt>
      <trkpt lat="41.816529" lon="-2.444835">
        <ele>1012.6</ele>
        <time>2023-02-11T08:56:32.000Z</time>
      </trkpt>
      <trkpt lat="41.816589" lon="-2.444836">
        <ele>1012.6</ele>
        <time>2023-02-11T08:56:33.000Z</time>
      </trkpt>
      <trkpt lat="41.816648" lon="-2.444827">
        <ele>1012.8</ele>
        <time>2023-02-11T08:56:34.000Z</time>
      </trkpt>
      <trkpt lat="41.816698" lon="-2.444788">
        <ele>1012.8</ele>
        <time>2023-02-11T08:56:35.000Z</time>
      </trkpt>
      <trkpt lat="41.816734" lon="-2.444722">
        <ele>1012.8</ele>
        <time>2023-02-11T08:56:36.000Z</time>
      </trkpt>
      <trkpt lat="41.816743" lon="-2.444649">
        <ele>1012.8</ele>
        <time>2023-02-11T08:56:37.000Z</time>
      </trkpt>
      <trkpt lat="41.81673" lon="-2.444586">
        <ele>1012.8</ele>
        <time>2023-02-11T08:56:38.000Z</time>
      </trkpt>
      <trkpt lat="41.816704" lon="-2.444533">
        <ele>1012.8</ele>
        <time>2023-02-11T08:56:39.000Z</time>
      </trkpt>
      <trkpt lat="41.816671" lon="-2.444489">
        <ele>1013</ele>
        <time>2023-02-11T08:56:40.000Z</time>
      </trkpt>
      <trkpt lat="41.816635" lon="-2.444452">
        <ele>1013.2</ele>
        <time>2023-02-11T08:56:41.000Z</time>
      </trkpt>
      <trkpt lat="41.816599" lon="-2.444418">
        <ele>1013.4</ele>
        <time>2023-02-11T08:56:42.000Z</time>
      </trkpt>
      <trkpt lat="41.816561" lon="-2.444384">
        <ele>1013.4</ele>
        <time>2023-02-11T08:56:43.000Z</time>
      </trkpt>
      <trkpt lat="41.816523" lon="-2.444348">
        <ele>1013.6</ele>
        <time>2023-02-11T08:56:44.000Z</time>
      </trkpt>
      <trkpt lat="41.816486" lon="-2.444315">
        <ele>1013.8</ele>
        <time>2023-02-11T08:56:45.000Z</time>
      </trkpt>
      <trkpt lat="41.816448" lon="-2.444283">
        <ele>1014.4</ele>
        <time>2023-02-11T08:56:46.000Z</time>
      </trkpt>
      <trkpt lat="41.816409" lon="-2.444254">
        <ele>1014.6</ele>
        <time>2023-02-11T08:56:47.000Z</time>
      </trkpt>
      <trkpt lat="41.816365" lon="-2.444232">
        <ele>1015</ele>
        <time>2023-02-11T08:56:48.000Z</time>
      </trkpt>
      <trkpt lat="41.81632" lon="-2.444211">
        <ele>1015.2</ele>
        <time>2023-02-11T08:56:49.000Z</time>
      </trkpt>
      <trkpt lat="41.816272" lon="-2.444198">
        <ele>1015.6</ele>
        <time>2023-02-11T08:56:50.000Z</time>
      </trkpt>
      <trkpt lat="41.816226" lon="-2.444175">
        <ele>1015.8</ele>
        <time>2023-02-11T08:56:51.000Z</time>
      </trkpt>
      <trkpt lat="41.816183" lon="-2.44415">
        <ele>1016</ele>
        <time>2023-02-11T08:56:52.000Z</time>
      </trkpt>
      <trkpt lat="41.816141" lon="-2.444127">
        <ele>1016.4</ele>
        <time>2023-02-11T08:56:53.000Z</time>
      </trkpt>
      <trkpt lat="41.816097" lon="-2.444105">
        <ele>1016.6</ele>
        <time>2023-02-11T08:56:54.000Z</time>
      </trkpt>
      <trkpt lat="41.816054" lon="-2.444084">
        <ele>1017</ele>
        <time>2023-02-11T08:56:55.000Z</time>
      </trkpt>
      <trkpt lat="41.81601" lon="-2.444066">
        <ele>1017.2</ele>
        <time>2023-02-11T08:56:56.000Z</time>
      </trkpt>
      <trkpt lat="41.815962" lon="-2.444048">
        <ele>1017.4</ele>
        <time>2023-02-11T08:56:57.000Z</time>
      </trkpt>
      <trkpt lat="41.815913" lon="-2.444029">
        <ele>1017.8</ele>
        <time>2023-02-11T08:56:58.000Z</time>
      </trkpt>
      <trkpt lat="41.815867" lon="-2.44401">
        <ele>1017.8</ele>
        <time>2023-02-11T08:56:59.000Z</time>
      </trkpt>
      <trkpt lat="41.815819" lon="-2.44399">
        <ele>1018.2</ele>
        <time>2023-02-11T08:57:00.000Z</time>
      </trkpt>
      <trkpt lat="41.815769" lon="-2.443969">
        <ele>1018.4</ele>
        <time>2023-02-11T08:57:01.000Z</time>
      </trkpt>
      <trkpt lat="41.815724" lon="-2.443947">
        <ele>1018.8</ele>
        <time>2023-02-11T08:57:02.000Z</time>
      </trkpt>
      <trkpt lat="41.815675" lon="-2.443928">
        <ele>1018.8</ele>
        <time>2023-02-11T08:57:03.000Z</time>
      </trkpt>
      <trkpt lat="41.815624" lon="-2.443906">
        <ele>1019</ele>
        <time>2023-02-11T08:57:04.000Z</time>
      </trkpt>
      <trkpt lat="41.815574" lon="-2.443886">
        <ele>1019</ele>
        <time>2023-02-11T08:57:05.000Z</time>
      </trkpt>
      <trkpt lat="41.815521" lon="-2.443862">
        <ele>1019.2</ele>
        <time>2023-02-11T08:57:06.000Z</time>
      </trkpt>
      <trkpt lat="41.815472" lon="-2.443835">
        <ele>1019.2</ele>
        <time>2023-02-11T08:57:07.000Z</time>
      </trkpt>
      <trkpt lat="41.81542" lon="-2.443815">
        <ele>1019.4</ele>
        <time>2023-02-11T08:57:08.000Z</time>
      </trkpt>
      <trkpt lat="41.815367" lon="-2.443796">
        <ele>1019.4</ele>
        <time>2023-02-11T08:57:09.000Z</time>
      </trkpt>
      <trkpt lat="41.815314" lon="-2.443772">
        <ele>1019.4</ele>
        <time>2023-02-11T08:57:10.000Z</time>
      </trkpt>
      <trkpt lat="41.815265" lon="-2.443748">
        <ele>1019.6</ele>
        <time>2023-02-11T08:57:11.000Z</time>
      </trkpt>
      <trkpt lat="41.815217" lon="-2.443724">
        <ele>1019.6</ele>
        <time>2023-02-11T08:57:12.000Z</time>
      </trkpt>
      <trkpt lat="41.815165" lon="-2.443696">
        <ele>1019.6</ele>
        <time>2023-02-11T08:57:13.000Z</time>
      </trkpt>
      <trkpt lat="41.815114" lon="-2.443668">
        <ele>1019.6</ele>
        <time>2023-02-11T08:57:14.000Z</time>
      </trkpt>
      <trkpt lat="41.815064" lon="-2.443635">
        <ele>1019.6</ele>
        <time>2023-02-11T08:57:15.000Z</time>
      </trkpt>
      <trkpt lat="41.815018" lon="-2.443592">
        <ele>1019.8</ele>
        <time>2023-02-11T08:57:16.000Z</time>
      </trkpt>
      <trkpt lat="41.81498" lon="-2.443535">
        <ele>1019.8</ele>
        <time>2023-02-11T08:57:17.000Z</time>
      </trkpt>
      <trkpt lat="41.81495" lon="-2.44347">
        <ele>1019.8</ele>
        <time>2023-02-11T08:57:18.000Z</time>
      </trkpt>
      <trkpt lat="41.814927" lon="-2.443402">
        <ele>1020</ele>
        <time>2023-02-11T08:57:19.000Z</time>
      </trkpt>
      <trkpt lat="41.81491" lon="-2.443332">
        <ele>1020</ele>
        <time>2023-02-11T08:57:20.000Z</time>
      </trkpt>
      <trkpt lat="41.8149" lon="-2.443263">
        <ele>1020.2</ele>
        <time>2023-02-11T08:57:21.000Z</time>
      </trkpt>
      <trkpt lat="41.814894" lon="-2.443198">
        <ele>1020.2</ele>
        <time>2023-02-11T08:57:22.000Z</time>
      </trkpt>
      <trkpt lat="41.814888" lon="-2.443132">
        <ele>1020.4</ele>
        <time>2023-02-11T08:57:23.000Z</time>
      </trkpt>
      <trkpt lat="41.814882" lon="-2.443067">
        <ele>1020.4</ele>
        <time>2023-02-11T08:57:24.000Z</time>
      </trkpt>
      <trkpt lat="41.814876" lon="-2.443004">
        <ele>1020.6</ele>
        <time>2023-02-11T08:57:25.000Z</time>
      </trkpt>
      <trkpt lat="41.814872" lon="-2.442943">
        <ele>1020.8</ele>
        <time>2023-02-11T08:57:26.000Z</time>
      </trkpt>
      <trkpt lat="41.814868" lon="-2.442882">
        <ele>1021.2</ele>
        <time>2023-02-11T08:57:27.000Z</time>
      </trkpt>
      <trkpt lat="41.814865" lon="-2.44282">
        <ele>1021.2</ele>
        <time>2023-02-11T08:57:28.000Z</time>
      </trkpt>
      <trkpt lat="41.814863" lon="-2.442762">
        <ele>1021.6</ele>
        <time>2023-02-11T08:57:29.000Z</time>
      </trkpt>
      <trkpt lat="41.814863" lon="-2.442702">
        <ele>1021.6</ele>
        <time>2023-02-11T08:57:30.000Z</time>
      </trkpt>
      <trkpt lat="41.814863" lon="-2.442643">
        <ele>1021.8</ele>
        <time>2023-02-11T08:57:31.000Z</time>
      </trkpt>
      <trkpt lat="41.814863" lon="-2.442584">
        <ele>1022.2</ele>
        <time>2023-02-11T08:57:32.000Z</time>
      </trkpt>
      <trkpt lat="41.814862" lon="-2.442524">
        <ele>1022.6</ele>
        <time>2023-02-11T08:57:33.000Z</time>
      </trkpt>
      <trkpt lat="41.81486" lon="-2.442467">
        <ele>1023</ele>
        <time>2023-02-11T08:57:34.000Z</time>
      </trkpt>
      <trkpt lat="41.81486" lon="-2.44241">
        <ele>1023.2</ele>
        <time>2023-02-11T08:57:35.000Z</time>
      </trkpt>
      <trkpt lat="41.814857" lon="-2.442356">
        <ele>1023.6</ele>
        <time>2023-02-11T08:57:36.000Z</time>
      </trkpt>
      <trkpt lat="41.814857" lon="-2.442304">
        <ele>1023.6</ele>
        <time>2023-02-11T08:57:37.000Z</time>
      </trkpt>
      <trkpt lat="41.814858" lon="-2.442248">
        <ele>1024</ele>
        <time>2023-02-11T08:57:38.000Z</time>
      </trkpt>
      <trkpt lat="41.814859" lon="-2.442191">
        <ele>1024.2</ele>
        <time>2023-02-11T08:57:39.000Z</time>
      </trkpt>
      <trkpt lat="41.814856" lon="-2.442134">
        <ele>1024.6</ele>
        <time>2023-02-11T08:57:40.000Z</time>
      </trkpt>
      <trkpt lat="41.814854" lon="-2.442075">
        <ele>1025</ele>
        <time>2023-02-11T08:57:41.000Z</time>
      </trkpt>
      <trkpt lat="41.814858" lon="-2.442018">
        <ele>1025.2</ele>
        <time>2023-02-11T08:57:42.000Z</time>
      </trkpt>
      <trkpt lat="41.814863" lon="-2.441961">
        <ele>1025.6</ele>
        <time>2023-02-11T08:57:43.000Z</time>
      </trkpt>
      <trkpt lat="41.814866" lon="-2.441903">
        <ele>1025.6</ele>
        <time>2023-02-11T08:57:44.000Z</time>
      </trkpt>
      <trkpt lat="41.814868" lon="-2.441847">
        <ele>1026.2</ele>
        <time>2023-02-11T08:57:45.000Z</time>
      </trkpt>
      <trkpt lat="41.814871" lon="-2.441789">
        <ele>1026.4</ele>
        <time>2023-02-11T08:57:46.000Z</time>
      </trkpt>
      <trkpt lat="41.814874" lon="-2.441731">
        <ele>1026.8</ele>
        <time>2023-02-11T08:57:47.000Z</time>
      </trkpt>
      <trkpt lat="41.814873" lon="-2.44167">
        <ele>1027</ele>
        <time>2023-02-11T08:57:48.000Z</time>
      </trkpt>
      <trkpt lat="41.81487" lon="-2.441607">
        <ele>1027.4</ele>
        <time>2023-02-11T08:57:49.000Z</time>
      </trkpt>
      <trkpt lat="41.814865" lon="-2.441546">
        <ele>1027.8</ele>
        <time>2023-02-11T08:57:50.000Z</time>
      </trkpt>
      <trkpt lat="41.81486" lon="-2.441485">
        <ele>1028.2</ele>
        <time>2023-02-11T08:57:51.000Z</time>
      </trkpt>
      <trkpt lat="41.814854" lon="-2.441424">
        <ele>1028.4</ele>
        <time>2023-02-11T08:57:52.000Z</time>
      </trkpt>
      <trkpt lat="41.814847" lon="-2.441363">
        <ele>1028.6</ele>
        <time>2023-02-11T08:57:53.000Z</time>
      </trkpt>
      <trkpt lat="41.81484" lon="-2.441307">
        <ele>1029</ele>
        <time>2023-02-11T08:57:54.000Z</time>
      </trkpt>
      <trkpt lat="41.814832" lon="-2.441254">
        <ele>1029</ele>
        <time>2023-02-11T08:57:55.000Z</time>
      </trkpt>
      <trkpt lat="41.814822" lon="-2.441201">
        <ele>1029.2</ele>
        <time>2023-02-11T08:57:56.000Z</time>
      </trkpt>
      <trkpt lat="41.81481" lon="-2.441145">
        <ele>1029.4</ele>
        <time>2023-02-11T08:57:57.000Z</time>
      </trkpt>
      <trkpt lat="41.814799" lon="-2.441089">
        <ele>1029.6</ele>
        <time>2023-02-11T08:57:58.000Z</time>
      </trkpt>
      <trkpt lat="41.814791" lon="-2.441033">
        <ele>1029.8</ele>
        <time>2023-02-11T08:57:59.000Z</time>
      </trkpt>
      <trkpt lat="41.81478" lon="-2.440977">
        <ele>1029.8</ele>
        <time>2023-02-11T08:58:00.000Z</time>
      </trkpt>
      <trkpt lat="41.814767" lon="-2.440921">
        <ele>1030</ele>
        <time>2023-02-11T08:58:01.000Z</time>
      </trkpt>
      <trkpt lat="41.814752" lon="-2.440867">
        <ele>1030.2</ele>
        <time>2023-02-11T08:58:02.000Z</time>
      </trkpt>
      <trkpt lat="41.81474" lon="-2.440815">
        <ele>1030.6</ele>
        <time>2023-02-11T08:58:03.000Z</time>
      </trkpt>
      <trkpt lat="41.814727" lon="-2.440762">
        <ele>1030.8</ele>
        <time>2023-02-11T08:58:04.000Z</time>
      </trkpt>
      <trkpt lat="41.814714" lon="-2.440708">
        <ele>1031.4</ele>
        <time>2023-02-11T08:58:05.000Z</time>
      </trkpt>
      <trkpt lat="41.814699" lon="-2.440654">
        <ele>1031.6</ele>
        <time>2023-02-11T08:58:06.000Z</time>
      </trkpt>
      <trkpt lat="41.814686" lon="-2.440599">
        <ele>1031.8</ele>
        <time>2023-02-11T08:58:07.000Z</time>
      </trkpt>
      <trkpt lat="41.814674" lon="-2.440545">
        <ele>1032.2</ele>
        <time>2023-02-11T08:58:08.000Z</time>
      </trkpt>
      <trkpt lat="41.814662" lon="-2.440491">
        <ele>1032.4</ele>
        <time>2023-02-11T08:58:09.000Z</time>
      </trkpt>
      <trkpt lat="41.814654" lon="-2.440438">
        <ele>1032.6</ele>
        <time>2023-02-11T08:58:10.000Z</time>
      </trkpt>
      <trkpt lat="41.814645" lon="-2.440386">
        <ele>1032.8</ele>
        <time>2023-02-11T08:58:11.000Z</time>
      </trkpt>
      <trkpt lat="41.814637" lon="-2.440334">
        <ele>1033.2</ele>
        <time>2023-02-11T08:58:12.000Z</time>
      </trkpt>
      <trkpt lat="41.814628" lon="-2.440282">
        <ele>1033.6</ele>
        <time>2023-02-11T08:58:13.000Z</time>
      </trkpt>
      <trkpt lat="41.814618" lon="-2.440227">
        <ele>1033.8</ele>
        <time>2023-02-11T08:58:14.000Z</time>
      </trkpt>
      <trkpt lat="41.814607" lon="-2.440168">
        <ele>1034</ele>
        <time>2023-02-11T08:58:15.000Z</time>
      </trkpt>
      <trkpt lat="41.814597" lon="-2.440107">
        <ele>1034.6</ele>
        <time>2023-02-11T08:58:16.000Z</time>
      </trkpt>
      <trkpt lat="41.81459" lon="-2.440042">
        <ele>1034.8</ele>
        <time>2023-02-11T08:58:17.000Z</time>
      </trkpt>
      <trkpt lat="41.814584" lon="-2.439976">
        <ele>1035.2</ele>
        <time>2023-02-11T08:58:18.000Z</time>
      </trkpt>
      <trkpt lat="41.814576" lon="-2.439908">
        <ele>1035.2</ele>
        <time>2023-02-11T08:58:19.000Z</time>
      </trkpt>
      <trkpt lat="41.814567" lon="-2.439841">
        <ele>1035.2</ele>
        <time>2023-02-11T08:58:20.000Z</time>
      </trkpt>
      <trkpt lat="41.814557" lon="-2.439772">
        <ele>1035.2</ele>
        <time>2023-02-11T08:58:21.000Z</time>
      </trkpt>
      <trkpt lat="41.814546" lon="-2.4397">
        <ele>1035.6</ele>
        <time>2023-02-11T08:58:22.000Z</time>
      </trkpt>
      <trkpt lat="41.814534" lon="-2.439627">
        <ele>1035.8</ele>
        <time>2023-02-11T08:58:23.000Z</time>
      </trkpt>
      <trkpt lat="41.814525" lon="-2.439554">
        <ele>1036</ele>
        <time>2023-02-11T08:58:24.000Z</time>
      </trkpt>
      <trkpt lat="41.814515" lon="-2.439478">
        <ele>1036</ele>
        <time>2023-02-11T08:58:25.000Z</time>
      </trkpt>
      <trkpt lat="41.814507" lon="-2.439398">
        <ele>1036</ele>
        <time>2023-02-11T08:58:26.000Z</time>
      </trkpt>
      <trkpt lat="41.814496" lon="-2.439317">
        <ele>1036</ele>
        <time>2023-02-11T08:58:27.000Z</time>
      </trkpt>
      <trkpt lat="41.814484" lon="-2.439234">
        <ele>1036</ele>
        <time>2023-02-11T08:58:28.000Z</time>
      </trkpt>
      <trkpt lat="41.81447" lon="-2.439151">
        <ele>1036.2</ele>
        <time>2023-02-11T08:58:29.000Z</time>
      </trkpt>
      <trkpt lat="41.814455" lon="-2.439063">
        <ele>1036.2</ele>
        <time>2023-02-11T08:58:30.000Z</time>
      </trkpt>
      <trkpt lat="41.814443" lon="-2.438974">
        <ele>1036.2</ele>
        <time>2023-02-11T08:58:31.000Z</time>
      </trkpt>
      <trkpt lat="41.814427" lon="-2.438884">
        <ele>1036.2</ele>
        <time>2023-02-11T08:58:32.000Z</time>
      </trkpt>
      <trkpt lat="41.814411" lon="-2.438796">
        <ele>1036.2</ele>
        <time>2023-02-11T08:58:33.000Z</time>
      </trkpt>
      <trkpt lat="41.814392" lon="-2.43871">
        <ele>1036</ele>
        <time>2023-02-11T08:58:34.000Z</time>
      </trkpt>
      <trkpt lat="41.814374" lon="-2.438626">
        <ele>1035.8</ele>
        <time>2023-02-11T08:58:35.000Z</time>
      </trkpt>
      <trkpt lat="41.814353" lon="-2.438545">
        <ele>1035.8</ele>
        <time>2023-02-11T08:58:36.000Z</time>
      </trkpt>
      <trkpt lat="41.814329" lon="-2.438466">
        <ele>1035.8</ele>
        <time>2023-02-11T08:58:37.000Z</time>
      </trkpt>
      <trkpt lat="41.814302" lon="-2.438392">
        <ele>1035.6</ele>
        <time>2023-02-11T08:58:38.000Z</time>
      </trkpt>
      <trkpt lat="41.814273" lon="-2.438323">
        <ele>1035.6</ele>
        <time>2023-02-11T08:58:39.000Z</time>
      </trkpt>
      <trkpt lat="41.814242" lon="-2.438255">
        <ele>1035.6</ele>
        <time>2023-02-11T08:58:40.000Z</time>
      </trkpt>
      <trkpt lat="41.814209" lon="-2.438189">
        <ele>1035.2</ele>
        <time>2023-02-11T08:58:41.000Z</time>
      </trkpt>
      <trkpt lat="41.814174" lon="-2.438127">
        <ele>1035.2</ele>
        <time>2023-02-11T08:58:42.000Z</time>
      </trkpt>
      <trkpt lat="41.81414" lon="-2.438067">
        <ele>1035</ele>
        <time>2023-02-11T08:58:43.000Z</time>
      </trkpt>
      <trkpt lat="41.814104" lon="-2.438005">
        <ele>1035</ele>
        <time>2023-02-11T08:58:44.000Z</time>
      </trkpt>
      <trkpt lat="41.814067" lon="-2.437941">
        <ele>1034.8</ele>
        <time>2023-02-11T08:58:45.000Z</time>
      </trkpt>
      <trkpt lat="41.814028" lon="-2.437876">
        <ele>1034.6</ele>
        <time>2023-02-11T08:58:46.000Z</time>
      </trkpt>
      <trkpt lat="41.813986" lon="-2.43781">
        <ele>1034.4</ele>
        <time>2023-02-11T08:58:47.000Z</time>
      </trkpt>
      <trkpt lat="41.813945" lon="-2.437745">
        <ele>1034</ele>
        <time>2023-02-11T08:58:48.000Z</time>
      </trkpt>
      <trkpt lat="41.813902" lon="-2.437679">
        <ele>1034</ele>
        <time>2023-02-11T08:58:49.000Z</time>
      </trkpt>
      <trkpt lat="41.813856" lon="-2.437612">
        <ele>1033.8</ele>
        <time>2023-02-11T08:58:50.000Z</time>
      </trkpt>
      <trkpt lat="41.81381" lon="-2.437545">
        <ele>1033.8</ele>
        <time>2023-02-11T08:58:51.000Z</time>
      </trkpt>
      <trkpt lat="41.813765" lon="-2.437476">
        <ele>1033.6</ele>
        <time>2023-02-11T08:58:52.000Z</time>
      </trkpt>
      <trkpt lat="41.813719" lon="-2.437407">
        <ele>1033.6</ele>
        <time>2023-02-11T08:58:53.000Z</time>
      </trkpt>
      <trkpt lat="41.813672" lon="-2.437335">
        <ele>1033.4</ele>
        <time>2023-02-11T08:58:54.000Z</time>
      </trkpt>
      <trkpt lat="41.813626" lon="-2.437262">
        <ele>1033.4</ele>
        <time>2023-02-11T08:58:55.000Z</time>
      </trkpt>
      <trkpt lat="41.813583" lon="-2.437188">
        <ele>1033.2</ele>
        <time>2023-02-11T08:58:56.000Z</time>
      </trkpt>
      <trkpt lat="41.813539" lon="-2.437114">
        <ele>1033.2</ele>
        <time>2023-02-11T08:58:57.000Z</time>
      </trkpt>
      <trkpt lat="41.81349" lon="-2.437041">
        <ele>1033.2</ele>
        <time>2023-02-11T08:58:58.000Z</time>
      </trkpt>
      <trkpt lat="41.813441" lon="-2.436966">
        <ele>1033.2</ele>
        <time>2023-02-11T08:58:59.000Z</time>
      </trkpt>
      <trkpt lat="41.813391" lon="-2.436891">
        <ele>1033</ele>
        <time>2023-02-11T08:59:00.000Z</time>
      </trkpt>
      <trkpt lat="41.813339" lon="-2.436816">
        <ele>1032.8</ele>
        <time>2023-02-11T08:59:01.000Z</time>
      </trkpt>
      <trkpt lat="41.81329" lon="-2.43674">
        <ele>1032.6</ele>
        <time>2023-02-11T08:59:02.000Z</time>
      </trkpt>
      <trkpt lat="41.813237" lon="-2.436664">
        <ele>1032.6</ele>
        <time>2023-02-11T08:59:03.000Z</time>
      </trkpt>
      <trkpt lat="41.813186" lon="-2.436588">
        <ele>1032.4</ele>
        <time>2023-02-11T08:59:04.000Z</time>
      </trkpt>
      <trkpt lat="41.813134" lon="-2.436512">
        <ele>1032.4</ele>
        <time>2023-02-11T08:59:05.000Z</time>
      </trkpt>
      <trkpt lat="41.813081" lon="-2.436437">
        <ele>1032.2</ele>
        <time>2023-02-11T08:59:06.000Z</time>
      </trkpt>
      <trkpt lat="41.813027" lon="-2.43636">
        <ele>1032.2</ele>
        <time>2023-02-11T08:59:07.000Z</time>
      </trkpt>
      <trkpt lat="41.812974" lon="-2.436283">
        <ele>1032</ele>
        <time>2023-02-11T08:59:08.000Z</time>
      </trkpt>
      <trkpt lat="41.812924" lon="-2.436206">
        <ele>1032</ele>
        <time>2023-02-11T08:59:09.000Z</time>
      </trkpt>
      <trkpt lat="41.812872" lon="-2.436129">
        <ele>1031.6</ele>
        <time>2023-02-11T08:59:10.000Z</time>
      </trkpt>
      <trkpt lat="41.812818" lon="-2.436051">
        <ele>1031.2</ele>
        <time>2023-02-11T08:59:11.000Z</time>
      </trkpt>
      <trkpt lat="41.812765" lon="-2.435973">
        <ele>1031.2</ele>
        <time>2023-02-11T08:59:12.000Z</time>
      </trkpt>
      <trkpt lat="41.812713" lon="-2.435896">
        <ele>1031</ele>
        <time>2023-02-11T08:59:13.000Z</time>
      </trkpt>
      <trkpt lat="41.812662" lon="-2.435816">
        <ele>1031</ele>
        <time>2023-02-11T08:59:14.000Z</time>
      </trkpt>
      <trkpt lat="41.812612" lon="-2.435734">
        <ele>1030.8</ele>
        <time>2023-02-11T08:59:15.000Z</time>
      </trkpt>
      <trkpt lat="41.812558" lon="-2.435653">
        <ele>1030.8</ele>
        <time>2023-02-11T08:59:16.000Z</time>
      </trkpt>
      <trkpt lat="41.812502" lon="-2.43557">
        <ele>1030.6</ele>
        <time>2023-02-11T08:59:17.000Z</time>
      </trkpt>
      <trkpt lat="41.812447" lon="-2.43549">
        <ele>1030.6</ele>
        <time>2023-02-11T08:59:18.000Z</time>
      </trkpt>
      <trkpt lat="41.81239" lon="-2.435405">
        <ele>1030.4</ele>
        <time>2023-02-11T08:59:19.000Z</time>
      </trkpt>
      <trkpt lat="41.812334" lon="-2.435319">
        <ele>1030.4</ele>
        <time>2023-02-11T08:59:20.000Z</time>
      </trkpt>
      <trkpt lat="41.812279" lon="-2.435233">
        <ele>1030.2</ele>
        <time>2023-02-11T08:59:21.000Z</time>
      </trkpt>
      <trkpt lat="41.812225" lon="-2.435146">
        <ele>1030</ele>
        <time>2023-02-11T08:59:22.000Z</time>
      </trkpt>
      <trkpt lat="41.812168" lon="-2.43506">
        <ele>1030</ele>
        <time>2023-02-11T08:59:23.000Z</time>
      </trkpt>
      <trkpt lat="41.812108" lon="-2.434973">
        <ele>1029.6</ele>
        <time>2023-02-11T08:59:24.000Z</time>
      </trkpt>
      <trkpt lat="41.81205" lon="-2.434883">
        <ele>1029.6</ele>
        <time>2023-02-11T08:59:25.000Z</time>
      </trkpt>
      <trkpt lat="41.811992" lon="-2.434791">
        <ele>1029.4</ele>
        <time>2023-02-11T08:59:26.000Z</time>
      </trkpt>
      <trkpt lat="41.811933" lon="-2.434698">
        <ele>1029.2</ele>
        <time>2023-02-11T08:59:27.000Z</time>
      </trkpt>
      <trkpt lat="41.811875" lon="-2.434606">
        <ele>1029</ele>
        <time>2023-02-11T08:59:28.000Z</time>
      </trkpt>
      <trkpt lat="41.811819" lon="-2.434514">
        <ele>1028.8</ele>
        <time>2023-02-11T08:59:29.000Z</time>
      </trkpt>
      <trkpt lat="41.811768" lon="-2.434425">
        <ele>1028.6</ele>
        <time>2023-02-11T08:59:30.000Z</time>
      </trkpt>
      <trkpt lat="41.811723" lon="-2.434338">
        <ele>1028</ele>
        <time>2023-02-11T08:59:31.000Z</time>
      </trkpt>
      <trkpt lat="41.811687" lon="-2.434258">
        <ele>1027.8</ele>
        <time>2023-02-11T08:59:32.000Z</time>
      </trkpt>
      <trkpt lat="41.811659" lon="-2.434178">
        <ele>1027.4</ele>
        <time>2023-02-11T08:59:33.000Z</time>
      </trkpt>
      <trkpt lat="41.811634" lon="-2.434098">
        <ele>1027.4</ele>
        <time>2023-02-11T08:59:34.000Z</time>
      </trkpt>
      <trkpt lat="41.811612" lon="-2.434019">
        <ele>1027.2</ele>
        <time>2023-02-11T08:59:35.000Z</time>
      </trkpt>
      <trkpt lat="41.81159" lon="-2.433945">
        <ele>1027</ele>
        <time>2023-02-11T08:59:36.000Z</time>
      </trkpt>
      <trkpt lat="41.811569" lon="-2.433877">
        <ele>1026.6</ele>
        <time>2023-02-11T08:59:37.000Z</time>
      </trkpt>
      <trkpt lat="41.811548" lon="-2.43381">
        <ele>1025.8</ele>
        <time>2023-02-11T08:59:38.000Z</time>
      </trkpt>
      <trkpt lat="41.811528" lon="-2.433744">
        <ele>1025.6</ele>
        <time>2023-02-11T08:59:39.000Z</time>
      </trkpt>
      <trkpt lat="41.81151" lon="-2.433677">
        <ele>1025.4</ele>
        <time>2023-02-11T08:59:40.000Z</time>
      </trkpt>
      <trkpt lat="41.811493" lon="-2.433608">
        <ele>1025.2</ele>
        <time>2023-02-11T08:59:41.000Z</time>
      </trkpt>
      <trkpt lat="41.811474" lon="-2.433537">
        <ele>1024.6</ele>
        <time>2023-02-11T08:59:42.000Z</time>
      </trkpt>
      <trkpt lat="41.811457" lon="-2.43347">
        <ele>1024.4</ele>
        <time>2023-02-11T08:59:43.000Z</time>
      </trkpt>
      <trkpt lat="41.811438" lon="-2.433402">
        <ele>1024.2</ele>
        <time>2023-02-11T08:59:44.000Z</time>
      </trkpt>
      <trkpt lat="41.811419" lon="-2.433333">
        <ele>1024.2</ele>
        <time>2023-02-11T08:59:45.000Z</time>
      </trkpt>
      <trkpt lat="41.811399" lon="-2.433265">
        <ele>1024</ele>
        <time>2023-02-11T08:59:46.000Z</time>
      </trkpt>
      <trkpt lat="41.81138" lon="-2.433197">
        <ele>1023.8</ele>
        <time>2023-02-11T08:59:47.000Z</time>
      </trkpt>
      <trkpt lat="41.811366" lon="-2.433134">
        <ele>1023.8</ele>
        <time>2023-02-11T08:59:48.000Z</time>
      </trkpt>
      <trkpt lat="41.811351" lon="-2.433065">
        <ele>1023.6</ele>
        <time>2023-02-11T08:59:49.000Z</time>
      </trkpt>
      <trkpt lat="41.81134" lon="-2.432997">
        <ele>1023.6</ele>
        <time>2023-02-11T08:59:50.000Z</time>
      </trkpt>
      <trkpt lat="41.811329" lon="-2.432928">
        <ele>1023.4</ele>
        <time>2023-02-11T08:59:51.000Z</time>
      </trkpt>
      <trkpt lat="41.811323" lon="-2.432858">
        <ele>1023.4</ele>
        <time>2023-02-11T08:59:52.000Z</time>
      </trkpt>
      <trkpt lat="41.811317" lon="-2.432786">
        <ele>1023.4</ele>
        <time>2023-02-11T08:59:53.000Z</time>
      </trkpt>
      <trkpt lat="41.811311" lon="-2.432716">
        <ele>1023.4</ele>
        <time>2023-02-11T08:59:54.000Z</time>
      </trkpt>
      <trkpt lat="41.811308" lon="-2.432647">
        <ele>1023.4</ele>
        <time>2023-02-11T08:59:55.000Z</time>
      </trkpt>
      <trkpt lat="41.811307" lon="-2.432579">
        <ele>1023.4</ele>
        <time>2023-02-11T08:59:56.000Z</time>
      </trkpt>
      <trkpt lat="41.811304" lon="-2.432511">
        <ele>1023.4</ele>
        <time>2023-02-11T08:59:57.000Z</time>
      </trkpt>
      <trkpt lat="41.811302" lon="-2.432444">
        <ele>1023.6</ele>
        <time>2023-02-11T08:59:58.000Z</time>
      </trkpt>
      <trkpt lat="41.811299" lon="-2.432378">
        <ele>1023.6</ele>
        <time>2023-02-11T08:59:59.000Z</time>
      </trkpt>
      <trkpt lat="41.811298" lon="-2.432311">
        <ele>1023.6</ele>
        <time>2023-02-11T09:00:00.000Z</time>
      </trkpt>
      <trkpt lat="41.811298" lon="-2.432245">
        <ele>1023.6</ele>
        <time>2023-02-11T09:00:01.000Z</time>
      </trkpt>
      <trkpt lat="41.811297" lon="-2.432181">
        <ele>1023.8</ele>
        <time>2023-02-11T09:00:02.000Z</time>
      </trkpt>
      <trkpt lat="41.811296" lon="-2.432117">
        <ele>1023.8</ele>
        <time>2023-02-11T09:00:03.000Z</time>
      </trkpt>
      <trkpt lat="41.811295" lon="-2.432055">
        <ele>1024</ele>
        <time>2023-02-11T09:00:04.000Z</time>
      </trkpt>
      <trkpt lat="41.811294" lon="-2.431993">
        <ele>1024</ele>
        <time>2023-02-11T09:00:05.000Z</time>
      </trkpt>
      <trkpt lat="41.811293" lon="-2.431932">
        <ele>1024.2</ele>
        <time>2023-02-11T09:00:06.000Z</time>
      </trkpt>
      <trkpt lat="41.811292" lon="-2.431872">
        <ele>1024.4</ele>
        <time>2023-02-11T09:00:07.000Z</time>
      </trkpt>
      <trkpt lat="41.811292" lon="-2.431811">
        <ele>1024.4</ele>
        <time>2023-02-11T09:00:08.000Z</time>
      </trkpt>
      <trkpt lat="41.81129" lon="-2.43175">
        <ele>1024.8</ele>
        <time>2023-02-11T09:00:09.000Z</time>
      </trkpt>
      <trkpt lat="41.811287" lon="-2.43169">
        <ele>1024.8</ele>
        <time>2023-02-11T09:00:10.000Z</time>
      </trkpt>
      <trkpt lat="41.811286" lon="-2.431633">
        <ele>1025</ele>
        <time>2023-02-11T09:00:11.000Z</time>
      </trkpt>
      <trkpt lat="41.811284" lon="-2.431573">
        <ele>1025</ele>
        <time>2023-02-11T09:00:12.000Z</time>
      </trkpt>
      <trkpt lat="41.811282" lon="-2.431511">
        <ele>1025.2</ele>
        <time>2023-02-11T09:00:13.000Z</time>
      </trkpt>
      <trkpt lat="41.811279" lon="-2.431453">
        <ele>1025.4</ele>
        <time>2023-02-11T09:00:14.000Z</time>
      </trkpt>
      <trkpt lat="41.811278" lon="-2.431387">
        <ele>1025.4</ele>
        <time>2023-02-11T09:00:15.000Z</time>
      </trkpt>
      <trkpt lat="41.811276" lon="-2.431321">
        <ele>1025.6</ele>
        <time>2023-02-11T09:00:16.000Z</time>
      </trkpt>
      <trkpt lat="41.811276" lon="-2.43125">
        <ele>1025.6</ele>
        <time>2023-02-11T09:00:17.000Z</time>
      </trkpt>
      <trkpt lat="41.811274" lon="-2.431182">
        <ele>1025.6</ele>
        <time>2023-02-11T09:00:18.000Z</time>
      </trkpt>
      <trkpt lat="41.811269" lon="-2.43111">
        <ele>1025.6</ele>
        <time>2023-02-11T09:00:19.000Z</time>
      </trkpt>
      <trkpt lat="41.811265" lon="-2.431035">
        <ele>1025.8</ele>
        <time>2023-02-11T09:00:20.000Z</time>
      </trkpt>
      <trkpt lat="41.811264" lon="-2.430958">
        <ele>1025.8</ele>
        <time>2023-02-11T09:00:21.000Z</time>
      </trkpt>
      <trkpt lat="41.811263" lon="-2.430882">
        <ele>1025.8</ele>
        <time>2023-02-11T09:00:22.000Z</time>
      </trkpt>
      <trkpt lat="41.811262" lon="-2.430806">
        <ele>1025.8</ele>
        <time>2023-02-11T09:00:23.000Z</time>
      </trkpt>
      <trkpt lat="41.811265" lon="-2.430731">
        <ele>1025.8</ele>
        <time>2023-02-11T09:00:24.000Z</time>
      </trkpt>
      <trkpt lat="41.811265" lon="-2.430654">
        <ele>1025.8</ele>
        <time>2023-02-11T09:00:25.000Z</time>
      </trkpt>
      <trkpt lat="41.811264" lon="-2.430574">
        <ele>1025.8</ele>
        <time>2023-02-11T09:00:26.000Z</time>
      </trkpt>
      <trkpt lat="41.811266" lon="-2.430494">
        <ele>1025.8</ele>
        <time>2023-02-11T09:00:27.000Z</time>
      </trkpt>
      <trkpt lat="41.811263" lon="-2.430415">
        <ele>1025.6</ele>
        <time>2023-02-11T09:00:28.000Z</time>
      </trkpt>
      <trkpt lat="41.81126" lon="-2.430336">
        <ele>1025.6</ele>
        <time>2023-02-11T09:00:29.000Z</time>
      </trkpt>
      <trkpt lat="41.811258" lon="-2.430259">
        <ele>1025.4</ele>
        <time>2023-02-11T09:00:30.000Z</time>
      </trkpt>
      <trkpt lat="41.811255" lon="-2.430179">
        <ele>1025.4</ele>
        <time>2023-02-11T09:00:31.000Z</time>
      </trkpt>
      <trkpt lat="41.811253" lon="-2.430097">
        <ele>1025.2</ele>
        <time>2023-02-11T09:00:32.000Z</time>
      </trkpt>
      <trkpt lat="41.811249" lon="-2.430015">
        <ele>1025.2</ele>
        <time>2023-02-11T09:00:33.000Z</time>
      </trkpt>
      <trkpt lat="41.811245" lon="-2.429935">
        <ele>1025.2</ele>
        <time>2023-02-11T09:00:34.000Z</time>
      </trkpt>
      <trkpt lat="41.811244" lon="-2.429856">
        <ele>1025</ele>
        <time>2023-02-11T09:00:35.000Z</time>
      </trkpt>
      <trkpt lat="41.811244" lon="-2.42978">
        <ele>1025</ele>
        <time>2023-02-11T09:00:36.000Z</time>
      </trkpt>
      <trkpt lat="41.811241" lon="-2.429707">
        <ele>1025</ele>
        <time>2023-02-11T09:00:37.000Z</time>
      </trkpt>
      <trkpt lat="41.811239" lon="-2.429631">
        <ele>1025</ele>
        <time>2023-02-11T09:00:38.000Z</time>
      </trkpt>
      <trkpt lat="41.81124" lon="-2.429554">
        <ele>1025</ele>
        <time>2023-02-11T09:00:39.000Z</time>
      </trkpt>
      <trkpt lat="41.811238" lon="-2.429476">
        <ele>1024.8</ele>
        <time>2023-02-11T09:00:40.000Z</time>
      </trkpt>
      <trkpt lat="41.811239" lon="-2.429392">
        <ele>1024.8</ele>
        <time>2023-02-11T09:00:41.000Z</time>
      </trkpt>
      <trkpt lat="41.811239" lon="-2.429307">
        <ele>1024.8</ele>
        <time>2023-02-11T09:00:42.000Z</time>
      </trkpt>
      <trkpt lat="41.811238" lon="-2.429217">
        <ele>1024.6</ele>
        <time>2023-02-11T09:00:43.000Z</time>
      </trkpt>
      <trkpt lat="41.811235" lon="-2.429123">
        <ele>1024.6</ele>
        <time>2023-02-11T09:00:44.000Z</time>
      </trkpt>
      <trkpt lat="41.811229" lon="-2.429027">
        <ele>1024</ele>
        <time>2023-02-11T09:00:45.000Z</time>
      </trkpt>
      <trkpt lat="41.811228" lon="-2.428929">
        <ele>1023.6</ele>
        <time>2023-02-11T09:00:46.000Z</time>
      </trkpt>
      <trkpt lat="41.811224" lon="-2.428828">
        <ele>1023</ele>
        <time>2023-02-11T09:00:47.000Z</time>
      </trkpt>
      <trkpt lat="41.811219" lon="-2.428726">
        <ele>1022.8</ele>
        <time>2023-02-11T09:00:48.000Z</time>
      </trkpt>
      <trkpt lat="41.811213" lon="-2.428623">
        <ele>1022.4</ele>
        <time>2023-02-11T09:00:49.000Z</time>
      </trkpt>
      <trkpt lat="41.811206" lon="-2.42852">
        <ele>1022.4</ele>
        <time>2023-02-11T09:00:50.000Z</time>
      </trkpt>
      <trkpt lat="41.811196" lon="-2.428416">
        <ele>1022.2</ele>
        <time>2023-02-11T09:00:51.000Z</time>
      </trkpt>
      <trkpt lat="41.811184" lon="-2.428314">
        <ele>1022</ele>
        <time>2023-02-11T09:00:52.000Z</time>
      </trkpt>
      <trkpt lat="41.811167" lon="-2.428214">
        <ele>1021.8</ele>
        <time>2023-02-11T09:00:53.000Z</time>
      </trkpt>
      <trkpt lat="41.811147" lon="-2.428116">
        <ele>1021.2</ele>
        <time>2023-02-11T09:00:54.000Z</time>
      </trkpt>
      <trkpt lat="41.811124" lon="-2.428023">
        <ele>1021</ele>
        <time>2023-02-11T09:00:55.000Z</time>
      </trkpt>
      <trkpt lat="41.811101" lon="-2.427931">
        <ele>1020.8</ele>
        <time>2023-02-11T09:00:56.000Z</time>
      </trkpt>
      <trkpt lat="41.811074" lon="-2.427838">
        <ele>1020.6</ele>
        <time>2023-02-11T09:00:57.000Z</time>
      </trkpt>
      <trkpt lat="41.811047" lon="-2.427744">
        <ele>1020.4</ele>
        <time>2023-02-11T09:00:58.000Z</time>
      </trkpt>
      <trkpt lat="41.81102" lon="-2.427648">
        <ele>1020.2</ele>
        <time>2023-02-11T09:00:59.000Z</time>
      </trkpt>
      <trkpt lat="41.810992" lon="-2.427551">
        <ele>1020</ele>
        <time>2023-02-11T09:01:00.000Z</time>
      </trkpt>
      <trkpt lat="41.810963" lon="-2.427452">
        <ele>1019.6</ele>
        <time>2023-02-11T09:01:01.000Z</time>
      </trkpt>
      <trkpt lat="41.810933" lon="-2.427354">
        <ele>1019.2</ele>
        <time>2023-02-11T09:01:02.000Z</time>
      </trkpt>
      <trkpt lat="41.810907" lon="-2.427254">
        <ele>1019</ele>
        <time>2023-02-11T09:01:03.000Z</time>
      </trkpt>
      <trkpt lat="41.810881" lon="-2.427151">
        <ele>1018.8</ele>
        <time>2023-02-11T09:01:04.000Z</time>
      </trkpt>
      <trkpt lat="41.810853" lon="-2.427051">
        <ele>1018.4</ele>
        <time>2023-02-11T09:01:05.000Z</time>
      </trkpt>
      <trkpt lat="41.810826" lon="-2.42695">
        <ele>1018.2</ele>
        <time>2023-02-11T09:01:06.000Z</time>
      </trkpt>
      <trkpt lat="41.810797" lon="-2.426849">
        <ele>1017.8</ele>
        <time>2023-02-11T09:01:07.000Z</time>
      </trkpt>
      <trkpt lat="41.810769" lon="-2.42675">
        <ele>1017.2</ele>
        <time>2023-02-11T09:01:08.000Z</time>
      </trkpt>
      <trkpt lat="41.810741" lon="-2.426651">
        <ele>1016.8</ele>
        <time>2023-02-11T09:01:09.000Z</time>
      </trkpt>
      <trkpt lat="41.810715" lon="-2.426554">
        <ele>1016.4</ele>
        <time>2023-02-11T09:01:10.000Z</time>
      </trkpt>
      <trkpt lat="41.81069" lon="-2.426459">
        <ele>1016.4</ele>
        <time>2023-02-11T09:01:11.000Z</time>
      </trkpt>
      <trkpt lat="41.810664" lon="-2.426365">
        <ele>1016</ele>
        <time>2023-02-11T09:01:12.000Z</time>
      </trkpt>
      <trkpt lat="41.810638" lon="-2.426271">
        <ele>1016</ele>
        <time>2023-02-11T09:01:13.000Z</time>
      </trkpt>
      <trkpt lat="41.810612" lon="-2.426176">
        <ele>1015.8</ele>
        <time>2023-02-11T09:01:14.000Z</time>
      </trkpt>
      <trkpt lat="41.810585" lon="-2.426082">
        <ele>1015.6</ele>
        <time>2023-02-11T09:01:15.000Z</time>
      </trkpt>
      <trkpt lat="41.810556" lon="-2.425987">
        <ele>1015.4</ele>
        <time>2023-02-11T09:01:16.000Z</time>
      </trkpt>
      <trkpt lat="41.810527" lon="-2.425892">
        <ele>1014.8</ele>
        <time>2023-02-11T09:01:17.000Z</time>
      </trkpt>
      <trkpt lat="41.810497" lon="-2.425798">
        <ele>1014.6</ele>
        <time>2023-02-11T09:01:18.000Z</time>
      </trkpt>
      <trkpt lat="41.810467" lon="-2.425705">
        <ele>1014.2</ele>
        <time>2023-02-11T09:01:19.000Z</time>
      </trkpt>
      <trkpt lat="41.810441" lon="-2.425612">
        <ele>1014</ele>
        <time>2023-02-11T09:01:20.000Z</time>
      </trkpt>
      <trkpt lat="41.810417" lon="-2.425518">
        <ele>1013.6</ele>
        <time>2023-02-11T09:01:21.000Z</time>
      </trkpt>
      <trkpt lat="41.810395" lon="-2.425426">
        <ele>1013.6</ele>
        <time>2023-02-11T09:01:22.000Z</time>
      </trkpt>
      <trkpt lat="41.810373" lon="-2.425337">
        <ele>1013.4</ele>
        <time>2023-02-11T09:01:23.000Z</time>
      </trkpt>
      <trkpt lat="41.810357" lon="-2.425247">
        <ele>1013.4</ele>
        <time>2023-02-11T09:01:24.000Z</time>
      </trkpt>
      <trkpt lat="41.810345" lon="-2.425157">
        <ele>1013.2</ele>
        <time>2023-02-11T09:01:25.000Z</time>
      </trkpt>
      <trkpt lat="41.810334" lon="-2.425066">
        <ele>1013</ele>
        <time>2023-02-11T09:01:26.000Z</time>
      </trkpt>
      <trkpt lat="41.810323" lon="-2.424973">
        <ele>1013</ele>
        <time>2023-02-11T09:01:27.000Z</time>
      </trkpt>
      <trkpt lat="41.810311" lon="-2.424887">
        <ele>1012.6</ele>
        <time>2023-02-11T09:01:28.000Z</time>
      </trkpt>
      <trkpt lat="41.810301" lon="-2.424794">
        <ele>1012.4</ele>
        <time>2023-02-11T09:01:29.000Z</time>
      </trkpt>
      <trkpt lat="41.81029" lon="-2.424701">
        <ele>1012.2</ele>
        <time>2023-02-11T09:01:30.000Z</time>
      </trkpt>
      <trkpt lat="41.810277" lon="-2.424608">
        <ele>1012.2</ele>
        <time>2023-02-11T09:01:31.000Z</time>
      </trkpt>
      <trkpt lat="41.810266" lon="-2.424513">
        <ele>1012.2</ele>
        <time>2023-02-11T09:01:32.000Z</time>
      </trkpt>
      <trkpt lat="41.810257" lon="-2.424419">
        <ele>1012.2</ele>
        <time>2023-02-11T09:01:33.000Z</time>
      </trkpt>
      <trkpt lat="41.810246" lon="-2.424324">
        <ele>1012</ele>
        <time>2023-02-11T09:01:34.000Z</time>
      </trkpt>
      <trkpt lat="41.810236" lon="-2.42423">
        <ele>1012</ele>
        <time>2023-02-11T09:01:35.000Z</time>
      </trkpt>
      <trkpt lat="41.810227" lon="-2.424134">
        <ele>1012</ele>
        <time>2023-02-11T09:01:36.000Z</time>
      </trkpt>
      <trkpt lat="41.810215" lon="-2.424037">
        <ele>1012</ele>
        <time>2023-02-11T09:01:37.000Z</time>
      </trkpt>
      <trkpt lat="41.810205" lon="-2.423941">
        <ele>1012</ele>
        <time>2023-02-11T09:01:38.000Z</time>
      </trkpt>
      <trkpt lat="41.810197" lon="-2.423845">
        <ele>1012</ele>
        <time>2023-02-11T09:01:39.000Z</time>
      </trkpt>
      <trkpt lat="41.810189" lon="-2.42375">
        <ele>1012</ele>
        <time>2023-02-11T09:01:40.000Z</time>
      </trkpt>
      <trkpt lat="41.810179" lon="-2.423656">
        <ele>1012</ele>
        <time>2023-02-11T09:01:41.000Z</time>
      </trkpt>
      <trkpt lat="41.810169" lon="-2.423561">
        <ele>1012</ele>
        <time>2023-02-11T09:01:42.000Z</time>
      </trkpt>
      <trkpt lat="41.810161" lon="-2.423466">
        <ele>1012</ele>
        <time>2023-02-11T09:01:43.000Z</time>
      </trkpt>
      <trkpt lat="41.810153" lon="-2.423372">
        <ele>1012</ele>
        <time>2023-02-11T09:01:44.000Z</time>
      </trkpt>
      <trkpt lat="41.810145" lon="-2.423279">
        <ele>1012</ele>
        <time>2023-02-11T09:01:45.000Z</time>
      </trkpt>
      <trkpt lat="41.810135" lon="-2.423191">
        <ele>1012.2</ele>
        <time>2023-02-11T09:01:46.000Z</time>
      </trkpt>
      <trkpt lat="41.810124" lon="-2.423104">
        <ele>1012.2</ele>
        <time>2023-02-11T09:01:47.000Z</time>
      </trkpt>
      <trkpt lat="41.810116" lon="-2.423018">
        <ele>1012.2</ele>
        <time>2023-02-11T09:01:48.000Z</time>
      </trkpt>
      <trkpt lat="41.81011" lon="-2.422934">
        <ele>1012.2</ele>
        <time>2023-02-11T09:01:49.000Z</time>
      </trkpt>
      <trkpt lat="41.810104" lon="-2.422851">
        <ele>1012.4</ele>
        <time>2023-02-11T09:01:50.000Z</time>
      </trkpt>
      <trkpt lat="41.810096" lon="-2.422768">
        <ele>1012.4</ele>
        <time>2023-02-11T09:01:51.000Z</time>
      </trkpt>
      <trkpt lat="41.810087" lon="-2.422685">
        <ele>1012.4</ele>
        <time>2023-02-11T09:01:52.000Z</time>
      </trkpt>
      <trkpt lat="41.810078" lon="-2.422602">
        <ele>1012.4</ele>
        <time>2023-02-11T09:01:53.000Z</time>
      </trkpt>
      <trkpt lat="41.810069" lon="-2.422519">
        <ele>1012.4</ele>
        <time>2023-02-11T09:01:54.000Z</time>
      </trkpt>
      <trkpt lat="41.810062" lon="-2.422436">
        <ele>1012.4</ele>
        <time>2023-02-11T09:01:55.000Z</time>
      </trkpt>
      <trkpt lat="41.810056" lon="-2.422351">
        <ele>1012.4</ele>
        <time>2023-02-11T09:01:56.000Z</time>
      </trkpt>
      <trkpt lat="41.810046" lon="-2.422266">
        <ele>1012.4</ele>
        <time>2023-02-11T09:01:57.000Z</time>
      </trkpt>
      <trkpt lat="41.810037" lon="-2.422184">
        <ele>1012.4</ele>
        <time>2023-02-11T09:01:58.000Z</time>
      </trkpt>
      <trkpt lat="41.810029" lon="-2.422104">
        <ele>1012.4</ele>
        <time>2023-02-11T09:01:59.000Z</time>
      </trkpt>
      <trkpt lat="41.810021" lon="-2.422024">
        <ele>1012.4</ele>
        <time>2023-02-11T09:02:00.000Z</time>
      </trkpt>
      <trkpt lat="41.810013" lon="-2.421941">
        <ele>1012.6</ele>
        <time>2023-02-11T09:02:01.000Z</time>
      </trkpt>
      <trkpt lat="41.810009" lon="-2.421855">
        <ele>1012.6</ele>
        <time>2023-02-11T09:02:02.000Z</time>
      </trkpt>
      <trkpt lat="41.810001" lon="-2.421769">
        <ele>1012.6</ele>
        <time>2023-02-11T09:02:03.000Z</time>
      </trkpt>
      <trkpt lat="41.809994" lon="-2.421686">
        <ele>1012.6</ele>
        <time>2023-02-11T09:02:04.000Z</time>
      </trkpt>
      <trkpt lat="41.809987" lon="-2.4216">
        <ele>1012.6</ele>
        <time>2023-02-11T09:02:05.000Z</time>
      </trkpt>
      <trkpt lat="41.809976" lon="-2.421513">
        <ele>1012.8</ele>
        <time>2023-02-11T09:02:06.000Z</time>
      </trkpt>
      <trkpt lat="41.809968" lon="-2.421425">
        <ele>1012.8</ele>
        <time>2023-02-11T09:02:07.000Z</time>
      </trkpt>
      <trkpt lat="41.809961" lon="-2.42134">
        <ele>1013</ele>
        <time>2023-02-11T09:02:08.000Z</time>
      </trkpt>
      <trkpt lat="41.809955" lon="-2.421256">
        <ele>1013.2</ele>
        <time>2023-02-11T09:02:09.000Z</time>
      </trkpt>
      <trkpt lat="41.809948" lon="-2.421173">
        <ele>1013.2</ele>
        <time>2023-02-11T09:02:10.000Z</time>
      </trkpt>
      <trkpt lat="41.809943" lon="-2.421091">
        <ele>1013.2</ele>
        <time>2023-02-11T09:02:11.000Z</time>
      </trkpt>
      <trkpt lat="41.809935" lon="-2.421008">
        <ele>1013.2</ele>
        <time>2023-02-11T09:02:12.000Z</time>
      </trkpt>
      <trkpt lat="41.809928" lon="-2.420925">
        <ele>1013.2</ele>
        <time>2023-02-11T09:02:13.000Z</time>
      </trkpt>
      <trkpt lat="41.809925" lon="-2.420845">
        <ele>1013.2</ele>
        <time>2023-02-11T09:02:14.000Z</time>
      </trkpt>
      <trkpt lat="41.809922" lon="-2.420768">
        <ele>1013.2</ele>
        <time>2023-02-11T09:02:15.000Z</time>
      </trkpt>
      <trkpt lat="41.809919" lon="-2.420693">
        <ele>1013.2</ele>
        <time>2023-02-11T09:02:16.000Z</time>
      </trkpt>
      <trkpt lat="41.809914" lon="-2.420622">
        <ele>1013.4</ele>
        <time>2023-02-11T09:02:17.000Z</time>
      </trkpt>
      <trkpt lat="41.809909" lon="-2.420559">
        <ele>1013.2</ele>
        <time>2023-02-11T09:02:18.000Z</time>
      </trkpt>
      <trkpt lat="41.809902" lon="-2.420495">
        <ele>1013.2</ele>
        <time>2023-02-11T09:02:19.000Z</time>
      </trkpt>
      <trkpt lat="41.809893" lon="-2.420436">
        <ele>1013.2</ele>
        <time>2023-02-11T09:02:20.000Z</time>
      </trkpt>
      <trkpt lat="41.809886" lon="-2.420372">
        <ele>1013.2</ele>
        <time>2023-02-11T09:02:21.000Z</time>
      </trkpt>
      <trkpt lat="41.809879" lon="-2.420307">
        <ele>1013</ele>
        <time>2023-02-11T09:02:22.000Z</time>
      </trkpt>
      <trkpt lat="41.809871" lon="-2.420239">
        <ele>1013.2</ele>
        <time>2023-02-11T09:02:23.000Z</time>
      </trkpt>
      <trkpt lat="41.809861" lon="-2.42017">
        <ele>1013.2</ele>
        <time>2023-02-11T09:02:24.000Z</time>
      </trkpt>
      <trkpt lat="41.809852" lon="-2.420104">
        <ele>1013.2</ele>
        <time>2023-02-11T09:02:25.000Z</time>
      </trkpt>
      <trkpt lat="41.809844" lon="-2.420033">
        <ele>1013.2</ele>
        <time>2023-02-11T09:02:26.000Z</time>
      </trkpt>
      <trkpt lat="41.809839" lon="-2.419959">
        <ele>1013.2</ele>
        <time>2023-02-11T09:02:27.000Z</time>
      </trkpt>
      <trkpt lat="41.809835" lon="-2.419882">
        <ele>1012.8</ele>
        <time>2023-02-11T09:02:28.000Z</time>
      </trkpt>
      <trkpt lat="41.80983" lon="-2.419805">
        <ele>1012.8</ele>
        <time>2023-02-11T09:02:29.000Z</time>
      </trkpt>
      <trkpt lat="41.80982" lon="-2.419727">
        <ele>1012.8</ele>
        <time>2023-02-11T09:02:30.000Z</time>
      </trkpt>
      <trkpt lat="41.809809" lon="-2.419649">
        <ele>1013</ele>
        <time>2023-02-11T09:02:31.000Z</time>
      </trkpt>
      <trkpt lat="41.809802" lon="-2.419571">
        <ele>1012.8</ele>
        <time>2023-02-11T09:02:32.000Z</time>
      </trkpt>
      <trkpt lat="41.809799" lon="-2.419491">
        <ele>1012.6</ele>
        <time>2023-02-11T09:02:33.000Z</time>
      </trkpt>
      <trkpt lat="41.809795" lon="-2.419411">
        <ele>1012.6</ele>
        <time>2023-02-11T09:02:34.000Z</time>
      </trkpt>
      <trkpt lat="41.809788" lon="-2.419329">
        <ele>1012.6</ele>
        <time>2023-02-11T09:02:35.000Z</time>
      </trkpt>
      <trkpt lat="41.80978" lon="-2.419247">
        <ele>1012.6</ele>
        <time>2023-02-11T09:02:36.000Z</time>
      </trkpt>
      <trkpt lat="41.809774" lon="-2.419165">
        <ele>1012.6</ele>
        <time>2023-02-11T09:02:37.000Z</time>
      </trkpt>
      <trkpt lat="41.80977" lon="-2.419083">
        <ele>1012.6</ele>
        <time>2023-02-11T09:02:38.000Z</time>
      </trkpt>
      <trkpt lat="41.809764" lon="-2.419002">
        <ele>1012.6</ele>
        <time>2023-02-11T09:02:39.000Z</time>
      </trkpt>
      <trkpt lat="41.809761" lon="-2.41892">
        <ele>1012.8</ele>
        <time>2023-02-11T09:02:40.000Z</time>
      </trkpt>
      <trkpt lat="41.809756" lon="-2.418838">
        <ele>1012.8</ele>
        <time>2023-02-11T09:02:41.000Z</time>
      </trkpt>
      <trkpt lat="41.809751" lon="-2.418755">
        <ele>1012.8</ele>
        <time>2023-02-11T09:02:42.000Z</time>
      </trkpt>
      <trkpt lat="41.809747" lon="-2.418671">
        <ele>1012.8</ele>
        <time>2023-02-11T09:02:43.000Z</time>
      </trkpt>
      <trkpt lat="41.809743" lon="-2.418585">
        <ele>1012.8</ele>
        <time>2023-02-11T09:02:44.000Z</time>
      </trkpt>
      <trkpt lat="41.809736" lon="-2.4185">
        <ele>1012.8</ele>
        <time>2023-02-11T09:02:45.000Z</time>
      </trkpt>
      <trkpt lat="41.809728" lon="-2.418414">
        <ele>1012.8</ele>
        <time>2023-02-11T09:02:46.000Z</time>
      </trkpt>
      <trkpt lat="41.809723" lon="-2.418327">
        <ele>1012.8</ele>
        <time>2023-02-11T09:02:47.000Z</time>
      </trkpt>
      <trkpt lat="41.809716" lon="-2.418241">
        <ele>1012.8</ele>
        <time>2023-02-11T09:02:48.000Z</time>
      </trkpt>
      <trkpt lat="41.80971" lon="-2.418153">
        <ele>1012.8</ele>
        <time>2023-02-11T09:02:49.000Z</time>
      </trkpt>
      <trkpt lat="41.809701" lon="-2.418066">
        <ele>1012.8</ele>
        <time>2023-02-11T09:02:50.000Z</time>
      </trkpt>
      <trkpt lat="41.809692" lon="-2.417979">
        <ele>1012.8</ele>
        <time>2023-02-11T09:02:51.000Z</time>
      </trkpt>
      <trkpt lat="41.809685" lon="-2.417891">
        <ele>1012.8</ele>
        <time>2023-02-11T09:02:52.000Z</time>
      </trkpt>
      <trkpt lat="41.809672" lon="-2.417803">
        <ele>1012.8</ele>
        <time>2023-02-11T09:02:53.000Z</time>
      </trkpt>
      <trkpt lat="41.809654" lon="-2.417718">
        <ele>1012.8</ele>
        <time>2023-02-11T09:02:54.000Z</time>
      </trkpt>
      <trkpt lat="41.809632" lon="-2.417633">
        <ele>1012.8</ele>
        <time>2023-02-11T09:02:55.000Z</time>
      </trkpt>
      <trkpt lat="41.809609" lon="-2.417546">
        <ele>1012.8</ele>
        <time>2023-02-11T09:02:56.000Z</time>
      </trkpt>
      <trkpt lat="41.809586" lon="-2.417458">
        <ele>1012.6</ele>
        <time>2023-02-11T09:02:57.000Z</time>
      </trkpt>
      <trkpt lat="41.809563" lon="-2.417372">
        <ele>1012.6</ele>
        <time>2023-02-11T09:02:58.000Z</time>
      </trkpt>
      <trkpt lat="41.80954" lon="-2.417286">
        <ele>1012.6</ele>
        <time>2023-02-11T09:02:59.000Z</time>
      </trkpt>
      <trkpt lat="41.809514" lon="-2.4172">
        <ele>1012.6</ele>
        <time>2023-02-11T09:03:00.000Z</time>
      </trkpt>
      <trkpt lat="41.809486" lon="-2.417113">
        <ele>1012.6</ele>
        <time>2023-02-11T09:03:01.000Z</time>
      </trkpt>
      <trkpt lat="41.809459" lon="-2.417027">
        <ele>1012.6</ele>
        <time>2023-02-11T09:03:02.000Z</time>
      </trkpt>
      <trkpt lat="41.809431" lon="-2.416941">
        <ele>1012.6</ele>
        <time>2023-02-11T09:03:03.000Z</time>
      </trkpt>
      <trkpt lat="41.809405" lon="-2.416856">
        <ele>1012.6</ele>
        <time>2023-02-11T09:03:04.000Z</time>
      </trkpt>
      <trkpt lat="41.809381" lon="-2.416771">
        <ele>1012.6</ele>
        <time>2023-02-11T09:03:05.000Z</time>
      </trkpt>
      <trkpt lat="41.809356" lon="-2.416683">
        <ele>1012.6</ele>
        <time>2023-02-11T09:03:06.000Z</time>
      </trkpt>
      <trkpt lat="41.80933" lon="-2.416596">
        <ele>1012.6</ele>
        <time>2023-02-11T09:03:07.000Z</time>
      </trkpt>
      <trkpt lat="41.809306" lon="-2.416509">
        <ele>1012.6</ele>
        <time>2023-02-11T09:03:08.000Z</time>
      </trkpt>
      <trkpt lat="41.809281" lon="-2.416422">
        <ele>1012.8</ele>
        <time>2023-02-11T09:03:09.000Z</time>
      </trkpt>
      <trkpt lat="41.809254" lon="-2.416336">
        <ele>1012.8</ele>
        <time>2023-02-11T09:03:10.000Z</time>
      </trkpt>
      <trkpt lat="41.809227" lon="-2.41625">
        <ele>1012.8</ele>
        <time>2023-02-11T09:03:11.000Z</time>
      </trkpt>
      <trkpt lat="41.809204" lon="-2.416164">
        <ele>1012.8</ele>
        <time>2023-02-11T09:03:12.000Z</time>
      </trkpt>
      <trkpt lat="41.809177" lon="-2.416079">
        <ele>1013</ele>
        <time>2023-02-11T09:03:13.000Z</time>
      </trkpt>
      <trkpt lat="41.80915" lon="-2.415995">
        <ele>1013</ele>
        <time>2023-02-11T09:03:14.000Z</time>
      </trkpt>
      <trkpt lat="41.809122" lon="-2.415909">
        <ele>1013</ele>
        <time>2023-02-11T09:03:15.000Z</time>
      </trkpt>
      <trkpt lat="41.809095" lon="-2.415826">
        <ele>1013</ele>
        <time>2023-02-11T09:03:16.000Z</time>
      </trkpt>
      <trkpt lat="41.809067" lon="-2.415743">
        <ele>1013</ele>
        <time>2023-02-11T09:03:17.000Z</time>
      </trkpt>
      <trkpt lat="41.809041" lon="-2.415663">
        <ele>1013</ele>
        <time>2023-02-11T09:03:18.000Z</time>
      </trkpt>
      <trkpt lat="41.809018" lon="-2.415585">
        <ele>1013</ele>
        <time>2023-02-11T09:03:19.000Z</time>
      </trkpt>
      <trkpt lat="41.808994" lon="-2.415511">
        <ele>1013</ele>
        <time>2023-02-11T09:03:20.000Z</time>
      </trkpt>
      <trkpt lat="41.808968" lon="-2.41544">
        <ele>1013</ele>
        <time>2023-02-11T09:03:21.000Z</time>
      </trkpt>
      <trkpt lat="41.808943" lon="-2.41537">
        <ele>1013</ele>
        <time>2023-02-11T09:03:22.000Z</time>
      </trkpt>
      <trkpt lat="41.808919" lon="-2.415296">
        <ele>1013</ele>
        <time>2023-02-11T09:03:23.000Z</time>
      </trkpt>
      <trkpt lat="41.808896" lon="-2.415222">
        <ele>1013</ele>
        <time>2023-02-11T09:03:24.000Z</time>
      </trkpt>
      <trkpt lat="41.808872" lon="-2.415146">
        <ele>1013</ele>
        <time>2023-02-11T09:03:25.000Z</time>
      </trkpt>
      <trkpt lat="41.808847" lon="-2.415069">
        <ele>1012.8</ele>
        <time>2023-02-11T09:03:26.000Z</time>
      </trkpt>
      <trkpt lat="41.80882" lon="-2.41499">
        <ele>1012.8</ele>
        <time>2023-02-11T09:03:27.000Z</time>
      </trkpt>
      <trkpt lat="41.808795" lon="-2.414908">
        <ele>1012.8</ele>
        <time>2023-02-11T09:03:28.000Z</time>
      </trkpt>
      <trkpt lat="41.80877" lon="-2.414831">
        <ele>1012.8</ele>
        <time>2023-02-11T09:03:29.000Z</time>
      </trkpt>
      <trkpt lat="41.808749" lon="-2.414752">
        <ele>1012.8</ele>
        <time>2023-02-11T09:03:30.000Z</time>
      </trkpt>
      <trkpt lat="41.80873" lon="-2.414673">
        <ele>1012.8</ele>
        <time>2023-02-11T09:03:31.000Z</time>
      </trkpt>
      <trkpt lat="41.80871" lon="-2.414593">
        <ele>1012.8</ele>
        <time>2023-02-11T09:03:32.000Z</time>
      </trkpt>
      <trkpt lat="41.808691" lon="-2.414514">
        <ele>1012.8</ele>
        <time>2023-02-11T09:03:33.000Z</time>
      </trkpt>
      <trkpt lat="41.808669" lon="-2.414434">
        <ele>1013</ele>
        <time>2023-02-11T09:03:34.000Z</time>
      </trkpt>
      <trkpt lat="41.808649" lon="-2.414356">
        <ele>1013</ele>
        <time>2023-02-11T09:03:35.000Z</time>
      </trkpt>
      <trkpt lat="41.808629" lon="-2.414277">
        <ele>1013.2</ele>
        <time>2023-02-11T09:03:36.000Z</time>
      </trkpt>
      <trkpt lat="41.80861" lon="-2.414198">
        <ele>1013.2</ele>
        <time>2023-02-11T09:03:37.000Z</time>
      </trkpt>
      <trkpt lat="41.808593" lon="-2.414116">
        <ele>1013.6</ele>
        <time>2023-02-11T09:03:38.000Z</time>
      </trkpt>
      <trkpt lat="41.808577" lon="-2.414034">
        <ele>1013.6</ele>
        <time>2023-02-11T09:03:39.000Z</time>
      </trkpt>
      <trkpt lat="41.808559" lon="-2.413953">
        <ele>1013.8</ele>
        <time>2023-02-11T09:03:40.000Z</time>
      </trkpt>
      <trkpt lat="41.808544" lon="-2.41387">
        <ele>1013.8</ele>
        <time>2023-02-11T09:03:41.000Z</time>
      </trkpt>
      <trkpt lat="41.808532" lon="-2.413786">
        <ele>1013.8</ele>
        <time>2023-02-11T09:03:42.000Z</time>
      </trkpt>
      <trkpt lat="41.808519" lon="-2.413705">
        <ele>1014</ele>
        <time>2023-02-11T09:03:43.000Z</time>
      </trkpt>
      <trkpt lat="41.808506" lon="-2.413624">
        <ele>1014</ele>
        <time>2023-02-11T09:03:44.000Z</time>
      </trkpt>
      <trkpt lat="41.808495" lon="-2.413541">
        <ele>1014</ele>
        <time>2023-02-11T09:03:45.000Z</time>
      </trkpt>
      <trkpt lat="41.808486" lon="-2.413458">
        <ele>1014.2</ele>
        <time>2023-02-11T09:03:46.000Z</time>
      </trkpt>
      <trkpt lat="41.808477" lon="-2.413371">
        <ele>1014.2</ele>
        <time>2023-02-11T09:03:47.000Z</time>
      </trkpt>
      <trkpt lat="41.808466" lon="-2.413287">
        <ele>1014.2</ele>
        <time>2023-02-11T09:03:48.000Z</time>
      </trkpt>
      <trkpt lat="41.808455" lon="-2.413201">
        <ele>1014.4</ele>
        <time>2023-02-11T09:03:49.000Z</time>
      </trkpt>
      <trkpt lat="41.808442" lon="-2.413115">
        <ele>1014.4</ele>
        <time>2023-02-11T09:03:50.000Z</time>
      </trkpt>
      <trkpt lat="41.808431" lon="-2.413028">
        <ele>1014.2</ele>
        <time>2023-02-11T09:03:51.000Z</time>
      </trkpt>
      <trkpt lat="41.808419" lon="-2.412939">
        <ele>1014</ele>
        <time>2023-02-11T09:03:52.000Z</time>
      </trkpt>
      <trkpt lat="41.808408" lon="-2.412849">
        <ele>1014.2</ele>
        <time>2023-02-11T09:03:53.000Z</time>
      </trkpt>
      <trkpt lat="41.808396" lon="-2.412756">
        <ele>1014.2</ele>
        <time>2023-02-11T09:03:54.000Z</time>
      </trkpt>
      <trkpt lat="41.808385" lon="-2.412665">
        <ele>1014.2</ele>
        <time>2023-02-11T09:03:55.000Z</time>
      </trkpt>
      <trkpt lat="41.808374" lon="-2.412575">
        <ele>1014.2</ele>
        <time>2023-02-11T09:03:56.000Z</time>
      </trkpt>
      <trkpt lat="41.808362" lon="-2.412483">
        <ele>1014</ele>
        <time>2023-02-11T09:03:57.000Z</time>
      </trkpt>
      <trkpt lat="41.808349" lon="-2.412392">
        <ele>1014</ele>
        <time>2023-02-11T09:03:58.000Z</time>
      </trkpt>
      <trkpt lat="41.808337" lon="-2.412299">
        <ele>1013.8</ele>
        <time>2023-02-11T09:03:59.000Z</time>
      </trkpt>
      <trkpt lat="41.808326" lon="-2.412207">
        <ele>1013.6</ele>
        <time>2023-02-11T09:04:00.000Z</time>
      </trkpt>
      <trkpt lat="41.808314" lon="-2.412115">
        <ele>1013.2</ele>
        <time>2023-02-11T09:04:01.000Z</time>
      </trkpt>
      <trkpt lat="41.808302" lon="-2.41202">
        <ele>1013.2</ele>
        <time>2023-02-11T09:04:02.000Z</time>
      </trkpt>
      <trkpt lat="41.808291" lon="-2.411925">
        <ele>1013.2</ele>
        <time>2023-02-11T09:04:03.000Z</time>
      </trkpt>
      <trkpt lat="41.808279" lon="-2.411829">
        <ele>1013.4</ele>
        <time>2023-02-11T09:04:04.000Z</time>
      </trkpt>
      <trkpt lat="41.808269" lon="-2.411732">
        <ele>1013.4</ele>
        <time>2023-02-11T09:04:05.000Z</time>
      </trkpt>
      <trkpt lat="41.808259" lon="-2.411636">
        <ele>1013.6</ele>
        <time>2023-02-11T09:04:06.000Z</time>
      </trkpt>
      <trkpt lat="41.80825" lon="-2.411539">
        <ele>1013.6</ele>
        <time>2023-02-11T09:04:07.000Z</time>
      </trkpt>
      <trkpt lat="41.808239" lon="-2.411444">
        <ele>1013.6</ele>
        <time>2023-02-11T09:04:08.000Z</time>
      </trkpt>
      <trkpt lat="41.808226" lon="-2.411348">
        <ele>1014.2</ele>
        <time>2023-02-11T09:04:09.000Z</time>
      </trkpt>
      <trkpt lat="41.808214" lon="-2.411251">
        <ele>1014.4</ele>
        <time>2023-02-11T09:04:10.000Z</time>
      </trkpt>
      <trkpt lat="41.808201" lon="-2.411155">
        <ele>1014.4</ele>
        <time>2023-02-11T09:04:11.000Z</time>
      </trkpt>
      <trkpt lat="41.808186" lon="-2.411059">
        <ele>1014.4</ele>
        <time>2023-02-11T09:04:12.000Z</time>
      </trkpt>
      <trkpt lat="41.808171" lon="-2.410963">
        <ele>1014.6</ele>
        <time>2023-02-11T09:04:13.000Z</time>
      </trkpt>
      <trkpt lat="41.808156" lon="-2.410868">
        <ele>1014.6</ele>
        <time>2023-02-11T09:04:14.000Z</time>
      </trkpt>
      <trkpt lat="41.808138" lon="-2.410772">
        <ele>1014.6</ele>
        <time>2023-02-11T09:04:15.000Z</time>
      </trkpt>
      <trkpt lat="41.80812" lon="-2.410676">
        <ele>1014.6</ele>
        <time>2023-02-11T09:04:16.000Z</time>
      </trkpt>
      <trkpt lat="41.8081" lon="-2.41058">
        <ele>1014.6</ele>
        <time>2023-02-11T09:04:17.000Z</time>
      </trkpt>
      <trkpt lat="41.808078" lon="-2.410485">
        <ele>1014.6</ele>
        <time>2023-02-11T09:04:18.000Z</time>
      </trkpt>
      <trkpt lat="41.808055" lon="-2.410391">
        <ele>1015</ele>
        <time>2023-02-11T09:04:19.000Z</time>
      </trkpt>
      <trkpt lat="41.80803" lon="-2.4103">
        <ele>1015</ele>
        <time>2023-02-11T09:04:20.000Z</time>
      </trkpt>
      <trkpt lat="41.808005" lon="-2.410209">
        <ele>1015</ele>
        <time>2023-02-11T09:04:21.000Z</time>
      </trkpt>
      <trkpt lat="41.80798" lon="-2.410115">
        <ele>1015</ele>
        <time>2023-02-11T09:04:22.000Z</time>
      </trkpt>
      <trkpt lat="41.807955" lon="-2.41002">
        <ele>1015</ele>
        <time>2023-02-11T09:04:23.000Z</time>
      </trkpt>
      <trkpt lat="41.807929" lon="-2.409922">
        <ele>1014.8</ele>
        <time>2023-02-11T09:04:24.000Z</time>
      </trkpt>
      <trkpt lat="41.8079" lon="-2.409826">
        <ele>1015</ele>
        <time>2023-02-11T09:04:25.000Z</time>
      </trkpt>
      <trkpt lat="41.807869" lon="-2.409729">
        <ele>1015</ele>
        <time>2023-02-11T09:04:26.000Z</time>
      </trkpt>
      <trkpt lat="41.80784" lon="-2.409629">
        <ele>1015</ele>
        <time>2023-02-11T09:04:27.000Z</time>
      </trkpt>
      <trkpt lat="41.807813" lon="-2.40953">
        <ele>1015.2</ele>
        <time>2023-02-11T09:04:28.000Z</time>
      </trkpt>
      <trkpt lat="41.807788" lon="-2.40943">
        <ele>1015.2</ele>
        <time>2023-02-11T09:04:29.000Z</time>
      </trkpt>
      <trkpt lat="41.807764" lon="-2.40933">
        <ele>1015.2</ele>
        <time>2023-02-11T09:04:30.000Z</time>
      </trkpt>
      <trkpt lat="41.807745" lon="-2.409228">
        <ele>1015.2</ele>
        <time>2023-02-11T09:04:31.000Z</time>
      </trkpt>
      <trkpt lat="41.807729" lon="-2.409126">
        <ele>1015.2</ele>
        <time>2023-02-11T09:04:32.000Z</time>
      </trkpt>
      <trkpt lat="41.807716" lon="-2.409024">
        <ele>1015.2</ele>
        <time>2023-02-11T09:04:33.000Z</time>
      </trkpt>
      <trkpt lat="41.807709" lon="-2.408923">
        <ele>1015</ele>
        <time>2023-02-11T09:04:34.000Z</time>
      </trkpt>
      <trkpt lat="41.807707" lon="-2.408823">
        <ele>1015</ele>
        <time>2023-02-11T09:04:35.000Z</time>
      </trkpt>
      <trkpt lat="41.80771" lon="-2.408723">
        <ele>1015</ele>
        <time>2023-02-11T09:04:36.000Z</time>
      </trkpt>
      <trkpt lat="41.807719" lon="-2.408626">
        <ele>1015</ele>
        <time>2023-02-11T09:04:37.000Z</time>
      </trkpt>
      <trkpt lat="41.807732" lon="-2.408534">
        <ele>1015</ele>
        <time>2023-02-11T09:04:38.000Z</time>
      </trkpt>
      <trkpt lat="41.807749" lon="-2.408446">
        <ele>1015</ele>
        <time>2023-02-11T09:04:39.000Z</time>
      </trkpt>
      <trkpt lat="41.807771" lon="-2.408358">
        <ele>1015</ele>
        <time>2023-02-11T09:04:40.000Z</time>
      </trkpt>
      <trkpt lat="41.807792" lon="-2.40827">
        <ele>1014.8</ele>
        <time>2023-02-11T09:04:41.000Z</time>
      </trkpt>
      <trkpt lat="41.807817" lon="-2.408183">
        <ele>1014.8</ele>
        <time>2023-02-11T09:04:42.000Z</time>
      </trkpt>
      <trkpt lat="41.807848" lon="-2.408093">
        <ele>1014.8</ele>
        <time>2023-02-11T09:04:43.000Z</time>
      </trkpt>
      <trkpt lat="41.807878" lon="-2.408004">
        <ele>1014.8</ele>
        <time>2023-02-11T09:04:44.000Z</time>
      </trkpt>
      <trkpt lat="41.807909" lon="-2.407915">
        <ele>1014.8</ele>
        <time>2023-02-11T09:04:45.000Z</time>
      </trkpt>
      <trkpt lat="41.80794" lon="-2.407826">
        <ele>1014.8</ele>
        <time>2023-02-11T09:04:46.000Z</time>
      </trkpt>
      <trkpt lat="41.807969" lon="-2.407735">
        <ele>1014.8</ele>
        <time>2023-02-11T09:04:47.000Z</time>
      </trkpt>
      <trkpt lat="41.807999" lon="-2.407646">
        <ele>1014.8</ele>
        <time>2023-02-11T09:04:48.000Z</time>
      </trkpt>
      <trkpt lat="41.80803" lon="-2.407558">
        <ele>1014.8</ele>
        <time>2023-02-11T09:04:49.000Z</time>
      </trkpt>
      <trkpt lat="41.80806" lon="-2.407469">
        <ele>1014.8</ele>
        <time>2023-02-11T09:04:50.000Z</time>
      </trkpt>
      <trkpt lat="41.808091" lon="-2.40738">
        <ele>1014.8</ele>
        <time>2023-02-11T09:04:51.000Z</time>
      </trkpt>
      <trkpt lat="41.808123" lon="-2.407289">
        <ele>1014.8</ele>
        <time>2023-02-11T09:04:52.000Z</time>
      </trkpt>
      <trkpt lat="41.80816" lon="-2.4072">
        <ele>1014.8</ele>
        <time>2023-02-11T09:04:53.000Z</time>
      </trkpt>
      <trkpt lat="41.808196" lon="-2.407111">
        <ele>1014.8</ele>
        <time>2023-02-11T09:04:54.000Z</time>
      </trkpt>
      <trkpt lat="41.80823" lon="-2.407022">
        <ele>1014.8</ele>
        <time>2023-02-11T09:04:55.000Z</time>
      </trkpt>
      <trkpt lat="41.808264" lon="-2.406933">
        <ele>1014.8</ele>
        <time>2023-02-11T09:04:56.000Z</time>
      </trkpt>
      <trkpt lat="41.808295" lon="-2.406842">
        <ele>1014.8</ele>
        <time>2023-02-11T09:04:57.000Z</time>
      </trkpt>
      <trkpt lat="41.808326" lon="-2.406752">
        <ele>1014.6</ele>
        <time>2023-02-11T09:04:58.000Z</time>
      </trkpt>
      <trkpt lat="41.80836" lon="-2.406661">
        <ele>1014.6</ele>
        <time>2023-02-11T09:04:59.000Z</time>
      </trkpt>
      <trkpt lat="41.808393" lon="-2.406568">
        <ele>1014.8</ele>
        <time>2023-02-11T09:05:00.000Z</time>
      </trkpt>
      <trkpt lat="41.808424" lon="-2.406474">
        <ele>1014.8</ele>
        <time>2023-02-11T09:05:01.000Z</time>
      </trkpt>
      <trkpt lat="41.808454" lon="-2.40638">
        <ele>1014.8</ele>
        <time>2023-02-11T09:05:02.000Z</time>
      </trkpt>
      <trkpt lat="41.808483" lon="-2.406284">
        <ele>1014.8</ele>
        <time>2023-02-11T09:05:03.000Z</time>
      </trkpt>
      <trkpt lat="41.808507" lon="-2.406188">
        <ele>1014.8</ele>
        <time>2023-02-11T09:05:04.000Z</time>
      </trkpt>
      <trkpt lat="41.80853" lon="-2.406093">
        <ele>1014.8</ele>
        <time>2023-02-11T09:05:05.000Z</time>
      </trkpt>
      <trkpt lat="41.808554" lon="-2.405999">
        <ele>1014.8</ele>
        <time>2023-02-11T09:05:06.000Z</time>
      </trkpt>
      <trkpt lat="41.808574" lon="-2.405908">
        <ele>1014.8</ele>
        <time>2023-02-11T09:05:07.000Z</time>
      </trkpt>
      <trkpt lat="41.808591" lon="-2.405821">
        <ele>1014.8</ele>
        <time>2023-02-11T09:05:08.000Z</time>
      </trkpt>
      <trkpt lat="41.808607" lon="-2.405738">
        <ele>1014.8</ele>
        <time>2023-02-11T09:05:09.000Z</time>
      </trkpt>
      <trkpt lat="41.808622" lon="-2.405654">
        <ele>1015</ele>
        <time>2023-02-11T09:05:10.000Z</time>
      </trkpt>
      <trkpt lat="41.808637" lon="-2.405566">
        <ele>1015.2</ele>
        <time>2023-02-11T09:05:11.000Z</time>
      </trkpt>
      <trkpt lat="41.808655" lon="-2.405477">
        <ele>1015.2</ele>
        <time>2023-02-11T09:05:12.000Z</time>
      </trkpt>
      <trkpt lat="41.808674" lon="-2.405387">
        <ele>1015.2</ele>
        <time>2023-02-11T09:05:13.000Z</time>
      </trkpt>
      <trkpt lat="41.808694" lon="-2.405295">
        <ele>1015.2</ele>
        <time>2023-02-11T09:05:14.000Z</time>
      </trkpt>
      <trkpt lat="41.808712" lon="-2.405202">
        <ele>1015.2</ele>
        <time>2023-02-11T09:05:15.000Z</time>
      </trkpt>
      <trkpt lat="41.808731" lon="-2.405112">
        <ele>1015.2</ele>
        <time>2023-02-11T09:05:16.000Z</time>
      </trkpt>
      <trkpt lat="41.808752" lon="-2.405022">
        <ele>1015.2</ele>
        <time>2023-02-11T09:05:17.000Z</time>
      </trkpt>
      <trkpt lat="41.808771" lon="-2.404934">
        <ele>1015.2</ele>
        <time>2023-02-11T09:05:18.000Z</time>
      </trkpt>
      <trkpt lat="41.808791" lon="-2.404847">
        <ele>1015.4</ele>
        <time>2023-02-11T09:05:19.000Z</time>
      </trkpt>
      <trkpt lat="41.80881" lon="-2.404764">
        <ele>1015.4</ele>
        <time>2023-02-11T09:05:20.000Z</time>
      </trkpt>
      <trkpt lat="41.808827" lon="-2.404682">
        <ele>1015.4</ele>
        <time>2023-02-11T09:05:21.000Z</time>
      </trkpt>
      <trkpt lat="41.808846" lon="-2.404597">
        <ele>1015.6</ele>
        <time>2023-02-11T09:05:22.000Z</time>
      </trkpt>
      <trkpt lat="41.808864" lon="-2.404512">
        <ele>1015.4</ele>
        <time>2023-02-11T09:05:23.000Z</time>
      </trkpt>
      <trkpt lat="41.808879" lon="-2.404422">
        <ele>1015.6</ele>
        <time>2023-02-11T09:05:24.000Z</time>
      </trkpt>
      <trkpt lat="41.808897" lon="-2.404332">
        <ele>1015.6</ele>
        <time>2023-02-11T09:05:25.000Z</time>
      </trkpt>
      <trkpt lat="41.808921" lon="-2.404243">
        <ele>1015.8</ele>
        <time>2023-02-11T09:05:26.000Z</time>
      </trkpt>
      <trkpt lat="41.808944" lon="-2.404152">
        <ele>1015.8</ele>
        <time>2023-02-11T09:05:27.000Z</time>
      </trkpt>
      <trkpt lat="41.808967" lon="-2.404061">
        <ele>1016</ele>
        <time>2023-02-11T09:05:28.000Z</time>
      </trkpt>
      <trkpt lat="41.80899" lon="-2.40397">
        <ele>1016.2</ele>
        <time>2023-02-11T09:05:29.000Z</time>
      </trkpt>
      <trkpt lat="41.80901" lon="-2.403879">
        <ele>1016.2</ele>
        <time>2023-02-11T09:05:30.000Z</time>
      </trkpt>
      <trkpt lat="41.809028" lon="-2.403789">
        <ele>1016.4</ele>
        <time>2023-02-11T09:05:31.000Z</time>
      </trkpt>
      <trkpt lat="41.809045" lon="-2.4037">
        <ele>1016.6</ele>
        <time>2023-02-11T09:05:32.000Z</time>
      </trkpt>
      <trkpt lat="41.809063" lon="-2.403612">
        <ele>1016.6</ele>
        <time>2023-02-11T09:05:33.000Z</time>
      </trkpt>
      <trkpt lat="41.809081" lon="-2.403524">
        <ele>1016.8</ele>
        <time>2023-02-11T09:05:34.000Z</time>
      </trkpt>
      <trkpt lat="41.809099" lon="-2.403436">
        <ele>1017</ele>
        <time>2023-02-11T09:05:35.000Z</time>
      </trkpt>
      <trkpt lat="41.809106" lon="-2.403346">
        <ele>1017.2</ele>
        <time>2023-02-11T09:05:36.000Z</time>
      </trkpt>
      <trkpt lat="41.809096" lon="-2.403261">
        <ele>1017.4</ele>
        <time>2023-02-11T09:05:37.000Z</time>
      </trkpt>
      <trkpt lat="41.809066" lon="-2.403196">
        <ele>1017.6</ele>
        <time>2023-02-11T09:05:38.000Z</time>
      </trkpt>
      <trkpt lat="41.80902" lon="-2.403136">
        <ele>1017.6</ele>
        <time>2023-02-11T09:05:39.000Z</time>
      </trkpt>
      <trkpt lat="41.808973" lon="-2.403069">
        <ele>1017.8</ele>
        <time>2023-02-11T09:05:40.000Z</time>
      </trkpt>
      <trkpt lat="41.808923" lon="-2.402992">
        <ele>1017.8</ele>
        <time>2023-02-11T09:05:41.000Z</time>
      </trkpt>
      <trkpt lat="41.808875" lon="-2.402906">
        <ele>1017.8</ele>
        <time>2023-02-11T09:05:42.000Z</time>
      </trkpt>
      <trkpt lat="41.808831" lon="-2.40281">
        <ele>1017.8</ele>
        <time>2023-02-11T09:05:43.000Z</time>
      </trkpt>
      <trkpt lat="41.808791" lon="-2.402712">
        <ele>1018</ele>
        <time>2023-02-11T09:05:44.000Z</time>
      </trkpt>
      <trkpt lat="41.808755" lon="-2.402607">
        <ele>1018</ele>
        <time>2023-02-11T09:05:45.000Z</time>
      </trkpt>
      <trkpt lat="41.808735" lon="-2.402499">
        <ele>1018</ele>
        <time>2023-02-11T09:05:46.000Z</time>
      </trkpt>
      <trkpt lat="41.808713" lon="-2.402391">
        <ele>1018</ele>
        <time>2023-02-11T09:05:47.000Z</time>
      </trkpt>
      <trkpt lat="41.808681" lon="-2.402285">
        <ele>1018</ele>
        <time>2023-02-11T09:05:48.000Z</time>
      </trkpt>
      <trkpt lat="41.808646" lon="-2.402184">
        <ele>1018</ele>
        <time>2023-02-11T09:05:49.000Z</time>
      </trkpt>
      <trkpt lat="41.808615" lon="-2.402086">
        <ele>1018</ele>
        <time>2023-02-11T09:05:50.000Z</time>
      </trkpt>
      <trkpt lat="41.808597" lon="-2.401988">
        <ele>1017.8</ele>
        <time>2023-02-11T09:05:51.000Z</time>
      </trkpt>
      <trkpt lat="41.80859" lon="-2.401883">
        <ele>1017.8</ele>
        <time>2023-02-11T09:05:52.000Z</time>
      </trkpt>
      <trkpt lat="41.808583" lon="-2.401774">
        <ele>1017.8</ele>
        <time>2023-02-11T09:05:53.000Z</time>
      </trkpt>
      <trkpt lat="41.80858" lon="-2.401663">
        <ele>1017.8</ele>
        <time>2023-02-11T09:05:54.000Z</time>
      </trkpt>
      <trkpt lat="41.808577" lon="-2.401554">
        <ele>1017.6</ele>
        <time>2023-02-11T09:05:55.000Z</time>
      </trkpt>
      <trkpt lat="41.808577" lon="-2.401451">
        <ele>1017.6</ele>
        <time>2023-02-11T09:05:56.000Z</time>
      </trkpt>
      <trkpt lat="41.808579" lon="-2.401351">
        <ele>1017.6</ele>
        <time>2023-02-11T09:05:57.000Z</time>
      </trkpt>
      <trkpt lat="41.808581" lon="-2.401253">
        <ele>1017.6</ele>
        <time>2023-02-11T09:05:58.000Z</time>
      </trkpt>
      <trkpt lat="41.808584" lon="-2.401159">
        <ele>1017.6</ele>
        <time>2023-02-11T09:05:59.000Z</time>
      </trkpt>
      <trkpt lat="41.808594" lon="-2.401068">
        <ele>1017.6</ele>
        <time>2023-02-11T09:06:00.000Z</time>
      </trkpt>
      <trkpt lat="41.808611" lon="-2.40098">
        <ele>1017.6</ele>
        <time>2023-02-11T09:06:01.000Z</time>
      </trkpt>
      <trkpt lat="41.808627" lon="-2.400889">
        <ele>1017.6</ele>
        <time>2023-02-11T09:06:02.000Z</time>
      </trkpt>
      <trkpt lat="41.80864" lon="-2.400799">
        <ele>1017.6</ele>
        <time>2023-02-11T09:06:03.000Z</time>
      </trkpt>
      <trkpt lat="41.808653" lon="-2.40071">
        <ele>1017.6</ele>
        <time>2023-02-11T09:06:04.000Z</time>
      </trkpt>
      <trkpt lat="41.80866" lon="-2.40062">
        <ele>1017.6</ele>
        <time>2023-02-11T09:06:05.000Z</time>
      </trkpt>
      <trkpt lat="41.808662" lon="-2.400528">
        <ele>1017.6</ele>
        <time>2023-02-11T09:06:06.000Z</time>
      </trkpt>
      <trkpt lat="41.808662" lon="-2.400436">
        <ele>1017.6</ele>
        <time>2023-02-11T09:06:07.000Z</time>
      </trkpt>
      <trkpt lat="41.808664" lon="-2.400342">
        <ele>1017.6</ele>
        <time>2023-02-11T09:06:08.000Z</time>
      </trkpt>
      <trkpt lat="41.808666" lon="-2.400246">
        <ele>1017.6</ele>
        <time>2023-02-11T09:06:09.000Z</time>
      </trkpt>
      <trkpt lat="41.808669" lon="-2.400148">
        <ele>1017.6</ele>
        <time>2023-02-11T09:06:10.000Z</time>
      </trkpt>
      <trkpt lat="41.808666" lon="-2.400049">
        <ele>1017.6</ele>
        <time>2023-02-11T09:06:11.000Z</time>
      </trkpt>
      <trkpt lat="41.808652" lon="-2.399953">
        <ele>1017.6</ele>
        <time>2023-02-11T09:06:12.000Z</time>
      </trkpt>
      <trkpt lat="41.808612" lon="-2.399882">
        <ele>1017.6</ele>
        <time>2023-02-11T09:06:13.000Z</time>
      </trkpt>
      <trkpt lat="41.808548" lon="-2.399842">
        <ele>1017.6</ele>
        <time>2023-02-11T09:06:14.000Z</time>
      </trkpt>
      <trkpt lat="41.808481" lon="-2.399814">
        <ele>1017.6</ele>
        <time>2023-02-11T09:06:15.000Z</time>
      </trkpt>
      <trkpt lat="41.808413" lon="-2.399789">
        <ele>1017.6</ele>
        <time>2023-02-11T09:06:16.000Z</time>
      </trkpt>
      <trkpt lat="41.808345" lon="-2.399766">
        <ele>1017.6</ele>
        <time>2023-02-11T09:06:17.000Z</time>
      </trkpt>
      <trkpt lat="41.808276" lon="-2.399743">
        <ele>1017.6</ele>
        <time>2023-02-11T09:06:18.000Z</time>
      </trkpt>
      <trkpt lat="41.808207" lon="-2.399721">
        <ele>1017.6</ele>
        <time>2023-02-11T09:06:19.000Z</time>
      </trkpt>
      <trkpt lat="41.808137" lon="-2.399698">
        <ele>1017.4</ele>
        <time>2023-02-11T09:06:20.000Z</time>
      </trkpt>
      <trkpt lat="41.808064" lon="-2.399678">
        <ele>1017.4</ele>
        <time>2023-02-11T09:06:21.000Z</time>
      </trkpt>
      <trkpt lat="41.807989" lon="-2.399655">
        <ele>1017.4</ele>
        <time>2023-02-11T09:06:22.000Z</time>
      </trkpt>
      <trkpt lat="41.807913" lon="-2.399632">
        <ele>1017.4</ele>
        <time>2023-02-11T09:06:23.000Z</time>
      </trkpt>
      <trkpt lat="41.807837" lon="-2.399611">
        <ele>1017.4</ele>
        <time>2023-02-11T09:06:24.000Z</time>
      </trkpt>
      <trkpt lat="41.80776" lon="-2.39959">
        <ele>1017</ele>
        <time>2023-02-11T09:06:25.000Z</time>
      </trkpt>
      <trkpt lat="41.807685" lon="-2.399565">
        <ele>1017</ele>
        <time>2023-02-11T09:06:26.000Z</time>
      </trkpt>
      <trkpt lat="41.807613" lon="-2.399544">
        <ele>1016.8</ele>
        <time>2023-02-11T09:06:27.000Z</time>
      </trkpt>
      <trkpt lat="41.807541" lon="-2.39953">
        <ele>1016.8</ele>
        <time>2023-02-11T09:06:28.000Z</time>
      </trkpt>
      <trkpt lat="41.807468" lon="-2.399535">
        <ele>1016.4</ele>
        <time>2023-02-11T09:06:29.000Z</time>
      </trkpt>
      <trkpt lat="41.807397" lon="-2.399562">
        <ele>1016.4</ele>
        <time>2023-02-11T09:06:30.000Z</time>
      </trkpt>
      <trkpt lat="41.807332" lon="-2.399609">
        <ele>1016.4</ele>
        <time>2023-02-11T09:06:31.000Z</time>
      </trkpt>
      <trkpt lat="41.807269" lon="-2.399667">
        <ele>1016.4</ele>
        <time>2023-02-11T09:06:32.000Z</time>
      </trkpt>
      <trkpt lat="41.807206" lon="-2.399725">
        <ele>1016.4</ele>
        <time>2023-02-11T09:06:33.000Z</time>
      </trkpt>
      <trkpt lat="41.807142" lon="-2.399782">
        <ele>1016.4</ele>
        <time>2023-02-11T09:06:34.000Z</time>
      </trkpt>
      <trkpt lat="41.807078" lon="-2.399836">
        <ele>1016.4</ele>
        <time>2023-02-11T09:06:35.000Z</time>
      </trkpt>
      <trkpt lat="41.807012" lon="-2.399885">
        <ele>1016</ele>
        <time>2023-02-11T09:06:36.000Z</time>
      </trkpt>
      <trkpt lat="41.806941" lon="-2.399926">
        <ele>1016.2</ele>
        <time>2023-02-11T09:06:37.000Z</time>
      </trkpt>
      <trkpt lat="41.806868" lon="-2.399957">
        <ele>1016.4</ele>
        <time>2023-02-11T09:06:38.000Z</time>
      </trkpt>
      <trkpt lat="41.806791" lon="-2.399987">
        <ele>1016.4</ele>
        <time>2023-02-11T09:06:39.000Z</time>
      </trkpt>
      <trkpt lat="41.806717" lon="-2.400014">
        <ele>1016.4</ele>
        <time>2023-02-11T09:06:40.000Z</time>
      </trkpt>
      <trkpt lat="41.806644" lon="-2.400047">
        <ele>1016.6</ele>
        <time>2023-02-11T09:06:41.000Z</time>
      </trkpt>
      <trkpt lat="41.806573" lon="-2.400085">
        <ele>1016.6</ele>
        <time>2023-02-11T09:06:42.000Z</time>
      </trkpt>
      <trkpt lat="41.806505" lon="-2.400128">
        <ele>1016.8</ele>
        <time>2023-02-11T09:06:43.000Z</time>
      </trkpt>
      <trkpt lat="41.806437" lon="-2.400177">
        <ele>1016.8</ele>
        <time>2023-02-11T09:06:44.000Z</time>
      </trkpt>
      <trkpt lat="41.806373" lon="-2.400226">
        <ele>1016.8</ele>
        <time>2023-02-11T09:06:45.000Z</time>
      </trkpt>
      <trkpt lat="41.806308" lon="-2.400278">
        <ele>1016.8</ele>
        <time>2023-02-11T09:06:46.000Z</time>
      </trkpt>
      <trkpt lat="41.806244" lon="-2.40033">
        <ele>1016.8</ele>
        <time>2023-02-11T09:06:47.000Z</time>
      </trkpt>
      <trkpt lat="41.806182" lon="-2.400383">
        <ele>1017</ele>
        <time>2023-02-11T09:06:48.000Z</time>
      </trkpt>
      <trkpt lat="41.806123" lon="-2.400436">
        <ele>1017</ele>
        <time>2023-02-11T09:06:49.000Z</time>
      </trkpt>
      <trkpt lat="41.806065" lon="-2.400487">
        <ele>1017</ele>
        <time>2023-02-11T09:06:50.000Z</time>
      </trkpt>
      <trkpt lat="41.806004" lon="-2.400533">
        <ele>1017</ele>
        <time>2023-02-11T09:06:51.000Z</time>
      </trkpt>
      <trkpt lat="41.805946" lon="-2.400559">
        <ele>1017.2</ele>
        <time>2023-02-11T09:06:52.000Z</time>
      </trkpt>
      <trkpt lat="41.805892" lon="-2.400555">
        <ele>1017.2</ele>
        <time>2023-02-11T09:06:53.000Z</time>
      </trkpt>
      <trkpt lat="41.80585" lon="-2.400508">
        <ele>1017.4</ele>
        <time>2023-02-11T09:06:54.000Z</time>
      </trkpt>
      <trkpt lat="41.805836" lon="-2.400428">
        <ele>1017.4</ele>
        <time>2023-02-11T09:06:55.000Z</time>
      </trkpt>
      <trkpt lat="41.805848" lon="-2.400349">
        <ele>1017.8</ele>
        <time>2023-02-11T09:06:56.000Z</time>
      </trkpt>
      <trkpt lat="41.805865" lon="-2.400271">
        <ele>1018</ele>
        <time>2023-02-11T09:06:57.000Z</time>
      </trkpt>
      <trkpt lat="41.805877" lon="-2.400189">
        <ele>1018</ele>
        <time>2023-02-11T09:06:58.000Z</time>
      </trkpt>
      <trkpt lat="41.805887" lon="-2.400102">
        <ele>1018</ele>
        <time>2023-02-11T09:06:59.000Z</time>
      </trkpt>
      <trkpt lat="41.805888" lon="-2.400014">
        <ele>1018.2</ele>
        <time>2023-02-11T09:07:00.000Z</time>
      </trkpt>
      <trkpt lat="41.805887" lon="-2.399925">
        <ele>1018.2</ele>
        <time>2023-02-11T09:07:01.000Z</time>
      </trkpt>
      <trkpt lat="41.805888" lon="-2.399835">
        <ele>1018.2</ele>
        <time>2023-02-11T09:07:02.000Z</time>
      </trkpt>
      <trkpt lat="41.805894" lon="-2.399743">
        <ele>1018.2</ele>
        <time>2023-02-11T09:07:03.000Z</time>
      </trkpt>
      <trkpt lat="41.805904" lon="-2.399651">
        <ele>1018.2</ele>
        <time>2023-02-11T09:07:04.000Z</time>
      </trkpt>
      <trkpt lat="41.805917" lon="-2.39956">
        <ele>1018.2</ele>
        <time>2023-02-11T09:07:05.000Z</time>
      </trkpt>
      <trkpt lat="41.805929" lon="-2.399465">
        <ele>1018</ele>
        <time>2023-02-11T09:07:06.000Z</time>
      </trkpt>
      <trkpt lat="41.805939" lon="-2.399372">
        <ele>1018</ele>
        <time>2023-02-11T09:07:07.000Z</time>
      </trkpt>
      <trkpt lat="41.80595" lon="-2.399278">
        <ele>1018</ele>
        <time>2023-02-11T09:07:08.000Z</time>
      </trkpt>
      <trkpt lat="41.805961" lon="-2.399183">
        <ele>1018</ele>
        <time>2023-02-11T09:07:09.000Z</time>
      </trkpt>
      <trkpt lat="41.805973" lon="-2.399091">
        <ele>1018</ele>
        <time>2023-02-11T09:07:10.000Z</time>
      </trkpt>
      <trkpt lat="41.805986" lon="-2.398998">
        <ele>1018</ele>
        <time>2023-02-11T09:07:11.000Z</time>
      </trkpt>
      <trkpt lat="41.806" lon="-2.398905">
        <ele>1018</ele>
        <time>2023-02-11T09:07:12.000Z</time>
      </trkpt>
      <trkpt lat="41.806011" lon="-2.398812">
        <ele>1018</ele>
        <time>2023-02-11T09:07:13.000Z</time>
      </trkpt>
      <trkpt lat="41.806024" lon="-2.398718">
        <ele>1018</ele>
        <time>2023-02-11T09:07:14.000Z</time>
      </trkpt>
      <trkpt lat="41.806036" lon="-2.398623">
        <ele>1018</ele>
        <time>2023-02-11T09:07:15.000Z</time>
      </trkpt>
      <trkpt lat="41.806047" lon="-2.398528">
        <ele>1018.2</ele>
        <time>2023-02-11T09:07:16.000Z</time>
      </trkpt>
      <trkpt lat="41.806059" lon="-2.398433">
        <ele>1018.2</ele>
        <time>2023-02-11T09:07:17.000Z</time>
      </trkpt>
      <trkpt lat="41.806069" lon="-2.398337">
        <ele>1018.2</ele>
        <time>2023-02-11T09:07:18.000Z</time>
      </trkpt>
      <trkpt lat="41.806083" lon="-2.39824">
        <ele>1018.4</ele>
        <time>2023-02-11T09:07:19.000Z</time>
      </trkpt>
      <trkpt lat="41.806099" lon="-2.398144">
        <ele>1018.4</ele>
        <time>2023-02-11T09:07:20.000Z</time>
      </trkpt>
      <trkpt lat="41.806115" lon="-2.398046">
        <ele>1018.6</ele>
        <time>2023-02-11T09:07:21.000Z</time>
      </trkpt>
      <trkpt lat="41.806132" lon="-2.39795">
        <ele>1018.6</ele>
        <time>2023-02-11T09:07:22.000Z</time>
      </trkpt>
      <trkpt lat="41.806151" lon="-2.397853">
        <ele>1018.6</ele>
        <time>2023-02-11T09:07:23.000Z</time>
      </trkpt>
      <trkpt lat="41.806172" lon="-2.397754">
        <ele>1018.6</ele>
        <time>2023-02-11T09:07:24.000Z</time>
      </trkpt>
      <trkpt lat="41.806195" lon="-2.397658">
        <ele>1018.6</ele>
        <time>2023-02-11T09:07:25.000Z</time>
      </trkpt>
      <trkpt lat="41.806217" lon="-2.39756">
        <ele>1018.8</ele>
        <time>2023-02-11T09:07:26.000Z</time>
      </trkpt>
      <trkpt lat="41.806239" lon="-2.397462">
        <ele>1018.8</ele>
        <time>2023-02-11T09:07:27.000Z</time>
      </trkpt>
      <trkpt lat="41.806263" lon="-2.39736">
        <ele>1018.8</ele>
        <time>2023-02-11T09:07:28.000Z</time>
      </trkpt>
      <trkpt lat="41.806285" lon="-2.397259">
        <ele>1018.8</ele>
        <time>2023-02-11T09:07:29.000Z</time>
      </trkpt>
      <trkpt lat="41.806309" lon="-2.397157">
        <ele>1018.8</ele>
        <time>2023-02-11T09:07:30.000Z</time>
      </trkpt>
      <trkpt lat="41.806331" lon="-2.397054">
        <ele>1018.8</ele>
        <time>2023-02-11T09:07:31.000Z</time>
      </trkpt>
      <trkpt lat="41.806356" lon="-2.396953">
        <ele>1018.8</ele>
        <time>2023-02-11T09:07:32.000Z</time>
      </trkpt>
      <trkpt lat="41.80638" lon="-2.396852">
        <ele>1018.8</ele>
        <time>2023-02-11T09:07:33.000Z</time>
      </trkpt>
      <trkpt lat="41.806402" lon="-2.396753">
        <ele>1018.8</ele>
        <time>2023-02-11T09:07:34.000Z</time>
      </trkpt>
      <trkpt lat="41.806426" lon="-2.396655">
        <ele>1018.6</ele>
        <time>2023-02-11T09:07:35.000Z</time>
      </trkpt>
      <trkpt lat="41.806449" lon="-2.396561">
        <ele>1018.6</ele>
        <time>2023-02-11T09:07:36.000Z</time>
      </trkpt>
      <trkpt lat="41.806473" lon="-2.396467">
        <ele>1018.6</ele>
        <time>2023-02-11T09:07:37.000Z</time>
      </trkpt>
      <trkpt lat="41.806497" lon="-2.396374">
        <ele>1018.6</ele>
        <time>2023-02-11T09:07:38.000Z</time>
      </trkpt>
      <trkpt lat="41.806519" lon="-2.396283">
        <ele>1018.6</ele>
        <time>2023-02-11T09:07:39.000Z</time>
      </trkpt>
      <trkpt lat="41.80654" lon="-2.396192">
        <ele>1018.6</ele>
        <time>2023-02-11T09:07:40.000Z</time>
      </trkpt>
      <trkpt lat="41.806561" lon="-2.396102">
        <ele>1018.4</ele>
        <time>2023-02-11T09:07:41.000Z</time>
      </trkpt>
      <trkpt lat="41.806582" lon="-2.396012">
        <ele>1018.4</ele>
        <time>2023-02-11T09:07:42.000Z</time>
      </trkpt>
      <trkpt lat="41.806604" lon="-2.39592">
        <ele>1018.4</ele>
        <time>2023-02-11T09:07:43.000Z</time>
      </trkpt>
      <trkpt lat="41.806626" lon="-2.395828">
        <ele>1018.4</ele>
        <time>2023-02-11T09:07:44.000Z</time>
      </trkpt>
      <trkpt lat="41.806648" lon="-2.395735">
        <ele>1018.2</ele>
        <time>2023-02-11T09:07:45.000Z</time>
      </trkpt>
      <trkpt lat="41.806671" lon="-2.395643">
        <ele>1018.2</ele>
        <time>2023-02-11T09:07:46.000Z</time>
      </trkpt>
      <trkpt lat="41.808265" lon="-2.387095">
        <ele>1024.2</ele>
        <time>2023-02-11T09:09:00.000Z</time>
      </trkpt>
      <trkpt lat="41.808302" lon="-2.387015">
        <ele>1026.6</ele>
        <time>2023-02-11T09:09:01.000Z</time>
      </trkpt>
      <trkpt lat="41.808341" lon="-2.386932">
        <ele>1028.2</ele>
        <time>2023-02-11T09:09:02.000Z</time>
      </trkpt>
      <trkpt lat="41.808386" lon="-2.386846">
        <ele>1028.6</ele>
        <time>2023-02-11T09:09:03.000Z</time>
      </trkpt>
      <trkpt lat="41.808433" lon="-2.38676">
        <ele>1029.4</ele>
        <time>2023-02-11T09:09:04.000Z</time>
      </trkpt>
      <trkpt lat="41.808481" lon="-2.386673">
        <ele>1029.4</ele>
        <time>2023-02-11T09:09:05.000Z</time>
      </trkpt>
      <trkpt lat="41.808531" lon="-2.386586">
        <ele>1029</ele>
        <time>2023-02-11T09:09:06.000Z</time>
      </trkpt>
      <trkpt lat="41.808583" lon="-2.3865">
        <ele>1028.6</ele>
        <time>2023-02-11T09:09:07.000Z</time>
      </trkpt>
      <trkpt lat="41.80864" lon="-2.386411">
        <ele>1028.6</ele>
        <time>2023-02-11T09:09:08.000Z</time>
      </trkpt>
      <trkpt lat="41.808698" lon="-2.386322">
        <ele>1028.4</ele>
        <time>2023-02-11T09:09:09.000Z</time>
      </trkpt>
      <trkpt lat="41.808758" lon="-2.386234">
        <ele>1028.8</ele>
        <time>2023-02-11T09:09:10.000Z</time>
      </trkpt>
      <trkpt lat="41.808818" lon="-2.386146">
        <ele>1028.8</ele>
        <time>2023-02-11T09:09:11.000Z</time>
      </trkpt>
      <trkpt lat="41.808877" lon="-2.386059">
        <ele>1028.8</ele>
        <time>2023-02-11T09:09:12.000Z</time>
      </trkpt>
      <trkpt lat="41.808936" lon="-2.385969">
        <ele>1029</ele>
        <time>2023-02-11T09:09:13.000Z</time>
      </trkpt>
      <trkpt lat="41.808997" lon="-2.385879">
        <ele>1028.6</ele>
        <time>2023-02-11T09:09:14.000Z</time>
      </trkpt>
      <trkpt lat="41.809058" lon="-2.38579">
        <ele>1028.6</ele>
        <time>2023-02-11T09:09:15.000Z</time>
      </trkpt>
      <trkpt lat="41.80912" lon="-2.385702">
        <ele>1028.6</ele>
        <time>2023-02-11T09:09:16.000Z</time>
      </trkpt>
      <trkpt lat="41.809181" lon="-2.385615">
        <ele>1028.6</ele>
        <time>2023-02-11T09:09:17.000Z</time>
      </trkpt>
      <trkpt lat="41.809246" lon="-2.38553">
        <ele>1028.6</ele>
        <time>2023-02-11T09:09:18.000Z</time>
      </trkpt>
      <trkpt lat="41.80931" lon="-2.385448">
        <ele>1028.6</ele>
        <time>2023-02-11T09:09:19.000Z</time>
      </trkpt>
      <trkpt lat="41.809373" lon="-2.385365">
        <ele>1028.6</ele>
        <time>2023-02-11T09:09:20.000Z</time>
      </trkpt>
      <trkpt lat="41.80944" lon="-2.385287">
        <ele>1028.6</ele>
        <time>2023-02-11T09:09:21.000Z</time>
      </trkpt>
      <trkpt lat="41.809511" lon="-2.385212">
        <ele>1028.6</ele>
        <time>2023-02-11T09:09:22.000Z</time>
      </trkpt>
      <trkpt lat="41.809582" lon="-2.385136">
        <ele>1028.6</ele>
        <time>2023-02-11T09:09:23.000Z</time>
      </trkpt>
      <trkpt lat="41.809651" lon="-2.385058">
        <ele>1028.6</ele>
        <time>2023-02-11T09:09:24.000Z</time>
      </trkpt>
      <trkpt lat="41.809721" lon="-2.384983">
        <ele>1028.6</ele>
        <time>2023-02-11T09:09:25.000Z</time>
      </trkpt>
      <trkpt lat="41.809794" lon="-2.384909">
        <ele>1028.6</ele>
        <time>2023-02-11T09:09:26.000Z</time>
      </trkpt>
      <trkpt lat="41.809865" lon="-2.384837">
        <ele>1028.8</ele>
        <time>2023-02-11T09:09:27.000Z</time>
      </trkpt>
      <trkpt lat="41.809936" lon="-2.384764">
        <ele>1028.8</ele>
        <time>2023-02-11T09:09:28.000Z</time>
      </trkpt>
      <trkpt lat="41.810007" lon="-2.38469">
        <ele>1028.8</ele>
        <time>2023-02-11T09:09:29.000Z</time>
      </trkpt>
      <trkpt lat="41.810078" lon="-2.384616">
        <ele>1029</ele>
        <time>2023-02-11T09:09:30.000Z</time>
      </trkpt>
      <trkpt lat="41.810149" lon="-2.384542">
        <ele>1029</ele>
        <time>2023-02-11T09:09:31.000Z</time>
      </trkpt>
      <trkpt lat="41.810219" lon="-2.384467">
        <ele>1029</ele>
        <time>2023-02-11T09:09:32.000Z</time>
      </trkpt>
      <trkpt lat="41.810289" lon="-2.384391">
        <ele>1029</ele>
        <time>2023-02-11T09:09:33.000Z</time>
      </trkpt>
      <trkpt lat="41.810361" lon="-2.384316">
        <ele>1029.2</ele>
        <time>2023-02-11T09:09:34.000Z</time>
      </trkpt>
      <trkpt lat="41.810434" lon="-2.384243">
        <ele>1029.2</ele>
        <time>2023-02-11T09:09:35.000Z</time>
      </trkpt>
      <trkpt lat="41.810507" lon="-2.384171">
        <ele>1029.2</ele>
        <time>2023-02-11T09:09:36.000Z</time>
      </trkpt>
      <trkpt lat="41.810582" lon="-2.384103">
        <ele>1029.2</ele>
        <time>2023-02-11T09:09:37.000Z</time>
      </trkpt>
      <trkpt lat="41.810657" lon="-2.384037">
        <ele>1029.2</ele>
        <time>2023-02-11T09:09:38.000Z</time>
      </trkpt>
      <trkpt lat="41.810734" lon="-2.383974">
        <ele>1029.4</ele>
        <time>2023-02-11T09:09:39.000Z</time>
      </trkpt>
      <trkpt lat="41.810812" lon="-2.383912">
        <ele>1029.4</ele>
        <time>2023-02-11T09:09:40.000Z</time>
      </trkpt>
      <trkpt lat="41.810891" lon="-2.383853">
        <ele>1029.2</ele>
        <time>2023-02-11T09:09:41.000Z</time>
      </trkpt>
      <trkpt lat="41.810972" lon="-2.383796">
        <ele>1029.2</ele>
        <time>2023-02-11T09:09:42.000Z</time>
      </trkpt>
      <trkpt lat="41.811052" lon="-2.383739">
        <ele>1029.2</ele>
        <time>2023-02-11T09:09:43.000Z</time>
      </trkpt>
      <trkpt lat="41.81113" lon="-2.383681">
        <ele>1029.2</ele>
        <time>2023-02-11T09:09:44.000Z</time>
      </trkpt>
      <trkpt lat="41.81121" lon="-2.383624">
        <ele>1029.4</ele>
        <time>2023-02-11T09:09:45.000Z</time>
      </trkpt>
      <trkpt lat="41.81129" lon="-2.383566">
        <ele>1029.4</ele>
        <time>2023-02-11T09:09:46.000Z</time>
      </trkpt>
      <trkpt lat="41.811369" lon="-2.383506">
        <ele>1029.4</ele>
        <time>2023-02-11T09:09:47.000Z</time>
      </trkpt>
      <trkpt lat="41.811446" lon="-2.383444">
        <ele>1029.4</ele>
        <time>2023-02-11T09:09:48.000Z</time>
      </trkpt>
      <trkpt lat="41.811521" lon="-2.383378">
        <ele>1029.6</ele>
        <time>2023-02-11T09:09:49.000Z</time>
      </trkpt>
      <trkpt lat="41.811594" lon="-2.383307">
        <ele>1029.6</ele>
        <time>2023-02-11T09:09:50.000Z</time>
      </trkpt>
      <trkpt lat="41.811662" lon="-2.383229">
        <ele>1029.6</ele>
        <time>2023-02-11T09:09:51.000Z</time>
      </trkpt>
      <trkpt lat="41.811727" lon="-2.383147">
        <ele>1029.6</ele>
        <time>2023-02-11T09:09:52.000Z</time>
      </trkpt>
      <trkpt lat="41.811788" lon="-2.383062">
        <ele>1029.6</ele>
        <time>2023-02-11T09:09:53.000Z</time>
      </trkpt>
      <trkpt lat="41.811847" lon="-2.382974">
        <ele>1029.8</ele>
        <time>2023-02-11T09:09:54.000Z</time>
      </trkpt>
      <trkpt lat="41.811902" lon="-2.382883">
        <ele>1029.8</ele>
        <time>2023-02-11T09:09:55.000Z</time>
      </trkpt>
      <trkpt lat="41.811954" lon="-2.38279">
        <ele>1029.8</ele>
        <time>2023-02-11T09:09:56.000Z</time>
      </trkpt>
      <trkpt lat="41.812006" lon="-2.382696">
        <ele>1029.8</ele>
        <time>2023-02-11T09:09:57.000Z</time>
      </trkpt>
      <trkpt lat="41.81206" lon="-2.3826">
        <ele>1029.8</ele>
        <time>2023-02-11T09:09:58.000Z</time>
      </trkpt>
      <trkpt lat="41.812114" lon="-2.382505">
        <ele>1029.8</ele>
        <time>2023-02-11T09:09:59.000Z</time>
      </trkpt>
      <trkpt lat="41.812172" lon="-2.382411">
        <ele>1030</ele>
        <time>2023-02-11T09:10:00.000Z</time>
      </trkpt>
      <trkpt lat="41.81223" lon="-2.382317">
        <ele>1030</ele>
        <time>2023-02-11T09:10:01.000Z</time>
      </trkpt>
      <trkpt lat="41.812286" lon="-2.38222">
        <ele>1030</ele>
        <time>2023-02-11T09:10:02.000Z</time>
      </trkpt>
      <trkpt lat="41.812339" lon="-2.382119">
        <ele>1030</ele>
        <time>2023-02-11T09:10:03.000Z</time>
      </trkpt>
      <trkpt lat="41.812393" lon="-2.382015">
        <ele>1030</ele>
        <time>2023-02-11T09:10:04.000Z</time>
      </trkpt>
      <trkpt lat="41.812447" lon="-2.381912">
        <ele>1030.2</ele>
        <time>2023-02-11T09:10:05.000Z</time>
      </trkpt>
      <trkpt lat="41.812503" lon="-2.38181">
        <ele>1030.4</ele>
        <time>2023-02-11T09:10:06.000Z</time>
      </trkpt>
      <trkpt lat="41.812559" lon="-2.381708">
        <ele>1030.4</ele>
        <time>2023-02-11T09:10:07.000Z</time>
      </trkpt>
      <trkpt lat="41.812619" lon="-2.381606">
        <ele>1030.4</ele>
        <time>2023-02-11T09:10:08.000Z</time>
      </trkpt>
      <trkpt lat="41.81268" lon="-2.381506">
        <ele>1030.4</ele>
        <time>2023-02-11T09:10:09.000Z</time>
      </trkpt>
      <trkpt lat="41.812747" lon="-2.381407">
        <ele>1030.6</ele>
        <time>2023-02-11T09:10:10.000Z</time>
      </trkpt>
      <trkpt lat="41.812816" lon="-2.381312">
        <ele>1030.6</ele>
        <time>2023-02-11T09:10:11.000Z</time>
      </trkpt>
      <trkpt lat="41.812886" lon="-2.381219">
        <ele>1030.6</ele>
        <time>2023-02-11T09:10:12.000Z</time>
      </trkpt>
      <trkpt lat="41.812959" lon="-2.38113">
        <ele>1030.6</ele>
        <time>2023-02-11T09:10:13.000Z</time>
      </trkpt>
      <trkpt lat="41.813034" lon="-2.38104">
        <ele>1030.6</ele>
        <time>2023-02-11T09:10:14.000Z</time>
      </trkpt>
      <trkpt lat="41.81311" lon="-2.380951">
        <ele>1030.6</ele>
        <time>2023-02-11T09:10:15.000Z</time>
      </trkpt>
      <trkpt lat="41.813188" lon="-2.380867">
        <ele>1030.6</ele>
        <time>2023-02-11T09:10:16.000Z</time>
      </trkpt>
      <trkpt lat="41.813271" lon="-2.380789">
        <ele>1030.6</ele>
        <time>2023-02-11T09:10:17.000Z</time>
      </trkpt>
      <trkpt lat="41.813356" lon="-2.380716">
        <ele>1030.6</ele>
        <time>2023-02-11T09:10:18.000Z</time>
      </trkpt>
      <trkpt lat="41.813443" lon="-2.380646">
        <ele>1030.6</ele>
        <time>2023-02-11T09:10:19.000Z</time>
      </trkpt>
      <trkpt lat="41.81353" lon="-2.380578">
        <ele>1030.6</ele>
        <time>2023-02-11T09:10:20.000Z</time>
      </trkpt>
      <trkpt lat="41.81362" lon="-2.380515">
        <ele>1030.6</ele>
        <time>2023-02-11T09:10:21.000Z</time>
      </trkpt>
      <trkpt lat="41.81371" lon="-2.380452">
        <ele>1030.6</ele>
        <time>2023-02-11T09:10:22.000Z</time>
      </trkpt>
      <trkpt lat="41.813799" lon="-2.380386">
        <ele>1030.6</ele>
        <time>2023-02-11T09:10:23.000Z</time>
      </trkpt>
      <trkpt lat="41.813886" lon="-2.38032">
        <ele>1030.6</ele>
        <time>2023-02-11T09:10:24.000Z</time>
      </trkpt>
      <trkpt lat="41.813973" lon="-2.38025">
        <ele>1030.8</ele>
        <time>2023-02-11T09:10:25.000Z</time>
      </trkpt>
      <trkpt lat="41.814057" lon="-2.380171">
        <ele>1030.8</ele>
        <time>2023-02-11T09:10:26.000Z</time>
      </trkpt>
      <trkpt lat="41.814135" lon="-2.380085">
        <ele>1030.8</ele>
        <time>2023-02-11T09:10:27.000Z</time>
      </trkpt>
      <trkpt lat="41.81421" lon="-2.379996">
        <ele>1030.6</ele>
        <time>2023-02-11T09:10:28.000Z</time>
      </trkpt>
      <trkpt lat="41.814282" lon="-2.379905">
        <ele>1030.6</ele>
        <time>2023-02-11T09:10:29.000Z</time>
      </trkpt>
      <trkpt lat="41.81435" lon="-2.37981">
        <ele>1030.8</ele>
        <time>2023-02-11T09:10:30.000Z</time>
      </trkpt>
      <trkpt lat="41.814415" lon="-2.379711">
        <ele>1030.8</ele>
        <time>2023-02-11T09:10:31.000Z</time>
      </trkpt>
      <trkpt lat="41.814476" lon="-2.37961">
        <ele>1030.8</ele>
        <time>2023-02-11T09:10:32.000Z</time>
      </trkpt>
      <trkpt lat="41.814537" lon="-2.379514">
        <ele>1030.8</ele>
        <time>2023-02-11T09:10:33.000Z</time>
      </trkpt>
      <trkpt lat="41.814603" lon="-2.379421">
        <ele>1030.8</ele>
        <time>2023-02-11T09:10:34.000Z</time>
      </trkpt>
      <trkpt lat="41.814666" lon="-2.379333">
        <ele>1031</ele>
        <time>2023-02-11T09:10:35.000Z</time>
      </trkpt>
      <trkpt lat="41.814735" lon="-2.379249">
        <ele>1031</ele>
        <time>2023-02-11T09:10:36.000Z</time>
      </trkpt>
      <trkpt lat="41.814803" lon="-2.379167">
        <ele>1031</ele>
        <time>2023-02-11T09:10:37.000Z</time>
      </trkpt>
      <trkpt lat="41.814873" lon="-2.379086">
        <ele>1031</ele>
        <time>2023-02-11T09:10:38.000Z</time>
      </trkpt>
      <trkpt lat="41.814941" lon="-2.379005">
        <ele>1031</ele>
        <time>2023-02-11T09:10:39.000Z</time>
      </trkpt>
      <trkpt lat="41.815008" lon="-2.378925">
        <ele>1031.2</ele>
        <time>2023-02-11T09:10:40.000Z</time>
      </trkpt>
      <trkpt lat="41.815073" lon="-2.378848">
        <ele>1031.2</ele>
        <time>2023-02-11T09:10:41.000Z</time>
      </trkpt>
      <trkpt lat="41.815136" lon="-2.378773">
        <ele>1031.2</ele>
        <time>2023-02-11T09:10:42.000Z</time>
      </trkpt>
      <trkpt lat="41.815199" lon="-2.378701">
        <ele>1031.2</ele>
        <time>2023-02-11T09:10:43.000Z</time>
      </trkpt>
      <trkpt lat="41.81526" lon="-2.37863">
        <ele>1031.2</ele>
        <time>2023-02-11T09:10:44.000Z</time>
      </trkpt>
      <trkpt lat="41.815322" lon="-2.378556">
        <ele>1031.4</ele>
        <time>2023-02-11T09:10:45.000Z</time>
      </trkpt>
      <trkpt lat="41.815384" lon="-2.378483">
        <ele>1031.4</ele>
        <time>2023-02-11T09:10:46.000Z</time>
      </trkpt>
      <trkpt lat="41.815447" lon="-2.37841">
        <ele>1031.4</ele>
        <time>2023-02-11T09:10:47.000Z</time>
      </trkpt>
      <trkpt lat="41.81551" lon="-2.378337">
        <ele>1031.4</ele>
        <time>2023-02-11T09:10:48.000Z</time>
      </trkpt>
      <trkpt lat="41.815575" lon="-2.378265">
        <ele>1031.6</ele>
        <time>2023-02-11T09:10:49.000Z</time>
      </trkpt>
      <trkpt lat="41.815641" lon="-2.378193">
        <ele>1031.6</ele>
        <time>2023-02-11T09:10:50.000Z</time>
      </trkpt>
      <trkpt lat="41.815709" lon="-2.378124">
        <ele>1031.6</ele>
        <time>2023-02-11T09:10:51.000Z</time>
      </trkpt>
      <trkpt lat="41.815779" lon="-2.37806">
        <ele>1031.6</ele>
        <time>2023-02-11T09:10:52.000Z</time>
      </trkpt>
      <trkpt lat="41.815852" lon="-2.377994">
        <ele>1031.8</ele>
        <time>2023-02-11T09:10:53.000Z</time>
      </trkpt>
      <trkpt lat="41.815926" lon="-2.377925">
        <ele>1031.8</ele>
        <time>2023-02-11T09:10:54.000Z</time>
      </trkpt>
      <trkpt lat="41.815999" lon="-2.377854">
        <ele>1031.8</ele>
        <time>2023-02-11T09:10:55.000Z</time>
      </trkpt>
      <trkpt lat="41.816072" lon="-2.377783">
        <ele>1031.8</ele>
        <time>2023-02-11T09:10:56.000Z</time>
      </trkpt>
      <trkpt lat="41.816146" lon="-2.377714">
        <ele>1031.8</ele>
        <time>2023-02-11T09:10:57.000Z</time>
      </trkpt>
      <trkpt lat="41.81622" lon="-2.377647">
        <ele>1031.8</ele>
        <time>2023-02-11T09:10:58.000Z</time>
      </trkpt>
      <trkpt lat="41.816294" lon="-2.377582">
        <ele>1031.8</ele>
        <time>2023-02-11T09:10:59.000Z</time>
      </trkpt>
      <trkpt lat="41.816367" lon="-2.377518">
        <ele>1031.8</ele>
        <time>2023-02-11T09:11:00.000Z</time>
      </trkpt>
      <trkpt lat="41.816437" lon="-2.377454">
        <ele>1031.8</ele>
        <time>2023-02-11T09:11:01.000Z</time>
      </trkpt>
      <trkpt lat="41.816505" lon="-2.377389">
        <ele>1031.8</ele>
        <time>2023-02-11T09:11:02.000Z</time>
      </trkpt>
      <trkpt lat="41.816571" lon="-2.377322">
        <ele>1032</ele>
        <time>2023-02-11T09:11:03.000Z</time>
      </trkpt>
      <trkpt lat="41.816637" lon="-2.377255">
        <ele>1032</ele>
        <time>2023-02-11T09:11:04.000Z</time>
      </trkpt>
      <trkpt lat="41.816704" lon="-2.377187">
        <ele>1032</ele>
        <time>2023-02-11T09:11:05.000Z</time>
      </trkpt>
      <trkpt lat="41.816774" lon="-2.37712">
        <ele>1032</ele>
        <time>2023-02-11T09:11:06.000Z</time>
      </trkpt>
      <trkpt lat="41.816842" lon="-2.377053">
        <ele>1032</ele>
        <time>2023-02-11T09:11:07.000Z</time>
      </trkpt>
      <trkpt lat="41.816912" lon="-2.376986">
        <ele>1032.2</ele>
        <time>2023-02-11T09:11:08.000Z</time>
      </trkpt>
      <trkpt lat="41.816979" lon="-2.376921">
        <ele>1032.2</ele>
        <time>2023-02-11T09:11:09.000Z</time>
      </trkpt>
      <trkpt lat="41.817048" lon="-2.376856">
        <ele>1032.2</ele>
        <time>2023-02-11T09:11:10.000Z</time>
      </trkpt>
      <trkpt lat="41.817117" lon="-2.376791">
        <ele>1032.4</ele>
        <time>2023-02-11T09:11:11.000Z</time>
      </trkpt>
      <trkpt lat="41.817185" lon="-2.376726">
        <ele>1032.4</ele>
        <time>2023-02-11T09:11:12.000Z</time>
      </trkpt>
      <trkpt lat="41.817253" lon="-2.37666">
        <ele>1032.4</ele>
        <time>2023-02-11T09:11:13.000Z</time>
      </trkpt>
      <trkpt lat="41.817317" lon="-2.376594">
        <ele>1032.4</ele>
        <time>2023-02-11T09:11:14.000Z</time>
      </trkpt>
      <trkpt lat="41.817381" lon="-2.376527">
        <ele>1032.6</ele>
        <time>2023-02-11T09:11:15.000Z</time>
      </trkpt>
      <trkpt lat="41.817442" lon="-2.376461">
        <ele>1032.6</ele>
        <time>2023-02-11T09:11:16.000Z</time>
      </trkpt>
      <trkpt lat="41.817501" lon="-2.376394">
        <ele>1032.6</ele>
        <time>2023-02-11T09:11:17.000Z</time>
      </trkpt>
      <trkpt lat="41.817561" lon="-2.376326">
        <ele>1032.8</ele>
        <time>2023-02-11T09:11:18.000Z</time>
      </trkpt>
      <trkpt lat="41.817622" lon="-2.376257">
        <ele>1032.8</ele>
        <time>2023-02-11T09:11:19.000Z</time>
      </trkpt>
      <trkpt lat="41.817683" lon="-2.376186">
        <ele>1033</ele>
        <time>2023-02-11T09:11:20.000Z</time>
      </trkpt>
      <trkpt lat="41.817746" lon="-2.376118">
        <ele>1033.2</ele>
        <time>2023-02-11T09:11:21.000Z</time>
      </trkpt>
      <trkpt lat="41.81781" lon="-2.376046">
        <ele>1033.4</ele>
        <time>2023-02-11T09:11:22.000Z</time>
      </trkpt>
      <trkpt lat="41.817874" lon="-2.375974">
        <ele>1033.4</ele>
        <time>2023-02-11T09:11:23.000Z</time>
      </trkpt>
      <trkpt lat="41.817938" lon="-2.375905">
        <ele>1033.6</ele>
        <time>2023-02-11T09:11:24.000Z</time>
      </trkpt>
      <trkpt lat="41.818002" lon="-2.375831">
        <ele>1033.6</ele>
        <time>2023-02-11T09:11:25.000Z</time>
      </trkpt>
      <trkpt lat="41.818067" lon="-2.375757">
        <ele>1033.6</ele>
        <time>2023-02-11T09:11:26.000Z</time>
      </trkpt>
      <trkpt lat="41.818133" lon="-2.375683">
        <ele>1033.8</ele>
        <time>2023-02-11T09:11:27.000Z</time>
      </trkpt>
      <trkpt lat="41.818198" lon="-2.375609">
        <ele>1033.8</ele>
        <time>2023-02-11T09:11:28.000Z</time>
      </trkpt>
      <trkpt lat="41.818261" lon="-2.375536">
        <ele>1033.8</ele>
        <time>2023-02-11T09:11:29.000Z</time>
      </trkpt>
      <trkpt lat="41.818326" lon="-2.375463">
        <ele>1033.8</ele>
        <time>2023-02-11T09:11:30.000Z</time>
      </trkpt>
      <trkpt lat="41.818388" lon="-2.375388">
        <ele>1033.8</ele>
        <time>2023-02-11T09:11:31.000Z</time>
      </trkpt>
      <trkpt lat="41.818453" lon="-2.375313">
        <ele>1033.8</ele>
        <time>2023-02-11T09:11:32.000Z</time>
      </trkpt>
      <trkpt lat="41.81852" lon="-2.375238">
        <ele>1033.8</ele>
        <time>2023-02-11T09:11:33.000Z</time>
      </trkpt>
      <trkpt lat="41.818588" lon="-2.375164">
        <ele>1033.6</ele>
        <time>2023-02-11T09:11:34.000Z</time>
      </trkpt>
      <trkpt lat="41.818657" lon="-2.375092">
        <ele>1033.6</ele>
        <time>2023-02-11T09:11:35.000Z</time>
      </trkpt>
      <trkpt lat="41.818728" lon="-2.375022">
        <ele>1033.6</ele>
        <time>2023-02-11T09:11:36.000Z</time>
      </trkpt>
      <trkpt lat="41.818801" lon="-2.374955">
        <ele>1033.6</ele>
        <time>2023-02-11T09:11:37.000Z</time>
      </trkpt>
      <trkpt lat="41.818878" lon="-2.374893">
        <ele>1033.4</ele>
        <time>2023-02-11T09:11:38.000Z</time>
      </trkpt>
      <trkpt lat="41.818955" lon="-2.374835">
        <ele>1033.4</ele>
        <time>2023-02-11T09:11:39.000Z</time>
      </trkpt>
      <trkpt lat="41.819034" lon="-2.37478">
        <ele>1033.4</ele>
        <time>2023-02-11T09:11:40.000Z</time>
      </trkpt>
      <trkpt lat="41.819115" lon="-2.374727">
        <ele>1033.4</ele>
        <time>2023-02-11T09:11:41.000Z</time>
      </trkpt>
      <trkpt lat="41.819196" lon="-2.374674">
        <ele>1033.4</ele>
        <time>2023-02-11T09:11:42.000Z</time>
      </trkpt>
      <trkpt lat="41.819275" lon="-2.374625">
        <ele>1033.4</ele>
        <time>2023-02-11T09:11:43.000Z</time>
      </trkpt>
      <trkpt lat="41.819355" lon="-2.374577">
        <ele>1033.4</ele>
        <time>2023-02-11T09:11:44.000Z</time>
      </trkpt>
      <trkpt lat="41.819437" lon="-2.374527">
        <ele>1033.4</ele>
        <time>2023-02-11T09:11:45.000Z</time>
      </trkpt>
      <trkpt lat="41.819515" lon="-2.374479">
        <ele>1033.4</ele>
        <time>2023-02-11T09:11:46.000Z</time>
      </trkpt>
      <trkpt lat="41.819594" lon="-2.374433">
        <ele>1033.2</ele>
        <time>2023-02-11T09:11:47.000Z</time>
      </trkpt>
      <trkpt lat="41.819671" lon="-2.374389">
        <ele>1033.2</ele>
        <time>2023-02-11T09:11:48.000Z</time>
      </trkpt>
      <trkpt lat="41.819746" lon="-2.374346">
        <ele>1033.2</ele>
        <time>2023-02-11T09:11:49.000Z</time>
      </trkpt>
      <trkpt lat="41.819821" lon="-2.374301">
        <ele>1033.2</ele>
        <time>2023-02-11T09:11:50.000Z</time>
      </trkpt>
      <trkpt lat="41.819897" lon="-2.374255">
        <ele>1033.2</ele>
        <time>2023-02-11T09:11:51.000Z</time>
      </trkpt>
      <trkpt lat="41.819972" lon="-2.374208">
        <ele>1033.2</ele>
        <time>2023-02-11T09:11:52.000Z</time>
      </trkpt>
      <trkpt lat="41.820042" lon="-2.374164">
        <ele>1033.2</ele>
        <time>2023-02-11T09:11:53.000Z</time>
      </trkpt>
      <trkpt lat="41.820112" lon="-2.37412">
        <ele>1033.2</ele>
        <time>2023-02-11T09:11:54.000Z</time>
      </trkpt>
      <trkpt lat="41.820181" lon="-2.374068">
        <ele>1033.2</ele>
        <time>2023-02-11T09:11:55.000Z</time>
      </trkpt>
      <trkpt lat="41.820238" lon="-2.374011">
        <ele>1033.2</ele>
        <time>2023-02-11T09:11:56.000Z</time>
      </trkpt>
      <trkpt lat="41.820292" lon="-2.373951">
        <ele>1033.4</ele>
        <time>2023-02-11T09:11:57.000Z</time>
      </trkpt>
      <trkpt lat="41.820348" lon="-2.373887">
        <ele>1033.6</ele>
        <time>2023-02-11T09:11:58.000Z</time>
      </trkpt>
      <trkpt lat="41.820408" lon="-2.373822">
        <ele>1033.8</ele>
        <time>2023-02-11T09:11:59.000Z</time>
      </trkpt>
      <trkpt lat="41.820466" lon="-2.37376">
        <ele>1034.2</ele>
        <time>2023-02-11T09:12:00.000Z</time>
      </trkpt>
      <trkpt lat="41.820522" lon="-2.373696">
        <ele>1034.4</ele>
        <time>2023-02-11T09:12:01.000Z</time>
      </trkpt>
      <trkpt lat="41.820577" lon="-2.373632">
        <ele>1034.6</ele>
        <time>2023-02-11T09:12:02.000Z</time>
      </trkpt>
      <trkpt lat="41.820626" lon="-2.373566">
        <ele>1035</ele>
        <time>2023-02-11T09:12:03.000Z</time>
      </trkpt>
      <trkpt lat="41.820677" lon="-2.373504">
        <ele>1035.4</ele>
        <time>2023-02-11T09:12:04.000Z</time>
      </trkpt>
      <trkpt lat="41.820728" lon="-2.373444">
        <ele>1036</ele>
        <time>2023-02-11T09:12:05.000Z</time>
      </trkpt>
      <trkpt lat="41.82078" lon="-2.373381">
        <ele>1036.2</ele>
        <time>2023-02-11T09:12:06.000Z</time>
      </trkpt>
      <trkpt lat="41.82083" lon="-2.373309">
        <ele>1036.8</ele>
        <time>2023-02-11T09:12:07.000Z</time>
      </trkpt>
      <trkpt lat="41.82088" lon="-2.373232">
        <ele>1037</ele>
        <time>2023-02-11T09:12:08.000Z</time>
      </trkpt>
      <trkpt lat="41.82093" lon="-2.373151">
        <ele>1037.6</ele>
        <time>2023-02-11T09:12:09.000Z</time>
      </trkpt>
      <trkpt lat="41.820979" lon="-2.373062">
        <ele>1037.8</ele>
        <time>2023-02-11T09:12:10.000Z</time>
      </trkpt>
      <trkpt lat="41.821029" lon="-2.372963">
        <ele>1038</ele>
        <time>2023-02-11T09:12:11.000Z</time>
      </trkpt>
      <trkpt lat="41.821077" lon="-2.372863">
        <ele>1038.2</ele>
        <time>2023-02-11T09:12:12.000Z</time>
      </trkpt>
      <trkpt lat="41.821128" lon="-2.372758">
        <ele>1038.2</ele>
        <time>2023-02-11T09:12:13.000Z</time>
      </trkpt>
      <trkpt lat="41.821177" lon="-2.372649">
        <ele>1038.2</ele>
        <time>2023-02-11T09:12:14.000Z</time>
      </trkpt>
      <trkpt lat="41.821225" lon="-2.372538">
        <ele>1038.2</ele>
        <time>2023-02-11T09:12:15.000Z</time>
      </trkpt>
      <trkpt lat="41.821274" lon="-2.372425">
        <ele>1038.4</ele>
        <time>2023-02-11T09:12:16.000Z</time>
      </trkpt>
      <trkpt lat="41.821324" lon="-2.372313">
        <ele>1038.4</ele>
        <time>2023-02-11T09:12:17.000Z</time>
      </trkpt>
      <trkpt lat="41.82137" lon="-2.372198">
        <ele>1038.2</ele>
        <time>2023-02-11T09:12:18.000Z</time>
      </trkpt>
      <trkpt lat="41.821416" lon="-2.37208">
        <ele>1038.2</ele>
        <time>2023-02-11T09:12:19.000Z</time>
      </trkpt>
      <trkpt lat="41.821456" lon="-2.371962">
        <ele>1038</ele>
        <time>2023-02-11T09:12:20.000Z</time>
      </trkpt>
      <trkpt lat="41.821488" lon="-2.37184">
        <ele>1037.8</ele>
        <time>2023-02-11T09:12:21.000Z</time>
      </trkpt>
      <trkpt lat="41.821512" lon="-2.37172">
        <ele>1037.8</ele>
        <time>2023-02-11T09:12:22.000Z</time>
      </trkpt>
      <trkpt lat="41.821535" lon="-2.371602">
        <ele>1037.8</ele>
        <time>2023-02-11T09:12:23.000Z</time>
      </trkpt>
      <trkpt lat="41.821559" lon="-2.371485">
        <ele>1037.6</ele>
        <time>2023-02-11T09:12:24.000Z</time>
      </trkpt>
      <trkpt lat="41.82159" lon="-2.371368">
        <ele>1037.6</ele>
        <time>2023-02-11T09:12:25.000Z</time>
      </trkpt>
      <trkpt lat="41.821626" lon="-2.371254">
        <ele>1037.6</ele>
        <time>2023-02-11T09:12:26.000Z</time>
      </trkpt>
      <trkpt lat="41.821666" lon="-2.371142">
        <ele>1037.4</ele>
        <time>2023-02-11T09:12:27.000Z</time>
      </trkpt>
      <trkpt lat="41.821712" lon="-2.371036">
        <ele>1037.4</ele>
        <time>2023-02-11T09:12:28.000Z</time>
      </trkpt>
      <trkpt lat="41.821767" lon="-2.370938">
        <ele>1037.4</ele>
        <time>2023-02-11T09:12:29.000Z</time>
      </trkpt>
      <trkpt lat="41.821828" lon="-2.370848">
        <ele>1037.4</ele>
        <time>2023-02-11T09:12:30.000Z</time>
      </trkpt>
      <trkpt lat="41.821895" lon="-2.370766">
        <ele>1037.4</ele>
        <time>2023-02-11T09:12:31.000Z</time>
      </trkpt>
      <trkpt lat="41.821969" lon="-2.370695">
        <ele>1037.4</ele>
        <time>2023-02-11T09:12:32.000Z</time>
      </trkpt>
      <trkpt lat="41.822045" lon="-2.370633">
        <ele>1037.4</ele>
        <time>2023-02-11T09:12:33.000Z</time>
      </trkpt>
      <trkpt lat="41.822122" lon="-2.37058">
        <ele>1037.2</ele>
        <time>2023-02-11T09:12:34.000Z</time>
      </trkpt>
      <trkpt lat="41.822202" lon="-2.37053">
        <ele>1037.2</ele>
        <time>2023-02-11T09:12:35.000Z</time>
      </trkpt>
      <trkpt lat="41.82228" lon="-2.370481">
        <ele>1037.2</ele>
        <time>2023-02-11T09:12:36.000Z</time>
      </trkpt>
      <trkpt lat="41.822359" lon="-2.370433">
        <ele>1037.2</ele>
        <time>2023-02-11T09:12:37.000Z</time>
      </trkpt>
      <trkpt lat="41.822439" lon="-2.370384">
        <ele>1037.2</ele>
        <time>2023-02-11T09:12:38.000Z</time>
      </trkpt>
      <trkpt lat="41.822519" lon="-2.370335">
        <ele>1037</ele>
        <time>2023-02-11T09:12:39.000Z</time>
      </trkpt>
      <trkpt lat="41.822599" lon="-2.370287">
        <ele>1037</ele>
        <time>2023-02-11T09:12:40.000Z</time>
      </trkpt>
      <trkpt lat="41.822679" lon="-2.370234">
        <ele>1037</ele>
        <time>2023-02-11T09:12:41.000Z</time>
      </trkpt>
      <trkpt lat="41.822755" lon="-2.370184">
        <ele>1037</ele>
        <time>2023-02-11T09:12:42.000Z</time>
      </trkpt>
      <trkpt lat="41.822832" lon="-2.370136">
        <ele>1037</ele>
        <time>2023-02-11T09:12:43.000Z</time>
      </trkpt>
      <trkpt lat="41.822912" lon="-2.37009">
        <ele>1037</ele>
        <time>2023-02-11T09:12:44.000Z</time>
      </trkpt>
      <trkpt lat="41.822992" lon="-2.370043">
        <ele>1037</ele>
        <time>2023-02-11T09:12:45.000Z</time>
      </trkpt>
      <trkpt lat="41.823071" lon="-2.369995">
        <ele>1037</ele>
        <time>2023-02-11T09:12:46.000Z</time>
      </trkpt>
      <trkpt lat="41.82315" lon="-2.369945">
        <ele>1037</ele>
        <time>2023-02-11T09:12:47.000Z</time>
      </trkpt>
      <trkpt lat="41.823228" lon="-2.369896">
        <ele>1037</ele>
        <time>2023-02-11T09:12:48.000Z</time>
      </trkpt>
      <trkpt lat="41.823307" lon="-2.369849">
        <ele>1036.8</ele>
        <time>2023-02-11T09:12:49.000Z</time>
      </trkpt>
      <trkpt lat="41.823384" lon="-2.369801">
        <ele>1036.8</ele>
        <time>2023-02-11T09:12:50.000Z</time>
      </trkpt>
      <trkpt lat="41.823462" lon="-2.36975">
        <ele>1036.8</ele>
        <time>2023-02-11T09:12:51.000Z</time>
      </trkpt>
      <trkpt lat="41.823541" lon="-2.369701">
        <ele>1036.8</ele>
        <time>2023-02-11T09:12:52.000Z</time>
      </trkpt>
      <trkpt lat="41.823617" lon="-2.369652">
        <ele>1036.8</ele>
        <time>2023-02-11T09:12:53.000Z</time>
      </trkpt>
      <trkpt lat="41.823692" lon="-2.369603">
        <ele>1036.8</ele>
        <time>2023-02-11T09:12:54.000Z</time>
      </trkpt>
      <trkpt lat="41.82377" lon="-2.369556">
        <ele>1037</ele>
        <time>2023-02-11T09:12:55.000Z</time>
      </trkpt>
      <trkpt lat="41.823849" lon="-2.369507">
        <ele>1037</ele>
        <time>2023-02-11T09:12:56.000Z</time>
      </trkpt>
      <trkpt lat="41.823926" lon="-2.369459">
        <ele>1037</ele>
        <time>2023-02-11T09:12:57.000Z</time>
      </trkpt>
      <trkpt lat="41.824004" lon="-2.369412">
        <ele>1037</ele>
        <time>2023-02-11T09:12:58.000Z</time>
      </trkpt>
      <trkpt lat="41.824081" lon="-2.369364">
        <ele>1037</ele>
        <time>2023-02-11T09:12:59.000Z</time>
      </trkpt>
      <trkpt lat="41.824158" lon="-2.369316">
        <ele>1037.2</ele>
        <time>2023-02-11T09:13:00.000Z</time>
      </trkpt>
      <trkpt lat="41.824233" lon="-2.369271">
        <ele>1037.2</ele>
        <time>2023-02-11T09:13:01.000Z</time>
      </trkpt>
      <trkpt lat="41.824308" lon="-2.369226">
        <ele>1037.2</ele>
        <time>2023-02-11T09:13:02.000Z</time>
      </trkpt>
      <trkpt lat="41.824381" lon="-2.369181">
        <ele>1037.4</ele>
        <time>2023-02-11T09:13:03.000Z</time>
      </trkpt>
      <trkpt lat="41.824453" lon="-2.369139">
        <ele>1037.4</ele>
        <time>2023-02-11T09:13:04.000Z</time>
      </trkpt>
      <trkpt lat="41.824524" lon="-2.369099">
        <ele>1037.6</ele>
        <time>2023-02-11T09:13:05.000Z</time>
      </trkpt>
      <trkpt lat="41.824597" lon="-2.36906">
        <ele>1037.8</ele>
        <time>2023-02-11T09:13:06.000Z</time>
      </trkpt>
      <trkpt lat="41.824664" lon="-2.369024">
        <ele>1037.8</ele>
        <time>2023-02-11T09:13:07.000Z</time>
      </trkpt>
      <trkpt lat="41.824734" lon="-2.368988">
        <ele>1037.8</ele>
        <time>2023-02-11T09:13:08.000Z</time>
      </trkpt>
      <trkpt lat="41.824801" lon="-2.368953">
        <ele>1038.2</ele>
        <time>2023-02-11T09:13:09.000Z</time>
      </trkpt>
      <trkpt lat="41.824868" lon="-2.36892">
        <ele>1038.4</ele>
        <time>2023-02-11T09:13:10.000Z</time>
      </trkpt>
      <trkpt lat="41.824931" lon="-2.36889">
        <ele>1038.8</ele>
        <time>2023-02-11T09:13:11.000Z</time>
      </trkpt>
      <trkpt lat="41.824995" lon="-2.368862">
        <ele>1039</ele>
        <time>2023-02-11T09:13:12.000Z</time>
      </trkpt>
      <trkpt lat="41.825057" lon="-2.368836">
        <ele>1039.4</ele>
        <time>2023-02-11T09:13:13.000Z</time>
      </trkpt>
      <trkpt lat="41.825117" lon="-2.368813">
        <ele>1039.4</ele>
        <time>2023-02-11T09:13:14.000Z</time>
      </trkpt>
      <trkpt lat="41.825179" lon="-2.368793">
        <ele>1039.8</ele>
        <time>2023-02-11T09:13:15.000Z</time>
      </trkpt>
      <trkpt lat="41.825237" lon="-2.368774">
        <ele>1039.8</ele>
        <time>2023-02-11T09:13:16.000Z</time>
      </trkpt>
      <trkpt lat="41.825293" lon="-2.368755">
        <ele>1040.2</ele>
        <time>2023-02-11T09:13:17.000Z</time>
      </trkpt>
      <trkpt lat="41.825353" lon="-2.368739">
        <ele>1040.4</ele>
        <time>2023-02-11T09:13:18.000Z</time>
      </trkpt>
      <trkpt lat="41.825411" lon="-2.368724">
        <ele>1040.6</ele>
        <time>2023-02-11T09:13:19.000Z</time>
      </trkpt>
      <trkpt lat="41.825468" lon="-2.368708">
        <ele>1041.2</ele>
        <time>2023-02-11T09:13:20.000Z</time>
      </trkpt>
      <trkpt lat="41.825524" lon="-2.368692">
        <ele>1041.6</ele>
        <time>2023-02-11T09:13:21.000Z</time>
      </trkpt>
      <trkpt lat="41.825579" lon="-2.368676">
        <ele>1042</ele>
        <time>2023-02-11T09:13:22.000Z</time>
      </trkpt>
      <trkpt lat="41.825632" lon="-2.368665">
        <ele>1042</ele>
        <time>2023-02-11T09:13:23.000Z</time>
      </trkpt>
      <trkpt lat="41.825685" lon="-2.368656">
        <ele>1042.4</ele>
        <time>2023-02-11T09:13:24.000Z</time>
      </trkpt>
      <trkpt lat="41.825739" lon="-2.368642">
        <ele>1042.6</ele>
        <time>2023-02-11T09:13:25.000Z</time>
      </trkpt>
      <trkpt lat="41.825793" lon="-2.368625">
        <ele>1043.2</ele>
        <time>2023-02-11T09:13:26.000Z</time>
      </trkpt>
      <trkpt lat="41.825848" lon="-2.368614">
        <ele>1043.4</ele>
        <time>2023-02-11T09:13:27.000Z</time>
      </trkpt>
      <trkpt lat="41.825901" lon="-2.368603">
        <ele>1044</ele>
        <time>2023-02-11T09:13:28.000Z</time>
      </trkpt>
      <trkpt lat="41.825956" lon="-2.368592">
        <ele>1044.4</ele>
        <time>2023-02-11T09:13:29.000Z</time>
      </trkpt>
      <trkpt lat="41.82601" lon="-2.368583">
        <ele>1044.6</ele>
        <time>2023-02-11T09:13:30.000Z</time>
      </trkpt>
      <trkpt lat="41.826062" lon="-2.368571">
        <ele>1045.2</ele>
        <time>2023-02-11T09:13:31.000Z</time>
      </trkpt>
      <trkpt lat="41.826114" lon="-2.368563">
        <ele>1045.4</ele>
        <time>2023-02-11T09:13:32.000Z</time>
      </trkpt>
      <trkpt lat="41.826166" lon="-2.368557">
        <ele>1045.8</ele>
        <time>2023-02-11T09:13:33.000Z</time>
      </trkpt>
      <trkpt lat="41.826216" lon="-2.368545">
        <ele>1046</ele>
        <time>2023-02-11T09:13:34.000Z</time>
      </trkpt>
      <trkpt lat="41.826268" lon="-2.368535">
        <ele>1046.6</ele>
        <time>2023-02-11T09:13:35.000Z</time>
      </trkpt>
      <trkpt lat="41.826319" lon="-2.368527">
        <ele>1046.8</ele>
        <time>2023-02-11T09:13:36.000Z</time>
      </trkpt>
      <trkpt lat="41.826372" lon="-2.368513">
        <ele>1047.2</ele>
        <time>2023-02-11T09:13:37.000Z</time>
      </trkpt>
      <trkpt lat="41.826426" lon="-2.368501">
        <ele>1047.8</ele>
        <time>2023-02-11T09:13:38.000Z</time>
      </trkpt>
      <trkpt lat="41.826481" lon="-2.368492">
        <ele>1048</ele>
        <time>2023-02-11T09:13:39.000Z</time>
      </trkpt>
      <trkpt lat="41.826538" lon="-2.36848">
        <ele>1048.4</ele>
        <time>2023-02-11T09:13:40.000Z</time>
      </trkpt>
      <trkpt lat="41.826594" lon="-2.36847">
        <ele>1048.4</ele>
        <time>2023-02-11T09:13:41.000Z</time>
      </trkpt>
      <trkpt lat="41.826649" lon="-2.368459">
        <ele>1049</ele>
        <time>2023-02-11T09:13:42.000Z</time>
      </trkpt>
      <trkpt lat="41.826702" lon="-2.368446">
        <ele>1049.2</ele>
        <time>2023-02-11T09:13:43.000Z</time>
      </trkpt>
      <trkpt lat="41.826756" lon="-2.368433">
        <ele>1049.6</ele>
        <time>2023-02-11T09:13:44.000Z</time>
      </trkpt>
      <trkpt lat="41.826809" lon="-2.368418">
        <ele>1049.8</ele>
        <time>2023-02-11T09:13:45.000Z</time>
      </trkpt>
      <trkpt lat="41.82686" lon="-2.368404">
        <ele>1050</ele>
        <time>2023-02-11T09:13:46.000Z</time>
      </trkpt>
      <trkpt lat="41.826911" lon="-2.368391">
        <ele>1050.6</ele>
        <time>2023-02-11T09:13:47.000Z</time>
      </trkpt>
      <trkpt lat="41.826962" lon="-2.368369">
        <ele>1050.8</ele>
        <time>2023-02-11T09:13:48.000Z</time>
      </trkpt>
      <trkpt lat="41.827013" lon="-2.368348">
        <ele>1051.4</ele>
        <time>2023-02-11T09:13:49.000Z</time>
      </trkpt>
      <trkpt lat="41.827064" lon="-2.368329">
        <ele>1051.8</ele>
        <time>2023-02-11T09:13:50.000Z</time>
      </trkpt>
      <trkpt lat="41.827114" lon="-2.368308">
        <ele>1052</ele>
        <time>2023-02-11T09:13:51.000Z</time>
      </trkpt>
      <trkpt lat="41.827163" lon="-2.368286">
        <ele>1052</ele>
        <time>2023-02-11T09:13:52.000Z</time>
      </trkpt>
      <trkpt lat="41.827211" lon="-2.368262">
        <ele>1052.4</ele>
        <time>2023-02-11T09:13:53.000Z</time>
      </trkpt>
      <trkpt lat="41.827257" lon="-2.368236">
        <ele>1052.8</ele>
        <time>2023-02-11T09:13:54.000Z</time>
      </trkpt>
      <trkpt lat="41.827302" lon="-2.368206">
        <ele>1053.2</ele>
        <time>2023-02-11T09:13:55.000Z</time>
      </trkpt>
      <trkpt lat="41.827347" lon="-2.368177">
        <ele>1053.8</ele>
        <time>2023-02-11T09:13:56.000Z</time>
      </trkpt>
      <trkpt lat="41.827392" lon="-2.368148">
        <ele>1054</ele>
        <time>2023-02-11T09:13:57.000Z</time>
      </trkpt>
      <trkpt lat="41.827439" lon="-2.368114">
        <ele>1054.2</ele>
        <time>2023-02-11T09:13:58.000Z</time>
      </trkpt>
      <trkpt lat="41.827482" lon="-2.368075">
        <ele>1054.6</ele>
        <time>2023-02-11T09:13:59.000Z</time>
      </trkpt>
      <trkpt lat="41.827526" lon="-2.368038">
        <ele>1054.8</ele>
        <time>2023-02-11T09:14:00.000Z</time>
      </trkpt>
      <trkpt lat="41.827569" lon="-2.368">
        <ele>1055.2</ele>
        <time>2023-02-11T09:14:01.000Z</time>
      </trkpt>
      <trkpt lat="41.827612" lon="-2.367956">
        <ele>1055.6</ele>
        <time>2023-02-11T09:14:02.000Z</time>
      </trkpt>
      <trkpt lat="41.827654" lon="-2.367913">
        <ele>1056</ele>
        <time>2023-02-11T09:14:03.000Z</time>
      </trkpt>
      <trkpt lat="41.827693" lon="-2.367871">
        <ele>1056.2</ele>
        <time>2023-02-11T09:14:04.000Z</time>
      </trkpt>
      <trkpt lat="41.827731" lon="-2.367824">
        <ele>1056.8</ele>
        <time>2023-02-11T09:14:05.000Z</time>
      </trkpt>
      <trkpt lat="41.827769" lon="-2.367778">
        <ele>1057</ele>
        <time>2023-02-11T09:14:06.000Z</time>
      </trkpt>
      <trkpt lat="41.827807" lon="-2.367732">
        <ele>1057.2</ele>
        <time>2023-02-11T09:14:07.000Z</time>
      </trkpt>
      <trkpt lat="41.827843" lon="-2.367684">
        <ele>1057.4</ele>
        <time>2023-02-11T09:14:08.000Z</time>
      </trkpt>
      <trkpt lat="41.827875" lon="-2.367632">
        <ele>1058</ele>
        <time>2023-02-11T09:14:09.000Z</time>
      </trkpt>
      <trkpt lat="41.827908" lon="-2.367582">
        <ele>1058.2</ele>
        <time>2023-02-11T09:14:10.000Z</time>
      </trkpt>
      <trkpt lat="41.827941" lon="-2.367533">
        <ele>1058.8</ele>
        <time>2023-02-11T09:14:11.000Z</time>
      </trkpt>
      <trkpt lat="41.82797" lon="-2.367481">
        <ele>1059.2</ele>
        <time>2023-02-11T09:14:12.000Z</time>
      </trkpt>
      <trkpt lat="41.827998" lon="-2.367424">
        <ele>1059.4</ele>
        <time>2023-02-11T09:14:13.000Z</time>
      </trkpt>
      <trkpt lat="41.828027" lon="-2.367369">
        <ele>1060</ele>
        <time>2023-02-11T09:14:14.000Z</time>
      </trkpt>
      <trkpt lat="41.828057" lon="-2.367313">
        <ele>1060.6</ele>
        <time>2023-02-11T09:14:15.000Z</time>
      </trkpt>
      <trkpt lat="41.828082" lon="-2.367253">
        <ele>1061.2</ele>
        <time>2023-02-11T09:14:16.000Z</time>
      </trkpt>
      <trkpt lat="41.828102" lon="-2.367189">
        <ele>1061.8</ele>
        <time>2023-02-11T09:14:17.000Z</time>
      </trkpt>
      <trkpt lat="41.828124" lon="-2.367124">
        <ele>1062.6</ele>
        <time>2023-02-11T09:14:18.000Z</time>
      </trkpt>
      <trkpt lat="41.828142" lon="-2.367056">
        <ele>1062.8</ele>
        <time>2023-02-11T09:14:19.000Z</time>
      </trkpt>
      <trkpt lat="41.82816" lon="-2.366989">
        <ele>1063.2</ele>
        <time>2023-02-11T09:14:20.000Z</time>
      </trkpt>
      <trkpt lat="41.82818" lon="-2.366922">
        <ele>1063.8</ele>
        <time>2023-02-11T09:14:21.000Z</time>
      </trkpt>
      <trkpt lat="41.828196" lon="-2.366852">
        <ele>1064</ele>
        <time>2023-02-11T09:14:22.000Z</time>
      </trkpt>
      <trkpt lat="41.828212" lon="-2.366785">
        <ele>1064.4</ele>
        <time>2023-02-11T09:14:23.000Z</time>
      </trkpt>
      <trkpt lat="41.828227" lon="-2.366717">
        <ele>1064.6</ele>
        <time>2023-02-11T09:14:24.000Z</time>
      </trkpt>
      <trkpt lat="41.828242" lon="-2.366644">
        <ele>1065.2</ele>
        <time>2023-02-11T09:14:25.000Z</time>
      </trkpt>
      <trkpt lat="41.828253" lon="-2.366567">
        <ele>1065.4</ele>
        <time>2023-02-11T09:14:26.000Z</time>
      </trkpt>
      <trkpt lat="41.828263" lon="-2.36649">
        <ele>1066</ele>
        <time>2023-02-11T09:14:27.000Z</time>
      </trkpt>
      <trkpt lat="41.828273" lon="-2.366408">
        <ele>1066.2</ele>
        <time>2023-02-11T09:14:28.000Z</time>
      </trkpt>
      <trkpt lat="41.828279" lon="-2.366324">
        <ele>1066.8</ele>
        <time>2023-02-11T09:14:29.000Z</time>
      </trkpt>
      <trkpt lat="41.828282" lon="-2.366238">
        <ele>1067.4</ele>
        <time>2023-02-11T09:14:30.000Z</time>
      </trkpt>
      <trkpt lat="41.828283" lon="-2.366151">
        <ele>1067.6</ele>
        <time>2023-02-11T09:14:31.000Z</time>
      </trkpt>
      <trkpt lat="41.828285" lon="-2.366064">
        <ele>1068</ele>
        <time>2023-02-11T09:14:32.000Z</time>
      </trkpt>
      <trkpt lat="41.828286" lon="-2.365975">
        <ele>1068.2</ele>
        <time>2023-02-11T09:14:33.000Z</time>
      </trkpt>
      <trkpt lat="41.828289" lon="-2.365884">
        <ele>1068.6</ele>
        <time>2023-02-11T09:14:34.000Z</time>
      </trkpt>
      <trkpt lat="41.828292" lon="-2.365793">
        <ele>1068.8</ele>
        <time>2023-02-11T09:14:35.000Z</time>
      </trkpt>
      <trkpt lat="41.828297" lon="-2.365701">
        <ele>1069.2</ele>
        <time>2023-02-11T09:14:36.000Z</time>
      </trkpt>
      <trkpt lat="41.828303" lon="-2.365606">
        <ele>1069.4</ele>
        <time>2023-02-11T09:14:37.000Z</time>
      </trkpt>
      <trkpt lat="41.828309" lon="-2.365508">
        <ele>1069.8</ele>
        <time>2023-02-11T09:14:38.000Z</time>
      </trkpt>
      <trkpt lat="41.828314" lon="-2.365411">
        <ele>1070</ele>
        <time>2023-02-11T09:14:39.000Z</time>
      </trkpt>
      <trkpt lat="41.82832" lon="-2.365312">
        <ele>1070</ele>
        <time>2023-02-11T09:14:40.000Z</time>
      </trkpt>
      <trkpt lat="41.828326" lon="-2.365215">
        <ele>1070.2</ele>
        <time>2023-02-11T09:14:41.000Z</time>
      </trkpt>
      <trkpt lat="41.828336" lon="-2.365118">
        <ele>1070.4</ele>
        <time>2023-02-11T09:14:42.000Z</time>
      </trkpt>
      <trkpt lat="41.828347" lon="-2.365021">
        <ele>1070.6</ele>
        <time>2023-02-11T09:14:43.000Z</time>
      </trkpt>
      <trkpt lat="41.828365" lon="-2.364923">
        <ele>1070.8</ele>
        <time>2023-02-11T09:14:44.000Z</time>
      </trkpt>
      <trkpt lat="41.828385" lon="-2.364824">
        <ele>1070.8</ele>
        <time>2023-02-11T09:14:45.000Z</time>
      </trkpt>
      <trkpt lat="41.828407" lon="-2.364725">
        <ele>1071</ele>
        <time>2023-02-11T09:14:46.000Z</time>
      </trkpt>
      <trkpt lat="41.82843" lon="-2.364624">
        <ele>1071</ele>
        <time>2023-02-11T09:14:47.000Z</time>
      </trkpt>
      <trkpt lat="41.828458" lon="-2.364524">
        <ele>1071.2</ele>
        <time>2023-02-11T09:14:48.000Z</time>
      </trkpt>
      <trkpt lat="41.82849" lon="-2.364424">
        <ele>1071.2</ele>
        <time>2023-02-11T09:14:49.000Z</time>
      </trkpt>
      <trkpt lat="41.828523" lon="-2.364324">
        <ele>1071.4</ele>
        <time>2023-02-11T09:14:50.000Z</time>
      </trkpt>
      <trkpt lat="41.82856" lon="-2.364224">
        <ele>1071.6</ele>
        <time>2023-02-11T09:14:51.000Z</time>
      </trkpt>
      <trkpt lat="41.828599" lon="-2.364124">
        <ele>1071.8</ele>
        <time>2023-02-11T09:14:52.000Z</time>
      </trkpt>
      <trkpt lat="41.828641" lon="-2.364026">
        <ele>1071.8</ele>
        <time>2023-02-11T09:14:53.000Z</time>
      </trkpt>
      <trkpt lat="41.828686" lon="-2.363931">
        <ele>1072</ele>
        <time>2023-02-11T09:14:54.000Z</time>
      </trkpt>
      <trkpt lat="41.828733" lon="-2.36384">
        <ele>1072</ele>
        <time>2023-02-11T09:14:55.000Z</time>
      </trkpt>
      <trkpt lat="41.828782" lon="-2.363753">
        <ele>1072</ele>
        <time>2023-02-11T09:14:56.000Z</time>
      </trkpt>
      <trkpt lat="41.828833" lon="-2.363669">
        <ele>1072.2</ele>
        <time>2023-02-11T09:14:57.000Z</time>
      </trkpt>
      <trkpt lat="41.828885" lon="-2.363591">
        <ele>1072.2</ele>
        <time>2023-02-11T09:14:58.000Z</time>
      </trkpt>
      <trkpt lat="41.828937" lon="-2.363515">
        <ele>1072.4</ele>
        <time>2023-02-11T09:14:59.000Z</time>
      </trkpt>
      <trkpt lat="41.828989" lon="-2.363442">
        <ele>1072.4</ele>
        <time>2023-02-11T09:15:00.000Z</time>
      </trkpt>
      <trkpt lat="41.829042" lon="-2.363371">
        <ele>1072.6</ele>
        <time>2023-02-11T09:15:01.000Z</time>
      </trkpt>
      <trkpt lat="41.829097" lon="-2.363305">
        <ele>1072.8</ele>
        <time>2023-02-11T09:15:02.000Z</time>
      </trkpt>
      <trkpt lat="41.829151" lon="-2.363241">
        <ele>1073</ele>
        <time>2023-02-11T09:15:03.000Z</time>
      </trkpt>
      <trkpt lat="41.829205" lon="-2.363186">
        <ele>1073.2</ele>
        <time>2023-02-11T09:15:04.000Z</time>
      </trkpt>
      <trkpt lat="41.829256" lon="-2.363139">
        <ele>1073.6</ele>
        <time>2023-02-11T09:15:05.000Z</time>
      </trkpt>
      <trkpt lat="41.829308" lon="-2.363092">
        <ele>1074</ele>
        <time>2023-02-11T09:15:06.000Z</time>
      </trkpt>
      <trkpt lat="41.829361" lon="-2.363047">
        <ele>1074</ele>
        <time>2023-02-11T09:15:07.000Z</time>
      </trkpt>
      <trkpt lat="41.829415" lon="-2.363002">
        <ele>1074.6</ele>
        <time>2023-02-11T09:15:08.000Z</time>
      </trkpt>
      <trkpt lat="41.829469" lon="-2.362958">
        <ele>1075</ele>
        <time>2023-02-11T09:15:09.000Z</time>
      </trkpt>
      <trkpt lat="41.829526" lon="-2.36292">
        <ele>1075.4</ele>
        <time>2023-02-11T09:15:10.000Z</time>
      </trkpt>
      <trkpt lat="41.829582" lon="-2.362882">
        <ele>1075.6</ele>
        <time>2023-02-11T09:15:11.000Z</time>
      </trkpt>
      <trkpt lat="41.82964" lon="-2.362842">
        <ele>1076.4</ele>
        <time>2023-02-11T09:15:12.000Z</time>
      </trkpt>
      <trkpt lat="41.829704" lon="-2.362803">
        <ele>1076.6</ele>
        <time>2023-02-11T09:15:13.000Z</time>
      </trkpt>
      <trkpt lat="41.829767" lon="-2.362764">
        <ele>1077.2</ele>
        <time>2023-02-11T09:15:14.000Z</time>
      </trkpt>
      <trkpt lat="41.829833" lon="-2.362725">
        <ele>1077.6</ele>
        <time>2023-02-11T09:15:15.000Z</time>
      </trkpt>
      <trkpt lat="41.829901" lon="-2.362683">
        <ele>1078</ele>
        <time>2023-02-11T09:15:16.000Z</time>
      </trkpt>
      <trkpt lat="41.829971" lon="-2.36264">
        <ele>1078.2</ele>
        <time>2023-02-11T09:15:17.000Z</time>
      </trkpt>
      <trkpt lat="41.830043" lon="-2.362598">
        <ele>1078.4</ele>
        <time>2023-02-11T09:15:18.000Z</time>
      </trkpt>
      <trkpt lat="41.830118" lon="-2.362555">
        <ele>1078.4</ele>
        <time>2023-02-11T09:15:19.000Z</time>
      </trkpt>
      <trkpt lat="41.830194" lon="-2.36251">
        <ele>1078.4</ele>
        <time>2023-02-11T09:15:20.000Z</time>
      </trkpt>
      <trkpt lat="41.83027" lon="-2.362465">
        <ele>1078.6</ele>
        <time>2023-02-11T09:15:21.000Z</time>
      </trkpt>
      <trkpt lat="41.830348" lon="-2.362418">
        <ele>1078.6</ele>
        <time>2023-02-11T09:15:22.000Z</time>
      </trkpt>
      <trkpt lat="41.83043" lon="-2.362369">
        <ele>1078.6</ele>
        <time>2023-02-11T09:15:23.000Z</time>
      </trkpt>
      <trkpt lat="41.830516" lon="-2.362318">
        <ele>1078.6</ele>
        <time>2023-02-11T09:15:24.000Z</time>
      </trkpt>
      <trkpt lat="41.830605" lon="-2.362267">
        <ele>1078.4</ele>
        <time>2023-02-11T09:15:25.000Z</time>
      </trkpt>
      <trkpt lat="41.830697" lon="-2.362213">
        <ele>1078</ele>
        <time>2023-02-11T09:15:26.000Z</time>
      </trkpt>
      <trkpt lat="41.830792" lon="-2.362157">
        <ele>1077.8</ele>
        <time>2023-02-11T09:15:27.000Z</time>
      </trkpt>
      <trkpt lat="41.830892" lon="-2.362098">
        <ele>1077.4</ele>
        <time>2023-02-11T09:15:28.000Z</time>
      </trkpt>
      <trkpt lat="41.830994" lon="-2.362037">
        <ele>1077</ele>
        <time>2023-02-11T09:15:29.000Z</time>
      </trkpt>
      <trkpt lat="41.831098" lon="-2.361976">
        <ele>1076.6</ele>
        <time>2023-02-11T09:15:30.000Z</time>
      </trkpt>
      <trkpt lat="41.831201" lon="-2.361917">
        <ele>1076.2</ele>
        <time>2023-02-11T09:15:31.000Z</time>
      </trkpt>
      <trkpt lat="41.831303" lon="-2.36186">
        <ele>1075.8</ele>
        <time>2023-02-11T09:15:32.000Z</time>
      </trkpt>
      <trkpt lat="41.831405" lon="-2.361802">
        <ele>1075.2</ele>
        <time>2023-02-11T09:15:33.000Z</time>
      </trkpt>
      <trkpt lat="41.831504" lon="-2.361744">
        <ele>1075</ele>
        <time>2023-02-11T09:15:34.000Z</time>
      </trkpt>
      <trkpt lat="41.831602" lon="-2.361685">
        <ele>1074.4</ele>
        <time>2023-02-11T09:15:35.000Z</time>
      </trkpt>
      <trkpt lat="41.831697" lon="-2.361626">
        <ele>1074.4</ele>
        <time>2023-02-11T09:15:36.000Z</time>
      </trkpt>
      <trkpt lat="41.831792" lon="-2.361562">
        <ele>1074</ele>
        <time>2023-02-11T09:15:37.000Z</time>
      </trkpt>
      <trkpt lat="41.831885" lon="-2.361493">
        <ele>1073.8</ele>
        <time>2023-02-11T09:15:38.000Z</time>
      </trkpt>
      <trkpt lat="41.831978" lon="-2.361417">
        <ele>1073.6</ele>
        <time>2023-02-11T09:15:39.000Z</time>
      </trkpt>
      <trkpt lat="41.832071" lon="-2.361335">
        <ele>1073.6</ele>
        <time>2023-02-11T09:15:40.000Z</time>
      </trkpt>
      <trkpt lat="41.832165" lon="-2.361251">
        <ele>1073.2</ele>
        <time>2023-02-11T09:15:41.000Z</time>
      </trkpt>
      <trkpt lat="41.832259" lon="-2.361162">
        <ele>1073</ele>
        <time>2023-02-11T09:15:42.000Z</time>
      </trkpt>
      <trkpt lat="41.832345" lon="-2.36107">
        <ele>1072.8</ele>
        <time>2023-02-11T09:15:43.000Z</time>
      </trkpt>
      <trkpt lat="41.832432" lon="-2.360971">
        <ele>1072.2</ele>
        <time>2023-02-11T09:15:44.000Z</time>
      </trkpt>
      <trkpt lat="41.832527" lon="-2.360862">
        <ele>1072</ele>
        <time>2023-02-11T09:15:45.000Z</time>
      </trkpt>
      <trkpt lat="41.832622" lon="-2.360745">
        <ele>1071.6</ele>
        <time>2023-02-11T09:15:46.000Z</time>
      </trkpt>
      <trkpt lat="41.832712" lon="-2.360618">
        <ele>1071.4</ele>
        <time>2023-02-11T09:15:47.000Z</time>
      </trkpt>
      <trkpt lat="41.832799" lon="-2.360482">
        <ele>1070.6</ele>
        <time>2023-02-11T09:15:48.000Z</time>
      </trkpt>
      <trkpt lat="41.832884" lon="-2.360345">
        <ele>1070.4</ele>
        <time>2023-02-11T09:15:49.000Z</time>
      </trkpt>
      <trkpt lat="41.832967" lon="-2.360204">
        <ele>1069.2</ele>
        <time>2023-02-11T09:15:50.000Z</time>
      </trkpt>
      <trkpt lat="41.833048" lon="-2.360057">
        <ele>1068.4</ele>
        <time>2023-02-11T09:15:51.000Z</time>
      </trkpt>
      <trkpt lat="41.833125" lon="-2.359906">
        <ele>1067.8</ele>
        <time>2023-02-11T09:15:52.000Z</time>
      </trkpt>
      <trkpt lat="41.833197" lon="-2.359747">
        <ele>1066.8</ele>
        <time>2023-02-11T09:15:53.000Z</time>
      </trkpt>
      <trkpt lat="41.833266" lon="-2.359584">
        <ele>1066.4</ele>
        <time>2023-02-11T09:15:54.000Z</time>
      </trkpt>
      <trkpt lat="41.833331" lon="-2.35942">
        <ele>1065.6</ele>
        <time>2023-02-11T09:15:55.000Z</time>
      </trkpt>
      <trkpt lat="41.833393" lon="-2.359248">
        <ele>1065</ele>
        <time>2023-02-11T09:15:56.000Z</time>
      </trkpt>
      <trkpt lat="41.833449" lon="-2.359074">
        <ele>1063.8</ele>
        <time>2023-02-11T09:15:57.000Z</time>
      </trkpt>
      <trkpt lat="41.8335" lon="-2.358897">
        <ele>1063.2</ele>
        <time>2023-02-11T09:15:58.000Z</time>
      </trkpt>
      <trkpt lat="41.833547" lon="-2.358717">
        <ele>1061.8</ele>
        <time>2023-02-11T09:15:59.000Z</time>
      </trkpt>
      <trkpt lat="41.83359" lon="-2.358535">
        <ele>1060.4</ele>
        <time>2023-02-11T09:16:00.000Z</time>
      </trkpt>
      <trkpt lat="41.833634" lon="-2.358354">
        <ele>1059.6</ele>
        <time>2023-02-11T09:16:01.000Z</time>
      </trkpt>
      <trkpt lat="41.833684" lon="-2.358173">
        <ele>1058.6</ele>
        <time>2023-02-11T09:16:02.000Z</time>
      </trkpt>
      <trkpt lat="41.83374" lon="-2.357997">
        <ele>1057.8</ele>
        <time>2023-02-11T09:16:03.000Z</time>
      </trkpt>
      <trkpt lat="41.833807" lon="-2.357826">
        <ele>1056.6</ele>
        <time>2023-02-11T09:16:04.000Z</time>
      </trkpt>
      <trkpt lat="41.833882" lon="-2.357665">
        <ele>1056</ele>
        <time>2023-02-11T09:16:05.000Z</time>
      </trkpt>
      <trkpt lat="41.833963" lon="-2.35751">
        <ele>1054.6</ele>
        <time>2023-02-11T09:16:06.000Z</time>
      </trkpt>
      <trkpt lat="41.834047" lon="-2.357358">
        <ele>1054</ele>
        <time>2023-02-11T09:16:07.000Z</time>
      </trkpt>
      <trkpt lat="41.834133" lon="-2.357206">
        <ele>1052.8</ele>
        <time>2023-02-11T09:16:08.000Z</time>
      </trkpt>
      <trkpt lat="41.83422" lon="-2.357055">
        <ele>1051.4</ele>
        <time>2023-02-11T09:16:09.000Z</time>
      </trkpt>
      <trkpt lat="41.834307" lon="-2.356906">
        <ele>1051.2</ele>
        <time>2023-02-11T09:16:10.000Z</time>
      </trkpt>
      <trkpt lat="41.834394" lon="-2.35676">
        <ele>1050.4</ele>
        <time>2023-02-11T09:16:11.000Z</time>
      </trkpt>
      <trkpt lat="41.834479" lon="-2.356618">
        <ele>1050.2</ele>
        <time>2023-02-11T09:16:12.000Z</time>
      </trkpt>
      <trkpt lat="41.834559" lon="-2.356484">
        <ele>1049.6</ele>
        <time>2023-02-11T09:16:13.000Z</time>
      </trkpt>
      <trkpt lat="41.834639" lon="-2.35635">
        <ele>1049.2</ele>
        <time>2023-02-11T09:16:14.000Z</time>
      </trkpt>
      <trkpt lat="41.834716" lon="-2.356219">
        <ele>1049</ele>
        <time>2023-02-11T09:16:15.000Z</time>
      </trkpt>
      <trkpt lat="41.834789" lon="-2.35609">
        <ele>1048.8</ele>
        <time>2023-02-11T09:16:16.000Z</time>
      </trkpt>
      <trkpt lat="41.834859" lon="-2.355964">
        <ele>1048.6</ele>
        <time>2023-02-11T09:16:17.000Z</time>
      </trkpt>
      <trkpt lat="41.83493" lon="-2.355841">
        <ele>1048.4</ele>
        <time>2023-02-11T09:16:18.000Z</time>
      </trkpt>
      <trkpt lat="41.835" lon="-2.355721">
        <ele>1048.4</ele>
        <time>2023-02-11T09:16:19.000Z</time>
      </trkpt>
      <trkpt lat="41.835069" lon="-2.355602">
        <ele>1048.2</ele>
        <time>2023-02-11T09:16:20.000Z</time>
      </trkpt>
      <trkpt lat="41.835138" lon="-2.355482">
        <ele>1048.4</ele>
        <time>2023-02-11T09:16:21.000Z</time>
      </trkpt>
      <trkpt lat="41.835205" lon="-2.355365">
        <ele>1048.2</ele>
        <time>2023-02-11T09:16:22.000Z</time>
      </trkpt>
      <trkpt lat="41.835273" lon="-2.355248">
        <ele>1048</ele>
        <time>2023-02-11T09:16:23.000Z</time>
      </trkpt>
      <trkpt lat="41.83534" lon="-2.355133">
        <ele>1047.8</ele>
        <time>2023-02-11T09:16:24.000Z</time>
      </trkpt>
      <trkpt lat="41.835404" lon="-2.355017">
        <ele>1047.8</ele>
        <time>2023-02-11T09:16:25.000Z</time>
      </trkpt>
      <trkpt lat="41.835466" lon="-2.354905">
        <ele>1047.8</ele>
        <time>2023-02-11T09:16:26.000Z</time>
      </trkpt>
      <trkpt lat="41.835528" lon="-2.354794">
        <ele>1047.8</ele>
        <time>2023-02-11T09:16:27.000Z</time>
      </trkpt>
      <trkpt lat="41.835585" lon="-2.354686">
        <ele>1047.8</ele>
        <time>2023-02-11T09:16:28.000Z</time>
      </trkpt>
      <trkpt lat="41.835644" lon="-2.354577">
        <ele>1048</ele>
        <time>2023-02-11T09:16:29.000Z</time>
      </trkpt>
      <trkpt lat="41.8357" lon="-2.354466">
        <ele>1048</ele>
        <time>2023-02-11T09:16:30.000Z</time>
      </trkpt>
      <trkpt lat="41.835756" lon="-2.354357">
        <ele>1047.8</ele>
        <time>2023-02-11T09:16:31.000Z</time>
      </trkpt>
      <trkpt lat="41.835811" lon="-2.354246">
        <ele>1047.8</ele>
        <time>2023-02-11T09:16:32.000Z</time>
      </trkpt>
      <trkpt lat="41.835865" lon="-2.354134">
        <ele>1047.8</ele>
        <time>2023-02-11T09:16:33.000Z</time>
      </trkpt>
      <trkpt lat="41.835917" lon="-2.354025">
        <ele>1047.8</ele>
        <time>2023-02-11T09:16:34.000Z</time>
      </trkpt>
      <trkpt lat="41.835973" lon="-2.353917">
        <ele>1048</ele>
        <time>2023-02-11T09:16:35.000Z</time>
      </trkpt>
      <trkpt lat="41.836029" lon="-2.353809">
        <ele>1048</ele>
        <time>2023-02-11T09:16:36.000Z</time>
      </trkpt>
      <trkpt lat="41.836084" lon="-2.353701">
        <ele>1048</ele>
        <time>2023-02-11T09:16:37.000Z</time>
      </trkpt>
      <trkpt lat="41.836139" lon="-2.353593">
        <ele>1048</ele>
        <time>2023-02-11T09:16:38.000Z</time>
      </trkpt>
      <trkpt lat="41.836193" lon="-2.353486">
        <ele>1048.2</ele>
        <time>2023-02-11T09:16:39.000Z</time>
      </trkpt>
      <trkpt lat="41.836249" lon="-2.353381">
        <ele>1048.2</ele>
        <time>2023-02-11T09:16:40.000Z</time>
      </trkpt>
      <trkpt lat="41.836304" lon="-2.353275">
        <ele>1048.2</ele>
        <time>2023-02-11T09:16:41.000Z</time>
      </trkpt>
      <trkpt lat="41.836359" lon="-2.353168">
        <ele>1048.2</ele>
        <time>2023-02-11T09:16:42.000Z</time>
      </trkpt>
      <trkpt lat="41.836414" lon="-2.353062">
        <ele>1048.2</ele>
        <time>2023-02-11T09:16:43.000Z</time>
      </trkpt>
      <trkpt lat="41.836469" lon="-2.352956">
        <ele>1048</ele>
        <time>2023-02-11T09:16:44.000Z</time>
      </trkpt>
      <trkpt lat="41.836523" lon="-2.352849">
        <ele>1048</ele>
        <time>2023-02-11T09:16:45.000Z</time>
      </trkpt>
      <trkpt lat="41.836578" lon="-2.352742">
        <ele>1048.2</ele>
        <time>2023-02-11T09:16:46.000Z</time>
      </trkpt>
      <trkpt lat="41.836633" lon="-2.352634">
        <ele>1048.2</ele>
        <time>2023-02-11T09:16:47.000Z</time>
      </trkpt>
      <trkpt lat="41.836688" lon="-2.352526">
        <ele>1048.2</ele>
        <time>2023-02-11T09:16:48.000Z</time>
      </trkpt>
      <trkpt lat="41.836742" lon="-2.35242">
        <ele>1048.2</ele>
        <time>2023-02-11T09:16:49.000Z</time>
      </trkpt>
      <trkpt lat="41.836797" lon="-2.352313">
        <ele>1048.2</ele>
        <time>2023-02-11T09:16:50.000Z</time>
      </trkpt>
      <trkpt lat="41.836851" lon="-2.352208">
        <ele>1048.2</ele>
        <time>2023-02-11T09:16:51.000Z</time>
      </trkpt>
      <trkpt lat="41.836904" lon="-2.352103">
        <ele>1048.2</ele>
        <time>2023-02-11T09:16:52.000Z</time>
      </trkpt>
      <trkpt lat="41.836958" lon="-2.351999">
        <ele>1048.2</ele>
        <time>2023-02-11T09:16:53.000Z</time>
      </trkpt>
      <trkpt lat="41.837011" lon="-2.351893">
        <ele>1048</ele>
        <time>2023-02-11T09:16:54.000Z</time>
      </trkpt>
      <trkpt lat="41.837065" lon="-2.351787">
        <ele>1048.2</ele>
        <time>2023-02-11T09:16:55.000Z</time>
      </trkpt>
      <trkpt lat="41.83712" lon="-2.35168">
        <ele>1048.2</ele>
        <time>2023-02-11T09:16:56.000Z</time>
      </trkpt>
      <trkpt lat="41.837173" lon="-2.351571">
        <ele>1048.2</ele>
        <time>2023-02-11T09:16:57.000Z</time>
      </trkpt>
      <trkpt lat="41.837227" lon="-2.351462">
        <ele>1048.2</ele>
        <time>2023-02-11T09:16:58.000Z</time>
      </trkpt>
      <trkpt lat="41.837281" lon="-2.351353">
        <ele>1048</ele>
        <time>2023-02-11T09:16:59.000Z</time>
      </trkpt>
      <trkpt lat="41.837335" lon="-2.351245">
        <ele>1048</ele>
        <time>2023-02-11T09:17:00.000Z</time>
      </trkpt>
      <trkpt lat="41.83739" lon="-2.351137">
        <ele>1048.2</ele>
        <time>2023-02-11T09:17:01.000Z</time>
      </trkpt>
      <trkpt lat="41.837443" lon="-2.351029">
        <ele>1048.2</ele>
        <time>2023-02-11T09:17:02.000Z</time>
      </trkpt>
      <trkpt lat="41.837498" lon="-2.350921">
        <ele>1048.2</ele>
        <time>2023-02-11T09:17:03.000Z</time>
      </trkpt>
      <trkpt lat="41.837554" lon="-2.350813">
        <ele>1048.2</ele>
        <time>2023-02-11T09:17:04.000Z</time>
      </trkpt>
      <trkpt lat="41.837609" lon="-2.350706">
        <ele>1048.2</ele>
        <time>2023-02-11T09:17:05.000Z</time>
      </trkpt>
      <trkpt lat="41.837663" lon="-2.3506">
        <ele>1048.2</ele>
        <time>2023-02-11T09:17:06.000Z</time>
      </trkpt>
      <trkpt lat="41.837717" lon="-2.350494">
        <ele>1048.2</ele>
        <time>2023-02-11T09:17:07.000Z</time>
      </trkpt>
      <trkpt lat="41.837771" lon="-2.350388">
        <ele>1048.2</ele>
        <time>2023-02-11T09:17:08.000Z</time>
      </trkpt>
      <trkpt lat="41.837826" lon="-2.350284">
        <ele>1048.4</ele>
        <time>2023-02-11T09:17:09.000Z</time>
      </trkpt>
      <trkpt lat="41.837882" lon="-2.350183">
        <ele>1048.4</ele>
        <time>2023-02-11T09:17:10.000Z</time>
      </trkpt>
      <trkpt lat="41.837938" lon="-2.350081">
        <ele>1048.4</ele>
        <time>2023-02-11T09:17:11.000Z</time>
      </trkpt>
      <trkpt lat="41.837994" lon="-2.349981">
        <ele>1048.6</ele>
        <time>2023-02-11T09:17:12.000Z</time>
      </trkpt>
      <trkpt lat="41.838051" lon="-2.349883">
        <ele>1048.6</ele>
        <time>2023-02-11T09:17:13.000Z</time>
      </trkpt>
      <trkpt lat="41.838112" lon="-2.349788">
        <ele>1048.6</ele>
        <time>2023-02-11T09:17:14.000Z</time>
      </trkpt>
      <trkpt lat="41.838173" lon="-2.349695">
        <ele>1048.8</ele>
        <time>2023-02-11T09:17:15.000Z</time>
      </trkpt>
      <trkpt lat="41.838237" lon="-2.349604">
        <ele>1048.8</ele>
        <time>2023-02-11T09:17:16.000Z</time>
      </trkpt>
      <trkpt lat="41.838302" lon="-2.349511">
        <ele>1048.8</ele>
        <time>2023-02-11T09:17:17.000Z</time>
      </trkpt>
      <trkpt lat="41.838367" lon="-2.349419">
        <ele>1048.8</ele>
        <time>2023-02-11T09:17:18.000Z</time>
      </trkpt>
      <trkpt lat="41.838431" lon="-2.34933">
        <ele>1048.8</ele>
        <time>2023-02-11T09:17:19.000Z</time>
      </trkpt>
      <trkpt lat="41.838494" lon="-2.349238">
        <ele>1048.8</ele>
        <time>2023-02-11T09:17:20.000Z</time>
      </trkpt>
      <trkpt lat="41.838556" lon="-2.349146">
        <ele>1048.6</ele>
        <time>2023-02-11T09:17:21.000Z</time>
      </trkpt>
      <trkpt lat="41.838619" lon="-2.349055">
        <ele>1048.6</ele>
        <time>2023-02-11T09:17:22.000Z</time>
      </trkpt>
      <trkpt lat="41.838685" lon="-2.348965">
        <ele>1048.6</ele>
        <time>2023-02-11T09:17:23.000Z</time>
      </trkpt>
      <trkpt lat="41.838749" lon="-2.348874">
        <ele>1048.6</ele>
        <time>2023-02-11T09:17:24.000Z</time>
      </trkpt>
      <trkpt lat="41.838875" lon="-2.348685">
        <ele>1048.6</ele>
        <time>2023-02-11T09:17:25.000Z</time>
      </trkpt>
      <trkpt lat="41.838939" lon="-2.34859">
        <ele>1048.6</ele>
        <time>2023-02-11T09:17:26.000Z</time>
      </trkpt>
      <trkpt lat="41.839003" lon="-2.348497">
        <ele>1048.6</ele>
        <time>2023-02-11T09:17:27.000Z</time>
      </trkpt>
      <trkpt lat="41.839067" lon="-2.348406">
        <ele>1048.6</ele>
        <time>2023-02-11T09:17:28.000Z</time>
      </trkpt>
      <trkpt lat="41.839115" lon="-2.348337">
        <ele>1048.6</ele>
        <time>2023-02-11T09:17:29.000Z</time>
      </trkpt>
      <trkpt lat="41.839162" lon="-2.348268">
        <ele>1048.6</ele>
        <time>2023-02-11T09:17:30.000Z</time>
      </trkpt>
      <trkpt lat="41.839257" lon="-2.34813">
        <ele>1048.6</ele>
        <time>2023-02-11T09:17:31.000Z</time>
      </trkpt>
      <trkpt lat="41.839323" lon="-2.348038">
        <ele>1048.6</ele>
        <time>2023-02-11T09:17:32.000Z</time>
      </trkpt>
      <trkpt lat="41.839387" lon="-2.347947">
        <ele>1048.6</ele>
        <time>2023-02-11T09:17:33.000Z</time>
      </trkpt>
      <trkpt lat="41.839452" lon="-2.347853">
        <ele>1048.4</ele>
        <time>2023-02-11T09:17:34.000Z</time>
      </trkpt>
      <trkpt lat="41.839515" lon="-2.34776">
        <ele>1048.4</ele>
        <time>2023-02-11T09:17:35.000Z</time>
      </trkpt>
      <trkpt lat="41.839581" lon="-2.347669">
        <ele>1048.4</ele>
        <time>2023-02-11T09:17:36.000Z</time>
      </trkpt>
      <trkpt lat="41.839647" lon="-2.347577">
        <ele>1048.4</ele>
        <time>2023-02-11T09:17:37.000Z</time>
      </trkpt>
      <trkpt lat="41.839713" lon="-2.347484">
        <ele>1048.4</ele>
        <time>2023-02-11T09:17:38.000Z</time>
      </trkpt>
      <trkpt lat="41.83978" lon="-2.347393">
        <ele>1048.4</ele>
        <time>2023-02-11T09:17:39.000Z</time>
      </trkpt>
      <trkpt lat="41.839848" lon="-2.347301">
        <ele>1048.6</ele>
        <time>2023-02-11T09:17:40.000Z</time>
      </trkpt>
      <trkpt lat="41.839918" lon="-2.347209">
        <ele>1048.8</ele>
        <time>2023-02-11T09:17:41.000Z</time>
      </trkpt>
      <trkpt lat="41.839989" lon="-2.347117">
        <ele>1048.8</ele>
        <time>2023-02-11T09:17:42.000Z</time>
      </trkpt>
      <trkpt lat="41.840059" lon="-2.347026">
        <ele>1049</ele>
        <time>2023-02-11T09:17:43.000Z</time>
      </trkpt>
      <trkpt lat="41.840129" lon="-2.346937">
        <ele>1049</ele>
        <time>2023-02-11T09:17:44.000Z</time>
      </trkpt>
      <trkpt lat="41.840195" lon="-2.346851">
        <ele>1049.2</ele>
        <time>2023-02-11T09:17:45.000Z</time>
      </trkpt>
      <trkpt lat="41.840261" lon="-2.346767">
        <ele>1049.4</ele>
        <time>2023-02-11T09:17:46.000Z</time>
      </trkpt>
      <trkpt lat="41.840328" lon="-2.346682">
        <ele>1049.4</ele>
        <time>2023-02-11T09:17:47.000Z</time>
      </trkpt>
      <trkpt lat="41.840394" lon="-2.346598">
        <ele>1049.4</ele>
        <time>2023-02-11T09:17:48.000Z</time>
      </trkpt>
      <trkpt lat="41.840461" lon="-2.346514">
        <ele>1049.4</ele>
        <time>2023-02-11T09:17:49.000Z</time>
      </trkpt>
      <trkpt lat="41.840525" lon="-2.346428">
        <ele>1049.6</ele>
        <time>2023-02-11T09:17:50.000Z</time>
      </trkpt>
      <trkpt lat="41.840589" lon="-2.346342">
        <ele>1049.6</ele>
        <time>2023-02-11T09:17:51.000Z</time>
      </trkpt>
      <trkpt lat="41.840654" lon="-2.346255">
        <ele>1049.6</ele>
        <time>2023-02-11T09:17:52.000Z</time>
      </trkpt>
      <trkpt lat="41.840719" lon="-2.346168">
        <ele>1049.8</ele>
        <time>2023-02-11T09:17:53.000Z</time>
      </trkpt>
      <trkpt lat="41.840784" lon="-2.346081">
        <ele>1049.8</ele>
        <time>2023-02-11T09:17:54.000Z</time>
      </trkpt>
      <trkpt lat="41.840847" lon="-2.345994">
        <ele>1050</ele>
        <time>2023-02-11T09:17:55.000Z</time>
      </trkpt>
      <trkpt lat="41.84091" lon="-2.345907">
        <ele>1050</ele>
        <time>2023-02-11T09:17:56.000Z</time>
      </trkpt>
      <trkpt lat="41.840972" lon="-2.345823">
        <ele>1050.2</ele>
        <time>2023-02-11T09:17:57.000Z</time>
      </trkpt>
      <trkpt lat="41.841033" lon="-2.345737">
        <ele>1050.4</ele>
        <time>2023-02-11T09:17:58.000Z</time>
      </trkpt>
      <trkpt lat="41.84108" lon="-2.345673">
        <ele>1050.2</ele>
        <time>2023-02-11T09:17:59.000Z</time>
      </trkpt>
      <trkpt lat="41.841127" lon="-2.345608">
        <ele>1050.4</ele>
        <time>2023-02-11T09:18:00.000Z</time>
      </trkpt>
      <trkpt lat="41.84122" lon="-2.345479">
        <ele>1050.4</ele>
        <time>2023-02-11T09:18:01.000Z</time>
      </trkpt>
      <trkpt lat="41.841281" lon="-2.345397">
        <ele>1050.4</ele>
        <time>2023-02-11T09:18:02.000Z</time>
      </trkpt>
      <trkpt lat="41.841338" lon="-2.345315">
        <ele>1050.2</ele>
        <time>2023-02-11T09:18:03.000Z</time>
      </trkpt>
      <trkpt lat="41.841397" lon="-2.345232">
        <ele>1050.6</ele>
        <time>2023-02-11T09:18:04.000Z</time>
      </trkpt>
      <trkpt lat="41.841459" lon="-2.345149">
        <ele>1050.6</ele>
        <time>2023-02-11T09:18:05.000Z</time>
      </trkpt>
      <trkpt lat="41.84152" lon="-2.345066">
        <ele>1050.6</ele>
        <time>2023-02-11T09:18:06.000Z</time>
      </trkpt>
      <trkpt lat="41.841581" lon="-2.344981">
        <ele>1050.6</ele>
        <time>2023-02-11T09:18:07.000Z</time>
      </trkpt>
      <trkpt lat="41.841641" lon="-2.344897">
        <ele>1050.8</ele>
        <time>2023-02-11T09:18:08.000Z</time>
      </trkpt>
      <trkpt lat="41.841702" lon="-2.344812">
        <ele>1050.8</ele>
        <time>2023-02-11T09:18:09.000Z</time>
      </trkpt>
      <trkpt lat="41.841762" lon="-2.344729">
        <ele>1050.8</ele>
        <time>2023-02-11T09:18:10.000Z</time>
      </trkpt>
      <trkpt lat="41.841822" lon="-2.344645">
        <ele>1051</ele>
        <time>2023-02-11T09:18:11.000Z</time>
      </trkpt>
      <trkpt lat="41.841885" lon="-2.344559">
        <ele>1051</ele>
        <time>2023-02-11T09:18:12.000Z</time>
      </trkpt>
      <trkpt lat="41.841946" lon="-2.344474">
        <ele>1051</ele>
        <time>2023-02-11T09:18:13.000Z</time>
      </trkpt>
      <trkpt lat="41.842008" lon="-2.344388">
        <ele>1051</ele>
        <time>2023-02-11T09:18:14.000Z</time>
      </trkpt>
      <trkpt lat="41.842072" lon="-2.344302">
        <ele>1051</ele>
        <time>2023-02-11T09:18:15.000Z</time>
      </trkpt>
      <trkpt lat="41.842137" lon="-2.344221">
        <ele>1051</ele>
        <time>2023-02-11T09:18:16.000Z</time>
      </trkpt>
      <trkpt lat="41.842202" lon="-2.344142">
        <ele>1051</ele>
        <time>2023-02-11T09:18:17.000Z</time>
      </trkpt>
      <trkpt lat="41.842269" lon="-2.344067">
        <ele>1051</ele>
        <time>2023-02-11T09:18:18.000Z</time>
      </trkpt>
      <trkpt lat="41.842338" lon="-2.343994">
        <ele>1051</ele>
        <time>2023-02-11T09:18:19.000Z</time>
      </trkpt>
      <trkpt lat="41.842411" lon="-2.343923">
        <ele>1050.8</ele>
        <time>2023-02-11T09:18:20.000Z</time>
      </trkpt>
      <trkpt lat="41.842483" lon="-2.343856">
        <ele>1050.8</ele>
        <time>2023-02-11T09:18:21.000Z</time>
      </trkpt>
      <trkpt lat="41.842557" lon="-2.343789">
        <ele>1050.8</ele>
        <time>2023-02-11T09:18:22.000Z</time>
      </trkpt>
      <trkpt lat="41.842628" lon="-2.343724">
        <ele>1050.8</ele>
        <time>2023-02-11T09:18:23.000Z</time>
      </trkpt>
      <trkpt lat="41.8427" lon="-2.343658">
        <ele>1050.8</ele>
        <time>2023-02-11T09:18:24.000Z</time>
      </trkpt>
      <trkpt lat="41.84277" lon="-2.343596">
        <ele>1050.8</ele>
        <time>2023-02-11T09:18:25.000Z</time>
      </trkpt>
      <trkpt lat="41.842842" lon="-2.343537">
        <ele>1050.8</ele>
        <time>2023-02-11T09:18:26.000Z</time>
      </trkpt>
      <trkpt lat="41.842912" lon="-2.34348">
        <ele>1050.8</ele>
        <time>2023-02-11T09:18:27.000Z</time>
      </trkpt>
      <trkpt lat="41.842983" lon="-2.343425">
        <ele>1050.8</ele>
        <time>2023-02-11T09:18:28.000Z</time>
      </trkpt>
      <trkpt lat="41.843052" lon="-2.343365">
        <ele>1050.8</ele>
        <time>2023-02-11T09:18:29.000Z</time>
      </trkpt>
      <trkpt lat="41.84312" lon="-2.343299">
        <ele>1051</ele>
        <time>2023-02-11T09:18:30.000Z</time>
      </trkpt>
      <trkpt lat="41.84319" lon="-2.343232">
        <ele>1051.2</ele>
        <time>2023-02-11T09:18:31.000Z</time>
      </trkpt>
      <trkpt lat="41.843262" lon="-2.343163">
        <ele>1051.2</ele>
        <time>2023-02-11T09:18:32.000Z</time>
      </trkpt>
      <trkpt lat="41.843317" lon="-2.343113">
        <ele>1051.4</ele>
        <time>2023-02-11T09:18:33.000Z</time>
      </trkpt>
      <trkpt lat="41.843373" lon="-2.343063">
        <ele>1051.6</ele>
        <time>2023-02-11T09:18:34.000Z</time>
      </trkpt>
      <trkpt lat="41.843483" lon="-2.342963">
        <ele>1051.8</ele>
        <time>2023-02-11T09:18:35.000Z</time>
      </trkpt>
      <trkpt lat="41.843538" lon="-2.342917">
        <ele>1052</ele>
        <time>2023-02-11T09:18:36.000Z</time>
      </trkpt>
      <trkpt lat="41.843593" lon="-2.34287">
        <ele>1052</ele>
        <time>2023-02-11T09:18:37.000Z</time>
      </trkpt>
      <trkpt lat="41.843702" lon="-2.342777">
        <ele>1052.2</ele>
        <time>2023-02-11T09:18:38.000Z</time>
      </trkpt>
      <trkpt lat="41.84378" lon="-2.342718">
        <ele>1052.2</ele>
        <time>2023-02-11T09:18:39.000Z</time>
      </trkpt>
      <trkpt lat="41.843859" lon="-2.34266">
        <ele>1052.2</ele>
        <time>2023-02-11T09:18:40.000Z</time>
      </trkpt>
      <trkpt lat="41.843938" lon="-2.342608">
        <ele>1052.4</ele>
        <time>2023-02-11T09:18:41.000Z</time>
      </trkpt>
      <trkpt lat="41.844017" lon="-2.342557">
        <ele>1052.4</ele>
        <time>2023-02-11T09:18:42.000Z</time>
      </trkpt>
      <trkpt lat="41.844095" lon="-2.342508">
        <ele>1052.2</ele>
        <time>2023-02-11T09:18:43.000Z</time>
      </trkpt>
      <trkpt lat="41.844172" lon="-2.342463">
        <ele>1052.2</ele>
        <time>2023-02-11T09:18:44.000Z</time>
      </trkpt>
      <trkpt lat="41.844252" lon="-2.342419">
        <ele>1052.2</ele>
        <time>2023-02-11T09:18:45.000Z</time>
      </trkpt>
      <trkpt lat="41.844334" lon="-2.342376">
        <ele>1052.2</ele>
        <time>2023-02-11T09:18:46.000Z</time>
      </trkpt>
      <trkpt lat="41.844417" lon="-2.342338">
        <ele>1052.2</ele>
        <time>2023-02-11T09:18:47.000Z</time>
      </trkpt>
      <trkpt lat="41.8445" lon="-2.342303">
        <ele>1052.2</ele>
        <time>2023-02-11T09:18:48.000Z</time>
      </trkpt>
      <trkpt lat="41.844584" lon="-2.342269">
        <ele>1052.2</ele>
        <time>2023-02-11T09:18:49.000Z</time>
      </trkpt>
      <trkpt lat="41.844671" lon="-2.342237">
        <ele>1052.2</ele>
        <time>2023-02-11T09:18:50.000Z</time>
      </trkpt>
      <trkpt lat="41.844755" lon="-2.342207">
        <ele>1052.2</ele>
        <time>2023-02-11T09:18:51.000Z</time>
      </trkpt>
      <trkpt lat="41.844839" lon="-2.342174">
        <ele>1052.2</ele>
        <time>2023-02-11T09:18:52.000Z</time>
      </trkpt>
      <trkpt lat="41.844921" lon="-2.342142">
        <ele>1052.2</ele>
        <time>2023-02-11T09:18:53.000Z</time>
      </trkpt>
      <trkpt lat="41.845006" lon="-2.342111">
        <ele>1052.2</ele>
        <time>2023-02-11T09:18:54.000Z</time>
      </trkpt>
      <trkpt lat="41.845089" lon="-2.342081">
        <ele>1052.2</ele>
        <time>2023-02-11T09:18:55.000Z</time>
      </trkpt>
      <trkpt lat="41.84517" lon="-2.34205">
        <ele>1052.4</ele>
        <time>2023-02-11T09:18:56.000Z</time>
      </trkpt>
      <trkpt lat="41.845254" lon="-2.342019">
        <ele>1052.4</ele>
        <time>2023-02-11T09:18:57.000Z</time>
      </trkpt>
      <trkpt lat="41.84534" lon="-2.341987">
        <ele>1052.4</ele>
        <time>2023-02-11T09:18:58.000Z</time>
      </trkpt>
      <trkpt lat="41.845425" lon="-2.341956">
        <ele>1052</ele>
        <time>2023-02-11T09:18:59.000Z</time>
      </trkpt>
      <trkpt lat="41.845512" lon="-2.341925">
        <ele>1052.2</ele>
        <time>2023-02-11T09:19:00.000Z</time>
      </trkpt>
      <trkpt lat="41.845598" lon="-2.341892">
        <ele>1052.2</ele>
        <time>2023-02-11T09:19:01.000Z</time>
      </trkpt>
      <trkpt lat="41.845685" lon="-2.34186">
        <ele>1052.2</ele>
        <time>2023-02-11T09:19:02.000Z</time>
      </trkpt>
      <trkpt lat="41.845771" lon="-2.34183">
        <ele>1052.2</ele>
        <time>2023-02-11T09:19:03.000Z</time>
      </trkpt>
      <trkpt lat="41.845859" lon="-2.3418">
        <ele>1052.4</ele>
        <time>2023-02-11T09:19:04.000Z</time>
      </trkpt>
      <trkpt lat="41.845944" lon="-2.341769">
        <ele>1052.4</ele>
        <time>2023-02-11T09:19:05.000Z</time>
      </trkpt>
      <trkpt lat="41.846032" lon="-2.341736">
        <ele>1052.4</ele>
        <time>2023-02-11T09:19:06.000Z</time>
      </trkpt>
      <trkpt lat="41.84612" lon="-2.341702">
        <ele>1052.4</ele>
        <time>2023-02-11T09:19:07.000Z</time>
      </trkpt>
      <trkpt lat="41.846207" lon="-2.34167">
        <ele>1052.2</ele>
        <time>2023-02-11T09:19:08.000Z</time>
      </trkpt>
      <trkpt lat="41.846295" lon="-2.341637">
        <ele>1052</ele>
        <time>2023-02-11T09:19:09.000Z</time>
      </trkpt>
      <trkpt lat="41.846384" lon="-2.341604">
        <ele>1052</ele>
        <time>2023-02-11T09:19:10.000Z</time>
      </trkpt>
      <trkpt lat="41.846473" lon="-2.34157">
        <ele>1052.2</ele>
        <time>2023-02-11T09:19:11.000Z</time>
      </trkpt>
      <trkpt lat="41.846561" lon="-2.341537">
        <ele>1052.2</ele>
        <time>2023-02-11T09:19:12.000Z</time>
      </trkpt>
      <trkpt lat="41.846646" lon="-2.341505">
        <ele>1052.2</ele>
        <time>2023-02-11T09:19:13.000Z</time>
      </trkpt>
      <trkpt lat="41.846733" lon="-2.341472">
        <ele>1052.2</ele>
        <time>2023-02-11T09:19:14.000Z</time>
      </trkpt>
      <trkpt lat="41.846819" lon="-2.341441">
        <ele>1052.2</ele>
        <time>2023-02-11T09:19:15.000Z</time>
      </trkpt>
      <trkpt lat="41.846907" lon="-2.34141">
        <ele>1052</ele>
        <time>2023-02-11T09:19:16.000Z</time>
      </trkpt>
      <trkpt lat="41.846994" lon="-2.341379">
        <ele>1052</ele>
        <time>2023-02-11T09:19:17.000Z</time>
      </trkpt>
      <trkpt lat="41.847081" lon="-2.341348">
        <ele>1052</ele>
        <time>2023-02-11T09:19:18.000Z</time>
      </trkpt>
      <trkpt lat="41.847164" lon="-2.341317">
        <ele>1052</ele>
        <time>2023-02-11T09:19:19.000Z</time>
      </trkpt>
      <trkpt lat="41.847246" lon="-2.341287">
        <ele>1052.2</ele>
        <time>2023-02-11T09:19:20.000Z</time>
      </trkpt>
      <trkpt lat="41.847331" lon="-2.341256">
        <ele>1052.2</ele>
        <time>2023-02-11T09:19:21.000Z</time>
      </trkpt>
      <trkpt lat="41.847415" lon="-2.341223">
        <ele>1052.2</ele>
        <time>2023-02-11T09:19:22.000Z</time>
      </trkpt>
      <trkpt lat="41.847498" lon="-2.341191">
        <ele>1052.4</ele>
        <time>2023-02-11T09:19:23.000Z</time>
      </trkpt>
      <trkpt lat="41.847582" lon="-2.341159">
        <ele>1052.4</ele>
        <time>2023-02-11T09:19:24.000Z</time>
      </trkpt>
      <trkpt lat="41.847665" lon="-2.341125">
        <ele>1052.6</ele>
        <time>2023-02-11T09:19:25.000Z</time>
      </trkpt>
      <trkpt lat="41.847748" lon="-2.341095">
        <ele>1052.6</ele>
        <time>2023-02-11T09:19:26.000Z</time>
      </trkpt>
      <trkpt lat="41.847829" lon="-2.341063">
        <ele>1052.8</ele>
        <time>2023-02-11T09:19:27.000Z</time>
      </trkpt>
      <trkpt lat="41.847911" lon="-2.341029">
        <ele>1052.8</ele>
        <time>2023-02-11T09:19:28.000Z</time>
      </trkpt>
      <trkpt lat="41.847992" lon="-2.340995">
        <ele>1053</ele>
        <time>2023-02-11T09:19:29.000Z</time>
      </trkpt>
      <trkpt lat="41.848072" lon="-2.340963">
        <ele>1053</ele>
        <time>2023-02-11T09:19:30.000Z</time>
      </trkpt>
      <trkpt lat="41.848154" lon="-2.340928">
        <ele>1053</ele>
        <time>2023-02-11T09:19:31.000Z</time>
      </trkpt>
      <trkpt lat="41.848233" lon="-2.34089">
        <ele>1053.2</ele>
        <time>2023-02-11T09:19:32.000Z</time>
      </trkpt>
      <trkpt lat="41.848311" lon="-2.340852">
        <ele>1053.4</ele>
        <time>2023-02-11T09:19:33.000Z</time>
      </trkpt>
      <trkpt lat="41.848389" lon="-2.340815">
        <ele>1053.6</ele>
        <time>2023-02-11T09:19:34.000Z</time>
      </trkpt>
      <trkpt lat="41.84847" lon="-2.340778">
        <ele>1053.8</ele>
        <time>2023-02-11T09:19:35.000Z</time>
      </trkpt>
      <trkpt lat="41.848552" lon="-2.340739">
        <ele>1053.8</ele>
        <time>2023-02-11T09:19:36.000Z</time>
      </trkpt>
      <trkpt lat="41.848629" lon="-2.340702">
        <ele>1054</ele>
        <time>2023-02-11T09:19:37.000Z</time>
      </trkpt>
      <trkpt lat="41.84871" lon="-2.340664">
        <ele>1054</ele>
        <time>2023-02-11T09:19:38.000Z</time>
      </trkpt>
      <trkpt lat="41.848791" lon="-2.340623">
        <ele>1054</ele>
        <time>2023-02-11T09:19:39.000Z</time>
      </trkpt>
      <trkpt lat="41.848871" lon="-2.340582">
        <ele>1054.2</ele>
        <time>2023-02-11T09:19:40.000Z</time>
      </trkpt>
      <trkpt lat="41.84895" lon="-2.34054">
        <ele>1054.4</ele>
        <time>2023-02-11T09:19:41.000Z</time>
      </trkpt>
      <trkpt lat="41.849028" lon="-2.340498">
        <ele>1054.4</ele>
        <time>2023-02-11T09:19:42.000Z</time>
      </trkpt>
      <trkpt lat="41.849102" lon="-2.340458">
        <ele>1054.6</ele>
        <time>2023-02-11T09:19:43.000Z</time>
      </trkpt>
      <trkpt lat="41.849175" lon="-2.340419">
        <ele>1054.6</ele>
        <time>2023-02-11T09:19:44.000Z</time>
      </trkpt>
      <trkpt lat="41.849248" lon="-2.340381">
        <ele>1055</ele>
        <time>2023-02-11T09:19:45.000Z</time>
      </trkpt>
      <trkpt lat="41.84932" lon="-2.34035">
        <ele>1055.2</ele>
        <time>2023-02-11T09:19:46.000Z</time>
      </trkpt>
      <trkpt lat="41.849392" lon="-2.340319">
        <ele>1055.4</ele>
        <time>2023-02-11T09:19:47.000Z</time>
      </trkpt>
      <trkpt lat="41.849465" lon="-2.340282">
        <ele>1055.6</ele>
        <time>2023-02-11T09:19:48.000Z</time>
      </trkpt>
      <trkpt lat="41.849539" lon="-2.340246">
        <ele>1055.8</ele>
        <time>2023-02-11T09:19:49.000Z</time>
      </trkpt>
      <trkpt lat="41.849612" lon="-2.340212">
        <ele>1056</ele>
        <time>2023-02-11T09:19:50.000Z</time>
      </trkpt>
      <trkpt lat="41.849681" lon="-2.340177">
        <ele>1056.2</ele>
        <time>2023-02-11T09:19:51.000Z</time>
      </trkpt>
      <trkpt lat="41.849747" lon="-2.340134">
        <ele>1056.4</ele>
        <time>2023-02-11T09:19:52.000Z</time>
      </trkpt>
      <trkpt lat="41.849806" lon="-2.340079">
        <ele>1056.4</ele>
        <time>2023-02-11T09:19:53.000Z</time>
      </trkpt>
      <trkpt lat="41.849861" lon="-2.340004">
        <ele>1056.6</ele>
        <time>2023-02-11T09:19:54.000Z</time>
      </trkpt>
      <trkpt lat="41.8499" lon="-2.339907">
        <ele>1056.8</ele>
        <time>2023-02-11T09:19:55.000Z</time>
      </trkpt>
      <trkpt lat="41.849929" lon="-2.339801">
        <ele>1056.8</ele>
        <time>2023-02-11T09:19:56.000Z</time>
      </trkpt>
      <trkpt lat="41.849957" lon="-2.339696">
        <ele>1057</ele>
        <time>2023-02-11T09:19:57.000Z</time>
      </trkpt>
      <trkpt lat="41.849989" lon="-2.339592">
        <ele>1057.2</ele>
        <time>2023-02-11T09:19:58.000Z</time>
      </trkpt>
      <trkpt lat="41.850022" lon="-2.339487">
        <ele>1057.2</ele>
        <time>2023-02-11T09:19:59.000Z</time>
      </trkpt>
      <trkpt lat="41.85005" lon="-2.339383">
        <ele>1057.4</ele>
        <time>2023-02-11T09:20:00.000Z</time>
      </trkpt>
      <trkpt lat="41.850082" lon="-2.339281">
        <ele>1057.4</ele>
        <time>2023-02-11T09:20:01.000Z</time>
      </trkpt>
      <trkpt lat="41.85012" lon="-2.339182">
        <ele>1057.6</ele>
        <time>2023-02-11T09:20:02.000Z</time>
      </trkpt>
      <trkpt lat="41.85017" lon="-2.339097">
        <ele>1057.6</ele>
        <time>2023-02-11T09:20:03.000Z</time>
      </trkpt>
      <trkpt lat="41.85023" lon="-2.339029">
        <ele>1057.6</ele>
        <time>2023-02-11T09:20:04.000Z</time>
      </trkpt>
      <trkpt lat="41.850295" lon="-2.338974">
        <ele>1057.8</ele>
        <time>2023-02-11T09:20:05.000Z</time>
      </trkpt>
      <trkpt lat="41.850362" lon="-2.338925">
        <ele>1057.8</ele>
        <time>2023-02-11T09:20:06.000Z</time>
      </trkpt>
      <trkpt lat="41.850425" lon="-2.338878">
        <ele>1057.8</ele>
        <time>2023-02-11T09:20:07.000Z</time>
      </trkpt>
      <trkpt lat="41.850494" lon="-2.338827">
        <ele>1058</ele>
        <time>2023-02-11T09:20:08.000Z</time>
      </trkpt>
      <trkpt lat="41.850569" lon="-2.338771">
        <ele>1058</ele>
        <time>2023-02-11T09:20:09.000Z</time>
      </trkpt>
      <trkpt lat="41.850649" lon="-2.33871">
        <ele>1058</ele>
        <time>2023-02-11T09:20:10.000Z</time>
      </trkpt>
      <trkpt lat="41.850727" lon="-2.338647">
        <ele>1058</ele>
        <time>2023-02-11T09:20:11.000Z</time>
      </trkpt>
      <trkpt lat="41.850806" lon="-2.338581">
        <ele>1058</ele>
        <time>2023-02-11T09:20:12.000Z</time>
      </trkpt>
      <trkpt lat="41.850879" lon="-2.338529">
        <ele>1058</ele>
        <time>2023-02-11T09:20:13.000Z</time>
      </trkpt>
      <trkpt lat="41.85095" lon="-2.338485">
        <ele>1057.8</ele>
        <time>2023-02-11T09:20:14.000Z</time>
      </trkpt>
      <trkpt lat="41.851019" lon="-2.338446">
        <ele>1057.8</ele>
        <time>2023-02-11T09:20:15.000Z</time>
      </trkpt>
      <trkpt lat="41.851082" lon="-2.338397">
        <ele>1057.8</ele>
        <time>2023-02-11T09:20:16.000Z</time>
      </trkpt>
      <trkpt lat="41.851145" lon="-2.338342">
        <ele>1057.6</ele>
        <time>2023-02-11T09:20:17.000Z</time>
      </trkpt>
      <trkpt lat="41.851192" lon="-2.338267">
        <ele>1057.6</ele>
        <time>2023-02-11T09:20:18.000Z</time>
      </trkpt>
      <trkpt lat="41.851212" lon="-2.338168">
        <ele>1057.6</ele>
        <time>2023-02-11T09:20:19.000Z</time>
      </trkpt>
      <trkpt lat="41.851234" lon="-2.3381">
        <ele>1057.6</ele>
        <time>2023-02-11T09:20:20.000Z</time>
      </trkpt>
      <trkpt lat="41.851256" lon="-2.338031">
        <ele>1057.6</ele>
        <time>2023-02-11T09:20:21.000Z</time>
      </trkpt>
      <trkpt lat="41.851299" lon="-2.337895">
        <ele>1057.6</ele>
        <time>2023-02-11T09:20:22.000Z</time>
      </trkpt>
      <trkpt lat="41.851351" lon="-2.337846">
        <ele>1057.6</ele>
        <time>2023-02-11T09:20:23.000Z</time>
      </trkpt>
      <trkpt lat="41.851418" lon="-2.337818">
        <ele>1057.4</ele>
        <time>2023-02-11T09:20:24.000Z</time>
      </trkpt>
      <trkpt lat="41.85149" lon="-2.337799">
        <ele>1057.4</ele>
        <time>2023-02-11T09:20:25.000Z</time>
      </trkpt>
      <trkpt lat="41.851552" lon="-2.337784">
        <ele>1057.4</ele>
        <time>2023-02-11T09:20:26.000Z</time>
      </trkpt>
      <trkpt lat="41.851617" lon="-2.337767">
        <ele>1057.4</ele>
        <time>2023-02-11T09:20:27.000Z</time>
      </trkpt>
      <trkpt lat="41.85168" lon="-2.337745">
        <ele>1057.4</ele>
        <time>2023-02-11T09:20:28.000Z</time>
      </trkpt>
      <trkpt lat="41.851715" lon="-2.337718">
        <ele>1057.6</ele>
        <time>2023-02-11T09:20:29.000Z</time>
      </trkpt>
      <trkpt lat="41.851751" lon="-2.337691">
        <ele>1057.8</ele>
        <time>2023-02-11T09:20:30.000Z</time>
      </trkpt>
      <trkpt lat="41.851822" lon="-2.337636">
        <ele>1057.8</ele>
        <time>2023-02-11T09:20:31.000Z</time>
      </trkpt>
      <trkpt lat="41.851834" lon="-2.337563">
        <ele>1057.8</ele>
        <time>2023-02-11T09:20:32.000Z</time>
      </trkpt>
      <trkpt lat="41.851811" lon="-2.337483">
        <ele>1057.8</ele>
        <time>2023-02-11T09:20:33.000Z</time>
      </trkpt>
      <trkpt lat="41.85177" lon="-2.337403">
        <ele>1057.8</ele>
        <time>2023-02-11T09:20:34.000Z</time>
      </trkpt>
      <trkpt lat="41.851734" lon="-2.337331">
        <ele>1058</ele>
        <time>2023-02-11T09:20:35.000Z</time>
      </trkpt>
      <trkpt lat="41.851702" lon="-2.337257">
        <ele>1058</ele>
        <time>2023-02-11T09:20:36.000Z</time>
      </trkpt>
      <trkpt lat="41.851668" lon="-2.337185">
        <ele>1058.2</ele>
        <time>2023-02-11T09:20:37.000Z</time>
      </trkpt>
      <trkpt lat="41.851662" lon="-2.337125">
        <ele>1058.2</ele>
        <time>2023-02-11T09:20:38.000Z</time>
      </trkpt>
      <trkpt lat="41.851657" lon="-2.337066">
        <ele>1058.4</ele>
        <time>2023-02-11T09:20:39.000Z</time>
      </trkpt>
      <trkpt lat="41.851646" lon="-2.336947">
        <ele>1058.6</ele>
        <time>2023-02-11T09:20:40.000Z</time>
      </trkpt>
      <trkpt lat="41.851664" lon="-2.336874">
        <ele>1058.8</ele>
        <time>2023-02-11T09:20:41.000Z</time>
      </trkpt>
      <trkpt lat="41.851685" lon="-2.336804">
        <ele>1059</ele>
        <time>2023-02-11T09:20:42.000Z</time>
      </trkpt>
      <trkpt lat="41.85171" lon="-2.336732">
        <ele>1059.2</ele>
        <time>2023-02-11T09:20:43.000Z</time>
      </trkpt>
      <trkpt lat="41.851737" lon="-2.336658">
        <ele>1059.4</ele>
        <time>2023-02-11T09:20:44.000Z</time>
      </trkpt>
      <trkpt lat="41.851758" lon="-2.336583">
        <ele>1059.4</ele>
        <time>2023-02-11T09:20:45.000Z</time>
      </trkpt>
      <trkpt lat="41.85178" lon="-2.336499">
        <ele>1059.8</ele>
        <time>2023-02-11T09:20:46.000Z</time>
      </trkpt>
      <trkpt lat="41.851807" lon="-2.33641">
        <ele>1060</ele>
        <time>2023-02-11T09:20:47.000Z</time>
      </trkpt>
      <trkpt lat="41.851831" lon="-2.336323">
        <ele>1060</ele>
        <time>2023-02-11T09:20:48.000Z</time>
      </trkpt>
      <trkpt lat="41.851853" lon="-2.336236">
        <ele>1060.2</ele>
        <time>2023-02-11T09:20:49.000Z</time>
      </trkpt>
      <trkpt lat="41.851876" lon="-2.33615">
        <ele>1060.4</ele>
        <time>2023-02-11T09:20:50.000Z</time>
      </trkpt>
      <trkpt lat="41.851897" lon="-2.336066">
        <ele>1060.6</ele>
        <time>2023-02-11T09:20:51.000Z</time>
      </trkpt>
      <trkpt lat="41.851919" lon="-2.33598">
        <ele>1060.4</ele>
        <time>2023-02-11T09:20:52.000Z</time>
      </trkpt>
      <trkpt lat="41.85194" lon="-2.335892">
        <ele>1060.8</ele>
        <time>2023-02-11T09:20:53.000Z</time>
      </trkpt>
      <trkpt lat="41.851964" lon="-2.335802">
        <ele>1060.6</ele>
        <time>2023-02-11T09:20:54.000Z</time>
      </trkpt>
      <trkpt lat="41.851986" lon="-2.335709">
        <ele>1060.6</ele>
        <time>2023-02-11T09:20:55.000Z</time>
      </trkpt>
      <trkpt lat="41.852011" lon="-2.335615">
        <ele>1060.6</ele>
        <time>2023-02-11T09:20:56.000Z</time>
      </trkpt>
      <trkpt lat="41.852037" lon="-2.335521">
        <ele>1060.8</ele>
        <time>2023-02-11T09:20:57.000Z</time>
      </trkpt>
      <trkpt lat="41.852063" lon="-2.335426">
        <ele>1060.8</ele>
        <time>2023-02-11T09:20:58.000Z</time>
      </trkpt>
      <trkpt lat="41.852085" lon="-2.33533">
        <ele>1060.8</ele>
        <time>2023-02-11T09:20:59.000Z</time>
      </trkpt>
      <trkpt lat="41.852112" lon="-2.335234">
        <ele>1060.8</ele>
        <time>2023-02-11T09:21:00.000Z</time>
      </trkpt>
      <trkpt lat="41.852135" lon="-2.33514">
        <ele>1060.8</ele>
        <time>2023-02-11T09:21:01.000Z</time>
      </trkpt>
      <trkpt lat="41.852158" lon="-2.335046">
        <ele>1060.8</ele>
        <time>2023-02-11T09:21:02.000Z</time>
      </trkpt>
      <trkpt lat="41.852184" lon="-2.334951">
        <ele>1060.8</ele>
        <time>2023-02-11T09:21:03.000Z</time>
      </trkpt>
      <trkpt lat="41.852208" lon="-2.334855">
        <ele>1060.8</ele>
        <time>2023-02-11T09:21:04.000Z</time>
      </trkpt>
      <trkpt lat="41.852232" lon="-2.334759">
        <ele>1060.8</ele>
        <time>2023-02-11T09:21:05.000Z</time>
      </trkpt>
      <trkpt lat="41.852252" lon="-2.33466">
        <ele>1060.6</ele>
        <time>2023-02-11T09:21:06.000Z</time>
      </trkpt>
      <trkpt lat="41.852268" lon="-2.334561">
        <ele>1060.6</ele>
        <time>2023-02-11T09:21:07.000Z</time>
      </trkpt>
      <trkpt lat="41.852285" lon="-2.33446">
        <ele>1060.6</ele>
        <time>2023-02-11T09:21:08.000Z</time>
      </trkpt>
      <trkpt lat="41.8523" lon="-2.334361">
        <ele>1060.6</ele>
        <time>2023-02-11T09:21:09.000Z</time>
      </trkpt>
      <trkpt lat="41.852314" lon="-2.334261">
        <ele>1060.6</ele>
        <time>2023-02-11T09:21:10.000Z</time>
      </trkpt>
      <trkpt lat="41.852328" lon="-2.334158">
        <ele>1060.6</ele>
        <time>2023-02-11T09:21:11.000Z</time>
      </trkpt>
      <trkpt lat="41.852344" lon="-2.334056">
        <ele>1060.8</ele>
        <time>2023-02-11T09:21:12.000Z</time>
      </trkpt>
      <trkpt lat="41.852359" lon="-2.333953">
        <ele>1060.6</ele>
        <time>2023-02-11T09:21:13.000Z</time>
      </trkpt>
      <trkpt lat="41.852371" lon="-2.333853">
        <ele>1060.6</ele>
        <time>2023-02-11T09:21:14.000Z</time>
      </trkpt>
      <trkpt lat="41.852383" lon="-2.333752">
        <ele>1060.6</ele>
        <time>2023-02-11T09:21:15.000Z</time>
      </trkpt>
      <trkpt lat="41.852396" lon="-2.333649">
        <ele>1060.6</ele>
        <time>2023-02-11T09:21:16.000Z</time>
      </trkpt>
      <trkpt lat="41.85241" lon="-2.333546">
        <ele>1060.6</ele>
        <time>2023-02-11T09:21:17.000Z</time>
      </trkpt>
      <trkpt lat="41.852424" lon="-2.333444">
        <ele>1061</ele>
        <time>2023-02-11T09:21:18.000Z</time>
      </trkpt>
      <trkpt lat="41.852439" lon="-2.333342">
        <ele>1061</ele>
        <time>2023-02-11T09:21:19.000Z</time>
      </trkpt>
      <trkpt lat="41.852453" lon="-2.333242">
        <ele>1061.2</ele>
        <time>2023-02-11T09:21:20.000Z</time>
      </trkpt>
      <trkpt lat="41.85247" lon="-2.33314">
        <ele>1061.2</ele>
        <time>2023-02-11T09:21:21.000Z</time>
      </trkpt>
      <trkpt lat="41.852487" lon="-2.33304">
        <ele>1061.2</ele>
        <time>2023-02-11T09:21:22.000Z</time>
      </trkpt>
      <trkpt lat="41.852508" lon="-2.332942">
        <ele>1061.4</ele>
        <time>2023-02-11T09:21:23.000Z</time>
      </trkpt>
      <trkpt lat="41.852535" lon="-2.332844">
        <ele>1061.4</ele>
        <time>2023-02-11T09:21:24.000Z</time>
      </trkpt>
      <trkpt lat="41.852565" lon="-2.332745">
        <ele>1061.4</ele>
        <time>2023-02-11T09:21:25.000Z</time>
      </trkpt>
      <trkpt lat="41.852597" lon="-2.332647">
        <ele>1061.4</ele>
        <time>2023-02-11T09:21:26.000Z</time>
      </trkpt>
      <trkpt lat="41.852632" lon="-2.332548">
        <ele>1061.6</ele>
        <time>2023-02-11T09:21:27.000Z</time>
      </trkpt>
      <trkpt lat="41.852669" lon="-2.332448">
        <ele>1061.6</ele>
        <time>2023-02-11T09:21:28.000Z</time>
      </trkpt>
      <trkpt lat="41.852708" lon="-2.332347">
        <ele>1061.6</ele>
        <time>2023-02-11T09:21:29.000Z</time>
      </trkpt>
      <trkpt lat="41.852751" lon="-2.332241">
        <ele>1061.6</ele>
        <time>2023-02-11T09:21:30.000Z</time>
      </trkpt>
      <trkpt lat="41.852794" lon="-2.332133">
        <ele>1061.6</ele>
        <time>2023-02-11T09:21:31.000Z</time>
      </trkpt>
      <trkpt lat="41.852836" lon="-2.332026">
        <ele>1061.4</ele>
        <time>2023-02-11T09:21:32.000Z</time>
      </trkpt>
      <trkpt lat="41.852879" lon="-2.331917">
        <ele>1061.4</ele>
        <time>2023-02-11T09:21:33.000Z</time>
      </trkpt>
      <trkpt lat="41.852921" lon="-2.331809">
        <ele>1061.6</ele>
        <time>2023-02-11T09:21:34.000Z</time>
      </trkpt>
      <trkpt lat="41.852963" lon="-2.331704">
        <ele>1061.6</ele>
        <time>2023-02-11T09:21:35.000Z</time>
      </trkpt>
      <trkpt lat="41.852993" lon="-2.331625">
        <ele>1061.6</ele>
        <time>2023-02-11T09:21:36.000Z</time>
      </trkpt>
      <trkpt lat="41.853024" lon="-2.331545">
        <ele>1061.6</ele>
        <time>2023-02-11T09:21:37.000Z</time>
      </trkpt>
      <trkpt lat="41.853085" lon="-2.331385">
        <ele>1061.2</ele>
        <time>2023-02-11T09:21:38.000Z</time>
      </trkpt>
      <trkpt lat="41.853127" lon="-2.331279">
        <ele>1061.2</ele>
        <time>2023-02-11T09:21:39.000Z</time>
      </trkpt>
      <trkpt lat="41.853167" lon="-2.331172">
        <ele>1061.2</ele>
        <time>2023-02-11T09:21:40.000Z</time>
      </trkpt>
      <trkpt lat="41.853206" lon="-2.331064">
        <ele>1061.2</ele>
        <time>2023-02-11T09:21:41.000Z</time>
      </trkpt>
      <trkpt lat="41.853246" lon="-2.330958">
        <ele>1061.2</ele>
        <time>2023-02-11T09:21:42.000Z</time>
      </trkpt>
      <trkpt lat="41.853286" lon="-2.330853">
        <ele>1061.2</ele>
        <time>2023-02-11T09:21:43.000Z</time>
      </trkpt>
      <trkpt lat="41.853327" lon="-2.330749">
        <ele>1061.2</ele>
        <time>2023-02-11T09:21:44.000Z</time>
      </trkpt>
      <trkpt lat="41.853359" lon="-2.330671">
        <ele>1061</ele>
        <time>2023-02-11T09:21:45.000Z</time>
      </trkpt>
      <trkpt lat="41.853391" lon="-2.330593">
        <ele>1061.2</ele>
        <time>2023-02-11T09:21:46.000Z</time>
      </trkpt>
      <trkpt lat="41.853455" lon="-2.330437">
        <ele>1061.2</ele>
        <time>2023-02-11T09:21:47.000Z</time>
      </trkpt>
      <trkpt lat="41.853493" lon="-2.330333">
        <ele>1061.2</ele>
        <time>2023-02-11T09:21:48.000Z</time>
      </trkpt>
      <trkpt lat="41.853532" lon="-2.330229">
        <ele>1061.2</ele>
        <time>2023-02-11T09:21:49.000Z</time>
      </trkpt>
      <trkpt lat="41.853571" lon="-2.330126">
        <ele>1061.2</ele>
        <time>2023-02-11T09:21:50.000Z</time>
      </trkpt>
      <trkpt lat="41.85361" lon="-2.330023">
        <ele>1061.2</ele>
        <time>2023-02-11T09:21:51.000Z</time>
      </trkpt>
      <trkpt lat="41.853652" lon="-2.329919">
        <ele>1061.4</ele>
        <time>2023-02-11T09:21:52.000Z</time>
      </trkpt>
      <trkpt lat="41.853695" lon="-2.329816">
        <ele>1061.4</ele>
        <time>2023-02-11T09:21:53.000Z</time>
      </trkpt>
      <trkpt lat="41.853737" lon="-2.329713">
        <ele>1061.4</ele>
        <time>2023-02-11T09:21:54.000Z</time>
      </trkpt>
      <trkpt lat="41.853777" lon="-2.32961">
        <ele>1061.4</ele>
        <time>2023-02-11T09:21:55.000Z</time>
      </trkpt>
      <trkpt lat="41.853816" lon="-2.329506">
        <ele>1061.4</ele>
        <time>2023-02-11T09:21:56.000Z</time>
      </trkpt>
      <trkpt lat="41.853857" lon="-2.329404">
        <ele>1061.4</ele>
        <time>2023-02-11T09:21:57.000Z</time>
      </trkpt>
      <trkpt lat="41.8539" lon="-2.329306">
        <ele>1061.4</ele>
        <time>2023-02-11T09:21:58.000Z</time>
      </trkpt>
      <trkpt lat="41.853943" lon="-2.329208">
        <ele>1061.6</ele>
        <time>2023-02-11T09:21:59.000Z</time>
      </trkpt>
      <trkpt lat="41.853985" lon="-2.32911">
        <ele>1061.6</ele>
        <time>2023-02-11T09:22:00.000Z</time>
      </trkpt>
      <trkpt lat="41.854026" lon="-2.329012">
        <ele>1061.8</ele>
        <time>2023-02-11T09:22:01.000Z</time>
      </trkpt>
      <trkpt lat="41.854068" lon="-2.328914">
        <ele>1061.8</ele>
        <time>2023-02-11T09:22:02.000Z</time>
      </trkpt>
      <trkpt lat="41.854113" lon="-2.328819">
        <ele>1062</ele>
        <time>2023-02-11T09:22:03.000Z</time>
      </trkpt>
      <trkpt lat="41.854159" lon="-2.328726">
        <ele>1062</ele>
        <time>2023-02-11T09:22:04.000Z</time>
      </trkpt>
      <trkpt lat="41.854207" lon="-2.328635">
        <ele>1062.2</ele>
        <time>2023-02-11T09:22:05.000Z</time>
      </trkpt>
      <trkpt lat="41.854255" lon="-2.328546">
        <ele>1062.4</ele>
        <time>2023-02-11T09:22:06.000Z</time>
      </trkpt>
      <trkpt lat="41.854301" lon="-2.328457">
        <ele>1062.6</ele>
        <time>2023-02-11T09:22:07.000Z</time>
      </trkpt>
      <trkpt lat="41.854348" lon="-2.328369">
        <ele>1062.6</ele>
        <time>2023-02-11T09:22:08.000Z</time>
      </trkpt>
      <trkpt lat="41.854395" lon="-2.328281">
        <ele>1062.8</ele>
        <time>2023-02-11T09:22:09.000Z</time>
      </trkpt>
      <trkpt lat="41.854439" lon="-2.328192">
        <ele>1063</ele>
        <time>2023-02-11T09:22:10.000Z</time>
      </trkpt>
      <trkpt lat="41.854482" lon="-2.328105">
        <ele>1063.2</ele>
        <time>2023-02-11T09:22:11.000Z</time>
      </trkpt>
      <trkpt lat="41.854526" lon="-2.328017">
        <ele>1063.2</ele>
        <time>2023-02-11T09:22:12.000Z</time>
      </trkpt>
      <trkpt lat="41.85457" lon="-2.32793">
        <ele>1063.4</ele>
        <time>2023-02-11T09:22:13.000Z</time>
      </trkpt>
      <trkpt lat="41.854616" lon="-2.327844">
        <ele>1063.6</ele>
        <time>2023-02-11T09:22:14.000Z</time>
      </trkpt>
      <trkpt lat="41.854662" lon="-2.327759">
        <ele>1063.6</ele>
        <time>2023-02-11T09:22:15.000Z</time>
      </trkpt>
      <trkpt lat="41.85471" lon="-2.327674">
        <ele>1064</ele>
        <time>2023-02-11T09:22:16.000Z</time>
      </trkpt>
      <trkpt lat="41.854757" lon="-2.32759">
        <ele>1064.2</ele>
        <time>2023-02-11T09:22:17.000Z</time>
      </trkpt>
      <trkpt lat="41.854803" lon="-2.327505">
        <ele>1064.4</ele>
        <time>2023-02-11T09:22:18.000Z</time>
      </trkpt>
      <trkpt lat="41.85485" lon="-2.327419">
        <ele>1064.6</ele>
        <time>2023-02-11T09:22:19.000Z</time>
      </trkpt>
      <trkpt lat="41.854897" lon="-2.327333">
        <ele>1064.8</ele>
        <time>2023-02-11T09:22:20.000Z</time>
      </trkpt>
      <trkpt lat="41.854943" lon="-2.327244">
        <ele>1065</ele>
        <time>2023-02-11T09:22:21.000Z</time>
      </trkpt>
      <trkpt lat="41.854989" lon="-2.327159">
        <ele>1065.2</ele>
        <time>2023-02-11T09:22:22.000Z</time>
      </trkpt>
      <trkpt lat="41.855035" lon="-2.327073">
        <ele>1065.4</ele>
        <time>2023-02-11T09:22:23.000Z</time>
      </trkpt>
      <trkpt lat="41.855081" lon="-2.326987">
        <ele>1065.6</ele>
        <time>2023-02-11T09:22:24.000Z</time>
      </trkpt>
      <trkpt lat="41.855127" lon="-2.326902">
        <ele>1065.8</ele>
        <time>2023-02-11T09:22:25.000Z</time>
      </trkpt>
      <trkpt lat="41.855175" lon="-2.32682">
        <ele>1066</ele>
        <time>2023-02-11T09:22:26.000Z</time>
      </trkpt>
      <trkpt lat="41.855225" lon="-2.326739">
        <ele>1066.2</ele>
        <time>2023-02-11T09:22:27.000Z</time>
      </trkpt>
      <trkpt lat="41.855275" lon="-2.326662">
        <ele>1066.4</ele>
        <time>2023-02-11T09:22:28.000Z</time>
      </trkpt>
      <trkpt lat="41.855326" lon="-2.326585">
        <ele>1066.6</ele>
        <time>2023-02-11T09:22:29.000Z</time>
      </trkpt>
      <trkpt lat="41.855377" lon="-2.326505">
        <ele>1066.8</ele>
        <time>2023-02-11T09:22:30.000Z</time>
      </trkpt>
      <trkpt lat="41.855428" lon="-2.326426">
        <ele>1066.8</ele>
        <time>2023-02-11T09:22:31.000Z</time>
      </trkpt>
      <trkpt lat="41.855479" lon="-2.326346">
        <ele>1067</ele>
        <time>2023-02-11T09:22:32.000Z</time>
      </trkpt>
      <trkpt lat="41.855531" lon="-2.326267">
        <ele>1067</ele>
        <time>2023-02-11T09:22:33.000Z</time>
      </trkpt>
      <trkpt lat="41.855584" lon="-2.32619">
        <ele>1067.4</ele>
        <time>2023-02-11T09:22:34.000Z</time>
      </trkpt>
      <trkpt lat="41.855635" lon="-2.326112">
        <ele>1067.6</ele>
        <time>2023-02-11T09:22:35.000Z</time>
      </trkpt>
      <trkpt lat="41.855686" lon="-2.326034">
        <ele>1067.8</ele>
        <time>2023-02-11T09:22:36.000Z</time>
      </trkpt>
      <trkpt lat="41.855737" lon="-2.325956">
        <ele>1068.2</ele>
        <time>2023-02-11T09:22:37.000Z</time>
      </trkpt>
      <trkpt lat="41.855789" lon="-2.325877">
        <ele>1068.4</ele>
        <time>2023-02-11T09:22:38.000Z</time>
      </trkpt>
      <trkpt lat="41.85584" lon="-2.325799">
        <ele>1068.6</ele>
        <time>2023-02-11T09:22:39.000Z</time>
      </trkpt>
      <trkpt lat="41.855888" lon="-2.325721">
        <ele>1068.8</ele>
        <time>2023-02-11T09:22:40.000Z</time>
      </trkpt>
      <trkpt lat="41.855935" lon="-2.325645">
        <ele>1069</ele>
        <time>2023-02-11T09:22:41.000Z</time>
      </trkpt>
      <trkpt lat="41.855986" lon="-2.325572">
        <ele>1069.2</ele>
        <time>2023-02-11T09:22:42.000Z</time>
      </trkpt>
      <trkpt lat="41.856036" lon="-2.3255">
        <ele>1069.4</ele>
        <time>2023-02-11T09:22:43.000Z</time>
      </trkpt>
      <trkpt lat="41.856086" lon="-2.325427">
        <ele>1069.8</ele>
        <time>2023-02-11T09:22:44.000Z</time>
      </trkpt>
      <trkpt lat="41.856133" lon="-2.325357">
        <ele>1069.8</ele>
        <time>2023-02-11T09:22:45.000Z</time>
      </trkpt>
      <trkpt lat="41.856179" lon="-2.325285">
        <ele>1070</ele>
        <time>2023-02-11T09:22:46.000Z</time>
      </trkpt>
      <trkpt lat="41.856226" lon="-2.325215">
        <ele>1070.2</ele>
        <time>2023-02-11T09:22:47.000Z</time>
      </trkpt>
      <trkpt lat="41.856274" lon="-2.325149">
        <ele>1070.6</ele>
        <time>2023-02-11T09:22:48.000Z</time>
      </trkpt>
      <trkpt lat="41.856318" lon="-2.325081">
        <ele>1070.8</ele>
        <time>2023-02-11T09:22:49.000Z</time>
      </trkpt>
      <trkpt lat="41.856359" lon="-2.325013">
        <ele>1071</ele>
        <time>2023-02-11T09:22:50.000Z</time>
      </trkpt>
      <trkpt lat="41.856401" lon="-2.324948">
        <ele>1071.2</ele>
        <time>2023-02-11T09:22:51.000Z</time>
      </trkpt>
      <trkpt lat="41.856445" lon="-2.324888">
        <ele>1071.6</ele>
        <time>2023-02-11T09:22:52.000Z</time>
      </trkpt>
      <trkpt lat="41.856487" lon="-2.324825">
        <ele>1072</ele>
        <time>2023-02-11T09:22:53.000Z</time>
      </trkpt>
      <trkpt lat="41.856526" lon="-2.324765">
        <ele>1072.2</ele>
        <time>2023-02-11T09:22:54.000Z</time>
      </trkpt>
      <trkpt lat="41.856565" lon="-2.324709">
        <ele>1072.6</ele>
        <time>2023-02-11T09:22:55.000Z</time>
      </trkpt>
      <trkpt lat="41.856601" lon="-2.324654">
        <ele>1073</ele>
        <time>2023-02-11T09:22:56.000Z</time>
      </trkpt>
      <trkpt lat="41.856636" lon="-2.324602">
        <ele>1073.4</ele>
        <time>2023-02-11T09:22:57.000Z</time>
      </trkpt>
      <trkpt lat="41.856671" lon="-2.324552">
        <ele>1073.6</ele>
        <time>2023-02-11T09:22:58.000Z</time>
      </trkpt>
      <trkpt lat="41.856704" lon="-2.324498">
        <ele>1074.2</ele>
        <time>2023-02-11T09:22:59.000Z</time>
      </trkpt>
      <trkpt lat="41.856737" lon="-2.324445">
        <ele>1074.4</ele>
        <time>2023-02-11T09:23:00.000Z</time>
      </trkpt>
      <trkpt lat="41.856773" lon="-2.324394">
        <ele>1074.8</ele>
        <time>2023-02-11T09:23:01.000Z</time>
      </trkpt>
      <trkpt lat="41.856809" lon="-2.324347">
        <ele>1075.4</ele>
        <time>2023-02-11T09:23:02.000Z</time>
      </trkpt>
      <trkpt lat="41.856843" lon="-2.3243">
        <ele>1075.8</ele>
        <time>2023-02-11T09:23:03.000Z</time>
      </trkpt>
      <trkpt lat="41.856878" lon="-2.324252">
        <ele>1076.6</ele>
        <time>2023-02-11T09:23:04.000Z</time>
      </trkpt>
      <trkpt lat="41.856912" lon="-2.324204">
        <ele>1077</ele>
        <time>2023-02-11T09:23:05.000Z</time>
      </trkpt>
      <trkpt lat="41.856945" lon="-2.324161">
        <ele>1077.6</ele>
        <time>2023-02-11T09:23:06.000Z</time>
      </trkpt>
      <trkpt lat="41.856976" lon="-2.324118">
        <ele>1077.8</ele>
        <time>2023-02-11T09:23:07.000Z</time>
      </trkpt>
      <trkpt lat="41.857006" lon="-2.32407">
        <ele>1078.6</ele>
        <time>2023-02-11T09:23:08.000Z</time>
      </trkpt>
      <trkpt lat="41.857036" lon="-2.324024">
        <ele>1079</ele>
        <time>2023-02-11T09:23:09.000Z</time>
      </trkpt>
      <trkpt lat="41.857064" lon="-2.323977">
        <ele>1079.4</ele>
        <time>2023-02-11T09:23:10.000Z</time>
      </trkpt>
      <trkpt lat="41.857092" lon="-2.323932">
        <ele>1080</ele>
        <time>2023-02-11T09:23:11.000Z</time>
      </trkpt>
      <trkpt lat="41.857124" lon="-2.323887">
        <ele>1080.2</ele>
        <time>2023-02-11T09:23:12.000Z</time>
      </trkpt>
      <trkpt lat="41.857154" lon="-2.323843">
        <ele>1080.8</ele>
        <time>2023-02-11T09:23:13.000Z</time>
      </trkpt>
      <trkpt lat="41.857184" lon="-2.3238">
        <ele>1081</ele>
        <time>2023-02-11T09:23:14.000Z</time>
      </trkpt>
      <trkpt lat="41.857212" lon="-2.32376">
        <ele>1081.6</ele>
        <time>2023-02-11T09:23:15.000Z</time>
      </trkpt>
      <trkpt lat="41.857238" lon="-2.323723">
        <ele>1081.8</ele>
        <time>2023-02-11T09:23:16.000Z</time>
      </trkpt>
      <trkpt lat="41.857264" lon="-2.323686">
        <ele>1082.2</ele>
        <time>2023-02-11T09:23:17.000Z</time>
      </trkpt>
      <trkpt lat="41.857289" lon="-2.323648">
        <ele>1082.8</ele>
        <time>2023-02-11T09:23:18.000Z</time>
      </trkpt>
      <trkpt lat="41.857317" lon="-2.323607">
        <ele>1083</ele>
        <time>2023-02-11T09:23:19.000Z</time>
      </trkpt>
      <trkpt lat="41.857346" lon="-2.323566">
        <ele>1083.4</ele>
        <time>2023-02-11T09:23:20.000Z</time>
      </trkpt>
      <trkpt lat="41.857374" lon="-2.323526">
        <ele>1083.6</ele>
        <time>2023-02-11T09:23:21.000Z</time>
      </trkpt>
      <trkpt lat="41.8574" lon="-2.323484">
        <ele>1084.2</ele>
        <time>2023-02-11T09:23:22.000Z</time>
      </trkpt>
      <trkpt lat="41.857427" lon="-2.323443">
        <ele>1084.4</ele>
        <time>2023-02-11T09:23:23.000Z</time>
      </trkpt>
      <trkpt lat="41.857455" lon="-2.323401">
        <ele>1084.8</ele>
        <time>2023-02-11T09:23:24.000Z</time>
      </trkpt>
      <trkpt lat="41.857483" lon="-2.323359">
        <ele>1085.2</ele>
        <time>2023-02-11T09:23:25.000Z</time>
      </trkpt>
      <trkpt lat="41.857511" lon="-2.323313">
        <ele>1085.6</ele>
        <time>2023-02-11T09:23:26.000Z</time>
      </trkpt>
      <trkpt lat="41.85754" lon="-2.323266">
        <ele>1086.2</ele>
        <time>2023-02-11T09:23:27.000Z</time>
      </trkpt>
      <trkpt lat="41.857565" lon="-2.323214">
        <ele>1086.4</ele>
        <time>2023-02-11T09:23:28.000Z</time>
      </trkpt>
      <trkpt lat="41.857587" lon="-2.323162">
        <ele>1087</ele>
        <time>2023-02-11T09:23:29.000Z</time>
      </trkpt>
      <trkpt lat="41.857608" lon="-2.323105">
        <ele>1087.2</ele>
        <time>2023-02-11T09:23:30.000Z</time>
      </trkpt>
      <trkpt lat="41.85763" lon="-2.323049">
        <ele>1087.4</ele>
        <time>2023-02-11T09:23:31.000Z</time>
      </trkpt>
      <trkpt lat="41.857654" lon="-2.322994">
        <ele>1087.6</ele>
        <time>2023-02-11T09:23:32.000Z</time>
      </trkpt>
      <trkpt lat="41.85768" lon="-2.32294">
        <ele>1088</ele>
        <time>2023-02-11T09:23:33.000Z</time>
      </trkpt>
      <trkpt lat="41.857705" lon="-2.322884">
        <ele>1088</ele>
        <time>2023-02-11T09:23:34.000Z</time>
      </trkpt>
      <trkpt lat="41.857729" lon="-2.322823">
        <ele>1088.6</ele>
        <time>2023-02-11T09:23:35.000Z</time>
      </trkpt>
      <trkpt lat="41.857751" lon="-2.322764">
        <ele>1088.8</ele>
        <time>2023-02-11T09:23:36.000Z</time>
      </trkpt>
      <trkpt lat="41.857774" lon="-2.322703">
        <ele>1089</ele>
        <time>2023-02-11T09:23:37.000Z</time>
      </trkpt>
      <trkpt lat="41.857796" lon="-2.322642">
        <ele>1089.2</ele>
        <time>2023-02-11T09:23:38.000Z</time>
      </trkpt>
      <trkpt lat="41.857821" lon="-2.322584">
        <ele>1089.2</ele>
        <time>2023-02-11T09:23:39.000Z</time>
      </trkpt>
      <trkpt lat="41.857843" lon="-2.322522">
        <ele>1089.4</ele>
        <time>2023-02-11T09:23:40.000Z</time>
      </trkpt>
      <trkpt lat="41.85786" lon="-2.322477">
        <ele>1089.4</ele>
        <time>2023-02-11T09:23:41.000Z</time>
      </trkpt>
      <trkpt lat="41.857878" lon="-2.322432">
        <ele>1089.6</ele>
        <time>2023-02-11T09:23:42.000Z</time>
      </trkpt>
      <trkpt lat="41.857913" lon="-2.322341">
        <ele>1089.8</ele>
        <time>2023-02-11T09:23:43.000Z</time>
      </trkpt>
      <trkpt lat="41.85794" lon="-2.322277">
        <ele>1090</ele>
        <time>2023-02-11T09:23:44.000Z</time>
      </trkpt>
      <trkpt lat="41.857966" lon="-2.322215">
        <ele>1090.2</ele>
        <time>2023-02-11T09:23:45.000Z</time>
      </trkpt>
      <trkpt lat="41.857991" lon="-2.322153">
        <ele>1090.2</ele>
        <time>2023-02-11T09:23:46.000Z</time>
      </trkpt>
      <trkpt lat="41.858019" lon="-2.32209">
        <ele>1090.4</ele>
        <time>2023-02-11T09:23:47.000Z</time>
      </trkpt>
      <trkpt lat="41.858048" lon="-2.322023">
        <ele>1090.4</ele>
        <time>2023-02-11T09:23:48.000Z</time>
      </trkpt>
      <trkpt lat="41.858077" lon="-2.321956">
        <ele>1090.4</ele>
        <time>2023-02-11T09:23:49.000Z</time>
      </trkpt>
      <trkpt lat="41.858105" lon="-2.321886">
        <ele>1090.4</ele>
        <time>2023-02-11T09:23:50.000Z</time>
      </trkpt>
      <trkpt lat="41.858127" lon="-2.321827">
        <ele>1090.6</ele>
        <time>2023-02-11T09:23:51.000Z</time>
      </trkpt>
      <trkpt lat="41.858149" lon="-2.321768">
        <ele>1090.6</ele>
        <time>2023-02-11T09:23:52.000Z</time>
      </trkpt>
      <trkpt lat="41.858193" lon="-2.321651">
        <ele>1090.6</ele>
        <time>2023-02-11T09:23:53.000Z</time>
      </trkpt>
      <trkpt lat="41.858226" lon="-2.321566">
        <ele>1090.6</ele>
        <time>2023-02-11T09:23:54.000Z</time>
      </trkpt>
      <trkpt lat="41.85826" lon="-2.321481">
        <ele>1090.6</ele>
        <time>2023-02-11T09:23:55.000Z</time>
      </trkpt>
      <trkpt lat="41.858295" lon="-2.321391">
        <ele>1090.6</ele>
        <time>2023-02-11T09:23:56.000Z</time>
      </trkpt>
      <trkpt lat="41.858332" lon="-2.321298">
        <ele>1090.6</ele>
        <time>2023-02-11T09:23:57.000Z</time>
      </trkpt>
      <trkpt lat="41.85837" lon="-2.321204">
        <ele>1090.4</ele>
        <time>2023-02-11T09:23:58.000Z</time>
      </trkpt>
      <trkpt lat="41.858411" lon="-2.321108">
        <ele>1090.4</ele>
        <time>2023-02-11T09:23:59.000Z</time>
      </trkpt>
      <trkpt lat="41.858451" lon="-2.321007">
        <ele>1089.8</ele>
        <time>2023-02-11T09:24:00.000Z</time>
      </trkpt>
      <trkpt lat="41.858492" lon="-2.320904">
        <ele>1089.6</ele>
        <time>2023-02-11T09:24:01.000Z</time>
      </trkpt>
      <trkpt lat="41.858534" lon="-2.320801">
        <ele>1089.4</ele>
        <time>2023-02-11T09:24:02.000Z</time>
      </trkpt>
      <trkpt lat="41.858576" lon="-2.320697">
        <ele>1088.8</ele>
        <time>2023-02-11T09:24:03.000Z</time>
      </trkpt>
      <trkpt lat="41.858619" lon="-2.320593">
        <ele>1088.6</ele>
        <time>2023-02-11T09:24:04.000Z</time>
      </trkpt>
      <trkpt lat="41.85866" lon="-2.320488">
        <ele>1088.4</ele>
        <time>2023-02-11T09:24:05.000Z</time>
      </trkpt>
      <trkpt lat="41.858702" lon="-2.320382">
        <ele>1088.2</ele>
        <time>2023-02-11T09:24:06.000Z</time>
      </trkpt>
      <trkpt lat="41.858744" lon="-2.320279">
        <ele>1087.4</ele>
        <time>2023-02-11T09:24:07.000Z</time>
      </trkpt>
      <trkpt lat="41.858785" lon="-2.320176">
        <ele>1087.2</ele>
        <time>2023-02-11T09:24:08.000Z</time>
      </trkpt>
      <trkpt lat="41.858819" lon="-2.320076">
        <ele>1086.6</ele>
        <time>2023-02-11T09:24:09.000Z</time>
      </trkpt>
      <trkpt lat="41.85885" lon="-2.319979">
        <ele>1086.2</ele>
        <time>2023-02-11T09:24:10.000Z</time>
      </trkpt>
      <trkpt lat="41.858886" lon="-2.319877">
        <ele>1085.8</ele>
        <time>2023-02-11T09:24:11.000Z</time>
      </trkpt>
      <trkpt lat="41.858923" lon="-2.319774">
        <ele>1085.6</ele>
        <time>2023-02-11T09:24:12.000Z</time>
      </trkpt>
      <trkpt lat="41.858959" lon="-2.31967">
        <ele>1085.4</ele>
        <time>2023-02-11T09:24:13.000Z</time>
      </trkpt>
      <trkpt lat="41.858997" lon="-2.319568">
        <ele>1085.2</ele>
        <time>2023-02-11T09:24:14.000Z</time>
      </trkpt>
      <trkpt lat="41.859036" lon="-2.319466">
        <ele>1085.2</ele>
        <time>2023-02-11T09:24:15.000Z</time>
      </trkpt>
      <trkpt lat="41.859075" lon="-2.319363">
        <ele>1085.2</ele>
        <time>2023-02-11T09:24:16.000Z</time>
      </trkpt>
      <trkpt lat="41.859114" lon="-2.319261">
        <ele>1085.2</ele>
        <time>2023-02-11T09:24:17.000Z</time>
      </trkpt>
      <trkpt lat="41.859153" lon="-2.31916">
        <ele>1085.2</ele>
        <time>2023-02-11T09:24:18.000Z</time>
      </trkpt>
      <trkpt lat="41.859192" lon="-2.319059">
        <ele>1085</ele>
        <time>2023-02-11T09:24:19.000Z</time>
      </trkpt>
      <trkpt lat="41.859231" lon="-2.318959">
        <ele>1085</ele>
        <time>2023-02-11T09:24:20.000Z</time>
      </trkpt>
      <trkpt lat="41.859271" lon="-2.31886">
        <ele>1085</ele>
        <time>2023-02-11T09:24:21.000Z</time>
      </trkpt>
      <trkpt lat="41.859311" lon="-2.318764">
        <ele>1085</ele>
        <time>2023-02-11T09:24:22.000Z</time>
      </trkpt>
      <trkpt lat="41.859354" lon="-2.318669">
        <ele>1085</ele>
        <time>2023-02-11T09:24:23.000Z</time>
      </trkpt>
      <trkpt lat="41.859398" lon="-2.318577">
        <ele>1085</ele>
        <time>2023-02-11T09:24:24.000Z</time>
      </trkpt>
      <trkpt lat="41.859442" lon="-2.318486">
        <ele>1085.2</ele>
        <time>2023-02-11T09:24:25.000Z</time>
      </trkpt>
      <trkpt lat="41.859484" lon="-2.318396">
        <ele>1085.2</ele>
        <time>2023-02-11T09:24:26.000Z</time>
      </trkpt>
      <trkpt lat="41.859527" lon="-2.318307">
        <ele>1085.2</ele>
        <time>2023-02-11T09:24:27.000Z</time>
      </trkpt>
      <trkpt lat="41.859572" lon="-2.31822">
        <ele>1085.6</ele>
        <time>2023-02-11T09:24:28.000Z</time>
      </trkpt>
      <trkpt lat="41.859615" lon="-2.318136">
        <ele>1085.8</ele>
        <time>2023-02-11T09:24:29.000Z</time>
      </trkpt>
      <trkpt lat="41.859659" lon="-2.318055">
        <ele>1086</ele>
        <time>2023-02-11T09:24:30.000Z</time>
      </trkpt>
      <trkpt lat="41.859703" lon="-2.317974">
        <ele>1086.2</ele>
        <time>2023-02-11T09:24:31.000Z</time>
      </trkpt>
      <trkpt lat="41.859746" lon="-2.317896">
        <ele>1086.4</ele>
        <time>2023-02-11T09:24:32.000Z</time>
      </trkpt>
      <trkpt lat="41.85979" lon="-2.317818">
        <ele>1086.6</ele>
        <time>2023-02-11T09:24:33.000Z</time>
      </trkpt>
      <trkpt lat="41.859834" lon="-2.31774">
        <ele>1087</ele>
        <time>2023-02-11T09:24:34.000Z</time>
      </trkpt>
      <trkpt lat="41.859877" lon="-2.317662">
        <ele>1087.2</ele>
        <time>2023-02-11T09:24:35.000Z</time>
      </trkpt>
      <trkpt lat="41.859918" lon="-2.317584">
        <ele>1087.6</ele>
        <time>2023-02-11T09:24:36.000Z</time>
      </trkpt>
      <trkpt lat="41.85996" lon="-2.317508">
        <ele>1087.8</ele>
        <time>2023-02-11T09:24:37.000Z</time>
      </trkpt>
      <trkpt lat="41.860002" lon="-2.317433">
        <ele>1088</ele>
        <time>2023-02-11T09:24:38.000Z</time>
      </trkpt>
      <trkpt lat="41.860045" lon="-2.317358">
        <ele>1088</ele>
        <time>2023-02-11T09:24:39.000Z</time>
      </trkpt>
      <trkpt lat="41.860086" lon="-2.317283">
        <ele>1088.2</ele>
        <time>2023-02-11T09:24:40.000Z</time>
      </trkpt>
      <trkpt lat="41.860123" lon="-2.317206">
        <ele>1088.4</ele>
        <time>2023-02-11T09:24:41.000Z</time>
      </trkpt>
      <trkpt lat="41.860159" lon="-2.317123">
        <ele>1088.6</ele>
        <time>2023-02-11T09:24:42.000Z</time>
      </trkpt>
      <trkpt lat="41.860189" lon="-2.317034">
        <ele>1088.6</ele>
        <time>2023-02-11T09:24:43.000Z</time>
      </trkpt>
      <trkpt lat="41.860211" lon="-2.316938">
        <ele>1088.8</ele>
        <time>2023-02-11T09:24:44.000Z</time>
      </trkpt>
      <trkpt lat="41.86023" lon="-2.316837">
        <ele>1088.8</ele>
        <time>2023-02-11T09:24:45.000Z</time>
      </trkpt>
      <trkpt lat="41.860243" lon="-2.316729">
        <ele>1089</ele>
        <time>2023-02-11T09:24:46.000Z</time>
      </trkpt>
      <trkpt lat="41.860251" lon="-2.316619">
        <ele>1089.2</ele>
        <time>2023-02-11T09:24:47.000Z</time>
      </trkpt>
      <trkpt lat="41.860258" lon="-2.316507">
        <ele>1089.2</ele>
        <time>2023-02-11T09:24:48.000Z</time>
      </trkpt>
      <trkpt lat="41.860265" lon="-2.316395">
        <ele>1089.4</ele>
        <time>2023-02-11T09:24:49.000Z</time>
      </trkpt>
      <trkpt lat="41.860272" lon="-2.316281">
        <ele>1089.4</ele>
        <time>2023-02-11T09:24:50.000Z</time>
      </trkpt>
      <trkpt lat="41.860276" lon="-2.316167">
        <ele>1089.4</ele>
        <time>2023-02-11T09:24:51.000Z</time>
      </trkpt>
      <trkpt lat="41.860281" lon="-2.316053">
        <ele>1089.4</ele>
        <time>2023-02-11T09:24:52.000Z</time>
      </trkpt>
      <trkpt lat="41.860283" lon="-2.315942">
        <ele>1089.6</ele>
        <time>2023-02-11T09:24:53.000Z</time>
      </trkpt>
      <trkpt lat="41.860286" lon="-2.315832">
        <ele>1089.6</ele>
        <time>2023-02-11T09:24:54.000Z</time>
      </trkpt>
      <trkpt lat="41.86029" lon="-2.315721">
        <ele>1089.6</ele>
        <time>2023-02-11T09:24:55.000Z</time>
      </trkpt>
      <trkpt lat="41.860293" lon="-2.315611">
        <ele>1089.6</ele>
        <time>2023-02-11T09:24:56.000Z</time>
      </trkpt>
      <trkpt lat="41.860298" lon="-2.315532">
        <ele>1089.6</ele>
        <time>2023-02-11T09:24:57.000Z</time>
      </trkpt>
      <trkpt lat="41.860302" lon="-2.315452">
        <ele>1089.6</ele>
        <time>2023-02-11T09:24:58.000Z</time>
      </trkpt>
      <trkpt lat="41.86031" lon="-2.315292">
        <ele>1089.6</ele>
        <time>2023-02-11T09:24:59.000Z</time>
      </trkpt>
      <trkpt lat="41.860314" lon="-2.315189">
        <ele>1089.6</ele>
        <time>2023-02-11T09:25:00.000Z</time>
      </trkpt>
      <trkpt lat="41.860317" lon="-2.315089">
        <ele>1089.6</ele>
        <time>2023-02-11T09:25:01.000Z</time>
      </trkpt>
      <trkpt lat="41.860319" lon="-2.31499">
        <ele>1089.8</ele>
        <time>2023-02-11T09:25:02.000Z</time>
      </trkpt>
      <trkpt lat="41.860321" lon="-2.314891">
        <ele>1090</ele>
        <time>2023-02-11T09:25:03.000Z</time>
      </trkpt>
      <trkpt lat="41.860322" lon="-2.314794">
        <ele>1090.2</ele>
        <time>2023-02-11T09:25:04.000Z</time>
      </trkpt>
      <trkpt lat="41.860323" lon="-2.314696">
        <ele>1090.2</ele>
        <time>2023-02-11T09:25:05.000Z</time>
      </trkpt>
      <trkpt lat="41.860319" lon="-2.314602">
        <ele>1090.4</ele>
        <time>2023-02-11T09:25:06.000Z</time>
      </trkpt>
      <trkpt lat="41.860313" lon="-2.314508">
        <ele>1090.4</ele>
        <time>2023-02-11T09:25:07.000Z</time>
      </trkpt>
      <trkpt lat="41.860306" lon="-2.314417">
        <ele>1090.8</ele>
        <time>2023-02-11T09:25:08.000Z</time>
      </trkpt>
      <trkpt lat="41.860298" lon="-2.314327">
        <ele>1090.8</ele>
        <time>2023-02-11T09:25:09.000Z</time>
      </trkpt>
      <trkpt lat="41.860289" lon="-2.314237">
        <ele>1091</ele>
        <time>2023-02-11T09:25:10.000Z</time>
      </trkpt>
      <trkpt lat="41.860278" lon="-2.314151">
        <ele>1091.2</ele>
        <time>2023-02-11T09:25:11.000Z</time>
      </trkpt>
      <trkpt lat="41.860268" lon="-2.314063">
        <ele>1091.2</ele>
        <time>2023-02-11T09:25:12.000Z</time>
      </trkpt>
      <trkpt lat="41.860258" lon="-2.313973">
        <ele>1091.4</ele>
        <time>2023-02-11T09:25:13.000Z</time>
      </trkpt>
      <trkpt lat="41.860246" lon="-2.313884">
        <ele>1091.8</ele>
        <time>2023-02-11T09:25:14.000Z</time>
      </trkpt>
      <trkpt lat="41.860234" lon="-2.313794">
        <ele>1092.2</ele>
        <time>2023-02-11T09:25:15.000Z</time>
      </trkpt>
      <trkpt lat="41.860223" lon="-2.313704">
        <ele>1092.4</ele>
        <time>2023-02-11T09:25:16.000Z</time>
      </trkpt>
      <trkpt lat="41.860215" lon="-2.313613">
        <ele>1092.6</ele>
        <time>2023-02-11T09:25:17.000Z</time>
      </trkpt>
      <trkpt lat="41.860208" lon="-2.313523">
        <ele>1092.6</ele>
        <time>2023-02-11T09:25:18.000Z</time>
      </trkpt>
      <trkpt lat="41.860202" lon="-2.313436">
        <ele>1092.8</ele>
        <time>2023-02-11T09:25:19.000Z</time>
      </trkpt>
      <trkpt lat="41.860194" lon="-2.31335">
        <ele>1093</ele>
        <time>2023-02-11T09:25:20.000Z</time>
      </trkpt>
      <trkpt lat="41.860188" lon="-2.313265">
        <ele>1093.4</ele>
        <time>2023-02-11T09:25:21.000Z</time>
      </trkpt>
      <trkpt lat="41.860183" lon="-2.313179">
        <ele>1093.4</ele>
        <time>2023-02-11T09:25:22.000Z</time>
      </trkpt>
      <trkpt lat="41.860175" lon="-2.313095">
        <ele>1093.6</ele>
        <time>2023-02-11T09:25:23.000Z</time>
      </trkpt>
      <trkpt lat="41.86017" lon="-2.313033">
        <ele>1093.8</ele>
        <time>2023-02-11T09:25:24.000Z</time>
      </trkpt>
      <trkpt lat="41.860164" lon="-2.31297">
        <ele>1094</ele>
        <time>2023-02-11T09:25:25.000Z</time>
      </trkpt>
      <trkpt lat="41.860154" lon="-2.312846">
        <ele>1094.6</ele>
        <time>2023-02-11T09:25:26.000Z</time>
      </trkpt>
      <trkpt lat="41.86015" lon="-2.312757">
        <ele>1094.8</ele>
        <time>2023-02-11T09:25:27.000Z</time>
      </trkpt>
      <trkpt lat="41.860142" lon="-2.312663">
        <ele>1095.2</ele>
        <time>2023-02-11T09:25:28.000Z</time>
      </trkpt>
      <trkpt lat="41.860132" lon="-2.312569">
        <ele>1095.2</ele>
        <time>2023-02-11T09:25:29.000Z</time>
      </trkpt>
      <trkpt lat="41.860121" lon="-2.312474">
        <ele>1095.8</ele>
        <time>2023-02-11T09:25:30.000Z</time>
      </trkpt>
      <trkpt lat="41.860111" lon="-2.312378">
        <ele>1095.8</ele>
        <time>2023-02-11T09:25:31.000Z</time>
      </trkpt>
      <trkpt lat="41.860102" lon="-2.312284">
        <ele>1096.2</ele>
        <time>2023-02-11T09:25:32.000Z</time>
      </trkpt>
      <trkpt lat="41.860092" lon="-2.312188">
        <ele>1096.2</ele>
        <time>2023-02-11T09:25:33.000Z</time>
      </trkpt>
      <trkpt lat="41.860082" lon="-2.31209">
        <ele>1096.4</ele>
        <time>2023-02-11T09:25:34.000Z</time>
      </trkpt>
      <trkpt lat="41.860074" lon="-2.311992">
        <ele>1096.6</ele>
        <time>2023-02-11T09:25:35.000Z</time>
      </trkpt>
      <trkpt lat="41.860067" lon="-2.311893">
        <ele>1096.8</ele>
        <time>2023-02-11T09:25:36.000Z</time>
      </trkpt>
      <trkpt lat="41.860061" lon="-2.311791">
        <ele>1097</ele>
        <time>2023-02-11T09:25:37.000Z</time>
      </trkpt>
      <trkpt lat="41.860057" lon="-2.311689">
        <ele>1097</ele>
        <time>2023-02-11T09:25:38.000Z</time>
      </trkpt>
      <trkpt lat="41.860059" lon="-2.311589">
        <ele>1097.2</ele>
        <time>2023-02-11T09:25:39.000Z</time>
      </trkpt>
      <trkpt lat="41.860063" lon="-2.311488">
        <ele>1097.2</ele>
        <time>2023-02-11T09:25:40.000Z</time>
      </trkpt>
      <trkpt lat="41.860072" lon="-2.311388">
        <ele>1097.2</ele>
        <time>2023-02-11T09:25:41.000Z</time>
      </trkpt>
      <trkpt lat="41.860085" lon="-2.31129">
        <ele>1097.4</ele>
        <time>2023-02-11T09:25:42.000Z</time>
      </trkpt>
      <trkpt lat="41.860103" lon="-2.311196">
        <ele>1097.4</ele>
        <time>2023-02-11T09:25:43.000Z</time>
      </trkpt>
      <trkpt lat="41.860123" lon="-2.311105">
        <ele>1097.6</ele>
        <time>2023-02-11T09:25:44.000Z</time>
      </trkpt>
      <trkpt lat="41.860145" lon="-2.311018">
        <ele>1097.6</ele>
        <time>2023-02-11T09:25:45.000Z</time>
      </trkpt>
      <trkpt lat="41.860171" lon="-2.310935">
        <ele>1097.6</ele>
        <time>2023-02-11T09:25:46.000Z</time>
      </trkpt>
      <trkpt lat="41.8602" lon="-2.310854">
        <ele>1097.8</ele>
        <time>2023-02-11T09:25:47.000Z</time>
      </trkpt>
      <trkpt lat="41.860229" lon="-2.310775">
        <ele>1098</ele>
        <time>2023-02-11T09:25:48.000Z</time>
      </trkpt>
      <trkpt lat="41.860259" lon="-2.310697">
        <ele>1098.2</ele>
        <time>2023-02-11T09:25:49.000Z</time>
      </trkpt>
      <trkpt lat="41.860292" lon="-2.310621">
        <ele>1098.8</ele>
        <time>2023-02-11T09:25:50.000Z</time>
      </trkpt>
      <trkpt lat="41.860325" lon="-2.310546">
        <ele>1099</ele>
        <time>2023-02-11T09:25:51.000Z</time>
      </trkpt>
      <trkpt lat="41.860357" lon="-2.310469">
        <ele>1099.2</ele>
        <time>2023-02-11T09:25:52.000Z</time>
      </trkpt>
      <trkpt lat="41.860388" lon="-2.310394">
        <ele>1099.4</ele>
        <time>2023-02-11T09:25:53.000Z</time>
      </trkpt>
      <trkpt lat="41.860418" lon="-2.310318">
        <ele>1099.4</ele>
        <time>2023-02-11T09:25:54.000Z</time>
      </trkpt>
      <trkpt lat="41.860446" lon="-2.310242">
        <ele>1099.8</ele>
        <time>2023-02-11T09:25:55.000Z</time>
      </trkpt>
      <trkpt lat="41.860472" lon="-2.310164">
        <ele>1100</ele>
        <time>2023-02-11T09:25:56.000Z</time>
      </trkpt>
      <trkpt lat="41.860496" lon="-2.310084">
        <ele>1100.2</ele>
        <time>2023-02-11T09:25:57.000Z</time>
      </trkpt>
      <trkpt lat="41.860517" lon="-2.31">
        <ele>1100.4</ele>
        <time>2023-02-11T09:25:58.000Z</time>
      </trkpt>
      <trkpt lat="41.860533" lon="-2.309915">
        <ele>1100.6</ele>
        <time>2023-02-11T09:25:59.000Z</time>
      </trkpt>
      <trkpt lat="41.860543" lon="-2.309824">
        <ele>1100.8</ele>
        <time>2023-02-11T09:26:00.000Z</time>
      </trkpt>
      <trkpt lat="41.860551" lon="-2.309733">
        <ele>1101</ele>
        <time>2023-02-11T09:26:01.000Z</time>
      </trkpt>
      <trkpt lat="41.860557" lon="-2.309646">
        <ele>1101</ele>
        <time>2023-02-11T09:26:02.000Z</time>
      </trkpt>
      <trkpt lat="41.860558" lon="-2.309557">
        <ele>1101.2</ele>
        <time>2023-02-11T09:26:03.000Z</time>
      </trkpt>
      <trkpt lat="41.860559" lon="-2.309467">
        <ele>1101.4</ele>
        <time>2023-02-11T09:26:04.000Z</time>
      </trkpt>
      <trkpt lat="41.860559" lon="-2.309376">
        <ele>1101.4</ele>
        <time>2023-02-11T09:26:05.000Z</time>
      </trkpt>
      <trkpt lat="41.860559" lon="-2.309285">
        <ele>1101.6</ele>
        <time>2023-02-11T09:26:06.000Z</time>
      </trkpt>
      <trkpt lat="41.860559" lon="-2.309193">
        <ele>1101.6</ele>
        <time>2023-02-11T09:26:07.000Z</time>
      </trkpt>
      <trkpt lat="41.860561" lon="-2.309099">
        <ele>1101.8</ele>
        <time>2023-02-11T09:26:08.000Z</time>
      </trkpt>
      <trkpt lat="41.860567" lon="-2.309028">
        <ele>1102</ele>
        <time>2023-02-11T09:26:09.000Z</time>
      </trkpt>
      <trkpt lat="41.860572" lon="-2.308957">
        <ele>1102</ele>
        <time>2023-02-11T09:26:10.000Z</time>
      </trkpt>
      <trkpt lat="41.860583" lon="-2.308815">
        <ele>1102</ele>
        <time>2023-02-11T09:26:11.000Z</time>
      </trkpt>
      <trkpt lat="41.860595" lon="-2.308721">
        <ele>1102.2</ele>
        <time>2023-02-11T09:26:12.000Z</time>
      </trkpt>
      <trkpt lat="41.86061" lon="-2.308627">
        <ele>1102.2</ele>
        <time>2023-02-11T09:26:13.000Z</time>
      </trkpt>
      <trkpt lat="41.860624" lon="-2.308533">
        <ele>1102.2</ele>
        <time>2023-02-11T09:26:14.000Z</time>
      </trkpt>
      <trkpt lat="41.860638" lon="-2.30844">
        <ele>1102.4</ele>
        <time>2023-02-11T09:26:15.000Z</time>
      </trkpt>
      <trkpt lat="41.860653" lon="-2.308348">
        <ele>1102.6</ele>
        <time>2023-02-11T09:26:16.000Z</time>
      </trkpt>
      <trkpt lat="41.860672" lon="-2.308257">
        <ele>1102.6</ele>
        <time>2023-02-11T09:26:17.000Z</time>
      </trkpt>
      <trkpt lat="41.860688" lon="-2.308189">
        <ele>1102.8</ele>
        <time>2023-02-11T09:26:18.000Z</time>
      </trkpt>
      <trkpt lat="41.860705" lon="-2.308121">
        <ele>1102.8</ele>
        <time>2023-02-11T09:26:19.000Z</time>
      </trkpt>
      <trkpt lat="41.860738" lon="-2.307984">
        <ele>1103</ele>
        <time>2023-02-11T09:26:20.000Z</time>
      </trkpt>
      <trkpt lat="41.860763" lon="-2.307897">
        <ele>1103.2</ele>
        <time>2023-02-11T09:26:21.000Z</time>
      </trkpt>
      <trkpt lat="41.860788" lon="-2.307811">
        <ele>1103.2</ele>
        <time>2023-02-11T09:26:22.000Z</time>
      </trkpt>
      <trkpt lat="41.860812" lon="-2.307726">
        <ele>1103.4</ele>
        <time>2023-02-11T09:26:23.000Z</time>
      </trkpt>
      <trkpt lat="41.860837" lon="-2.307643">
        <ele>1103.4</ele>
        <time>2023-02-11T09:26:24.000Z</time>
      </trkpt>
      <trkpt lat="41.860862" lon="-2.307563">
        <ele>1103.6</ele>
        <time>2023-02-11T09:26:25.000Z</time>
      </trkpt>
      <trkpt lat="41.860887" lon="-2.307483">
        <ele>1103.6</ele>
        <time>2023-02-11T09:26:26.000Z</time>
      </trkpt>
      <trkpt lat="41.860909" lon="-2.307405">
        <ele>1103.8</ele>
        <time>2023-02-11T09:26:27.000Z</time>
      </trkpt>
      <trkpt lat="41.860932" lon="-2.307329">
        <ele>1104</ele>
        <time>2023-02-11T09:26:28.000Z</time>
      </trkpt>
      <trkpt lat="41.860952" lon="-2.307251">
        <ele>1104.2</ele>
        <time>2023-02-11T09:26:29.000Z</time>
      </trkpt>
      <trkpt lat="41.860972" lon="-2.307174">
        <ele>1104.4</ele>
        <time>2023-02-11T09:26:30.000Z</time>
      </trkpt>
      <trkpt lat="41.860991" lon="-2.307097">
        <ele>1104.6</ele>
        <time>2023-02-11T09:26:31.000Z</time>
      </trkpt>
      <trkpt lat="41.861009" lon="-2.307019">
        <ele>1104.6</ele>
        <time>2023-02-11T09:26:32.000Z</time>
      </trkpt>
      <trkpt lat="41.861028" lon="-2.30694">
        <ele>1105</ele>
        <time>2023-02-11T09:26:33.000Z</time>
      </trkpt>
      <trkpt lat="41.861044" lon="-2.306861">
        <ele>1105.2</ele>
        <time>2023-02-11T09:26:34.000Z</time>
      </trkpt>
      <trkpt lat="41.861058" lon="-2.306781">
        <ele>1105.6</ele>
        <time>2023-02-11T09:26:35.000Z</time>
      </trkpt>
      <trkpt lat="41.861068" lon="-2.306699">
        <ele>1105.8</ele>
        <time>2023-02-11T09:26:36.000Z</time>
      </trkpt>
      <trkpt lat="41.861076" lon="-2.306615">
        <ele>1106</ele>
        <time>2023-02-11T09:26:37.000Z</time>
      </trkpt>
      <trkpt lat="41.86108" lon="-2.306532">
        <ele>1106.4</ele>
        <time>2023-02-11T09:26:38.000Z</time>
      </trkpt>
      <trkpt lat="41.861078" lon="-2.306446">
        <ele>1106.4</ele>
        <time>2023-02-11T09:26:39.000Z</time>
      </trkpt>
      <trkpt lat="41.861073" lon="-2.306356">
        <ele>1106.6</ele>
        <time>2023-02-11T09:26:40.000Z</time>
      </trkpt>
      <trkpt lat="41.861064" lon="-2.306264">
        <ele>1106.8</ele>
        <time>2023-02-11T09:26:41.000Z</time>
      </trkpt>
      <trkpt lat="41.861048" lon="-2.306174">
        <ele>1107</ele>
        <time>2023-02-11T09:26:42.000Z</time>
      </trkpt>
      <trkpt lat="41.861024" lon="-2.306088">
        <ele>1107.2</ele>
        <time>2023-02-11T09:26:43.000Z</time>
      </trkpt>
      <trkpt lat="41.860997" lon="-2.306002">
        <ele>1107.2</ele>
        <time>2023-02-11T09:26:44.000Z</time>
      </trkpt>
      <trkpt lat="41.860966" lon="-2.30592">
        <ele>1107.4</ele>
        <time>2023-02-11T09:26:45.000Z</time>
      </trkpt>
      <trkpt lat="41.860933" lon="-2.305839">
        <ele>1107.4</ele>
        <time>2023-02-11T09:26:46.000Z</time>
      </trkpt>
      <trkpt lat="41.8609" lon="-2.30576">
        <ele>1107.4</ele>
        <time>2023-02-11T09:26:47.000Z</time>
      </trkpt>
      <trkpt lat="41.860864" lon="-2.305682">
        <ele>1107.6</ele>
        <time>2023-02-11T09:26:48.000Z</time>
      </trkpt>
      <trkpt lat="41.860826" lon="-2.305605">
        <ele>1107.8</ele>
        <time>2023-02-11T09:26:49.000Z</time>
      </trkpt>
      <trkpt lat="41.860788" lon="-2.305528">
        <ele>1107.8</ele>
        <time>2023-02-11T09:26:50.000Z</time>
      </trkpt>
      <trkpt lat="41.860749" lon="-2.305452">
        <ele>1107.8</ele>
        <time>2023-02-11T09:26:51.000Z</time>
      </trkpt>
      <trkpt lat="41.860708" lon="-2.305379">
        <ele>1108</ele>
        <time>2023-02-11T09:26:52.000Z</time>
      </trkpt>
      <trkpt lat="41.860663" lon="-2.305309">
        <ele>1108</ele>
        <time>2023-02-11T09:26:53.000Z</time>
      </trkpt>
      <trkpt lat="41.860619" lon="-2.305237">
        <ele>1108.2</ele>
        <time>2023-02-11T09:26:54.000Z</time>
      </trkpt>
      <trkpt lat="41.860573" lon="-2.305166">
        <ele>1108.2</ele>
        <time>2023-02-11T09:26:55.000Z</time>
      </trkpt>
      <trkpt lat="41.860526" lon="-2.305098">
        <ele>1108.4</ele>
        <time>2023-02-11T09:26:56.000Z</time>
      </trkpt>
      <trkpt lat="41.86048" lon="-2.305031">
        <ele>1108.6</ele>
        <time>2023-02-11T09:26:57.000Z</time>
      </trkpt>
      <trkpt lat="41.860431" lon="-2.304967">
        <ele>1108.6</ele>
        <time>2023-02-11T09:26:58.000Z</time>
      </trkpt>
      <trkpt lat="41.860385" lon="-2.304902">
        <ele>1108.8</ele>
        <time>2023-02-11T09:26:59.000Z</time>
      </trkpt>
      <trkpt lat="41.860339" lon="-2.304837">
        <ele>1108.6</ele>
        <time>2023-02-11T09:27:00.000Z</time>
      </trkpt>
      <trkpt lat="41.860295" lon="-2.304771">
        <ele>1109</ele>
        <time>2023-02-11T09:27:01.000Z</time>
      </trkpt>
      <trkpt lat="41.860254" lon="-2.304702">
        <ele>1108.8</ele>
        <time>2023-02-11T09:27:02.000Z</time>
      </trkpt>
      <trkpt lat="41.860214" lon="-2.304628">
        <ele>1109.2</ele>
        <time>2023-02-11T09:27:03.000Z</time>
      </trkpt>
      <trkpt lat="41.860176" lon="-2.304549">
        <ele>1109.2</ele>
        <time>2023-02-11T09:27:04.000Z</time>
      </trkpt>
      <trkpt lat="41.860144" lon="-2.304467">
        <ele>1109.2</ele>
        <time>2023-02-11T09:27:05.000Z</time>
      </trkpt>
      <trkpt lat="41.860119" lon="-2.304387">
        <ele>1109.4</ele>
        <time>2023-02-11T09:27:06.000Z</time>
      </trkpt>
      <trkpt lat="41.860098" lon="-2.304306">
        <ele>1109.6</ele>
        <time>2023-02-11T09:27:07.000Z</time>
      </trkpt>
      <trkpt lat="41.860079" lon="-2.304216">
        <ele>1109.6</ele>
        <time>2023-02-11T09:27:08.000Z</time>
      </trkpt>
      <trkpt lat="41.860061" lon="-2.30413">
        <ele>1109.8</ele>
        <time>2023-02-11T09:27:09.000Z</time>
      </trkpt>
      <trkpt lat="41.860044" lon="-2.304041">
        <ele>1109.8</ele>
        <time>2023-02-11T09:27:10.000Z</time>
      </trkpt>
      <trkpt lat="41.860027" lon="-2.303952">
        <ele>1110</ele>
        <time>2023-02-11T09:27:11.000Z</time>
      </trkpt>
      <trkpt lat="41.860013" lon="-2.303864">
        <ele>1110.2</ele>
        <time>2023-02-11T09:27:12.000Z</time>
      </trkpt>
      <trkpt lat="41.859998" lon="-2.303776">
        <ele>1110.2</ele>
        <time>2023-02-11T09:27:13.000Z</time>
      </trkpt>
      <trkpt lat="41.859982" lon="-2.303685">
        <ele>1110.4</ele>
        <time>2023-02-11T09:27:14.000Z</time>
      </trkpt>
      <trkpt lat="41.859966" lon="-2.303593">
        <ele>1110.4</ele>
        <time>2023-02-11T09:27:15.000Z</time>
      </trkpt>
      <trkpt lat="41.859953" lon="-2.303501">
        <ele>1110.6</ele>
        <time>2023-02-11T09:27:16.000Z</time>
      </trkpt>
      <trkpt lat="41.859941" lon="-2.303411">
        <ele>1110.6</ele>
        <time>2023-02-11T09:27:17.000Z</time>
      </trkpt>
      <trkpt lat="41.859931" lon="-2.303321">
        <ele>1110.8</ele>
        <time>2023-02-11T09:27:18.000Z</time>
      </trkpt>
      <trkpt lat="41.859925" lon="-2.303231">
        <ele>1111</ele>
        <time>2023-02-11T09:27:19.000Z</time>
      </trkpt>
      <trkpt lat="41.859922" lon="-2.303144">
        <ele>1111.2</ele>
        <time>2023-02-11T09:27:20.000Z</time>
      </trkpt>
      <trkpt lat="41.859925" lon="-2.303054">
        <ele>1111.4</ele>
        <time>2023-02-11T09:27:21.000Z</time>
      </trkpt>
      <trkpt lat="41.859936" lon="-2.302965">
        <ele>1111.6</ele>
        <time>2023-02-11T09:27:22.000Z</time>
      </trkpt>
      <trkpt lat="41.859953" lon="-2.302878">
        <ele>1111.8</ele>
        <time>2023-02-11T09:27:23.000Z</time>
      </trkpt>
      <trkpt lat="41.859975" lon="-2.302794">
        <ele>1111.8</ele>
        <time>2023-02-11T09:27:24.000Z</time>
      </trkpt>
      <trkpt lat="41.860003" lon="-2.302715">
        <ele>1112</ele>
        <time>2023-02-11T09:27:25.000Z</time>
      </trkpt>
      <trkpt lat="41.86004" lon="-2.302642">
        <ele>1112.2</ele>
        <time>2023-02-11T09:27:26.000Z</time>
      </trkpt>
      <trkpt lat="41.860081" lon="-2.302574">
        <ele>1112.4</ele>
        <time>2023-02-11T09:27:27.000Z</time>
      </trkpt>
      <trkpt lat="41.860127" lon="-2.302509">
        <ele>1112.6</ele>
        <time>2023-02-11T09:27:28.000Z</time>
      </trkpt>
      <trkpt lat="41.860177" lon="-2.302445">
        <ele>1112.8</ele>
        <time>2023-02-11T09:27:29.000Z</time>
      </trkpt>
      <trkpt lat="41.860232" lon="-2.302388">
        <ele>1113</ele>
        <time>2023-02-11T09:27:30.000Z</time>
      </trkpt>
      <trkpt lat="41.860292" lon="-2.302339">
        <ele>1113.2</ele>
        <time>2023-02-11T09:27:31.000Z</time>
      </trkpt>
      <trkpt lat="41.860357" lon="-2.302298">
        <ele>1113.6</ele>
        <time>2023-02-11T09:27:32.000Z</time>
      </trkpt>
      <trkpt lat="41.860422" lon="-2.302265">
        <ele>1113.6</ele>
        <time>2023-02-11T09:27:33.000Z</time>
      </trkpt>
      <trkpt lat="41.860487" lon="-2.302235">
        <ele>1113.8</ele>
        <time>2023-02-11T09:27:34.000Z</time>
      </trkpt>
      <trkpt lat="41.860555" lon="-2.302212">
        <ele>1114</ele>
        <time>2023-02-11T09:27:35.000Z</time>
      </trkpt>
      <trkpt lat="41.860625" lon="-2.302191">
        <ele>1114.2</ele>
        <time>2023-02-11T09:27:36.000Z</time>
      </trkpt>
      <trkpt lat="41.860695" lon="-2.302171">
        <ele>1114.4</ele>
        <time>2023-02-11T09:27:37.000Z</time>
      </trkpt>
      <trkpt lat="41.860767" lon="-2.302153">
        <ele>1114.6</ele>
        <time>2023-02-11T09:27:38.000Z</time>
      </trkpt>
      <trkpt lat="41.860839" lon="-2.302133">
        <ele>1114.6</ele>
        <time>2023-02-11T09:27:39.000Z</time>
      </trkpt>
      <trkpt lat="41.860913" lon="-2.302111">
        <ele>1115</ele>
        <time>2023-02-11T09:27:40.000Z</time>
      </trkpt>
      <trkpt lat="41.860986" lon="-2.302088">
        <ele>1115</ele>
        <time>2023-02-11T09:27:41.000Z</time>
      </trkpt>
      <trkpt lat="41.861058" lon="-2.302068">
        <ele>1115</ele>
        <time>2023-02-11T09:27:42.000Z</time>
      </trkpt>
      <trkpt lat="41.861131" lon="-2.302048">
        <ele>1115.2</ele>
        <time>2023-02-11T09:27:43.000Z</time>
      </trkpt>
      <trkpt lat="41.861206" lon="-2.30202">
        <ele>1115.2</ele>
        <time>2023-02-11T09:27:44.000Z</time>
      </trkpt>
      <trkpt lat="41.861277" lon="-2.301993">
        <ele>1115.2</ele>
        <time>2023-02-11T09:27:45.000Z</time>
      </trkpt>
      <trkpt lat="41.861346" lon="-2.30196">
        <ele>1115.4</ele>
        <time>2023-02-11T09:27:46.000Z</time>
      </trkpt>
      <trkpt lat="41.861411" lon="-2.301919">
        <ele>1115.4</ele>
        <time>2023-02-11T09:27:47.000Z</time>
      </trkpt>
      <trkpt lat="41.861473" lon="-2.301874">
        <ele>1115.4</ele>
        <time>2023-02-11T09:27:48.000Z</time>
      </trkpt>
      <trkpt lat="41.861533" lon="-2.301825">
        <ele>1115.6</ele>
        <time>2023-02-11T09:27:49.000Z</time>
      </trkpt>
      <trkpt lat="41.861589" lon="-2.301771">
        <ele>1115.8</ele>
        <time>2023-02-11T09:27:50.000Z</time>
      </trkpt>
      <trkpt lat="41.861643" lon="-2.301714">
        <ele>1116</ele>
        <time>2023-02-11T09:27:51.000Z</time>
      </trkpt>
      <trkpt lat="41.861696" lon="-2.301656">
        <ele>1116.2</ele>
        <time>2023-02-11T09:27:52.000Z</time>
      </trkpt>
      <trkpt lat="41.861748" lon="-2.301597">
        <ele>1116.2</ele>
        <time>2023-02-11T09:27:53.000Z</time>
      </trkpt>
      <trkpt lat="41.861797" lon="-2.301534">
        <ele>1116.6</ele>
        <time>2023-02-11T09:27:54.000Z</time>
      </trkpt>
      <trkpt lat="41.861843" lon="-2.301467">
        <ele>1116.8</ele>
        <time>2023-02-11T09:27:55.000Z</time>
      </trkpt>
      <trkpt lat="41.861883" lon="-2.301395">
        <ele>1117.2</ele>
        <time>2023-02-11T09:27:56.000Z</time>
      </trkpt>
      <trkpt lat="41.861918" lon="-2.30132">
        <ele>1117.4</ele>
        <time>2023-02-11T09:27:57.000Z</time>
      </trkpt>
      <trkpt lat="41.861939" lon="-2.30126">
        <ele>1117.6</ele>
        <time>2023-02-11T09:27:58.000Z</time>
      </trkpt>
      <trkpt lat="41.86196" lon="-2.301201">
        <ele>1117.8</ele>
        <time>2023-02-11T09:27:59.000Z</time>
      </trkpt>
      <trkpt lat="41.862002" lon="-2.301083">
        <ele>1118</ele>
        <time>2023-02-11T09:28:00.000Z</time>
      </trkpt>
      <trkpt lat="41.862024" lon="-2.301002">
        <ele>1118.2</ele>
        <time>2023-02-11T09:28:01.000Z</time>
      </trkpt>
      <trkpt lat="41.862045" lon="-2.300921">
        <ele>1118.4</ele>
        <time>2023-02-11T09:28:02.000Z</time>
      </trkpt>
      <trkpt lat="41.862066" lon="-2.300841">
        <ele>1118.6</ele>
        <time>2023-02-11T09:28:03.000Z</time>
      </trkpt>
      <trkpt lat="41.862086" lon="-2.30076">
        <ele>1118.8</ele>
        <time>2023-02-11T09:28:04.000Z</time>
      </trkpt>
      <trkpt lat="41.862106" lon="-2.300679">
        <ele>1119.2</ele>
        <time>2023-02-11T09:28:05.000Z</time>
      </trkpt>
      <trkpt lat="41.862124" lon="-2.300598">
        <ele>1119.2</ele>
        <time>2023-02-11T09:28:06.000Z</time>
      </trkpt>
      <trkpt lat="41.862143" lon="-2.300516">
        <ele>1119.6</ele>
        <time>2023-02-11T09:28:07.000Z</time>
      </trkpt>
      <trkpt lat="41.862165" lon="-2.300433">
        <ele>1119.8</ele>
        <time>2023-02-11T09:28:08.000Z</time>
      </trkpt>
      <trkpt lat="41.862185" lon="-2.300349">
        <ele>1120</ele>
        <time>2023-02-11T09:28:09.000Z</time>
      </trkpt>
      <trkpt lat="41.862204" lon="-2.300265">
        <ele>1120.4</ele>
        <time>2023-02-11T09:28:10.000Z</time>
      </trkpt>
      <trkpt lat="41.862225" lon="-2.300182">
        <ele>1120.4</ele>
        <time>2023-02-11T09:28:11.000Z</time>
      </trkpt>
      <trkpt lat="41.862247" lon="-2.300096">
        <ele>1120.8</ele>
        <time>2023-02-11T09:28:12.000Z</time>
      </trkpt>
      <trkpt lat="41.862267" lon="-2.300011">
        <ele>1121</ele>
        <time>2023-02-11T09:28:13.000Z</time>
      </trkpt>
      <trkpt lat="41.86229" lon="-2.29993">
        <ele>1121.2</ele>
        <time>2023-02-11T09:28:14.000Z</time>
      </trkpt>
      <trkpt lat="41.862312" lon="-2.299847">
        <ele>1121.2</ele>
        <time>2023-02-11T09:28:15.000Z</time>
      </trkpt>
      <trkpt lat="41.862335" lon="-2.299768">
        <ele>1121.4</ele>
        <time>2023-02-11T09:28:16.000Z</time>
      </trkpt>
      <trkpt lat="41.862358" lon="-2.299691">
        <ele>1121.4</ele>
        <time>2023-02-11T09:28:17.000Z</time>
      </trkpt>
      <trkpt lat="41.862383" lon="-2.299616">
        <ele>1121.4</ele>
        <time>2023-02-11T09:28:18.000Z</time>
      </trkpt>
      <trkpt lat="41.862409" lon="-2.299542">
        <ele>1121.6</ele>
        <time>2023-02-11T09:28:19.000Z</time>
      </trkpt>
      <trkpt lat="41.862438" lon="-2.299469">
        <ele>1121.8</ele>
        <time>2023-02-11T09:28:20.000Z</time>
      </trkpt>
      <trkpt lat="41.86247" lon="-2.299398">
        <ele>1122.2</ele>
        <time>2023-02-11T09:28:21.000Z</time>
      </trkpt>
      <trkpt lat="41.862504" lon="-2.299325">
        <ele>1122.2</ele>
        <time>2023-02-11T09:28:22.000Z</time>
      </trkpt>
      <trkpt lat="41.862538" lon="-2.299251">
        <ele>1122.4</ele>
        <time>2023-02-11T09:28:23.000Z</time>
      </trkpt>
      <trkpt lat="41.862574" lon="-2.299177">
        <ele>1122.4</ele>
        <time>2023-02-11T09:28:24.000Z</time>
      </trkpt>
      <trkpt lat="41.862613" lon="-2.299102">
        <ele>1122.8</ele>
        <time>2023-02-11T09:28:25.000Z</time>
      </trkpt>
      <trkpt lat="41.862654" lon="-2.299027">
        <ele>1123</ele>
        <time>2023-02-11T09:28:26.000Z</time>
      </trkpt>
      <trkpt lat="41.862696" lon="-2.298954">
        <ele>1123.2</ele>
        <time>2023-02-11T09:28:27.000Z</time>
      </trkpt>
      <trkpt lat="41.862738" lon="-2.29888">
        <ele>1123.4</ele>
        <time>2023-02-11T09:28:28.000Z</time>
      </trkpt>
      <trkpt lat="41.86278" lon="-2.298805">
        <ele>1123.6</ele>
        <time>2023-02-11T09:28:29.000Z</time>
      </trkpt>
      <trkpt lat="41.862824" lon="-2.298731">
        <ele>1123.8</ele>
        <time>2023-02-11T09:28:30.000Z</time>
      </trkpt>
      <trkpt lat="41.862867" lon="-2.298657">
        <ele>1124</ele>
        <time>2023-02-11T09:28:31.000Z</time>
      </trkpt>
      <trkpt lat="41.862911" lon="-2.298585">
        <ele>1124</ele>
        <time>2023-02-11T09:28:32.000Z</time>
      </trkpt>
      <trkpt lat="41.862958" lon="-2.298517">
        <ele>1124.2</ele>
        <time>2023-02-11T09:28:33.000Z</time>
      </trkpt>
      <trkpt lat="41.863007" lon="-2.298449">
        <ele>1124.2</ele>
        <time>2023-02-11T09:28:34.000Z</time>
      </trkpt>
      <trkpt lat="41.863057" lon="-2.298385">
        <ele>1124.4</ele>
        <time>2023-02-11T09:28:35.000Z</time>
      </trkpt>
      <trkpt lat="41.863106" lon="-2.298322">
        <ele>1124.6</ele>
        <time>2023-02-11T09:28:36.000Z</time>
      </trkpt>
      <trkpt lat="41.863153" lon="-2.298262">
        <ele>1124.6</ele>
        <time>2023-02-11T09:28:37.000Z</time>
      </trkpt>
      <trkpt lat="41.863197" lon="-2.298205">
        <ele>1124.6</ele>
        <time>2023-02-11T09:28:38.000Z</time>
      </trkpt>
      <trkpt lat="41.863242" lon="-2.298147">
        <ele>1124.8</ele>
        <time>2023-02-11T09:28:39.000Z</time>
      </trkpt>
      <trkpt lat="41.863286" lon="-2.298088">
        <ele>1124.8</ele>
        <time>2023-02-11T09:28:40.000Z</time>
      </trkpt>
      <trkpt lat="41.863327" lon="-2.298026">
        <ele>1125</ele>
        <time>2023-02-11T09:28:41.000Z</time>
      </trkpt>
      <trkpt lat="41.863366" lon="-2.297962">
        <ele>1125.2</ele>
        <time>2023-02-11T09:28:42.000Z</time>
      </trkpt>
      <trkpt lat="41.863404" lon="-2.297895">
        <ele>1125.6</ele>
        <time>2023-02-11T09:28:43.000Z</time>
      </trkpt>
      <trkpt lat="41.86344" lon="-2.297825">
        <ele>1126.2</ele>
        <time>2023-02-11T09:28:44.000Z</time>
      </trkpt>
      <trkpt lat="41.863472" lon="-2.297752">
        <ele>1126.4</ele>
        <time>2023-02-11T09:28:45.000Z</time>
      </trkpt>
      <trkpt lat="41.863499" lon="-2.297678">
        <ele>1126.6</ele>
        <time>2023-02-11T09:28:46.000Z</time>
      </trkpt>
      <trkpt lat="41.863521" lon="-2.297603">
        <ele>1126.6</ele>
        <time>2023-02-11T09:28:47.000Z</time>
      </trkpt>
      <trkpt lat="41.86354" lon="-2.29753">
        <ele>1127</ele>
        <time>2023-02-11T09:28:48.000Z</time>
      </trkpt>
      <trkpt lat="41.863558" lon="-2.297455">
        <ele>1127</ele>
        <time>2023-02-11T09:28:49.000Z</time>
      </trkpt>
      <trkpt lat="41.863571" lon="-2.297377">
        <ele>1127.4</ele>
        <time>2023-02-11T09:28:50.000Z</time>
      </trkpt>
      <trkpt lat="41.863584" lon="-2.297298">
        <ele>1127.6</ele>
        <time>2023-02-11T09:28:51.000Z</time>
      </trkpt>
      <trkpt lat="41.863598" lon="-2.297222">
        <ele>1128</ele>
        <time>2023-02-11T09:28:52.000Z</time>
      </trkpt>
      <trkpt lat="41.863611" lon="-2.297144">
        <ele>1128.6</ele>
        <time>2023-02-11T09:28:53.000Z</time>
      </trkpt>
      <trkpt lat="41.863623" lon="-2.297063">
        <ele>1128.8</ele>
        <time>2023-02-11T09:28:54.000Z</time>
      </trkpt>
      <trkpt lat="41.863637" lon="-2.296984">
        <ele>1129.4</ele>
        <time>2023-02-11T09:28:55.000Z</time>
      </trkpt>
      <trkpt lat="41.863651" lon="-2.2969">
        <ele>1129.6</ele>
        <time>2023-02-11T09:28:56.000Z</time>
      </trkpt>
      <trkpt lat="41.863662" lon="-2.296815">
        <ele>1130</ele>
        <time>2023-02-11T09:28:57.000Z</time>
      </trkpt>
      <trkpt lat="41.863673" lon="-2.296728">
        <ele>1130.2</ele>
        <time>2023-02-11T09:28:58.000Z</time>
      </trkpt>
      <trkpt lat="41.863682" lon="-2.29664">
        <ele>1130.6</ele>
        <time>2023-02-11T09:28:59.000Z</time>
      </trkpt>
      <trkpt lat="41.86369" lon="-2.296552">
        <ele>1130.8</ele>
        <time>2023-02-11T09:29:00.000Z</time>
      </trkpt>
      <trkpt lat="41.863697" lon="-2.296464">
        <ele>1131.2</ele>
        <time>2023-02-11T09:29:01.000Z</time>
      </trkpt>
      <trkpt lat="41.863707" lon="-2.296377">
        <ele>1131.6</ele>
        <time>2023-02-11T09:29:02.000Z</time>
      </trkpt>
      <trkpt lat="41.863715" lon="-2.296291">
        <ele>1131.8</ele>
        <time>2023-02-11T09:29:03.000Z</time>
      </trkpt>
      <trkpt lat="41.863729" lon="-2.296202">
        <ele>1132</ele>
        <time>2023-02-11T09:29:04.000Z</time>
      </trkpt>
      <trkpt lat="41.863745" lon="-2.296114">
        <ele>1132.2</ele>
        <time>2023-02-11T09:29:05.000Z</time>
      </trkpt>
      <trkpt lat="41.863767" lon="-2.296027">
        <ele>1132.4</ele>
        <time>2023-02-11T09:29:06.000Z</time>
      </trkpt>
      <trkpt lat="41.863797" lon="-2.295944">
        <ele>1132.6</ele>
        <time>2023-02-11T09:29:07.000Z</time>
      </trkpt>
      <trkpt lat="41.863832" lon="-2.295864">
        <ele>1132.8</ele>
        <time>2023-02-11T09:29:08.000Z</time>
      </trkpt>
      <trkpt lat="41.86387" lon="-2.295787">
        <ele>1133</ele>
        <time>2023-02-11T09:29:09.000Z</time>
      </trkpt>
      <trkpt lat="41.863911" lon="-2.295711">
        <ele>1133</ele>
        <time>2023-02-11T09:29:10.000Z</time>
      </trkpt>
      <trkpt lat="41.863952" lon="-2.295634">
        <ele>1133.2</ele>
        <time>2023-02-11T09:29:11.000Z</time>
      </trkpt>
      <trkpt lat="41.863991" lon="-2.295554">
        <ele>1133.2</ele>
        <time>2023-02-11T09:29:12.000Z</time>
      </trkpt>
      <trkpt lat="41.864029" lon="-2.295474">
        <ele>1133.4</ele>
        <time>2023-02-11T09:29:13.000Z</time>
      </trkpt>
      <trkpt lat="41.864065" lon="-2.295393">
        <ele>1133.4</ele>
        <time>2023-02-11T09:29:14.000Z</time>
      </trkpt>
      <trkpt lat="41.8641" lon="-2.295309">
        <ele>1133.6</ele>
        <time>2023-02-11T09:29:15.000Z</time>
      </trkpt>
      <trkpt lat="41.864136" lon="-2.295226">
        <ele>1133.6</ele>
        <time>2023-02-11T09:29:16.000Z</time>
      </trkpt>
      <trkpt lat="41.864172" lon="-2.295144">
        <ele>1133.6</ele>
        <time>2023-02-11T09:29:17.000Z</time>
      </trkpt>
      <trkpt lat="41.864206" lon="-2.295061">
        <ele>1133.6</ele>
        <time>2023-02-11T09:29:18.000Z</time>
      </trkpt>
      <trkpt lat="41.86424" lon="-2.294977">
        <ele>1133.8</ele>
        <time>2023-02-11T09:29:19.000Z</time>
      </trkpt>
      <trkpt lat="41.864274" lon="-2.294893">
        <ele>1133.8</ele>
        <time>2023-02-11T09:29:20.000Z</time>
      </trkpt>
      <trkpt lat="41.864307" lon="-2.294808">
        <ele>1133.8</ele>
        <time>2023-02-11T09:29:21.000Z</time>
      </trkpt>
      <trkpt lat="41.864342" lon="-2.294723">
        <ele>1134</ele>
        <time>2023-02-11T09:29:22.000Z</time>
      </trkpt>
      <trkpt lat="41.864378" lon="-2.294638">
        <ele>1134</ele>
        <time>2023-02-11T09:29:23.000Z</time>
      </trkpt>
      <trkpt lat="41.864415" lon="-2.294549">
        <ele>1134</ele>
        <time>2023-02-11T09:29:24.000Z</time>
      </trkpt>
      <trkpt lat="41.864454" lon="-2.294461">
        <ele>1134</ele>
        <time>2023-02-11T09:29:25.000Z</time>
      </trkpt>
      <trkpt lat="41.864491" lon="-2.294372">
        <ele>1134.2</ele>
        <time>2023-02-11T09:29:26.000Z</time>
      </trkpt>
      <trkpt lat="41.864528" lon="-2.294283">
        <ele>1134.2</ele>
        <time>2023-02-11T09:29:27.000Z</time>
      </trkpt>
      <trkpt lat="41.864566" lon="-2.294194">
        <ele>1134.2</ele>
        <time>2023-02-11T09:29:28.000Z</time>
      </trkpt>
      <trkpt lat="41.864595" lon="-2.294127">
        <ele>1134.2</ele>
        <time>2023-02-11T09:29:29.000Z</time>
      </trkpt>
      <trkpt lat="41.864624" lon="-2.294059">
        <ele>1134.4</ele>
        <time>2023-02-11T09:29:30.000Z</time>
      </trkpt>
      <trkpt lat="41.864682" lon="-2.293924">
        <ele>1134.4</ele>
        <time>2023-02-11T09:29:31.000Z</time>
      </trkpt>
      <trkpt lat="41.864719" lon="-2.293834">
        <ele>1134.4</ele>
        <time>2023-02-11T09:29:32.000Z</time>
      </trkpt>
      <trkpt lat="41.864759" lon="-2.293742">
        <ele>1134.4</ele>
        <time>2023-02-11T09:29:33.000Z</time>
      </trkpt>
      <trkpt lat="41.864798" lon="-2.293648">
        <ele>1134.4</ele>
        <time>2023-02-11T09:29:34.000Z</time>
      </trkpt>
      <trkpt lat="41.864836" lon="-2.293555">
        <ele>1134.4</ele>
        <time>2023-02-11T09:29:35.000Z</time>
      </trkpt>
      <trkpt lat="41.864872" lon="-2.293461">
        <ele>1134.4</ele>
        <time>2023-02-11T09:29:36.000Z</time>
      </trkpt>
      <trkpt lat="41.864905" lon="-2.293366">
        <ele>1134.4</ele>
        <time>2023-02-11T09:29:37.000Z</time>
      </trkpt>
      <trkpt lat="41.864933" lon="-2.293269">
        <ele>1134.4</ele>
        <time>2023-02-11T09:29:38.000Z</time>
      </trkpt>
      <trkpt lat="41.864954" lon="-2.293171">
        <ele>1134.4</ele>
        <time>2023-02-11T09:29:39.000Z</time>
      </trkpt>
      <trkpt lat="41.864974" lon="-2.293076">
        <ele>1134.6</ele>
        <time>2023-02-11T09:29:40.000Z</time>
      </trkpt>
      <trkpt lat="41.864992" lon="-2.29298">
        <ele>1134.6</ele>
        <time>2023-02-11T09:29:41.000Z</time>
      </trkpt>
      <trkpt lat="41.865008" lon="-2.292887">
        <ele>1134.6</ele>
        <time>2023-02-11T09:29:42.000Z</time>
      </trkpt>
      <trkpt lat="41.865025" lon="-2.292795">
        <ele>1134.6</ele>
        <time>2023-02-11T09:29:43.000Z</time>
      </trkpt>
      <trkpt lat="41.86504" lon="-2.292701">
        <ele>1134.6</ele>
        <time>2023-02-11T09:29:44.000Z</time>
      </trkpt>
      <trkpt lat="41.865057" lon="-2.292611">
        <ele>1134.6</ele>
        <time>2023-02-11T09:29:45.000Z</time>
      </trkpt>
      <trkpt lat="41.865073" lon="-2.292521">
        <ele>1134.8</ele>
        <time>2023-02-11T09:29:46.000Z</time>
      </trkpt>
      <trkpt lat="41.865087" lon="-2.292431">
        <ele>1135</ele>
        <time>2023-02-11T09:29:47.000Z</time>
      </trkpt>
      <trkpt lat="41.865099" lon="-2.292345">
        <ele>1135.2</ele>
        <time>2023-02-11T09:29:48.000Z</time>
      </trkpt>
      <trkpt lat="41.865115" lon="-2.292256">
        <ele>1135.6</ele>
        <time>2023-02-11T09:29:49.000Z</time>
      </trkpt>
      <trkpt lat="41.865132" lon="-2.292167">
        <ele>1135.8</ele>
        <time>2023-02-11T09:29:50.000Z</time>
      </trkpt>
      <trkpt lat="41.865152" lon="-2.292082">
        <ele>1136</ele>
        <time>2023-02-11T09:29:51.000Z</time>
      </trkpt>
      <trkpt lat="41.865177" lon="-2.291999">
        <ele>1136.2</ele>
        <time>2023-02-11T09:29:52.000Z</time>
      </trkpt>
      <trkpt lat="41.865207" lon="-2.291918">
        <ele>1136.2</ele>
        <time>2023-02-11T09:29:53.000Z</time>
      </trkpt>
      <trkpt lat="41.865241" lon="-2.291841">
        <ele>1136.4</ele>
        <time>2023-02-11T09:29:54.000Z</time>
      </trkpt>
      <trkpt lat="41.865276" lon="-2.291762">
        <ele>1136.6</ele>
        <time>2023-02-11T09:29:55.000Z</time>
      </trkpt>
      <trkpt lat="41.865311" lon="-2.291686">
        <ele>1136.6</ele>
        <time>2023-02-11T09:29:56.000Z</time>
      </trkpt>
      <trkpt lat="41.865347" lon="-2.29161">
        <ele>1137</ele>
        <time>2023-02-11T09:29:57.000Z</time>
      </trkpt>
      <trkpt lat="41.865385" lon="-2.291537">
        <ele>1137.2</ele>
        <time>2023-02-11T09:29:58.000Z</time>
      </trkpt>
      <trkpt lat="41.865428" lon="-2.291466">
        <ele>1137.2</ele>
        <time>2023-02-11T09:29:59.000Z</time>
      </trkpt>
      <trkpt lat="41.865472" lon="-2.291401">
        <ele>1137.6</ele>
        <time>2023-02-11T09:30:00.000Z</time>
      </trkpt>
      <trkpt lat="41.865521" lon="-2.29134">
        <ele>1137.8</ele>
        <time>2023-02-11T09:30:01.000Z</time>
      </trkpt>
      <trkpt lat="41.865574" lon="-2.291279">
        <ele>1138</ele>
        <time>2023-02-11T09:30:02.000Z</time>
      </trkpt>
      <trkpt lat="41.865628" lon="-2.29122">
        <ele>1138.2</ele>
        <time>2023-02-11T09:30:03.000Z</time>
      </trkpt>
      <trkpt lat="41.865686" lon="-2.291162">
        <ele>1138.6</ele>
        <time>2023-02-11T09:30:04.000Z</time>
      </trkpt>
      <trkpt lat="41.865747" lon="-2.291106">
        <ele>1138.6</ele>
        <time>2023-02-11T09:30:05.000Z</time>
      </trkpt>
      <trkpt lat="41.865809" lon="-2.291055">
        <ele>1138.8</ele>
        <time>2023-02-11T09:30:06.000Z</time>
      </trkpt>
      <trkpt lat="41.86587" lon="-2.29101">
        <ele>1139</ele>
        <time>2023-02-11T09:30:07.000Z</time>
      </trkpt>
      <trkpt lat="41.865935" lon="-2.290971">
        <ele>1139.2</ele>
        <time>2023-02-11T09:30:08.000Z</time>
      </trkpt>
      <trkpt lat="41.866001" lon="-2.290936">
        <ele>1139.2</ele>
        <time>2023-02-11T09:30:09.000Z</time>
      </trkpt>
      <trkpt lat="41.86607" lon="-2.290902">
        <ele>1139.4</ele>
        <time>2023-02-11T09:30:10.000Z</time>
      </trkpt>
      <trkpt lat="41.866141" lon="-2.290873">
        <ele>1139.6</ele>
        <time>2023-02-11T09:30:11.000Z</time>
      </trkpt>
      <trkpt lat="41.866211" lon="-2.290842">
        <ele>1139.4</ele>
        <time>2023-02-11T09:30:12.000Z</time>
      </trkpt>
      <trkpt lat="41.866277" lon="-2.290804">
        <ele>1139.6</ele>
        <time>2023-02-11T09:30:13.000Z</time>
      </trkpt>
      <trkpt lat="41.866338" lon="-2.290756">
        <ele>1139.6</ele>
        <time>2023-02-11T09:30:14.000Z</time>
      </trkpt>
      <trkpt lat="41.866398" lon="-2.290696">
        <ele>1139.6</ele>
        <time>2023-02-11T09:30:15.000Z</time>
      </trkpt>
      <trkpt lat="41.866452" lon="-2.290625">
        <ele>1139.8</ele>
        <time>2023-02-11T09:30:16.000Z</time>
      </trkpt>
      <trkpt lat="41.866501" lon="-2.290548">
        <ele>1140.2</ele>
        <time>2023-02-11T09:30:17.000Z</time>
      </trkpt>
      <trkpt lat="41.866544" lon="-2.290473">
        <ele>1140.2</ele>
        <time>2023-02-11T09:30:18.000Z</time>
      </trkpt>
      <trkpt lat="41.866584" lon="-2.290394">
        <ele>1140.2</ele>
        <time>2023-02-11T09:30:19.000Z</time>
      </trkpt>
      <trkpt lat="41.866621" lon="-2.290314">
        <ele>1140.4</ele>
        <time>2023-02-11T09:30:20.000Z</time>
      </trkpt>
      <trkpt lat="41.866654" lon="-2.290233">
        <ele>1140.4</ele>
        <time>2023-02-11T09:30:21.000Z</time>
      </trkpt>
      <trkpt lat="41.866688" lon="-2.290154">
        <ele>1140.6</ele>
        <time>2023-02-11T09:30:22.000Z</time>
      </trkpt>
      <trkpt lat="41.86672" lon="-2.290074">
        <ele>1140.8</ele>
        <time>2023-02-11T09:30:23.000Z</time>
      </trkpt>
      <trkpt lat="41.86675" lon="-2.289996">
        <ele>1141</ele>
        <time>2023-02-11T09:30:24.000Z</time>
      </trkpt>
      <trkpt lat="41.86678" lon="-2.289917">
        <ele>1141.4</ele>
        <time>2023-02-11T09:30:25.000Z</time>
      </trkpt>
      <trkpt lat="41.86681" lon="-2.289836">
        <ele>1141.8</ele>
        <time>2023-02-11T09:30:26.000Z</time>
      </trkpt>
      <trkpt lat="41.866841" lon="-2.289757">
        <ele>1142.2</ele>
        <time>2023-02-11T09:30:27.000Z</time>
      </trkpt>
      <trkpt lat="41.866874" lon="-2.289678">
        <ele>1142.4</ele>
        <time>2023-02-11T09:30:28.000Z</time>
      </trkpt>
      <trkpt lat="41.866907" lon="-2.289597">
        <ele>1142.8</ele>
        <time>2023-02-11T09:30:29.000Z</time>
      </trkpt>
      <trkpt lat="41.866941" lon="-2.289515">
        <ele>1142.8</ele>
        <time>2023-02-11T09:30:30.000Z</time>
      </trkpt>
      <trkpt lat="41.866973" lon="-2.289432">
        <ele>1143</ele>
        <time>2023-02-11T09:30:31.000Z</time>
      </trkpt>
      <trkpt lat="41.867007" lon="-2.289351">
        <ele>1143</ele>
        <time>2023-02-11T09:30:32.000Z</time>
      </trkpt>
      <trkpt lat="41.867042" lon="-2.289271">
        <ele>1143.4</ele>
        <time>2023-02-11T09:30:33.000Z</time>
      </trkpt>
      <trkpt lat="41.867081" lon="-2.289188">
        <ele>1143.8</ele>
        <time>2023-02-11T09:30:34.000Z</time>
      </trkpt>
      <trkpt lat="41.867121" lon="-2.289106">
        <ele>1143.8</ele>
        <time>2023-02-11T09:30:35.000Z</time>
      </trkpt>
      <trkpt lat="41.867162" lon="-2.289024">
        <ele>1144</ele>
        <time>2023-02-11T09:30:36.000Z</time>
      </trkpt>
      <trkpt lat="41.867202" lon="-2.28894">
        <ele>1144.2</ele>
        <time>2023-02-11T09:30:37.000Z</time>
      </trkpt>
      <trkpt lat="41.867239" lon="-2.288851">
        <ele>1144.2</ele>
        <time>2023-02-11T09:30:38.000Z</time>
      </trkpt>
      <trkpt lat="41.86727" lon="-2.288756">
        <ele>1144.2</ele>
        <time>2023-02-11T09:30:39.000Z</time>
      </trkpt>
      <trkpt lat="41.867292" lon="-2.288657">
        <ele>1144.6</ele>
        <time>2023-02-11T09:30:40.000Z</time>
      </trkpt>
      <trkpt lat="41.867304" lon="-2.288557">
        <ele>1144.8</ele>
        <time>2023-02-11T09:30:41.000Z</time>
      </trkpt>
      <trkpt lat="41.867311" lon="-2.28846">
        <ele>1145</ele>
        <time>2023-02-11T09:30:42.000Z</time>
      </trkpt>
      <trkpt lat="41.867314" lon="-2.288367">
        <ele>1145.2</ele>
        <time>2023-02-11T09:30:43.000Z</time>
      </trkpt>
      <trkpt lat="41.867319" lon="-2.288274">
        <ele>1145.2</ele>
        <time>2023-02-11T09:30:44.000Z</time>
      </trkpt>
      <trkpt lat="41.867327" lon="-2.288183">
        <ele>1145.4</ele>
        <time>2023-02-11T09:30:45.000Z</time>
      </trkpt>
      <trkpt lat="41.867334" lon="-2.288092">
        <ele>1145.4</ele>
        <time>2023-02-11T09:30:46.000Z</time>
      </trkpt>
      <trkpt lat="41.86734" lon="-2.288002">
        <ele>1145.6</ele>
        <time>2023-02-11T09:30:47.000Z</time>
      </trkpt>
      <trkpt lat="41.867353" lon="-2.28791">
        <ele>1145.8</ele>
        <time>2023-02-11T09:30:48.000Z</time>
      </trkpt>
      <trkpt lat="41.867365" lon="-2.287818">
        <ele>1146</ele>
        <time>2023-02-11T09:30:49.000Z</time>
      </trkpt>
      <trkpt lat="41.86738" lon="-2.287727">
        <ele>1146</ele>
        <time>2023-02-11T09:30:50.000Z</time>
      </trkpt>
      <trkpt lat="41.867398" lon="-2.287638">
        <ele>1146.4</ele>
        <time>2023-02-11T09:30:51.000Z</time>
      </trkpt>
      <trkpt lat="41.867421" lon="-2.28755">
        <ele>1146.8</ele>
        <time>2023-02-11T09:30:52.000Z</time>
      </trkpt>
      <trkpt lat="41.86745" lon="-2.287466">
        <ele>1147</ele>
        <time>2023-02-11T09:30:53.000Z</time>
      </trkpt>
      <trkpt lat="41.867485" lon="-2.287384">
        <ele>1147.2</ele>
        <time>2023-02-11T09:30:54.000Z</time>
      </trkpt>
      <trkpt lat="41.867524" lon="-2.287307">
        <ele>1147.2</ele>
        <time>2023-02-11T09:30:55.000Z</time>
      </trkpt>
      <trkpt lat="41.867567" lon="-2.287234">
        <ele>1147.4</ele>
        <time>2023-02-11T09:30:56.000Z</time>
      </trkpt>
      <trkpt lat="41.867612" lon="-2.287165">
        <ele>1147.6</ele>
        <time>2023-02-11T09:30:57.000Z</time>
      </trkpt>
      <trkpt lat="41.867662" lon="-2.287101">
        <ele>1148</ele>
        <time>2023-02-11T09:30:58.000Z</time>
      </trkpt>
      <trkpt lat="41.867714" lon="-2.287044">
        <ele>1148</ele>
        <time>2023-02-11T09:30:59.000Z</time>
      </trkpt>
      <trkpt lat="41.867765" lon="-2.28699">
        <ele>1148.2</ele>
        <time>2023-02-11T09:31:00.000Z</time>
      </trkpt>
      <trkpt lat="41.867818" lon="-2.286942">
        <ele>1148.4</ele>
        <time>2023-02-11T09:31:01.000Z</time>
      </trkpt>
      <trkpt lat="41.867868" lon="-2.286891">
        <ele>1148.4</ele>
        <time>2023-02-11T09:31:02.000Z</time>
      </trkpt>
      <trkpt lat="41.867917" lon="-2.286841">
        <ele>1148.6</ele>
        <time>2023-02-11T09:31:03.000Z</time>
      </trkpt>
      <trkpt lat="41.867968" lon="-2.286792">
        <ele>1148.6</ele>
        <time>2023-02-11T09:31:04.000Z</time>
      </trkpt>
      <trkpt lat="41.868018" lon="-2.286745">
        <ele>1148.8</ele>
        <time>2023-02-11T09:31:05.000Z</time>
      </trkpt>
      <trkpt lat="41.868068" lon="-2.286701">
        <ele>1149.2</ele>
        <time>2023-02-11T09:31:06.000Z</time>
      </trkpt>
      <trkpt lat="41.868118" lon="-2.286658">
        <ele>1149.6</ele>
        <time>2023-02-11T09:31:07.000Z</time>
      </trkpt>
      <trkpt lat="41.868169" lon="-2.286614">
        <ele>1149.6</ele>
        <time>2023-02-11T09:31:08.000Z</time>
      </trkpt>
      <trkpt lat="41.868221" lon="-2.286568">
        <ele>1150.2</ele>
        <time>2023-02-11T09:31:09.000Z</time>
      </trkpt>
      <trkpt lat="41.868274" lon="-2.286524">
        <ele>1150.6</ele>
        <time>2023-02-11T09:31:10.000Z</time>
      </trkpt>
      <trkpt lat="41.868328" lon="-2.286479">
        <ele>1150.8</ele>
        <time>2023-02-11T09:31:11.000Z</time>
      </trkpt>
      <trkpt lat="41.868383" lon="-2.286433">
        <ele>1151.4</ele>
        <time>2023-02-11T09:31:12.000Z</time>
      </trkpt>
      <trkpt lat="41.868437" lon="-2.286387">
        <ele>1151.6</ele>
        <time>2023-02-11T09:31:13.000Z</time>
      </trkpt>
      <trkpt lat="41.868491" lon="-2.286341">
        <ele>1152</ele>
        <time>2023-02-11T09:31:14.000Z</time>
      </trkpt>
      <trkpt lat="41.868547" lon="-2.286297">
        <ele>1152.2</ele>
        <time>2023-02-11T09:31:15.000Z</time>
      </trkpt>
      <trkpt lat="41.868599" lon="-2.286249">
        <ele>1152.6</ele>
        <time>2023-02-11T09:31:16.000Z</time>
      </trkpt>
      <trkpt lat="41.868652" lon="-2.286198">
        <ele>1152.6</ele>
        <time>2023-02-11T09:31:17.000Z</time>
      </trkpt>
      <trkpt lat="41.868705" lon="-2.286145">
        <ele>1152.8</ele>
        <time>2023-02-11T09:31:18.000Z</time>
      </trkpt>
      <trkpt lat="41.868759" lon="-2.286094">
        <ele>1153.2</ele>
        <time>2023-02-11T09:31:19.000Z</time>
      </trkpt>
      <trkpt lat="41.868812" lon="-2.28604">
        <ele>1153.4</ele>
        <time>2023-02-11T09:31:20.000Z</time>
      </trkpt>
      <trkpt lat="41.868867" lon="-2.285989">
        <ele>1153.8</ele>
        <time>2023-02-11T09:31:21.000Z</time>
      </trkpt>
      <trkpt lat="41.868918" lon="-2.285938">
        <ele>1154</ele>
        <time>2023-02-11T09:31:22.000Z</time>
      </trkpt>
      <trkpt lat="41.868966" lon="-2.285881">
        <ele>1154.2</ele>
        <time>2023-02-11T09:31:23.000Z</time>
      </trkpt>
      <trkpt lat="41.869014" lon="-2.285818">
        <ele>1154.4</ele>
        <time>2023-02-11T09:31:24.000Z</time>
      </trkpt>
      <trkpt lat="41.869064" lon="-2.285755">
        <ele>1154.6</ele>
        <time>2023-02-11T09:31:25.000Z</time>
      </trkpt>
      <trkpt lat="41.869114" lon="-2.285696">
        <ele>1154.6</ele>
        <time>2023-02-11T09:31:26.000Z</time>
      </trkpt>
      <trkpt lat="41.869162" lon="-2.285637">
        <ele>1155</ele>
        <time>2023-02-11T09:31:27.000Z</time>
      </trkpt>
      <trkpt lat="41.869209" lon="-2.285577">
        <ele>1155.2</ele>
        <time>2023-02-11T09:31:28.000Z</time>
      </trkpt>
      <trkpt lat="41.869254" lon="-2.285516">
        <ele>1155.2</ele>
        <time>2023-02-11T09:31:29.000Z</time>
      </trkpt>
      <trkpt lat="41.8693" lon="-2.285458">
        <ele>1155.4</ele>
        <time>2023-02-11T09:31:30.000Z</time>
      </trkpt>
      <trkpt lat="41.869349" lon="-2.285403">
        <ele>1155.4</ele>
        <time>2023-02-11T09:31:31.000Z</time>
      </trkpt>
      <trkpt lat="41.869398" lon="-2.28535">
        <ele>1155.6</ele>
        <time>2023-02-11T09:31:32.000Z</time>
      </trkpt>
      <trkpt lat="41.869446" lon="-2.285296">
        <ele>1155.6</ele>
        <time>2023-02-11T09:31:33.000Z</time>
      </trkpt>
      <trkpt lat="41.869496" lon="-2.285239">
        <ele>1155.8</ele>
        <time>2023-02-11T09:31:34.000Z</time>
      </trkpt>
      <trkpt lat="41.869543" lon="-2.285177">
        <ele>1156</ele>
        <time>2023-02-11T09:31:35.000Z</time>
      </trkpt>
      <trkpt lat="41.869589" lon="-2.28512">
        <ele>1156.6</ele>
        <time>2023-02-11T09:31:36.000Z</time>
      </trkpt>
      <trkpt lat="41.869636" lon="-2.28506">
        <ele>1156.8</ele>
        <time>2023-02-11T09:31:37.000Z</time>
      </trkpt>
      <trkpt lat="41.869683" lon="-2.284999">
        <ele>1157</ele>
        <time>2023-02-11T09:31:38.000Z</time>
      </trkpt>
      <trkpt lat="41.869731" lon="-2.284937">
        <ele>1157.2</ele>
        <time>2023-02-11T09:31:39.000Z</time>
      </trkpt>
      <trkpt lat="41.869776" lon="-2.284875">
        <ele>1157.4</ele>
        <time>2023-02-11T09:31:40.000Z</time>
      </trkpt>
      <trkpt lat="41.869821" lon="-2.284813">
        <ele>1157.6</ele>
        <time>2023-02-11T09:31:41.000Z</time>
      </trkpt>
      <trkpt lat="41.869863" lon="-2.284748">
        <ele>1157.8</ele>
        <time>2023-02-11T09:31:42.000Z</time>
      </trkpt>
      <trkpt lat="41.869904" lon="-2.284681">
        <ele>1157.8</ele>
        <time>2023-02-11T09:31:43.000Z</time>
      </trkpt>
      <trkpt lat="41.869944" lon="-2.284613">
        <ele>1158</ele>
        <time>2023-02-11T09:31:44.000Z</time>
      </trkpt>
      <trkpt lat="41.869984" lon="-2.284542">
        <ele>1158</ele>
        <time>2023-02-11T09:31:45.000Z</time>
      </trkpt>
      <trkpt lat="41.870024" lon="-2.284472">
        <ele>1158.2</ele>
        <time>2023-02-11T09:31:46.000Z</time>
      </trkpt>
      <trkpt lat="41.870065" lon="-2.284402">
        <ele>1158.4</ele>
        <time>2023-02-11T09:31:47.000Z</time>
      </trkpt>
      <trkpt lat="41.870105" lon="-2.284331">
        <ele>1158.6</ele>
        <time>2023-02-11T09:31:48.000Z</time>
      </trkpt>
      <trkpt lat="41.870144" lon="-2.284262">
        <ele>1158.8</ele>
        <time>2023-02-11T09:31:49.000Z</time>
      </trkpt>
      <trkpt lat="41.870184" lon="-2.284193">
        <ele>1159</ele>
        <time>2023-02-11T09:31:50.000Z</time>
      </trkpt>
      <trkpt lat="41.870224" lon="-2.284126">
        <ele>1159.2</ele>
        <time>2023-02-11T09:31:51.000Z</time>
      </trkpt>
      <trkpt lat="41.870264" lon="-2.284061">
        <ele>1159.4</ele>
        <time>2023-02-11T09:31:52.000Z</time>
      </trkpt>
      <trkpt lat="41.870302" lon="-2.283994">
        <ele>1159.6</ele>
        <time>2023-02-11T09:31:53.000Z</time>
      </trkpt>
      <trkpt lat="41.87034" lon="-2.283926">
        <ele>1159.8</ele>
        <time>2023-02-11T09:31:54.000Z</time>
      </trkpt>
      <trkpt lat="41.870377" lon="-2.283858">
        <ele>1160</ele>
        <time>2023-02-11T09:31:55.000Z</time>
      </trkpt>
      <trkpt lat="41.870416" lon="-2.283791">
        <ele>1160</ele>
        <time>2023-02-11T09:31:56.000Z</time>
      </trkpt>
      <trkpt lat="41.870453" lon="-2.283724">
        <ele>1160.6</ele>
        <time>2023-02-11T09:31:57.000Z</time>
      </trkpt>
      <trkpt lat="41.870491" lon="-2.283656">
        <ele>1160.6</ele>
        <time>2023-02-11T09:31:58.000Z</time>
      </trkpt>
      <trkpt lat="41.87053" lon="-2.283588">
        <ele>1161.2</ele>
        <time>2023-02-11T09:31:59.000Z</time>
      </trkpt>
      <trkpt lat="41.870568" lon="-2.28352">
        <ele>1161.2</ele>
        <time>2023-02-11T09:32:00.000Z</time>
      </trkpt>
      <trkpt lat="41.870605" lon="-2.283452">
        <ele>1161.6</ele>
        <time>2023-02-11T09:32:01.000Z</time>
      </trkpt>
      <trkpt lat="41.870643" lon="-2.283382">
        <ele>1161.6</ele>
        <time>2023-02-11T09:32:02.000Z</time>
      </trkpt>
      <trkpt lat="41.87068" lon="-2.283313">
        <ele>1162</ele>
        <time>2023-02-11T09:32:03.000Z</time>
      </trkpt>
      <trkpt lat="41.870717" lon="-2.283245">
        <ele>1162.2</ele>
        <time>2023-02-11T09:32:04.000Z</time>
      </trkpt>
      <trkpt lat="41.870754" lon="-2.283176">
        <ele>1162.4</ele>
        <time>2023-02-11T09:32:05.000Z</time>
      </trkpt>
      <trkpt lat="41.870793" lon="-2.283105">
        <ele>1162.8</ele>
        <time>2023-02-11T09:32:06.000Z</time>
      </trkpt>
      <trkpt lat="41.870831" lon="-2.283038">
        <ele>1163</ele>
        <time>2023-02-11T09:32:07.000Z</time>
      </trkpt>
      <trkpt lat="41.870869" lon="-2.282971">
        <ele>1163.2</ele>
        <time>2023-02-11T09:32:08.000Z</time>
      </trkpt>
      <trkpt lat="41.870908" lon="-2.282906">
        <ele>1163.2</ele>
        <time>2023-02-11T09:32:09.000Z</time>
      </trkpt>
      <trkpt lat="41.870946" lon="-2.28284">
        <ele>1163.4</ele>
        <time>2023-02-11T09:32:10.000Z</time>
      </trkpt>
      <trkpt lat="41.870984" lon="-2.282774">
        <ele>1163.6</ele>
        <time>2023-02-11T09:32:11.000Z</time>
      </trkpt>
      <trkpt lat="41.871019" lon="-2.282708">
        <ele>1163.8</ele>
        <time>2023-02-11T09:32:12.000Z</time>
      </trkpt>
      <trkpt lat="41.871053" lon="-2.282641">
        <ele>1164.2</ele>
        <time>2023-02-11T09:32:13.000Z</time>
      </trkpt>
      <trkpt lat="41.871083" lon="-2.282574">
        <ele>1164.4</ele>
        <time>2023-02-11T09:32:14.000Z</time>
      </trkpt>
      <trkpt lat="41.871114" lon="-2.28251">
        <ele>1164.8</ele>
        <time>2023-02-11T09:32:15.000Z</time>
      </trkpt>
      <trkpt lat="41.871141" lon="-2.282446">
        <ele>1164.8</ele>
        <time>2023-02-11T09:32:16.000Z</time>
      </trkpt>
      <trkpt lat="41.871171" lon="-2.282379">
        <ele>1165.2</ele>
        <time>2023-02-11T09:32:17.000Z</time>
      </trkpt>
      <trkpt lat="41.871199" lon="-2.282314">
        <ele>1165.6</ele>
        <time>2023-02-11T09:32:18.000Z</time>
      </trkpt>
      <trkpt lat="41.87122" lon="-2.282249">
        <ele>1166.2</ele>
        <time>2023-02-11T09:32:19.000Z</time>
      </trkpt>
      <trkpt lat="41.871242" lon="-2.282185">
        <ele>1166.4</ele>
        <time>2023-02-11T09:32:20.000Z</time>
      </trkpt>
      <trkpt lat="41.871264" lon="-2.28212">
        <ele>1166.6</ele>
        <time>2023-02-11T09:32:21.000Z</time>
      </trkpt>
      <trkpt lat="41.871278" lon="-2.282068">
        <ele>1167</ele>
        <time>2023-02-11T09:32:22.000Z</time>
      </trkpt>
      <trkpt lat="41.871292" lon="-2.282016">
        <ele>1167.4</ele>
        <time>2023-02-11T09:32:23.000Z</time>
      </trkpt>
      <trkpt lat="41.871321" lon="-2.281912">
        <ele>1167.8</ele>
        <time>2023-02-11T09:32:24.000Z</time>
      </trkpt>
      <trkpt lat="41.871332" lon="-2.281841">
        <ele>1168</ele>
        <time>2023-02-11T09:32:25.000Z</time>
      </trkpt>
      <trkpt lat="41.871344" lon="-2.281771">
        <ele>1168.4</ele>
        <time>2023-02-11T09:32:26.000Z</time>
      </trkpt>
      <trkpt lat="41.871352" lon="-2.281703">
        <ele>1168.6</ele>
        <time>2023-02-11T09:32:27.000Z</time>
      </trkpt>
      <trkpt lat="41.871359" lon="-2.281635">
        <ele>1168.8</ele>
        <time>2023-02-11T09:32:28.000Z</time>
      </trkpt>
      <trkpt lat="41.871365" lon="-2.281567">
        <ele>1169</ele>
        <time>2023-02-11T09:32:29.000Z</time>
      </trkpt>
      <trkpt lat="41.871368" lon="-2.281506">
        <ele>1169.4</ele>
        <time>2023-02-11T09:32:30.000Z</time>
      </trkpt>
      <trkpt lat="41.871368" lon="-2.28144">
        <ele>1170</ele>
        <time>2023-02-11T09:32:31.000Z</time>
      </trkpt>
      <trkpt lat="41.871366" lon="-2.281375">
        <ele>1170.2</ele>
        <time>2023-02-11T09:32:32.000Z</time>
      </trkpt>
      <trkpt lat="41.871369" lon="-2.281308">
        <ele>1170.8</ele>
        <time>2023-02-11T09:32:33.000Z</time>
      </trkpt>
      <trkpt lat="41.871371" lon="-2.281242">
        <ele>1171</ele>
        <time>2023-02-11T09:32:34.000Z</time>
      </trkpt>
      <trkpt lat="41.871369" lon="-2.281175">
        <ele>1171.4</ele>
        <time>2023-02-11T09:32:35.000Z</time>
      </trkpt>
      <trkpt lat="41.871364" lon="-2.281108">
        <ele>1171.8</ele>
        <time>2023-02-11T09:32:36.000Z</time>
      </trkpt>
      <trkpt lat="41.871362" lon="-2.28104">
        <ele>1172.2</ele>
        <time>2023-02-11T09:32:37.000Z</time>
      </trkpt>
      <trkpt lat="41.87136" lon="-2.280972">
        <ele>1172.6</ele>
        <time>2023-02-11T09:32:38.000Z</time>
      </trkpt>
      <trkpt lat="41.871356" lon="-2.280905">
        <ele>1173</ele>
        <time>2023-02-11T09:32:39.000Z</time>
      </trkpt>
      <trkpt lat="41.871348" lon="-2.280836">
        <ele>1173.6</ele>
        <time>2023-02-11T09:32:40.000Z</time>
      </trkpt>
      <trkpt lat="41.871343" lon="-2.280767">
        <ele>1173.6</ele>
        <time>2023-02-11T09:32:41.000Z</time>
      </trkpt>
      <trkpt lat="41.871339" lon="-2.280696">
        <ele>1174.2</ele>
        <time>2023-02-11T09:32:42.000Z</time>
      </trkpt>
      <trkpt lat="41.871331" lon="-2.280624">
        <ele>1174.4</ele>
        <time>2023-02-11T09:32:43.000Z</time>
      </trkpt>
      <trkpt lat="41.871323" lon="-2.280552">
        <ele>1174.8</ele>
        <time>2023-02-11T09:32:44.000Z</time>
      </trkpt>
      <trkpt lat="41.871317" lon="-2.280482">
        <ele>1175</ele>
        <time>2023-02-11T09:32:45.000Z</time>
      </trkpt>
      <trkpt lat="41.871309" lon="-2.280411">
        <ele>1175.2</ele>
        <time>2023-02-11T09:32:46.000Z</time>
      </trkpt>
      <trkpt lat="41.871301" lon="-2.280339">
        <ele>1175.4</ele>
        <time>2023-02-11T09:32:47.000Z</time>
      </trkpt>
      <trkpt lat="41.871295" lon="-2.280268">
        <ele>1175.8</ele>
        <time>2023-02-11T09:32:48.000Z</time>
      </trkpt>
      <trkpt lat="41.871286" lon="-2.280198">
        <ele>1176.4</ele>
        <time>2023-02-11T09:32:49.000Z</time>
      </trkpt>
      <trkpt lat="41.871277" lon="-2.280127">
        <ele>1176.6</ele>
        <time>2023-02-11T09:32:50.000Z</time>
      </trkpt>
      <trkpt lat="41.871269" lon="-2.280056">
        <ele>1177</ele>
        <time>2023-02-11T09:32:51.000Z</time>
      </trkpt>
      <trkpt lat="41.871262" lon="-2.279985">
        <ele>1177.2</ele>
        <time>2023-02-11T09:32:52.000Z</time>
      </trkpt>
      <trkpt lat="41.871255" lon="-2.279913">
        <ele>1177.4</ele>
        <time>2023-02-11T09:32:53.000Z</time>
      </trkpt>
      <trkpt lat="41.87125" lon="-2.279842">
        <ele>1177.6</ele>
        <time>2023-02-11T09:32:54.000Z</time>
      </trkpt>
      <trkpt lat="41.871246" lon="-2.27977">
        <ele>1177.8</ele>
        <time>2023-02-11T09:32:55.000Z</time>
      </trkpt>
      <trkpt lat="41.871243" lon="-2.279698">
        <ele>1178</ele>
        <time>2023-02-11T09:32:56.000Z</time>
      </trkpt>
      <trkpt lat="41.871244" lon="-2.279626">
        <ele>1178.4</ele>
        <time>2023-02-11T09:32:57.000Z</time>
      </trkpt>
      <trkpt lat="41.871247" lon="-2.279553">
        <ele>1178.8</ele>
        <time>2023-02-11T09:32:58.000Z</time>
      </trkpt>
      <trkpt lat="41.871251" lon="-2.279478">
        <ele>1179</ele>
        <time>2023-02-11T09:32:59.000Z</time>
      </trkpt>
      <trkpt lat="41.871256" lon="-2.279403">
        <ele>1179.2</ele>
        <time>2023-02-11T09:33:00.000Z</time>
      </trkpt>
      <trkpt lat="41.871264" lon="-2.279331">
        <ele>1179.4</ele>
        <time>2023-02-11T09:33:01.000Z</time>
      </trkpt>
      <trkpt lat="41.871278" lon="-2.27926">
        <ele>1179.4</ele>
        <time>2023-02-11T09:33:02.000Z</time>
      </trkpt>
      <trkpt lat="41.871293" lon="-2.27919">
        <ele>1179.6</ele>
        <time>2023-02-11T09:33:03.000Z</time>
      </trkpt>
      <trkpt lat="41.871307" lon="-2.279119">
        <ele>1179.8</ele>
        <time>2023-02-11T09:33:04.000Z</time>
      </trkpt>
      <trkpt lat="41.871323" lon="-2.27905">
        <ele>1180</ele>
        <time>2023-02-11T09:33:05.000Z</time>
      </trkpt>
      <trkpt lat="41.87134" lon="-2.278981">
        <ele>1180</ele>
        <time>2023-02-11T09:33:06.000Z</time>
      </trkpt>
      <trkpt lat="41.871357" lon="-2.27891">
        <ele>1180.4</ele>
        <time>2023-02-11T09:33:07.000Z</time>
      </trkpt>
      <trkpt lat="41.871374" lon="-2.278838">
        <ele>1180.6</ele>
        <time>2023-02-11T09:33:08.000Z</time>
      </trkpt>
      <trkpt lat="41.871391" lon="-2.278766">
        <ele>1181.2</ele>
        <time>2023-02-11T09:33:09.000Z</time>
      </trkpt>
      <trkpt lat="41.871408" lon="-2.278692">
        <ele>1181.4</ele>
        <time>2023-02-11T09:33:10.000Z</time>
      </trkpt>
      <trkpt lat="41.871426" lon="-2.278615">
        <ele>1181.6</ele>
        <time>2023-02-11T09:33:11.000Z</time>
      </trkpt>
      <trkpt lat="41.871444" lon="-2.278537">
        <ele>1181.8</ele>
        <time>2023-02-11T09:33:12.000Z</time>
      </trkpt>
      <trkpt lat="41.871465" lon="-2.278456">
        <ele>1182</ele>
        <time>2023-02-11T09:33:13.000Z</time>
      </trkpt>
      <trkpt lat="41.871485" lon="-2.278374">
        <ele>1182</ele>
        <time>2023-02-11T09:33:14.000Z</time>
      </trkpt>
      <trkpt lat="41.871506" lon="-2.27829">
        <ele>1182.4</ele>
        <time>2023-02-11T09:33:15.000Z</time>
      </trkpt>
      <trkpt lat="41.87153" lon="-2.278204">
        <ele>1182.6</ele>
        <time>2023-02-11T09:33:16.000Z</time>
      </trkpt>
      <trkpt lat="41.871553" lon="-2.278117">
        <ele>1182.8</ele>
        <time>2023-02-11T09:33:17.000Z</time>
      </trkpt>
      <trkpt lat="41.871574" lon="-2.278028">
        <ele>1182.8</ele>
        <time>2023-02-11T09:33:18.000Z</time>
      </trkpt>
      <trkpt lat="41.871596" lon="-2.277938">
        <ele>1182.6</ele>
        <time>2023-02-11T09:33:19.000Z</time>
      </trkpt>
      <trkpt lat="41.871619" lon="-2.277847">
        <ele>1182.6</ele>
        <time>2023-02-11T09:33:20.000Z</time>
      </trkpt>
      <trkpt lat="41.871644" lon="-2.277758">
        <ele>1182.6</ele>
        <time>2023-02-11T09:33:21.000Z</time>
      </trkpt>
      <trkpt lat="41.871675" lon="-2.277671">
        <ele>1182.6</ele>
        <time>2023-02-11T09:33:22.000Z</time>
      </trkpt>
      <trkpt lat="41.871706" lon="-2.277585">
        <ele>1182.8</ele>
        <time>2023-02-11T09:33:23.000Z</time>
      </trkpt>
      <trkpt lat="41.871743" lon="-2.277502">
        <ele>1182.8</ele>
        <time>2023-02-11T09:33:24.000Z</time>
      </trkpt>
      <trkpt lat="41.871781" lon="-2.277421">
        <ele>1182.8</ele>
        <time>2023-02-11T09:33:25.000Z</time>
      </trkpt>
      <trkpt lat="41.871818" lon="-2.277343">
        <ele>1183</ele>
        <time>2023-02-11T09:33:26.000Z</time>
      </trkpt>
      <trkpt lat="41.871855" lon="-2.277267">
        <ele>1183</ele>
        <time>2023-02-11T09:33:27.000Z</time>
      </trkpt>
      <trkpt lat="41.871892" lon="-2.277194">
        <ele>1183</ele>
        <time>2023-02-11T09:33:28.000Z</time>
      </trkpt>
      <trkpt lat="41.871929" lon="-2.277123">
        <ele>1183.4</ele>
        <time>2023-02-11T09:33:29.000Z</time>
      </trkpt>
      <trkpt lat="41.871965" lon="-2.277052">
        <ele>1183.6</ele>
        <time>2023-02-11T09:33:30.000Z</time>
      </trkpt>
      <trkpt lat="41.872" lon="-2.276983">
        <ele>1183.8</ele>
        <time>2023-02-11T09:33:31.000Z</time>
      </trkpt>
      <trkpt lat="41.872031" lon="-2.276916">
        <ele>1183.8</ele>
        <time>2023-02-11T09:33:32.000Z</time>
      </trkpt>
      <trkpt lat="41.872063" lon="-2.27685">
        <ele>1184</ele>
        <time>2023-02-11T09:33:33.000Z</time>
      </trkpt>
      <trkpt lat="41.872093" lon="-2.276783">
        <ele>1184.2</ele>
        <time>2023-02-11T09:33:34.000Z</time>
      </trkpt>
      <trkpt lat="41.87212" lon="-2.276716">
        <ele>1184.4</ele>
        <time>2023-02-11T09:33:35.000Z</time>
      </trkpt>
      <trkpt lat="41.872148" lon="-2.276646">
        <ele>1184.8</ele>
        <time>2023-02-11T09:33:36.000Z</time>
      </trkpt>
      <trkpt lat="41.872173" lon="-2.27658">
        <ele>1185</ele>
        <time>2023-02-11T09:33:37.000Z</time>
      </trkpt>
      <trkpt lat="41.872197" lon="-2.276511">
        <ele>1185.2</ele>
        <time>2023-02-11T09:33:38.000Z</time>
      </trkpt>
      <trkpt lat="41.872218" lon="-2.276441">
        <ele>1185.2</ele>
        <time>2023-02-11T09:33:39.000Z</time>
      </trkpt>
      <trkpt lat="41.872241" lon="-2.276371">
        <ele>1185.4</ele>
        <time>2023-02-11T09:33:40.000Z</time>
      </trkpt>
      <trkpt lat="41.872266" lon="-2.276301">
        <ele>1185.4</ele>
        <time>2023-02-11T09:33:41.000Z</time>
      </trkpt>
      <trkpt lat="41.872291" lon="-2.276231">
        <ele>1185.6</ele>
        <time>2023-02-11T09:33:42.000Z</time>
      </trkpt>
      <trkpt lat="41.872312" lon="-2.276158">
        <ele>1186.2</ele>
        <time>2023-02-11T09:33:43.000Z</time>
      </trkpt>
      <trkpt lat="41.872335" lon="-2.276087">
        <ele>1186.4</ele>
        <time>2023-02-11T09:33:44.000Z</time>
      </trkpt>
      <trkpt lat="41.872359" lon="-2.276017">
        <ele>1186.6</ele>
        <time>2023-02-11T09:33:45.000Z</time>
      </trkpt>
      <trkpt lat="41.872383" lon="-2.275947">
        <ele>1186.8</ele>
        <time>2023-02-11T09:33:46.000Z</time>
      </trkpt>
      <trkpt lat="41.872405" lon="-2.275876">
        <ele>1187.2</ele>
        <time>2023-02-11T09:33:47.000Z</time>
      </trkpt>
      <trkpt lat="41.872426" lon="-2.275803">
        <ele>1187.4</ele>
        <time>2023-02-11T09:33:48.000Z</time>
      </trkpt>
      <trkpt lat="41.872449" lon="-2.275731">
        <ele>1187.6</ele>
        <time>2023-02-11T09:33:49.000Z</time>
      </trkpt>
      <trkpt lat="41.872472" lon="-2.275662">
        <ele>1187.8</ele>
        <time>2023-02-11T09:33:50.000Z</time>
      </trkpt>
      <trkpt lat="41.872494" lon="-2.275594">
        <ele>1188.2</ele>
        <time>2023-02-11T09:33:51.000Z</time>
      </trkpt>
      <trkpt lat="41.872514" lon="-2.275525">
        <ele>1188.6</ele>
        <time>2023-02-11T09:33:52.000Z</time>
      </trkpt>
      <trkpt lat="41.872536" lon="-2.275456">
        <ele>1188.8</ele>
        <time>2023-02-11T09:33:53.000Z</time>
      </trkpt>
      <trkpt lat="41.872562" lon="-2.275387">
        <ele>1189</ele>
        <time>2023-02-11T09:33:54.000Z</time>
      </trkpt>
      <trkpt lat="41.87259" lon="-2.275323">
        <ele>1189.2</ele>
        <time>2023-02-11T09:33:55.000Z</time>
      </trkpt>
      <trkpt lat="41.872617" lon="-2.275257">
        <ele>1189.6</ele>
        <time>2023-02-11T09:33:56.000Z</time>
      </trkpt>
      <trkpt lat="41.872645" lon="-2.275197">
        <ele>1189.8</ele>
        <time>2023-02-11T09:33:57.000Z</time>
      </trkpt>
      <trkpt lat="41.872669" lon="-2.275139">
        <ele>1190.4</ele>
        <time>2023-02-11T09:33:58.000Z</time>
      </trkpt>
      <trkpt lat="41.872692" lon="-2.275079">
        <ele>1190.6</ele>
        <time>2023-02-11T09:33:59.000Z</time>
      </trkpt>
      <trkpt lat="41.872718" lon="-2.275019">
        <ele>1190.8</ele>
        <time>2023-02-11T09:34:00.000Z</time>
      </trkpt>
      <trkpt lat="41.872746" lon="-2.274961">
        <ele>1191.2</ele>
        <time>2023-02-11T09:34:01.000Z</time>
      </trkpt>
      <trkpt lat="41.872771" lon="-2.274904">
        <ele>1191.6</ele>
        <time>2023-02-11T09:34:02.000Z</time>
      </trkpt>
      <trkpt lat="41.872797" lon="-2.274846">
        <ele>1192</ele>
        <time>2023-02-11T09:34:03.000Z</time>
      </trkpt>
      <trkpt lat="41.872819" lon="-2.274788">
        <ele>1192.2</ele>
        <time>2023-02-11T09:34:04.000Z</time>
      </trkpt>
      <trkpt lat="41.872846" lon="-2.274732">
        <ele>1192.6</ele>
        <time>2023-02-11T09:34:05.000Z</time>
      </trkpt>
      <trkpt lat="41.872875" lon="-2.274678">
        <ele>1193</ele>
        <time>2023-02-11T09:34:06.000Z</time>
      </trkpt>
      <trkpt lat="41.872902" lon="-2.274623">
        <ele>1193.4</ele>
        <time>2023-02-11T09:34:07.000Z</time>
      </trkpt>
      <trkpt lat="41.872925" lon="-2.274566">
        <ele>1193.6</ele>
        <time>2023-02-11T09:34:08.000Z</time>
      </trkpt>
      <trkpt lat="41.872948" lon="-2.27451">
        <ele>1194</ele>
        <time>2023-02-11T09:34:09.000Z</time>
      </trkpt>
      <trkpt lat="41.872972" lon="-2.274455">
        <ele>1194.2</ele>
        <time>2023-02-11T09:34:10.000Z</time>
      </trkpt>
      <trkpt lat="41.872999" lon="-2.274402">
        <ele>1194.6</ele>
        <time>2023-02-11T09:34:11.000Z</time>
      </trkpt>
      <trkpt lat="41.873024" lon="-2.274349">
        <ele>1195.4</ele>
        <time>2023-02-11T09:34:12.000Z</time>
      </trkpt>
      <trkpt lat="41.87305" lon="-2.274295">
        <ele>1195.6</ele>
        <time>2023-02-11T09:34:13.000Z</time>
      </trkpt>
      <trkpt lat="41.873073" lon="-2.274237">
        <ele>1195.8</ele>
        <time>2023-02-11T09:34:14.000Z</time>
      </trkpt>
      <trkpt lat="41.873097" lon="-2.27418">
        <ele>1196</ele>
        <time>2023-02-11T09:34:15.000Z</time>
      </trkpt>
      <trkpt lat="41.873124" lon="-2.274126">
        <ele>1196.4</ele>
        <time>2023-02-11T09:34:16.000Z</time>
      </trkpt>
      <trkpt lat="41.873153" lon="-2.274074">
        <ele>1196.6</ele>
        <time>2023-02-11T09:34:17.000Z</time>
      </trkpt>
      <trkpt lat="41.873181" lon="-2.274016">
        <ele>1197.2</ele>
        <time>2023-02-11T09:34:18.000Z</time>
      </trkpt>
      <trkpt lat="41.873206" lon="-2.273958">
        <ele>1197.4</ele>
        <time>2023-02-11T09:34:19.000Z</time>
      </trkpt>
      <trkpt lat="41.873233" lon="-2.273902">
        <ele>1197.6</ele>
        <time>2023-02-11T09:34:20.000Z</time>
      </trkpt>
      <trkpt lat="41.873262" lon="-2.273847">
        <ele>1198.2</ele>
        <time>2023-02-11T09:34:21.000Z</time>
      </trkpt>
      <trkpt lat="41.873289" lon="-2.27379">
        <ele>1198.4</ele>
        <time>2023-02-11T09:34:22.000Z</time>
      </trkpt>
      <trkpt lat="41.873314" lon="-2.273729">
        <ele>1198.8</ele>
        <time>2023-02-11T09:34:23.000Z</time>
      </trkpt>
      <trkpt lat="41.873339" lon="-2.273672">
        <ele>1199</ele>
        <time>2023-02-11T09:34:24.000Z</time>
      </trkpt>
      <trkpt lat="41.873367" lon="-2.273614">
        <ele>1199.2</ele>
        <time>2023-02-11T09:34:25.000Z</time>
      </trkpt>
      <trkpt lat="41.873396" lon="-2.273554">
        <ele>1199.4</ele>
        <time>2023-02-11T09:34:26.000Z</time>
      </trkpt>
      <trkpt lat="41.873421" lon="-2.273489">
        <ele>1199.8</ele>
        <time>2023-02-11T09:34:27.000Z</time>
      </trkpt>
      <trkpt lat="41.873446" lon="-2.273423">
        <ele>1200</ele>
        <time>2023-02-11T09:34:28.000Z</time>
      </trkpt>
      <trkpt lat="41.873474" lon="-2.273359">
        <ele>1200.4</ele>
        <time>2023-02-11T09:34:29.000Z</time>
      </trkpt>
      <trkpt lat="41.873501" lon="-2.273295">
        <ele>1200.8</ele>
        <time>2023-02-11T09:34:30.000Z</time>
      </trkpt>
      <trkpt lat="41.87353" lon="-2.273234">
        <ele>1201</ele>
        <time>2023-02-11T09:34:31.000Z</time>
      </trkpt>
      <trkpt lat="41.873559" lon="-2.273172">
        <ele>1201.4</ele>
        <time>2023-02-11T09:34:32.000Z</time>
      </trkpt>
      <trkpt lat="41.873589" lon="-2.27311">
        <ele>1201.6</ele>
        <time>2023-02-11T09:34:33.000Z</time>
      </trkpt>
      <trkpt lat="41.873618" lon="-2.273048">
        <ele>1201.8</ele>
        <time>2023-02-11T09:34:34.000Z</time>
      </trkpt>
      <trkpt lat="41.873648" lon="-2.272984">
        <ele>1201.8</ele>
        <time>2023-02-11T09:34:35.000Z</time>
      </trkpt>
      <trkpt lat="41.873678" lon="-2.272919">
        <ele>1202</ele>
        <time>2023-02-11T09:34:36.000Z</time>
      </trkpt>
      <trkpt lat="41.873707" lon="-2.272853">
        <ele>1202.2</ele>
        <time>2023-02-11T09:34:37.000Z</time>
      </trkpt>
      <trkpt lat="41.873736" lon="-2.272788">
        <ele>1202.4</ele>
        <time>2023-02-11T09:34:38.000Z</time>
      </trkpt>
      <trkpt lat="41.873766" lon="-2.272724">
        <ele>1202.6</ele>
        <time>2023-02-11T09:34:39.000Z</time>
      </trkpt>
      <trkpt lat="41.873797" lon="-2.272659">
        <ele>1202.8</ele>
        <time>2023-02-11T09:34:40.000Z</time>
      </trkpt>
      <trkpt lat="41.873828" lon="-2.272592">
        <ele>1203</ele>
        <time>2023-02-11T09:34:41.000Z</time>
      </trkpt>
      <trkpt lat="41.873859" lon="-2.272525">
        <ele>1203.2</ele>
        <time>2023-02-11T09:34:42.000Z</time>
      </trkpt>
      <trkpt lat="41.873892" lon="-2.27246">
        <ele>1203.6</ele>
        <time>2023-02-11T09:34:43.000Z</time>
      </trkpt>
      <trkpt lat="41.873925" lon="-2.272392">
        <ele>1203.8</ele>
        <time>2023-02-11T09:34:44.000Z</time>
      </trkpt>
      <trkpt lat="41.873957" lon="-2.272325">
        <ele>1204</ele>
        <time>2023-02-11T09:34:45.000Z</time>
      </trkpt>
      <trkpt lat="41.873986" lon="-2.272256">
        <ele>1204.2</ele>
        <time>2023-02-11T09:34:46.000Z</time>
      </trkpt>
      <trkpt lat="41.874018" lon="-2.272189">
        <ele>1204.4</ele>
        <time>2023-02-11T09:34:47.000Z</time>
      </trkpt>
      <trkpt lat="41.874048" lon="-2.272122">
        <ele>1204.8</ele>
        <time>2023-02-11T09:34:48.000Z</time>
      </trkpt>
      <trkpt lat="41.87408" lon="-2.272055">
        <ele>1204.8</ele>
        <time>2023-02-11T09:34:49.000Z</time>
      </trkpt>
      <trkpt lat="41.874111" lon="-2.271987">
        <ele>1205.2</ele>
        <time>2023-02-11T09:34:50.000Z</time>
      </trkpt>
      <trkpt lat="41.874142" lon="-2.271917">
        <ele>1205.4</ele>
        <time>2023-02-11T09:34:51.000Z</time>
      </trkpt>
      <trkpt lat="41.874172" lon="-2.271846">
        <ele>1205.6</ele>
        <time>2023-02-11T09:34:52.000Z</time>
      </trkpt>
      <trkpt lat="41.8742" lon="-2.271774">
        <ele>1205.6</ele>
        <time>2023-02-11T09:34:53.000Z</time>
      </trkpt>
      <trkpt lat="41.874228" lon="-2.271701">
        <ele>1205.8</ele>
        <time>2023-02-11T09:34:54.000Z</time>
      </trkpt>
      <trkpt lat="41.874255" lon="-2.271625">
        <ele>1206</ele>
        <time>2023-02-11T09:34:55.000Z</time>
      </trkpt>
      <trkpt lat="41.874281" lon="-2.271548">
        <ele>1206.4</ele>
        <time>2023-02-11T09:34:56.000Z</time>
      </trkpt>
      <trkpt lat="41.874304" lon="-2.271469">
        <ele>1206.6</ele>
        <time>2023-02-11T09:34:57.000Z</time>
      </trkpt>
      <trkpt lat="41.874327" lon="-2.271388">
        <ele>1206.6</ele>
        <time>2023-02-11T09:34:58.000Z</time>
      </trkpt>
      <trkpt lat="41.87435" lon="-2.271307">
        <ele>1206.8</ele>
        <time>2023-02-11T09:34:59.000Z</time>
      </trkpt>
      <trkpt lat="41.87437" lon="-2.271224">
        <ele>1207</ele>
        <time>2023-02-11T09:35:00.000Z</time>
      </trkpt>
      <trkpt lat="41.874387" lon="-2.271139">
        <ele>1207.2</ele>
        <time>2023-02-11T09:35:01.000Z</time>
      </trkpt>
      <trkpt lat="41.874405" lon="-2.271054">
        <ele>1207.4</ele>
        <time>2023-02-11T09:35:02.000Z</time>
      </trkpt>
      <trkpt lat="41.874422" lon="-2.270968">
        <ele>1207.4</ele>
        <time>2023-02-11T09:35:03.000Z</time>
      </trkpt>
      <trkpt lat="41.874435" lon="-2.270881">
        <ele>1207.6</ele>
        <time>2023-02-11T09:35:04.000Z</time>
      </trkpt>
      <trkpt lat="41.87445" lon="-2.270796">
        <ele>1207.6</ele>
        <time>2023-02-11T09:35:05.000Z</time>
      </trkpt>
      <trkpt lat="41.874464" lon="-2.270709">
        <ele>1207.6</ele>
        <time>2023-02-11T09:35:06.000Z</time>
      </trkpt>
      <trkpt lat="41.874475" lon="-2.270622">
        <ele>1207.8</ele>
        <time>2023-02-11T09:35:07.000Z</time>
      </trkpt>
      <trkpt lat="41.874486" lon="-2.270535">
        <ele>1207.8</ele>
        <time>2023-02-11T09:35:08.000Z</time>
      </trkpt>
      <trkpt lat="41.874496" lon="-2.270447">
        <ele>1207.8</ele>
        <time>2023-02-11T09:35:09.000Z</time>
      </trkpt>
      <trkpt lat="41.874505" lon="-2.27036">
        <ele>1208</ele>
        <time>2023-02-11T09:35:10.000Z</time>
      </trkpt>
      <trkpt lat="41.874515" lon="-2.270274">
        <ele>1208.2</ele>
        <time>2023-02-11T09:35:11.000Z</time>
      </trkpt>
      <trkpt lat="41.874524" lon="-2.270188">
        <ele>1208.4</ele>
        <time>2023-02-11T09:35:12.000Z</time>
      </trkpt>
      <trkpt lat="41.874532" lon="-2.270101">
        <ele>1208.6</ele>
        <time>2023-02-11T09:35:13.000Z</time>
      </trkpt>
      <trkpt lat="41.874541" lon="-2.270015">
        <ele>1208.8</ele>
        <time>2023-02-11T09:35:14.000Z</time>
      </trkpt>
      <trkpt lat="41.874552" lon="-2.269929">
        <ele>1209</ele>
        <time>2023-02-11T09:35:15.000Z</time>
      </trkpt>
      <trkpt lat="41.874561" lon="-2.269842">
        <ele>1209</ele>
        <time>2023-02-11T09:35:16.000Z</time>
      </trkpt>
      <trkpt lat="41.87457" lon="-2.269752">
        <ele>1209.2</ele>
        <time>2023-02-11T09:35:17.000Z</time>
      </trkpt>
      <trkpt lat="41.87458" lon="-2.269663">
        <ele>1209.2</ele>
        <time>2023-02-11T09:35:18.000Z</time>
      </trkpt>
      <trkpt lat="41.874592" lon="-2.269574">
        <ele>1209.4</ele>
        <time>2023-02-11T09:35:19.000Z</time>
      </trkpt>
      <trkpt lat="41.874605" lon="-2.269485">
        <ele>1209.6</ele>
        <time>2023-02-11T09:35:20.000Z</time>
      </trkpt>
      <trkpt lat="41.874618" lon="-2.269397">
        <ele>1209.8</ele>
        <time>2023-02-11T09:35:21.000Z</time>
      </trkpt>
      <trkpt lat="41.874633" lon="-2.269309">
        <ele>1209.8</ele>
        <time>2023-02-11T09:35:22.000Z</time>
      </trkpt>
      <trkpt lat="41.874649" lon="-2.269224">
        <ele>1210</ele>
        <time>2023-02-11T09:35:23.000Z</time>
      </trkpt>
      <trkpt lat="41.874667" lon="-2.269139">
        <ele>1210</ele>
        <time>2023-02-11T09:35:24.000Z</time>
      </trkpt>
      <trkpt lat="41.874687" lon="-2.269054">
        <ele>1210.2</ele>
        <time>2023-02-11T09:35:25.000Z</time>
      </trkpt>
      <trkpt lat="41.874712" lon="-2.26897">
        <ele>1210.2</ele>
        <time>2023-02-11T09:35:26.000Z</time>
      </trkpt>
      <trkpt lat="41.874737" lon="-2.268887">
        <ele>1210.6</ele>
        <time>2023-02-11T09:35:27.000Z</time>
      </trkpt>
      <trkpt lat="41.874761" lon="-2.268805">
        <ele>1211</ele>
        <time>2023-02-11T09:35:28.000Z</time>
      </trkpt>
      <trkpt lat="41.874786" lon="-2.268722">
        <ele>1211</ele>
        <time>2023-02-11T09:35:29.000Z</time>
      </trkpt>
      <trkpt lat="41.874811" lon="-2.26864">
        <ele>1211.4</ele>
        <time>2023-02-11T09:35:30.000Z</time>
      </trkpt>
      <trkpt lat="41.874836" lon="-2.268558">
        <ele>1211.4</ele>
        <time>2023-02-11T09:35:31.000Z</time>
      </trkpt>
      <trkpt lat="41.874861" lon="-2.268476">
        <ele>1211.6</ele>
        <time>2023-02-11T09:35:32.000Z</time>
      </trkpt>
      <trkpt lat="41.874884" lon="-2.268394">
        <ele>1211.8</ele>
        <time>2023-02-11T09:35:33.000Z</time>
      </trkpt>
      <trkpt lat="41.874908" lon="-2.268312">
        <ele>1211.8</ele>
        <time>2023-02-11T09:35:34.000Z</time>
      </trkpt>
      <trkpt lat="41.874934" lon="-2.26823">
        <ele>1212</ele>
        <time>2023-02-11T09:35:35.000Z</time>
      </trkpt>
      <trkpt lat="41.874959" lon="-2.268148">
        <ele>1212</ele>
        <time>2023-02-11T09:35:36.000Z</time>
      </trkpt>
      <trkpt lat="41.874986" lon="-2.268065">
        <ele>1212.2</ele>
        <time>2023-02-11T09:35:37.000Z</time>
      </trkpt>
      <trkpt lat="41.875017" lon="-2.267983">
        <ele>1212.2</ele>
        <time>2023-02-11T09:35:38.000Z</time>
      </trkpt>
      <trkpt lat="41.875049" lon="-2.267901">
        <ele>1212.4</ele>
        <time>2023-02-11T09:35:39.000Z</time>
      </trkpt>
      <trkpt lat="41.875083" lon="-2.26782">
        <ele>1212.6</ele>
        <time>2023-02-11T09:35:40.000Z</time>
      </trkpt>
      <trkpt lat="41.875117" lon="-2.267739">
        <ele>1212.6</ele>
        <time>2023-02-11T09:35:41.000Z</time>
      </trkpt>
      <trkpt lat="41.875152" lon="-2.267658">
        <ele>1212.8</ele>
        <time>2023-02-11T09:35:42.000Z</time>
      </trkpt>
      <trkpt lat="41.875192" lon="-2.267579">
        <ele>1213</ele>
        <time>2023-02-11T09:35:43.000Z</time>
      </trkpt>
      <trkpt lat="41.875234" lon="-2.267501">
        <ele>1213.2</ele>
        <time>2023-02-11T09:35:44.000Z</time>
      </trkpt>
      <trkpt lat="41.875269" lon="-2.267441">
        <ele>1213.2</ele>
        <time>2023-02-11T09:35:45.000Z</time>
      </trkpt>
      <trkpt lat="41.875324" lon="-2.26735">
        <ele>1213.4</ele>
        <time>2023-02-11T09:35:46.000Z</time>
      </trkpt>
      <trkpt lat="41.875372" lon="-2.267278">
        <ele>1213.6</ele>
        <time>2023-02-11T09:35:47.000Z</time>
      </trkpt>
      <trkpt lat="41.87542" lon="-2.267206">
        <ele>1213.8</ele>
        <time>2023-02-11T09:35:48.000Z</time>
      </trkpt>
      <trkpt lat="41.875467" lon="-2.267136">
        <ele>1213.8</ele>
        <time>2023-02-11T09:35:49.000Z</time>
      </trkpt>
      <trkpt lat="41.875514" lon="-2.267067">
        <ele>1214</ele>
        <time>2023-02-11T09:35:50.000Z</time>
      </trkpt>
      <trkpt lat="41.875562" lon="-2.267001">
        <ele>1214.2</ele>
        <time>2023-02-11T09:35:51.000Z</time>
      </trkpt>
      <trkpt lat="41.875609" lon="-2.266935">
        <ele>1214.4</ele>
        <time>2023-02-11T09:35:52.000Z</time>
      </trkpt>
      <trkpt lat="41.875656" lon="-2.266869">
        <ele>1214.6</ele>
        <time>2023-02-11T09:35:53.000Z</time>
      </trkpt>
      <trkpt lat="41.875704" lon="-2.266806">
        <ele>1214.6</ele>
        <time>2023-02-11T09:35:54.000Z</time>
      </trkpt>
      <trkpt lat="41.875751" lon="-2.266742">
        <ele>1214.8</ele>
        <time>2023-02-11T09:35:55.000Z</time>
      </trkpt>
      <trkpt lat="41.875796" lon="-2.26668">
        <ele>1215</ele>
        <time>2023-02-11T09:35:56.000Z</time>
      </trkpt>
      <trkpt lat="41.87584" lon="-2.266618">
        <ele>1215.4</ele>
        <time>2023-02-11T09:35:57.000Z</time>
      </trkpt>
      <trkpt lat="41.875883" lon="-2.266558">
        <ele>1215.4</ele>
        <time>2023-02-11T09:35:58.000Z</time>
      </trkpt>
      <trkpt lat="41.875924" lon="-2.266499">
        <ele>1216</ele>
        <time>2023-02-11T09:35:59.000Z</time>
      </trkpt>
      <trkpt lat="41.875957" lon="-2.266456">
        <ele>1216</ele>
        <time>2023-02-11T09:36:00.000Z</time>
      </trkpt>
      <trkpt lat="41.876005" lon="-2.266389">
        <ele>1216.4</ele>
        <time>2023-02-11T09:36:01.000Z</time>
      </trkpt>
      <trkpt lat="41.876043" lon="-2.266334">
        <ele>1216.6</ele>
        <time>2023-02-11T09:36:02.000Z</time>
      </trkpt>
      <trkpt lat="41.87608" lon="-2.266279">
        <ele>1217</ele>
        <time>2023-02-11T09:36:03.000Z</time>
      </trkpt>
      <trkpt lat="41.876117" lon="-2.266225">
        <ele>1217.2</ele>
        <time>2023-02-11T09:36:04.000Z</time>
      </trkpt>
      <trkpt lat="41.876155" lon="-2.266175">
        <ele>1217.6</ele>
        <time>2023-02-11T09:36:05.000Z</time>
      </trkpt>
      <trkpt lat="41.87619" lon="-2.266124">
        <ele>1218.2</ele>
        <time>2023-02-11T09:36:06.000Z</time>
      </trkpt>
      <trkpt lat="41.876227" lon="-2.266068">
        <ele>1218.6</ele>
        <time>2023-02-11T09:36:07.000Z</time>
      </trkpt>
      <trkpt lat="41.876262" lon="-2.266015">
        <ele>1219</ele>
        <time>2023-02-11T09:36:08.000Z</time>
      </trkpt>
      <trkpt lat="41.876297" lon="-2.265964">
        <ele>1219.2</ele>
        <time>2023-02-11T09:36:09.000Z</time>
      </trkpt>
      <trkpt lat="41.87633" lon="-2.26591">
        <ele>1219.6</ele>
        <time>2023-02-11T09:36:10.000Z</time>
      </trkpt>
      <trkpt lat="41.876365" lon="-2.265857">
        <ele>1220.2</ele>
        <time>2023-02-11T09:36:11.000Z</time>
      </trkpt>
      <trkpt lat="41.876401" lon="-2.265808">
        <ele>1220.4</ele>
        <time>2023-02-11T09:36:12.000Z</time>
      </trkpt>
      <trkpt lat="41.876436" lon="-2.265758">
        <ele>1220.8</ele>
        <time>2023-02-11T09:36:13.000Z</time>
      </trkpt>
      <trkpt lat="41.876467" lon="-2.265705">
        <ele>1221</ele>
        <time>2023-02-11T09:36:14.000Z</time>
      </trkpt>
      <trkpt lat="41.876497" lon="-2.265652">
        <ele>1221.4</ele>
        <time>2023-02-11T09:36:15.000Z</time>
      </trkpt>
      <trkpt lat="41.876529" lon="-2.2656">
        <ele>1221.6</ele>
        <time>2023-02-11T09:36:16.000Z</time>
      </trkpt>
      <trkpt lat="41.876558" lon="-2.265546">
        <ele>1222.2</ele>
        <time>2023-02-11T09:36:17.000Z</time>
      </trkpt>
      <trkpt lat="41.876587" lon="-2.265488">
        <ele>1222.6</ele>
        <time>2023-02-11T09:36:18.000Z</time>
      </trkpt>
      <trkpt lat="41.876618" lon="-2.265429">
        <ele>1223</ele>
        <time>2023-02-11T09:36:19.000Z</time>
      </trkpt>
      <trkpt lat="41.876649" lon="-2.265372">
        <ele>1223.4</ele>
        <time>2023-02-11T09:36:20.000Z</time>
      </trkpt>
      <trkpt lat="41.876672" lon="-2.265324">
        <ele>1223.4</ele>
        <time>2023-02-11T09:36:21.000Z</time>
      </trkpt>
      <trkpt lat="41.876708" lon="-2.265253">
        <ele>1223.8</ele>
        <time>2023-02-11T09:36:22.000Z</time>
      </trkpt>
      <trkpt lat="41.876738" lon="-2.265193">
        <ele>1224.2</ele>
        <time>2023-02-11T09:36:23.000Z</time>
      </trkpt>
      <trkpt lat="41.876765" lon="-2.265129">
        <ele>1224.6</ele>
        <time>2023-02-11T09:36:24.000Z</time>
      </trkpt>
      <trkpt lat="41.87679" lon="-2.265063">
        <ele>1224.8</ele>
        <time>2023-02-11T09:36:25.000Z</time>
      </trkpt>
      <trkpt lat="41.876813" lon="-2.264996">
        <ele>1225</ele>
        <time>2023-02-11T09:36:26.000Z</time>
      </trkpt>
      <trkpt lat="41.876832" lon="-2.264927">
        <ele>1225.2</ele>
        <time>2023-02-11T09:36:27.000Z</time>
      </trkpt>
      <trkpt lat="41.876849" lon="-2.264857">
        <ele>1225.2</ele>
        <time>2023-02-11T09:36:28.000Z</time>
      </trkpt>
      <trkpt lat="41.876864" lon="-2.264787">
        <ele>1225.6</ele>
        <time>2023-02-11T09:36:29.000Z</time>
      </trkpt>
      <trkpt lat="41.876876" lon="-2.264717">
        <ele>1225.8</ele>
        <time>2023-02-11T09:36:30.000Z</time>
      </trkpt>
      <trkpt lat="41.876884" lon="-2.264646">
        <ele>1226.2</ele>
        <time>2023-02-11T09:36:31.000Z</time>
      </trkpt>
      <trkpt lat="41.876889" lon="-2.26459">
        <ele>1226.6</ele>
        <time>2023-02-11T09:36:32.000Z</time>
      </trkpt>
      <trkpt lat="41.876897" lon="-2.264507">
        <ele>1227</ele>
        <time>2023-02-11T09:36:33.000Z</time>
      </trkpt>
      <trkpt lat="41.876903" lon="-2.26444">
        <ele>1227.2</ele>
        <time>2023-02-11T09:36:34.000Z</time>
      </trkpt>
      <trkpt lat="41.87691" lon="-2.264373">
        <ele>1227.6</ele>
        <time>2023-02-11T09:36:35.000Z</time>
      </trkpt>
      <trkpt lat="41.876918" lon="-2.264306">
        <ele>1227.6</ele>
        <time>2023-02-11T09:36:36.000Z</time>
      </trkpt>
      <trkpt lat="41.876926" lon="-2.264237">
        <ele>1228</ele>
        <time>2023-02-11T09:36:37.000Z</time>
      </trkpt>
      <trkpt lat="41.876934" lon="-2.264168">
        <ele>1228.2</ele>
        <time>2023-02-11T09:36:38.000Z</time>
      </trkpt>
      <trkpt lat="41.876942" lon="-2.264097">
        <ele>1228.2</ele>
        <time>2023-02-11T09:36:39.000Z</time>
      </trkpt>
      <trkpt lat="41.876952" lon="-2.264024">
        <ele>1228.4</ele>
        <time>2023-02-11T09:36:40.000Z</time>
      </trkpt>
      <trkpt lat="41.876963" lon="-2.263949">
        <ele>1228.6</ele>
        <time>2023-02-11T09:36:41.000Z</time>
      </trkpt>
      <trkpt lat="41.876975" lon="-2.263873">
        <ele>1229</ele>
        <time>2023-02-11T09:36:42.000Z</time>
      </trkpt>
      <trkpt lat="41.876988" lon="-2.263796">
        <ele>1229</ele>
        <time>2023-02-11T09:36:43.000Z</time>
      </trkpt>
      <trkpt lat="41.877" lon="-2.263717">
        <ele>1229.2</ele>
        <time>2023-02-11T09:36:44.000Z</time>
      </trkpt>
      <trkpt lat="41.877015" lon="-2.263636">
        <ele>1229.4</ele>
        <time>2023-02-11T09:36:45.000Z</time>
      </trkpt>
      <trkpt lat="41.87703" lon="-2.263556">
        <ele>1229.8</ele>
        <time>2023-02-11T09:36:46.000Z</time>
      </trkpt>
      <trkpt lat="41.877046" lon="-2.263476">
        <ele>1229.8</ele>
        <time>2023-02-11T09:36:47.000Z</time>
      </trkpt>
      <trkpt lat="41.877063" lon="-2.263396">
        <ele>1230</ele>
        <time>2023-02-11T09:36:48.000Z</time>
      </trkpt>
      <trkpt lat="41.877083" lon="-2.263315">
        <ele>1230.2</ele>
        <time>2023-02-11T09:36:49.000Z</time>
      </trkpt>
      <trkpt lat="41.877105" lon="-2.263235">
        <ele>1230.2</ele>
        <time>2023-02-11T09:36:50.000Z</time>
      </trkpt>
      <trkpt lat="41.877132" lon="-2.263157">
        <ele>1230.6</ele>
        <time>2023-02-11T09:36:51.000Z</time>
      </trkpt>
      <trkpt lat="41.877161" lon="-2.263081">
        <ele>1230.6</ele>
        <time>2023-02-11T09:36:52.000Z</time>
      </trkpt>
      <trkpt lat="41.877193" lon="-2.263011">
        <ele>1230.8</ele>
        <time>2023-02-11T09:36:53.000Z</time>
      </trkpt>
      <trkpt lat="41.877228" lon="-2.262946">
        <ele>1230.8</ele>
        <time>2023-02-11T09:36:54.000Z</time>
      </trkpt>
      <trkpt lat="41.877269" lon="-2.262888">
        <ele>1231</ele>
        <time>2023-02-11T09:36:55.000Z</time>
      </trkpt>
      <trkpt lat="41.87731" lon="-2.262834">
        <ele>1231.2</ele>
        <time>2023-02-11T09:36:56.000Z</time>
      </trkpt>
      <trkpt lat="41.877353" lon="-2.262785">
        <ele>1231.2</ele>
        <time>2023-02-11T09:36:57.000Z</time>
      </trkpt>
      <trkpt lat="41.877394" lon="-2.262741">
        <ele>1231.4</ele>
        <time>2023-02-11T09:36:58.000Z</time>
      </trkpt>
      <trkpt lat="41.877434" lon="-2.262701">
        <ele>1231.6</ele>
        <time>2023-02-11T09:36:59.000Z</time>
      </trkpt>
      <trkpt lat="41.877474" lon="-2.262661">
        <ele>1232.2</ele>
        <time>2023-02-11T09:37:00.000Z</time>
      </trkpt>
      <trkpt lat="41.877515" lon="-2.262621">
        <ele>1232.8</ele>
        <time>2023-02-11T09:37:01.000Z</time>
      </trkpt>
      <trkpt lat="41.877556" lon="-2.262583">
        <ele>1233.2</ele>
        <time>2023-02-11T09:37:02.000Z</time>
      </trkpt>
      <trkpt lat="41.877595" lon="-2.262545">
        <ele>1233.6</ele>
        <time>2023-02-11T09:37:03.000Z</time>
      </trkpt>
      <trkpt lat="41.877633" lon="-2.262508">
        <ele>1234.4</ele>
        <time>2023-02-11T09:37:04.000Z</time>
      </trkpt>
      <trkpt lat="41.877674" lon="-2.262478">
        <ele>1234.6</ele>
        <time>2023-02-11T09:37:05.000Z</time>
      </trkpt>
      <trkpt lat="41.877712" lon="-2.262448">
        <ele>1234.8</ele>
        <time>2023-02-11T09:37:06.000Z</time>
      </trkpt>
      <trkpt lat="41.87775" lon="-2.262417">
        <ele>1235.4</ele>
        <time>2023-02-11T09:37:07.000Z</time>
      </trkpt>
      <trkpt lat="41.877787" lon="-2.262386">
        <ele>1235.8</ele>
        <time>2023-02-11T09:37:08.000Z</time>
      </trkpt>
      <trkpt lat="41.877823" lon="-2.262351">
        <ele>1236.2</ele>
        <time>2023-02-11T09:37:09.000Z</time>
      </trkpt>
      <trkpt lat="41.877854" lon="-2.262313">
        <ele>1236.6</ele>
        <time>2023-02-11T09:37:10.000Z</time>
      </trkpt>
      <trkpt lat="41.877887" lon="-2.262274">
        <ele>1236.8</ele>
        <time>2023-02-11T09:37:11.000Z</time>
      </trkpt>
      <trkpt lat="41.87792" lon="-2.262234">
        <ele>1237.2</ele>
        <time>2023-02-11T09:37:12.000Z</time>
      </trkpt>
      <trkpt lat="41.877949" lon="-2.262193">
        <ele>1237.6</ele>
        <time>2023-02-11T09:37:13.000Z</time>
      </trkpt>
      <trkpt lat="41.877975" lon="-2.26215">
        <ele>1238.2</ele>
        <time>2023-02-11T09:37:14.000Z</time>
      </trkpt>
      <trkpt lat="41.878" lon="-2.262105">
        <ele>1238.6</ele>
        <time>2023-02-11T09:37:15.000Z</time>
      </trkpt>
      <trkpt lat="41.878027" lon="-2.262061">
        <ele>1239.2</ele>
        <time>2023-02-11T09:37:16.000Z</time>
      </trkpt>
      <trkpt lat="41.878053" lon="-2.262019">
        <ele>1239.8</ele>
        <time>2023-02-11T09:37:17.000Z</time>
      </trkpt>
      <trkpt lat="41.878081" lon="-2.261977">
        <ele>1240.2</ele>
        <time>2023-02-11T09:37:18.000Z</time>
      </trkpt>
      <trkpt lat="41.878107" lon="-2.261936">
        <ele>1240.6</ele>
        <time>2023-02-11T09:37:19.000Z</time>
      </trkpt>
      <trkpt lat="41.878134" lon="-2.261896">
        <ele>1241</ele>
        <time>2023-02-11T09:37:20.000Z</time>
      </trkpt>
      <trkpt lat="41.878157" lon="-2.261854">
        <ele>1241.4</ele>
        <time>2023-02-11T09:37:21.000Z</time>
      </trkpt>
      <trkpt lat="41.878182" lon="-2.261812">
        <ele>1241.8</ele>
        <time>2023-02-11T09:37:22.000Z</time>
      </trkpt>
      <trkpt lat="41.878205" lon="-2.261773">
        <ele>1242.2</ele>
        <time>2023-02-11T09:37:23.000Z</time>
      </trkpt>
      <trkpt lat="41.878229" lon="-2.261737">
        <ele>1242.4</ele>
        <time>2023-02-11T09:37:24.000Z</time>
      </trkpt>
      <trkpt lat="41.878252" lon="-2.261697">
        <ele>1243.2</ele>
        <time>2023-02-11T09:37:25.000Z</time>
      </trkpt>
      <trkpt lat="41.878272" lon="-2.261653">
        <ele>1243.4</ele>
        <time>2023-02-11T09:37:26.000Z</time>
      </trkpt>
      <trkpt lat="41.878294" lon="-2.261609">
        <ele>1243.8</ele>
        <time>2023-02-11T09:37:27.000Z</time>
      </trkpt>
      <trkpt lat="41.878316" lon="-2.261567">
        <ele>1244</ele>
        <time>2023-02-11T09:37:28.000Z</time>
      </trkpt>
      <trkpt lat="41.878339" lon="-2.261527">
        <ele>1244.2</ele>
        <time>2023-02-11T09:37:29.000Z</time>
      </trkpt>
      <trkpt lat="41.878363" lon="-2.261484">
        <ele>1244.6</ele>
        <time>2023-02-11T09:37:30.000Z</time>
      </trkpt>
      <trkpt lat="41.878386" lon="-2.261441">
        <ele>1244.8</ele>
        <time>2023-02-11T09:37:31.000Z</time>
      </trkpt>
      <trkpt lat="41.878409" lon="-2.261397">
        <ele>1245.2</ele>
        <time>2023-02-11T09:37:32.000Z</time>
      </trkpt>
      <trkpt lat="41.878432" lon="-2.261355">
        <ele>1245.6</ele>
        <time>2023-02-11T09:37:33.000Z</time>
      </trkpt>
      <trkpt lat="41.878455" lon="-2.261317">
        <ele>1246</ele>
        <time>2023-02-11T09:37:34.000Z</time>
      </trkpt>
      <trkpt lat="41.878478" lon="-2.261279">
        <ele>1246.4</ele>
        <time>2023-02-11T09:37:35.000Z</time>
      </trkpt>
      <trkpt lat="41.8785" lon="-2.261238">
        <ele>1246.8</ele>
        <time>2023-02-11T09:37:36.000Z</time>
      </trkpt>
      <trkpt lat="41.87852" lon="-2.261194">
        <ele>1246.8</ele>
        <time>2023-02-11T09:37:37.000Z</time>
      </trkpt>
      <trkpt lat="41.878542" lon="-2.261152">
        <ele>1247.4</ele>
        <time>2023-02-11T09:37:38.000Z</time>
      </trkpt>
      <trkpt lat="41.878568" lon="-2.261113">
        <ele>1247.6</ele>
        <time>2023-02-11T09:37:39.000Z</time>
      </trkpt>
      <trkpt lat="41.878592" lon="-2.261074">
        <ele>1248</ele>
        <time>2023-02-11T09:37:40.000Z</time>
      </trkpt>
      <trkpt lat="41.878615" lon="-2.261031">
        <ele>1248</ele>
        <time>2023-02-11T09:37:41.000Z</time>
      </trkpt>
      <trkpt lat="41.878637" lon="-2.260988">
        <ele>1248.4</ele>
        <time>2023-02-11T09:37:42.000Z</time>
      </trkpt>
      <trkpt lat="41.878659" lon="-2.260944">
        <ele>1248.8</ele>
        <time>2023-02-11T09:37:43.000Z</time>
      </trkpt>
      <trkpt lat="41.878681" lon="-2.260903">
        <ele>1248.8</ele>
        <time>2023-02-11T09:37:44.000Z</time>
      </trkpt>
      <trkpt lat="41.878704" lon="-2.260863">
        <ele>1249.2</ele>
        <time>2023-02-11T09:37:45.000Z</time>
      </trkpt>
      <trkpt lat="41.878724" lon="-2.26082">
        <ele>1249.4</ele>
        <time>2023-02-11T09:37:46.000Z</time>
      </trkpt>
      <trkpt lat="41.878743" lon="-2.260774">
        <ele>1250.2</ele>
        <time>2023-02-11T09:37:47.000Z</time>
      </trkpt>
      <trkpt lat="41.878763" lon="-2.260729">
        <ele>1250.4</ele>
        <time>2023-02-11T09:37:48.000Z</time>
      </trkpt>
      <trkpt lat="41.878783" lon="-2.260686">
        <ele>1250.6</ele>
        <time>2023-02-11T09:37:49.000Z</time>
      </trkpt>
      <trkpt lat="41.878802" lon="-2.260645">
        <ele>1250.8</ele>
        <time>2023-02-11T09:37:50.000Z</time>
      </trkpt>
      <trkpt lat="41.87882" lon="-2.260604">
        <ele>1251.2</ele>
        <time>2023-02-11T09:37:51.000Z</time>
      </trkpt>
      <trkpt lat="41.87884" lon="-2.260561">
        <ele>1251.6</ele>
        <time>2023-02-11T09:37:52.000Z</time>
      </trkpt>
      <trkpt lat="41.878858" lon="-2.260516">
        <ele>1251.8</ele>
        <time>2023-02-11T09:37:53.000Z</time>
      </trkpt>
      <trkpt lat="41.878878" lon="-2.260472">
        <ele>1252</ele>
        <time>2023-02-11T09:37:54.000Z</time>
      </trkpt>
      <trkpt lat="41.878899" lon="-2.260429">
        <ele>1252.4</ele>
        <time>2023-02-11T09:37:55.000Z</time>
      </trkpt>
      <trkpt lat="41.878922" lon="-2.260389">
        <ele>1252.8</ele>
        <time>2023-02-11T09:37:56.000Z</time>
      </trkpt>
      <trkpt lat="41.878942" lon="-2.260347">
        <ele>1253</ele>
        <time>2023-02-11T09:37:57.000Z</time>
      </trkpt>
      <trkpt lat="41.87896" lon="-2.260301">
        <ele>1253.8</ele>
        <time>2023-02-11T09:37:58.000Z</time>
      </trkpt>
      <trkpt lat="41.878976" lon="-2.260253">
        <ele>1254</ele>
        <time>2023-02-11T09:37:59.000Z</time>
      </trkpt>
      <trkpt lat="41.878993" lon="-2.260206">
        <ele>1254.4</ele>
        <time>2023-02-11T09:38:00.000Z</time>
      </trkpt>
      <trkpt lat="41.879012" lon="-2.260161">
        <ele>1254.6</ele>
        <time>2023-02-11T09:38:01.000Z</time>
      </trkpt>
      <trkpt lat="41.879032" lon="-2.260117">
        <ele>1254.8</ele>
        <time>2023-02-11T09:38:02.000Z</time>
      </trkpt>
      <trkpt lat="41.879052" lon="-2.260071">
        <ele>1255.2</ele>
        <time>2023-02-11T09:38:03.000Z</time>
      </trkpt>
      <trkpt lat="41.879067" lon="-2.260023">
        <ele>1255.4</ele>
        <time>2023-02-11T09:38:04.000Z</time>
      </trkpt>
      <trkpt lat="41.879084" lon="-2.259975">
        <ele>1255.6</ele>
        <time>2023-02-11T09:38:05.000Z</time>
      </trkpt>
      <trkpt lat="41.879102" lon="-2.259929">
        <ele>1255.8</ele>
        <time>2023-02-11T09:38:06.000Z</time>
      </trkpt>
      <trkpt lat="41.87912" lon="-2.259882">
        <ele>1256</ele>
        <time>2023-02-11T09:38:07.000Z</time>
      </trkpt>
      <trkpt lat="41.879137" lon="-2.259833">
        <ele>1256.2</ele>
        <time>2023-02-11T09:38:08.000Z</time>
      </trkpt>
      <trkpt lat="41.879153" lon="-2.259785">
        <ele>1256.8</ele>
        <time>2023-02-11T09:38:09.000Z</time>
      </trkpt>
      <trkpt lat="41.879172" lon="-2.259738">
        <ele>1257.2</ele>
        <time>2023-02-11T09:38:10.000Z</time>
      </trkpt>
      <trkpt lat="41.879192" lon="-2.259695">
        <ele>1257.2</ele>
        <time>2023-02-11T09:38:11.000Z</time>
      </trkpt>
      <trkpt lat="41.879212" lon="-2.259651">
        <ele>1257.6</ele>
        <time>2023-02-11T09:38:12.000Z</time>
      </trkpt>
      <trkpt lat="41.879229" lon="-2.259605">
        <ele>1257.8</ele>
        <time>2023-02-11T09:38:13.000Z</time>
      </trkpt>
      <trkpt lat="41.879243" lon="-2.259558">
        <ele>1258.2</ele>
        <time>2023-02-11T09:38:14.000Z</time>
      </trkpt>
      <trkpt lat="41.879258" lon="-2.259511">
        <ele>1258.4</ele>
        <time>2023-02-11T09:38:15.000Z</time>
      </trkpt>
      <trkpt lat="41.879274" lon="-2.259467">
        <ele>1258.8</ele>
        <time>2023-02-11T09:38:16.000Z</time>
      </trkpt>
      <trkpt lat="41.879293" lon="-2.259425">
        <ele>1259</ele>
        <time>2023-02-11T09:38:17.000Z</time>
      </trkpt>
      <trkpt lat="41.879312" lon="-2.259381">
        <ele>1259.2</ele>
        <time>2023-02-11T09:38:18.000Z</time>
      </trkpt>
      <trkpt lat="41.879329" lon="-2.259335">
        <ele>1259.6</ele>
        <time>2023-02-11T09:38:19.000Z</time>
      </trkpt>
      <trkpt lat="41.879345" lon="-2.259289">
        <ele>1259.8</ele>
        <time>2023-02-11T09:38:20.000Z</time>
      </trkpt>
      <trkpt lat="41.879362" lon="-2.259243">
        <ele>1260.2</ele>
        <time>2023-02-11T09:38:21.000Z</time>
      </trkpt>
      <trkpt lat="41.879378" lon="-2.259199">
        <ele>1260.4</ele>
        <time>2023-02-11T09:38:22.000Z</time>
      </trkpt>
      <trkpt lat="41.879396" lon="-2.25916">
        <ele>1260.8</ele>
        <time>2023-02-11T09:38:23.000Z</time>
      </trkpt>
      <trkpt lat="41.879415" lon="-2.259119">
        <ele>1261</ele>
        <time>2023-02-11T09:38:24.000Z</time>
      </trkpt>
      <trkpt lat="41.87943" lon="-2.259075">
        <ele>1261.4</ele>
        <time>2023-02-11T09:38:25.000Z</time>
      </trkpt>
      <trkpt lat="41.879446" lon="-2.259028">
        <ele>1261.6</ele>
        <time>2023-02-11T09:38:26.000Z</time>
      </trkpt>
      <trkpt lat="41.87946" lon="-2.258981">
        <ele>1262</ele>
        <time>2023-02-11T09:38:27.000Z</time>
      </trkpt>
      <trkpt lat="41.879477" lon="-2.258936">
        <ele>1262.4</ele>
        <time>2023-02-11T09:38:28.000Z</time>
      </trkpt>
      <trkpt lat="41.879495" lon="-2.258893">
        <ele>1262.6</ele>
        <time>2023-02-11T09:38:29.000Z</time>
      </trkpt>
      <trkpt lat="41.879514" lon="-2.25885">
        <ele>1262.8</ele>
        <time>2023-02-11T09:38:30.000Z</time>
      </trkpt>
      <trkpt lat="41.879534" lon="-2.258806">
        <ele>1263</ele>
        <time>2023-02-11T09:38:31.000Z</time>
      </trkpt>
      <trkpt lat="41.879548" lon="-2.258761">
        <ele>1263.4</ele>
        <time>2023-02-11T09:38:32.000Z</time>
      </trkpt>
      <trkpt lat="41.879563" lon="-2.258713">
        <ele>1263.8</ele>
        <time>2023-02-11T09:38:33.000Z</time>
      </trkpt>
      <trkpt lat="41.879578" lon="-2.258666">
        <ele>1264.2</ele>
        <time>2023-02-11T09:38:34.000Z</time>
      </trkpt>
      <trkpt lat="41.879595" lon="-2.258623">
        <ele>1264.4</ele>
        <time>2023-02-11T09:38:35.000Z</time>
      </trkpt>
      <trkpt lat="41.879616" lon="-2.25858">
        <ele>1264.8</ele>
        <time>2023-02-11T09:38:36.000Z</time>
      </trkpt>
      <trkpt lat="41.879632" lon="-2.258535">
        <ele>1265.2</ele>
        <time>2023-02-11T09:38:37.000Z</time>
      </trkpt>
      <trkpt lat="41.879648" lon="-2.258489">
        <ele>1265.2</ele>
        <time>2023-02-11T09:38:38.000Z</time>
      </trkpt>
      <trkpt lat="41.879663" lon="-2.258441">
        <ele>1265.6</ele>
        <time>2023-02-11T09:38:39.000Z</time>
      </trkpt>
      <trkpt lat="41.879681" lon="-2.258394">
        <ele>1265.8</ele>
        <time>2023-02-11T09:38:40.000Z</time>
      </trkpt>
      <trkpt lat="41.879701" lon="-2.258351">
        <ele>1266.2</ele>
        <time>2023-02-11T09:38:41.000Z</time>
      </trkpt>
      <trkpt lat="41.87972" lon="-2.258308">
        <ele>1266.6</ele>
        <time>2023-02-11T09:38:42.000Z</time>
      </trkpt>
      <trkpt lat="41.879736" lon="-2.258261">
        <ele>1267</ele>
        <time>2023-02-11T09:38:43.000Z</time>
      </trkpt>
      <trkpt lat="41.879751" lon="-2.258216">
        <ele>1267.2</ele>
        <time>2023-02-11T09:38:44.000Z</time>
      </trkpt>
      <trkpt lat="41.879767" lon="-2.25817">
        <ele>1267.8</ele>
        <time>2023-02-11T09:38:45.000Z</time>
      </trkpt>
      <trkpt lat="41.879786" lon="-2.258125">
        <ele>1268.2</ele>
        <time>2023-02-11T09:38:46.000Z</time>
      </trkpt>
      <trkpt lat="41.879804" lon="-2.258082">
        <ele>1268.4</ele>
        <time>2023-02-11T09:38:47.000Z</time>
      </trkpt>
      <trkpt lat="41.879822" lon="-2.258036">
        <ele>1269</ele>
        <time>2023-02-11T09:38:48.000Z</time>
      </trkpt>
      <trkpt lat="41.879837" lon="-2.257991">
        <ele>1269.2</ele>
        <time>2023-02-11T09:38:49.000Z</time>
      </trkpt>
      <trkpt lat="41.879852" lon="-2.257943">
        <ele>1269.4</ele>
        <time>2023-02-11T09:38:50.000Z</time>
      </trkpt>
      <trkpt lat="41.879868" lon="-2.257897">
        <ele>1269.8</ele>
        <time>2023-02-11T09:38:51.000Z</time>
      </trkpt>
      <trkpt lat="41.879887" lon="-2.257852">
        <ele>1270.2</ele>
        <time>2023-02-11T09:38:52.000Z</time>
      </trkpt>
      <trkpt lat="41.879904" lon="-2.257807">
        <ele>1270.2</ele>
        <time>2023-02-11T09:38:53.000Z</time>
      </trkpt>
      <trkpt lat="41.87992" lon="-2.257759">
        <ele>1270.8</ele>
        <time>2023-02-11T09:38:54.000Z</time>
      </trkpt>
      <trkpt lat="41.879934" lon="-2.257711">
        <ele>1271.4</ele>
        <time>2023-02-11T09:38:55.000Z</time>
      </trkpt>
      <trkpt lat="41.87995" lon="-2.257663">
        <ele>1271.6</ele>
        <time>2023-02-11T09:38:56.000Z</time>
      </trkpt>
      <trkpt lat="41.879969" lon="-2.257619">
        <ele>1272</ele>
        <time>2023-02-11T09:38:57.000Z</time>
      </trkpt>
      <trkpt lat="41.879989" lon="-2.257574">
        <ele>1272.2</ele>
        <time>2023-02-11T09:38:58.000Z</time>
      </trkpt>
      <trkpt lat="41.880006" lon="-2.257522">
        <ele>1272.4</ele>
        <time>2023-02-11T09:38:59.000Z</time>
      </trkpt>
      <trkpt lat="41.880023" lon="-2.257472">
        <ele>1272.6</ele>
        <time>2023-02-11T09:39:00.000Z</time>
      </trkpt>
      <trkpt lat="41.880042" lon="-2.25742">
        <ele>1273</ele>
        <time>2023-02-11T09:39:01.000Z</time>
      </trkpt>
      <trkpt lat="41.880062" lon="-2.257367">
        <ele>1273.4</ele>
        <time>2023-02-11T09:39:02.000Z</time>
      </trkpt>
      <trkpt lat="41.880081" lon="-2.257313">
        <ele>1273.6</ele>
        <time>2023-02-11T09:39:03.000Z</time>
      </trkpt>
      <trkpt lat="41.880098" lon="-2.257261">
        <ele>1274.2</ele>
        <time>2023-02-11T09:39:04.000Z</time>
      </trkpt>
      <trkpt lat="41.880116" lon="-2.257207">
        <ele>1274.2</ele>
        <time>2023-02-11T09:39:05.000Z</time>
      </trkpt>
      <trkpt lat="41.880131" lon="-2.257152">
        <ele>1274.8</ele>
        <time>2023-02-11T09:39:06.000Z</time>
      </trkpt>
      <trkpt lat="41.880147" lon="-2.257097">
        <ele>1274.8</ele>
        <time>2023-02-11T09:39:07.000Z</time>
      </trkpt>
      <trkpt lat="41.880163" lon="-2.257043">
        <ele>1275.4</ele>
        <time>2023-02-11T09:39:08.000Z</time>
      </trkpt>
      <trkpt lat="41.880181" lon="-2.256988">
        <ele>1275.6</ele>
        <time>2023-02-11T09:39:09.000Z</time>
      </trkpt>
      <trkpt lat="41.880199" lon="-2.256935">
        <ele>1276</ele>
        <time>2023-02-11T09:39:10.000Z</time>
      </trkpt>
      <trkpt lat="41.880216" lon="-2.256883">
        <ele>1276.2</ele>
        <time>2023-02-11T09:39:11.000Z</time>
      </trkpt>
      <trkpt lat="41.880232" lon="-2.256831">
        <ele>1276.6</ele>
        <time>2023-02-11T09:39:12.000Z</time>
      </trkpt>
      <trkpt lat="41.880249" lon="-2.256777">
        <ele>1276.8</ele>
        <time>2023-02-11T09:39:13.000Z</time>
      </trkpt>
      <trkpt lat="41.880266" lon="-2.256723">
        <ele>1277</ele>
        <time>2023-02-11T09:39:14.000Z</time>
      </trkpt>
      <trkpt lat="41.880285" lon="-2.25667">
        <ele>1277.4</ele>
        <time>2023-02-11T09:39:15.000Z</time>
      </trkpt>
      <trkpt lat="41.880303" lon="-2.256618">
        <ele>1277.6</ele>
        <time>2023-02-11T09:39:16.000Z</time>
      </trkpt>
      <trkpt lat="41.880319" lon="-2.256565">
        <ele>1278.2</ele>
        <time>2023-02-11T09:39:17.000Z</time>
      </trkpt>
      <trkpt lat="41.880335" lon="-2.256514">
        <ele>1278.6</ele>
        <time>2023-02-11T09:39:18.000Z</time>
      </trkpt>
      <trkpt lat="41.880352" lon="-2.256465">
        <ele>1278.8</ele>
        <time>2023-02-11T09:39:19.000Z</time>
      </trkpt>
      <trkpt lat="41.880369" lon="-2.256418">
        <ele>1279</ele>
        <time>2023-02-11T09:39:20.000Z</time>
      </trkpt>
      <trkpt lat="41.880385" lon="-2.256372">
        <ele>1279.2</ele>
        <time>2023-02-11T09:39:21.000Z</time>
      </trkpt>
      <trkpt lat="41.880401" lon="-2.256327">
        <ele>1279.4</ele>
        <time>2023-02-11T09:39:22.000Z</time>
      </trkpt>
      <trkpt lat="41.880416" lon="-2.256283">
        <ele>1279.6</ele>
        <time>2023-02-11T09:39:23.000Z</time>
      </trkpt>
      <trkpt lat="41.880433" lon="-2.256239">
        <ele>1280</ele>
        <time>2023-02-11T09:39:24.000Z</time>
      </trkpt>
      <trkpt lat="41.880449" lon="-2.256195">
        <ele>1280.2</ele>
        <time>2023-02-11T09:39:25.000Z</time>
      </trkpt>
      <trkpt lat="41.880464" lon="-2.256152">
        <ele>1280.8</ele>
        <time>2023-02-11T09:39:26.000Z</time>
      </trkpt>
      <trkpt lat="41.880478" lon="-2.25611">
        <ele>1281</ele>
        <time>2023-02-11T09:39:27.000Z</time>
      </trkpt>
      <trkpt lat="41.880494" lon="-2.256068">
        <ele>1281.4</ele>
        <time>2023-02-11T09:39:28.000Z</time>
      </trkpt>
      <trkpt lat="41.880509" lon="-2.256026">
        <ele>1281.6</ele>
        <time>2023-02-11T09:39:29.000Z</time>
      </trkpt>
      <trkpt lat="41.880522" lon="-2.255982">
        <ele>1281.8</ele>
        <time>2023-02-11T09:39:30.000Z</time>
      </trkpt>
      <trkpt lat="41.880537" lon="-2.255942">
        <ele>1281.8</ele>
        <time>2023-02-11T09:39:31.000Z</time>
      </trkpt>
      <trkpt lat="41.880555" lon="-2.255903">
        <ele>1282.2</ele>
        <time>2023-02-11T09:39:32.000Z</time>
      </trkpt>
      <trkpt lat="41.880572" lon="-2.255862">
        <ele>1282.6</ele>
        <time>2023-02-11T09:39:33.000Z</time>
      </trkpt>
      <trkpt lat="41.880588" lon="-2.255819">
        <ele>1282.8</ele>
        <time>2023-02-11T09:39:34.000Z</time>
      </trkpt>
      <trkpt lat="41.880603" lon="-2.255776">
        <ele>1283.2</ele>
        <time>2023-02-11T09:39:35.000Z</time>
      </trkpt>
      <trkpt lat="41.880618" lon="-2.255731">
        <ele>1283.2</ele>
        <time>2023-02-11T09:39:36.000Z</time>
      </trkpt>
      <trkpt lat="41.880632" lon="-2.255687">
        <ele>1283.4</ele>
        <time>2023-02-11T09:39:37.000Z</time>
      </trkpt>
      <trkpt lat="41.880646" lon="-2.25564">
        <ele>1283.6</ele>
        <time>2023-02-11T09:39:38.000Z</time>
      </trkpt>
      <trkpt lat="41.880663" lon="-2.255593">
        <ele>1283.6</ele>
        <time>2023-02-11T09:39:39.000Z</time>
      </trkpt>
      <trkpt lat="41.880683" lon="-2.255548">
        <ele>1283.8</ele>
        <time>2023-02-11T09:39:40.000Z</time>
      </trkpt>
      <trkpt lat="41.880703" lon="-2.2555">
        <ele>1284</ele>
        <time>2023-02-11T09:39:41.000Z</time>
      </trkpt>
      <trkpt lat="41.880721" lon="-2.25545">
        <ele>1284.4</ele>
        <time>2023-02-11T09:39:42.000Z</time>
      </trkpt>
      <trkpt lat="41.880738" lon="-2.255401">
        <ele>1284.6</ele>
        <time>2023-02-11T09:39:43.000Z</time>
      </trkpt>
      <trkpt lat="41.880756" lon="-2.255354">
        <ele>1284.8</ele>
        <time>2023-02-11T09:39:44.000Z</time>
      </trkpt>
      <trkpt lat="41.880773" lon="-2.255307">
        <ele>1285</ele>
        <time>2023-02-11T09:39:45.000Z</time>
      </trkpt>
      <trkpt lat="41.880787" lon="-2.255258">
        <ele>1285.4</ele>
        <time>2023-02-11T09:39:46.000Z</time>
      </trkpt>
      <trkpt lat="41.880803" lon="-2.255207">
        <ele>1285.6</ele>
        <time>2023-02-11T09:39:47.000Z</time>
      </trkpt>
      <trkpt lat="41.880818" lon="-2.255158">
        <ele>1285.8</ele>
        <time>2023-02-11T09:39:48.000Z</time>
      </trkpt>
      <trkpt lat="41.880833" lon="-2.25511">
        <ele>1286</ele>
        <time>2023-02-11T09:39:49.000Z</time>
      </trkpt>
      <trkpt lat="41.880847" lon="-2.25506">
        <ele>1286.4</ele>
        <time>2023-02-11T09:39:50.000Z</time>
      </trkpt>
      <trkpt lat="41.880856" lon="-2.25501">
        <ele>1286.8</ele>
        <time>2023-02-11T09:39:51.000Z</time>
      </trkpt>
      <trkpt lat="41.880867" lon="-2.254959">
        <ele>1287</ele>
        <time>2023-02-11T09:39:52.000Z</time>
      </trkpt>
      <trkpt lat="41.880882" lon="-2.254909">
        <ele>1287.6</ele>
        <time>2023-02-11T09:39:53.000Z</time>
      </trkpt>
      <trkpt lat="41.880894" lon="-2.254858">
        <ele>1287.8</ele>
        <time>2023-02-11T09:39:54.000Z</time>
      </trkpt>
      <trkpt lat="41.880904" lon="-2.254806">
        <ele>1288</ele>
        <time>2023-02-11T09:39:55.000Z</time>
      </trkpt>
      <trkpt lat="41.880909" lon="-2.254755">
        <ele>1288.2</ele>
        <time>2023-02-11T09:39:56.000Z</time>
      </trkpt>
      <trkpt lat="41.880917" lon="-2.254705">
        <ele>1288.4</ele>
        <time>2023-02-11T09:39:57.000Z</time>
      </trkpt>
      <trkpt lat="41.880931" lon="-2.254656">
        <ele>1288.6</ele>
        <time>2023-02-11T09:39:58.000Z</time>
      </trkpt>
      <trkpt lat="41.880946" lon="-2.25461">
        <ele>1289</ele>
        <time>2023-02-11T09:39:59.000Z</time>
      </trkpt>
      <trkpt lat="41.880954" lon="-2.254559">
        <ele>1289.6</ele>
        <time>2023-02-11T09:40:00.000Z</time>
      </trkpt>
      <trkpt lat="41.880961" lon="-2.254509">
        <ele>1289.8</ele>
        <time>2023-02-11T09:40:01.000Z</time>
      </trkpt>
      <trkpt lat="41.88097" lon="-2.254459">
        <ele>1290.4</ele>
        <time>2023-02-11T09:40:02.000Z</time>
      </trkpt>
      <trkpt lat="41.880982" lon="-2.25441">
        <ele>1290.6</ele>
        <time>2023-02-11T09:40:03.000Z</time>
      </trkpt>
      <trkpt lat="41.880993" lon="-2.254361">
        <ele>1291.2</ele>
        <time>2023-02-11T09:40:04.000Z</time>
      </trkpt>
      <trkpt lat="41.881003" lon="-2.254311">
        <ele>1291.4</ele>
        <time>2023-02-11T09:40:05.000Z</time>
      </trkpt>
      <trkpt lat="41.881011" lon="-2.254263">
        <ele>1291.6</ele>
        <time>2023-02-11T09:40:06.000Z</time>
      </trkpt>
      <trkpt lat="41.881021" lon="-2.254213">
        <ele>1291.8</ele>
        <time>2023-02-11T09:40:07.000Z</time>
      </trkpt>
      <trkpt lat="41.881035" lon="-2.254165">
        <ele>1292.2</ele>
        <time>2023-02-11T09:40:08.000Z</time>
      </trkpt>
      <trkpt lat="41.881049" lon="-2.254117">
        <ele>1292.6</ele>
        <time>2023-02-11T09:40:09.000Z</time>
      </trkpt>
      <trkpt lat="41.881058" lon="-2.254066">
        <ele>1292.8</ele>
        <time>2023-02-11T09:40:10.000Z</time>
      </trkpt>
      <trkpt lat="41.881066" lon="-2.254016">
        <ele>1293.2</ele>
        <time>2023-02-11T09:40:11.000Z</time>
      </trkpt>
      <trkpt lat="41.881073" lon="-2.253964">
        <ele>1293.4</ele>
        <time>2023-02-11T09:40:12.000Z</time>
      </trkpt>
      <trkpt lat="41.881082" lon="-2.253913">
        <ele>1294</ele>
        <time>2023-02-11T09:40:13.000Z</time>
      </trkpt>
      <trkpt lat="41.881091" lon="-2.253859">
        <ele>1294.2</ele>
        <time>2023-02-11T09:40:14.000Z</time>
      </trkpt>
      <trkpt lat="41.881099" lon="-2.253804">
        <ele>1294.6</ele>
        <time>2023-02-11T09:40:15.000Z</time>
      </trkpt>
      <trkpt lat="41.881107" lon="-2.253748">
        <ele>1295</ele>
        <time>2023-02-11T09:40:16.000Z</time>
      </trkpt>
      <trkpt lat="41.881118" lon="-2.253692">
        <ele>1295.4</ele>
        <time>2023-02-11T09:40:17.000Z</time>
      </trkpt>
      <trkpt lat="41.88113" lon="-2.253636">
        <ele>1295.6</ele>
        <time>2023-02-11T09:40:18.000Z</time>
      </trkpt>
      <trkpt lat="41.881142" lon="-2.25358">
        <ele>1296</ele>
        <time>2023-02-11T09:40:19.000Z</time>
      </trkpt>
      <trkpt lat="41.881152" lon="-2.253524">
        <ele>1296.2</ele>
        <time>2023-02-11T09:40:20.000Z</time>
      </trkpt>
      <trkpt lat="41.881164" lon="-2.253469">
        <ele>1296.6</ele>
        <time>2023-02-11T09:40:21.000Z</time>
      </trkpt>
      <trkpt lat="41.881174" lon="-2.253413">
        <ele>1297</ele>
        <time>2023-02-11T09:40:22.000Z</time>
      </trkpt>
      <trkpt lat="41.881185" lon="-2.253356">
        <ele>1297.2</ele>
        <time>2023-02-11T09:40:23.000Z</time>
      </trkpt>
      <trkpt lat="41.881196" lon="-2.253298">
        <ele>1297.4</ele>
        <time>2023-02-11T09:40:24.000Z</time>
      </trkpt>
      <trkpt lat="41.881207" lon="-2.253242">
        <ele>1297.8</ele>
        <time>2023-02-11T09:40:25.000Z</time>
      </trkpt>
      <trkpt lat="41.881217" lon="-2.253187">
        <ele>1298.4</ele>
        <time>2023-02-11T09:40:26.000Z</time>
      </trkpt>
      <trkpt lat="41.881228" lon="-2.253131">
        <ele>1298.6</ele>
        <time>2023-02-11T09:40:27.000Z</time>
      </trkpt>
      <trkpt lat="41.881237" lon="-2.253075">
        <ele>1299</ele>
        <time>2023-02-11T09:40:28.000Z</time>
      </trkpt>
      <trkpt lat="41.881247" lon="-2.25302">
        <ele>1299.4</ele>
        <time>2023-02-11T09:40:29.000Z</time>
      </trkpt>
      <trkpt lat="41.881258" lon="-2.252964">
        <ele>1299.6</ele>
        <time>2023-02-11T09:40:30.000Z</time>
      </trkpt>
      <trkpt lat="41.881269" lon="-2.252909">
        <ele>1299.8</ele>
        <time>2023-02-11T09:40:31.000Z</time>
      </trkpt>
      <trkpt lat="41.881282" lon="-2.252854">
        <ele>1300</ele>
        <time>2023-02-11T09:40:32.000Z</time>
      </trkpt>
      <trkpt lat="41.881292" lon="-2.252801">
        <ele>1300.4</ele>
        <time>2023-02-11T09:40:33.000Z</time>
      </trkpt>
      <trkpt lat="41.8813" lon="-2.252746">
        <ele>1300.6</ele>
        <time>2023-02-11T09:40:34.000Z</time>
      </trkpt>
      <trkpt lat="41.88131" lon="-2.252691">
        <ele>1301</ele>
        <time>2023-02-11T09:40:35.000Z</time>
      </trkpt>
      <trkpt lat="41.881321" lon="-2.252637">
        <ele>1301.2</ele>
        <time>2023-02-11T09:40:36.000Z</time>
      </trkpt>
      <trkpt lat="41.881332" lon="-2.252583">
        <ele>1301.4</ele>
        <time>2023-02-11T09:40:37.000Z</time>
      </trkpt>
      <trkpt lat="41.881344" lon="-2.25253">
        <ele>1301.8</ele>
        <time>2023-02-11T09:40:38.000Z</time>
      </trkpt>
      <trkpt lat="41.881355" lon="-2.252476">
        <ele>1302</ele>
        <time>2023-02-11T09:40:39.000Z</time>
      </trkpt>
      <trkpt lat="41.881365" lon="-2.252419">
        <ele>1302.4</ele>
        <time>2023-02-11T09:40:40.000Z</time>
      </trkpt>
      <trkpt lat="41.881375" lon="-2.252363">
        <ele>1302.6</ele>
        <time>2023-02-11T09:40:41.000Z</time>
      </trkpt>
      <trkpt lat="41.881388" lon="-2.252306">
        <ele>1303</ele>
        <time>2023-02-11T09:40:42.000Z</time>
      </trkpt>
      <trkpt lat="41.881401" lon="-2.25225">
        <ele>1303.2</ele>
        <time>2023-02-11T09:40:43.000Z</time>
      </trkpt>
      <trkpt lat="41.881416" lon="-2.252194">
        <ele>1303.6</ele>
        <time>2023-02-11T09:40:44.000Z</time>
      </trkpt>
      <trkpt lat="41.881434" lon="-2.252138">
        <ele>1303.8</ele>
        <time>2023-02-11T09:40:45.000Z</time>
      </trkpt>
      <trkpt lat="41.881452" lon="-2.252082">
        <ele>1304</ele>
        <time>2023-02-11T09:40:46.000Z</time>
      </trkpt>
      <trkpt lat="41.881472" lon="-2.252027">
        <ele>1304.2</ele>
        <time>2023-02-11T09:40:47.000Z</time>
      </trkpt>
      <trkpt lat="41.881493" lon="-2.251971">
        <ele>1304.2</ele>
        <time>2023-02-11T09:40:48.000Z</time>
      </trkpt>
      <trkpt lat="41.881517" lon="-2.251915">
        <ele>1304.8</ele>
        <time>2023-02-11T09:40:49.000Z</time>
      </trkpt>
      <trkpt lat="41.881542" lon="-2.251861">
        <ele>1305.2</ele>
        <time>2023-02-11T09:40:50.000Z</time>
      </trkpt>
      <trkpt lat="41.881569" lon="-2.251805">
        <ele>1305.4</ele>
        <time>2023-02-11T09:40:51.000Z</time>
      </trkpt>
      <trkpt lat="41.881596" lon="-2.251749">
        <ele>1305.6</ele>
        <time>2023-02-11T09:40:52.000Z</time>
      </trkpt>
      <trkpt lat="41.881624" lon="-2.251692">
        <ele>1305.8</ele>
        <time>2023-02-11T09:40:53.000Z</time>
      </trkpt>
      <trkpt lat="41.881654" lon="-2.251636">
        <ele>1306</ele>
        <time>2023-02-11T09:40:54.000Z</time>
      </trkpt>
      <trkpt lat="41.881687" lon="-2.251582">
        <ele>1306.2</ele>
        <time>2023-02-11T09:40:55.000Z</time>
      </trkpt>
      <trkpt lat="41.881721" lon="-2.251528">
        <ele>1306.6</ele>
        <time>2023-02-11T09:40:56.000Z</time>
      </trkpt>
      <trkpt lat="41.881755" lon="-2.251473">
        <ele>1306.8</ele>
        <time>2023-02-11T09:40:57.000Z</time>
      </trkpt>
      <trkpt lat="41.881789" lon="-2.251417">
        <ele>1307</ele>
        <time>2023-02-11T09:40:58.000Z</time>
      </trkpt>
      <trkpt lat="41.881825" lon="-2.251361">
        <ele>1307.2</ele>
        <time>2023-02-11T09:40:59.000Z</time>
      </trkpt>
      <trkpt lat="41.88186" lon="-2.251305">
        <ele>1307.4</ele>
        <time>2023-02-11T09:41:00.000Z</time>
      </trkpt>
      <trkpt lat="41.881895" lon="-2.251249">
        <ele>1307.4</ele>
        <time>2023-02-11T09:41:01.000Z</time>
      </trkpt>
      <trkpt lat="41.881931" lon="-2.251191">
        <ele>1307.6</ele>
        <time>2023-02-11T09:41:02.000Z</time>
      </trkpt>
      <trkpt lat="41.881966" lon="-2.251135">
        <ele>1307.6</ele>
        <time>2023-02-11T09:41:03.000Z</time>
      </trkpt>
      <trkpt lat="41.882001" lon="-2.251078">
        <ele>1307.8</ele>
        <time>2023-02-11T09:41:04.000Z</time>
      </trkpt>
      <trkpt lat="41.882036" lon="-2.251021">
        <ele>1307.8</ele>
        <time>2023-02-11T09:41:05.000Z</time>
      </trkpt>
      <trkpt lat="41.88207" lon="-2.250964">
        <ele>1307.8</ele>
        <time>2023-02-11T09:41:06.000Z</time>
      </trkpt>
      <trkpt lat="41.882103" lon="-2.250907">
        <ele>1308</ele>
        <time>2023-02-11T09:41:07.000Z</time>
      </trkpt>
      <trkpt lat="41.882136" lon="-2.25085">
        <ele>1308</ele>
        <time>2023-02-11T09:41:08.000Z</time>
      </trkpt>
      <trkpt lat="41.882167" lon="-2.250794">
        <ele>1308.2</ele>
        <time>2023-02-11T09:41:09.000Z</time>
      </trkpt>
      <trkpt lat="41.882198" lon="-2.25074">
        <ele>1308.2</ele>
        <time>2023-02-11T09:41:10.000Z</time>
      </trkpt>
      <trkpt lat="41.882224" lon="-2.250688">
        <ele>1308.4</ele>
        <time>2023-02-11T09:41:11.000Z</time>
      </trkpt>
      <trkpt lat="41.882249" lon="-2.250638">
        <ele>1308.4</ele>
        <time>2023-02-11T09:41:12.000Z</time>
      </trkpt>
      <trkpt lat="41.882272" lon="-2.250589">
        <ele>1308.4</ele>
        <time>2023-02-11T09:41:13.000Z</time>
      </trkpt>
      <trkpt lat="41.882293" lon="-2.250544">
        <ele>1308.4</ele>
        <time>2023-02-11T09:41:14.000Z</time>
      </trkpt>
      <trkpt lat="41.882311" lon="-2.250505">
        <ele>1308.6</ele>
        <time>2023-02-11T09:41:15.000Z</time>
      </trkpt>
      <trkpt lat="41.882325" lon="-2.250479">
        <ele>1308.6</ele>
        <time>2023-02-11T09:41:16.000Z</time>
      </trkpt>
      <trkpt lat="41.88234" lon="-2.250454">
        <ele>1308.6</ele>
        <time>2023-02-11T09:41:17.000Z</time>
      </trkpt>
      <trkpt lat="41.882347" lon="-2.250441">
        <ele>1308.8</ele>
        <time>2023-02-11T09:41:18.000Z</time>
      </trkpt>
      <trkpt lat="41.882354" lon="-2.250429">
        <ele>1309</ele>
        <time>2023-02-11T09:41:19.000Z</time>
      </trkpt>
      <trkpt lat="41.882361" lon="-2.250416">
        <ele>1309.2</ele>
        <time>2023-02-11T09:41:20.000Z</time>
      </trkpt>
      <trkpt lat="41.882367" lon="-2.250404">
        <ele>1308.8</ele>
        <time>2023-02-11T09:42:22.000Z</time>
      </trkpt>
      <trkpt lat="41.882374" lon="-2.250391">
        <ele>1308.8</ele>
        <time>2023-02-11T09:42:23.000Z</time>
      </trkpt>
      <trkpt lat="41.882401" lon="-2.250339">
        <ele>1308.8</ele>
        <time>2023-02-11T09:42:24.000Z</time>
      </trkpt>
      <trkpt lat="41.882433" lon="-2.250277">
        <ele>1308.6</ele>
        <time>2023-02-11T09:42:25.000Z</time>
      </trkpt>
      <trkpt lat="41.88247" lon="-2.250207">
        <ele>1308.6</ele>
        <time>2023-02-11T09:42:26.000Z</time>
      </trkpt>
      <trkpt lat="41.882509" lon="-2.250132">
        <ele>1308.4</ele>
        <time>2023-02-11T09:42:27.000Z</time>
      </trkpt>
      <trkpt lat="41.882551" lon="-2.250052">
        <ele>1308.4</ele>
        <time>2023-02-11T09:42:28.000Z</time>
      </trkpt>
      <trkpt lat="41.882598" lon="-2.249964">
        <ele>1308.4</ele>
        <time>2023-02-11T09:42:29.000Z</time>
      </trkpt>
      <trkpt lat="41.88265" lon="-2.249871">
        <ele>1308.2</ele>
        <time>2023-02-11T09:42:30.000Z</time>
      </trkpt>
      <trkpt lat="41.882702" lon="-2.249775">
        <ele>1308.2</ele>
        <time>2023-02-11T09:42:31.000Z</time>
      </trkpt>
      <trkpt lat="41.882757" lon="-2.249671">
        <ele>1308</ele>
        <time>2023-02-11T09:42:32.000Z</time>
      </trkpt>
      <trkpt lat="41.882815" lon="-2.249558">
        <ele>1308</ele>
        <time>2023-02-11T09:42:33.000Z</time>
      </trkpt>
      <trkpt lat="41.882877" lon="-2.249441">
        <ele>1307.8</ele>
        <time>2023-02-11T09:42:34.000Z</time>
      </trkpt>
      <trkpt lat="41.882943" lon="-2.249318">
        <ele>1307.6</ele>
        <time>2023-02-11T09:42:35.000Z</time>
      </trkpt>
      <trkpt lat="41.883011" lon="-2.249193">
        <ele>1307</ele>
        <time>2023-02-11T09:42:36.000Z</time>
      </trkpt>
      <trkpt lat="41.883081" lon="-2.249061">
        <ele>1306.8</ele>
        <time>2023-02-11T09:42:37.000Z</time>
      </trkpt>
      <trkpt lat="41.883154" lon="-2.248922">
        <ele>1306.2</ele>
        <time>2023-02-11T09:42:38.000Z</time>
      </trkpt>
      <trkpt lat="41.883228" lon="-2.248779">
        <ele>1305.4</ele>
        <time>2023-02-11T09:42:39.000Z</time>
      </trkpt>
      <trkpt lat="41.883306" lon="-2.248633">
        <ele>1305</ele>
        <time>2023-02-11T09:42:40.000Z</time>
      </trkpt>
      <trkpt lat="41.883386" lon="-2.248484">
        <ele>1304.2</ele>
        <time>2023-02-11T09:42:41.000Z</time>
      </trkpt>
      <trkpt lat="41.883468" lon="-2.248329">
        <ele>1303.8</ele>
        <time>2023-02-11T09:42:42.000Z</time>
      </trkpt>
      <trkpt lat="41.883551" lon="-2.248169">
        <ele>1302.6</ele>
        <time>2023-02-11T09:42:43.000Z</time>
      </trkpt>
      <trkpt lat="41.883638" lon="-2.248009">
        <ele>1302.2</ele>
        <time>2023-02-11T09:42:44.000Z</time>
      </trkpt>
      <trkpt lat="41.88373" lon="-2.24785">
        <ele>1300.8</ele>
        <time>2023-02-11T09:42:45.000Z</time>
      </trkpt>
      <trkpt lat="41.883825" lon="-2.247689">
        <ele>1300</ele>
        <time>2023-02-11T09:42:46.000Z</time>
      </trkpt>
      <trkpt lat="41.883926" lon="-2.247529">
        <ele>1298.8</ele>
        <time>2023-02-11T09:42:47.000Z</time>
      </trkpt>
      <trkpt lat="41.884033" lon="-2.247372">
        <ele>1297</ele>
        <time>2023-02-11T09:42:48.000Z</time>
      </trkpt>
      <trkpt lat="41.884144" lon="-2.247217">
        <ele>1296.4</ele>
        <time>2023-02-11T09:42:49.000Z</time>
      </trkpt>
      <trkpt lat="41.884261" lon="-2.247065">
        <ele>1294.8</ele>
        <time>2023-02-11T09:42:50.000Z</time>
      </trkpt>
      <trkpt lat="41.884383" lon="-2.246916">
        <ele>1294</ele>
        <time>2023-02-11T09:42:51.000Z</time>
      </trkpt>
      <trkpt lat="41.884508" lon="-2.246768">
        <ele>1292.2</ele>
        <time>2023-02-11T09:42:52.000Z</time>
      </trkpt>
      <trkpt lat="41.884635" lon="-2.24662">
        <ele>1291.2</ele>
        <time>2023-02-11T09:42:53.000Z</time>
      </trkpt>
      <trkpt lat="41.884766" lon="-2.246474">
        <ele>1289.2</ele>
        <time>2023-02-11T09:42:54.000Z</time>
      </trkpt>
      <trkpt lat="41.884898" lon="-2.246327">
        <ele>1288.2</ele>
        <time>2023-02-11T09:42:55.000Z</time>
      </trkpt>
      <trkpt lat="41.885031" lon="-2.246179">
        <ele>1286.2</ele>
        <time>2023-02-11T09:42:56.000Z</time>
      </trkpt>
      <trkpt lat="41.885166" lon="-2.246029">
        <ele>1285.2</ele>
        <time>2023-02-11T09:42:57.000Z</time>
      </trkpt>
      <trkpt lat="41.885302" lon="-2.245882">
        <ele>1283.2</ele>
        <time>2023-02-11T09:42:58.000Z</time>
      </trkpt>
      <trkpt lat="41.885438" lon="-2.245733">
        <ele>1281</ele>
        <time>2023-02-11T09:42:59.000Z</time>
      </trkpt>
      <trkpt lat="41.885574" lon="-2.245583">
        <ele>1280.2</ele>
        <time>2023-02-11T09:43:00.000Z</time>
      </trkpt>
      <trkpt lat="41.885709" lon="-2.245429">
        <ele>1277.8</ele>
        <time>2023-02-11T09:43:01.000Z</time>
      </trkpt>
      <trkpt lat="41.885844" lon="-2.245273">
        <ele>1276.8</ele>
        <time>2023-02-11T09:43:02.000Z</time>
      </trkpt>
      <trkpt lat="41.885977" lon="-2.245118">
        <ele>1274.6</ele>
        <time>2023-02-11T09:43:03.000Z</time>
      </trkpt>
      <trkpt lat="41.886111" lon="-2.244963">
        <ele>1273.6</ele>
        <time>2023-02-11T09:43:04.000Z</time>
      </trkpt>
      <trkpt lat="41.886248" lon="-2.244808">
        <ele>1271.8</ele>
        <time>2023-02-11T09:43:05.000Z</time>
      </trkpt>
      <trkpt lat="41.886387" lon="-2.244657">
        <ele>1270.4</ele>
        <time>2023-02-11T09:43:06.000Z</time>
      </trkpt>
      <trkpt lat="41.886526" lon="-2.244507">
        <ele>1267.8</ele>
        <time>2023-02-11T09:43:07.000Z</time>
      </trkpt>
      <trkpt lat="41.886666" lon="-2.244356">
        <ele>1265.6</ele>
        <time>2023-02-11T09:43:08.000Z</time>
      </trkpt>
      <trkpt lat="41.886809" lon="-2.244211">
        <ele>1264.6</ele>
        <time>2023-02-11T09:43:09.000Z</time>
      </trkpt>
      <trkpt lat="41.886956" lon="-2.244077">
        <ele>1262.6</ele>
        <time>2023-02-11T09:43:10.000Z</time>
      </trkpt>
      <trkpt lat="41.887108" lon="-2.243956">
        <ele>1262</ele>
        <time>2023-02-11T09:43:11.000Z</time>
      </trkpt>
      <trkpt lat="41.887267" lon="-2.243853">
        <ele>1259.4</ele>
        <time>2023-02-11T09:43:12.000Z</time>
      </trkpt>
      <trkpt lat="41.887429" lon="-2.243759">
        <ele>1258.4</ele>
        <time>2023-02-11T09:43:13.000Z</time>
      </trkpt>
      <trkpt lat="41.887587" lon="-2.24367">
        <ele>1256.2</ele>
        <time>2023-02-11T09:43:14.000Z</time>
      </trkpt>
      <trkpt lat="41.887741" lon="-2.243578">
        <ele>1255.6</ele>
        <time>2023-02-11T09:43:15.000Z</time>
      </trkpt>
      <trkpt lat="41.88789" lon="-2.243488">
        <ele>1253.4</ele>
        <time>2023-02-11T09:43:16.000Z</time>
      </trkpt>
      <trkpt lat="41.888037" lon="-2.243401">
        <ele>1252</ele>
        <time>2023-02-11T09:43:17.000Z</time>
      </trkpt>
      <trkpt lat="41.888181" lon="-2.243319">
        <ele>1251</ele>
        <time>2023-02-11T09:43:18.000Z</time>
      </trkpt>
      <trkpt lat="41.888322" lon="-2.243235">
        <ele>1249</ele>
        <time>2023-02-11T09:43:19.000Z</time>
      </trkpt>
      <trkpt lat="41.888459" lon="-2.243138">
        <ele>1248.4</ele>
        <time>2023-02-11T09:43:20.000Z</time>
      </trkpt>
      <trkpt lat="41.888584" lon="-2.243016">
        <ele>1247.4</ele>
        <time>2023-02-11T09:43:21.000Z</time>
      </trkpt>
      <trkpt lat="41.888698" lon="-2.242872">
        <ele>1246.6</ele>
        <time>2023-02-11T09:43:22.000Z</time>
      </trkpt>
      <trkpt lat="41.8888" lon="-2.24272">
        <ele>1245.6</ele>
        <time>2023-02-11T09:43:23.000Z</time>
      </trkpt>
      <trkpt lat="41.888896" lon="-2.242568">
        <ele>1244.8</ele>
        <time>2023-02-11T09:43:24.000Z</time>
      </trkpt>
      <trkpt lat="41.888991" lon="-2.242414">
        <ele>1243.6</ele>
        <time>2023-02-11T09:43:25.000Z</time>
      </trkpt>
      <trkpt lat="41.889083" lon="-2.242262">
        <ele>1242.2</ele>
        <time>2023-02-11T09:43:26.000Z</time>
      </trkpt>
      <trkpt lat="41.889172" lon="-2.242114">
        <ele>1241.6</ele>
        <time>2023-02-11T09:43:27.000Z</time>
      </trkpt>
      <trkpt lat="41.88925" lon="-2.241958">
        <ele>1240.8</ele>
        <time>2023-02-11T09:43:28.000Z</time>
      </trkpt>
      <trkpt lat="41.889317" lon="-2.241795">
        <ele>1240.4</ele>
        <time>2023-02-11T09:43:29.000Z</time>
      </trkpt>
      <trkpt lat="41.889373" lon="-2.241626">
        <ele>1239.8</ele>
        <time>2023-02-11T09:43:30.000Z</time>
      </trkpt>
      <trkpt lat="41.88942" lon="-2.241456">
        <ele>1239.6</ele>
        <time>2023-02-11T09:43:31.000Z</time>
      </trkpt>
      <trkpt lat="41.889466" lon="-2.241291">
        <ele>1238.8</ele>
        <time>2023-02-11T09:43:32.000Z</time>
      </trkpt>
      <trkpt lat="41.889517" lon="-2.241136">
        <ele>1238.6</ele>
        <time>2023-02-11T09:43:33.000Z</time>
      </trkpt>
      <trkpt lat="41.889573" lon="-2.240987">
        <ele>1238.2</ele>
        <time>2023-02-11T09:43:34.000Z</time>
      </trkpt>
      <trkpt lat="41.88964" lon="-2.240852">
        <ele>1237.6</ele>
        <time>2023-02-11T09:43:35.000Z</time>
      </trkpt>
      <trkpt lat="41.889715" lon="-2.240727">
        <ele>1237.4</ele>
        <time>2023-02-11T09:43:36.000Z</time>
      </trkpt>
      <trkpt lat="41.889795" lon="-2.240605">
        <ele>1236.4</ele>
        <time>2023-02-11T09:43:37.000Z</time>
      </trkpt>
      <trkpt lat="41.889879" lon="-2.240485">
        <ele>1236</ele>
        <time>2023-02-11T09:43:38.000Z</time>
      </trkpt>
      <trkpt lat="41.889968" lon="-2.240371">
        <ele>1235.4</ele>
        <time>2023-02-11T09:43:39.000Z</time>
      </trkpt>
      <trkpt lat="41.890062" lon="-2.240263">
        <ele>1235.2</ele>
        <time>2023-02-11T09:43:40.000Z</time>
      </trkpt>
      <trkpt lat="41.890156" lon="-2.240162">
        <ele>1235</ele>
        <time>2023-02-11T09:43:41.000Z</time>
      </trkpt>
      <trkpt lat="41.890256" lon="-2.240069">
        <ele>1234.8</ele>
        <time>2023-02-11T09:43:42.000Z</time>
      </trkpt>
      <trkpt lat="41.890358" lon="-2.239983">
        <ele>1234.4</ele>
        <time>2023-02-11T09:43:43.000Z</time>
      </trkpt>
      <trkpt lat="41.890464" lon="-2.239899">
        <ele>1234.2</ele>
        <time>2023-02-11T09:43:44.000Z</time>
      </trkpt>
      <trkpt lat="41.89057" lon="-2.239811">
        <ele>1233.6</ele>
        <time>2023-02-11T09:43:45.000Z</time>
      </trkpt>
      <trkpt lat="41.890675" lon="-2.239716">
        <ele>1233.2</ele>
        <time>2023-02-11T09:43:46.000Z</time>
      </trkpt>
      <trkpt lat="41.890776" lon="-2.239615">
        <ele>1233</ele>
        <time>2023-02-11T09:43:47.000Z</time>
      </trkpt>
      <trkpt lat="41.890871" lon="-2.239498">
        <ele>1232.4</ele>
        <time>2023-02-11T09:43:48.000Z</time>
      </trkpt>
      <trkpt lat="41.890953" lon="-2.239364">
        <ele>1231.8</ele>
        <time>2023-02-11T09:43:49.000Z</time>
      </trkpt>
      <trkpt lat="41.891023" lon="-2.239217">
        <ele>1230.8</ele>
        <time>2023-02-11T09:43:50.000Z</time>
      </trkpt>
      <trkpt lat="41.891087" lon="-2.239064">
        <ele>1230.4</ele>
        <time>2023-02-11T09:43:51.000Z</time>
      </trkpt>
      <trkpt lat="41.891146" lon="-2.238914">
        <ele>1229.4</ele>
        <time>2023-02-11T09:43:52.000Z</time>
      </trkpt>
      <trkpt lat="41.891204" lon="-2.238763">
        <ele>1228.8</ele>
        <time>2023-02-11T09:43:53.000Z</time>
      </trkpt>
      <trkpt lat="41.891261" lon="-2.238613">
        <ele>1227.6</ele>
        <time>2023-02-11T09:43:54.000Z</time>
      </trkpt>
      <trkpt lat="41.89132" lon="-2.238464">
        <ele>1226.8</ele>
        <time>2023-02-11T09:43:55.000Z</time>
      </trkpt>
      <trkpt lat="41.891383" lon="-2.238316">
        <ele>1226.4</ele>
        <time>2023-02-11T09:43:56.000Z</time>
      </trkpt>
      <trkpt lat="41.891452" lon="-2.238169">
        <ele>1226</ele>
        <time>2023-02-11T09:43:57.000Z</time>
      </trkpt>
      <trkpt lat="41.891529" lon="-2.238024">
        <ele>1225.8</ele>
        <time>2023-02-11T09:43:58.000Z</time>
      </trkpt>
      <trkpt lat="41.891608" lon="-2.237875">
        <ele>1225.2</ele>
        <time>2023-02-11T09:43:59.000Z</time>
      </trkpt>
      <trkpt lat="41.891689" lon="-2.23772">
        <ele>1224.8</ele>
        <time>2023-02-11T09:44:00.000Z</time>
      </trkpt>
      <trkpt lat="41.891771" lon="-2.237556">
        <ele>1224</ele>
        <time>2023-02-11T09:44:01.000Z</time>
      </trkpt>
      <trkpt lat="41.891855" lon="-2.23739">
        <ele>1223.2</ele>
        <time>2023-02-11T09:44:02.000Z</time>
      </trkpt>
      <trkpt lat="41.891942" lon="-2.237222">
        <ele>1221.4</ele>
        <time>2023-02-11T09:44:03.000Z</time>
      </trkpt>
      <trkpt lat="41.89203" lon="-2.237052">
        <ele>1220</ele>
        <time>2023-02-11T09:44:04.000Z</time>
      </trkpt>
      <trkpt lat="41.89212" lon="-2.236882">
        <ele>1219</ele>
        <time>2023-02-11T09:44:05.000Z</time>
      </trkpt>
      <trkpt lat="41.892215" lon="-2.23671">
        <ele>1217.2</ele>
        <time>2023-02-11T09:44:06.000Z</time>
      </trkpt>
      <trkpt lat="41.892308" lon="-2.236539">
        <ele>1216.2</ele>
        <time>2023-02-11T09:44:07.000Z</time>
      </trkpt>
      <trkpt lat="41.8924" lon="-2.236365">
        <ele>1214.2</ele>
        <time>2023-02-11T09:44:08.000Z</time>
      </trkpt>
      <trkpt lat="41.892489" lon="-2.236187">
        <ele>1213.4</ele>
        <time>2023-02-11T09:44:09.000Z</time>
      </trkpt>
      <trkpt lat="41.892565" lon="-2.236002">
        <ele>1211.6</ele>
        <time>2023-02-11T09:44:10.000Z</time>
      </trkpt>
      <trkpt lat="41.89263" lon="-2.235805">
        <ele>1210.8</ele>
        <time>2023-02-11T09:44:11.000Z</time>
      </trkpt>
      <trkpt lat="41.892679" lon="-2.235604">
        <ele>1208.8</ele>
        <time>2023-02-11T09:44:12.000Z</time>
      </trkpt>
      <trkpt lat="41.892718" lon="-2.235408">
        <ele>1207.4</ele>
        <time>2023-02-11T09:44:13.000Z</time>
      </trkpt>
      <trkpt lat="41.892751" lon="-2.235218">
        <ele>1206.6</ele>
        <time>2023-02-11T09:44:14.000Z</time>
      </trkpt>
      <trkpt lat="41.892779" lon="-2.235038">
        <ele>1205.2</ele>
        <time>2023-02-11T09:44:15.000Z</time>
      </trkpt>
      <trkpt lat="41.892803" lon="-2.234868">
        <ele>1204.4</ele>
        <time>2023-02-11T09:44:16.000Z</time>
      </trkpt>
      <trkpt lat="41.892825" lon="-2.234707">
        <ele>1203</ele>
        <time>2023-02-11T09:44:17.000Z</time>
      </trkpt>
      <trkpt lat="41.892851" lon="-2.234559">
        <ele>1202.4</ele>
        <time>2023-02-11T09:44:18.000Z</time>
      </trkpt>
      <trkpt lat="41.892878" lon="-2.234423">
        <ele>1201.8</ele>
        <time>2023-02-11T09:44:19.000Z</time>
      </trkpt>
      <trkpt lat="41.892913" lon="-2.234296">
        <ele>1201.6</ele>
        <time>2023-02-11T09:44:20.000Z</time>
      </trkpt>
      <trkpt lat="41.892961" lon="-2.234184">
        <ele>1201.6</ele>
        <time>2023-02-11T09:44:21.000Z</time>
      </trkpt>
      <trkpt lat="41.893024" lon="-2.234092">
        <ele>1201.4</ele>
        <time>2023-02-11T09:44:22.000Z</time>
      </trkpt>
      <trkpt lat="41.893095" lon="-2.234016">
        <ele>1201.4</ele>
        <time>2023-02-11T09:44:23.000Z</time>
      </trkpt>
      <trkpt lat="41.893172" lon="-2.23395">
        <ele>1201.4</ele>
        <time>2023-02-11T09:44:24.000Z</time>
      </trkpt>
      <trkpt lat="41.893254" lon="-2.233894">
        <ele>1201.2</ele>
        <time>2023-02-11T09:44:25.000Z</time>
      </trkpt>
      <trkpt lat="41.893342" lon="-2.233843">
        <ele>1201.2</ele>
        <time>2023-02-11T09:44:26.000Z</time>
      </trkpt>
      <trkpt lat="41.893432" lon="-2.233799">
        <ele>1201.2</ele>
        <time>2023-02-11T09:44:27.000Z</time>
      </trkpt>
      <trkpt lat="41.893522" lon="-2.233767">
        <ele>1201</ele>
        <time>2023-02-11T09:44:28.000Z</time>
      </trkpt>
      <trkpt lat="41.893611" lon="-2.233742">
        <ele>1201</ele>
        <time>2023-02-11T09:44:29.000Z</time>
      </trkpt>
      <trkpt lat="41.893699" lon="-2.233718">
        <ele>1200.6</ele>
        <time>2023-02-11T09:44:30.000Z</time>
      </trkpt>
      <trkpt lat="41.893784" lon="-2.233689">
        <ele>1200.6</ele>
        <time>2023-02-11T09:44:31.000Z</time>
      </trkpt>
      <trkpt lat="41.893863" lon="-2.233648">
        <ele>1200.2</ele>
        <time>2023-02-11T09:44:32.000Z</time>
      </trkpt>
      <trkpt lat="41.893924" lon="-2.233585">
        <ele>1199.6</ele>
        <time>2023-02-11T09:44:33.000Z</time>
      </trkpt>
      <trkpt lat="41.893938" lon="-2.233504">
        <ele>1199.4</ele>
        <time>2023-02-11T09:44:34.000Z</time>
      </trkpt>
      <trkpt lat="41.893908" lon="-2.233431">
        <ele>1198.6</ele>
        <time>2023-02-11T09:44:35.000Z</time>
      </trkpt>
      <trkpt lat="41.893856" lon="-2.233386">
        <ele>1198.4</ele>
        <time>2023-02-11T09:44:36.000Z</time>
      </trkpt>
      <trkpt lat="41.893795" lon="-2.233367">
        <ele>1197.6</ele>
        <time>2023-02-11T09:44:37.000Z</time>
      </trkpt>
      <trkpt lat="41.893735" lon="-2.233357">
        <ele>1197.4</ele>
        <time>2023-02-11T09:44:38.000Z</time>
      </trkpt>
      <trkpt lat="41.893674" lon="-2.233346">
        <ele>1196.8</ele>
        <time>2023-02-11T09:44:39.000Z</time>
      </trkpt>
      <trkpt lat="41.893613" lon="-2.233339">
        <ele>1196.6</ele>
        <time>2023-02-11T09:44:40.000Z</time>
      </trkpt>
      <trkpt lat="41.893552" lon="-2.233334">
        <ele>1196.4</ele>
        <time>2023-02-11T09:44:41.000Z</time>
      </trkpt>
      <trkpt lat="41.893489" lon="-2.233323">
        <ele>1196.2</ele>
        <time>2023-02-11T09:44:42.000Z</time>
      </trkpt>
      <trkpt lat="41.893425" lon="-2.233312">
        <ele>1196.2</ele>
        <time>2023-02-11T09:44:43.000Z</time>
      </trkpt>
      <trkpt lat="41.893359" lon="-2.2333">
        <ele>1196</ele>
        <time>2023-02-11T09:44:44.000Z</time>
      </trkpt>
      <trkpt lat="41.893292" lon="-2.233285">
        <ele>1196</ele>
        <time>2023-02-11T09:44:45.000Z</time>
      </trkpt>
      <trkpt lat="41.893227" lon="-2.233273">
        <ele>1196</ele>
        <time>2023-02-11T09:44:46.000Z</time>
      </trkpt>
      <trkpt lat="41.893161" lon="-2.233262">
        <ele>1196</ele>
        <time>2023-02-11T09:44:47.000Z</time>
      </trkpt>
      <trkpt lat="41.893093" lon="-2.23325">
        <ele>1196</ele>
        <time>2023-02-11T09:44:48.000Z</time>
      </trkpt>
      <trkpt lat="41.893023" lon="-2.233242">
        <ele>1196</ele>
        <time>2023-02-11T09:44:49.000Z</time>
      </trkpt>
      <trkpt lat="41.892952" lon="-2.233234">
        <ele>1196</ele>
        <time>2023-02-11T09:44:50.000Z</time>
      </trkpt>
      <trkpt lat="41.892884" lon="-2.233233">
        <ele>1196.2</ele>
        <time>2023-02-11T09:44:51.000Z</time>
      </trkpt>
      <trkpt lat="41.892815" lon="-2.23323">
        <ele>1196.2</ele>
        <time>2023-02-11T09:44:52.000Z</time>
      </trkpt>
      <trkpt lat="41.892746" lon="-2.233226">
        <ele>1196.4</ele>
        <time>2023-02-11T09:44:53.000Z</time>
      </trkpt>
      <trkpt lat="41.892676" lon="-2.233219">
        <ele>1196.4</ele>
        <time>2023-02-11T09:44:54.000Z</time>
      </trkpt>
      <trkpt lat="41.892605" lon="-2.233212">
        <ele>1196.6</ele>
        <time>2023-02-11T09:44:55.000Z</time>
      </trkpt>
      <trkpt lat="41.892533" lon="-2.233202">
        <ele>1196.8</ele>
        <time>2023-02-11T09:44:56.000Z</time>
      </trkpt>
      <trkpt lat="41.892466" lon="-2.233188">
        <ele>1197</ele>
        <time>2023-02-11T09:44:57.000Z</time>
      </trkpt>
      <trkpt lat="41.892402" lon="-2.233172">
        <ele>1197</ele>
        <time>2023-02-11T09:44:58.000Z</time>
      </trkpt>
      <trkpt lat="41.892335" lon="-2.233148">
        <ele>1197.2</ele>
        <time>2023-02-11T09:44:59.000Z</time>
      </trkpt>
      <trkpt lat="41.892273" lon="-2.233121">
        <ele>1197.2</ele>
        <time>2023-02-11T09:45:00.000Z</time>
      </trkpt>
      <trkpt lat="41.892212" lon="-2.233091">
        <ele>1197.4</ele>
        <time>2023-02-11T09:45:01.000Z</time>
      </trkpt>
      <trkpt lat="41.892154" lon="-2.233056">
        <ele>1197.4</ele>
        <time>2023-02-11T09:45:02.000Z</time>
      </trkpt>
      <trkpt lat="41.892103" lon="-2.233011">
        <ele>1197.6</ele>
        <time>2023-02-11T09:45:03.000Z</time>
      </trkpt>
      <trkpt lat="41.892053" lon="-2.232961">
        <ele>1197.8</ele>
        <time>2023-02-11T09:45:04.000Z</time>
      </trkpt>
      <trkpt lat="41.892007" lon="-2.232909">
        <ele>1197.8</ele>
        <time>2023-02-11T09:45:05.000Z</time>
      </trkpt>
      <trkpt lat="41.891966" lon="-2.232854">
        <ele>1198</ele>
        <time>2023-02-11T09:45:06.000Z</time>
      </trkpt>
      <trkpt lat="41.891926" lon="-2.232799">
        <ele>1198</ele>
        <time>2023-02-11T09:45:07.000Z</time>
      </trkpt>
      <trkpt lat="41.891893" lon="-2.232741">
        <ele>1198.2</ele>
        <time>2023-02-11T09:45:08.000Z</time>
      </trkpt>
      <trkpt lat="41.891864" lon="-2.232681">
        <ele>1198.2</ele>
        <time>2023-02-11T09:45:09.000Z</time>
      </trkpt>
      <trkpt lat="41.891834" lon="-2.23262">
        <ele>1198.4</ele>
        <time>2023-02-11T09:45:10.000Z</time>
      </trkpt>
      <trkpt lat="41.891805" lon="-2.232559">
        <ele>1198.6</ele>
        <time>2023-02-11T09:45:11.000Z</time>
      </trkpt>
      <trkpt lat="41.891776" lon="-2.2325">
        <ele>1198.8</ele>
        <time>2023-02-11T09:45:12.000Z</time>
      </trkpt>
      <trkpt lat="41.891749" lon="-2.232444">
        <ele>1199.2</ele>
        <time>2023-02-11T09:45:13.000Z</time>
      </trkpt>
      <trkpt lat="41.891724" lon="-2.232387">
        <ele>1199.4</ele>
        <time>2023-02-11T09:45:14.000Z</time>
      </trkpt>
      <trkpt lat="41.8917" lon="-2.23233">
        <ele>1199.6</ele>
        <time>2023-02-11T09:45:15.000Z</time>
      </trkpt>
      <trkpt lat="41.891675" lon="-2.232273">
        <ele>1199.8</ele>
        <time>2023-02-11T09:45:16.000Z</time>
      </trkpt>
      <trkpt lat="41.891649" lon="-2.232217">
        <ele>1200</ele>
        <time>2023-02-11T09:45:17.000Z</time>
      </trkpt>
      <trkpt lat="41.891626" lon="-2.232157">
        <ele>1200.2</ele>
        <time>2023-02-11T09:45:18.000Z</time>
      </trkpt>
      <trkpt lat="41.891607" lon="-2.232097">
        <ele>1200.4</ele>
        <time>2023-02-11T09:45:19.000Z</time>
      </trkpt>
      <trkpt lat="41.89159" lon="-2.232038">
        <ele>1200.6</ele>
        <time>2023-02-11T09:45:20.000Z</time>
      </trkpt>
      <trkpt lat="41.891572" lon="-2.231981">
        <ele>1200.8</ele>
        <time>2023-02-11T09:45:21.000Z</time>
      </trkpt>
      <trkpt lat="41.891552" lon="-2.231925">
        <ele>1201.2</ele>
        <time>2023-02-11T09:45:22.000Z</time>
      </trkpt>
      <trkpt lat="41.891537" lon="-2.231867">
        <ele>1201.2</ele>
        <time>2023-02-11T09:45:23.000Z</time>
      </trkpt>
      <trkpt lat="41.891522" lon="-2.231809">
        <ele>1201.6</ele>
        <time>2023-02-11T09:45:24.000Z</time>
      </trkpt>
      <trkpt lat="41.891507" lon="-2.23175">
        <ele>1201.8</ele>
        <time>2023-02-11T09:45:25.000Z</time>
      </trkpt>
      <trkpt lat="41.891493" lon="-2.231689">
        <ele>1202</ele>
        <time>2023-02-11T09:45:26.000Z</time>
      </trkpt>
      <trkpt lat="41.891478" lon="-2.231628">
        <ele>1202.4</ele>
        <time>2023-02-11T09:45:27.000Z</time>
      </trkpt>
      <trkpt lat="41.891462" lon="-2.231567">
        <ele>1203</ele>
        <time>2023-02-11T09:45:28.000Z</time>
      </trkpt>
      <trkpt lat="41.891446" lon="-2.231507">
        <ele>1203.2</ele>
        <time>2023-02-11T09:45:29.000Z</time>
      </trkpt>
      <trkpt lat="41.891433" lon="-2.231446">
        <ele>1203.4</ele>
        <time>2023-02-11T09:45:30.000Z</time>
      </trkpt>
      <trkpt lat="41.891422" lon="-2.231387">
        <ele>1203.6</ele>
        <time>2023-02-11T09:45:31.000Z</time>
      </trkpt>
      <trkpt lat="41.891411" lon="-2.231327">
        <ele>1203.8</ele>
        <time>2023-02-11T09:45:32.000Z</time>
      </trkpt>
      <trkpt lat="41.891397" lon="-2.231266">
        <ele>1204.2</ele>
        <time>2023-02-11T09:45:33.000Z</time>
      </trkpt>
      <trkpt lat="41.891381" lon="-2.231207">
        <ele>1204.2</ele>
        <time>2023-02-11T09:45:34.000Z</time>
      </trkpt>
      <trkpt lat="41.891366" lon="-2.231148">
        <ele>1204.6</ele>
        <time>2023-02-11T09:45:35.000Z</time>
      </trkpt>
      <trkpt lat="41.891353" lon="-2.231092">
        <ele>1204.8</ele>
        <time>2023-02-11T09:45:36.000Z</time>
      </trkpt>
      <trkpt lat="41.891343" lon="-2.231036">
        <ele>1205.2</ele>
        <time>2023-02-11T09:45:37.000Z</time>
      </trkpt>
      <trkpt lat="41.891331" lon="-2.230976">
        <ele>1205.2</ele>
        <time>2023-02-11T09:45:38.000Z</time>
      </trkpt>
      <trkpt lat="41.891318" lon="-2.230914">
        <ele>1205.6</ele>
        <time>2023-02-11T09:45:39.000Z</time>
      </trkpt>
      <trkpt lat="41.891305" lon="-2.230853">
        <ele>1206</ele>
        <time>2023-02-11T09:45:40.000Z</time>
      </trkpt>
      <trkpt lat="41.891293" lon="-2.23079">
        <ele>1206</ele>
        <time>2023-02-11T09:45:41.000Z</time>
      </trkpt>
      <trkpt lat="41.891284" lon="-2.230727">
        <ele>1206.4</ele>
        <time>2023-02-11T09:45:42.000Z</time>
      </trkpt>
      <trkpt lat="41.891276" lon="-2.230665">
        <ele>1206.6</ele>
        <time>2023-02-11T09:45:43.000Z</time>
      </trkpt>
      <trkpt lat="41.891271" lon="-2.230605">
        <ele>1207</ele>
        <time>2023-02-11T09:45:44.000Z</time>
      </trkpt>
      <trkpt lat="41.891264" lon="-2.230543">
        <ele>1207.2</ele>
        <time>2023-02-11T09:45:45.000Z</time>
      </trkpt>
      <trkpt lat="41.891258" lon="-2.230481">
        <ele>1207.6</ele>
        <time>2023-02-11T09:45:46.000Z</time>
      </trkpt>
      <trkpt lat="41.891253" lon="-2.230419">
        <ele>1207.6</ele>
        <time>2023-02-11T09:45:47.000Z</time>
      </trkpt>
      <trkpt lat="41.891251" lon="-2.230357">
        <ele>1208</ele>
        <time>2023-02-11T09:45:48.000Z</time>
      </trkpt>
      <trkpt lat="41.891252" lon="-2.230296">
        <ele>1208.4</ele>
        <time>2023-02-11T09:45:49.000Z</time>
      </trkpt>
      <trkpt lat="41.891255" lon="-2.230238">
        <ele>1208.6</ele>
        <time>2023-02-11T09:45:50.000Z</time>
      </trkpt>
      <trkpt lat="41.891259" lon="-2.230181">
        <ele>1209</ele>
        <time>2023-02-11T09:45:51.000Z</time>
      </trkpt>
      <trkpt lat="41.891265" lon="-2.230126">
        <ele>1209</ele>
        <time>2023-02-11T09:45:52.000Z</time>
      </trkpt>
      <trkpt lat="41.891272" lon="-2.23007">
        <ele>1209.4</ele>
        <time>2023-02-11T09:45:53.000Z</time>
      </trkpt>
      <trkpt lat="41.891281" lon="-2.230014">
        <ele>1209.8</ele>
        <time>2023-02-11T09:45:54.000Z</time>
      </trkpt>
      <trkpt lat="41.891292" lon="-2.229958">
        <ele>1210</ele>
        <time>2023-02-11T09:45:55.000Z</time>
      </trkpt>
      <trkpt lat="41.891303" lon="-2.229903">
        <ele>1210.2</ele>
        <time>2023-02-11T09:45:56.000Z</time>
      </trkpt>
      <trkpt lat="41.891313" lon="-2.229848">
        <ele>1210.6</ele>
        <time>2023-02-11T09:45:57.000Z</time>
      </trkpt>
      <trkpt lat="41.891325" lon="-2.229792">
        <ele>1211.4</ele>
        <time>2023-02-11T09:45:58.000Z</time>
      </trkpt>
      <trkpt lat="41.891338" lon="-2.229736">
        <ele>1211.6</ele>
        <time>2023-02-11T09:45:59.000Z</time>
      </trkpt>
      <trkpt lat="41.891351" lon="-2.229683">
        <ele>1211.8</ele>
        <time>2023-02-11T09:46:00.000Z</time>
      </trkpt>
      <trkpt lat="41.891365" lon="-2.22963">
        <ele>1212</ele>
        <time>2023-02-11T09:46:01.000Z</time>
      </trkpt>
      <trkpt lat="41.891379" lon="-2.229578">
        <ele>1212.4</ele>
        <time>2023-02-11T09:46:02.000Z</time>
      </trkpt>
      <trkpt lat="41.891392" lon="-2.229527">
        <ele>1212.6</ele>
        <time>2023-02-11T09:46:03.000Z</time>
      </trkpt>
      <trkpt lat="41.891404" lon="-2.229473">
        <ele>1213</ele>
        <time>2023-02-11T09:46:04.000Z</time>
      </trkpt>
      <trkpt lat="41.891417" lon="-2.229421">
        <ele>1213.2</ele>
        <time>2023-02-11T09:46:05.000Z</time>
      </trkpt>
      <trkpt lat="41.891432" lon="-2.229369">
        <ele>1213.6</ele>
        <time>2023-02-11T09:46:06.000Z</time>
      </trkpt>
      <trkpt lat="41.891444" lon="-2.229318">
        <ele>1214</ele>
        <time>2023-02-11T09:46:07.000Z</time>
      </trkpt>
      <trkpt lat="41.891454" lon="-2.229266">
        <ele>1214.2</ele>
        <time>2023-02-11T09:46:08.000Z</time>
      </trkpt>
      <trkpt lat="41.891463" lon="-2.229214">
        <ele>1214.4</ele>
        <time>2023-02-11T09:46:09.000Z</time>
      </trkpt>
      <trkpt lat="41.891473" lon="-2.229161">
        <ele>1214.6</ele>
        <time>2023-02-11T09:46:10.000Z</time>
      </trkpt>
      <trkpt lat="41.891481" lon="-2.229107">
        <ele>1215</ele>
        <time>2023-02-11T09:46:11.000Z</time>
      </trkpt>
      <trkpt lat="41.891487" lon="-2.229054">
        <ele>1215.2</ele>
        <time>2023-02-11T09:46:12.000Z</time>
      </trkpt>
      <trkpt lat="41.891491" lon="-2.228998">
        <ele>1215.4</ele>
        <time>2023-02-11T09:46:13.000Z</time>
      </trkpt>
      <trkpt lat="41.89149" lon="-2.22894">
        <ele>1215.6</ele>
        <time>2023-02-11T09:46:14.000Z</time>
      </trkpt>
      <trkpt lat="41.891487" lon="-2.228882">
        <ele>1216</ele>
        <time>2023-02-11T09:46:15.000Z</time>
      </trkpt>
      <trkpt lat="41.891483" lon="-2.228822">
        <ele>1216.2</ele>
        <time>2023-02-11T09:46:16.000Z</time>
      </trkpt>
      <trkpt lat="41.891474" lon="-2.228765">
        <ele>1216.4</ele>
        <time>2023-02-11T09:46:17.000Z</time>
      </trkpt>
      <trkpt lat="41.89146" lon="-2.228712">
        <ele>1216.8</ele>
        <time>2023-02-11T09:46:18.000Z</time>
      </trkpt>
      <trkpt lat="41.891447" lon="-2.228653">
        <ele>1217</ele>
        <time>2023-02-11T09:46:19.000Z</time>
      </trkpt>
      <trkpt lat="41.891434" lon="-2.228594">
        <ele>1217.2</ele>
        <time>2023-02-11T09:46:20.000Z</time>
      </trkpt>
      <trkpt lat="41.89142" lon="-2.228536">
        <ele>1217.4</ele>
        <time>2023-02-11T09:46:21.000Z</time>
      </trkpt>
      <trkpt lat="41.891402" lon="-2.228479">
        <ele>1217.6</ele>
        <time>2023-02-11T09:46:22.000Z</time>
      </trkpt>
      <trkpt lat="41.891381" lon="-2.228423">
        <ele>1217.6</ele>
        <time>2023-02-11T09:46:23.000Z</time>
      </trkpt>
      <trkpt lat="41.89136" lon="-2.228366">
        <ele>1217.8</ele>
        <time>2023-02-11T09:46:24.000Z</time>
      </trkpt>
      <trkpt lat="41.891337" lon="-2.228312">
        <ele>1218</ele>
        <time>2023-02-11T09:46:25.000Z</time>
      </trkpt>
      <trkpt lat="41.891312" lon="-2.228258">
        <ele>1218.2</ele>
        <time>2023-02-11T09:46:26.000Z</time>
      </trkpt>
      <trkpt lat="41.891286" lon="-2.228206">
        <ele>1218.4</ele>
        <time>2023-02-11T09:46:27.000Z</time>
      </trkpt>
      <trkpt lat="41.891256" lon="-2.228157">
        <ele>1218.4</ele>
        <time>2023-02-11T09:46:28.000Z</time>
      </trkpt>
      <trkpt lat="41.891223" lon="-2.22811">
        <ele>1218.8</ele>
        <time>2023-02-11T09:46:29.000Z</time>
      </trkpt>
      <trkpt lat="41.891186" lon="-2.228067">
        <ele>1218.8</ele>
        <time>2023-02-11T09:46:30.000Z</time>
      </trkpt>
      <trkpt lat="41.891149" lon="-2.228026">
        <ele>1219.2</ele>
        <time>2023-02-11T09:46:31.000Z</time>
      </trkpt>
      <trkpt lat="41.891112" lon="-2.227986">
        <ele>1219.2</ele>
        <time>2023-02-11T09:46:32.000Z</time>
      </trkpt>
      <trkpt lat="41.891078" lon="-2.227944">
        <ele>1219.4</ele>
        <time>2023-02-11T09:46:33.000Z</time>
      </trkpt>
      <trkpt lat="41.891041" lon="-2.227903">
        <ele>1219.4</ele>
        <time>2023-02-11T09:46:34.000Z</time>
      </trkpt>
      <trkpt lat="41.891004" lon="-2.227862">
        <ele>1219.6</ele>
        <time>2023-02-11T09:46:35.000Z</time>
      </trkpt>
      <trkpt lat="41.890969" lon="-2.227823">
        <ele>1220</ele>
        <time>2023-02-11T09:46:36.000Z</time>
      </trkpt>
      <trkpt lat="41.89093" lon="-2.227783">
        <ele>1220.2</ele>
        <time>2023-02-11T09:46:37.000Z</time>
      </trkpt>
      <trkpt lat="41.890891" lon="-2.227743">
        <ele>1220.4</ele>
        <time>2023-02-11T09:46:38.000Z</time>
      </trkpt>
      <trkpt lat="41.890855" lon="-2.227701">
        <ele>1220.6</ele>
        <time>2023-02-11T09:46:39.000Z</time>
      </trkpt>
      <trkpt lat="41.890819" lon="-2.227657">
        <ele>1220.8</ele>
        <time>2023-02-11T09:46:40.000Z</time>
      </trkpt>
      <trkpt lat="41.890784" lon="-2.227615">
        <ele>1221</ele>
        <time>2023-02-11T09:46:41.000Z</time>
      </trkpt>
      <trkpt lat="41.890748" lon="-2.227574">
        <ele>1221.2</ele>
        <time>2023-02-11T09:46:42.000Z</time>
      </trkpt>
      <trkpt lat="41.890712" lon="-2.227532">
        <ele>1221.4</ele>
        <time>2023-02-11T09:46:43.000Z</time>
      </trkpt>
      <trkpt lat="41.890679" lon="-2.227487">
        <ele>1221.8</ele>
        <time>2023-02-11T09:46:44.000Z</time>
      </trkpt>
      <trkpt lat="41.890645" lon="-2.227443">
        <ele>1222</ele>
        <time>2023-02-11T09:46:45.000Z</time>
      </trkpt>
      <trkpt lat="41.890611" lon="-2.227399">
        <ele>1222.2</ele>
        <time>2023-02-11T09:46:46.000Z</time>
      </trkpt>
      <trkpt lat="41.890575" lon="-2.227355">
        <ele>1222.6</ele>
        <time>2023-02-11T09:46:47.000Z</time>
      </trkpt>
      <trkpt lat="41.890543" lon="-2.227313">
        <ele>1222.8</ele>
        <time>2023-02-11T09:46:48.000Z</time>
      </trkpt>
      <trkpt lat="41.89051" lon="-2.227274">
        <ele>1223.2</ele>
        <time>2023-02-11T09:46:49.000Z</time>
      </trkpt>
      <trkpt lat="41.890477" lon="-2.227232">
        <ele>1223.4</ele>
        <time>2023-02-11T09:46:50.000Z</time>
      </trkpt>
      <trkpt lat="41.890443" lon="-2.227187">
        <ele>1223.8</ele>
        <time>2023-02-11T09:46:51.000Z</time>
      </trkpt>
      <trkpt lat="41.890413" lon="-2.227141">
        <ele>1224</ele>
        <time>2023-02-11T09:46:52.000Z</time>
      </trkpt>
      <trkpt lat="41.890383" lon="-2.227095">
        <ele>1224.4</ele>
        <time>2023-02-11T09:46:53.000Z</time>
      </trkpt>
      <trkpt lat="41.890352" lon="-2.227047">
        <ele>1224.6</ele>
        <time>2023-02-11T09:46:54.000Z</time>
      </trkpt>
      <trkpt lat="41.89032" lon="-2.226999">
        <ele>1225</ele>
        <time>2023-02-11T09:46:55.000Z</time>
      </trkpt>
      <trkpt lat="41.890289" lon="-2.226949">
        <ele>1225.4</ele>
        <time>2023-02-11T09:46:56.000Z</time>
      </trkpt>
      <trkpt lat="41.890259" lon="-2.2269">
        <ele>1225.8</ele>
        <time>2023-02-11T09:46:57.000Z</time>
      </trkpt>
      <trkpt lat="41.890231" lon="-2.226849">
        <ele>1226.4</ele>
        <time>2023-02-11T09:46:58.000Z</time>
      </trkpt>
      <trkpt lat="41.890205" lon="-2.226795">
        <ele>1226.6</ele>
        <time>2023-02-11T09:46:59.000Z</time>
      </trkpt>
      <trkpt lat="41.890181" lon="-2.22674">
        <ele>1227</ele>
        <time>2023-02-11T09:47:00.000Z</time>
      </trkpt>
      <trkpt lat="41.890159" lon="-2.226687">
        <ele>1227</ele>
        <time>2023-02-11T09:47:01.000Z</time>
      </trkpt>
      <trkpt lat="41.890137" lon="-2.226631">
        <ele>1227.4</ele>
        <time>2023-02-11T09:47:02.000Z</time>
      </trkpt>
      <trkpt lat="41.890112" lon="-2.226571">
        <ele>1227.6</ele>
        <time>2023-02-11T09:47:03.000Z</time>
      </trkpt>
      <trkpt lat="41.890088" lon="-2.226511">
        <ele>1227.8</ele>
        <time>2023-02-11T09:47:04.000Z</time>
      </trkpt>
      <trkpt lat="41.890073" lon="-2.226449">
        <ele>1228</ele>
        <time>2023-02-11T09:47:05.000Z</time>
      </trkpt>
      <trkpt lat="41.890051" lon="-2.226389">
        <ele>1228</ele>
        <time>2023-02-11T09:47:06.000Z</time>
      </trkpt>
      <trkpt lat="41.890025" lon="-2.226327">
        <ele>1228.4</ele>
        <time>2023-02-11T09:47:07.000Z</time>
      </trkpt>
      <trkpt lat="41.889999" lon="-2.226261">
        <ele>1228.4</ele>
        <time>2023-02-11T09:47:08.000Z</time>
      </trkpt>
      <trkpt lat="41.889975" lon="-2.226196">
        <ele>1228.8</ele>
        <time>2023-02-11T09:47:09.000Z</time>
      </trkpt>
      <trkpt lat="41.889949" lon="-2.226131">
        <ele>1229</ele>
        <time>2023-02-11T09:47:10.000Z</time>
      </trkpt>
      <trkpt lat="41.889923" lon="-2.226068">
        <ele>1229.2</ele>
        <time>2023-02-11T09:47:11.000Z</time>
      </trkpt>
      <trkpt lat="41.889899" lon="-2.226002">
        <ele>1229.4</ele>
        <time>2023-02-11T09:47:12.000Z</time>
      </trkpt>
      <trkpt lat="41.889882" lon="-2.225933">
        <ele>1229.4</ele>
        <time>2023-02-11T09:47:13.000Z</time>
      </trkpt>
      <trkpt lat="41.88987" lon="-2.225861">
        <ele>1229.8</ele>
        <time>2023-02-11T09:47:14.000Z</time>
      </trkpt>
      <trkpt lat="41.88986" lon="-2.225788">
        <ele>1230</ele>
        <time>2023-02-11T09:47:15.000Z</time>
      </trkpt>
      <trkpt lat="41.88985" lon="-2.22572">
        <ele>1230.2</ele>
        <time>2023-02-11T09:47:16.000Z</time>
      </trkpt>
      <trkpt lat="41.889844" lon="-2.225652">
        <ele>1230.4</ele>
        <time>2023-02-11T09:47:17.000Z</time>
      </trkpt>
      <trkpt lat="41.889841" lon="-2.22558">
        <ele>1230.6</ele>
        <time>2023-02-11T09:47:18.000Z</time>
      </trkpt>
      <trkpt lat="41.889839" lon="-2.225511">
        <ele>1230.6</ele>
        <time>2023-02-11T09:47:19.000Z</time>
      </trkpt>
      <trkpt lat="41.889836" lon="-2.225444">
        <ele>1230.8</ele>
        <time>2023-02-11T09:47:20.000Z</time>
      </trkpt>
      <trkpt lat="41.889839" lon="-2.225378">
        <ele>1230.8</ele>
        <time>2023-02-11T09:47:21.000Z</time>
      </trkpt>
      <trkpt lat="41.889843" lon="-2.225311">
        <ele>1231.2</ele>
        <time>2023-02-11T09:47:22.000Z</time>
      </trkpt>
      <trkpt lat="41.889845" lon="-2.225244">
        <ele>1231.4</ele>
        <time>2023-02-11T09:47:23.000Z</time>
      </trkpt>
      <trkpt lat="41.889845" lon="-2.225175">
        <ele>1231.6</ele>
        <time>2023-02-11T09:47:24.000Z</time>
      </trkpt>
      <trkpt lat="41.889848" lon="-2.225108">
        <ele>1232</ele>
        <time>2023-02-11T09:47:25.000Z</time>
      </trkpt>
      <trkpt lat="41.889854" lon="-2.225043">
        <ele>1232</ele>
        <time>2023-02-11T09:47:26.000Z</time>
      </trkpt>
      <trkpt lat="41.889861" lon="-2.224977">
        <ele>1232.2</ele>
        <time>2023-02-11T09:47:27.000Z</time>
      </trkpt>
      <trkpt lat="41.889867" lon="-2.224911">
        <ele>1232.4</ele>
        <time>2023-02-11T09:47:28.000Z</time>
      </trkpt>
      <trkpt lat="41.889875" lon="-2.224846">
        <ele>1232.8</ele>
        <time>2023-02-11T09:47:29.000Z</time>
      </trkpt>
      <trkpt lat="41.88989" lon="-2.224783">
        <ele>1233</ele>
        <time>2023-02-11T09:47:30.000Z</time>
      </trkpt>
      <trkpt lat="41.889909" lon="-2.224723">
        <ele>1233.4</ele>
        <time>2023-02-11T09:47:31.000Z</time>
      </trkpt>
      <trkpt lat="41.889926" lon="-2.22466">
        <ele>1233.6</ele>
        <time>2023-02-11T09:47:32.000Z</time>
      </trkpt>
      <trkpt lat="41.889942" lon="-2.224595">
        <ele>1233.6</ele>
        <time>2023-02-11T09:47:33.000Z</time>
      </trkpt>
      <trkpt lat="41.889961" lon="-2.22453">
        <ele>1234</ele>
        <time>2023-02-11T09:47:34.000Z</time>
      </trkpt>
      <trkpt lat="41.889984" lon="-2.224467">
        <ele>1234.2</ele>
        <time>2023-02-11T09:47:35.000Z</time>
      </trkpt>
      <trkpt lat="41.890007" lon="-2.224405">
        <ele>1234.6</ele>
        <time>2023-02-11T09:47:36.000Z</time>
      </trkpt>
      <trkpt lat="41.890029" lon="-2.224341">
        <ele>1234.6</ele>
        <time>2023-02-11T09:47:37.000Z</time>
      </trkpt>
      <trkpt lat="41.890052" lon="-2.224275">
        <ele>1235.2</ele>
        <time>2023-02-11T09:47:38.000Z</time>
      </trkpt>
      <trkpt lat="41.890076" lon="-2.224208">
        <ele>1235.4</ele>
        <time>2023-02-11T09:47:39.000Z</time>
      </trkpt>
      <trkpt lat="41.890101" lon="-2.22414">
        <ele>1235.8</ele>
        <time>2023-02-11T09:47:40.000Z</time>
      </trkpt>
      <trkpt lat="41.890129" lon="-2.224069">
        <ele>1236.2</ele>
        <time>2023-02-11T09:47:41.000Z</time>
      </trkpt>
      <trkpt lat="41.890156" lon="-2.223997">
        <ele>1236.4</ele>
        <time>2023-02-11T09:47:42.000Z</time>
      </trkpt>
      <trkpt lat="41.890184" lon="-2.223922">
        <ele>1236.8</ele>
        <time>2023-02-11T09:47:43.000Z</time>
      </trkpt>
      <trkpt lat="41.890213" lon="-2.223846">
        <ele>1237</ele>
        <time>2023-02-11T09:47:44.000Z</time>
      </trkpt>
      <trkpt lat="41.890244" lon="-2.22377">
        <ele>1237.2</ele>
        <time>2023-02-11T09:47:45.000Z</time>
      </trkpt>
      <trkpt lat="41.89028" lon="-2.223696">
        <ele>1237.4</ele>
        <time>2023-02-11T09:47:46.000Z</time>
      </trkpt>
      <trkpt lat="41.890324" lon="-2.223624">
        <ele>1237.6</ele>
        <time>2023-02-11T09:47:47.000Z</time>
      </trkpt>
      <trkpt lat="41.890372" lon="-2.223553">
        <ele>1237.8</ele>
        <time>2023-02-11T09:47:48.000Z</time>
      </trkpt>
      <trkpt lat="41.890426" lon="-2.223481">
        <ele>1237.8</ele>
        <time>2023-02-11T09:47:49.000Z</time>
      </trkpt>
      <trkpt lat="41.890484" lon="-2.223408">
        <ele>1238</ele>
        <time>2023-02-11T09:47:50.000Z</time>
      </trkpt>
      <trkpt lat="41.890544" lon="-2.223336">
        <ele>1238</ele>
        <time>2023-02-11T09:47:51.000Z</time>
      </trkpt>
      <trkpt lat="41.890606" lon="-2.223265">
        <ele>1238</ele>
        <time>2023-02-11T09:47:52.000Z</time>
      </trkpt>
      <trkpt lat="41.890668" lon="-2.223188">
        <ele>1238</ele>
        <time>2023-02-11T09:47:53.000Z</time>
      </trkpt>
      <trkpt lat="41.890732" lon="-2.223102">
        <ele>1237.8</ele>
        <time>2023-02-11T09:47:54.000Z</time>
      </trkpt>
      <trkpt lat="41.890794" lon="-2.223012">
        <ele>1237.8</ele>
        <time>2023-02-11T09:47:55.000Z</time>
      </trkpt>
      <trkpt lat="41.890852" lon="-2.222919">
        <ele>1237.8</ele>
        <time>2023-02-11T09:47:56.000Z</time>
      </trkpt>
      <trkpt lat="41.890899" lon="-2.222814">
        <ele>1237.8</ele>
        <time>2023-02-11T09:47:57.000Z</time>
      </trkpt>
      <trkpt lat="41.890936" lon="-2.222696">
        <ele>1237.4</ele>
        <time>2023-02-11T09:47:58.000Z</time>
      </trkpt>
      <trkpt lat="41.890962" lon="-2.222572">
        <ele>1237.2</ele>
        <time>2023-02-11T09:47:59.000Z</time>
      </trkpt>
      <trkpt lat="41.890983" lon="-2.222448">
        <ele>1237</ele>
        <time>2023-02-11T09:48:00.000Z</time>
      </trkpt>
      <trkpt lat="41.891006" lon="-2.222327">
        <ele>1236.6</ele>
        <time>2023-02-11T09:48:01.000Z</time>
      </trkpt>
      <trkpt lat="41.89103" lon="-2.222206">
        <ele>1236.6</ele>
        <time>2023-02-11T09:48:02.000Z</time>
      </trkpt>
      <trkpt lat="41.891053" lon="-2.222083">
        <ele>1236.2</ele>
        <time>2023-02-11T09:48:03.000Z</time>
      </trkpt>
      <trkpt lat="41.891078" lon="-2.221961">
        <ele>1236.2</ele>
        <time>2023-02-11T09:48:04.000Z</time>
      </trkpt>
      <trkpt lat="41.891101" lon="-2.221839">
        <ele>1236</ele>
        <time>2023-02-11T09:48:05.000Z</time>
      </trkpt>
      <trkpt lat="41.891124" lon="-2.221718">
        <ele>1236</ele>
        <time>2023-02-11T09:48:06.000Z</time>
      </trkpt>
      <trkpt lat="41.891151" lon="-2.221598">
        <ele>1235.6</ele>
        <time>2023-02-11T09:48:07.000Z</time>
      </trkpt>
      <trkpt lat="41.891179" lon="-2.22148">
        <ele>1235.6</ele>
        <time>2023-02-11T09:48:08.000Z</time>
      </trkpt>
      <trkpt lat="41.89121" lon="-2.221364">
        <ele>1235.4</ele>
        <time>2023-02-11T09:48:09.000Z</time>
      </trkpt>
      <trkpt lat="41.891251" lon="-2.221252">
        <ele>1235.2</ele>
        <time>2023-02-11T09:48:10.000Z</time>
      </trkpt>
      <trkpt lat="41.891306" lon="-2.221148">
        <ele>1235</ele>
        <time>2023-02-11T09:48:11.000Z</time>
      </trkpt>
      <trkpt lat="41.891374" lon="-2.221055">
        <ele>1234.8</ele>
        <time>2023-02-11T09:48:12.000Z</time>
      </trkpt>
      <trkpt lat="41.891452" lon="-2.220971">
        <ele>1234.8</ele>
        <time>2023-02-11T09:48:13.000Z</time>
      </trkpt>
      <trkpt lat="41.891536" lon="-2.220892">
        <ele>1234.8</ele>
        <time>2023-02-11T09:48:14.000Z</time>
      </trkpt>
      <trkpt lat="41.891625" lon="-2.220818">
        <ele>1234.8</ele>
        <time>2023-02-11T09:48:15.000Z</time>
      </trkpt>
      <trkpt lat="41.891716" lon="-2.220744">
        <ele>1234.4</ele>
        <time>2023-02-11T09:48:16.000Z</time>
      </trkpt>
      <trkpt lat="41.89181" lon="-2.220671">
        <ele>1234.2</ele>
        <time>2023-02-11T09:48:17.000Z</time>
      </trkpt>
      <trkpt lat="41.891907" lon="-2.220596">
        <ele>1233.8</ele>
        <time>2023-02-11T09:48:18.000Z</time>
      </trkpt>
      <trkpt lat="41.892006" lon="-2.220518">
        <ele>1233.4</ele>
        <time>2023-02-11T09:48:19.000Z</time>
      </trkpt>
      <trkpt lat="41.892104" lon="-2.220437">
        <ele>1233.4</ele>
        <time>2023-02-11T09:48:20.000Z</time>
      </trkpt>
      <trkpt lat="41.892203" lon="-2.220352">
        <ele>1233.2</ele>
        <time>2023-02-11T09:48:21.000Z</time>
      </trkpt>
      <trkpt lat="41.892301" lon="-2.22026">
        <ele>1232.8</ele>
        <time>2023-02-11T09:48:22.000Z</time>
      </trkpt>
      <trkpt lat="41.892391" lon="-2.220161">
        <ele>1232.2</ele>
        <time>2023-02-11T09:48:23.000Z</time>
      </trkpt>
      <trkpt lat="41.892466" lon="-2.220045">
        <ele>1232</ele>
        <time>2023-02-11T09:48:24.000Z</time>
      </trkpt>
      <trkpt lat="41.89253" lon="-2.219909">
        <ele>1231.4</ele>
        <time>2023-02-11T09:48:25.000Z</time>
      </trkpt>
      <trkpt lat="41.892588" lon="-2.219768">
        <ele>1231.2</ele>
        <time>2023-02-11T09:48:26.000Z</time>
      </trkpt>
      <trkpt lat="41.892636" lon="-2.219625">
        <ele>1230.4</ele>
        <time>2023-02-11T09:48:27.000Z</time>
      </trkpt>
      <trkpt lat="41.89268" lon="-2.219482">
        <ele>1229.4</ele>
        <time>2023-02-11T09:48:28.000Z</time>
      </trkpt>
      <trkpt lat="41.892715" lon="-2.219341">
        <ele>1229</ele>
        <time>2023-02-11T09:48:29.000Z</time>
      </trkpt>
      <trkpt lat="41.892746" lon="-2.2192">
        <ele>1228.6</ele>
        <time>2023-02-11T09:48:30.000Z</time>
      </trkpt>
      <trkpt lat="41.892769" lon="-2.219065">
        <ele>1228.4</ele>
        <time>2023-02-11T09:48:31.000Z</time>
      </trkpt>
      <trkpt lat="41.892786" lon="-2.218935">
        <ele>1228.2</ele>
        <time>2023-02-11T09:48:32.000Z</time>
      </trkpt>
      <trkpt lat="41.892804" lon="-2.218805">
        <ele>1228.2</ele>
        <time>2023-02-11T09:48:33.000Z</time>
      </trkpt>
      <trkpt lat="41.89282" lon="-2.218686">
        <ele>1228.2</ele>
        <time>2023-02-11T09:48:34.000Z</time>
      </trkpt>
      <trkpt lat="41.892835" lon="-2.218573">
        <ele>1228.2</ele>
        <time>2023-02-11T09:48:35.000Z</time>
      </trkpt>
      <trkpt lat="41.892848" lon="-2.218467">
        <ele>1228.2</ele>
        <time>2023-02-11T09:48:36.000Z</time>
      </trkpt>
      <trkpt lat="41.892861" lon="-2.218367">
        <ele>1228.4</ele>
        <time>2023-02-11T09:48:37.000Z</time>
      </trkpt>
      <trkpt lat="41.892872" lon="-2.21827">
        <ele>1228.4</ele>
        <time>2023-02-11T09:48:38.000Z</time>
      </trkpt>
      <trkpt lat="41.892883" lon="-2.218178">
        <ele>1228.8</ele>
        <time>2023-02-11T09:48:39.000Z</time>
      </trkpt>
      <trkpt lat="41.892895" lon="-2.21809">
        <ele>1229</ele>
        <time>2023-02-11T09:48:40.000Z</time>
      </trkpt>
      <trkpt lat="41.892906" lon="-2.218005">
        <ele>1229.4</ele>
        <time>2023-02-11T09:48:41.000Z</time>
      </trkpt>
      <trkpt lat="41.89292" lon="-2.217924">
        <ele>1229.6</ele>
        <time>2023-02-11T09:48:42.000Z</time>
      </trkpt>
      <trkpt lat="41.892933" lon="-2.217847">
        <ele>1230.2</ele>
        <time>2023-02-11T09:48:43.000Z</time>
      </trkpt>
      <trkpt lat="41.892942" lon="-2.217769">
        <ele>1230.4</ele>
        <time>2023-02-11T09:48:44.000Z</time>
      </trkpt>
      <trkpt lat="41.892955" lon="-2.217694">
        <ele>1230.8</ele>
        <time>2023-02-11T09:48:45.000Z</time>
      </trkpt>
      <trkpt lat="41.892972" lon="-2.217621">
        <ele>1231</ele>
        <time>2023-02-11T09:48:46.000Z</time>
      </trkpt>
      <trkpt lat="41.892989" lon="-2.217549">
        <ele>1231.6</ele>
        <time>2023-02-11T09:48:47.000Z</time>
      </trkpt>
      <trkpt lat="41.893005" lon="-2.217479">
        <ele>1232</ele>
        <time>2023-02-11T09:48:48.000Z</time>
      </trkpt>
      <trkpt lat="41.893024" lon="-2.217408">
        <ele>1232</ele>
        <time>2023-02-11T09:48:49.000Z</time>
      </trkpt>
      <trkpt lat="41.893049" lon="-2.217341">
        <ele>1232.4</ele>
        <time>2023-02-11T09:48:50.000Z</time>
      </trkpt>
      <trkpt lat="41.893077" lon="-2.21728">
        <ele>1232.4</ele>
        <time>2023-02-11T09:48:51.000Z</time>
      </trkpt>
      <trkpt lat="41.89311" lon="-2.217223">
        <ele>1232.8</ele>
        <time>2023-02-11T09:48:52.000Z</time>
      </trkpt>
      <trkpt lat="41.893144" lon="-2.217165">
        <ele>1233.2</ele>
        <time>2023-02-11T09:48:53.000Z</time>
      </trkpt>
      <trkpt lat="41.893179" lon="-2.217106">
        <ele>1233.6</ele>
        <time>2023-02-11T09:48:54.000Z</time>
      </trkpt>
      <trkpt lat="41.893214" lon="-2.217047">
        <ele>1233.8</ele>
        <time>2023-02-11T09:48:55.000Z</time>
      </trkpt>
      <trkpt lat="41.893253" lon="-2.21699">
        <ele>1234.2</ele>
        <time>2023-02-11T09:48:56.000Z</time>
      </trkpt>
      <trkpt lat="41.893295" lon="-2.216934">
        <ele>1234.6</ele>
        <time>2023-02-11T09:48:57.000Z</time>
      </trkpt>
      <trkpt lat="41.893335" lon="-2.216875">
        <ele>1234.8</ele>
        <time>2023-02-11T09:48:58.000Z</time>
      </trkpt>
      <trkpt lat="41.893375" lon="-2.216815">
        <ele>1235.2</ele>
        <time>2023-02-11T09:48:59.000Z</time>
      </trkpt>
      <trkpt lat="41.893416" lon="-2.216755">
        <ele>1235.4</ele>
        <time>2023-02-11T09:49:00.000Z</time>
      </trkpt>
      <trkpt lat="41.893456" lon="-2.216692">
        <ele>1235.8</ele>
        <time>2023-02-11T09:49:01.000Z</time>
      </trkpt>
      <trkpt lat="41.893499" lon="-2.216628">
        <ele>1235.8</ele>
        <time>2023-02-11T09:49:02.000Z</time>
      </trkpt>
      <trkpt lat="41.893541" lon="-2.21657">
        <ele>1236</ele>
        <time>2023-02-11T09:49:03.000Z</time>
      </trkpt>
      <trkpt lat="41.893588" lon="-2.216512">
        <ele>1236.2</ele>
        <time>2023-02-11T09:49:04.000Z</time>
      </trkpt>
      <trkpt lat="41.893638" lon="-2.216454">
        <ele>1236.2</ele>
        <time>2023-02-11T09:49:05.000Z</time>
      </trkpt>
      <trkpt lat="41.89369" lon="-2.216403">
        <ele>1236.4</ele>
        <time>2023-02-11T09:49:06.000Z</time>
      </trkpt>
      <trkpt lat="41.893746" lon="-2.21636">
        <ele>1236.8</ele>
        <time>2023-02-11T09:49:07.000Z</time>
      </trkpt>
      <trkpt lat="41.893805" lon="-2.216321">
        <ele>1237</ele>
        <time>2023-02-11T09:49:08.000Z</time>
      </trkpt>
      <trkpt lat="41.89387" lon="-2.216288">
        <ele>1237.4</ele>
        <time>2023-02-11T09:49:09.000Z</time>
      </trkpt>
      <trkpt lat="41.893942" lon="-2.216257">
        <ele>1237.6</ele>
        <time>2023-02-11T09:49:10.000Z</time>
      </trkpt>
      <trkpt lat="41.894021" lon="-2.216226">
        <ele>1237.8</ele>
        <time>2023-02-11T09:49:11.000Z</time>
      </trkpt>
      <trkpt lat="41.894103" lon="-2.216194">
        <ele>1237.8</ele>
        <time>2023-02-11T09:49:12.000Z</time>
      </trkpt>
      <trkpt lat="41.894189" lon="-2.216161">
        <ele>1237.8</ele>
        <time>2023-02-11T09:49:13.000Z</time>
      </trkpt>
      <trkpt lat="41.894279" lon="-2.216129">
        <ele>1237.8</ele>
        <time>2023-02-11T09:49:14.000Z</time>
      </trkpt>
      <trkpt lat="41.894368" lon="-2.216097">
        <ele>1237.8</ele>
        <time>2023-02-11T09:49:15.000Z</time>
      </trkpt>
      <trkpt lat="41.894461" lon="-2.216065">
        <ele>1237.8</ele>
        <time>2023-02-11T09:49:16.000Z</time>
      </trkpt>
      <trkpt lat="41.894556" lon="-2.216032">
        <ele>1237</ele>
        <time>2023-02-11T09:49:17.000Z</time>
      </trkpt>
      <trkpt lat="41.894654" lon="-2.215998">
        <ele>1236.8</ele>
        <time>2023-02-11T09:49:18.000Z</time>
      </trkpt>
      <trkpt lat="41.894754" lon="-2.215964">
        <ele>1236.4</ele>
        <time>2023-02-11T09:49:19.000Z</time>
      </trkpt>
      <trkpt lat="41.894855" lon="-2.215929">
        <ele>1236.2</ele>
        <time>2023-02-11T09:49:20.000Z</time>
      </trkpt>
      <trkpt lat="41.894957" lon="-2.215892">
        <ele>1235.8</ele>
        <time>2023-02-11T09:49:21.000Z</time>
      </trkpt>
      <trkpt lat="41.895061" lon="-2.215856">
        <ele>1235.2</ele>
        <time>2023-02-11T09:49:22.000Z</time>
      </trkpt>
      <trkpt lat="41.895167" lon="-2.215817">
        <ele>1234.4</ele>
        <time>2023-02-11T09:49:23.000Z</time>
      </trkpt>
      <trkpt lat="41.895276" lon="-2.215778">
        <ele>1234.2</ele>
        <time>2023-02-11T09:49:24.000Z</time>
      </trkpt>
      <trkpt lat="41.895385" lon="-2.215737">
        <ele>1233.8</ele>
        <time>2023-02-11T09:49:25.000Z</time>
      </trkpt>
      <trkpt lat="41.895496" lon="-2.215696">
        <ele>1233.4</ele>
        <time>2023-02-11T09:49:26.000Z</time>
      </trkpt>
      <trkpt lat="41.895606" lon="-2.215658">
        <ele>1232.8</ele>
        <time>2023-02-11T09:49:27.000Z</time>
      </trkpt>
      <trkpt lat="41.895713" lon="-2.215621">
        <ele>1231.8</ele>
        <time>2023-02-11T09:49:28.000Z</time>
      </trkpt>
      <trkpt lat="41.895819" lon="-2.215584">
        <ele>1231.4</ele>
        <time>2023-02-11T09:49:29.000Z</time>
      </trkpt>
      <trkpt lat="41.895924" lon="-2.215547">
        <ele>1230.6</ele>
        <time>2023-02-11T09:49:30.000Z</time>
      </trkpt>
      <trkpt lat="41.896027" lon="-2.215512">
        <ele>1230.2</ele>
        <time>2023-02-11T09:49:31.000Z</time>
      </trkpt>
      <trkpt lat="41.896131" lon="-2.215482">
        <ele>1229.4</ele>
        <time>2023-02-11T09:49:32.000Z</time>
      </trkpt>
      <trkpt lat="41.896235" lon="-2.215461">
        <ele>1229</ele>
        <time>2023-02-11T09:49:33.000Z</time>
      </trkpt>
      <trkpt lat="41.896347" lon="-2.215446">
        <ele>1228.6</ele>
        <time>2023-02-11T09:49:34.000Z</time>
      </trkpt>
      <trkpt lat="41.896462" lon="-2.215441">
        <ele>1228.4</ele>
        <time>2023-02-11T09:49:35.000Z</time>
      </trkpt>
      <trkpt lat="41.896574" lon="-2.215451">
        <ele>1228.2</ele>
        <time>2023-02-11T09:49:36.000Z</time>
      </trkpt>
      <trkpt lat="41.896689" lon="-2.215476">
        <ele>1227</ele>
        <time>2023-02-11T09:49:37.000Z</time>
      </trkpt>
      <trkpt lat="41.896805" lon="-2.215517">
        <ele>1226.4</ele>
        <time>2023-02-11T09:49:38.000Z</time>
      </trkpt>
      <trkpt lat="41.89692" lon="-2.215567">
        <ele>1225.4</ele>
        <time>2023-02-11T09:49:39.000Z</time>
      </trkpt>
      <trkpt lat="41.897033" lon="-2.215618">
        <ele>1225</ele>
        <time>2023-02-11T09:49:40.000Z</time>
      </trkpt>
      <trkpt lat="41.897143" lon="-2.215668">
        <ele>1224</ele>
        <time>2023-02-11T09:49:41.000Z</time>
      </trkpt>
      <trkpt lat="41.89725" lon="-2.21571">
        <ele>1223.6</ele>
        <time>2023-02-11T09:49:42.000Z</time>
      </trkpt>
      <trkpt lat="41.897352" lon="-2.215729">
        <ele>1222.6</ele>
        <time>2023-02-11T09:49:43.000Z</time>
      </trkpt>
      <trkpt lat="41.897449" lon="-2.215721">
        <ele>1221.6</ele>
        <time>2023-02-11T09:49:44.000Z</time>
      </trkpt>
      <trkpt lat="41.897531" lon="-2.215673">
        <ele>1221.4</ele>
        <time>2023-02-11T09:49:45.000Z</time>
      </trkpt>
      <trkpt lat="41.897592" lon="-2.21559">
        <ele>1220.6</ele>
        <time>2023-02-11T09:49:46.000Z</time>
      </trkpt>
      <trkpt lat="41.89763" lon="-2.215479">
        <ele>1219.4</ele>
        <time>2023-02-11T09:49:47.000Z</time>
      </trkpt>
      <trkpt lat="41.897625" lon="-2.215357">
        <ele>1218.2</ele>
        <time>2023-02-11T09:49:48.000Z</time>
      </trkpt>
      <trkpt lat="41.897604" lon="-2.215234">
        <ele>1217.8</ele>
        <time>2023-02-11T09:49:49.000Z</time>
      </trkpt>
      <trkpt lat="41.897578" lon="-2.215114">
        <ele>1217.2</ele>
        <time>2023-02-11T09:49:50.000Z</time>
      </trkpt>
      <trkpt lat="41.897551" lon="-2.214997">
        <ele>1216.8</ele>
        <time>2023-02-11T09:49:51.000Z</time>
      </trkpt>
      <trkpt lat="41.897525" lon="-2.214884">
        <ele>1216</ele>
        <time>2023-02-11T09:49:52.000Z</time>
      </trkpt>
      <trkpt lat="41.897501" lon="-2.214774">
        <ele>1215.6</ele>
        <time>2023-02-11T09:49:53.000Z</time>
      </trkpt>
      <trkpt lat="41.897478" lon="-2.214663">
        <ele>1215.4</ele>
        <time>2023-02-11T09:49:54.000Z</time>
      </trkpt>
      <trkpt lat="41.897456" lon="-2.214552">
        <ele>1215.4</ele>
        <time>2023-02-11T09:49:55.000Z</time>
      </trkpt>
      <trkpt lat="41.897431" lon="-2.214443">
        <ele>1215.4</ele>
        <time>2023-02-11T09:49:56.000Z</time>
      </trkpt>
      <trkpt lat="41.897407" lon="-2.214332">
        <ele>1215.4</ele>
        <time>2023-02-11T09:49:57.000Z</time>
      </trkpt>
      <trkpt lat="41.897388" lon="-2.214223">
        <ele>1215.4</ele>
        <time>2023-02-11T09:49:58.000Z</time>
      </trkpt>
      <trkpt lat="41.897369" lon="-2.214113">
        <ele>1215.4</ele>
        <time>2023-02-11T09:49:59.000Z</time>
      </trkpt>
      <trkpt lat="41.897348" lon="-2.214006">
        <ele>1215.4</ele>
        <time>2023-02-11T09:50:00.000Z</time>
      </trkpt>
      <trkpt lat="41.897323" lon="-2.213902">
        <ele>1215.6</ele>
        <time>2023-02-11T09:50:01.000Z</time>
      </trkpt>
      <trkpt lat="41.897293" lon="-2.213801">
        <ele>1215.8</ele>
        <time>2023-02-11T09:50:02.000Z</time>
      </trkpt>
      <trkpt lat="41.89726" lon="-2.213704">
        <ele>1216.4</ele>
        <time>2023-02-11T09:50:03.000Z</time>
      </trkpt>
      <trkpt lat="41.897223" lon="-2.213608">
        <ele>1217</ele>
        <time>2023-02-11T09:50:04.000Z</time>
      </trkpt>
      <trkpt lat="41.897173" lon="-2.213516">
        <ele>1217.4</ele>
        <time>2023-02-11T09:50:05.000Z</time>
      </trkpt>
      <trkpt lat="41.897115" lon="-2.213431">
        <ele>1218</ele>
        <time>2023-02-11T09:50:06.000Z</time>
      </trkpt>
      <trkpt lat="41.897055" lon="-2.213355">
        <ele>1218.4</ele>
        <time>2023-02-11T09:50:07.000Z</time>
      </trkpt>
      <trkpt lat="41.896991" lon="-2.213283">
        <ele>1219</ele>
        <time>2023-02-11T09:50:08.000Z</time>
      </trkpt>
      <trkpt lat="41.896925" lon="-2.213213">
        <ele>1219</ele>
        <time>2023-02-11T09:50:09.000Z</time>
      </trkpt>
      <trkpt lat="41.89686" lon="-2.213141">
        <ele>1219.4</ele>
        <time>2023-02-11T09:50:10.000Z</time>
      </trkpt>
      <trkpt lat="41.896793" lon="-2.213071">
        <ele>1219.6</ele>
        <time>2023-02-11T09:50:11.000Z</time>
      </trkpt>
      <trkpt lat="41.896725" lon="-2.213003">
        <ele>1220</ele>
        <time>2023-02-11T09:50:12.000Z</time>
      </trkpt>
      <trkpt lat="41.896657" lon="-2.212936">
        <ele>1220</ele>
        <time>2023-02-11T09:50:13.000Z</time>
      </trkpt>
      <trkpt lat="41.896588" lon="-2.212871">
        <ele>1220.2</ele>
        <time>2023-02-11T09:50:14.000Z</time>
      </trkpt>
      <trkpt lat="41.896517" lon="-2.212808">
        <ele>1220.2</ele>
        <time>2023-02-11T09:50:15.000Z</time>
      </trkpt>
      <trkpt lat="41.896446" lon="-2.21275">
        <ele>1220.2</ele>
        <time>2023-02-11T09:50:16.000Z</time>
      </trkpt>
      <trkpt lat="41.896373" lon="-2.2127">
        <ele>1220.2</ele>
        <time>2023-02-11T09:50:17.000Z</time>
      </trkpt>
      <trkpt lat="41.896296" lon="-2.212658">
        <ele>1220.2</ele>
        <time>2023-02-11T09:50:18.000Z</time>
      </trkpt>
      <trkpt lat="41.896217" lon="-2.212624">
        <ele>1220.2</ele>
        <time>2023-02-11T09:50:19.000Z</time>
      </trkpt>
      <trkpt lat="41.896138" lon="-2.212595">
        <ele>1220.2</ele>
        <time>2023-02-11T09:50:20.000Z</time>
      </trkpt>
      <trkpt lat="41.896059" lon="-2.212568">
        <ele>1220.2</ele>
        <time>2023-02-11T09:50:21.000Z</time>
      </trkpt>
      <trkpt lat="41.895982" lon="-2.212544">
        <ele>1220.2</ele>
        <time>2023-02-11T09:50:22.000Z</time>
      </trkpt>
      <trkpt lat="41.895905" lon="-2.21252">
        <ele>1220.2</ele>
        <time>2023-02-11T09:50:23.000Z</time>
      </trkpt>
      <trkpt lat="41.895829" lon="-2.212497">
        <ele>1220.2</ele>
        <time>2023-02-11T09:50:24.000Z</time>
      </trkpt>
      <trkpt lat="41.895753" lon="-2.212472">
        <ele>1220.2</ele>
        <time>2023-02-11T09:50:25.000Z</time>
      </trkpt>
      <trkpt lat="41.895679" lon="-2.212449">
        <ele>1220.2</ele>
        <time>2023-02-11T09:50:26.000Z</time>
      </trkpt>
      <trkpt lat="41.895606" lon="-2.212427">
        <ele>1220.4</ele>
        <time>2023-02-11T09:50:27.000Z</time>
      </trkpt>
      <trkpt lat="41.895533" lon="-2.212404">
        <ele>1220.4</ele>
        <time>2023-02-11T09:50:28.000Z</time>
      </trkpt>
      <trkpt lat="41.895461" lon="-2.212382">
        <ele>1220.4</ele>
        <time>2023-02-11T09:50:29.000Z</time>
      </trkpt>
      <trkpt lat="41.895391" lon="-2.212358">
        <ele>1220.4</ele>
        <time>2023-02-11T09:50:30.000Z</time>
      </trkpt>
      <trkpt lat="41.895323" lon="-2.21233">
        <ele>1220.6</ele>
        <time>2023-02-11T09:50:31.000Z</time>
      </trkpt>
      <trkpt lat="41.895255" lon="-2.212297">
        <ele>1220.8</ele>
        <time>2023-02-11T09:50:32.000Z</time>
      </trkpt>
      <trkpt lat="41.895187" lon="-2.212261">
        <ele>1221</ele>
        <time>2023-02-11T09:50:33.000Z</time>
      </trkpt>
      <trkpt lat="41.89512" lon="-2.212224">
        <ele>1221</ele>
        <time>2023-02-11T09:50:34.000Z</time>
      </trkpt>
      <trkpt lat="41.895053" lon="-2.212185">
        <ele>1221.2</ele>
        <time>2023-02-11T09:50:35.000Z</time>
      </trkpt>
      <trkpt lat="41.894988" lon="-2.212142">
        <ele>1221.2</ele>
        <time>2023-02-11T09:50:36.000Z</time>
      </trkpt>
      <trkpt lat="41.89492" lon="-2.212098">
        <ele>1221.2</ele>
        <time>2023-02-11T09:50:37.000Z</time>
      </trkpt>
      <trkpt lat="41.894853" lon="-2.212054">
        <ele>1221.2</ele>
        <time>2023-02-11T09:50:38.000Z</time>
      </trkpt>
      <trkpt lat="41.894786" lon="-2.212009">
        <ele>1221.2</ele>
        <time>2023-02-11T09:50:39.000Z</time>
      </trkpt>
      <trkpt lat="41.894715" lon="-2.211962">
        <ele>1221.2</ele>
        <time>2023-02-11T09:50:40.000Z</time>
      </trkpt>
      <trkpt lat="41.894644" lon="-2.211917">
        <ele>1221.2</ele>
        <time>2023-02-11T09:50:41.000Z</time>
      </trkpt>
      <trkpt lat="41.894572" lon="-2.21187">
        <ele>1221</ele>
        <time>2023-02-11T09:50:42.000Z</time>
      </trkpt>
      <trkpt lat="41.8945" lon="-2.211822">
        <ele>1221</ele>
        <time>2023-02-11T09:50:43.000Z</time>
      </trkpt>
      <trkpt lat="41.894428" lon="-2.211773">
        <ele>1221</ele>
        <time>2023-02-11T09:50:44.000Z</time>
      </trkpt>
      <trkpt lat="41.894355" lon="-2.211723">
        <ele>1220.8</ele>
        <time>2023-02-11T09:50:45.000Z</time>
      </trkpt>
      <trkpt lat="41.894282" lon="-2.211673">
        <ele>1220.8</ele>
        <time>2023-02-11T09:50:46.000Z</time>
      </trkpt>
      <trkpt lat="41.894209" lon="-2.211624">
        <ele>1220.8</ele>
        <time>2023-02-11T09:50:47.000Z</time>
      </trkpt>
      <trkpt lat="41.894134" lon="-2.211576">
        <ele>1220.6</ele>
        <time>2023-02-11T09:50:48.000Z</time>
      </trkpt>
      <trkpt lat="41.894059" lon="-2.211525">
        <ele>1220.4</ele>
        <time>2023-02-11T09:50:49.000Z</time>
      </trkpt>
      <trkpt lat="41.893983" lon="-2.211474">
        <ele>1220.2</ele>
        <time>2023-02-11T09:50:50.000Z</time>
      </trkpt>
      <trkpt lat="41.893907" lon="-2.211421">
        <ele>1220</ele>
        <time>2023-02-11T09:50:51.000Z</time>
      </trkpt>
      <trkpt lat="41.893835" lon="-2.211361">
        <ele>1219.8</ele>
        <time>2023-02-11T09:50:52.000Z</time>
      </trkpt>
      <trkpt lat="41.893765" lon="-2.211296">
        <ele>1219.8</ele>
        <time>2023-02-11T09:50:53.000Z</time>
      </trkpt>
      <trkpt lat="41.893699" lon="-2.211224">
        <ele>1219.6</ele>
        <time>2023-02-11T09:50:54.000Z</time>
      </trkpt>
      <trkpt lat="41.893635" lon="-2.211144">
        <ele>1219.6</ele>
        <time>2023-02-11T09:50:55.000Z</time>
      </trkpt>
      <trkpt lat="41.893575" lon="-2.211058">
        <ele>1219.4</ele>
        <time>2023-02-11T09:50:56.000Z</time>
      </trkpt>
      <trkpt lat="41.893511" lon="-2.21097">
        <ele>1219.2</ele>
        <time>2023-02-11T09:50:57.000Z</time>
      </trkpt>
      <trkpt lat="41.893445" lon="-2.21088">
        <ele>1219.2</ele>
        <time>2023-02-11T09:50:58.000Z</time>
      </trkpt>
      <trkpt lat="41.893376" lon="-2.210788">
        <ele>1219</ele>
        <time>2023-02-11T09:50:59.000Z</time>
      </trkpt>
      <trkpt lat="41.893305" lon="-2.210694">
        <ele>1218.8</ele>
        <time>2023-02-11T09:51:00.000Z</time>
      </trkpt>
      <trkpt lat="41.893233" lon="-2.210597">
        <ele>1218.8</ele>
        <time>2023-02-11T09:51:01.000Z</time>
      </trkpt>
      <trkpt lat="41.893159" lon="-2.210497">
        <ele>1218.6</ele>
        <time>2023-02-11T09:51:02.000Z</time>
      </trkpt>
      <trkpt lat="41.893086" lon="-2.210396">
        <ele>1218.6</ele>
        <time>2023-02-11T09:51:03.000Z</time>
      </trkpt>
      <trkpt lat="41.893013" lon="-2.210294">
        <ele>1218</ele>
        <time>2023-02-11T09:51:04.000Z</time>
      </trkpt>
      <trkpt lat="41.89294" lon="-2.210191">
        <ele>1217.8</ele>
        <time>2023-02-11T09:51:05.000Z</time>
      </trkpt>
      <trkpt lat="41.892868" lon="-2.210088">
        <ele>1217.2</ele>
        <time>2023-02-11T09:51:06.000Z</time>
      </trkpt>
      <trkpt lat="41.892795" lon="-2.209985">
        <ele>1217</ele>
        <time>2023-02-11T09:51:07.000Z</time>
      </trkpt>
      <trkpt lat="41.892721" lon="-2.20988">
        <ele>1216.4</ele>
        <time>2023-02-11T09:51:08.000Z</time>
      </trkpt>
      <trkpt lat="41.892657" lon="-2.209768">
        <ele>1216</ele>
        <time>2023-02-11T09:51:09.000Z</time>
      </trkpt>
      <trkpt lat="41.89261" lon="-2.209642">
        <ele>1215.8</ele>
        <time>2023-02-11T09:51:10.000Z</time>
      </trkpt>
      <trkpt lat="41.89259" lon="-2.209502">
        <ele>1215.2</ele>
        <time>2023-02-11T09:51:11.000Z</time>
      </trkpt>
      <trkpt lat="41.892597" lon="-2.209357">
        <ele>1214.8</ele>
        <time>2023-02-11T09:51:12.000Z</time>
      </trkpt>
      <trkpt lat="41.89263" lon="-2.209221">
        <ele>1214.4</ele>
        <time>2023-02-11T09:51:13.000Z</time>
      </trkpt>
      <trkpt lat="41.892688" lon="-2.209106">
        <ele>1214</ele>
        <time>2023-02-11T09:51:14.000Z</time>
      </trkpt>
      <trkpt lat="41.892773" lon="-2.209023">
        <ele>1213.8</ele>
        <time>2023-02-11T09:51:15.000Z</time>
      </trkpt>
      <trkpt lat="41.892882" lon="-2.208981">
        <ele>1213.6</ele>
        <time>2023-02-11T09:51:16.000Z</time>
      </trkpt>
      <trkpt lat="41.892997" lon="-2.208957">
        <ele>1213.4</ele>
        <time>2023-02-11T09:51:17.000Z</time>
      </trkpt>
      <trkpt lat="41.893115" lon="-2.208945">
        <ele>1213.2</ele>
        <time>2023-02-11T09:51:18.000Z</time>
      </trkpt>
      <trkpt lat="41.893234" lon="-2.208936">
        <ele>1212.6</ele>
        <time>2023-02-11T09:51:19.000Z</time>
      </trkpt>
      <trkpt lat="41.893354" lon="-2.208928">
        <ele>1212</ele>
        <time>2023-02-11T09:51:20.000Z</time>
      </trkpt>
      <trkpt lat="41.893476" lon="-2.208916">
        <ele>1211.8</ele>
        <time>2023-02-11T09:51:21.000Z</time>
      </trkpt>
      <trkpt lat="41.893599" lon="-2.208905">
        <ele>1211</ele>
        <time>2023-02-11T09:51:22.000Z</time>
      </trkpt>
      <trkpt lat="41.893724" lon="-2.208892">
        <ele>1210.6</ele>
        <time>2023-02-11T09:51:23.000Z</time>
      </trkpt>
      <trkpt lat="41.893848" lon="-2.20888">
        <ele>1209.8</ele>
        <time>2023-02-11T09:51:24.000Z</time>
      </trkpt>
      <trkpt lat="41.893973" lon="-2.208864">
        <ele>1209.4</ele>
        <time>2023-02-11T09:51:25.000Z</time>
      </trkpt>
      <trkpt lat="41.894099" lon="-2.20885">
        <ele>1208.6</ele>
        <time>2023-02-11T09:51:26.000Z</time>
      </trkpt>
      <trkpt lat="41.894225" lon="-2.208839">
        <ele>1208.2</ele>
        <time>2023-02-11T09:51:27.000Z</time>
      </trkpt>
      <trkpt lat="41.894354" lon="-2.208825">
        <ele>1207.6</ele>
        <time>2023-02-11T09:51:28.000Z</time>
      </trkpt>
      <trkpt lat="41.894483" lon="-2.208812">
        <ele>1206.8</ele>
        <time>2023-02-11T09:51:29.000Z</time>
      </trkpt>
      <trkpt lat="41.894614" lon="-2.208798">
        <ele>1206.2</ele>
        <time>2023-02-11T09:51:30.000Z</time>
      </trkpt>
      <trkpt lat="41.894743" lon="-2.208796">
        <ele>1205.4</ele>
        <time>2023-02-11T09:51:31.000Z</time>
      </trkpt>
      <trkpt lat="41.894873" lon="-2.208808">
        <ele>1205.2</ele>
        <time>2023-02-11T09:51:32.000Z</time>
      </trkpt>
      <trkpt lat="41.895003" lon="-2.208841">
        <ele>1204.8</ele>
        <time>2023-02-11T09:51:33.000Z</time>
      </trkpt>
      <trkpt lat="41.895128" lon="-2.208893">
        <ele>1204.4</ele>
        <time>2023-02-11T09:51:34.000Z</time>
      </trkpt>
      <trkpt lat="41.895249" lon="-2.208956">
        <ele>1203.8</ele>
        <time>2023-02-11T09:51:35.000Z</time>
      </trkpt>
      <trkpt lat="41.89537" lon="-2.209025">
        <ele>1203.4</ele>
        <time>2023-02-11T09:51:36.000Z</time>
      </trkpt>
      <trkpt lat="41.89549" lon="-2.209095">
        <ele>1202.8</ele>
        <time>2023-02-11T09:51:37.000Z</time>
      </trkpt>
      <trkpt lat="41.895612" lon="-2.209167">
        <ele>1202.4</ele>
        <time>2023-02-11T09:51:38.000Z</time>
      </trkpt>
      <trkpt lat="41.895733" lon="-2.209236">
        <ele>1201.2</ele>
        <time>2023-02-11T09:51:39.000Z</time>
      </trkpt>
      <trkpt lat="41.895853" lon="-2.209291">
        <ele>1200.2</ele>
        <time>2023-02-11T09:51:40.000Z</time>
      </trkpt>
      <trkpt lat="41.895968" lon="-2.209311">
        <ele>1199.8</ele>
        <time>2023-02-11T09:51:41.000Z</time>
      </trkpt>
      <trkpt lat="41.896074" lon="-2.209271">
        <ele>1198.8</ele>
        <time>2023-02-11T09:51:42.000Z</time>
      </trkpt>
      <trkpt lat="41.89617" lon="-2.209184">
        <ele>1198.2</ele>
        <time>2023-02-11T09:51:43.000Z</time>
      </trkpt>
      <trkpt lat="41.896249" lon="-2.209068">
        <ele>1197.6</ele>
        <time>2023-02-11T09:51:44.000Z</time>
      </trkpt>
      <trkpt lat="41.896312" lon="-2.208936">
        <ele>1197</ele>
        <time>2023-02-11T09:51:45.000Z</time>
      </trkpt>
      <trkpt lat="41.896353" lon="-2.208795">
        <ele>1196.4</ele>
        <time>2023-02-11T09:51:46.000Z</time>
      </trkpt>
      <trkpt lat="41.896358" lon="-2.208645">
        <ele>1196</ele>
        <time>2023-02-11T09:51:47.000Z</time>
      </trkpt>
      <trkpt lat="41.896332" lon="-2.208502">
        <ele>1195.2</ele>
        <time>2023-02-11T09:51:48.000Z</time>
      </trkpt>
      <trkpt lat="41.896288" lon="-2.208371">
        <ele>1194.8</ele>
        <time>2023-02-11T09:51:49.000Z</time>
      </trkpt>
      <trkpt lat="41.896237" lon="-2.208252">
        <ele>1194.6</ele>
        <time>2023-02-11T09:51:50.000Z</time>
      </trkpt>
      <trkpt lat="41.896187" lon="-2.208139">
        <ele>1194.4</ele>
        <time>2023-02-11T09:51:51.000Z</time>
      </trkpt>
      <trkpt lat="41.896144" lon="-2.208033">
        <ele>1194.4</ele>
        <time>2023-02-11T09:51:52.000Z</time>
      </trkpt>
      <trkpt lat="41.896101" lon="-2.207927">
        <ele>1194.4</ele>
        <time>2023-02-11T09:51:53.000Z</time>
      </trkpt>
      <trkpt lat="41.89606" lon="-2.207826">
        <ele>1194.4</ele>
        <time>2023-02-11T09:51:54.000Z</time>
      </trkpt>
      <trkpt lat="41.89602" lon="-2.207731">
        <ele>1194.4</ele>
        <time>2023-02-11T09:51:55.000Z</time>
      </trkpt>
      <trkpt lat="41.895981" lon="-2.20764">
        <ele>1194.4</ele>
        <time>2023-02-11T09:51:56.000Z</time>
      </trkpt>
      <trkpt lat="41.895943" lon="-2.20755">
        <ele>1194.6</ele>
        <time>2023-02-11T09:51:57.000Z</time>
      </trkpt>
      <trkpt lat="41.895907" lon="-2.207465">
        <ele>1194.8</ele>
        <time>2023-02-11T09:51:58.000Z</time>
      </trkpt>
      <trkpt lat="41.895873" lon="-2.207381">
        <ele>1194.8</ele>
        <time>2023-02-11T09:51:59.000Z</time>
      </trkpt>
      <trkpt lat="41.895838" lon="-2.2073">
        <ele>1195</ele>
        <time>2023-02-11T09:52:00.000Z</time>
      </trkpt>
      <trkpt lat="41.895803" lon="-2.20722">
        <ele>1195.2</ele>
        <time>2023-02-11T09:52:01.000Z</time>
      </trkpt>
      <trkpt lat="41.895769" lon="-2.207143">
        <ele>1195.4</ele>
        <time>2023-02-11T09:52:02.000Z</time>
      </trkpt>
      <trkpt lat="41.895737" lon="-2.207067">
        <ele>1195.6</ele>
        <time>2023-02-11T09:52:03.000Z</time>
      </trkpt>
      <trkpt lat="41.895706" lon="-2.20699">
        <ele>1195.8</ele>
        <time>2023-02-11T09:52:04.000Z</time>
      </trkpt>
      <trkpt lat="41.895676" lon="-2.206917">
        <ele>1196</ele>
        <time>2023-02-11T09:52:05.000Z</time>
      </trkpt>
      <trkpt lat="41.895647" lon="-2.206845">
        <ele>1196.2</ele>
        <time>2023-02-11T09:52:06.000Z</time>
      </trkpt>
      <trkpt lat="41.895619" lon="-2.206775">
        <ele>1196.4</ele>
        <time>2023-02-11T09:52:07.000Z</time>
      </trkpt>
      <trkpt lat="41.895591" lon="-2.206708">
        <ele>1196.4</ele>
        <time>2023-02-11T09:52:08.000Z</time>
      </trkpt>
      <trkpt lat="41.895566" lon="-2.206641">
        <ele>1196.8</ele>
        <time>2023-02-11T09:52:09.000Z</time>
      </trkpt>
      <trkpt lat="41.89554" lon="-2.206575">
        <ele>1197</ele>
        <time>2023-02-11T09:52:10.000Z</time>
      </trkpt>
      <trkpt lat="41.895519" lon="-2.206507">
        <ele>1197.4</ele>
        <time>2023-02-11T09:52:11.000Z</time>
      </trkpt>
      <trkpt lat="41.895503" lon="-2.206439">
        <ele>1197.4</ele>
        <time>2023-02-11T09:52:12.000Z</time>
      </trkpt>
      <trkpt lat="41.895496" lon="-2.206367">
        <ele>1197.6</ele>
        <time>2023-02-11T09:52:13.000Z</time>
      </trkpt>
      <trkpt lat="41.895489" lon="-2.206295">
        <ele>1197.8</ele>
        <time>2023-02-11T09:52:14.000Z</time>
      </trkpt>
      <trkpt lat="41.895491" lon="-2.206219">
        <ele>1198.2</ele>
        <time>2023-02-11T09:52:15.000Z</time>
      </trkpt>
      <trkpt lat="41.895497" lon="-2.206144">
        <ele>1198.6</ele>
        <time>2023-02-11T09:52:16.000Z</time>
      </trkpt>
      <trkpt lat="41.895508" lon="-2.206068">
        <ele>1198.6</ele>
        <time>2023-02-11T09:52:17.000Z</time>
      </trkpt>
      <trkpt lat="41.895522" lon="-2.205992">
        <ele>1198.8</ele>
        <time>2023-02-11T09:52:18.000Z</time>
      </trkpt>
      <trkpt lat="41.895537" lon="-2.205914">
        <ele>1198.8</ele>
        <time>2023-02-11T09:52:19.000Z</time>
      </trkpt>
      <trkpt lat="41.895554" lon="-2.205836">
        <ele>1199</ele>
        <time>2023-02-11T09:52:20.000Z</time>
      </trkpt>
      <trkpt lat="41.895573" lon="-2.205756">
        <ele>1199.2</ele>
        <time>2023-02-11T09:52:21.000Z</time>
      </trkpt>
      <trkpt lat="41.895594" lon="-2.205677">
        <ele>1199.6</ele>
        <time>2023-02-11T09:52:22.000Z</time>
      </trkpt>
      <trkpt lat="41.895617" lon="-2.205596">
        <ele>1199.8</ele>
        <time>2023-02-11T09:52:23.000Z</time>
      </trkpt>
      <trkpt lat="41.895642" lon="-2.205514">
        <ele>1200</ele>
        <time>2023-02-11T09:52:24.000Z</time>
      </trkpt>
      <trkpt lat="41.895669" lon="-2.205432">
        <ele>1200</ele>
        <time>2023-02-11T09:52:25.000Z</time>
      </trkpt>
      <trkpt lat="41.895697" lon="-2.205348">
        <ele>1200.2</ele>
        <time>2023-02-11T09:52:26.000Z</time>
      </trkpt>
      <trkpt lat="41.895726" lon="-2.205261">
        <ele>1200.2</ele>
        <time>2023-02-11T09:52:27.000Z</time>
      </trkpt>
      <trkpt lat="41.895759" lon="-2.205173">
        <ele>1200.4</ele>
        <time>2023-02-11T09:52:28.000Z</time>
      </trkpt>
      <trkpt lat="41.895797" lon="-2.205083">
        <ele>1200.4</ele>
        <time>2023-02-11T09:52:29.000Z</time>
      </trkpt>
      <trkpt lat="41.895837" lon="-2.204992">
        <ele>1200.6</ele>
        <time>2023-02-11T09:52:30.000Z</time>
      </trkpt>
      <trkpt lat="41.895879" lon="-2.204896">
        <ele>1200.8</ele>
        <time>2023-02-11T09:52:31.000Z</time>
      </trkpt>
      <trkpt lat="41.895925" lon="-2.204796">
        <ele>1200.8</ele>
        <time>2023-02-11T09:52:32.000Z</time>
      </trkpt>
      <trkpt lat="41.895974" lon="-2.204693">
        <ele>1200.8</ele>
        <time>2023-02-11T09:52:33.000Z</time>
      </trkpt>
      <trkpt lat="41.896023" lon="-2.204588">
        <ele>1200.8</ele>
        <time>2023-02-11T09:52:34.000Z</time>
      </trkpt>
      <trkpt lat="41.896074" lon="-2.20448">
        <ele>1200.8</ele>
        <time>2023-02-11T09:52:35.000Z</time>
      </trkpt>
      <trkpt lat="41.896124" lon="-2.204369">
        <ele>1200.6</ele>
        <time>2023-02-11T09:52:36.000Z</time>
      </trkpt>
      <trkpt lat="41.896174" lon="-2.204258">
        <ele>1200.6</ele>
        <time>2023-02-11T09:52:37.000Z</time>
      </trkpt>
      <trkpt lat="41.896225" lon="-2.204146">
        <ele>1200</ele>
        <time>2023-02-11T09:52:38.000Z</time>
      </trkpt>
      <trkpt lat="41.896279" lon="-2.204032">
        <ele>1200</ele>
        <time>2023-02-11T09:52:39.000Z</time>
      </trkpt>
      <trkpt lat="41.896335" lon="-2.203917">
        <ele>1199.4</ele>
        <time>2023-02-11T09:52:40.000Z</time>
      </trkpt>
      <trkpt lat="41.896393" lon="-2.2038">
        <ele>1199.2</ele>
        <time>2023-02-11T09:52:41.000Z</time>
      </trkpt>
      <trkpt lat="41.89645" lon="-2.203682">
        <ele>1198.8</ele>
        <time>2023-02-11T09:52:42.000Z</time>
      </trkpt>
      <trkpt lat="41.896507" lon="-2.203561">
        <ele>1198.6</ele>
        <time>2023-02-11T09:52:43.000Z</time>
      </trkpt>
      <trkpt lat="41.896565" lon="-2.203438">
        <ele>1198.2</ele>
        <time>2023-02-11T09:52:44.000Z</time>
      </trkpt>
      <trkpt lat="41.896626" lon="-2.203315">
        <ele>1197.8</ele>
        <time>2023-02-11T09:52:45.000Z</time>
      </trkpt>
      <trkpt lat="41.896689" lon="-2.203195">
        <ele>1197.2</ele>
        <time>2023-02-11T09:52:46.000Z</time>
      </trkpt>
      <trkpt lat="41.896758" lon="-2.203078">
        <ele>1196.8</ele>
        <time>2023-02-11T09:52:47.000Z</time>
      </trkpt>
      <trkpt lat="41.896838" lon="-2.202962">
        <ele>1196.6</ele>
        <time>2023-02-11T09:52:48.000Z</time>
      </trkpt>
      <trkpt lat="41.896919" lon="-2.202853">
        <ele>1196</ele>
        <time>2023-02-11T09:52:49.000Z</time>
      </trkpt>
      <trkpt lat="41.897001" lon="-2.20275">
        <ele>1195.8</ele>
        <time>2023-02-11T09:52:50.000Z</time>
      </trkpt>
      <trkpt lat="41.897087" lon="-2.202642">
        <ele>1195.6</ele>
        <time>2023-02-11T09:52:51.000Z</time>
      </trkpt>
      <trkpt lat="41.897173" lon="-2.202536">
        <ele>1195.4</ele>
        <time>2023-02-11T09:52:52.000Z</time>
      </trkpt>
      <trkpt lat="41.897261" lon="-2.202427">
        <ele>1194.8</ele>
        <time>2023-02-11T09:52:53.000Z</time>
      </trkpt>
      <trkpt lat="41.897346" lon="-2.202312">
        <ele>1194.4</ele>
        <time>2023-02-11T09:52:54.000Z</time>
      </trkpt>
      <trkpt lat="41.897434" lon="-2.202189">
        <ele>1194.2</ele>
        <time>2023-02-11T09:52:55.000Z</time>
      </trkpt>
      <trkpt lat="41.897522" lon="-2.202059">
        <ele>1193.4</ele>
        <time>2023-02-11T09:52:56.000Z</time>
      </trkpt>
      <trkpt lat="41.897608" lon="-2.20192">
        <ele>1193</ele>
        <time>2023-02-11T09:52:57.000Z</time>
      </trkpt>
      <trkpt lat="41.897693" lon="-2.201774">
        <ele>1192.2</ele>
        <time>2023-02-11T09:52:58.000Z</time>
      </trkpt>
      <trkpt lat="41.897779" lon="-2.201623">
        <ele>1191.8</ele>
        <time>2023-02-11T09:52:59.000Z</time>
      </trkpt>
      <trkpt lat="41.897866" lon="-2.201468">
        <ele>1190.8</ele>
        <time>2023-02-11T09:53:00.000Z</time>
      </trkpt>
      <trkpt lat="41.897953" lon="-2.201311">
        <ele>1190.4</ele>
        <time>2023-02-11T09:53:01.000Z</time>
      </trkpt>
      <trkpt lat="41.898038" lon="-2.201148">
        <ele>1189.6</ele>
        <time>2023-02-11T09:53:02.000Z</time>
      </trkpt>
      <trkpt lat="41.898128" lon="-2.200982">
        <ele>1188.4</ele>
        <time>2023-02-11T09:53:03.000Z</time>
      </trkpt>
      <trkpt lat="41.898223" lon="-2.200814">
        <ele>1188</ele>
        <time>2023-02-11T09:53:04.000Z</time>
      </trkpt>
      <trkpt lat="41.89832" lon="-2.200645">
        <ele>1186.6</ele>
        <time>2023-02-11T09:53:05.000Z</time>
      </trkpt>
      <trkpt lat="41.898421" lon="-2.200475">
        <ele>1186</ele>
        <time>2023-02-11T09:53:06.000Z</time>
      </trkpt>
      <trkpt lat="41.898522" lon="-2.200299">
        <ele>1184.2</ele>
        <time>2023-02-11T09:53:07.000Z</time>
      </trkpt>
      <trkpt lat="41.898623" lon="-2.20012">
        <ele>1183.6</ele>
        <time>2023-02-11T09:53:08.000Z</time>
      </trkpt>
      <trkpt lat="41.898726" lon="-2.199938">
        <ele>1182</ele>
        <time>2023-02-11T09:53:09.000Z</time>
      </trkpt>
      <trkpt lat="41.898829" lon="-2.199752">
        <ele>1181.4</ele>
        <time>2023-02-11T09:53:10.000Z</time>
      </trkpt>
      <trkpt lat="41.898928" lon="-2.199558">
        <ele>1179.4</ele>
        <time>2023-02-11T09:53:11.000Z</time>
      </trkpt>
      <trkpt lat="41.899016" lon="-2.199357">
        <ele>1178.6</ele>
        <time>2023-02-11T09:53:12.000Z</time>
      </trkpt>
      <trkpt lat="41.899097" lon="-2.199149">
        <ele>1177.2</ele>
        <time>2023-02-11T09:53:13.000Z</time>
      </trkpt>
      <trkpt lat="41.899171" lon="-2.19894">
        <ele>1175</ele>
        <time>2023-02-11T09:53:14.000Z</time>
      </trkpt>
      <trkpt lat="41.89924" lon="-2.198727">
        <ele>1174.2</ele>
        <time>2023-02-11T09:53:15.000Z</time>
      </trkpt>
      <trkpt lat="41.899296" lon="-2.198509">
        <ele>1172.2</ele>
        <time>2023-02-11T09:53:16.000Z</time>
      </trkpt>
      <trkpt lat="41.899343" lon="-2.198286">
        <ele>1171.6</ele>
        <time>2023-02-11T09:53:17.000Z</time>
      </trkpt>
      <trkpt lat="41.899376" lon="-2.198055">
        <ele>1169.8</ele>
        <time>2023-02-11T09:53:18.000Z</time>
      </trkpt>
      <trkpt lat="41.899395" lon="-2.197818">
        <ele>1169</ele>
        <time>2023-02-11T09:53:19.000Z</time>
      </trkpt>
      <trkpt lat="41.89941" lon="-2.197577">
        <ele>1167</ele>
        <time>2023-02-11T09:53:20.000Z</time>
      </trkpt>
      <trkpt lat="41.899421" lon="-2.197334">
        <ele>1166.4</ele>
        <time>2023-02-11T09:53:21.000Z</time>
      </trkpt>
      <trkpt lat="41.899428" lon="-2.197088">
        <ele>1164.8</ele>
        <time>2023-02-11T09:53:22.000Z</time>
      </trkpt>
      <trkpt lat="41.899426" lon="-2.196853">
        <ele>1162.4</ele>
        <time>2023-02-11T09:53:23.000Z</time>
      </trkpt>
      <trkpt lat="41.899411" lon="-2.196628">
        <ele>1161.4</ele>
        <time>2023-02-11T09:53:24.000Z</time>
      </trkpt>
      <trkpt lat="41.899375" lon="-2.196421">
        <ele>1159.2</ele>
        <time>2023-02-11T09:53:25.000Z</time>
      </trkpt>
      <trkpt lat="41.899326" lon="-2.196215">
        <ele>1158.4</ele>
        <time>2023-02-11T09:53:26.000Z</time>
      </trkpt>
      <trkpt lat="41.899267" lon="-2.196023">
        <ele>1156.8</ele>
        <time>2023-02-11T09:53:27.000Z</time>
      </trkpt>
      <trkpt lat="41.899208" lon="-2.195838">
        <ele>1156.2</ele>
        <time>2023-02-11T09:53:28.000Z</time>
      </trkpt>
      <trkpt lat="41.899152" lon="-2.195661">
        <ele>1155.2</ele>
        <time>2023-02-11T09:53:29.000Z</time>
      </trkpt>
      <trkpt lat="41.899099" lon="-2.195493">
        <ele>1154.6</ele>
        <time>2023-02-11T09:53:30.000Z</time>
      </trkpt>
      <trkpt lat="41.89905" lon="-2.195332">
        <ele>1154</ele>
        <time>2023-02-11T09:53:31.000Z</time>
      </trkpt>
      <trkpt lat="41.899003" lon="-2.195177">
        <ele>1153.8</ele>
        <time>2023-02-11T09:53:32.000Z</time>
      </trkpt>
      <trkpt lat="41.898962" lon="-2.195024">
        <ele>1153.8</ele>
        <time>2023-02-11T09:53:33.000Z</time>
      </trkpt>
      <trkpt lat="41.898927" lon="-2.194871">
        <ele>1153.8</ele>
        <time>2023-02-11T09:53:34.000Z</time>
      </trkpt>
      <trkpt lat="41.898896" lon="-2.194717">
        <ele>1153.8</ele>
        <time>2023-02-11T09:53:35.000Z</time>
      </trkpt>
      <trkpt lat="41.898867" lon="-2.194566">
        <ele>1153.8</ele>
        <time>2023-02-11T09:53:36.000Z</time>
      </trkpt>
      <trkpt lat="41.898838" lon="-2.194417">
        <ele>1153.8</ele>
        <time>2023-02-11T09:53:37.000Z</time>
      </trkpt>
      <trkpt lat="41.89881" lon="-2.194271">
        <ele>1154</ele>
        <time>2023-02-11T09:53:38.000Z</time>
      </trkpt>
      <trkpt lat="41.898779" lon="-2.194127">
        <ele>1154</ele>
        <time>2023-02-11T09:53:39.000Z</time>
      </trkpt>
      <trkpt lat="41.898747" lon="-2.193986">
        <ele>1154.2</ele>
        <time>2023-02-11T09:53:40.000Z</time>
      </trkpt>
      <trkpt lat="41.898713" lon="-2.193847">
        <ele>1154.4</ele>
        <time>2023-02-11T09:53:41.000Z</time>
      </trkpt>
      <trkpt lat="41.898674" lon="-2.193711">
        <ele>1154.4</ele>
        <time>2023-02-11T09:53:42.000Z</time>
      </trkpt>
      <trkpt lat="41.898632" lon="-2.193574">
        <ele>1154.4</ele>
        <time>2023-02-11T09:53:43.000Z</time>
      </trkpt>
      <trkpt lat="41.898591" lon="-2.193435">
        <ele>1154.4</ele>
        <time>2023-02-11T09:53:44.000Z</time>
      </trkpt>
      <trkpt lat="41.898548" lon="-2.193294">
        <ele>1154.6</ele>
        <time>2023-02-11T09:53:45.000Z</time>
      </trkpt>
      <trkpt lat="41.898503" lon="-2.193155">
        <ele>1154.6</ele>
        <time>2023-02-11T09:53:46.000Z</time>
      </trkpt>
      <trkpt lat="41.898459" lon="-2.193014">
        <ele>1154.6</ele>
        <time>2023-02-11T09:53:47.000Z</time>
      </trkpt>
      <trkpt lat="41.898419" lon="-2.192872">
        <ele>1154.6</ele>
        <time>2023-02-11T09:53:48.000Z</time>
      </trkpt>
      <trkpt lat="41.898382" lon="-2.192726">
        <ele>1154.4</ele>
        <time>2023-02-11T09:53:49.000Z</time>
      </trkpt>
      <trkpt lat="41.898348" lon="-2.192576">
        <ele>1154.2</ele>
        <time>2023-02-11T09:53:50.000Z</time>
      </trkpt>
      <trkpt lat="41.898319" lon="-2.192428">
        <ele>1154.2</ele>
        <time>2023-02-11T09:53:51.000Z</time>
      </trkpt>
      <trkpt lat="41.898291" lon="-2.192278">
        <ele>1153.6</ele>
        <time>2023-02-11T09:53:52.000Z</time>
      </trkpt>
      <trkpt lat="41.898263" lon="-2.192129">
        <ele>1153.2</ele>
        <time>2023-02-11T09:53:53.000Z</time>
      </trkpt>
      <trkpt lat="41.898237" lon="-2.191979">
        <ele>1153</ele>
        <time>2023-02-11T09:53:54.000Z</time>
      </trkpt>
      <trkpt lat="41.898213" lon="-2.191828">
        <ele>1153</ele>
        <time>2023-02-11T09:53:55.000Z</time>
      </trkpt>
      <trkpt lat="41.898189" lon="-2.191676">
        <ele>1152.4</ele>
        <time>2023-02-11T09:53:56.000Z</time>
      </trkpt>
      <trkpt lat="41.898163" lon="-2.191524">
        <ele>1152</ele>
        <time>2023-02-11T09:53:57.000Z</time>
      </trkpt>
      <trkpt lat="41.89814" lon="-2.191372">
        <ele>1151.4</ele>
        <time>2023-02-11T09:53:58.000Z</time>
      </trkpt>
      <trkpt lat="41.898119" lon="-2.191217">
        <ele>1150.8</ele>
        <time>2023-02-11T09:53:59.000Z</time>
      </trkpt>
      <trkpt lat="41.898097" lon="-2.191062">
        <ele>1150.4</ele>
        <time>2023-02-11T09:54:00.000Z</time>
      </trkpt>
      <trkpt lat="41.898072" lon="-2.190907">
        <ele>1150</ele>
        <time>2023-02-11T09:54:01.000Z</time>
      </trkpt>
      <trkpt lat="41.898046" lon="-2.19075">
        <ele>1150</ele>
        <time>2023-02-11T09:54:02.000Z</time>
      </trkpt>
      <trkpt lat="41.898019" lon="-2.190592">
        <ele>1149.4</ele>
        <time>2023-02-11T09:54:03.000Z</time>
      </trkpt>
      <trkpt lat="41.897992" lon="-2.190433">
        <ele>1149</ele>
        <time>2023-02-11T09:54:04.000Z</time>
      </trkpt>
      <trkpt lat="41.897962" lon="-2.190273">
        <ele>1148.4</ele>
        <time>2023-02-11T09:54:05.000Z</time>
      </trkpt>
      <trkpt lat="41.897937" lon="-2.19011">
        <ele>1148.2</ele>
        <time>2023-02-11T09:54:06.000Z</time>
      </trkpt>
      <trkpt lat="41.897911" lon="-2.189947">
        <ele>1147.6</ele>
        <time>2023-02-11T09:54:07.000Z</time>
      </trkpt>
      <trkpt lat="41.897884" lon="-2.189785">
        <ele>1147.4</ele>
        <time>2023-02-11T09:54:08.000Z</time>
      </trkpt>
      <trkpt lat="41.897858" lon="-2.189623">
        <ele>1146.4</ele>
        <time>2023-02-11T09:54:09.000Z</time>
      </trkpt>
      <trkpt lat="41.89783" lon="-2.18946">
        <ele>1145.6</ele>
        <time>2023-02-11T09:54:10.000Z</time>
      </trkpt>
      <trkpt lat="41.8978" lon="-2.189296">
        <ele>1145</ele>
        <time>2023-02-11T09:54:11.000Z</time>
      </trkpt>
      <trkpt lat="41.897768" lon="-2.189133">
        <ele>1144.4</ele>
        <time>2023-02-11T09:54:12.000Z</time>
      </trkpt>
      <trkpt lat="41.897731" lon="-2.188969">
        <ele>1144</ele>
        <time>2023-02-11T09:54:13.000Z</time>
      </trkpt>
      <trkpt lat="41.897693" lon="-2.188802">
        <ele>1143</ele>
        <time>2023-02-11T09:54:14.000Z</time>
      </trkpt>
      <trkpt lat="41.897657" lon="-2.18863">
        <ele>1142.8</ele>
        <time>2023-02-11T09:54:15.000Z</time>
      </trkpt>
      <trkpt lat="41.897621" lon="-2.188452">
        <ele>1141.6</ele>
        <time>2023-02-11T09:54:16.000Z</time>
      </trkpt>
      <trkpt lat="41.897585" lon="-2.188271">
        <ele>1141</ele>
        <time>2023-02-11T09:54:17.000Z</time>
      </trkpt>
      <trkpt lat="41.897548" lon="-2.188085">
        <ele>1139.8</ele>
        <time>2023-02-11T09:54:18.000Z</time>
      </trkpt>
      <trkpt lat="41.897511" lon="-2.187898">
        <ele>1138.8</ele>
        <time>2023-02-11T09:54:19.000Z</time>
      </trkpt>
      <trkpt lat="41.897473" lon="-2.187709">
        <ele>1137.8</ele>
        <time>2023-02-11T09:54:20.000Z</time>
      </trkpt>
      <trkpt lat="41.897436" lon="-2.187519">
        <ele>1136.8</ele>
        <time>2023-02-11T09:54:21.000Z</time>
      </trkpt>
      <trkpt lat="41.897397" lon="-2.187325">
        <ele>1136.4</ele>
        <time>2023-02-11T09:54:22.000Z</time>
      </trkpt>
      <trkpt lat="41.897355" lon="-2.187132">
        <ele>1135.2</ele>
        <time>2023-02-11T09:54:23.000Z</time>
      </trkpt>
      <trkpt lat="41.897314" lon="-2.186937">
        <ele>1134.6</ele>
        <time>2023-02-11T09:54:24.000Z</time>
      </trkpt>
      <trkpt lat="41.897273" lon="-2.186741">
        <ele>1133.4</ele>
        <time>2023-02-11T09:54:25.000Z</time>
      </trkpt>
      <trkpt lat="41.897233" lon="-2.186543">
        <ele>1132.8</ele>
        <time>2023-02-11T09:54:26.000Z</time>
      </trkpt>
      <trkpt lat="41.897193" lon="-2.186343">
        <ele>1131.8</ele>
        <time>2023-02-11T09:54:27.000Z</time>
      </trkpt>
      <trkpt lat="41.897152" lon="-2.186143">
        <ele>1129.8</ele>
        <time>2023-02-11T09:54:28.000Z</time>
      </trkpt>
      <trkpt lat="41.89711" lon="-2.18594">
        <ele>1129</ele>
        <time>2023-02-11T09:54:29.000Z</time>
      </trkpt>
      <trkpt lat="41.897068" lon="-2.185736">
        <ele>1126.6</ele>
        <time>2023-02-11T09:54:30.000Z</time>
      </trkpt>
      <trkpt lat="41.897027" lon="-2.185529">
        <ele>1125.4</ele>
        <time>2023-02-11T09:54:31.000Z</time>
      </trkpt>
      <trkpt lat="41.896987" lon="-2.18532">
        <ele>1123.8</ele>
        <time>2023-02-11T09:54:32.000Z</time>
      </trkpt>
      <trkpt lat="41.89695" lon="-2.18511">
        <ele>1123</ele>
        <time>2023-02-11T09:54:33.000Z</time>
      </trkpt>
      <trkpt lat="41.896916" lon="-2.184899">
        <ele>1121.2</ele>
        <time>2023-02-11T09:54:34.000Z</time>
      </trkpt>
      <trkpt lat="41.896887" lon="-2.184687">
        <ele>1120.6</ele>
        <time>2023-02-11T09:54:35.000Z</time>
      </trkpt>
      <trkpt lat="41.896858" lon="-2.184474">
        <ele>1118.4</ele>
        <time>2023-02-11T09:54:36.000Z</time>
      </trkpt>
      <trkpt lat="41.896832" lon="-2.184262">
        <ele>1116.2</ele>
        <time>2023-02-11T09:54:37.000Z</time>
      </trkpt>
      <trkpt lat="41.896806" lon="-2.184052">
        <ele>1115.4</ele>
        <time>2023-02-11T09:54:38.000Z</time>
      </trkpt>
      <trkpt lat="41.896784" lon="-2.183845">
        <ele>1113.6</ele>
        <time>2023-02-11T09:54:39.000Z</time>
      </trkpt>
      <trkpt lat="41.896769" lon="-2.183636">
        <ele>1112.8</ele>
        <time>2023-02-11T09:54:40.000Z</time>
      </trkpt>
      <trkpt lat="41.896762" lon="-2.183429">
        <ele>1110.6</ele>
        <time>2023-02-11T09:54:41.000Z</time>
      </trkpt>
      <trkpt lat="41.896763" lon="-2.18322">
        <ele>1109.6</ele>
        <time>2023-02-11T09:54:42.000Z</time>
      </trkpt>
      <trkpt lat="41.896767" lon="-2.183014">
        <ele>1108</ele>
        <time>2023-02-11T09:54:43.000Z</time>
      </trkpt>
      <trkpt lat="41.896775" lon="-2.182805">
        <ele>1107.2</ele>
        <time>2023-02-11T09:54:44.000Z</time>
      </trkpt>
      <trkpt lat="41.896783" lon="-2.182596">
        <ele>1105.8</ele>
        <time>2023-02-11T09:54:45.000Z</time>
      </trkpt>
      <trkpt lat="41.896793" lon="-2.182384">
        <ele>1105</ele>
        <time>2023-02-11T09:54:46.000Z</time>
      </trkpt>
      <trkpt lat="41.896804" lon="-2.182173">
        <ele>1103.2</ele>
        <time>2023-02-11T09:54:47.000Z</time>
      </trkpt>
      <trkpt lat="41.896815" lon="-2.181961">
        <ele>1102.2</ele>
        <time>2023-02-11T09:54:48.000Z</time>
      </trkpt>
      <trkpt lat="41.896828" lon="-2.181748">
        <ele>1101.4</ele>
        <time>2023-02-11T09:54:49.000Z</time>
      </trkpt>
      <trkpt lat="41.896846" lon="-2.181536">
        <ele>1099.8</ele>
        <time>2023-02-11T09:54:50.000Z</time>
      </trkpt>
      <trkpt lat="41.896876" lon="-2.181322">
        <ele>1099.2</ele>
        <time>2023-02-11T09:54:51.000Z</time>
      </trkpt>
      <trkpt lat="41.896922" lon="-2.18111">
        <ele>1097.6</ele>
        <time>2023-02-11T09:54:52.000Z</time>
      </trkpt>
      <trkpt lat="41.896981" lon="-2.1809">
        <ele>1096.8</ele>
        <time>2023-02-11T09:54:53.000Z</time>
      </trkpt>
      <trkpt lat="41.897049" lon="-2.180689">
        <ele>1095.8</ele>
        <time>2023-02-11T09:54:54.000Z</time>
      </trkpt>
      <trkpt lat="41.89712" lon="-2.180476">
        <ele>1095</ele>
        <time>2023-02-11T09:54:55.000Z</time>
      </trkpt>
      <trkpt lat="41.897195" lon="-2.180265">
        <ele>1093.4</ele>
        <time>2023-02-11T09:54:56.000Z</time>
      </trkpt>
      <trkpt lat="41.89727" lon="-2.180049">
        <ele>1091.6</ele>
        <time>2023-02-11T09:54:57.000Z</time>
      </trkpt>
      <trkpt lat="41.897343" lon="-2.17983">
        <ele>1090.8</ele>
        <time>2023-02-11T09:54:58.000Z</time>
      </trkpt>
      <trkpt lat="41.897413" lon="-2.179611">
        <ele>1088.6</ele>
        <time>2023-02-11T09:54:59.000Z</time>
      </trkpt>
      <trkpt lat="41.897479" lon="-2.179392">
        <ele>1087.4</ele>
        <time>2023-02-11T09:55:00.000Z</time>
      </trkpt>
      <trkpt lat="41.89754" lon="-2.179169">
        <ele>1085</ele>
        <time>2023-02-11T09:55:01.000Z</time>
      </trkpt>
      <trkpt lat="41.897592" lon="-2.178945">
        <ele>1084</ele>
        <time>2023-02-11T09:55:02.000Z</time>
      </trkpt>
      <trkpt lat="41.89763" lon="-2.17872">
        <ele>1081.8</ele>
        <time>2023-02-11T09:55:03.000Z</time>
      </trkpt>
      <trkpt lat="41.897651" lon="-2.178491">
        <ele>1081</ele>
        <time>2023-02-11T09:55:04.000Z</time>
      </trkpt>
      <trkpt lat="41.897659" lon="-2.178261">
        <ele>1078.8</ele>
        <time>2023-02-11T09:55:05.000Z</time>
      </trkpt>
      <trkpt lat="41.897658" lon="-2.17803">
        <ele>1077.4</ele>
        <time>2023-02-11T09:55:06.000Z</time>
      </trkpt>
      <trkpt lat="41.897654" lon="-2.177799">
        <ele>1076.4</ele>
        <time>2023-02-11T09:55:07.000Z</time>
      </trkpt>
      <trkpt lat="41.897646" lon="-2.177567">
        <ele>1073.4</ele>
        <time>2023-02-11T09:55:08.000Z</time>
      </trkpt>
      <trkpt lat="41.897639" lon="-2.177334">
        <ele>1072.2</ele>
        <time>2023-02-11T09:55:09.000Z</time>
      </trkpt>
      <trkpt lat="41.897631" lon="-2.177108">
        <ele>1069.2</ele>
        <time>2023-02-11T09:55:10.000Z</time>
      </trkpt>
      <trkpt lat="41.897622" lon="-2.176891">
        <ele>1068.4</ele>
        <time>2023-02-11T09:55:11.000Z</time>
      </trkpt>
      <trkpt lat="41.897615" lon="-2.176679">
        <ele>1067</ele>
        <time>2023-02-11T09:55:12.000Z</time>
      </trkpt>
      <trkpt lat="41.897612" lon="-2.176472">
        <ele>1066</ele>
        <time>2023-02-11T09:55:13.000Z</time>
      </trkpt>
      <trkpt lat="41.897627" lon="-2.176272">
        <ele>1064.4</ele>
        <time>2023-02-11T09:55:14.000Z</time>
      </trkpt>
      <trkpt lat="41.897661" lon="-2.176086">
        <ele>1062.6</ele>
        <time>2023-02-11T09:55:15.000Z</time>
      </trkpt>
      <trkpt lat="41.897723" lon="-2.17591">
        <ele>1061.4</ele>
        <time>2023-02-11T09:55:16.000Z</time>
      </trkpt>
      <trkpt lat="41.897812" lon="-2.175747">
        <ele>1059.2</ele>
        <time>2023-02-11T09:55:17.000Z</time>
      </trkpt>
      <trkpt lat="41.897912" lon="-2.175596">
        <ele>1058.2</ele>
        <time>2023-02-11T09:55:18.000Z</time>
      </trkpt>
      <trkpt lat="41.898014" lon="-2.175452">
        <ele>1056.2</ele>
        <time>2023-02-11T09:55:19.000Z</time>
      </trkpt>
      <trkpt lat="41.898115" lon="-2.175309">
        <ele>1055.6</ele>
        <time>2023-02-11T09:55:20.000Z</time>
      </trkpt>
      <trkpt lat="41.898208" lon="-2.175158">
        <ele>1054</ele>
        <time>2023-02-11T09:55:21.000Z</time>
      </trkpt>
      <trkpt lat="41.89828" lon="-2.17499">
        <ele>1053</ele>
        <time>2023-02-11T09:55:22.000Z</time>
      </trkpt>
      <trkpt lat="41.898328" lon="-2.174804">
        <ele>1051.6</ele>
        <time>2023-02-11T09:55:23.000Z</time>
      </trkpt>
      <trkpt lat="41.898356" lon="-2.174605">
        <ele>1050</ele>
        <time>2023-02-11T09:55:24.000Z</time>
      </trkpt>
      <trkpt lat="41.898363" lon="-2.174404">
        <ele>1049.2</ele>
        <time>2023-02-11T09:55:25.000Z</time>
      </trkpt>
      <trkpt lat="41.898362" lon="-2.174202">
        <ele>1047.6</ele>
        <time>2023-02-11T09:55:26.000Z</time>
      </trkpt>
      <trkpt lat="41.898362" lon="-2.174007">
        <ele>1047</ele>
        <time>2023-02-11T09:55:27.000Z</time>
      </trkpt>
      <trkpt lat="41.898369" lon="-2.173818">
        <ele>1045.2</ele>
        <time>2023-02-11T09:55:28.000Z</time>
      </trkpt>
      <trkpt lat="41.898389" lon="-2.173639">
        <ele>1044.6</ele>
        <time>2023-02-11T09:55:29.000Z</time>
      </trkpt>
      <trkpt lat="41.89842" lon="-2.17347">
        <ele>1043.2</ele>
        <time>2023-02-11T09:55:30.000Z</time>
      </trkpt>
      <trkpt lat="41.898459" lon="-2.173312">
        <ele>1042.6</ele>
        <time>2023-02-11T09:55:31.000Z</time>
      </trkpt>
      <trkpt lat="41.898503" lon="-2.17316">
        <ele>1040.4</ele>
        <time>2023-02-11T09:55:32.000Z</time>
      </trkpt>
      <trkpt lat="41.898546" lon="-2.173011">
        <ele>1038.2</ele>
        <time>2023-02-11T09:55:33.000Z</time>
      </trkpt>
      <trkpt lat="41.898586" lon="-2.172866">
        <ele>1037.4</ele>
        <time>2023-02-11T09:55:34.000Z</time>
      </trkpt>
      <trkpt lat="41.898628" lon="-2.172722">
        <ele>1036</ele>
        <time>2023-02-11T09:55:35.000Z</time>
      </trkpt>
      <trkpt lat="41.898666" lon="-2.172578">
        <ele>1035</ele>
        <time>2023-02-11T09:55:36.000Z</time>
      </trkpt>
      <trkpt lat="41.898705" lon="-2.172436">
        <ele>1033.4</ele>
        <time>2023-02-11T09:55:37.000Z</time>
      </trkpt>
      <trkpt lat="41.898744" lon="-2.172294">
        <ele>1032.4</ele>
        <time>2023-02-11T09:55:38.000Z</time>
      </trkpt>
      <trkpt lat="41.898784" lon="-2.172153">
        <ele>1031</ele>
        <time>2023-02-11T09:55:39.000Z</time>
      </trkpt>
      <trkpt lat="41.898829" lon="-2.172014">
        <ele>1030.4</ele>
        <time>2023-02-11T09:55:40.000Z</time>
      </trkpt>
      <trkpt lat="41.898879" lon="-2.171875">
        <ele>1028.4</ele>
        <time>2023-02-11T09:55:41.000Z</time>
      </trkpt>
      <trkpt lat="41.89893" lon="-2.17174">
        <ele>1026.4</ele>
        <time>2023-02-11T09:55:42.000Z</time>
      </trkpt>
      <trkpt lat="41.898986" lon="-2.171607">
        <ele>1025.6</ele>
        <time>2023-02-11T09:55:43.000Z</time>
      </trkpt>
      <trkpt lat="41.899047" lon="-2.171477">
        <ele>1024</ele>
        <time>2023-02-11T09:55:44.000Z</time>
      </trkpt>
      <trkpt lat="41.89911" lon="-2.171351">
        <ele>1023.4</ele>
        <time>2023-02-11T09:55:45.000Z</time>
      </trkpt>
      <trkpt lat="41.899175" lon="-2.171229">
        <ele>1022.2</ele>
        <time>2023-02-11T09:55:46.000Z</time>
      </trkpt>
      <trkpt lat="41.89924" lon="-2.171109">
        <ele>1021.4</ele>
        <time>2023-02-11T09:55:47.000Z</time>
      </trkpt>
      <trkpt lat="41.8993" lon="-2.170988">
        <ele>1020</ele>
        <time>2023-02-11T09:55:48.000Z</time>
      </trkpt>
      <trkpt lat="41.899351" lon="-2.170868">
        <ele>1019.2</ele>
        <time>2023-02-11T09:55:49.000Z</time>
      </trkpt>
      <trkpt lat="41.899385" lon="-2.170743">
        <ele>1018</ele>
        <time>2023-02-11T09:55:50.000Z</time>
      </trkpt>
      <trkpt lat="41.899402" lon="-2.170612">
        <ele>1016</ele>
        <time>2023-02-11T09:55:51.000Z</time>
      </trkpt>
      <trkpt lat="41.899396" lon="-2.170482">
        <ele>1015.4</ele>
        <time>2023-02-11T09:55:52.000Z</time>
      </trkpt>
      <trkpt lat="41.899379" lon="-2.170352">
        <ele>1014.2</ele>
        <time>2023-02-11T09:55:53.000Z</time>
      </trkpt>
      <trkpt lat="41.899361" lon="-2.170221">
        <ele>1013.8</ele>
        <time>2023-02-11T09:55:54.000Z</time>
      </trkpt>
      <trkpt lat="41.899348" lon="-2.170088">
        <ele>1012.4</ele>
        <time>2023-02-11T09:55:55.000Z</time>
      </trkpt>
      <trkpt lat="41.899343" lon="-2.169958">
        <ele>1011.6</ele>
        <time>2023-02-11T09:55:56.000Z</time>
      </trkpt>
      <trkpt lat="41.899346" lon="-2.169832">
        <ele>1010.8</ele>
        <time>2023-02-11T09:55:57.000Z</time>
      </trkpt>
      <trkpt lat="41.899351" lon="-2.169707">
        <ele>1010.6</ele>
        <time>2023-02-11T09:55:58.000Z</time>
      </trkpt>
      <trkpt lat="41.89936" lon="-2.169583">
        <ele>1010</ele>
        <time>2023-02-11T09:55:59.000Z</time>
      </trkpt>
      <trkpt lat="41.899367" lon="-2.169461">
        <ele>1009</ele>
        <time>2023-02-11T09:56:00.000Z</time>
      </trkpt>
      <trkpt lat="41.899372" lon="-2.169337">
        <ele>1008.2</ele>
        <time>2023-02-11T09:56:01.000Z</time>
      </trkpt>
      <trkpt lat="41.89937" lon="-2.169214">
        <ele>1007</ele>
        <time>2023-02-11T09:56:02.000Z</time>
      </trkpt>
      <trkpt lat="41.899364" lon="-2.169091">
        <ele>1006.4</ele>
        <time>2023-02-11T09:56:03.000Z</time>
      </trkpt>
      <trkpt lat="41.899355" lon="-2.168964">
        <ele>1005.4</ele>
        <time>2023-02-11T09:56:04.000Z</time>
      </trkpt>
      <trkpt lat="41.899347" lon="-2.16883">
        <ele>1005.2</ele>
        <time>2023-02-11T09:56:05.000Z</time>
      </trkpt>
      <trkpt lat="41.899341" lon="-2.168692">
        <ele>1004.2</ele>
        <time>2023-02-11T09:56:06.000Z</time>
      </trkpt>
      <trkpt lat="41.89934" lon="-2.168553">
        <ele>1003.6</ele>
        <time>2023-02-11T09:56:07.000Z</time>
      </trkpt>
      <trkpt lat="41.899346" lon="-2.168415">
        <ele>1002.6</ele>
        <time>2023-02-11T09:56:08.000Z</time>
      </trkpt>
      <trkpt lat="41.899354" lon="-2.16828">
        <ele>1001.8</ele>
        <time>2023-02-11T09:56:09.000Z</time>
      </trkpt>
      <trkpt lat="41.899367" lon="-2.168151">
        <ele>1001.4</ele>
        <time>2023-02-11T09:56:10.000Z</time>
      </trkpt>
      <trkpt lat="41.899381" lon="-2.168028">
        <ele>1000.4</ele>
        <time>2023-02-11T09:56:11.000Z</time>
      </trkpt>
      <trkpt lat="41.899393" lon="-2.16791">
        <ele>1000</ele>
        <time>2023-02-11T09:56:12.000Z</time>
      </trkpt>
      <trkpt lat="41.899406" lon="-2.167795">
        <ele>998.6</ele>
        <time>2023-02-11T09:56:13.000Z</time>
      </trkpt>
      <trkpt lat="41.89942" lon="-2.167683">
        <ele>998.2</ele>
        <time>2023-02-11T09:56:14.000Z</time>
      </trkpt>
      <trkpt lat="41.899435" lon="-2.16757">
        <ele>997.4</ele>
        <time>2023-02-11T09:56:15.000Z</time>
      </trkpt>
      <trkpt lat="41.899452" lon="-2.16746">
        <ele>996.8</ele>
        <time>2023-02-11T09:56:16.000Z</time>
      </trkpt>
      <trkpt lat="41.899473" lon="-2.167351">
        <ele>995.6</ele>
        <time>2023-02-11T09:56:17.000Z</time>
      </trkpt>
      <trkpt lat="41.899496" lon="-2.167243">
        <ele>994.8</ele>
        <time>2023-02-11T09:56:18.000Z</time>
      </trkpt>
      <trkpt lat="41.899526" lon="-2.167133">
        <ele>994.2</ele>
        <time>2023-02-11T09:56:19.000Z</time>
      </trkpt>
      <trkpt lat="41.899562" lon="-2.167021">
        <ele>993.2</ele>
        <time>2023-02-11T09:56:20.000Z</time>
      </trkpt>
      <trkpt lat="41.899599" lon="-2.166908">
        <ele>992.6</ele>
        <time>2023-02-11T09:56:21.000Z</time>
      </trkpt>
      <trkpt lat="41.899639" lon="-2.166795">
        <ele>991.8</ele>
        <time>2023-02-11T09:56:22.000Z</time>
      </trkpt>
      <trkpt lat="41.89968" lon="-2.166684">
        <ele>991.2</ele>
        <time>2023-02-11T09:56:23.000Z</time>
      </trkpt>
      <trkpt lat="41.899718" lon="-2.166573">
        <ele>990.2</ele>
        <time>2023-02-11T09:56:24.000Z</time>
      </trkpt>
      <trkpt lat="41.899755" lon="-2.166461">
        <ele>989.8</ele>
        <time>2023-02-11T09:56:25.000Z</time>
      </trkpt>
      <trkpt lat="41.899785" lon="-2.166351">
        <ele>989</ele>
        <time>2023-02-11T09:56:26.000Z</time>
      </trkpt>
      <trkpt lat="41.899809" lon="-2.166239">
        <ele>988.2</ele>
        <time>2023-02-11T09:56:27.000Z</time>
      </trkpt>
      <trkpt lat="41.899827" lon="-2.166126">
        <ele>987.8</ele>
        <time>2023-02-11T09:56:28.000Z</time>
      </trkpt>
      <trkpt lat="41.899845" lon="-2.166013">
        <ele>986.8</ele>
        <time>2023-02-11T09:56:29.000Z</time>
      </trkpt>
      <trkpt lat="41.89986" lon="-2.165899">
        <ele>986.4</ele>
        <time>2023-02-11T09:56:30.000Z</time>
      </trkpt>
      <trkpt lat="41.899868" lon="-2.165782">
        <ele>985.4</ele>
        <time>2023-02-11T09:56:31.000Z</time>
      </trkpt>
      <trkpt lat="41.89987" lon="-2.165667">
        <ele>984.8</ele>
        <time>2023-02-11T09:56:32.000Z</time>
      </trkpt>
      <trkpt lat="41.899869" lon="-2.165554">
        <ele>984</ele>
        <time>2023-02-11T09:56:33.000Z</time>
      </trkpt>
      <trkpt lat="41.899868" lon="-2.165439">
        <ele>983.4</ele>
        <time>2023-02-11T09:56:34.000Z</time>
      </trkpt>
      <trkpt lat="41.899868" lon="-2.165325">
        <ele>982.8</ele>
        <time>2023-02-11T09:56:35.000Z</time>
      </trkpt>
      <trkpt lat="41.899872" lon="-2.165208">
        <ele>982</ele>
        <time>2023-02-11T09:56:36.000Z</time>
      </trkpt>
      <trkpt lat="41.89988" lon="-2.165089">
        <ele>981</ele>
        <time>2023-02-11T09:56:37.000Z</time>
      </trkpt>
      <trkpt lat="41.899891" lon="-2.164967">
        <ele>980.2</ele>
        <time>2023-02-11T09:56:38.000Z</time>
      </trkpt>
      <trkpt lat="41.899905" lon="-2.164843">
        <ele>979.6</ele>
        <time>2023-02-11T09:56:39.000Z</time>
      </trkpt>
      <trkpt lat="41.89992" lon="-2.164721">
        <ele>978.8</ele>
        <time>2023-02-11T09:56:40.000Z</time>
      </trkpt>
      <trkpt lat="41.899935" lon="-2.1646">
        <ele>978.2</ele>
        <time>2023-02-11T09:56:41.000Z</time>
      </trkpt>
      <trkpt lat="41.899948" lon="-2.164483">
        <ele>977.2</ele>
        <time>2023-02-11T09:56:42.000Z</time>
      </trkpt>
      <trkpt lat="41.89996" lon="-2.16437">
        <ele>976.8</ele>
        <time>2023-02-11T09:56:43.000Z</time>
      </trkpt>
      <trkpt lat="41.899974" lon="-2.164259">
        <ele>975.6</ele>
        <time>2023-02-11T09:56:44.000Z</time>
      </trkpt>
      <trkpt lat="41.899989" lon="-2.164151">
        <ele>975</ele>
        <time>2023-02-11T09:56:45.000Z</time>
      </trkpt>
      <trkpt lat="41.900003" lon="-2.164047">
        <ele>973.8</ele>
        <time>2023-02-11T09:56:46.000Z</time>
      </trkpt>
      <trkpt lat="41.900017" lon="-2.163946">
        <ele>972.4</ele>
        <time>2023-02-11T09:56:47.000Z</time>
      </trkpt>
      <trkpt lat="41.900033" lon="-2.163846">
        <ele>971.8</ele>
        <time>2023-02-11T09:56:48.000Z</time>
      </trkpt>
      <trkpt lat="41.900049" lon="-2.163744">
        <ele>970.8</ele>
        <time>2023-02-11T09:56:49.000Z</time>
      </trkpt>
      <trkpt lat="41.900066" lon="-2.163639">
        <ele>970.2</ele>
        <time>2023-02-11T09:56:50.000Z</time>
      </trkpt>
      <trkpt lat="41.900088" lon="-2.163532">
        <ele>969.2</ele>
        <time>2023-02-11T09:56:51.000Z</time>
      </trkpt>
      <trkpt lat="41.900116" lon="-2.163423">
        <ele>968.8</ele>
        <time>2023-02-11T09:56:52.000Z</time>
      </trkpt>
      <trkpt lat="41.900151" lon="-2.163313">
        <ele>967.4</ele>
        <time>2023-02-11T09:56:53.000Z</time>
      </trkpt>
      <trkpt lat="41.900196" lon="-2.163205">
        <ele>967</ele>
        <time>2023-02-11T09:56:54.000Z</time>
      </trkpt>
      <trkpt lat="41.900253" lon="-2.163097">
        <ele>966.2</ele>
        <time>2023-02-11T09:56:55.000Z</time>
      </trkpt>
      <trkpt lat="41.900318" lon="-2.162989">
        <ele>965.2</ele>
        <time>2023-02-11T09:56:56.000Z</time>
      </trkpt>
      <trkpt lat="41.900384" lon="-2.162876">
        <ele>964.6</ele>
        <time>2023-02-11T09:56:57.000Z</time>
      </trkpt>
      <trkpt lat="41.900444" lon="-2.16276">
        <ele>963.6</ele>
        <time>2023-02-11T09:56:58.000Z</time>
      </trkpt>
      <trkpt lat="41.9005" lon="-2.162635">
        <ele>963</ele>
        <time>2023-02-11T09:56:59.000Z</time>
      </trkpt>
      <trkpt lat="41.900544" lon="-2.162503">
        <ele>961.8</ele>
        <time>2023-02-11T09:57:00.000Z</time>
      </trkpt>
      <trkpt lat="41.900582" lon="-2.162368">
        <ele>961.4</ele>
        <time>2023-02-11T09:57:01.000Z</time>
      </trkpt>
      <trkpt lat="41.900611" lon="-2.162232">
        <ele>960.4</ele>
        <time>2023-02-11T09:57:02.000Z</time>
      </trkpt>
      <trkpt lat="41.900627" lon="-2.162094">
        <ele>959.8</ele>
        <time>2023-02-11T09:57:03.000Z</time>
      </trkpt>
      <trkpt lat="41.900627" lon="-2.161957">
        <ele>959</ele>
        <time>2023-02-11T09:57:04.000Z</time>
      </trkpt>
      <trkpt lat="41.900614" lon="-2.161818">
        <ele>958</ele>
        <time>2023-02-11T09:57:05.000Z</time>
      </trkpt>
      <trkpt lat="41.900592" lon="-2.161679">
        <ele>957.6</ele>
        <time>2023-02-11T09:57:06.000Z</time>
      </trkpt>
      <trkpt lat="41.900567" lon="-2.16154">
        <ele>957</ele>
        <time>2023-02-11T09:57:07.000Z</time>
      </trkpt>
      <trkpt lat="41.900541" lon="-2.161398">
        <ele>956.6</ele>
        <time>2023-02-11T09:57:08.000Z</time>
      </trkpt>
      <trkpt lat="41.900512" lon="-2.161256">
        <ele>956.2</ele>
        <time>2023-02-11T09:57:09.000Z</time>
      </trkpt>
      <trkpt lat="41.900481" lon="-2.161117">
        <ele>955.8</ele>
        <time>2023-02-11T09:57:10.000Z</time>
      </trkpt>
      <trkpt lat="41.900455" lon="-2.160977">
        <ele>955.4</ele>
        <time>2023-02-11T09:57:11.000Z</time>
      </trkpt>
      <trkpt lat="41.900431" lon="-2.160833">
        <ele>955.2</ele>
        <time>2023-02-11T09:57:12.000Z</time>
      </trkpt>
      <trkpt lat="41.900415" lon="-2.160691">
        <ele>954.4</ele>
        <time>2023-02-11T09:57:13.000Z</time>
      </trkpt>
      <trkpt lat="41.900406" lon="-2.160552">
        <ele>954</ele>
        <time>2023-02-11T09:57:14.000Z</time>
      </trkpt>
      <trkpt lat="41.900401" lon="-2.160416">
        <ele>953</ele>
        <time>2023-02-11T09:57:15.000Z</time>
      </trkpt>
      <trkpt lat="41.900399" lon="-2.16028">
        <ele>952.2</ele>
        <time>2023-02-11T09:57:16.000Z</time>
      </trkpt>
      <trkpt lat="41.900397" lon="-2.160144">
        <ele>951.8</ele>
        <time>2023-02-11T09:57:17.000Z</time>
      </trkpt>
      <trkpt lat="41.900395" lon="-2.160007">
        <ele>951.2</ele>
        <time>2023-02-11T09:57:18.000Z</time>
      </trkpt>
      <trkpt lat="41.900394" lon="-2.15987">
        <ele>950.8</ele>
        <time>2023-02-11T09:57:19.000Z</time>
      </trkpt>
      <trkpt lat="41.900398" lon="-2.159736">
        <ele>949.8</ele>
        <time>2023-02-11T09:57:20.000Z</time>
      </trkpt>
      <trkpt lat="41.900405" lon="-2.159604">
        <ele>949.6</ele>
        <time>2023-02-11T09:57:21.000Z</time>
      </trkpt>
      <trkpt lat="41.900414" lon="-2.159477">
        <ele>948.8</ele>
        <time>2023-02-11T09:57:22.000Z</time>
      </trkpt>
      <trkpt lat="41.900425" lon="-2.159358">
        <ele>948.4</ele>
        <time>2023-02-11T09:57:23.000Z</time>
      </trkpt>
      <trkpt lat="41.900437" lon="-2.159246">
        <ele>947.6</ele>
        <time>2023-02-11T09:57:24.000Z</time>
      </trkpt>
      <trkpt lat="41.900451" lon="-2.159143">
        <ele>947.2</ele>
        <time>2023-02-11T09:57:25.000Z</time>
      </trkpt>
      <trkpt lat="41.900469" lon="-2.15905">
        <ele>947</ele>
        <time>2023-02-11T09:57:26.000Z</time>
      </trkpt>
      <trkpt lat="41.900492" lon="-2.158967">
        <ele>947</ele>
        <time>2023-02-11T09:57:27.000Z</time>
      </trkpt>
      <trkpt lat="41.900513" lon="-2.158887">
        <ele>946.8</ele>
        <time>2023-02-11T09:57:28.000Z</time>
      </trkpt>
      <trkpt lat="41.90053" lon="-2.158809">
        <ele>946.6</ele>
        <time>2023-02-11T09:57:29.000Z</time>
      </trkpt>
      <trkpt lat="41.900536" lon="-2.158726">
        <ele>946.6</ele>
        <time>2023-02-11T09:57:30.000Z</time>
      </trkpt>
      <trkpt lat="41.900528" lon="-2.158641">
        <ele>946.6</ele>
        <time>2023-02-11T09:57:31.000Z</time>
      </trkpt>
      <trkpt lat="41.900502" lon="-2.158559">
        <ele>946.6</ele>
        <time>2023-02-11T09:57:32.000Z</time>
      </trkpt>
      <trkpt lat="41.90046" lon="-2.158489">
        <ele>946.6</ele>
        <time>2023-02-11T09:57:33.000Z</time>
      </trkpt>
      <trkpt lat="41.900406" lon="-2.158434">
        <ele>946.6</ele>
        <time>2023-02-11T09:57:34.000Z</time>
      </trkpt>
      <trkpt lat="41.900347" lon="-2.15839">
        <ele>946.6</ele>
        <time>2023-02-11T09:57:35.000Z</time>
      </trkpt>
      <trkpt lat="41.900285" lon="-2.158349">
        <ele>946.6</ele>
        <time>2023-02-11T09:57:36.000Z</time>
      </trkpt>
      <trkpt lat="41.900219" lon="-2.158307">
        <ele>946.6</ele>
        <time>2023-02-11T09:57:37.000Z</time>
      </trkpt>
      <trkpt lat="41.90015" lon="-2.158266">
        <ele>946.6</ele>
        <time>2023-02-11T09:57:38.000Z</time>
      </trkpt>
      <trkpt lat="41.900079" lon="-2.158213">
        <ele>946.4</ele>
        <time>2023-02-11T09:57:39.000Z</time>
      </trkpt>
      <trkpt lat="41.900005" lon="-2.158151">
        <ele>946.2</ele>
        <time>2023-02-11T09:57:40.000Z</time>
      </trkpt>
      <trkpt lat="41.899928" lon="-2.158091">
        <ele>946.2</ele>
        <time>2023-02-11T09:57:41.000Z</time>
      </trkpt>
      <trkpt lat="41.899842" lon="-2.158035">
        <ele>946</ele>
        <time>2023-02-11T09:57:42.000Z</time>
      </trkpt>
      <trkpt lat="41.899747" lon="-2.157981">
        <ele>945.4</ele>
        <time>2023-02-11T09:57:43.000Z</time>
      </trkpt>
      <trkpt lat="41.899648" lon="-2.157926">
        <ele>945.2</ele>
        <time>2023-02-11T09:57:44.000Z</time>
      </trkpt>
      <trkpt lat="41.899552" lon="-2.157869">
        <ele>944.6</ele>
        <time>2023-02-11T09:57:45.000Z</time>
      </trkpt>
      <trkpt lat="41.89946" lon="-2.157807">
        <ele>944.4</ele>
        <time>2023-02-11T09:57:46.000Z</time>
      </trkpt>
      <trkpt lat="41.899371" lon="-2.15774">
        <ele>943.4</ele>
        <time>2023-02-11T09:57:47.000Z</time>
      </trkpt>
      <trkpt lat="41.899294" lon="-2.157663">
        <ele>943</ele>
        <time>2023-02-11T09:57:48.000Z</time>
      </trkpt>
      <trkpt lat="41.899228" lon="-2.157572">
        <ele>941.6</ele>
        <time>2023-02-11T09:57:49.000Z</time>
      </trkpt>
      <trkpt lat="41.899177" lon="-2.157472">
        <ele>941.2</ele>
        <time>2023-02-11T09:57:50.000Z</time>
      </trkpt>
      <trkpt lat="41.899135" lon="-2.157366">
        <ele>940.2</ele>
        <time>2023-02-11T09:57:51.000Z</time>
      </trkpt>
      <trkpt lat="41.899104" lon="-2.157258">
        <ele>939.4</ele>
        <time>2023-02-11T09:57:52.000Z</time>
      </trkpt>
      <trkpt lat="41.899079" lon="-2.157151">
        <ele>937.8</ele>
        <time>2023-02-11T09:57:53.000Z</time>
      </trkpt>
      <trkpt lat="41.899058" lon="-2.157051">
        <ele>936</ele>
        <time>2023-02-11T09:57:54.000Z</time>
      </trkpt>
      <trkpt lat="41.899043" lon="-2.156959">
        <ele>935.4</ele>
        <time>2023-02-11T09:57:55.000Z</time>
      </trkpt>
      <trkpt lat="41.899034" lon="-2.156878">
        <ele>934.4</ele>
        <time>2023-02-11T09:57:56.000Z</time>
      </trkpt>
      <trkpt lat="41.899023" lon="-2.156807">
        <ele>933.8</ele>
        <time>2023-02-11T09:57:57.000Z</time>
      </trkpt>
      <trkpt lat="41.899001" lon="-2.156747">
        <ele>932.8</ele>
        <time>2023-02-11T09:57:58.000Z</time>
      </trkpt>
      <trkpt lat="41.898968" lon="-2.156697">
        <ele>932.4</ele>
        <time>2023-02-11T09:57:59.000Z</time>
      </trkpt>
      <trkpt lat="41.898929" lon="-2.156659">
        <ele>931.6</ele>
        <time>2023-02-11T09:58:00.000Z</time>
      </trkpt>
      <trkpt lat="41.898883" lon="-2.156631">
        <ele>931.4</ele>
        <time>2023-02-11T09:58:01.000Z</time>
      </trkpt>
      <trkpt lat="41.898835" lon="-2.156607">
        <ele>930.8</ele>
        <time>2023-02-11T09:58:02.000Z</time>
      </trkpt>
      <trkpt lat="41.898786" lon="-2.156588">
        <ele>930.6</ele>
        <time>2023-02-11T09:58:03.000Z</time>
      </trkpt>
      <trkpt lat="41.898736" lon="-2.156572">
        <ele>930.6</ele>
        <time>2023-02-11T09:58:04.000Z</time>
      </trkpt>
      <trkpt lat="41.89869" lon="-2.156561">
        <ele>930.4</ele>
        <time>2023-02-11T09:58:05.000Z</time>
      </trkpt>
      <trkpt lat="41.898646" lon="-2.15655">
        <ele>930.4</ele>
        <time>2023-02-11T09:58:06.000Z</time>
      </trkpt>
      <trkpt lat="41.898603" lon="-2.156542">
        <ele>930.4</ele>
        <time>2023-02-11T09:58:07.000Z</time>
      </trkpt>
      <trkpt lat="41.89856" lon="-2.156536">
        <ele>930.4</ele>
        <time>2023-02-11T09:58:08.000Z</time>
      </trkpt>
      <trkpt lat="41.898518" lon="-2.156528">
        <ele>930.6</ele>
        <time>2023-02-11T09:58:09.000Z</time>
      </trkpt>
      <trkpt lat="41.898479" lon="-2.156521">
        <ele>930.8</ele>
        <time>2023-02-11T09:58:10.000Z</time>
      </trkpt>
      <trkpt lat="41.898441" lon="-2.156515">
        <ele>931.4</ele>
        <time>2023-02-11T09:58:11.000Z</time>
      </trkpt>
      <trkpt lat="41.898401" lon="-2.15651">
        <ele>931.8</ele>
        <time>2023-02-11T09:58:12.000Z</time>
      </trkpt>
      <trkpt lat="41.898359" lon="-2.156507">
        <ele>931.8</ele>
        <time>2023-02-11T09:58:13.000Z</time>
      </trkpt>
      <trkpt lat="41.898313" lon="-2.156508">
        <ele>932</ele>
        <time>2023-02-11T09:58:14.000Z</time>
      </trkpt>
      <trkpt lat="41.898267" lon="-2.156514">
        <ele>932.2</ele>
        <time>2023-02-11T09:58:15.000Z</time>
      </trkpt>
      <trkpt lat="41.898219" lon="-2.156527">
        <ele>932.4</ele>
        <time>2023-02-11T09:58:16.000Z</time>
      </trkpt>
      <trkpt lat="41.898172" lon="-2.15655">
        <ele>932.6</ele>
        <time>2023-02-11T09:58:17.000Z</time>
      </trkpt>
      <trkpt lat="41.898129" lon="-2.156581">
        <ele>932.8</ele>
        <time>2023-02-11T09:58:18.000Z</time>
      </trkpt>
      <trkpt lat="41.898088" lon="-2.156624">
        <ele>932.8</ele>
        <time>2023-02-11T09:58:19.000Z</time>
      </trkpt>
      <trkpt lat="41.898051" lon="-2.156674">
        <ele>933</ele>
        <time>2023-02-11T09:58:20.000Z</time>
      </trkpt>
      <trkpt lat="41.898019" lon="-2.156727">
        <ele>933.2</ele>
        <time>2023-02-11T09:58:21.000Z</time>
      </trkpt>
      <trkpt lat="41.89799" lon="-2.156782">
        <ele>933.4</ele>
        <time>2023-02-11T09:58:22.000Z</time>
      </trkpt>
      <trkpt lat="41.897961" lon="-2.156834">
        <ele>933.4</ele>
        <time>2023-02-11T09:58:23.000Z</time>
      </trkpt>
      <trkpt lat="41.897932" lon="-2.156883">
        <ele>933.6</ele>
        <time>2023-02-11T09:58:24.000Z</time>
      </trkpt>
      <trkpt lat="41.897903" lon="-2.156934">
        <ele>933.6</ele>
        <time>2023-02-11T09:58:25.000Z</time>
      </trkpt>
      <trkpt lat="41.897877" lon="-2.156984">
        <ele>933.8</ele>
        <time>2023-02-11T09:58:26.000Z</time>
      </trkpt>
      <trkpt lat="41.897849" lon="-2.157031">
        <ele>934</ele>
        <time>2023-02-11T09:58:27.000Z</time>
      </trkpt>
      <trkpt lat="41.897821" lon="-2.157074">
        <ele>934</ele>
        <time>2023-02-11T09:58:28.000Z</time>
      </trkpt>
      <trkpt lat="41.897791" lon="-2.157114">
        <ele>934.2</ele>
        <time>2023-02-11T09:58:29.000Z</time>
      </trkpt>
      <trkpt lat="41.897756" lon="-2.157151">
        <ele>934.6</ele>
        <time>2023-02-11T09:58:30.000Z</time>
      </trkpt>
      <trkpt lat="41.897719" lon="-2.157184">
        <ele>934.8</ele>
        <time>2023-02-11T09:58:31.000Z</time>
      </trkpt>
      <trkpt lat="41.897682" lon="-2.157215">
        <ele>935</ele>
        <time>2023-02-11T09:58:32.000Z</time>
      </trkpt>
      <trkpt lat="41.897644" lon="-2.157241">
        <ele>935.2</ele>
        <time>2023-02-11T09:58:33.000Z</time>
      </trkpt>
      <trkpt lat="41.897605" lon="-2.157263">
        <ele>935.6</ele>
        <time>2023-02-11T09:58:34.000Z</time>
      </trkpt>
      <trkpt lat="41.897567" lon="-2.15728">
        <ele>935.6</ele>
        <time>2023-02-11T09:58:35.000Z</time>
      </trkpt>
      <trkpt lat="41.897529" lon="-2.157292">
        <ele>935.8</ele>
        <time>2023-02-11T09:58:36.000Z</time>
      </trkpt>
      <trkpt lat="41.897492" lon="-2.157303">
        <ele>936</ele>
        <time>2023-02-11T09:58:37.000Z</time>
      </trkpt>
      <trkpt lat="41.897456" lon="-2.157317">
        <ele>936.4</ele>
        <time>2023-02-11T09:58:38.000Z</time>
      </trkpt>
      <trkpt lat="41.897418" lon="-2.157327">
        <ele>936.6</ele>
        <time>2023-02-11T09:58:39.000Z</time>
      </trkpt>
      <trkpt lat="41.897378" lon="-2.157334">
        <ele>937</ele>
        <time>2023-02-11T09:58:40.000Z</time>
      </trkpt>
      <trkpt lat="41.897337" lon="-2.157338">
        <ele>937.4</ele>
        <time>2023-02-11T09:58:41.000Z</time>
      </trkpt>
      <trkpt lat="41.897299" lon="-2.157342">
        <ele>937.4</ele>
        <time>2023-02-11T09:58:42.000Z</time>
      </trkpt>
      <trkpt lat="41.897258" lon="-2.157345">
        <ele>938</ele>
        <time>2023-02-11T09:58:43.000Z</time>
      </trkpt>
      <trkpt lat="41.897218" lon="-2.157348">
        <ele>938.2</ele>
        <time>2023-02-11T09:58:44.000Z</time>
      </trkpt>
      <trkpt lat="41.897179" lon="-2.157352">
        <ele>938.6</ele>
        <time>2023-02-11T09:58:45.000Z</time>
      </trkpt>
      <trkpt lat="41.897144" lon="-2.157355">
        <ele>938.6</ele>
        <time>2023-02-11T09:58:46.000Z</time>
      </trkpt>
      <trkpt lat="41.89711" lon="-2.157359">
        <ele>939</ele>
        <time>2023-02-11T09:58:47.000Z</time>
      </trkpt>
      <trkpt lat="41.897077" lon="-2.157359">
        <ele>939</ele>
        <time>2023-02-11T09:58:48.000Z</time>
      </trkpt>
      <trkpt lat="41.897044" lon="-2.157358">
        <ele>939.4</ele>
        <time>2023-02-11T09:58:49.000Z</time>
      </trkpt>
      <trkpt lat="41.897009" lon="-2.157358">
        <ele>939.6</ele>
        <time>2023-02-11T09:58:50.000Z</time>
      </trkpt>
      <trkpt lat="41.896971" lon="-2.157358">
        <ele>939.8</ele>
        <time>2023-02-11T09:58:51.000Z</time>
      </trkpt>
      <trkpt lat="41.896933" lon="-2.157359">
        <ele>940.2</ele>
        <time>2023-02-11T09:58:52.000Z</time>
      </trkpt>
      <trkpt lat="41.896895" lon="-2.157362">
        <ele>940.4</ele>
        <time>2023-02-11T09:58:53.000Z</time>
      </trkpt>
      <trkpt lat="41.896858" lon="-2.157366">
        <ele>940.6</ele>
        <time>2023-02-11T09:58:54.000Z</time>
      </trkpt>
      <trkpt lat="41.896825" lon="-2.157372">
        <ele>940.8</ele>
        <time>2023-02-11T09:58:55.000Z</time>
      </trkpt>
      <trkpt lat="41.896791" lon="-2.157378">
        <ele>941</ele>
        <time>2023-02-11T09:58:56.000Z</time>
      </trkpt>
      <trkpt lat="41.89676" lon="-2.157387">
        <ele>941.2</ele>
        <time>2023-02-11T09:58:57.000Z</time>
      </trkpt>
      <trkpt lat="41.896726" lon="-2.157396">
        <ele>941.6</ele>
        <time>2023-02-11T09:58:58.000Z</time>
      </trkpt>
      <trkpt lat="41.896689" lon="-2.157401">
        <ele>942</ele>
        <time>2023-02-11T09:58:59.000Z</time>
      </trkpt>
      <trkpt lat="41.896652" lon="-2.157404">
        <ele>942.2</ele>
        <time>2023-02-11T09:59:00.000Z</time>
      </trkpt>
      <trkpt lat="41.896614" lon="-2.157404">
        <ele>942.6</ele>
        <time>2023-02-11T09:59:01.000Z</time>
      </trkpt>
      <trkpt lat="41.896577" lon="-2.157404">
        <ele>942.8</ele>
        <time>2023-02-11T09:59:02.000Z</time>
      </trkpt>
      <trkpt lat="41.896541" lon="-2.157404">
        <ele>942.8</ele>
        <time>2023-02-11T09:59:03.000Z</time>
      </trkpt>
      <trkpt lat="41.896506" lon="-2.157403">
        <ele>943</ele>
        <time>2023-02-11T09:59:04.000Z</time>
      </trkpt>
      <trkpt lat="41.896471" lon="-2.157401">
        <ele>943.4</ele>
        <time>2023-02-11T09:59:05.000Z</time>
      </trkpt>
      <trkpt lat="41.896437" lon="-2.157399">
        <ele>943.6</ele>
        <time>2023-02-11T09:59:06.000Z</time>
      </trkpt>
      <trkpt lat="41.896403" lon="-2.157399">
        <ele>943.8</ele>
        <time>2023-02-11T09:59:07.000Z</time>
      </trkpt>
      <trkpt lat="41.896368" lon="-2.1574">
        <ele>944</ele>
        <time>2023-02-11T09:59:08.000Z</time>
      </trkpt>
      <trkpt lat="41.896332" lon="-2.157402">
        <ele>944.2</ele>
        <time>2023-02-11T09:59:09.000Z</time>
      </trkpt>
      <trkpt lat="41.896296" lon="-2.157405">
        <ele>944.6</ele>
        <time>2023-02-11T09:59:10.000Z</time>
      </trkpt>
      <trkpt lat="41.896262" lon="-2.15741">
        <ele>945</ele>
        <time>2023-02-11T09:59:11.000Z</time>
      </trkpt>
      <trkpt lat="41.896225" lon="-2.157415">
        <ele>945.2</ele>
        <time>2023-02-11T09:59:12.000Z</time>
      </trkpt>
      <trkpt lat="41.896186" lon="-2.157424">
        <ele>945.4</ele>
        <time>2023-02-11T09:59:13.000Z</time>
      </trkpt>
      <trkpt lat="41.896149" lon="-2.157429">
        <ele>945.8</ele>
        <time>2023-02-11T09:59:14.000Z</time>
      </trkpt>
      <trkpt lat="41.896113" lon="-2.157433">
        <ele>945.8</ele>
        <time>2023-02-11T09:59:15.000Z</time>
      </trkpt>
      <trkpt lat="41.896077" lon="-2.157435">
        <ele>946.2</ele>
        <time>2023-02-11T09:59:16.000Z</time>
      </trkpt>
      <trkpt lat="41.896038" lon="-2.157438">
        <ele>946.4</ele>
        <time>2023-02-11T09:59:17.000Z</time>
      </trkpt>
      <trkpt lat="41.895998" lon="-2.157439">
        <ele>946.8</ele>
        <time>2023-02-11T09:59:18.000Z</time>
      </trkpt>
      <trkpt lat="41.895957" lon="-2.15744">
        <ele>947</ele>
        <time>2023-02-11T09:59:19.000Z</time>
      </trkpt>
      <trkpt lat="41.895918" lon="-2.157441">
        <ele>947.2</ele>
        <time>2023-02-11T09:59:20.000Z</time>
      </trkpt>
      <trkpt lat="41.895878" lon="-2.157441">
        <ele>947.4</ele>
        <time>2023-02-11T09:59:21.000Z</time>
      </trkpt>
      <trkpt lat="41.89584" lon="-2.157444">
        <ele>947.6</ele>
        <time>2023-02-11T09:59:22.000Z</time>
      </trkpt>
      <trkpt lat="41.895797" lon="-2.157453">
        <ele>948</ele>
        <time>2023-02-11T09:59:23.000Z</time>
      </trkpt>
      <trkpt lat="41.895755" lon="-2.157459">
        <ele>948.2</ele>
        <time>2023-02-11T09:59:24.000Z</time>
      </trkpt>
      <trkpt lat="41.895716" lon="-2.157464">
        <ele>948.6</ele>
        <time>2023-02-11T09:59:25.000Z</time>
      </trkpt>
      <trkpt lat="41.895679" lon="-2.157473">
        <ele>948.8</ele>
        <time>2023-02-11T09:59:26.000Z</time>
      </trkpt>
      <trkpt lat="41.895646" lon="-2.157482">
        <ele>949.2</ele>
        <time>2023-02-11T09:59:27.000Z</time>
      </trkpt>
      <trkpt lat="41.895615" lon="-2.157496">
        <ele>949.8</ele>
        <time>2023-02-11T09:59:28.000Z</time>
      </trkpt>
      <trkpt lat="41.895582" lon="-2.157509">
        <ele>950</ele>
        <time>2023-02-11T09:59:29.000Z</time>
      </trkpt>
      <trkpt lat="41.895552" lon="-2.157528">
        <ele>950.2</ele>
        <time>2023-02-11T09:59:30.000Z</time>
      </trkpt>
      <trkpt lat="41.895523" lon="-2.157549">
        <ele>950.2</ele>
        <time>2023-02-11T09:59:31.000Z</time>
      </trkpt>
      <trkpt lat="41.895491" lon="-2.157569">
        <ele>950.6</ele>
        <time>2023-02-11T09:59:32.000Z</time>
      </trkpt>
      <trkpt lat="41.895461" lon="-2.157591">
        <ele>950.8</ele>
        <time>2023-02-11T09:59:33.000Z</time>
      </trkpt>
      <trkpt lat="41.89543" lon="-2.157618">
        <ele>951.2</ele>
        <time>2023-02-11T09:59:34.000Z</time>
      </trkpt>
      <trkpt lat="41.895401" lon="-2.157646">
        <ele>951.6</ele>
        <time>2023-02-11T09:59:35.000Z</time>
      </trkpt>
      <trkpt lat="41.895374" lon="-2.15768">
        <ele>952.2</ele>
        <time>2023-02-11T09:59:36.000Z</time>
      </trkpt>
      <trkpt lat="41.895348" lon="-2.157714">
        <ele>952.6</ele>
        <time>2023-02-11T09:59:37.000Z</time>
      </trkpt>
      <trkpt lat="41.895322" lon="-2.15775">
        <ele>952.6</ele>
        <time>2023-02-11T09:59:38.000Z</time>
      </trkpt>
      <trkpt lat="41.8953" lon="-2.157791">
        <ele>953.2</ele>
        <time>2023-02-11T09:59:39.000Z</time>
      </trkpt>
      <trkpt lat="41.895278" lon="-2.157835">
        <ele>953.4</ele>
        <time>2023-02-11T09:59:40.000Z</time>
      </trkpt>
      <trkpt lat="41.89526" lon="-2.157878">
        <ele>954</ele>
        <time>2023-02-11T09:59:41.000Z</time>
      </trkpt>
      <trkpt lat="41.895243" lon="-2.157921">
        <ele>954.2</ele>
        <time>2023-02-11T09:59:42.000Z</time>
      </trkpt>
      <trkpt lat="41.895228" lon="-2.157963">
        <ele>954.6</ele>
        <time>2023-02-11T09:59:43.000Z</time>
      </trkpt>
      <trkpt lat="41.895215" lon="-2.158003">
        <ele>955</ele>
        <time>2023-02-11T09:59:44.000Z</time>
      </trkpt>
      <trkpt lat="41.895203" lon="-2.158042">
        <ele>955.4</ele>
        <time>2023-02-11T09:59:45.000Z</time>
      </trkpt>
      <trkpt lat="41.895191" lon="-2.15808">
        <ele>955.6</ele>
        <time>2023-02-11T09:59:46.000Z</time>
      </trkpt>
      <trkpt lat="41.895175" lon="-2.158119">
        <ele>955.4</ele>
        <time>2023-02-11T09:59:47.000Z</time>
      </trkpt>
      <trkpt lat="41.895155" lon="-2.158157">
        <ele>955.8</ele>
        <time>2023-02-11T09:59:48.000Z</time>
      </trkpt>
      <trkpt lat="41.895133" lon="-2.158195">
        <ele>956</ele>
        <time>2023-02-11T09:59:49.000Z</time>
      </trkpt>
      <trkpt lat="41.89511" lon="-2.15823">
        <ele>956.2</ele>
        <time>2023-02-11T09:59:50.000Z</time>
      </trkpt>
      <trkpt lat="41.895084" lon="-2.158266">
        <ele>956.4</ele>
        <time>2023-02-11T09:59:51.000Z</time>
      </trkpt>
      <trkpt lat="41.895054" lon="-2.158299">
        <ele>956.6</ele>
        <time>2023-02-11T09:59:52.000Z</time>
      </trkpt>
      <trkpt lat="41.895019" lon="-2.158333">
        <ele>956.6</ele>
        <time>2023-02-11T09:59:53.000Z</time>
      </trkpt>
      <trkpt lat="41.894984" lon="-2.158364">
        <ele>957</ele>
        <time>2023-02-11T09:59:54.000Z</time>
      </trkpt>
      <trkpt lat="41.894948" lon="-2.158391">
        <ele>957.2</ele>
        <time>2023-02-11T09:59:55.000Z</time>
      </trkpt>
      <trkpt lat="41.894914" lon="-2.158419">
        <ele>957.6</ele>
        <time>2023-02-11T09:59:56.000Z</time>
      </trkpt>
      <trkpt lat="41.894883" lon="-2.15845">
        <ele>957.8</ele>
        <time>2023-02-11T09:59:57.000Z</time>
      </trkpt>
      <trkpt lat="41.894849" lon="-2.158487">
        <ele>957.8</ele>
        <time>2023-02-11T09:59:58.000Z</time>
      </trkpt>
      <trkpt lat="41.894819" lon="-2.158525">
        <ele>958.2</ele>
        <time>2023-02-11T09:59:59.000Z</time>
      </trkpt>
      <trkpt lat="41.89479" lon="-2.158565">
        <ele>958.4</ele>
        <time>2023-02-11T10:00:00.000Z</time>
      </trkpt>
      <trkpt lat="41.894759" lon="-2.158608">
        <ele>958.8</ele>
        <time>2023-02-11T10:00:01.000Z</time>
      </trkpt>
      <trkpt lat="41.894724" lon="-2.158652">
        <ele>959</ele>
        <time>2023-02-11T10:00:02.000Z</time>
      </trkpt>
      <trkpt lat="41.894687" lon="-2.158697">
        <ele>959.2</ele>
        <time>2023-02-11T10:00:03.000Z</time>
      </trkpt>
      <trkpt lat="41.894653" lon="-2.158743">
        <ele>959.4</ele>
        <time>2023-02-11T10:00:04.000Z</time>
      </trkpt>
      <trkpt lat="41.894621" lon="-2.15879">
        <ele>959.6</ele>
        <time>2023-02-11T10:00:05.000Z</time>
      </trkpt>
      <trkpt lat="41.894594" lon="-2.158836">
        <ele>960</ele>
        <time>2023-02-11T10:00:06.000Z</time>
      </trkpt>
      <trkpt lat="41.894565" lon="-2.158881">
        <ele>960.2</ele>
        <time>2023-02-11T10:00:07.000Z</time>
      </trkpt>
      <trkpt lat="41.894532" lon="-2.158925">
        <ele>960.4</ele>
        <time>2023-02-11T10:00:08.000Z</time>
      </trkpt>
      <trkpt lat="41.894497" lon="-2.158968">
        <ele>960.4</ele>
        <time>2023-02-11T10:00:09.000Z</time>
      </trkpt>
      <trkpt lat="41.894461" lon="-2.159016">
        <ele>961</ele>
        <time>2023-02-11T10:00:10.000Z</time>
      </trkpt>
      <trkpt lat="41.894432" lon="-2.159065">
        <ele>961.2</ele>
        <time>2023-02-11T10:00:11.000Z</time>
      </trkpt>
      <trkpt lat="41.894402" lon="-2.159112">
        <ele>961.6</ele>
        <time>2023-02-11T10:00:12.000Z</time>
      </trkpt>
      <trkpt lat="41.89437" lon="-2.15916">
        <ele>961.8</ele>
        <time>2023-02-11T10:00:13.000Z</time>
      </trkpt>
      <trkpt lat="41.894336" lon="-2.159209">
        <ele>962</ele>
        <time>2023-02-11T10:00:14.000Z</time>
      </trkpt>
      <trkpt lat="41.894303" lon="-2.159257">
        <ele>962</ele>
        <time>2023-02-11T10:00:15.000Z</time>
      </trkpt>
      <trkpt lat="41.894271" lon="-2.159305">
        <ele>962.2</ele>
        <time>2023-02-11T10:00:16.000Z</time>
      </trkpt>
      <trkpt lat="41.89424" lon="-2.159352">
        <ele>962.2</ele>
        <time>2023-02-11T10:00:17.000Z</time>
      </trkpt>
      <trkpt lat="41.894211" lon="-2.159402">
        <ele>962.4</ele>
        <time>2023-02-11T10:00:18.000Z</time>
      </trkpt>
      <trkpt lat="41.894186" lon="-2.159453">
        <ele>962.8</ele>
        <time>2023-02-11T10:00:19.000Z</time>
      </trkpt>
      <trkpt lat="41.894162" lon="-2.159506">
        <ele>963</ele>
        <time>2023-02-11T10:00:20.000Z</time>
      </trkpt>
      <trkpt lat="41.894143" lon="-2.159559">
        <ele>963.2</ele>
        <time>2023-02-11T10:00:21.000Z</time>
      </trkpt>
      <trkpt lat="41.894127" lon="-2.159615">
        <ele>963.4</ele>
        <time>2023-02-11T10:00:22.000Z</time>
      </trkpt>
      <trkpt lat="41.894112" lon="-2.159673">
        <ele>963.6</ele>
        <time>2023-02-11T10:00:23.000Z</time>
      </trkpt>
      <trkpt lat="41.8941" lon="-2.159732">
        <ele>963.8</ele>
        <time>2023-02-11T10:00:24.000Z</time>
      </trkpt>
      <trkpt lat="41.894089" lon="-2.159792">
        <ele>964</ele>
        <time>2023-02-11T10:00:25.000Z</time>
      </trkpt>
      <trkpt lat="41.894078" lon="-2.159851">
        <ele>964.2</ele>
        <time>2023-02-11T10:00:26.000Z</time>
      </trkpt>
      <trkpt lat="41.894068" lon="-2.159912">
        <ele>964.4</ele>
        <time>2023-02-11T10:00:27.000Z</time>
      </trkpt>
      <trkpt lat="41.894058" lon="-2.159974">
        <ele>964.6</ele>
        <time>2023-02-11T10:00:28.000Z</time>
      </trkpt>
      <trkpt lat="41.894048" lon="-2.160036">
        <ele>964.6</ele>
        <time>2023-02-11T10:00:29.000Z</time>
      </trkpt>
      <trkpt lat="41.894038" lon="-2.160099">
        <ele>964.8</ele>
        <time>2023-02-11T10:00:30.000Z</time>
      </trkpt>
      <trkpt lat="41.894029" lon="-2.160161">
        <ele>965</ele>
        <time>2023-02-11T10:00:31.000Z</time>
      </trkpt>
      <trkpt lat="41.894019" lon="-2.160222">
        <ele>965.6</ele>
        <time>2023-02-11T10:00:32.000Z</time>
      </trkpt>
      <trkpt lat="41.894008" lon="-2.160283">
        <ele>965.6</ele>
        <time>2023-02-11T10:00:33.000Z</time>
      </trkpt>
      <trkpt lat="41.893998" lon="-2.160343">
        <ele>965.8</ele>
        <time>2023-02-11T10:00:34.000Z</time>
      </trkpt>
      <trkpt lat="41.893986" lon="-2.160403">
        <ele>966</ele>
        <time>2023-02-11T10:00:35.000Z</time>
      </trkpt>
      <trkpt lat="41.893974" lon="-2.160464">
        <ele>966</ele>
        <time>2023-02-11T10:00:36.000Z</time>
      </trkpt>
      <trkpt lat="41.893962" lon="-2.160524">
        <ele>966.4</ele>
        <time>2023-02-11T10:00:37.000Z</time>
      </trkpt>
      <trkpt lat="41.893951" lon="-2.160586">
        <ele>966.4</ele>
        <time>2023-02-11T10:00:38.000Z</time>
      </trkpt>
      <trkpt lat="41.893943" lon="-2.160649">
        <ele>966.6</ele>
        <time>2023-02-11T10:00:39.000Z</time>
      </trkpt>
      <trkpt lat="41.893936" lon="-2.16071">
        <ele>966.8</ele>
        <time>2023-02-11T10:00:40.000Z</time>
      </trkpt>
      <trkpt lat="41.893926" lon="-2.160773">
        <ele>966.8</ele>
        <time>2023-02-11T10:00:41.000Z</time>
      </trkpt>
      <trkpt lat="41.893915" lon="-2.160835">
        <ele>967</ele>
        <time>2023-02-11T10:00:42.000Z</time>
      </trkpt>
      <trkpt lat="41.893902" lon="-2.160899">
        <ele>967.2</ele>
        <time>2023-02-11T10:00:43.000Z</time>
      </trkpt>
      <trkpt lat="41.893885" lon="-2.160964">
        <ele>967.4</ele>
        <time>2023-02-11T10:00:44.000Z</time>
      </trkpt>
      <trkpt lat="41.893867" lon="-2.161029">
        <ele>967.4</ele>
        <time>2023-02-11T10:00:45.000Z</time>
      </trkpt>
      <trkpt lat="41.893846" lon="-2.161094">
        <ele>967.4</ele>
        <time>2023-02-11T10:00:46.000Z</time>
      </trkpt>
      <trkpt lat="41.893822" lon="-2.161155">
        <ele>967.6</ele>
        <time>2023-02-11T10:00:47.000Z</time>
      </trkpt>
      <trkpt lat="41.893798" lon="-2.161214">
        <ele>967.6</ele>
        <time>2023-02-11T10:00:48.000Z</time>
      </trkpt>
      <trkpt lat="41.893777" lon="-2.161273">
        <ele>967.8</ele>
        <time>2023-02-11T10:00:49.000Z</time>
      </trkpt>
      <trkpt lat="41.893752" lon="-2.161329">
        <ele>968</ele>
        <time>2023-02-11T10:00:50.000Z</time>
      </trkpt>
      <trkpt lat="41.893723" lon="-2.161383">
        <ele>968.2</ele>
        <time>2023-02-11T10:00:51.000Z</time>
      </trkpt>
      <trkpt lat="41.893692" lon="-2.161431">
        <ele>968.6</ele>
        <time>2023-02-11T10:00:52.000Z</time>
      </trkpt>
      <trkpt lat="41.893658" lon="-2.16148">
        <ele>968.6</ele>
        <time>2023-02-11T10:00:53.000Z</time>
      </trkpt>
      <trkpt lat="41.893628" lon="-2.161524">
        <ele>968.6</ele>
        <time>2023-02-11T10:00:54.000Z</time>
      </trkpt>
      <trkpt lat="41.893597" lon="-2.161567">
        <ele>968.8</ele>
        <time>2023-02-11T10:00:55.000Z</time>
      </trkpt>
      <trkpt lat="41.893564" lon="-2.161608">
        <ele>969</ele>
        <time>2023-02-11T10:00:56.000Z</time>
      </trkpt>
      <trkpt lat="41.893527" lon="-2.161652">
        <ele>969.2</ele>
        <time>2023-02-11T10:00:57.000Z</time>
      </trkpt>
      <trkpt lat="41.893499" lon="-2.161691">
        <ele>969.2</ele>
        <time>2023-02-11T10:00:58.000Z</time>
      </trkpt>
      <trkpt lat="41.893472" lon="-2.161727">
        <ele>969.4</ele>
        <time>2023-02-11T10:00:59.000Z</time>
      </trkpt>
      <trkpt lat="41.893444" lon="-2.161767">
        <ele>969.6</ele>
        <time>2023-02-11T10:01:00.000Z</time>
      </trkpt>
      <trkpt lat="41.893418" lon="-2.161809">
        <ele>969.6</ele>
        <time>2023-02-11T10:01:01.000Z</time>
      </trkpt>
      <trkpt lat="41.893393" lon="-2.161849">
        <ele>969.8</ele>
        <time>2023-02-11T10:01:02.000Z</time>
      </trkpt>
      <trkpt lat="41.89337" lon="-2.161888">
        <ele>970</ele>
        <time>2023-02-11T10:01:03.000Z</time>
      </trkpt>
      <trkpt lat="41.893346" lon="-2.161925">
        <ele>970</ele>
        <time>2023-02-11T10:01:04.000Z</time>
      </trkpt>
      <trkpt lat="41.893321" lon="-2.161962">
        <ele>970.4</ele>
        <time>2023-02-11T10:01:05.000Z</time>
      </trkpt>
      <trkpt lat="41.893293" lon="-2.162">
        <ele>970.8</ele>
        <time>2023-02-11T10:01:06.000Z</time>
      </trkpt>
      <trkpt lat="41.893264" lon="-2.162036">
        <ele>970.8</ele>
        <time>2023-02-11T10:01:07.000Z</time>
      </trkpt>
      <trkpt lat="41.893233" lon="-2.162071">
        <ele>971.2</ele>
        <time>2023-02-11T10:01:08.000Z</time>
      </trkpt>
      <trkpt lat="41.893203" lon="-2.162104">
        <ele>971.4</ele>
        <time>2023-02-11T10:01:09.000Z</time>
      </trkpt>
      <trkpt lat="41.893173" lon="-2.162133">
        <ele>971.6</ele>
        <time>2023-02-11T10:01:10.000Z</time>
      </trkpt>
      <trkpt lat="41.893141" lon="-2.16216">
        <ele>971.8</ele>
        <time>2023-02-11T10:01:11.000Z</time>
      </trkpt>
      <trkpt lat="41.893109" lon="-2.162189">
        <ele>972.4</ele>
        <time>2023-02-11T10:01:12.000Z</time>
      </trkpt>
      <trkpt lat="41.893075" lon="-2.162221">
        <ele>972.6</ele>
        <time>2023-02-11T10:01:13.000Z</time>
      </trkpt>
      <trkpt lat="41.893044" lon="-2.162253">
        <ele>972.8</ele>
        <time>2023-02-11T10:01:14.000Z</time>
      </trkpt>
      <trkpt lat="41.893015" lon="-2.162287">
        <ele>973.2</ele>
        <time>2023-02-11T10:01:15.000Z</time>
      </trkpt>
      <trkpt lat="41.892985" lon="-2.162319">
        <ele>973.4</ele>
        <time>2023-02-11T10:01:16.000Z</time>
      </trkpt>
      <trkpt lat="41.892951" lon="-2.16235">
        <ele>973.8</ele>
        <time>2023-02-11T10:01:17.000Z</time>
      </trkpt>
      <trkpt lat="41.892911" lon="-2.162376">
        <ele>973.8</ele>
        <time>2023-02-11T10:01:18.000Z</time>
      </trkpt>
      <trkpt lat="41.892869" lon="-2.162399">
        <ele>973.8</ele>
        <time>2023-02-11T10:01:19.000Z</time>
      </trkpt>
      <trkpt lat="41.892826" lon="-2.162423">
        <ele>974</ele>
        <time>2023-02-11T10:01:20.000Z</time>
      </trkpt>
      <trkpt lat="41.892779" lon="-2.162446">
        <ele>974.6</ele>
        <time>2023-02-11T10:01:21.000Z</time>
      </trkpt>
      <trkpt lat="41.892734" lon="-2.162468">
        <ele>974.8</ele>
        <time>2023-02-11T10:01:22.000Z</time>
      </trkpt>
      <trkpt lat="41.892687" lon="-2.162486">
        <ele>975.2</ele>
        <time>2023-02-11T10:01:23.000Z</time>
      </trkpt>
      <trkpt lat="41.892636" lon="-2.162503">
        <ele>975.4</ele>
        <time>2023-02-11T10:01:24.000Z</time>
      </trkpt>
      <trkpt lat="41.892586" lon="-2.162522">
        <ele>975.6</ele>
        <time>2023-02-11T10:01:25.000Z</time>
      </trkpt>
      <trkpt lat="41.892536" lon="-2.162542">
        <ele>975.6</ele>
        <time>2023-02-11T10:01:26.000Z</time>
      </trkpt>
      <trkpt lat="41.892483" lon="-2.162563">
        <ele>975.6</ele>
        <time>2023-02-11T10:01:27.000Z</time>
      </trkpt>
      <trkpt lat="41.892434" lon="-2.162583">
        <ele>976</ele>
        <time>2023-02-11T10:01:28.000Z</time>
      </trkpt>
      <trkpt lat="41.892384" lon="-2.162599">
        <ele>976</ele>
        <time>2023-02-11T10:01:29.000Z</time>
      </trkpt>
      <trkpt lat="41.892333" lon="-2.162615">
        <ele>976.2</ele>
        <time>2023-02-11T10:01:30.000Z</time>
      </trkpt>
      <trkpt lat="41.892283" lon="-2.162631">
        <ele>976.4</ele>
        <time>2023-02-11T10:01:31.000Z</time>
      </trkpt>
      <trkpt lat="41.892233" lon="-2.162648">
        <ele>976.6</ele>
        <time>2023-02-11T10:01:32.000Z</time>
      </trkpt>
      <trkpt lat="41.892187" lon="-2.162666">
        <ele>976.8</ele>
        <time>2023-02-11T10:01:33.000Z</time>
      </trkpt>
      <trkpt lat="41.892142" lon="-2.162682">
        <ele>977</ele>
        <time>2023-02-11T10:01:34.000Z</time>
      </trkpt>
      <trkpt lat="41.892097" lon="-2.162699">
        <ele>977</ele>
        <time>2023-02-11T10:01:35.000Z</time>
      </trkpt>
      <trkpt lat="41.892053" lon="-2.162714">
        <ele>977.2</ele>
        <time>2023-02-11T10:01:36.000Z</time>
      </trkpt>
      <trkpt lat="41.892011" lon="-2.162728">
        <ele>977.6</ele>
        <time>2023-02-11T10:01:37.000Z</time>
      </trkpt>
      <trkpt lat="41.891968" lon="-2.162741">
        <ele>977.8</ele>
        <time>2023-02-11T10:01:38.000Z</time>
      </trkpt>
      <trkpt lat="41.891925" lon="-2.162756">
        <ele>978.4</ele>
        <time>2023-02-11T10:01:39.000Z</time>
      </trkpt>
      <trkpt lat="41.891886" lon="-2.16277">
        <ele>978.6</ele>
        <time>2023-02-11T10:01:40.000Z</time>
      </trkpt>
      <trkpt lat="41.891847" lon="-2.162784">
        <ele>979</ele>
        <time>2023-02-11T10:01:41.000Z</time>
      </trkpt>
      <trkpt lat="41.891809" lon="-2.162794">
        <ele>979.2</ele>
        <time>2023-02-11T10:01:42.000Z</time>
      </trkpt>
      <trkpt lat="41.89177" lon="-2.162803">
        <ele>979.4</ele>
        <time>2023-02-11T10:01:43.000Z</time>
      </trkpt>
      <trkpt lat="41.891731" lon="-2.162814">
        <ele>979.6</ele>
        <time>2023-02-11T10:01:44.000Z</time>
      </trkpt>
      <trkpt lat="41.891693" lon="-2.162824">
        <ele>979.8</ele>
        <time>2023-02-11T10:01:45.000Z</time>
      </trkpt>
      <trkpt lat="41.891654" lon="-2.162831">
        <ele>980</ele>
        <time>2023-02-11T10:01:46.000Z</time>
      </trkpt>
      <trkpt lat="41.891612" lon="-2.162832">
        <ele>980.2</ele>
        <time>2023-02-11T10:01:47.000Z</time>
      </trkpt>
      <trkpt lat="41.89157" lon="-2.162826">
        <ele>980.4</ele>
        <time>2023-02-11T10:01:48.000Z</time>
      </trkpt>
      <trkpt lat="41.891528" lon="-2.162818">
        <ele>980.6</ele>
        <time>2023-02-11T10:01:49.000Z</time>
      </trkpt>
      <trkpt lat="41.891486" lon="-2.162809">
        <ele>980.8</ele>
        <time>2023-02-11T10:01:50.000Z</time>
      </trkpt>
      <trkpt lat="41.891446" lon="-2.162798">
        <ele>981.4</ele>
        <time>2023-02-11T10:01:51.000Z</time>
      </trkpt>
      <trkpt lat="41.891408" lon="-2.162787">
        <ele>981.6</ele>
        <time>2023-02-11T10:01:52.000Z</time>
      </trkpt>
      <trkpt lat="41.891368" lon="-2.162775">
        <ele>981.8</ele>
        <time>2023-02-11T10:01:53.000Z</time>
      </trkpt>
      <trkpt lat="41.891329" lon="-2.162758">
        <ele>981.8</ele>
        <time>2023-02-11T10:01:54.000Z</time>
      </trkpt>
      <trkpt lat="41.891292" lon="-2.162739">
        <ele>982.2</ele>
        <time>2023-02-11T10:01:55.000Z</time>
      </trkpt>
      <trkpt lat="41.891255" lon="-2.16272">
        <ele>982.4</ele>
        <time>2023-02-11T10:01:56.000Z</time>
      </trkpt>
      <trkpt lat="41.891222" lon="-2.162702">
        <ele>982.6</ele>
        <time>2023-02-11T10:01:57.000Z</time>
      </trkpt>
      <trkpt lat="41.891188" lon="-2.162685">
        <ele>982.8</ele>
        <time>2023-02-11T10:01:58.000Z</time>
      </trkpt>
      <trkpt lat="41.891152" lon="-2.162671">
        <ele>983.2</ele>
        <time>2023-02-11T10:01:59.000Z</time>
      </trkpt>
      <trkpt lat="41.891113" lon="-2.162662">
        <ele>983.4</ele>
        <time>2023-02-11T10:02:00.000Z</time>
      </trkpt>
      <trkpt lat="41.891074" lon="-2.16266">
        <ele>983.8</ele>
        <time>2023-02-11T10:02:01.000Z</time>
      </trkpt>
      <trkpt lat="41.891038" lon="-2.162664">
        <ele>984.4</ele>
        <time>2023-02-11T10:02:02.000Z</time>
      </trkpt>
      <trkpt lat="41.891004" lon="-2.162674">
        <ele>984.6</ele>
        <time>2023-02-11T10:02:03.000Z</time>
      </trkpt>
      <trkpt lat="41.890971" lon="-2.162691">
        <ele>985</ele>
        <time>2023-02-11T10:02:04.000Z</time>
      </trkpt>
      <trkpt lat="41.890936" lon="-2.162706">
        <ele>985.2</ele>
        <time>2023-02-11T10:02:05.000Z</time>
      </trkpt>
      <trkpt lat="41.890896" lon="-2.162722">
        <ele>985.6</ele>
        <time>2023-02-11T10:02:06.000Z</time>
      </trkpt>
      <trkpt lat="41.890857" lon="-2.162735">
        <ele>985.8</ele>
        <time>2023-02-11T10:02:07.000Z</time>
      </trkpt>
      <trkpt lat="41.890819" lon="-2.162744">
        <ele>986.2</ele>
        <time>2023-02-11T10:02:08.000Z</time>
      </trkpt>
      <trkpt lat="41.890782" lon="-2.162753">
        <ele>986.4</ele>
        <time>2023-02-11T10:02:09.000Z</time>
      </trkpt>
      <trkpt lat="41.890744" lon="-2.16276">
        <ele>986.8</ele>
        <time>2023-02-11T10:02:10.000Z</time>
      </trkpt>
      <trkpt lat="41.890706" lon="-2.162768">
        <ele>987</ele>
        <time>2023-02-11T10:02:11.000Z</time>
      </trkpt>
      <trkpt lat="41.890668" lon="-2.162775">
        <ele>987.2</ele>
        <time>2023-02-11T10:02:12.000Z</time>
      </trkpt>
      <trkpt lat="41.890632" lon="-2.162782">
        <ele>987.6</ele>
        <time>2023-02-11T10:02:13.000Z</time>
      </trkpt>
      <trkpt lat="41.890597" lon="-2.162789">
        <ele>987.8</ele>
        <time>2023-02-11T10:02:14.000Z</time>
      </trkpt>
      <trkpt lat="41.89056" lon="-2.162799">
        <ele>988</ele>
        <time>2023-02-11T10:02:15.000Z</time>
      </trkpt>
      <trkpt lat="41.890523" lon="-2.162807">
        <ele>988.4</ele>
        <time>2023-02-11T10:02:16.000Z</time>
      </trkpt>
      <trkpt lat="41.890486" lon="-2.162819">
        <ele>988.6</ele>
        <time>2023-02-11T10:02:17.000Z</time>
      </trkpt>
      <trkpt lat="41.89045" lon="-2.162831">
        <ele>988.8</ele>
        <time>2023-02-11T10:02:18.000Z</time>
      </trkpt>
      <trkpt lat="41.890415" lon="-2.16284">
        <ele>989</ele>
        <time>2023-02-11T10:02:19.000Z</time>
      </trkpt>
      <trkpt lat="41.890378" lon="-2.162851">
        <ele>989.4</ele>
        <time>2023-02-11T10:02:20.000Z</time>
      </trkpt>
      <trkpt lat="41.890343" lon="-2.16286">
        <ele>989.6</ele>
        <time>2023-02-11T10:02:21.000Z</time>
      </trkpt>
      <trkpt lat="41.890306" lon="-2.162869">
        <ele>989.8</ele>
        <time>2023-02-11T10:02:22.000Z</time>
      </trkpt>
      <trkpt lat="41.89027" lon="-2.162877">
        <ele>989.8</ele>
        <time>2023-02-11T10:02:23.000Z</time>
      </trkpt>
      <trkpt lat="41.890235" lon="-2.162885">
        <ele>990.2</ele>
        <time>2023-02-11T10:02:24.000Z</time>
      </trkpt>
      <trkpt lat="41.890199" lon="-2.162893">
        <ele>990.4</ele>
        <time>2023-02-11T10:02:25.000Z</time>
      </trkpt>
      <trkpt lat="41.890164" lon="-2.162901">
        <ele>990.8</ele>
        <time>2023-02-11T10:02:26.000Z</time>
      </trkpt>
      <trkpt lat="41.890131" lon="-2.162907">
        <ele>991</ele>
        <time>2023-02-11T10:02:27.000Z</time>
      </trkpt>
      <trkpt lat="41.890098" lon="-2.162913">
        <ele>991.4</ele>
        <time>2023-02-11T10:02:28.000Z</time>
      </trkpt>
      <trkpt lat="41.890061" lon="-2.162919">
        <ele>991.2</ele>
        <time>2023-02-11T10:02:29.000Z</time>
      </trkpt>
      <trkpt lat="41.890021" lon="-2.162922">
        <ele>991.8</ele>
        <time>2023-02-11T10:02:30.000Z</time>
      </trkpt>
      <trkpt lat="41.889978" lon="-2.162922">
        <ele>991.8</ele>
        <time>2023-02-11T10:02:31.000Z</time>
      </trkpt>
      <trkpt lat="41.889938" lon="-2.162917">
        <ele>992</ele>
        <time>2023-02-11T10:02:32.000Z</time>
      </trkpt>
      <trkpt lat="41.889899" lon="-2.162909">
        <ele>992.2</ele>
        <time>2023-02-11T10:02:33.000Z</time>
      </trkpt>
      <trkpt lat="41.889858" lon="-2.1629">
        <ele>992.4</ele>
        <time>2023-02-11T10:02:34.000Z</time>
      </trkpt>
      <trkpt lat="41.889818" lon="-2.162893">
        <ele>992.6</ele>
        <time>2023-02-11T10:02:35.000Z</time>
      </trkpt>
      <trkpt lat="41.889778" lon="-2.162888">
        <ele>992.8</ele>
        <time>2023-02-11T10:02:36.000Z</time>
      </trkpt>
      <trkpt lat="41.889737" lon="-2.162881">
        <ele>993</ele>
        <time>2023-02-11T10:02:37.000Z</time>
      </trkpt>
      <trkpt lat="41.889696" lon="-2.162868">
        <ele>993.2</ele>
        <time>2023-02-11T10:02:38.000Z</time>
      </trkpt>
      <trkpt lat="41.889656" lon="-2.162854">
        <ele>993.4</ele>
        <time>2023-02-11T10:02:39.000Z</time>
      </trkpt>
      <trkpt lat="41.889619" lon="-2.162842">
        <ele>993.6</ele>
        <time>2023-02-11T10:02:40.000Z</time>
      </trkpt>
      <trkpt lat="41.889582" lon="-2.16283">
        <ele>993.8</ele>
        <time>2023-02-11T10:02:41.000Z</time>
      </trkpt>
      <trkpt lat="41.889543" lon="-2.162819">
        <ele>994.2</ele>
        <time>2023-02-11T10:02:42.000Z</time>
      </trkpt>
      <trkpt lat="41.889501" lon="-2.162809">
        <ele>994.4</ele>
        <time>2023-02-11T10:02:43.000Z</time>
      </trkpt>
      <trkpt lat="41.889459" lon="-2.162801">
        <ele>994.8</ele>
        <time>2023-02-11T10:02:44.000Z</time>
      </trkpt>
      <trkpt lat="41.889416" lon="-2.162792">
        <ele>994.8</ele>
        <time>2023-02-11T10:02:45.000Z</time>
      </trkpt>
      <trkpt lat="41.889375" lon="-2.16278">
        <ele>995.2</ele>
        <time>2023-02-11T10:02:46.000Z</time>
      </trkpt>
      <trkpt lat="41.889334" lon="-2.162768">
        <ele>995.4</ele>
        <time>2023-02-11T10:02:47.000Z</time>
      </trkpt>
      <trkpt lat="41.889294" lon="-2.162757">
        <ele>995.8</ele>
        <time>2023-02-11T10:02:48.000Z</time>
      </trkpt>
      <trkpt lat="41.889251" lon="-2.162747">
        <ele>996</ele>
        <time>2023-02-11T10:02:49.000Z</time>
      </trkpt>
      <trkpt lat="41.889211" lon="-2.162741">
        <ele>996</ele>
        <time>2023-02-11T10:02:50.000Z</time>
      </trkpt>
      <trkpt lat="41.889173" lon="-2.162738">
        <ele>996.2</ele>
        <time>2023-02-11T10:02:51.000Z</time>
      </trkpt>
      <trkpt lat="41.889135" lon="-2.162735">
        <ele>996.4</ele>
        <time>2023-02-11T10:02:52.000Z</time>
      </trkpt>
      <trkpt lat="41.889096" lon="-2.162731">
        <ele>996.6</ele>
        <time>2023-02-11T10:02:53.000Z</time>
      </trkpt>
      <trkpt lat="41.889057" lon="-2.162724">
        <ele>996.8</ele>
        <time>2023-02-11T10:02:54.000Z</time>
      </trkpt>
      <trkpt lat="41.889018" lon="-2.162716">
        <ele>997.2</ele>
        <time>2023-02-11T10:02:55.000Z</time>
      </trkpt>
      <trkpt lat="41.88898" lon="-2.162707">
        <ele>997.2</ele>
        <time>2023-02-11T10:02:56.000Z</time>
      </trkpt>
      <trkpt lat="41.888944" lon="-2.162698">
        <ele>997.8</ele>
        <time>2023-02-11T10:02:57.000Z</time>
      </trkpt>
      <trkpt lat="41.888906" lon="-2.162688">
        <ele>998.4</ele>
        <time>2023-02-11T10:02:58.000Z</time>
      </trkpt>
      <trkpt lat="41.888865" lon="-2.162681">
        <ele>998.4</ele>
        <time>2023-02-11T10:02:59.000Z</time>
      </trkpt>
      <trkpt lat="41.888824" lon="-2.162678">
        <ele>998.8</ele>
        <time>2023-02-11T10:03:00.000Z</time>
      </trkpt>
      <trkpt lat="41.888783" lon="-2.162676">
        <ele>999</ele>
        <time>2023-02-11T10:03:01.000Z</time>
      </trkpt>
      <trkpt lat="41.888742" lon="-2.162674">
        <ele>999.6</ele>
        <time>2023-02-11T10:03:02.000Z</time>
      </trkpt>
      <trkpt lat="41.888702" lon="-2.162668">
        <ele>999.8</ele>
        <time>2023-02-11T10:03:03.000Z</time>
      </trkpt>
      <trkpt lat="41.88866" lon="-2.16266">
        <ele>1000.4</ele>
        <time>2023-02-11T10:03:04.000Z</time>
      </trkpt>
      <trkpt lat="41.888617" lon="-2.162657">
        <ele>1000.6</ele>
        <time>2023-02-11T10:03:05.000Z</time>
      </trkpt>
      <trkpt lat="41.888574" lon="-2.162659">
        <ele>1001</ele>
        <time>2023-02-11T10:03:06.000Z</time>
      </trkpt>
      <trkpt lat="41.888531" lon="-2.162658">
        <ele>1001.4</ele>
        <time>2023-02-11T10:03:07.000Z</time>
      </trkpt>
      <trkpt lat="41.888488" lon="-2.162654">
        <ele>1001.4</ele>
        <time>2023-02-11T10:03:08.000Z</time>
      </trkpt>
      <trkpt lat="41.888447" lon="-2.162645">
        <ele>1001.6</ele>
        <time>2023-02-11T10:03:09.000Z</time>
      </trkpt>
      <trkpt lat="41.888404" lon="-2.162636">
        <ele>1001.6</ele>
        <time>2023-02-11T10:03:10.000Z</time>
      </trkpt>
      <trkpt lat="41.888362" lon="-2.162628">
        <ele>1002</ele>
        <time>2023-02-11T10:03:11.000Z</time>
      </trkpt>
      <trkpt lat="41.88832" lon="-2.162622">
        <ele>1002.2</ele>
        <time>2023-02-11T10:03:12.000Z</time>
      </trkpt>
      <trkpt lat="41.88828" lon="-2.162613">
        <ele>1002.2</ele>
        <time>2023-02-11T10:03:13.000Z</time>
      </trkpt>
      <trkpt lat="41.888239" lon="-2.162599">
        <ele>1002.4</ele>
        <time>2023-02-11T10:03:14.000Z</time>
      </trkpt>
      <trkpt lat="41.888197" lon="-2.162584">
        <ele>1003</ele>
        <time>2023-02-11T10:03:15.000Z</time>
      </trkpt>
      <trkpt lat="41.888154" lon="-2.162568">
        <ele>1003.2</ele>
        <time>2023-02-11T10:03:16.000Z</time>
      </trkpt>
      <trkpt lat="41.88811" lon="-2.162552">
        <ele>1003.4</ele>
        <time>2023-02-11T10:03:17.000Z</time>
      </trkpt>
      <trkpt lat="41.888068" lon="-2.162536">
        <ele>1003.4</ele>
        <time>2023-02-11T10:03:18.000Z</time>
      </trkpt>
      <trkpt lat="41.888025" lon="-2.162519">
        <ele>1003.6</ele>
        <time>2023-02-11T10:03:19.000Z</time>
      </trkpt>
      <trkpt lat="41.887984" lon="-2.162499">
        <ele>1004</ele>
        <time>2023-02-11T10:03:20.000Z</time>
      </trkpt>
      <trkpt lat="41.887943" lon="-2.162479">
        <ele>1004</ele>
        <time>2023-02-11T10:03:21.000Z</time>
      </trkpt>
      <trkpt lat="41.887903" lon="-2.162459">
        <ele>1004</ele>
        <time>2023-02-11T10:03:22.000Z</time>
      </trkpt>
      <trkpt lat="41.887861" lon="-2.162439">
        <ele>1004.4</ele>
        <time>2023-02-11T10:03:23.000Z</time>
      </trkpt>
      <trkpt lat="41.88782" lon="-2.16242">
        <ele>1004.8</ele>
        <time>2023-02-11T10:03:24.000Z</time>
      </trkpt>
      <trkpt lat="41.887779" lon="-2.1624">
        <ele>1005</ele>
        <time>2023-02-11T10:03:25.000Z</time>
      </trkpt>
      <trkpt lat="41.887739" lon="-2.16238">
        <ele>1005.2</ele>
        <time>2023-02-11T10:03:26.000Z</time>
      </trkpt>
      <trkpt lat="41.887701" lon="-2.162357">
        <ele>1005.4</ele>
        <time>2023-02-11T10:03:27.000Z</time>
      </trkpt>
      <trkpt lat="41.887662" lon="-2.162333">
        <ele>1005.6</ele>
        <time>2023-02-11T10:03:28.000Z</time>
      </trkpt>
      <trkpt lat="41.887624" lon="-2.16231">
        <ele>1005.8</ele>
        <time>2023-02-11T10:03:29.000Z</time>
      </trkpt>
      <trkpt lat="41.887585" lon="-2.162286">
        <ele>1005.8</ele>
        <time>2023-02-11T10:03:30.000Z</time>
      </trkpt>
      <trkpt lat="41.887545" lon="-2.162265">
        <ele>1006.2</ele>
        <time>2023-02-11T10:03:31.000Z</time>
      </trkpt>
      <trkpt lat="41.887505" lon="-2.162243">
        <ele>1006.6</ele>
        <time>2023-02-11T10:03:32.000Z</time>
      </trkpt>
      <trkpt lat="41.887466" lon="-2.162222">
        <ele>1006.8</ele>
        <time>2023-02-11T10:03:33.000Z</time>
      </trkpt>
      <trkpt lat="41.887426" lon="-2.162201">
        <ele>1007</ele>
        <time>2023-02-11T10:03:34.000Z</time>
      </trkpt>
      <trkpt lat="41.887386" lon="-2.162182">
        <ele>1007.2</ele>
        <time>2023-02-11T10:03:35.000Z</time>
      </trkpt>
      <trkpt lat="41.887345" lon="-2.162167">
        <ele>1007.6</ele>
        <time>2023-02-11T10:03:36.000Z</time>
      </trkpt>
      <trkpt lat="41.887303" lon="-2.162151">
        <ele>1007.8</ele>
        <time>2023-02-11T10:03:37.000Z</time>
      </trkpt>
      <trkpt lat="41.88726" lon="-2.162135">
        <ele>1008.4</ele>
        <time>2023-02-11T10:03:38.000Z</time>
      </trkpt>
      <trkpt lat="41.88722" lon="-2.162116">
        <ele>1008.6</ele>
        <time>2023-02-11T10:03:39.000Z</time>
      </trkpt>
      <trkpt lat="41.887177" lon="-2.1621">
        <ele>1009</ele>
        <time>2023-02-11T10:03:40.000Z</time>
      </trkpt>
      <trkpt lat="41.887134" lon="-2.162089">
        <ele>1009</ele>
        <time>2023-02-11T10:03:41.000Z</time>
      </trkpt>
      <trkpt lat="41.887088" lon="-2.162079">
        <ele>1009.2</ele>
        <time>2023-02-11T10:03:42.000Z</time>
      </trkpt>
      <trkpt lat="41.887041" lon="-2.162068">
        <ele>1009.4</ele>
        <time>2023-02-11T10:03:43.000Z</time>
      </trkpt>
      <trkpt lat="41.886993" lon="-2.162058">
        <ele>1009.8</ele>
        <time>2023-02-11T10:03:44.000Z</time>
      </trkpt>
      <trkpt lat="41.886945" lon="-2.162047">
        <ele>1010</ele>
        <time>2023-02-11T10:03:45.000Z</time>
      </trkpt>
      <trkpt lat="41.886897" lon="-2.162034">
        <ele>1010.2</ele>
        <time>2023-02-11T10:03:46.000Z</time>
      </trkpt>
      <trkpt lat="41.886851" lon="-2.162022">
        <ele>1010.4</ele>
        <time>2023-02-11T10:03:47.000Z</time>
      </trkpt>
      <trkpt lat="41.886807" lon="-2.162007">
        <ele>1010.4</ele>
        <time>2023-02-11T10:03:48.000Z</time>
      </trkpt>
      <trkpt lat="41.886764" lon="-2.161988">
        <ele>1010.6</ele>
        <time>2023-02-11T10:03:49.000Z</time>
      </trkpt>
      <trkpt lat="41.886723" lon="-2.161968">
        <ele>1011</ele>
        <time>2023-02-11T10:03:50.000Z</time>
      </trkpt>
      <trkpt lat="41.886682" lon="-2.161946">
        <ele>1011.2</ele>
        <time>2023-02-11T10:03:51.000Z</time>
      </trkpt>
      <trkpt lat="41.88664" lon="-2.161922">
        <ele>1011.4</ele>
        <time>2023-02-11T10:03:52.000Z</time>
      </trkpt>
      <trkpt lat="41.886601" lon="-2.161896">
        <ele>1011.6</ele>
        <time>2023-02-11T10:03:53.000Z</time>
      </trkpt>
      <trkpt lat="41.88656" lon="-2.161869">
        <ele>1011.8</ele>
        <time>2023-02-11T10:03:54.000Z</time>
      </trkpt>
      <trkpt lat="41.886518" lon="-2.161842">
        <ele>1011.8</ele>
        <time>2023-02-11T10:03:55.000Z</time>
      </trkpt>
      <trkpt lat="41.886476" lon="-2.161816">
        <ele>1012.2</ele>
        <time>2023-02-11T10:03:56.000Z</time>
      </trkpt>
      <trkpt lat="41.886436" lon="-2.16179">
        <ele>1012.2</ele>
        <time>2023-02-11T10:03:57.000Z</time>
      </trkpt>
      <trkpt lat="41.886396" lon="-2.161767">
        <ele>1012.6</ele>
        <time>2023-02-11T10:03:58.000Z</time>
      </trkpt>
      <trkpt lat="41.886356" lon="-2.161744">
        <ele>1012.8</ele>
        <time>2023-02-11T10:03:59.000Z</time>
      </trkpt>
      <trkpt lat="41.886316" lon="-2.161719">
        <ele>1013</ele>
        <time>2023-02-11T10:04:00.000Z</time>
      </trkpt>
      <trkpt lat="41.886276" lon="-2.161695">
        <ele>1013.2</ele>
        <time>2023-02-11T10:04:01.000Z</time>
      </trkpt>
      <trkpt lat="41.886236" lon="-2.16167">
        <ele>1013.4</ele>
        <time>2023-02-11T10:04:02.000Z</time>
      </trkpt>
      <trkpt lat="41.886196" lon="-2.161645">
        <ele>1013.4</ele>
        <time>2023-02-11T10:04:03.000Z</time>
      </trkpt>
      <trkpt lat="41.886154" lon="-2.161618">
        <ele>1013.8</ele>
        <time>2023-02-11T10:04:04.000Z</time>
      </trkpt>
      <trkpt lat="41.886115" lon="-2.161592">
        <ele>1014.2</ele>
        <time>2023-02-11T10:04:05.000Z</time>
      </trkpt>
      <trkpt lat="41.886075" lon="-2.161565">
        <ele>1014.4</ele>
        <time>2023-02-11T10:04:06.000Z</time>
      </trkpt>
      <trkpt lat="41.886037" lon="-2.161539">
        <ele>1014.8</ele>
        <time>2023-02-11T10:04:07.000Z</time>
      </trkpt>
      <trkpt lat="41.885998" lon="-2.161513">
        <ele>1014.8</ele>
        <time>2023-02-11T10:04:08.000Z</time>
      </trkpt>
      <trkpt lat="41.885958" lon="-2.161486">
        <ele>1015.2</ele>
        <time>2023-02-11T10:04:09.000Z</time>
      </trkpt>
      <trkpt lat="41.885917" lon="-2.16146">
        <ele>1015.4</ele>
        <time>2023-02-11T10:04:10.000Z</time>
      </trkpt>
      <trkpt lat="41.885878" lon="-2.161432">
        <ele>1015.6</ele>
        <time>2023-02-11T10:04:11.000Z</time>
      </trkpt>
      <trkpt lat="41.885837" lon="-2.161405">
        <ele>1015.8</ele>
        <time>2023-02-11T10:04:12.000Z</time>
      </trkpt>
      <trkpt lat="41.885798" lon="-2.161375">
        <ele>1016</ele>
        <time>2023-02-11T10:04:13.000Z</time>
      </trkpt>
      <trkpt lat="41.88576" lon="-2.161345">
        <ele>1016.4</ele>
        <time>2023-02-11T10:04:14.000Z</time>
      </trkpt>
      <trkpt lat="41.885723" lon="-2.161313">
        <ele>1016.6</ele>
        <time>2023-02-11T10:04:15.000Z</time>
      </trkpt>
      <trkpt lat="41.885685" lon="-2.16128">
        <ele>1016.8</ele>
        <time>2023-02-11T10:04:16.000Z</time>
      </trkpt>
      <trkpt lat="41.885648" lon="-2.161249">
        <ele>1017</ele>
        <time>2023-02-11T10:04:17.000Z</time>
      </trkpt>
      <trkpt lat="41.885611" lon="-2.16122">
        <ele>1017.4</ele>
        <time>2023-02-11T10:04:18.000Z</time>
      </trkpt>
      <trkpt lat="41.885574" lon="-2.161193">
        <ele>1017.4</ele>
        <time>2023-02-11T10:04:19.000Z</time>
      </trkpt>
      <trkpt lat="41.885543" lon="-2.161159">
        <ele>1017.6</ele>
        <time>2023-02-11T10:04:20.000Z</time>
      </trkpt>
      <trkpt lat="41.885512" lon="-2.161124">
        <ele>1017.8</ele>
        <time>2023-02-11T10:04:21.000Z</time>
      </trkpt>
      <trkpt lat="41.885478" lon="-2.161092">
        <ele>1018.4</ele>
        <time>2023-02-11T10:04:22.000Z</time>
      </trkpt>
      <trkpt lat="41.885449" lon="-2.16106">
        <ele>1018.8</ele>
        <time>2023-02-11T10:04:23.000Z</time>
      </trkpt>
      <trkpt lat="41.885423" lon="-2.16103">
        <ele>1019</ele>
        <time>2023-02-11T10:04:24.000Z</time>
      </trkpt>
      <trkpt lat="41.885393" lon="-2.160995">
        <ele>1019.2</ele>
        <time>2023-02-11T10:04:25.000Z</time>
      </trkpt>
      <trkpt lat="41.885359" lon="-2.160962">
        <ele>1019.2</ele>
        <time>2023-02-11T10:04:26.000Z</time>
      </trkpt>
      <trkpt lat="41.885322" lon="-2.160931">
        <ele>1019.4</ele>
        <time>2023-02-11T10:04:27.000Z</time>
      </trkpt>
      <trkpt lat="41.885287" lon="-2.160898">
        <ele>1019.6</ele>
        <time>2023-02-11T10:04:28.000Z</time>
      </trkpt>
      <trkpt lat="41.885254" lon="-2.16086">
        <ele>1019.8</ele>
        <time>2023-02-11T10:04:29.000Z</time>
      </trkpt>
      <trkpt lat="41.885225" lon="-2.160821">
        <ele>1019.8</ele>
        <time>2023-02-11T10:04:30.000Z</time>
      </trkpt>
      <trkpt lat="41.885197" lon="-2.160782">
        <ele>1020</ele>
        <time>2023-02-11T10:04:31.000Z</time>
      </trkpt>
      <trkpt lat="41.885168" lon="-2.160744">
        <ele>1020.2</ele>
        <time>2023-02-11T10:04:32.000Z</time>
      </trkpt>
      <trkpt lat="41.885139" lon="-2.160708">
        <ele>1020.2</ele>
        <time>2023-02-11T10:04:33.000Z</time>
      </trkpt>
      <trkpt lat="41.885109" lon="-2.160671">
        <ele>1020.6</ele>
        <time>2023-02-11T10:04:34.000Z</time>
      </trkpt>
      <trkpt lat="41.88508" lon="-2.160632">
        <ele>1020.8</ele>
        <time>2023-02-11T10:04:35.000Z</time>
      </trkpt>
      <trkpt lat="41.885054" lon="-2.160588">
        <ele>1021</ele>
        <time>2023-02-11T10:04:36.000Z</time>
      </trkpt>
      <trkpt lat="41.885031" lon="-2.160544">
        <ele>1021.2</ele>
        <time>2023-02-11T10:04:37.000Z</time>
      </trkpt>
      <trkpt lat="41.885008" lon="-2.160496">
        <ele>1021.4</ele>
        <time>2023-02-11T10:04:38.000Z</time>
      </trkpt>
      <trkpt lat="41.884985" lon="-2.160447">
        <ele>1021.6</ele>
        <time>2023-02-11T10:04:39.000Z</time>
      </trkpt>
      <trkpt lat="41.884959" lon="-2.160402">
        <ele>1022</ele>
        <time>2023-02-11T10:04:40.000Z</time>
      </trkpt>
      <trkpt lat="41.884933" lon="-2.160355">
        <ele>1022.2</ele>
        <time>2023-02-11T10:04:41.000Z</time>
      </trkpt>
      <trkpt lat="41.884907" lon="-2.160308">
        <ele>1022.4</ele>
        <time>2023-02-11T10:04:42.000Z</time>
      </trkpt>
      <trkpt lat="41.884884" lon="-2.160264">
        <ele>1022.6</ele>
        <time>2023-02-11T10:04:43.000Z</time>
      </trkpt>
      <trkpt lat="41.884862" lon="-2.160221">
        <ele>1023</ele>
        <time>2023-02-11T10:04:44.000Z</time>
      </trkpt>
      <trkpt lat="41.884837" lon="-2.160179">
        <ele>1023.2</ele>
        <time>2023-02-11T10:04:45.000Z</time>
      </trkpt>
      <trkpt lat="41.884811" lon="-2.160138">
        <ele>1023.4</ele>
        <time>2023-02-11T10:04:46.000Z</time>
      </trkpt>
      <trkpt lat="41.884784" lon="-2.160099">
        <ele>1023.8</ele>
        <time>2023-02-11T10:04:47.000Z</time>
      </trkpt>
      <trkpt lat="41.884757" lon="-2.160062">
        <ele>1024</ele>
        <time>2023-02-11T10:04:48.000Z</time>
      </trkpt>
      <trkpt lat="41.88473" lon="-2.160029">
        <ele>1024.6</ele>
        <time>2023-02-11T10:04:49.000Z</time>
      </trkpt>
      <trkpt lat="41.884702" lon="-2.159998">
        <ele>1024.6</ele>
        <time>2023-02-11T10:04:50.000Z</time>
      </trkpt>
      <trkpt lat="41.884673" lon="-2.159965">
        <ele>1024.8</ele>
        <time>2023-02-11T10:04:51.000Z</time>
      </trkpt>
      <trkpt lat="41.884646" lon="-2.159932">
        <ele>1025</ele>
        <time>2023-02-11T10:04:52.000Z</time>
      </trkpt>
      <trkpt lat="41.884617" lon="-2.1599">
        <ele>1025.2</ele>
        <time>2023-02-11T10:04:53.000Z</time>
      </trkpt>
      <trkpt lat="41.884589" lon="-2.159869">
        <ele>1025.4</ele>
        <time>2023-02-11T10:04:54.000Z</time>
      </trkpt>
      <trkpt lat="41.88456" lon="-2.159836">
        <ele>1025.6</ele>
        <time>2023-02-11T10:04:55.000Z</time>
      </trkpt>
      <trkpt lat="41.884531" lon="-2.159804">
        <ele>1026.2</ele>
        <time>2023-02-11T10:04:56.000Z</time>
      </trkpt>
      <trkpt lat="41.884503" lon="-2.159771">
        <ele>1026.4</ele>
        <time>2023-02-11T10:04:57.000Z</time>
      </trkpt>
      <trkpt lat="41.884475" lon="-2.159738">
        <ele>1026.8</ele>
        <time>2023-02-11T10:04:58.000Z</time>
      </trkpt>
      <trkpt lat="41.884448" lon="-2.159704">
        <ele>1027</ele>
        <time>2023-02-11T10:04:59.000Z</time>
      </trkpt>
      <trkpt lat="41.88442" lon="-2.15967">
        <ele>1027.2</ele>
        <time>2023-02-11T10:05:00.000Z</time>
      </trkpt>
      <trkpt lat="41.884392" lon="-2.159636">
        <ele>1027.6</ele>
        <time>2023-02-11T10:05:01.000Z</time>
      </trkpt>
      <trkpt lat="41.884363" lon="-2.159604">
        <ele>1027.6</ele>
        <time>2023-02-11T10:05:02.000Z</time>
      </trkpt>
      <trkpt lat="41.884335" lon="-2.159574">
        <ele>1028.2</ele>
        <time>2023-02-11T10:05:03.000Z</time>
      </trkpt>
      <trkpt lat="41.884308" lon="-2.159545">
        <ele>1028.2</ele>
        <time>2023-02-11T10:05:04.000Z</time>
      </trkpt>
      <trkpt lat="41.884281" lon="-2.159516">
        <ele>1028.6</ele>
        <time>2023-02-11T10:05:05.000Z</time>
      </trkpt>
      <trkpt lat="41.884252" lon="-2.159488">
        <ele>1028.8</ele>
        <time>2023-02-11T10:05:06.000Z</time>
      </trkpt>
      <trkpt lat="41.884221" lon="-2.159461">
        <ele>1029</ele>
        <time>2023-02-11T10:05:07.000Z</time>
      </trkpt>
      <trkpt lat="41.884194" lon="-2.159437">
        <ele>1029</ele>
        <time>2023-02-11T10:05:08.000Z</time>
      </trkpt>
      <trkpt lat="41.884162" lon="-2.159409">
        <ele>1029.2</ele>
        <time>2023-02-11T10:05:09.000Z</time>
      </trkpt>
      <trkpt lat="41.88413" lon="-2.159382">
        <ele>1029.4</ele>
        <time>2023-02-11T10:05:10.000Z</time>
      </trkpt>
      <trkpt lat="41.884096" lon="-2.159356">
        <ele>1029.6</ele>
        <time>2023-02-11T10:05:11.000Z</time>
      </trkpt>
      <trkpt lat="41.884061" lon="-2.159332">
        <ele>1029.8</ele>
        <time>2023-02-11T10:05:12.000Z</time>
      </trkpt>
      <trkpt lat="41.884026" lon="-2.159312">
        <ele>1030</ele>
        <time>2023-02-11T10:05:13.000Z</time>
      </trkpt>
      <trkpt lat="41.88399" lon="-2.159292">
        <ele>1030.4</ele>
        <time>2023-02-11T10:05:14.000Z</time>
      </trkpt>
      <trkpt lat="41.883956" lon="-2.159272">
        <ele>1030.4</ele>
        <time>2023-02-11T10:05:15.000Z</time>
      </trkpt>
      <trkpt lat="41.88392" lon="-2.159253">
        <ele>1030.8</ele>
        <time>2023-02-11T10:05:16.000Z</time>
      </trkpt>
      <trkpt lat="41.883882" lon="-2.159234">
        <ele>1030.8</ele>
        <time>2023-02-11T10:05:17.000Z</time>
      </trkpt>
      <trkpt lat="41.883844" lon="-2.159216">
        <ele>1031.2</ele>
        <time>2023-02-11T10:05:18.000Z</time>
      </trkpt>
      <trkpt lat="41.883806" lon="-2.159194">
        <ele>1031.6</ele>
        <time>2023-02-11T10:05:19.000Z</time>
      </trkpt>
      <trkpt lat="41.88377" lon="-2.159169">
        <ele>1032.2</ele>
        <time>2023-02-11T10:05:20.000Z</time>
      </trkpt>
      <trkpt lat="41.883737" lon="-2.159139">
        <ele>1032.4</ele>
        <time>2023-02-11T10:05:21.000Z</time>
      </trkpt>
      <trkpt lat="41.883704" lon="-2.159108">
        <ele>1032.6</ele>
        <time>2023-02-11T10:05:22.000Z</time>
      </trkpt>
      <trkpt lat="41.88367" lon="-2.159073">
        <ele>1033</ele>
        <time>2023-02-11T10:05:23.000Z</time>
      </trkpt>
      <trkpt lat="41.883638" lon="-2.159036">
        <ele>1033</ele>
        <time>2023-02-11T10:05:24.000Z</time>
      </trkpt>
      <trkpt lat="41.883611" lon="-2.158996">
        <ele>1033.2</ele>
        <time>2023-02-11T10:05:25.000Z</time>
      </trkpt>
      <trkpt lat="41.883586" lon="-2.158955">
        <ele>1033.4</ele>
        <time>2023-02-11T10:05:26.000Z</time>
      </trkpt>
      <trkpt lat="41.883563" lon="-2.158912">
        <ele>1033.6</ele>
        <time>2023-02-11T10:05:27.000Z</time>
      </trkpt>
      <trkpt lat="41.883542" lon="-2.158866">
        <ele>1033.6</ele>
        <time>2023-02-11T10:05:28.000Z</time>
      </trkpt>
      <trkpt lat="41.883524" lon="-2.15882">
        <ele>1034</ele>
        <time>2023-02-11T10:05:29.000Z</time>
      </trkpt>
      <trkpt lat="41.883508" lon="-2.158774">
        <ele>1034.2</ele>
        <time>2023-02-11T10:05:30.000Z</time>
      </trkpt>
      <trkpt lat="41.883491" lon="-2.15873">
        <ele>1034.6</ele>
        <time>2023-02-11T10:05:31.000Z</time>
      </trkpt>
      <trkpt lat="41.883472" lon="-2.158686">
        <ele>1034.6</ele>
        <time>2023-02-11T10:05:32.000Z</time>
      </trkpt>
      <trkpt lat="41.883454" lon="-2.158644">
        <ele>1034.8</ele>
        <time>2023-02-11T10:05:33.000Z</time>
      </trkpt>
      <trkpt lat="41.883438" lon="-2.158602">
        <ele>1034.8</ele>
        <time>2023-02-11T10:05:34.000Z</time>
      </trkpt>
      <trkpt lat="41.883422" lon="-2.158558">
        <ele>1035.2</ele>
        <time>2023-02-11T10:05:35.000Z</time>
      </trkpt>
      <trkpt lat="41.883406" lon="-2.158515">
        <ele>1035.6</ele>
        <time>2023-02-11T10:05:36.000Z</time>
      </trkpt>
      <trkpt lat="41.883387" lon="-2.15847">
        <ele>1035.8</ele>
        <time>2023-02-11T10:05:37.000Z</time>
      </trkpt>
      <trkpt lat="41.883367" lon="-2.158423">
        <ele>1036.2</ele>
        <time>2023-02-11T10:05:38.000Z</time>
      </trkpt>
      <trkpt lat="41.883348" lon="-2.158376">
        <ele>1036.4</ele>
        <time>2023-02-11T10:05:39.000Z</time>
      </trkpt>
      <trkpt lat="41.88333" lon="-2.15833">
        <ele>1037</ele>
        <time>2023-02-11T10:05:40.000Z</time>
      </trkpt>
      <trkpt lat="41.88331" lon="-2.158284">
        <ele>1037.2</ele>
        <time>2023-02-11T10:05:41.000Z</time>
      </trkpt>
      <trkpt lat="41.883289" lon="-2.158239">
        <ele>1037.4</ele>
        <time>2023-02-11T10:05:42.000Z</time>
      </trkpt>
      <trkpt lat="41.883262" lon="-2.1582">
        <ele>1037.8</ele>
        <time>2023-02-11T10:05:43.000Z</time>
      </trkpt>
      <trkpt lat="41.883233" lon="-2.158166">
        <ele>1038</ele>
        <time>2023-02-11T10:05:44.000Z</time>
      </trkpt>
      <trkpt lat="41.8832" lon="-2.15814">
        <ele>1038.2</ele>
        <time>2023-02-11T10:05:45.000Z</time>
      </trkpt>
      <trkpt lat="41.883166" lon="-2.158119">
        <ele>1038.2</ele>
        <time>2023-02-11T10:05:46.000Z</time>
      </trkpt>
      <trkpt lat="41.883129" lon="-2.158101">
        <ele>1038.6</ele>
        <time>2023-02-11T10:05:47.000Z</time>
      </trkpt>
      <trkpt lat="41.883091" lon="-2.158086">
        <ele>1038.6</ele>
        <time>2023-02-11T10:05:48.000Z</time>
      </trkpt>
      <trkpt lat="41.883055" lon="-2.158074">
        <ele>1038.8</ele>
        <time>2023-02-11T10:05:49.000Z</time>
      </trkpt>
      <trkpt lat="41.883019" lon="-2.15806">
        <ele>1039.2</ele>
        <time>2023-02-11T10:05:50.000Z</time>
      </trkpt>
      <trkpt lat="41.882981" lon="-2.158045">
        <ele>1039.4</ele>
        <time>2023-02-11T10:05:51.000Z</time>
      </trkpt>
      <trkpt lat="41.882944" lon="-2.158027">
        <ele>1039.6</ele>
        <time>2023-02-11T10:05:52.000Z</time>
      </trkpt>
      <trkpt lat="41.88291" lon="-2.158001">
        <ele>1039.6</ele>
        <time>2023-02-11T10:05:53.000Z</time>
      </trkpt>
      <trkpt lat="41.88288" lon="-2.157971">
        <ele>1040</ele>
        <time>2023-02-11T10:05:54.000Z</time>
      </trkpt>
      <trkpt lat="41.882849" lon="-2.157941">
        <ele>1040.2</ele>
        <time>2023-02-11T10:05:55.000Z</time>
      </trkpt>
      <trkpt lat="41.882817" lon="-2.15791">
        <ele>1040.4</ele>
        <time>2023-02-11T10:05:56.000Z</time>
      </trkpt>
      <trkpt lat="41.882787" lon="-2.157878">
        <ele>1040.6</ele>
        <time>2023-02-11T10:05:57.000Z</time>
      </trkpt>
      <trkpt lat="41.882759" lon="-2.157845">
        <ele>1041</ele>
        <time>2023-02-11T10:05:58.000Z</time>
      </trkpt>
      <trkpt lat="41.882735" lon="-2.157809">
        <ele>1041.2</ele>
        <time>2023-02-11T10:05:59.000Z</time>
      </trkpt>
      <trkpt lat="41.882713" lon="-2.157774">
        <ele>1041.4</ele>
        <time>2023-02-11T10:06:00.000Z</time>
      </trkpt>
      <trkpt lat="41.882693" lon="-2.157736">
        <ele>1041.8</ele>
        <time>2023-02-11T10:06:01.000Z</time>
      </trkpt>
      <trkpt lat="41.882674" lon="-2.157696">
        <ele>1042</ele>
        <time>2023-02-11T10:06:02.000Z</time>
      </trkpt>
      <trkpt lat="41.882657" lon="-2.157655">
        <ele>1042.2</ele>
        <time>2023-02-11T10:06:03.000Z</time>
      </trkpt>
      <trkpt lat="41.882639" lon="-2.157613">
        <ele>1042.4</ele>
        <time>2023-02-11T10:06:04.000Z</time>
      </trkpt>
      <trkpt lat="41.88262" lon="-2.157573">
        <ele>1042.6</ele>
        <time>2023-02-11T10:06:05.000Z</time>
      </trkpt>
      <trkpt lat="41.882599" lon="-2.157537">
        <ele>1042.8</ele>
        <time>2023-02-11T10:06:06.000Z</time>
      </trkpt>
      <trkpt lat="41.882577" lon="-2.157501">
        <ele>1043.2</ele>
        <time>2023-02-11T10:06:07.000Z</time>
      </trkpt>
      <trkpt lat="41.882552" lon="-2.157468">
        <ele>1043.4</ele>
        <time>2023-02-11T10:06:08.000Z</time>
      </trkpt>
      <trkpt lat="41.882523" lon="-2.157438">
        <ele>1043.6</ele>
        <time>2023-02-11T10:06:09.000Z</time>
      </trkpt>
      <trkpt lat="41.882494" lon="-2.157411">
        <ele>1044.2</ele>
        <time>2023-02-11T10:06:10.000Z</time>
      </trkpt>
      <trkpt lat="41.882463" lon="-2.157384">
        <ele>1044.4</ele>
        <time>2023-02-11T10:06:11.000Z</time>
      </trkpt>
      <trkpt lat="41.882431" lon="-2.157364">
        <ele>1044.6</ele>
        <time>2023-02-11T10:06:12.000Z</time>
      </trkpt>
      <trkpt lat="41.882396" lon="-2.157346">
        <ele>1044.8</ele>
        <time>2023-02-11T10:06:13.000Z</time>
      </trkpt>
      <trkpt lat="41.882361" lon="-2.157328">
        <ele>1045.2</ele>
        <time>2023-02-11T10:06:14.000Z</time>
      </trkpt>
      <trkpt lat="41.882324" lon="-2.157311">
        <ele>1045.4</ele>
        <time>2023-02-11T10:06:15.000Z</time>
      </trkpt>
      <trkpt lat="41.882287" lon="-2.157297">
        <ele>1045.6</ele>
        <time>2023-02-11T10:06:16.000Z</time>
      </trkpt>
      <trkpt lat="41.882252" lon="-2.157287">
        <ele>1045.8</ele>
        <time>2023-02-11T10:06:17.000Z</time>
      </trkpt>
      <trkpt lat="41.882215" lon="-2.157277">
        <ele>1046</ele>
        <time>2023-02-11T10:06:18.000Z</time>
      </trkpt>
      <trkpt lat="41.882177" lon="-2.157264">
        <ele>1046.4</ele>
        <time>2023-02-11T10:06:19.000Z</time>
      </trkpt>
      <trkpt lat="41.882136" lon="-2.157255">
        <ele>1046.4</ele>
        <time>2023-02-11T10:06:20.000Z</time>
      </trkpt>
      <trkpt lat="41.882095" lon="-2.15725">
        <ele>1046.6</ele>
        <time>2023-02-11T10:06:21.000Z</time>
      </trkpt>
      <trkpt lat="41.882055" lon="-2.157244">
        <ele>1046.8</ele>
        <time>2023-02-11T10:06:22.000Z</time>
      </trkpt>
      <trkpt lat="41.882014" lon="-2.157237">
        <ele>1047.2</ele>
        <time>2023-02-11T10:06:23.000Z</time>
      </trkpt>
      <trkpt lat="41.881974" lon="-2.157227">
        <ele>1047.2</ele>
        <time>2023-02-11T10:06:24.000Z</time>
      </trkpt>
      <trkpt lat="41.881937" lon="-2.157214">
        <ele>1047.6</ele>
        <time>2023-02-11T10:06:25.000Z</time>
      </trkpt>
      <trkpt lat="41.8819" lon="-2.1572">
        <ele>1047.8</ele>
        <time>2023-02-11T10:06:26.000Z</time>
      </trkpt>
      <trkpt lat="41.881863" lon="-2.157183">
        <ele>1048</ele>
        <time>2023-02-11T10:06:27.000Z</time>
      </trkpt>
      <trkpt lat="41.881827" lon="-2.157164">
        <ele>1048.2</ele>
        <time>2023-02-11T10:06:28.000Z</time>
      </trkpt>
      <trkpt lat="41.881797" lon="-2.157141">
        <ele>1048.4</ele>
        <time>2023-02-11T10:06:29.000Z</time>
      </trkpt>
      <trkpt lat="41.881767" lon="-2.157114">
        <ele>1048.8</ele>
        <time>2023-02-11T10:06:30.000Z</time>
      </trkpt>
      <trkpt lat="41.88174" lon="-2.157084">
        <ele>1048.8</ele>
        <time>2023-02-11T10:06:31.000Z</time>
      </trkpt>
      <trkpt lat="41.881712" lon="-2.157049">
        <ele>1049</ele>
        <time>2023-02-11T10:06:32.000Z</time>
      </trkpt>
      <trkpt lat="41.881685" lon="-2.157008">
        <ele>1049.2</ele>
        <time>2023-02-11T10:06:33.000Z</time>
      </trkpt>
      <trkpt lat="41.881664" lon="-2.156963">
        <ele>1049.6</ele>
        <time>2023-02-11T10:06:34.000Z</time>
      </trkpt>
      <trkpt lat="41.881648" lon="-2.156919">
        <ele>1049.8</ele>
        <time>2023-02-11T10:06:35.000Z</time>
      </trkpt>
      <trkpt lat="41.881638" lon="-2.156871">
        <ele>1050.2</ele>
        <time>2023-02-11T10:06:36.000Z</time>
      </trkpt>
      <trkpt lat="41.88163" lon="-2.156822">
        <ele>1050.2</ele>
        <time>2023-02-11T10:06:37.000Z</time>
      </trkpt>
      <trkpt lat="41.881624" lon="-2.156772">
        <ele>1050.4</ele>
        <time>2023-02-11T10:06:38.000Z</time>
      </trkpt>
      <trkpt lat="41.881621" lon="-2.156722">
        <ele>1050.6</ele>
        <time>2023-02-11T10:06:39.000Z</time>
      </trkpt>
      <trkpt lat="41.881623" lon="-2.15667">
        <ele>1050.8</ele>
        <time>2023-02-11T10:06:40.000Z</time>
      </trkpt>
      <trkpt lat="41.88163" lon="-2.156614">
        <ele>1051</ele>
        <time>2023-02-11T10:06:41.000Z</time>
      </trkpt>
      <trkpt lat="41.881647" lon="-2.156561">
        <ele>1051.2</ele>
        <time>2023-02-11T10:06:42.000Z</time>
      </trkpt>
      <trkpt lat="41.881669" lon="-2.156507">
        <ele>1051.4</ele>
        <time>2023-02-11T10:06:43.000Z</time>
      </trkpt>
      <trkpt lat="41.881697" lon="-2.156455">
        <ele>1051.6</ele>
        <time>2023-02-11T10:06:44.000Z</time>
      </trkpt>
      <trkpt lat="41.881725" lon="-2.156407">
        <ele>1051.8</ele>
        <time>2023-02-11T10:06:45.000Z</time>
      </trkpt>
      <trkpt lat="41.881759" lon="-2.156364">
        <ele>1051.8</ele>
        <time>2023-02-11T10:06:46.000Z</time>
      </trkpt>
      <trkpt lat="41.881796" lon="-2.156326">
        <ele>1052.2</ele>
        <time>2023-02-11T10:06:47.000Z</time>
      </trkpt>
      <trkpt lat="41.881837" lon="-2.156292">
        <ele>1052.4</ele>
        <time>2023-02-11T10:06:48.000Z</time>
      </trkpt>
      <trkpt lat="41.881879" lon="-2.15626">
        <ele>1052.6</ele>
        <time>2023-02-11T10:06:49.000Z</time>
      </trkpt>
      <trkpt lat="41.881921" lon="-2.156227">
        <ele>1053</ele>
        <time>2023-02-11T10:06:50.000Z</time>
      </trkpt>
      <trkpt lat="41.881963" lon="-2.156193">
        <ele>1053.2</ele>
        <time>2023-02-11T10:06:51.000Z</time>
      </trkpt>
      <trkpt lat="41.882004" lon="-2.156158">
        <ele>1053.4</ele>
        <time>2023-02-11T10:06:52.000Z</time>
      </trkpt>
      <trkpt lat="41.88204" lon="-2.156119">
        <ele>1053.4</ele>
        <time>2023-02-11T10:06:53.000Z</time>
      </trkpt>
      <trkpt lat="41.882078" lon="-2.156079">
        <ele>1053.8</ele>
        <time>2023-02-11T10:06:54.000Z</time>
      </trkpt>
      <trkpt lat="41.882114" lon="-2.156039">
        <ele>1054</ele>
        <time>2023-02-11T10:06:55.000Z</time>
      </trkpt>
      <trkpt lat="41.882148" lon="-2.155994">
        <ele>1054.2</ele>
        <time>2023-02-11T10:06:56.000Z</time>
      </trkpt>
      <trkpt lat="41.882177" lon="-2.155943">
        <ele>1054.6</ele>
        <time>2023-02-11T10:06:57.000Z</time>
      </trkpt>
      <trkpt lat="41.882204" lon="-2.155891">
        <ele>1054.8</ele>
        <time>2023-02-11T10:06:58.000Z</time>
      </trkpt>
      <trkpt lat="41.88223" lon="-2.155838">
        <ele>1055.2</ele>
        <time>2023-02-11T10:06:59.000Z</time>
      </trkpt>
      <trkpt lat="41.882255" lon="-2.155786">
        <ele>1055.6</ele>
        <time>2023-02-11T10:07:00.000Z</time>
      </trkpt>
      <trkpt lat="41.882277" lon="-2.155734">
        <ele>1055.8</ele>
        <time>2023-02-11T10:07:01.000Z</time>
      </trkpt>
      <trkpt lat="41.882296" lon="-2.155679">
        <ele>1056.2</ele>
        <time>2023-02-11T10:07:02.000Z</time>
      </trkpt>
      <trkpt lat="41.882311" lon="-2.155624">
        <ele>1056.4</ele>
        <time>2023-02-11T10:07:03.000Z</time>
      </trkpt>
      <trkpt lat="41.882326" lon="-2.155569">
        <ele>1056.6</ele>
        <time>2023-02-11T10:07:04.000Z</time>
      </trkpt>
      <trkpt lat="41.882339" lon="-2.155514">
        <ele>1056.8</ele>
        <time>2023-02-11T10:07:05.000Z</time>
      </trkpt>
      <trkpt lat="41.882351" lon="-2.155458">
        <ele>1057</ele>
        <time>2023-02-11T10:07:06.000Z</time>
      </trkpt>
      <trkpt lat="41.882363" lon="-2.155403">
        <ele>1057.6</ele>
        <time>2023-02-11T10:07:07.000Z</time>
      </trkpt>
      <trkpt lat="41.882373" lon="-2.155346">
        <ele>1058</ele>
        <time>2023-02-11T10:07:08.000Z</time>
      </trkpt>
      <trkpt lat="41.882384" lon="-2.155287">
        <ele>1058.2</ele>
        <time>2023-02-11T10:07:09.000Z</time>
      </trkpt>
      <trkpt lat="41.882395" lon="-2.15523">
        <ele>1058.8</ele>
        <time>2023-02-11T10:07:10.000Z</time>
      </trkpt>
      <trkpt lat="41.882406" lon="-2.155172">
        <ele>1059</ele>
        <time>2023-02-11T10:07:11.000Z</time>
      </trkpt>
      <trkpt lat="41.882418" lon="-2.155116">
        <ele>1059.2</ele>
        <time>2023-02-11T10:07:12.000Z</time>
      </trkpt>
      <trkpt lat="41.88243" lon="-2.15506">
        <ele>1059.4</ele>
        <time>2023-02-11T10:07:13.000Z</time>
      </trkpt>
      <trkpt lat="41.88244" lon="-2.155004">
        <ele>1059.8</ele>
        <time>2023-02-11T10:07:14.000Z</time>
      </trkpt>
      <trkpt lat="41.882451" lon="-2.154949">
        <ele>1059.8</ele>
        <time>2023-02-11T10:07:15.000Z</time>
      </trkpt>
      <trkpt lat="41.882461" lon="-2.154893">
        <ele>1060.2</ele>
        <time>2023-02-11T10:07:16.000Z</time>
      </trkpt>
      <trkpt lat="41.88247" lon="-2.154837">
        <ele>1060.4</ele>
        <time>2023-02-11T10:07:17.000Z</time>
      </trkpt>
      <trkpt lat="41.88248" lon="-2.154782">
        <ele>1060.6</ele>
        <time>2023-02-11T10:07:18.000Z</time>
      </trkpt>
      <trkpt lat="41.882491" lon="-2.154724">
        <ele>1060.8</ele>
        <time>2023-02-11T10:07:19.000Z</time>
      </trkpt>
      <trkpt lat="41.8825" lon="-2.154667">
        <ele>1061.2</ele>
        <time>2023-02-11T10:07:20.000Z</time>
      </trkpt>
      <trkpt lat="41.882509" lon="-2.154611">
        <ele>1061.6</ele>
        <time>2023-02-11T10:07:21.000Z</time>
      </trkpt>
      <trkpt lat="41.882518" lon="-2.154558">
        <ele>1061.8</ele>
        <time>2023-02-11T10:07:22.000Z</time>
      </trkpt>
      <trkpt lat="41.882527" lon="-2.154502">
        <ele>1062</ele>
        <time>2023-02-11T10:07:23.000Z</time>
      </trkpt>
      <trkpt lat="41.882536" lon="-2.154447">
        <ele>1062.2</ele>
        <time>2023-02-11T10:07:24.000Z</time>
      </trkpt>
      <trkpt lat="41.882543" lon="-2.15439">
        <ele>1062.6</ele>
        <time>2023-02-11T10:07:25.000Z</time>
      </trkpt>
      <trkpt lat="41.882549" lon="-2.154332">
        <ele>1062.8</ele>
        <time>2023-02-11T10:07:26.000Z</time>
      </trkpt>
      <trkpt lat="41.882554" lon="-2.154274">
        <ele>1063.4</ele>
        <time>2023-02-11T10:07:27.000Z</time>
      </trkpt>
      <trkpt lat="41.882558" lon="-2.154215">
        <ele>1063.8</ele>
        <time>2023-02-11T10:07:28.000Z</time>
      </trkpt>
      <trkpt lat="41.882559" lon="-2.154154">
        <ele>1064</ele>
        <time>2023-02-11T10:07:29.000Z</time>
      </trkpt>
      <trkpt lat="41.88256" lon="-2.154094">
        <ele>1064.4</ele>
        <time>2023-02-11T10:07:30.000Z</time>
      </trkpt>
      <trkpt lat="41.882561" lon="-2.154032">
        <ele>1064.6</ele>
        <time>2023-02-11T10:07:31.000Z</time>
      </trkpt>
      <trkpt lat="41.882562" lon="-2.153968">
        <ele>1064.8</ele>
        <time>2023-02-11T10:07:32.000Z</time>
      </trkpt>
      <trkpt lat="41.882563" lon="-2.153904">
        <ele>1065</ele>
        <time>2023-02-11T10:07:33.000Z</time>
      </trkpt>
      <trkpt lat="41.882562" lon="-2.153842">
        <ele>1065.2</ele>
        <time>2023-02-11T10:07:34.000Z</time>
      </trkpt>
      <trkpt lat="41.882561" lon="-2.15378">
        <ele>1065.2</ele>
        <time>2023-02-11T10:07:35.000Z</time>
      </trkpt>
      <trkpt lat="41.882559" lon="-2.153715">
        <ele>1065.6</ele>
        <time>2023-02-11T10:07:36.000Z</time>
      </trkpt>
      <trkpt lat="41.88256" lon="-2.153649">
        <ele>1065.8</ele>
        <time>2023-02-11T10:07:37.000Z</time>
      </trkpt>
      <trkpt lat="41.882563" lon="-2.153585">
        <ele>1066</ele>
        <time>2023-02-11T10:07:38.000Z</time>
      </trkpt>
      <trkpt lat="41.882568" lon="-2.153523">
        <ele>1066.4</ele>
        <time>2023-02-11T10:07:39.000Z</time>
      </trkpt>
      <trkpt lat="41.882574" lon="-2.153461">
        <ele>1066.4</ele>
        <time>2023-02-11T10:07:40.000Z</time>
      </trkpt>
      <trkpt lat="41.882582" lon="-2.153397">
        <ele>1066.6</ele>
        <time>2023-02-11T10:07:41.000Z</time>
      </trkpt>
      <trkpt lat="41.882595" lon="-2.153333">
        <ele>1066.8</ele>
        <time>2023-02-11T10:07:42.000Z</time>
      </trkpt>
      <trkpt lat="41.882609" lon="-2.153269">
        <ele>1067.2</ele>
        <time>2023-02-11T10:07:43.000Z</time>
      </trkpt>
      <trkpt lat="41.882626" lon="-2.153207">
        <ele>1067.2</ele>
        <time>2023-02-11T10:07:44.000Z</time>
      </trkpt>
      <trkpt lat="41.882644" lon="-2.153146">
        <ele>1067.6</ele>
        <time>2023-02-11T10:07:45.000Z</time>
      </trkpt>
      <trkpt lat="41.882667" lon="-2.153085">
        <ele>1068</ele>
        <time>2023-02-11T10:07:46.000Z</time>
      </trkpt>
      <trkpt lat="41.882691" lon="-2.153027">
        <ele>1068.2</ele>
        <time>2023-02-11T10:07:47.000Z</time>
      </trkpt>
      <trkpt lat="41.882718" lon="-2.152973">
        <ele>1068.4</ele>
        <time>2023-02-11T10:07:48.000Z</time>
      </trkpt>
      <trkpt lat="41.882747" lon="-2.152919">
        <ele>1068.6</ele>
        <time>2023-02-11T10:07:49.000Z</time>
      </trkpt>
      <trkpt lat="41.882776" lon="-2.152868">
        <ele>1069</ele>
        <time>2023-02-11T10:07:50.000Z</time>
      </trkpt>
      <trkpt lat="41.882804" lon="-2.15282">
        <ele>1069</ele>
        <time>2023-02-11T10:07:51.000Z</time>
      </trkpt>
      <trkpt lat="41.882832" lon="-2.152774">
        <ele>1069.4</ele>
        <time>2023-02-11T10:07:52.000Z</time>
      </trkpt>
      <trkpt lat="41.88286" lon="-2.152728">
        <ele>1069.6</ele>
        <time>2023-02-11T10:07:53.000Z</time>
      </trkpt>
      <trkpt lat="41.882888" lon="-2.152684">
        <ele>1069.8</ele>
        <time>2023-02-11T10:07:54.000Z</time>
      </trkpt>
      <trkpt lat="41.882917" lon="-2.152641">
        <ele>1069.8</ele>
        <time>2023-02-11T10:07:55.000Z</time>
      </trkpt>
      <trkpt lat="41.882947" lon="-2.152599">
        <ele>1070.4</ele>
        <time>2023-02-11T10:07:56.000Z</time>
      </trkpt>
      <trkpt lat="41.882977" lon="-2.152559">
        <ele>1070.6</ele>
        <time>2023-02-11T10:07:57.000Z</time>
      </trkpt>
      <trkpt lat="41.88301" lon="-2.152521">
        <ele>1070.8</ele>
        <time>2023-02-11T10:07:58.000Z</time>
      </trkpt>
      <trkpt lat="41.883042" lon="-2.152482">
        <ele>1071.2</ele>
        <time>2023-02-11T10:07:59.000Z</time>
      </trkpt>
      <trkpt lat="41.883074" lon="-2.152443">
        <ele>1071.4</ele>
        <time>2023-02-11T10:08:00.000Z</time>
      </trkpt>
      <trkpt lat="41.883107" lon="-2.152405">
        <ele>1071.8</ele>
        <time>2023-02-11T10:08:01.000Z</time>
      </trkpt>
      <trkpt lat="41.88314" lon="-2.152368">
        <ele>1072</ele>
        <time>2023-02-11T10:08:02.000Z</time>
      </trkpt>
      <trkpt lat="41.883173" lon="-2.15233">
        <ele>1072.2</ele>
        <time>2023-02-11T10:08:03.000Z</time>
      </trkpt>
      <trkpt lat="41.883203" lon="-2.152293">
        <ele>1072.4</ele>
        <time>2023-02-11T10:08:04.000Z</time>
      </trkpt>
      <trkpt lat="41.883232" lon="-2.152256">
        <ele>1073</ele>
        <time>2023-02-11T10:08:05.000Z</time>
      </trkpt>
      <trkpt lat="41.883262" lon="-2.152223">
        <ele>1073.4</ele>
        <time>2023-02-11T10:08:06.000Z</time>
      </trkpt>
      <trkpt lat="41.883291" lon="-2.15219">
        <ele>1073.6</ele>
        <time>2023-02-11T10:08:07.000Z</time>
      </trkpt>
      <trkpt lat="41.883321" lon="-2.152154">
        <ele>1074</ele>
        <time>2023-02-11T10:08:08.000Z</time>
      </trkpt>
      <trkpt lat="41.883351" lon="-2.152121">
        <ele>1074.4</ele>
        <time>2023-02-11T10:08:09.000Z</time>
      </trkpt>
      <trkpt lat="41.88338" lon="-2.152087">
        <ele>1074.8</ele>
        <time>2023-02-11T10:08:10.000Z</time>
      </trkpt>
      <trkpt lat="41.883409" lon="-2.152054">
        <ele>1074.8</ele>
        <time>2023-02-11T10:08:11.000Z</time>
      </trkpt>
      <trkpt lat="41.883439" lon="-2.15202">
        <ele>1075</ele>
        <time>2023-02-11T10:08:12.000Z</time>
      </trkpt>
      <trkpt lat="41.883467" lon="-2.151984">
        <ele>1075.4</ele>
        <time>2023-02-11T10:08:13.000Z</time>
      </trkpt>
      <trkpt lat="41.883496" lon="-2.15195">
        <ele>1075.8</ele>
        <time>2023-02-11T10:08:14.000Z</time>
      </trkpt>
      <trkpt lat="41.883527" lon="-2.151918">
        <ele>1076</ele>
        <time>2023-02-11T10:08:15.000Z</time>
      </trkpt>
      <trkpt lat="41.883556" lon="-2.151883">
        <ele>1076.4</ele>
        <time>2023-02-11T10:08:16.000Z</time>
      </trkpt>
      <trkpt lat="41.883586" lon="-2.151847">
        <ele>1077</ele>
        <time>2023-02-11T10:08:17.000Z</time>
      </trkpt>
      <trkpt lat="41.883615" lon="-2.151812">
        <ele>1077.2</ele>
        <time>2023-02-11T10:08:18.000Z</time>
      </trkpt>
      <trkpt lat="41.883643" lon="-2.151775">
        <ele>1077.4</ele>
        <time>2023-02-11T10:08:19.000Z</time>
      </trkpt>
      <trkpt lat="41.883669" lon="-2.151735">
        <ele>1077.6</ele>
        <time>2023-02-11T10:08:20.000Z</time>
      </trkpt>
      <trkpt lat="41.883695" lon="-2.151694">
        <ele>1078.2</ele>
        <time>2023-02-11T10:08:21.000Z</time>
      </trkpt>
      <trkpt lat="41.883719" lon="-2.151652">
        <ele>1078.4</ele>
        <time>2023-02-11T10:08:22.000Z</time>
      </trkpt>
      <trkpt lat="41.88374" lon="-2.151608">
        <ele>1078.6</ele>
        <time>2023-02-11T10:08:23.000Z</time>
      </trkpt>
      <trkpt lat="41.883759" lon="-2.151567">
        <ele>1078.8</ele>
        <time>2023-02-11T10:08:24.000Z</time>
      </trkpt>
      <trkpt lat="41.883777" lon="-2.151524">
        <ele>1079.2</ele>
        <time>2023-02-11T10:08:25.000Z</time>
      </trkpt>
      <trkpt lat="41.883792" lon="-2.15148">
        <ele>1079.4</ele>
        <time>2023-02-11T10:08:26.000Z</time>
      </trkpt>
      <trkpt lat="41.883803" lon="-2.151433">
        <ele>1079.8</ele>
        <time>2023-02-11T10:08:27.000Z</time>
      </trkpt>
      <trkpt lat="41.883813" lon="-2.151385">
        <ele>1080</ele>
        <time>2023-02-11T10:08:28.000Z</time>
      </trkpt>
      <trkpt lat="41.883824" lon="-2.151338">
        <ele>1080.4</ele>
        <time>2023-02-11T10:08:29.000Z</time>
      </trkpt>
      <trkpt lat="41.883839" lon="-2.151294">
        <ele>1080.4</ele>
        <time>2023-02-11T10:08:30.000Z</time>
      </trkpt>
      <trkpt lat="41.883853" lon="-2.151249">
        <ele>1080.8</ele>
        <time>2023-02-11T10:08:31.000Z</time>
      </trkpt>
      <trkpt lat="41.883865" lon="-2.151199">
        <ele>1081.2</ele>
        <time>2023-02-11T10:08:32.000Z</time>
      </trkpt>
      <trkpt lat="41.88387" lon="-2.15115">
        <ele>1081.2</ele>
        <time>2023-02-11T10:08:33.000Z</time>
      </trkpt>
      <trkpt lat="41.883872" lon="-2.1511">
        <ele>1081.6</ele>
        <time>2023-02-11T10:08:34.000Z</time>
      </trkpt>
      <trkpt lat="41.883868" lon="-2.151049">
        <ele>1082</ele>
        <time>2023-02-11T10:08:35.000Z</time>
      </trkpt>
      <trkpt lat="41.883869" lon="-2.150999">
        <ele>1082.2</ele>
        <time>2023-02-11T10:08:36.000Z</time>
      </trkpt>
      <trkpt lat="41.883872" lon="-2.150948">
        <ele>1082.4</ele>
        <time>2023-02-11T10:08:37.000Z</time>
      </trkpt>
      <trkpt lat="41.883871" lon="-2.150894">
        <ele>1082.8</ele>
        <time>2023-02-11T10:08:38.000Z</time>
      </trkpt>
      <trkpt lat="41.883868" lon="-2.150841">
        <ele>1083.2</ele>
        <time>2023-02-11T10:08:39.000Z</time>
      </trkpt>
      <trkpt lat="41.88387" lon="-2.150786">
        <ele>1083.4</ele>
        <time>2023-02-11T10:08:40.000Z</time>
      </trkpt>
      <trkpt lat="41.88387" lon="-2.150731">
        <ele>1083.8</ele>
        <time>2023-02-11T10:08:41.000Z</time>
      </trkpt>
      <trkpt lat="41.883869" lon="-2.150677">
        <ele>1083.8</ele>
        <time>2023-02-11T10:08:42.000Z</time>
      </trkpt>
      <trkpt lat="41.883868" lon="-2.150622">
        <ele>1084</ele>
        <time>2023-02-11T10:08:43.000Z</time>
      </trkpt>
      <trkpt lat="41.883866" lon="-2.150566">
        <ele>1084.4</ele>
        <time>2023-02-11T10:08:44.000Z</time>
      </trkpt>
      <trkpt lat="41.88386" lon="-2.150513">
        <ele>1084.6</ele>
        <time>2023-02-11T10:08:45.000Z</time>
      </trkpt>
      <trkpt lat="41.883853" lon="-2.150461">
        <ele>1084.8</ele>
        <time>2023-02-11T10:08:46.000Z</time>
      </trkpt>
      <trkpt lat="41.883846" lon="-2.150408">
        <ele>1085.2</ele>
        <time>2023-02-11T10:08:47.000Z</time>
      </trkpt>
      <trkpt lat="41.883838" lon="-2.150355">
        <ele>1085.8</ele>
        <time>2023-02-11T10:08:48.000Z</time>
      </trkpt>
      <trkpt lat="41.883827" lon="-2.150302">
        <ele>1086</ele>
        <time>2023-02-11T10:08:49.000Z</time>
      </trkpt>
      <trkpt lat="41.883815" lon="-2.15025">
        <ele>1086.2</ele>
        <time>2023-02-11T10:08:50.000Z</time>
      </trkpt>
      <trkpt lat="41.883804" lon="-2.150197">
        <ele>1086.4</ele>
        <time>2023-02-11T10:08:51.000Z</time>
      </trkpt>
      <trkpt lat="41.883792" lon="-2.150145">
        <ele>1086.8</ele>
        <time>2023-02-11T10:08:52.000Z</time>
      </trkpt>
      <trkpt lat="41.883779" lon="-2.150093">
        <ele>1087</ele>
        <time>2023-02-11T10:08:53.000Z</time>
      </trkpt>
      <trkpt lat="41.883766" lon="-2.150042">
        <ele>1087.4</ele>
        <time>2023-02-11T10:08:54.000Z</time>
      </trkpt>
      <trkpt lat="41.883752" lon="-2.149991">
        <ele>1087.8</ele>
        <time>2023-02-11T10:08:55.000Z</time>
      </trkpt>
      <trkpt lat="41.883738" lon="-2.149938">
        <ele>1088</ele>
        <time>2023-02-11T10:08:56.000Z</time>
      </trkpt>
      <trkpt lat="41.883726" lon="-2.149886">
        <ele>1088.4</ele>
        <time>2023-02-11T10:08:57.000Z</time>
      </trkpt>
      <trkpt lat="41.883714" lon="-2.149832">
        <ele>1088.4</ele>
        <time>2023-02-11T10:08:58.000Z</time>
      </trkpt>
      <trkpt lat="41.883703" lon="-2.14978">
        <ele>1089</ele>
        <time>2023-02-11T10:08:59.000Z</time>
      </trkpt>
      <trkpt lat="41.883689" lon="-2.14973">
        <ele>1089.2</ele>
        <time>2023-02-11T10:09:00.000Z</time>
      </trkpt>
      <trkpt lat="41.883672" lon="-2.149678">
        <ele>1089.6</ele>
        <time>2023-02-11T10:09:01.000Z</time>
      </trkpt>
      <trkpt lat="41.883655" lon="-2.149626">
        <ele>1089.6</ele>
        <time>2023-02-11T10:09:02.000Z</time>
      </trkpt>
      <trkpt lat="41.883639" lon="-2.149574">
        <ele>1090</ele>
        <time>2023-02-11T10:09:03.000Z</time>
      </trkpt>
      <trkpt lat="41.883623" lon="-2.149522">
        <ele>1090.2</ele>
        <time>2023-02-11T10:09:04.000Z</time>
      </trkpt>
      <trkpt lat="41.883604" lon="-2.149472">
        <ele>1090.6</ele>
        <time>2023-02-11T10:09:05.000Z</time>
      </trkpt>
      <trkpt lat="41.883582" lon="-2.149422">
        <ele>1091</ele>
        <time>2023-02-11T10:09:06.000Z</time>
      </trkpt>
      <trkpt lat="41.883559" lon="-2.149373">
        <ele>1091.2</ele>
        <time>2023-02-11T10:09:07.000Z</time>
      </trkpt>
      <trkpt lat="41.883533" lon="-2.149328">
        <ele>1091.4</ele>
        <time>2023-02-11T10:09:08.000Z</time>
      </trkpt>
      <trkpt lat="41.883505" lon="-2.149283">
        <ele>1091.6</ele>
        <time>2023-02-11T10:09:09.000Z</time>
      </trkpt>
      <trkpt lat="41.883478" lon="-2.149239">
        <ele>1091.8</ele>
        <time>2023-02-11T10:09:10.000Z</time>
      </trkpt>
      <trkpt lat="41.883448" lon="-2.149199">
        <ele>1091.8</ele>
        <time>2023-02-11T10:09:11.000Z</time>
      </trkpt>
      <trkpt lat="41.883417" lon="-2.149158">
        <ele>1092.4</ele>
        <time>2023-02-11T10:09:12.000Z</time>
      </trkpt>
      <trkpt lat="41.883384" lon="-2.149119">
        <ele>1093</ele>
        <time>2023-02-11T10:09:13.000Z</time>
      </trkpt>
      <trkpt lat="41.883348" lon="-2.14908">
        <ele>1093.2</ele>
        <time>2023-02-11T10:09:14.000Z</time>
      </trkpt>
      <trkpt lat="41.883312" lon="-2.149042">
        <ele>1093.4</ele>
        <time>2023-02-11T10:09:15.000Z</time>
      </trkpt>
      <trkpt lat="41.883273" lon="-2.149007">
        <ele>1093.6</ele>
        <time>2023-02-11T10:09:16.000Z</time>
      </trkpt>
      <trkpt lat="41.883235" lon="-2.148972">
        <ele>1094</ele>
        <time>2023-02-11T10:09:17.000Z</time>
      </trkpt>
      <trkpt lat="41.883197" lon="-2.148935">
        <ele>1094</ele>
        <time>2023-02-11T10:09:18.000Z</time>
      </trkpt>
      <trkpt lat="41.883158" lon="-2.148896">
        <ele>1094.4</ele>
        <time>2023-02-11T10:09:19.000Z</time>
      </trkpt>
      <trkpt lat="41.883121" lon="-2.148857">
        <ele>1094.4</ele>
        <time>2023-02-11T10:09:20.000Z</time>
      </trkpt>
      <trkpt lat="41.883084" lon="-2.148815">
        <ele>1094.8</ele>
        <time>2023-02-11T10:09:21.000Z</time>
      </trkpt>
      <trkpt lat="41.88305" lon="-2.148767">
        <ele>1095</ele>
        <time>2023-02-11T10:09:22.000Z</time>
      </trkpt>
      <trkpt lat="41.883018" lon="-2.148717">
        <ele>1095.2</ele>
        <time>2023-02-11T10:09:23.000Z</time>
      </trkpt>
      <trkpt lat="41.882986" lon="-2.148664">
        <ele>1095.6</ele>
        <time>2023-02-11T10:09:24.000Z</time>
      </trkpt>
      <trkpt lat="41.882955" lon="-2.148609">
        <ele>1095.8</ele>
        <time>2023-02-11T10:09:25.000Z</time>
      </trkpt>
      <trkpt lat="41.882925" lon="-2.148552">
        <ele>1096</ele>
        <time>2023-02-11T10:09:26.000Z</time>
      </trkpt>
      <trkpt lat="41.882901" lon="-2.148494">
        <ele>1096</ele>
        <time>2023-02-11T10:09:27.000Z</time>
      </trkpt>
      <trkpt lat="41.882875" lon="-2.148432">
        <ele>1096.2</ele>
        <time>2023-02-11T10:09:28.000Z</time>
      </trkpt>
      <trkpt lat="41.882851" lon="-2.148366">
        <ele>1096.2</ele>
        <time>2023-02-11T10:09:29.000Z</time>
      </trkpt>
      <trkpt lat="41.882831" lon="-2.148297">
        <ele>1096.6</ele>
        <time>2023-02-11T10:09:30.000Z</time>
      </trkpt>
      <trkpt lat="41.882811" lon="-2.148225">
        <ele>1096.6</ele>
        <time>2023-02-11T10:09:31.000Z</time>
      </trkpt>
      <trkpt lat="41.882793" lon="-2.148155">
        <ele>1096.8</ele>
        <time>2023-02-11T10:09:32.000Z</time>
      </trkpt>
      <trkpt lat="41.882775" lon="-2.148083">
        <ele>1097</ele>
        <time>2023-02-11T10:09:33.000Z</time>
      </trkpt>
      <trkpt lat="41.882759" lon="-2.148012">
        <ele>1097</ele>
        <time>2023-02-11T10:09:34.000Z</time>
      </trkpt>
      <trkpt lat="41.882749" lon="-2.147943">
        <ele>1097.4</ele>
        <time>2023-02-11T10:09:35.000Z</time>
      </trkpt>
      <trkpt lat="41.882742" lon="-2.147876">
        <ele>1097.4</ele>
        <time>2023-02-11T10:09:36.000Z</time>
      </trkpt>
      <trkpt lat="41.882738" lon="-2.147809">
        <ele>1097.6</ele>
        <time>2023-02-11T10:09:37.000Z</time>
      </trkpt>
      <trkpt lat="41.882738" lon="-2.147744">
        <ele>1097.6</ele>
        <time>2023-02-11T10:09:38.000Z</time>
      </trkpt>
      <trkpt lat="41.88274" lon="-2.147679">
        <ele>1098</ele>
        <time>2023-02-11T10:09:39.000Z</time>
      </trkpt>
      <trkpt lat="41.882742" lon="-2.147613">
        <ele>1098.2</ele>
        <time>2023-02-11T10:09:40.000Z</time>
      </trkpt>
      <trkpt lat="41.882747" lon="-2.147548">
        <ele>1098.4</ele>
        <time>2023-02-11T10:09:41.000Z</time>
      </trkpt>
      <trkpt lat="41.882751" lon="-2.147484">
        <ele>1098.6</ele>
        <time>2023-02-11T10:09:42.000Z</time>
      </trkpt>
      <trkpt lat="41.882759" lon="-2.147422">
        <ele>1098.8</ele>
        <time>2023-02-11T10:09:43.000Z</time>
      </trkpt>
      <trkpt lat="41.88277" lon="-2.147363">
        <ele>1099.2</ele>
        <time>2023-02-11T10:09:44.000Z</time>
      </trkpt>
      <trkpt lat="41.882781" lon="-2.147301">
        <ele>1099.4</ele>
        <time>2023-02-11T10:09:45.000Z</time>
      </trkpt>
      <trkpt lat="41.882792" lon="-2.147241">
        <ele>1099.6</ele>
        <time>2023-02-11T10:09:46.000Z</time>
      </trkpt>
      <trkpt lat="41.882804" lon="-2.147182">
        <ele>1099.8</ele>
        <time>2023-02-11T10:09:47.000Z</time>
      </trkpt>
      <trkpt lat="41.882816" lon="-2.147121">
        <ele>1100.2</ele>
        <time>2023-02-11T10:09:48.000Z</time>
      </trkpt>
      <trkpt lat="41.882828" lon="-2.147061">
        <ele>1100.4</ele>
        <time>2023-02-11T10:09:49.000Z</time>
      </trkpt>
      <trkpt lat="41.882838" lon="-2.147003">
        <ele>1100.8</ele>
        <time>2023-02-11T10:09:50.000Z</time>
      </trkpt>
      <trkpt lat="41.88285" lon="-2.146943">
        <ele>1101.2</ele>
        <time>2023-02-11T10:09:51.000Z</time>
      </trkpt>
      <trkpt lat="41.882865" lon="-2.146883">
        <ele>1101.6</ele>
        <time>2023-02-11T10:09:52.000Z</time>
      </trkpt>
      <trkpt lat="41.882878" lon="-2.146823">
        <ele>1102</ele>
        <time>2023-02-11T10:09:53.000Z</time>
      </trkpt>
      <trkpt lat="41.88289" lon="-2.146764">
        <ele>1102</ele>
        <time>2023-02-11T10:09:54.000Z</time>
      </trkpt>
      <trkpt lat="41.8829" lon="-2.146703">
        <ele>1102.4</ele>
        <time>2023-02-11T10:09:55.000Z</time>
      </trkpt>
      <trkpt lat="41.882913" lon="-2.146644">
        <ele>1102.6</ele>
        <time>2023-02-11T10:09:56.000Z</time>
      </trkpt>
      <trkpt lat="41.882924" lon="-2.146584">
        <ele>1102.8</ele>
        <time>2023-02-11T10:09:57.000Z</time>
      </trkpt>
      <trkpt lat="41.882932" lon="-2.146523">
        <ele>1103</ele>
        <time>2023-02-11T10:09:58.000Z</time>
      </trkpt>
      <trkpt lat="41.882938" lon="-2.146461">
        <ele>1103.2</ele>
        <time>2023-02-11T10:09:59.000Z</time>
      </trkpt>
      <trkpt lat="41.882942" lon="-2.146398">
        <ele>1103.4</ele>
        <time>2023-02-11T10:10:00.000Z</time>
      </trkpt>
      <trkpt lat="41.882944" lon="-2.146336">
        <ele>1103.8</ele>
        <time>2023-02-11T10:10:01.000Z</time>
      </trkpt>
      <trkpt lat="41.882944" lon="-2.146274">
        <ele>1104</ele>
        <time>2023-02-11T10:10:02.000Z</time>
      </trkpt>
      <trkpt lat="41.882942" lon="-2.146213">
        <ele>1104.2</ele>
        <time>2023-02-11T10:10:03.000Z</time>
      </trkpt>
      <trkpt lat="41.882938" lon="-2.14615">
        <ele>1104.4</ele>
        <time>2023-02-11T10:10:04.000Z</time>
      </trkpt>
      <trkpt lat="41.882932" lon="-2.146089">
        <ele>1104.6</ele>
        <time>2023-02-11T10:10:05.000Z</time>
      </trkpt>
      <trkpt lat="41.882926" lon="-2.146026">
        <ele>1104.8</ele>
        <time>2023-02-11T10:10:06.000Z</time>
      </trkpt>
      <trkpt lat="41.882918" lon="-2.145964">
        <ele>1105</ele>
        <time>2023-02-11T10:10:07.000Z</time>
      </trkpt>
      <trkpt lat="41.882908" lon="-2.145904">
        <ele>1105.4</ele>
        <time>2023-02-11T10:10:08.000Z</time>
      </trkpt>
      <trkpt lat="41.882896" lon="-2.145845">
        <ele>1105.6</ele>
        <time>2023-02-11T10:10:09.000Z</time>
      </trkpt>
      <trkpt lat="41.882885" lon="-2.145786">
        <ele>1106</ele>
        <time>2023-02-11T10:10:10.000Z</time>
      </trkpt>
      <trkpt lat="41.882874" lon="-2.145732">
        <ele>1106.4</ele>
        <time>2023-02-11T10:10:11.000Z</time>
      </trkpt>
      <trkpt lat="41.882864" lon="-2.145679">
        <ele>1106.6</ele>
        <time>2023-02-11T10:10:12.000Z</time>
      </trkpt>
      <trkpt lat="41.882849" lon="-2.145626">
        <ele>1107</ele>
        <time>2023-02-11T10:10:13.000Z</time>
      </trkpt>
      <trkpt lat="41.88283" lon="-2.145573">
        <ele>1107.2</ele>
        <time>2023-02-11T10:10:14.000Z</time>
      </trkpt>
      <trkpt lat="41.882808" lon="-2.145523">
        <ele>1107.6</ele>
        <time>2023-02-11T10:10:15.000Z</time>
      </trkpt>
      <trkpt lat="41.882789" lon="-2.145471">
        <ele>1107.8</ele>
        <time>2023-02-11T10:10:16.000Z</time>
      </trkpt>
      <trkpt lat="41.882771" lon="-2.14542">
        <ele>1108</ele>
        <time>2023-02-11T10:10:17.000Z</time>
      </trkpt>
      <trkpt lat="41.882748" lon="-2.145371">
        <ele>1108.2</ele>
        <time>2023-02-11T10:10:18.000Z</time>
      </trkpt>
      <trkpt lat="41.88272" lon="-2.145324">
        <ele>1108.4</ele>
        <time>2023-02-11T10:10:19.000Z</time>
      </trkpt>
      <trkpt lat="41.882693" lon="-2.145277">
        <ele>1108.4</ele>
        <time>2023-02-11T10:10:20.000Z</time>
      </trkpt>
      <trkpt lat="41.88267" lon="-2.14523">
        <ele>1108.8</ele>
        <time>2023-02-11T10:10:21.000Z</time>
      </trkpt>
      <trkpt lat="41.882647" lon="-2.145187">
        <ele>1109.2</ele>
        <time>2023-02-11T10:10:22.000Z</time>
      </trkpt>
      <trkpt lat="41.882621" lon="-2.145142">
        <ele>1109.4</ele>
        <time>2023-02-11T10:10:23.000Z</time>
      </trkpt>
      <trkpt lat="41.882589" lon="-2.145103">
        <ele>1109.8</ele>
        <time>2023-02-11T10:10:24.000Z</time>
      </trkpt>
      <trkpt lat="41.88256" lon="-2.145065">
        <ele>1110</ele>
        <time>2023-02-11T10:10:25.000Z</time>
      </trkpt>
      <trkpt lat="41.882529" lon="-2.145027">
        <ele>1110.2</ele>
        <time>2023-02-11T10:10:26.000Z</time>
      </trkpt>
      <trkpt lat="41.8825" lon="-2.144991">
        <ele>1110.4</ele>
        <time>2023-02-11T10:10:27.000Z</time>
      </trkpt>
      <trkpt lat="41.882469" lon="-2.144955">
        <ele>1110.6</ele>
        <time>2023-02-11T10:10:28.000Z</time>
      </trkpt>
      <trkpt lat="41.882434" lon="-2.14492">
        <ele>1110.8</ele>
        <time>2023-02-11T10:10:29.000Z</time>
      </trkpt>
      <trkpt lat="41.882397" lon="-2.14489">
        <ele>1111.2</ele>
        <time>2023-02-11T10:10:30.000Z</time>
      </trkpt>
      <trkpt lat="41.882359" lon="-2.144857">
        <ele>1111.6</ele>
        <time>2023-02-11T10:10:31.000Z</time>
      </trkpt>
      <trkpt lat="41.882325" lon="-2.14482">
        <ele>1111.8</ele>
        <time>2023-02-11T10:10:32.000Z</time>
      </trkpt>
      <trkpt lat="41.882291" lon="-2.144782">
        <ele>1112</ele>
        <time>2023-02-11T10:10:33.000Z</time>
      </trkpt>
      <trkpt lat="41.882257" lon="-2.144748">
        <ele>1112.2</ele>
        <time>2023-02-11T10:10:34.000Z</time>
      </trkpt>
      <trkpt lat="41.882222" lon="-2.144718">
        <ele>1112.8</ele>
        <time>2023-02-11T10:10:35.000Z</time>
      </trkpt>
      <trkpt lat="41.882191" lon="-2.144686">
        <ele>1113</ele>
        <time>2023-02-11T10:10:36.000Z</time>
      </trkpt>
      <trkpt lat="41.882155" lon="-2.14465">
        <ele>1113.2</ele>
        <time>2023-02-11T10:10:37.000Z</time>
      </trkpt>
      <trkpt lat="41.882123" lon="-2.144616">
        <ele>1113.6</ele>
        <time>2023-02-11T10:10:38.000Z</time>
      </trkpt>
      <trkpt lat="41.88209" lon="-2.144582">
        <ele>1113.8</ele>
        <time>2023-02-11T10:10:39.000Z</time>
      </trkpt>
      <trkpt lat="41.882055" lon="-2.14455">
        <ele>1114</ele>
        <time>2023-02-11T10:10:40.000Z</time>
      </trkpt>
      <trkpt lat="41.882017" lon="-2.144517">
        <ele>1114.4</ele>
        <time>2023-02-11T10:10:41.000Z</time>
      </trkpt>
      <trkpt lat="41.881978" lon="-2.144484">
        <ele>1114.8</ele>
        <time>2023-02-11T10:10:42.000Z</time>
      </trkpt>
      <trkpt lat="41.881937" lon="-2.144455">
        <ele>1115</ele>
        <time>2023-02-11T10:10:43.000Z</time>
      </trkpt>
      <trkpt lat="41.881895" lon="-2.144429">
        <ele>1115.2</ele>
        <time>2023-02-11T10:10:44.000Z</time>
      </trkpt>
      <trkpt lat="41.881851" lon="-2.144403">
        <ele>1115.4</ele>
        <time>2023-02-11T10:10:45.000Z</time>
      </trkpt>
      <trkpt lat="41.881807" lon="-2.144378">
        <ele>1115.8</ele>
        <time>2023-02-11T10:10:46.000Z</time>
      </trkpt>
      <trkpt lat="41.881762" lon="-2.144355">
        <ele>1116</ele>
        <time>2023-02-11T10:10:47.000Z</time>
      </trkpt>
      <trkpt lat="41.881718" lon="-2.144329">
        <ele>1116.2</ele>
        <time>2023-02-11T10:10:48.000Z</time>
      </trkpt>
      <trkpt lat="41.881676" lon="-2.144302">
        <ele>1116.4</ele>
        <time>2023-02-11T10:10:49.000Z</time>
      </trkpt>
      <trkpt lat="41.881633" lon="-2.144278">
        <ele>1116.6</ele>
        <time>2023-02-11T10:10:50.000Z</time>
      </trkpt>
      <trkpt lat="41.881588" lon="-2.144253">
        <ele>1116.8</ele>
        <time>2023-02-11T10:10:51.000Z</time>
      </trkpt>
      <trkpt lat="41.881545" lon="-2.144226">
        <ele>1117</ele>
        <time>2023-02-11T10:10:52.000Z</time>
      </trkpt>
      <trkpt lat="41.881504" lon="-2.144198">
        <ele>1117.2</ele>
        <time>2023-02-11T10:10:53.000Z</time>
      </trkpt>
      <trkpt lat="41.881464" lon="-2.14417">
        <ele>1117.4</ele>
        <time>2023-02-11T10:10:54.000Z</time>
      </trkpt>
      <trkpt lat="41.881424" lon="-2.144139">
        <ele>1117.8</ele>
        <time>2023-02-11T10:10:55.000Z</time>
      </trkpt>
      <trkpt lat="41.881386" lon="-2.144106">
        <ele>1118</ele>
        <time>2023-02-11T10:10:56.000Z</time>
      </trkpt>
      <trkpt lat="41.881347" lon="-2.144073">
        <ele>1118.2</ele>
        <time>2023-02-11T10:10:57.000Z</time>
      </trkpt>
      <trkpt lat="41.881309" lon="-2.144035">
        <ele>1118.4</ele>
        <time>2023-02-11T10:10:58.000Z</time>
      </trkpt>
      <trkpt lat="41.881272" lon="-2.143992">
        <ele>1118.6</ele>
        <time>2023-02-11T10:10:59.000Z</time>
      </trkpt>
      <trkpt lat="41.881235" lon="-2.143947">
        <ele>1119</ele>
        <time>2023-02-11T10:11:00.000Z</time>
      </trkpt>
      <trkpt lat="41.8812" lon="-2.143902">
        <ele>1119.4</ele>
        <time>2023-02-11T10:11:01.000Z</time>
      </trkpt>
      <trkpt lat="41.881164" lon="-2.143857">
        <ele>1119.6</ele>
        <time>2023-02-11T10:11:02.000Z</time>
      </trkpt>
      <trkpt lat="41.881129" lon="-2.143813">
        <ele>1119.8</ele>
        <time>2023-02-11T10:11:03.000Z</time>
      </trkpt>
      <trkpt lat="41.881095" lon="-2.143767">
        <ele>1120</ele>
        <time>2023-02-11T10:11:04.000Z</time>
      </trkpt>
      <trkpt lat="41.881062" lon="-2.143722">
        <ele>1120</ele>
        <time>2023-02-11T10:11:05.000Z</time>
      </trkpt>
      <trkpt lat="41.881031" lon="-2.14368">
        <ele>1120.6</ele>
        <time>2023-02-11T10:11:06.000Z</time>
      </trkpt>
      <trkpt lat="41.881003" lon="-2.14364">
        <ele>1120.8</ele>
        <time>2023-02-11T10:11:07.000Z</time>
      </trkpt>
      <trkpt lat="41.880974" lon="-2.1436">
        <ele>1121.2</ele>
        <time>2023-02-11T10:11:08.000Z</time>
      </trkpt>
      <trkpt lat="41.880944" lon="-2.143562">
        <ele>1121.4</ele>
        <time>2023-02-11T10:11:09.000Z</time>
      </trkpt>
      <trkpt lat="41.880912" lon="-2.143524">
        <ele>1121.6</ele>
        <time>2023-02-11T10:11:10.000Z</time>
      </trkpt>
      <trkpt lat="41.880881" lon="-2.143485">
        <ele>1122</ele>
        <time>2023-02-11T10:11:11.000Z</time>
      </trkpt>
      <trkpt lat="41.880853" lon="-2.143445">
        <ele>1122</ele>
        <time>2023-02-11T10:11:12.000Z</time>
      </trkpt>
      <trkpt lat="41.880825" lon="-2.143403">
        <ele>1122.2</ele>
        <time>2023-02-11T10:11:13.000Z</time>
      </trkpt>
      <trkpt lat="41.880797" lon="-2.143362">
        <ele>1122.2</ele>
        <time>2023-02-11T10:11:14.000Z</time>
      </trkpt>
      <trkpt lat="41.880767" lon="-2.143322">
        <ele>1122.8</ele>
        <time>2023-02-11T10:11:15.000Z</time>
      </trkpt>
      <trkpt lat="41.880738" lon="-2.143281">
        <ele>1122.8</ele>
        <time>2023-02-11T10:11:16.000Z</time>
      </trkpt>
      <trkpt lat="41.880713" lon="-2.143241">
        <ele>1123.2</ele>
        <time>2023-02-11T10:11:17.000Z</time>
      </trkpt>
      <trkpt lat="41.880685" lon="-2.143198">
        <ele>1123.8</ele>
        <time>2023-02-11T10:11:18.000Z</time>
      </trkpt>
      <trkpt lat="41.880651" lon="-2.143156">
        <ele>1123.8</ele>
        <time>2023-02-11T10:11:19.000Z</time>
      </trkpt>
      <trkpt lat="41.880618" lon="-2.143115">
        <ele>1124.2</ele>
        <time>2023-02-11T10:11:20.000Z</time>
      </trkpt>
      <trkpt lat="41.880589" lon="-2.143073">
        <ele>1124.2</ele>
        <time>2023-02-11T10:11:21.000Z</time>
      </trkpt>
      <trkpt lat="41.880562" lon="-2.143027">
        <ele>1124.6</ele>
        <time>2023-02-11T10:11:22.000Z</time>
      </trkpt>
      <trkpt lat="41.880532" lon="-2.142984">
        <ele>1124.6</ele>
        <time>2023-02-11T10:11:23.000Z</time>
      </trkpt>
      <trkpt lat="41.8805" lon="-2.142947">
        <ele>1125</ele>
        <time>2023-02-11T10:11:24.000Z</time>
      </trkpt>
      <trkpt lat="41.880466" lon="-2.142913">
        <ele>1125</ele>
        <time>2023-02-11T10:11:25.000Z</time>
      </trkpt>
      <trkpt lat="41.880431" lon="-2.142878">
        <ele>1125.6</ele>
        <time>2023-02-11T10:11:26.000Z</time>
      </trkpt>
      <trkpt lat="41.880398" lon="-2.142845">
        <ele>1125.8</ele>
        <time>2023-02-11T10:11:27.000Z</time>
      </trkpt>
      <trkpt lat="41.880361" lon="-2.142815">
        <ele>1126</ele>
        <time>2023-02-11T10:11:28.000Z</time>
      </trkpt>
      <trkpt lat="41.88032" lon="-2.14279">
        <ele>1126.4</ele>
        <time>2023-02-11T10:11:29.000Z</time>
      </trkpt>
      <trkpt lat="41.880279" lon="-2.142768">
        <ele>1126.6</ele>
        <time>2023-02-11T10:11:30.000Z</time>
      </trkpt>
      <trkpt lat="41.880242" lon="-2.142744">
        <ele>1127</ele>
        <time>2023-02-11T10:11:31.000Z</time>
      </trkpt>
      <trkpt lat="41.880205" lon="-2.142721">
        <ele>1127</ele>
        <time>2023-02-11T10:11:32.000Z</time>
      </trkpt>
      <trkpt lat="41.880165" lon="-2.142703">
        <ele>1127.4</ele>
        <time>2023-02-11T10:11:33.000Z</time>
      </trkpt>
      <trkpt lat="41.880124" lon="-2.142692">
        <ele>1127.6</ele>
        <time>2023-02-11T10:11:34.000Z</time>
      </trkpt>
      <trkpt lat="41.880083" lon="-2.142687">
        <ele>1128</ele>
        <time>2023-02-11T10:11:35.000Z</time>
      </trkpt>
      <trkpt lat="41.88004" lon="-2.142681">
        <ele>1128.2</ele>
        <time>2023-02-11T10:11:36.000Z</time>
      </trkpt>
      <trkpt lat="41.879999" lon="-2.142672">
        <ele>1128.6</ele>
        <time>2023-02-11T10:11:37.000Z</time>
      </trkpt>
      <trkpt lat="41.879961" lon="-2.142664">
        <ele>1129</ele>
        <time>2023-02-11T10:11:38.000Z</time>
      </trkpt>
      <trkpt lat="41.879924" lon="-2.142657">
        <ele>1129.2</ele>
        <time>2023-02-11T10:11:39.000Z</time>
      </trkpt>
      <trkpt lat="41.879885" lon="-2.142656">
        <ele>1129.8</ele>
        <time>2023-02-11T10:11:40.000Z</time>
      </trkpt>
      <trkpt lat="41.879848" lon="-2.142657">
        <ele>1130</ele>
        <time>2023-02-11T10:11:41.000Z</time>
      </trkpt>
      <trkpt lat="41.879814" lon="-2.142661">
        <ele>1130.4</ele>
        <time>2023-02-11T10:11:42.000Z</time>
      </trkpt>
      <trkpt lat="41.879783" lon="-2.142668">
        <ele>1130.6</ele>
        <time>2023-02-11T10:11:43.000Z</time>
      </trkpt>
      <trkpt lat="41.879755" lon="-2.142678">
        <ele>1131.4</ele>
        <time>2023-02-11T10:11:44.000Z</time>
      </trkpt>
      <trkpt lat="41.879725" lon="-2.142692">
        <ele>1131.6</ele>
        <time>2023-02-11T10:11:45.000Z</time>
      </trkpt>
      <trkpt lat="41.879696" lon="-2.142707">
        <ele>1132.2</ele>
        <time>2023-02-11T10:11:46.000Z</time>
      </trkpt>
      <trkpt lat="41.879669" lon="-2.142721">
        <ele>1132.2</ele>
        <time>2023-02-11T10:11:47.000Z</time>
      </trkpt>
      <trkpt lat="41.87964" lon="-2.142736">
        <ele>1132.8</ele>
        <time>2023-02-11T10:11:48.000Z</time>
      </trkpt>
      <trkpt lat="41.87961" lon="-2.14275">
        <ele>1133.2</ele>
        <time>2023-02-11T10:11:49.000Z</time>
      </trkpt>
      <trkpt lat="41.879581" lon="-2.142763">
        <ele>1133</ele>
        <time>2023-02-11T10:11:50.000Z</time>
      </trkpt>
      <trkpt lat="41.879554" lon="-2.142775">
        <ele>1133.6</ele>
        <time>2023-02-11T10:11:51.000Z</time>
      </trkpt>
      <trkpt lat="41.879528" lon="-2.142786">
        <ele>1133.8</ele>
        <time>2023-02-11T10:11:52.000Z</time>
      </trkpt>
      <trkpt lat="41.8795" lon="-2.142797">
        <ele>1134.2</ele>
        <time>2023-02-11T10:11:53.000Z</time>
      </trkpt>
      <trkpt lat="41.879473" lon="-2.142809">
        <ele>1134.4</ele>
        <time>2023-02-11T10:11:54.000Z</time>
      </trkpt>
      <trkpt lat="41.879444" lon="-2.142821">
        <ele>1134.4</ele>
        <time>2023-02-11T10:11:55.000Z</time>
      </trkpt>
      <trkpt lat="41.879413" lon="-2.142836">
        <ele>1134.8</ele>
        <time>2023-02-11T10:11:56.000Z</time>
      </trkpt>
      <trkpt lat="41.87938" lon="-2.14285">
        <ele>1135.4</ele>
        <time>2023-02-11T10:11:57.000Z</time>
      </trkpt>
      <trkpt lat="41.879349" lon="-2.142866">
        <ele>1135.6</ele>
        <time>2023-02-11T10:11:58.000Z</time>
      </trkpt>
      <trkpt lat="41.879317" lon="-2.142881">
        <ele>1135.6</ele>
        <time>2023-02-11T10:11:59.000Z</time>
      </trkpt>
      <trkpt lat="41.879286" lon="-2.142898">
        <ele>1136.2</ele>
        <time>2023-02-11T10:12:00.000Z</time>
      </trkpt>
      <trkpt lat="41.879255" lon="-2.142912">
        <ele>1136</ele>
        <time>2023-02-11T10:12:01.000Z</time>
      </trkpt>
      <trkpt lat="41.879224" lon="-2.142922">
        <ele>1136.6</ele>
        <time>2023-02-11T10:12:02.000Z</time>
      </trkpt>
      <trkpt lat="41.879195" lon="-2.142933">
        <ele>1136.4</ele>
        <time>2023-02-11T10:12:03.000Z</time>
      </trkpt>
      <trkpt lat="41.879163" lon="-2.142945">
        <ele>1137</ele>
        <time>2023-02-11T10:12:04.000Z</time>
      </trkpt>
      <trkpt lat="41.87913" lon="-2.142951">
        <ele>1136.8</ele>
        <time>2023-02-11T10:12:05.000Z</time>
      </trkpt>
      <trkpt lat="41.879096" lon="-2.142953">
        <ele>1137</ele>
        <time>2023-02-11T10:12:06.000Z</time>
      </trkpt>
      <trkpt lat="41.879062" lon="-2.142953">
        <ele>1137.8</ele>
        <time>2023-02-11T10:12:07.000Z</time>
      </trkpt>
      <trkpt lat="41.879028" lon="-2.142944">
        <ele>1138</ele>
        <time>2023-02-11T10:12:08.000Z</time>
      </trkpt>
      <trkpt lat="41.878995" lon="-2.142929">
        <ele>1138.4</ele>
        <time>2023-02-11T10:12:09.000Z</time>
      </trkpt>
      <trkpt lat="41.878964" lon="-2.14291">
        <ele>1138.6</ele>
        <time>2023-02-11T10:12:10.000Z</time>
      </trkpt>
      <trkpt lat="41.878936" lon="-2.142888">
        <ele>1138.8</ele>
        <time>2023-02-11T10:12:11.000Z</time>
      </trkpt>
      <trkpt lat="41.878909" lon="-2.142861">
        <ele>1139.2</ele>
        <time>2023-02-11T10:12:12.000Z</time>
      </trkpt>
      <trkpt lat="41.878887" lon="-2.14283">
        <ele>1139.6</ele>
        <time>2023-02-11T10:12:13.000Z</time>
      </trkpt>
      <trkpt lat="41.878865" lon="-2.142797">
        <ele>1139.8</ele>
        <time>2023-02-11T10:12:14.000Z</time>
      </trkpt>
      <trkpt lat="41.878846" lon="-2.142757">
        <ele>1140</ele>
        <time>2023-02-11T10:12:15.000Z</time>
      </trkpt>
      <trkpt lat="41.878828" lon="-2.142713">
        <ele>1140.2</ele>
        <time>2023-02-11T10:12:16.000Z</time>
      </trkpt>
      <trkpt lat="41.878812" lon="-2.142671">
        <ele>1140.2</ele>
        <time>2023-02-11T10:12:17.000Z</time>
      </trkpt>
      <trkpt lat="41.878801" lon="-2.142627">
        <ele>1140.6</ele>
        <time>2023-02-11T10:12:18.000Z</time>
      </trkpt>
      <trkpt lat="41.878796" lon="-2.142579">
        <ele>1140.6</ele>
        <time>2023-02-11T10:12:19.000Z</time>
      </trkpt>
      <trkpt lat="41.878795" lon="-2.142528">
        <ele>1140.8</ele>
        <time>2023-02-11T10:12:20.000Z</time>
      </trkpt>
      <trkpt lat="41.878798" lon="-2.142473">
        <ele>1141</ele>
        <time>2023-02-11T10:12:21.000Z</time>
      </trkpt>
      <trkpt lat="41.878803" lon="-2.142418">
        <ele>1141.4</ele>
        <time>2023-02-11T10:12:22.000Z</time>
      </trkpt>
      <trkpt lat="41.878811" lon="-2.142362">
        <ele>1141.6</ele>
        <time>2023-02-11T10:12:23.000Z</time>
      </trkpt>
      <trkpt lat="41.878822" lon="-2.142305">
        <ele>1141.8</ele>
        <time>2023-02-11T10:12:24.000Z</time>
      </trkpt>
      <trkpt lat="41.878834" lon="-2.142247">
        <ele>1142.2</ele>
        <time>2023-02-11T10:12:25.000Z</time>
      </trkpt>
      <trkpt lat="41.878848" lon="-2.142187">
        <ele>1142.6</ele>
        <time>2023-02-11T10:12:26.000Z</time>
      </trkpt>
      <trkpt lat="41.878863" lon="-2.142125">
        <ele>1142.8</ele>
        <time>2023-02-11T10:12:27.000Z</time>
      </trkpt>
      <trkpt lat="41.878873" lon="-2.14206">
        <ele>1143</ele>
        <time>2023-02-11T10:12:28.000Z</time>
      </trkpt>
      <trkpt lat="41.87888" lon="-2.141994">
        <ele>1143.2</ele>
        <time>2023-02-11T10:12:29.000Z</time>
      </trkpt>
      <trkpt lat="41.878886" lon="-2.14193">
        <ele>1143</ele>
        <time>2023-02-11T10:12:30.000Z</time>
      </trkpt>
      <trkpt lat="41.878889" lon="-2.141861">
        <ele>1143.2</ele>
        <time>2023-02-11T10:12:31.000Z</time>
      </trkpt>
      <trkpt lat="41.878888" lon="-2.141789">
        <ele>1143.4</ele>
        <time>2023-02-11T10:12:32.000Z</time>
      </trkpt>
      <trkpt lat="41.878887" lon="-2.14172">
        <ele>1143.6</ele>
        <time>2023-02-11T10:12:33.000Z</time>
      </trkpt>
      <trkpt lat="41.878882" lon="-2.141648">
        <ele>1144</ele>
        <time>2023-02-11T10:12:34.000Z</time>
      </trkpt>
      <trkpt lat="41.878874" lon="-2.141579">
        <ele>1144</ele>
        <time>2023-02-11T10:12:35.000Z</time>
      </trkpt>
      <trkpt lat="41.878866" lon="-2.14151">
        <ele>1144.8</ele>
        <time>2023-02-11T10:12:36.000Z</time>
      </trkpt>
      <trkpt lat="41.878855" lon="-2.141442">
        <ele>1145</ele>
        <time>2023-02-11T10:12:37.000Z</time>
      </trkpt>
      <trkpt lat="41.878842" lon="-2.141374">
        <ele>1145.2</ele>
        <time>2023-02-11T10:12:38.000Z</time>
      </trkpt>
      <trkpt lat="41.878825" lon="-2.141309">
        <ele>1145.4</ele>
        <time>2023-02-11T10:12:39.000Z</time>
      </trkpt>
      <trkpt lat="41.878804" lon="-2.141247">
        <ele>1145.8</ele>
        <time>2023-02-11T10:12:40.000Z</time>
      </trkpt>
      <trkpt lat="41.878783" lon="-2.141186">
        <ele>1146</ele>
        <time>2023-02-11T10:12:41.000Z</time>
      </trkpt>
      <trkpt lat="41.878761" lon="-2.141123">
        <ele>1146.2</ele>
        <time>2023-02-11T10:12:42.000Z</time>
      </trkpt>
      <trkpt lat="41.87874" lon="-2.141062">
        <ele>1146.6</ele>
        <time>2023-02-11T10:12:43.000Z</time>
      </trkpt>
      <trkpt lat="41.87872" lon="-2.141002">
        <ele>1147</ele>
        <time>2023-02-11T10:12:44.000Z</time>
      </trkpt>
      <trkpt lat="41.878703" lon="-2.140942">
        <ele>1147.2</ele>
        <time>2023-02-11T10:12:45.000Z</time>
      </trkpt>
      <trkpt lat="41.878682" lon="-2.140882">
        <ele>1147.6</ele>
        <time>2023-02-11T10:12:46.000Z</time>
      </trkpt>
      <trkpt lat="41.87866" lon="-2.140824">
        <ele>1148</ele>
        <time>2023-02-11T10:12:47.000Z</time>
      </trkpt>
      <trkpt lat="41.878638" lon="-2.140764">
        <ele>1148.2</ele>
        <time>2023-02-11T10:12:48.000Z</time>
      </trkpt>
      <trkpt lat="41.878617" lon="-2.140704">
        <ele>1148.4</ele>
        <time>2023-02-11T10:12:49.000Z</time>
      </trkpt>
      <trkpt lat="41.878597" lon="-2.140643">
        <ele>1148.4</ele>
        <time>2023-02-11T10:12:50.000Z</time>
      </trkpt>
      <trkpt lat="41.878576" lon="-2.140582">
        <ele>1148.6</ele>
        <time>2023-02-11T10:12:51.000Z</time>
      </trkpt>
      <trkpt lat="41.878556" lon="-2.140518">
        <ele>1148.8</ele>
        <time>2023-02-11T10:12:52.000Z</time>
      </trkpt>
      <trkpt lat="41.878536" lon="-2.140454">
        <ele>1149</ele>
        <time>2023-02-11T10:12:53.000Z</time>
      </trkpt>
      <trkpt lat="41.878518" lon="-2.140391">
        <ele>1149.2</ele>
        <time>2023-02-11T10:12:54.000Z</time>
      </trkpt>
      <trkpt lat="41.878502" lon="-2.140329">
        <ele>1149.6</ele>
        <time>2023-02-11T10:12:55.000Z</time>
      </trkpt>
      <trkpt lat="41.878487" lon="-2.140267">
        <ele>1150.2</ele>
        <time>2023-02-11T10:12:56.000Z</time>
      </trkpt>
      <trkpt lat="41.878472" lon="-2.140206">
        <ele>1150.4</ele>
        <time>2023-02-11T10:12:57.000Z</time>
      </trkpt>
      <trkpt lat="41.87846" lon="-2.140142">
        <ele>1150.8</ele>
        <time>2023-02-11T10:12:58.000Z</time>
      </trkpt>
      <trkpt lat="41.878447" lon="-2.140076">
        <ele>1151</ele>
        <time>2023-02-11T10:12:59.000Z</time>
      </trkpt>
      <trkpt lat="41.878435" lon="-2.140012">
        <ele>1151.2</ele>
        <time>2023-02-11T10:13:00.000Z</time>
      </trkpt>
      <trkpt lat="41.878422" lon="-2.139946">
        <ele>1151.4</ele>
        <time>2023-02-11T10:13:01.000Z</time>
      </trkpt>
      <trkpt lat="41.87841" lon="-2.13988">
        <ele>1151.6</ele>
        <time>2023-02-11T10:13:02.000Z</time>
      </trkpt>
      <trkpt lat="41.878397" lon="-2.139811">
        <ele>1151.6</ele>
        <time>2023-02-11T10:13:03.000Z</time>
      </trkpt>
      <trkpt lat="41.878385" lon="-2.139743">
        <ele>1151.8</ele>
        <time>2023-02-11T10:13:04.000Z</time>
      </trkpt>
      <trkpt lat="41.878373" lon="-2.139675">
        <ele>1152</ele>
        <time>2023-02-11T10:13:05.000Z</time>
      </trkpt>
      <trkpt lat="41.878361" lon="-2.139608">
        <ele>1152.2</ele>
        <time>2023-02-11T10:13:06.000Z</time>
      </trkpt>
      <trkpt lat="41.878347" lon="-2.139541">
        <ele>1152.6</ele>
        <time>2023-02-11T10:13:07.000Z</time>
      </trkpt>
      <trkpt lat="41.878335" lon="-2.139474">
        <ele>1152.8</ele>
        <time>2023-02-11T10:13:08.000Z</time>
      </trkpt>
      <trkpt lat="41.878324" lon="-2.139406">
        <ele>1153.2</ele>
        <time>2023-02-11T10:13:09.000Z</time>
      </trkpt>
      <trkpt lat="41.878313" lon="-2.139337">
        <ele>1153.4</ele>
        <time>2023-02-11T10:13:10.000Z</time>
      </trkpt>
      <trkpt lat="41.878303" lon="-2.139267">
        <ele>1153.6</ele>
        <time>2023-02-11T10:13:11.000Z</time>
      </trkpt>
      <trkpt lat="41.878295" lon="-2.139198">
        <ele>1153.8</ele>
        <time>2023-02-11T10:13:12.000Z</time>
      </trkpt>
      <trkpt lat="41.878285" lon="-2.139127">
        <ele>1154.2</ele>
        <time>2023-02-11T10:13:13.000Z</time>
      </trkpt>
      <trkpt lat="41.878277" lon="-2.139057">
        <ele>1154.6</ele>
        <time>2023-02-11T10:13:14.000Z</time>
      </trkpt>
      <trkpt lat="41.87827" lon="-2.138987">
        <ele>1154.8</ele>
        <time>2023-02-11T10:13:15.000Z</time>
      </trkpt>
      <trkpt lat="41.878263" lon="-2.138917">
        <ele>1155</ele>
        <time>2023-02-11T10:13:16.000Z</time>
      </trkpt>
      <trkpt lat="41.878258" lon="-2.138846">
        <ele>1155.2</ele>
        <time>2023-02-11T10:13:17.000Z</time>
      </trkpt>
      <trkpt lat="41.878253" lon="-2.138775">
        <ele>1155.4</ele>
        <time>2023-02-11T10:13:18.000Z</time>
      </trkpt>
      <trkpt lat="41.878248" lon="-2.138703">
        <ele>1155.4</ele>
        <time>2023-02-11T10:13:19.000Z</time>
      </trkpt>
      <trkpt lat="41.878243" lon="-2.138632">
        <ele>1155.6</ele>
        <time>2023-02-11T10:13:20.000Z</time>
      </trkpt>
      <trkpt lat="41.878238" lon="-2.138561">
        <ele>1155.8</ele>
        <time>2023-02-11T10:13:21.000Z</time>
      </trkpt>
      <trkpt lat="41.878234" lon="-2.138489">
        <ele>1156.4</ele>
        <time>2023-02-11T10:13:22.000Z</time>
      </trkpt>
      <trkpt lat="41.87823" lon="-2.138417">
        <ele>1156.6</ele>
        <time>2023-02-11T10:13:23.000Z</time>
      </trkpt>
      <trkpt lat="41.878226" lon="-2.138348">
        <ele>1156.6</ele>
        <time>2023-02-11T10:13:24.000Z</time>
      </trkpt>
      <trkpt lat="41.878223" lon="-2.138279">
        <ele>1157.2</ele>
        <time>2023-02-11T10:13:25.000Z</time>
      </trkpt>
      <trkpt lat="41.878219" lon="-2.138209">
        <ele>1157.4</ele>
        <time>2023-02-11T10:13:26.000Z</time>
      </trkpt>
      <trkpt lat="41.878217" lon="-2.138138">
        <ele>1157.6</ele>
        <time>2023-02-11T10:13:27.000Z</time>
      </trkpt>
      <trkpt lat="41.878215" lon="-2.138068">
        <ele>1157.8</ele>
        <time>2023-02-11T10:13:28.000Z</time>
      </trkpt>
      <trkpt lat="41.878215" lon="-2.137999">
        <ele>1158.2</ele>
        <time>2023-02-11T10:13:29.000Z</time>
      </trkpt>
      <trkpt lat="41.878216" lon="-2.137928">
        <ele>1158.2</ele>
        <time>2023-02-11T10:13:30.000Z</time>
      </trkpt>
      <trkpt lat="41.87822" lon="-2.137857">
        <ele>1158.6</ele>
        <time>2023-02-11T10:13:31.000Z</time>
      </trkpt>
      <trkpt lat="41.878225" lon="-2.137782">
        <ele>1158.8</ele>
        <time>2023-02-11T10:13:32.000Z</time>
      </trkpt>
      <trkpt lat="41.878234" lon="-2.137706">
        <ele>1159</ele>
        <time>2023-02-11T10:13:33.000Z</time>
      </trkpt>
      <trkpt lat="41.878246" lon="-2.13763">
        <ele>1159.4</ele>
        <time>2023-02-11T10:13:34.000Z</time>
      </trkpt>
      <trkpt lat="41.878262" lon="-2.137555">
        <ele>1159.4</ele>
        <time>2023-02-11T10:13:35.000Z</time>
      </trkpt>
      <trkpt lat="41.878281" lon="-2.13748">
        <ele>1159.8</ele>
        <time>2023-02-11T10:13:36.000Z</time>
      </trkpt>
      <trkpt lat="41.878304" lon="-2.137407">
        <ele>1159.8</ele>
        <time>2023-02-11T10:13:37.000Z</time>
      </trkpt>
      <trkpt lat="41.878328" lon="-2.137332">
        <ele>1160</ele>
        <time>2023-02-11T10:13:38.000Z</time>
      </trkpt>
      <trkpt lat="41.878352" lon="-2.137252">
        <ele>1160.2</ele>
        <time>2023-02-11T10:13:39.000Z</time>
      </trkpt>
      <trkpt lat="41.878377" lon="-2.137168">
        <ele>1160.2</ele>
        <time>2023-02-11T10:13:40.000Z</time>
      </trkpt>
      <trkpt lat="41.878403" lon="-2.13708">
        <ele>1160.2</ele>
        <time>2023-02-11T10:13:41.000Z</time>
      </trkpt>
      <trkpt lat="41.878431" lon="-2.136989">
        <ele>1160.2</ele>
        <time>2023-02-11T10:13:42.000Z</time>
      </trkpt>
      <trkpt lat="41.878459" lon="-2.136896">
        <ele>1160.2</ele>
        <time>2023-02-11T10:13:43.000Z</time>
      </trkpt>
      <trkpt lat="41.878489" lon="-2.136799">
        <ele>1160.2</ele>
        <time>2023-02-11T10:13:44.000Z</time>
      </trkpt>
      <trkpt lat="41.87852" lon="-2.1367">
        <ele>1160</ele>
        <time>2023-02-11T10:13:45.000Z</time>
      </trkpt>
      <trkpt lat="41.878552" lon="-2.136597">
        <ele>1160</ele>
        <time>2023-02-11T10:13:46.000Z</time>
      </trkpt>
      <trkpt lat="41.878584" lon="-2.13649">
        <ele>1159.8</ele>
        <time>2023-02-11T10:13:47.000Z</time>
      </trkpt>
      <trkpt lat="41.878616" lon="-2.136382">
        <ele>1159.6</ele>
        <time>2023-02-11T10:13:48.000Z</time>
      </trkpt>
      <trkpt lat="41.878648" lon="-2.13627">
        <ele>1159.2</ele>
        <time>2023-02-11T10:13:49.000Z</time>
      </trkpt>
      <trkpt lat="41.878674" lon="-2.136152">
        <ele>1159</ele>
        <time>2023-02-11T10:13:50.000Z</time>
      </trkpt>
      <trkpt lat="41.878693" lon="-2.136032">
        <ele>1158.6</ele>
        <time>2023-02-11T10:13:51.000Z</time>
      </trkpt>
      <trkpt lat="41.878696" lon="-2.135906">
        <ele>1158.4</ele>
        <time>2023-02-11T10:13:52.000Z</time>
      </trkpt>
      <trkpt lat="41.878683" lon="-2.135782">
        <ele>1158.2</ele>
        <time>2023-02-11T10:13:53.000Z</time>
      </trkpt>
      <trkpt lat="41.878656" lon="-2.13566">
        <ele>1157.6</ele>
        <time>2023-02-11T10:13:54.000Z</time>
      </trkpt>
      <trkpt lat="41.878616" lon="-2.135546">
        <ele>1157.4</ele>
        <time>2023-02-11T10:13:55.000Z</time>
      </trkpt>
      <trkpt lat="41.878569" lon="-2.135438">
        <ele>1157</ele>
        <time>2023-02-11T10:13:56.000Z</time>
      </trkpt>
      <trkpt lat="41.878518" lon="-2.135331">
        <ele>1156.8</ele>
        <time>2023-02-11T10:13:57.000Z</time>
      </trkpt>
      <trkpt lat="41.878468" lon="-2.135224">
        <ele>1156.2</ele>
        <time>2023-02-11T10:13:58.000Z</time>
      </trkpt>
      <trkpt lat="41.878419" lon="-2.135115">
        <ele>1156</ele>
        <time>2023-02-11T10:13:59.000Z</time>
      </trkpt>
      <trkpt lat="41.878371" lon="-2.135005">
        <ele>1155.6</ele>
        <time>2023-02-11T10:14:00.000Z</time>
      </trkpt>
      <trkpt lat="41.878321" lon="-2.134893">
        <ele>1155.4</ele>
        <time>2023-02-11T10:14:01.000Z</time>
      </trkpt>
      <trkpt lat="41.878272" lon="-2.134783">
        <ele>1155.2</ele>
        <time>2023-02-11T10:14:02.000Z</time>
      </trkpt>
      <trkpt lat="41.878219" lon="-2.134673">
        <ele>1154.8</ele>
        <time>2023-02-11T10:14:03.000Z</time>
      </trkpt>
      <trkpt lat="41.878165" lon="-2.13456">
        <ele>1154.6</ele>
        <time>2023-02-11T10:14:04.000Z</time>
      </trkpt>
      <trkpt lat="41.878115" lon="-2.134446">
        <ele>1154</ele>
        <time>2023-02-11T10:14:05.000Z</time>
      </trkpt>
      <trkpt lat="41.878073" lon="-2.134327">
        <ele>1153.8</ele>
        <time>2023-02-11T10:14:06.000Z</time>
      </trkpt>
      <trkpt lat="41.87804" lon="-2.134202">
        <ele>1153.4</ele>
        <time>2023-02-11T10:14:07.000Z</time>
      </trkpt>
      <trkpt lat="41.878013" lon="-2.134075">
        <ele>1153.2</ele>
        <time>2023-02-11T10:14:08.000Z</time>
      </trkpt>
      <trkpt lat="41.877989" lon="-2.133945">
        <ele>1153</ele>
        <time>2023-02-11T10:14:09.000Z</time>
      </trkpt>
      <trkpt lat="41.87797" lon="-2.133815">
        <ele>1152.8</ele>
        <time>2023-02-11T10:14:10.000Z</time>
      </trkpt>
      <trkpt lat="41.877952" lon="-2.133685">
        <ele>1152.4</ele>
        <time>2023-02-11T10:14:11.000Z</time>
      </trkpt>
      <trkpt lat="41.877932" lon="-2.133554">
        <ele>1152</ele>
        <time>2023-02-11T10:14:12.000Z</time>
      </trkpt>
      <trkpt lat="41.877905" lon="-2.133427">
        <ele>1151.8</ele>
        <time>2023-02-11T10:14:13.000Z</time>
      </trkpt>
      <trkpt lat="41.877879" lon="-2.1333">
        <ele>1151.2</ele>
        <time>2023-02-11T10:14:14.000Z</time>
      </trkpt>
      <trkpt lat="41.877855" lon="-2.13317">
        <ele>1151</ele>
        <time>2023-02-11T10:14:15.000Z</time>
      </trkpt>
      <trkpt lat="41.877831" lon="-2.133039">
        <ele>1150.6</ele>
        <time>2023-02-11T10:14:16.000Z</time>
      </trkpt>
      <trkpt lat="41.877811" lon="-2.13291">
        <ele>1150.4</ele>
        <time>2023-02-11T10:14:17.000Z</time>
      </trkpt>
      <trkpt lat="41.877795" lon="-2.132779">
        <ele>1150</ele>
        <time>2023-02-11T10:14:18.000Z</time>
      </trkpt>
      <trkpt lat="41.877782" lon="-2.132646">
        <ele>1149.6</ele>
        <time>2023-02-11T10:14:19.000Z</time>
      </trkpt>
      <trkpt lat="41.877775" lon="-2.13251">
        <ele>1149.2</ele>
        <time>2023-02-11T10:14:20.000Z</time>
      </trkpt>
      <trkpt lat="41.877772" lon="-2.132372">
        <ele>1148.8</ele>
        <time>2023-02-11T10:14:21.000Z</time>
      </trkpt>
      <trkpt lat="41.877774" lon="-2.132232">
        <ele>1148.4</ele>
        <time>2023-02-11T10:14:22.000Z</time>
      </trkpt>
      <trkpt lat="41.877778" lon="-2.132087">
        <ele>1148</ele>
        <time>2023-02-11T10:14:23.000Z</time>
      </trkpt>
      <trkpt lat="41.877783" lon="-2.131941">
        <ele>1147.8</ele>
        <time>2023-02-11T10:14:24.000Z</time>
      </trkpt>
      <trkpt lat="41.877787" lon="-2.131793">
        <ele>1147.2</ele>
        <time>2023-02-11T10:14:25.000Z</time>
      </trkpt>
      <trkpt lat="41.877792" lon="-2.131647">
        <ele>1147</ele>
        <time>2023-02-11T10:14:26.000Z</time>
      </trkpt>
      <trkpt lat="41.877799" lon="-2.131496">
        <ele>1146.4</ele>
        <time>2023-02-11T10:14:27.000Z</time>
      </trkpt>
      <trkpt lat="41.87781" lon="-2.131344">
        <ele>1146.2</ele>
        <time>2023-02-11T10:14:28.000Z</time>
      </trkpt>
      <trkpt lat="41.877826" lon="-2.131189">
        <ele>1145.4</ele>
        <time>2023-02-11T10:14:29.000Z</time>
      </trkpt>
      <trkpt lat="41.877857" lon="-2.131037">
        <ele>1144.6</ele>
        <time>2023-02-11T10:14:30.000Z</time>
      </trkpt>
      <trkpt lat="41.877899" lon="-2.130885">
        <ele>1144.2</ele>
        <time>2023-02-11T10:14:31.000Z</time>
      </trkpt>
      <trkpt lat="41.877951" lon="-2.130736">
        <ele>1143.6</ele>
        <time>2023-02-11T10:14:32.000Z</time>
      </trkpt>
      <trkpt lat="41.878009" lon="-2.130587">
        <ele>1143.4</ele>
        <time>2023-02-11T10:14:33.000Z</time>
      </trkpt>
      <trkpt lat="41.878072" lon="-2.130439">
        <ele>1142.8</ele>
        <time>2023-02-11T10:14:34.000Z</time>
      </trkpt>
      <trkpt lat="41.878138" lon="-2.130288">
        <ele>1142.2</ele>
        <time>2023-02-11T10:14:35.000Z</time>
      </trkpt>
      <trkpt lat="41.878199" lon="-2.130134">
        <ele>1141.2</ele>
        <time>2023-02-11T10:14:36.000Z</time>
      </trkpt>
      <trkpt lat="41.878255" lon="-2.129975">
        <ele>1140.6</ele>
        <time>2023-02-11T10:14:37.000Z</time>
      </trkpt>
      <trkpt lat="41.878311" lon="-2.129811">
        <ele>1139.6</ele>
        <time>2023-02-11T10:14:38.000Z</time>
      </trkpt>
      <trkpt lat="41.878365" lon="-2.129643">
        <ele>1139.2</ele>
        <time>2023-02-11T10:14:39.000Z</time>
      </trkpt>
      <trkpt lat="41.878419" lon="-2.129473">
        <ele>1138.2</ele>
        <time>2023-02-11T10:14:40.000Z</time>
      </trkpt>
      <trkpt lat="41.87847" lon="-2.1293">
        <ele>1137.8</ele>
        <time>2023-02-11T10:14:41.000Z</time>
      </trkpt>
      <trkpt lat="41.878518" lon="-2.129126">
        <ele>1137.6</ele>
        <time>2023-02-11T10:14:42.000Z</time>
      </trkpt>
      <trkpt lat="41.878561" lon="-2.128949">
        <ele>1136.6</ele>
        <time>2023-02-11T10:14:43.000Z</time>
      </trkpt>
      <trkpt lat="41.878593" lon="-2.128769">
        <ele>1135.6</ele>
        <time>2023-02-11T10:14:44.000Z</time>
      </trkpt>
      <trkpt lat="41.878609" lon="-2.128586">
        <ele>1134.2</ele>
        <time>2023-02-11T10:14:45.000Z</time>
      </trkpt>
      <trkpt lat="41.87861" lon="-2.128403">
        <ele>1133.4</ele>
        <time>2023-02-11T10:14:46.000Z</time>
      </trkpt>
      <trkpt lat="41.8786" lon="-2.12822">
        <ele>1132.2</ele>
        <time>2023-02-11T10:14:47.000Z</time>
      </trkpt>
      <trkpt lat="41.878585" lon="-2.128039">
        <ele>1131.6</ele>
        <time>2023-02-11T10:14:48.000Z</time>
      </trkpt>
      <trkpt lat="41.87857" lon="-2.127861">
        <ele>1130.6</ele>
        <time>2023-02-11T10:14:49.000Z</time>
      </trkpt>
      <trkpt lat="41.878553" lon="-2.127687">
        <ele>1129.6</ele>
        <time>2023-02-11T10:14:50.000Z</time>
      </trkpt>
      <trkpt lat="41.878537" lon="-2.127517">
        <ele>1129.4</ele>
        <time>2023-02-11T10:14:51.000Z</time>
      </trkpt>
      <trkpt lat="41.878521" lon="-2.127353">
        <ele>1128.8</ele>
        <time>2023-02-11T10:14:52.000Z</time>
      </trkpt>
      <trkpt lat="41.878507" lon="-2.127193">
        <ele>1128.2</ele>
        <time>2023-02-11T10:14:53.000Z</time>
      </trkpt>
      <trkpt lat="41.878495" lon="-2.127036">
        <ele>1127.6</ele>
        <time>2023-02-11T10:14:54.000Z</time>
      </trkpt>
      <trkpt lat="41.878484" lon="-2.126882">
        <ele>1127.2</ele>
        <time>2023-02-11T10:14:55.000Z</time>
      </trkpt>
      <trkpt lat="41.878472" lon="-2.12673">
        <ele>1126.8</ele>
        <time>2023-02-11T10:14:56.000Z</time>
      </trkpt>
      <trkpt lat="41.87846" lon="-2.126582">
        <ele>1126.6</ele>
        <time>2023-02-11T10:14:57.000Z</time>
      </trkpt>
      <trkpt lat="41.878449" lon="-2.126436">
        <ele>1126</ele>
        <time>2023-02-11T10:14:58.000Z</time>
      </trkpt>
      <trkpt lat="41.878439" lon="-2.126293">
        <ele>1125.4</ele>
        <time>2023-02-11T10:14:59.000Z</time>
      </trkpt>
      <trkpt lat="41.878428" lon="-2.126154">
        <ele>1125.2</ele>
        <time>2023-02-11T10:15:00.000Z</time>
      </trkpt>
      <trkpt lat="41.878417" lon="-2.126018">
        <ele>1125</ele>
        <time>2023-02-11T10:15:01.000Z</time>
      </trkpt>
      <trkpt lat="41.878408" lon="-2.125883">
        <ele>1124.8</ele>
        <time>2023-02-11T10:15:02.000Z</time>
      </trkpt>
      <trkpt lat="41.878398" lon="-2.125748">
        <ele>1124.6</ele>
        <time>2023-02-11T10:15:03.000Z</time>
      </trkpt>
      <trkpt lat="41.878388" lon="-2.125614">
        <ele>1124.4</ele>
        <time>2023-02-11T10:15:04.000Z</time>
      </trkpt>
      <trkpt lat="41.878376" lon="-2.125482">
        <ele>1124.2</ele>
        <time>2023-02-11T10:15:05.000Z</time>
      </trkpt>
      <trkpt lat="41.878364" lon="-2.125353">
        <ele>1124.2</ele>
        <time>2023-02-11T10:15:06.000Z</time>
      </trkpt>
      <trkpt lat="41.878351" lon="-2.125219">
        <ele>1123.8</ele>
        <time>2023-02-11T10:15:07.000Z</time>
      </trkpt>
      <trkpt lat="41.878333" lon="-2.125085">
        <ele>1123.8</ele>
        <time>2023-02-11T10:15:08.000Z</time>
      </trkpt>
      <trkpt lat="41.878314" lon="-2.124948">
        <ele>1123.6</ele>
        <time>2023-02-11T10:15:09.000Z</time>
      </trkpt>
      <trkpt lat="41.878294" lon="-2.12481">
        <ele>1123.4</ele>
        <time>2023-02-11T10:15:10.000Z</time>
      </trkpt>
      <trkpt lat="41.878271" lon="-2.124667">
        <ele>1123.4</ele>
        <time>2023-02-11T10:15:11.000Z</time>
      </trkpt>
      <trkpt lat="41.878243" lon="-2.124523">
        <ele>1123.2</ele>
        <time>2023-02-11T10:15:12.000Z</time>
      </trkpt>
      <trkpt lat="41.878215" lon="-2.124378">
        <ele>1123</ele>
        <time>2023-02-11T10:15:13.000Z</time>
      </trkpt>
      <trkpt lat="41.878187" lon="-2.12423">
        <ele>1122.4</ele>
        <time>2023-02-11T10:15:14.000Z</time>
      </trkpt>
      <trkpt lat="41.87816" lon="-2.12408">
        <ele>1121.8</ele>
        <time>2023-02-11T10:15:15.000Z</time>
      </trkpt>
      <trkpt lat="41.878134" lon="-2.123928">
        <ele>1121</ele>
        <time>2023-02-11T10:15:16.000Z</time>
      </trkpt>
      <trkpt lat="41.878105" lon="-2.123775">
        <ele>1120.6</ele>
        <time>2023-02-11T10:15:17.000Z</time>
      </trkpt>
      <trkpt lat="41.878076" lon="-2.123623">
        <ele>1120</ele>
        <time>2023-02-11T10:15:18.000Z</time>
      </trkpt>
      <trkpt lat="41.878048" lon="-2.123471">
        <ele>1119</ele>
        <time>2023-02-11T10:15:19.000Z</time>
      </trkpt>
      <trkpt lat="41.87802" lon="-2.123318">
        <ele>1118.6</ele>
        <time>2023-02-11T10:15:20.000Z</time>
      </trkpt>
      <trkpt lat="41.877993" lon="-2.123169">
        <ele>1118</ele>
        <time>2023-02-11T10:15:21.000Z</time>
      </trkpt>
      <trkpt lat="41.877965" lon="-2.123021">
        <ele>1117.6</ele>
        <time>2023-02-11T10:15:22.000Z</time>
      </trkpt>
      <trkpt lat="41.877938" lon="-2.122875">
        <ele>1116.8</ele>
        <time>2023-02-11T10:15:23.000Z</time>
      </trkpt>
      <trkpt lat="41.877911" lon="-2.12273">
        <ele>1116.2</ele>
        <time>2023-02-11T10:15:24.000Z</time>
      </trkpt>
      <trkpt lat="41.877886" lon="-2.122586">
        <ele>1115.6</ele>
        <time>2023-02-11T10:15:25.000Z</time>
      </trkpt>
      <trkpt lat="41.877861" lon="-2.12244">
        <ele>1115.2</ele>
        <time>2023-02-11T10:15:26.000Z</time>
      </trkpt>
      <trkpt lat="41.877839" lon="-2.122296">
        <ele>1114.8</ele>
        <time>2023-02-11T10:15:27.000Z</time>
      </trkpt>
      <trkpt lat="41.877817" lon="-2.122153">
        <ele>1114.2</ele>
        <time>2023-02-11T10:15:28.000Z</time>
      </trkpt>
      <trkpt lat="41.877796" lon="-2.122009">
        <ele>1113.8</ele>
        <time>2023-02-11T10:15:29.000Z</time>
      </trkpt>
      <trkpt lat="41.877775" lon="-2.121866">
        <ele>1113.2</ele>
        <time>2023-02-11T10:15:30.000Z</time>
      </trkpt>
      <trkpt lat="41.877754" lon="-2.121724">
        <ele>1112.8</ele>
        <time>2023-02-11T10:15:31.000Z</time>
      </trkpt>
      <trkpt lat="41.877734" lon="-2.121583">
        <ele>1112.2</ele>
        <time>2023-02-11T10:15:32.000Z</time>
      </trkpt>
      <trkpt lat="41.877713" lon="-2.12144">
        <ele>1112</ele>
        <time>2023-02-11T10:15:33.000Z</time>
      </trkpt>
      <trkpt lat="41.877692" lon="-2.121296">
        <ele>1111.4</ele>
        <time>2023-02-11T10:15:34.000Z</time>
      </trkpt>
      <trkpt lat="41.877673" lon="-2.12115">
        <ele>1111.2</ele>
        <time>2023-02-11T10:15:35.000Z</time>
      </trkpt>
      <trkpt lat="41.877653" lon="-2.121002">
        <ele>1110.6</ele>
        <time>2023-02-11T10:15:36.000Z</time>
      </trkpt>
      <trkpt lat="41.877632" lon="-2.120858">
        <ele>1109.8</ele>
        <time>2023-02-11T10:15:37.000Z</time>
      </trkpt>
      <trkpt lat="41.877613" lon="-2.120711">
        <ele>1109.4</ele>
        <time>2023-02-11T10:15:38.000Z</time>
      </trkpt>
      <trkpt lat="41.877598" lon="-2.120565">
        <ele>1108.8</ele>
        <time>2023-02-11T10:15:39.000Z</time>
      </trkpt>
      <trkpt lat="41.877592" lon="-2.120418">
        <ele>1108.4</ele>
        <time>2023-02-11T10:15:40.000Z</time>
      </trkpt>
      <trkpt lat="41.877599" lon="-2.120272">
        <ele>1107.8</ele>
        <time>2023-02-11T10:15:41.000Z</time>
      </trkpt>
      <trkpt lat="41.877617" lon="-2.12013">
        <ele>1107.4</ele>
        <time>2023-02-11T10:15:42.000Z</time>
      </trkpt>
      <trkpt lat="41.877639" lon="-2.119989">
        <ele>1106.8</ele>
        <time>2023-02-11T10:15:43.000Z</time>
      </trkpt>
      <trkpt lat="41.877661" lon="-2.11985">
        <ele>1106.6</ele>
        <time>2023-02-11T10:15:44.000Z</time>
      </trkpt>
      <trkpt lat="41.877685" lon="-2.119713">
        <ele>1105.8</ele>
        <time>2023-02-11T10:15:45.000Z</time>
      </trkpt>
      <trkpt lat="41.877709" lon="-2.11958">
        <ele>1105</ele>
        <time>2023-02-11T10:15:46.000Z</time>
      </trkpt>
      <trkpt lat="41.877732" lon="-2.11945">
        <ele>1104.6</ele>
        <time>2023-02-11T10:15:47.000Z</time>
      </trkpt>
      <trkpt lat="41.877752" lon="-2.119319">
        <ele>1104</ele>
        <time>2023-02-11T10:15:48.000Z</time>
      </trkpt>
      <trkpt lat="41.877763" lon="-2.119185">
        <ele>1103.8</ele>
        <time>2023-02-11T10:15:49.000Z</time>
      </trkpt>
      <trkpt lat="41.877766" lon="-2.119048">
        <ele>1103</ele>
        <time>2023-02-11T10:15:50.000Z</time>
      </trkpt>
      <trkpt lat="41.877766" lon="-2.118908">
        <ele>1102.8</ele>
        <time>2023-02-11T10:15:51.000Z</time>
      </trkpt>
      <trkpt lat="41.87776" lon="-2.118766">
        <ele>1102.4</ele>
        <time>2023-02-11T10:15:52.000Z</time>
      </trkpt>
      <trkpt lat="41.877751" lon="-2.118623">
        <ele>1102</ele>
        <time>2023-02-11T10:15:53.000Z</time>
      </trkpt>
      <trkpt lat="41.877742" lon="-2.118475">
        <ele>1101.6</ele>
        <time>2023-02-11T10:15:54.000Z</time>
      </trkpt>
      <trkpt lat="41.877734" lon="-2.118324">
        <ele>1101.4</ele>
        <time>2023-02-11T10:15:55.000Z</time>
      </trkpt>
      <trkpt lat="41.877723" lon="-2.118168">
        <ele>1101</ele>
        <time>2023-02-11T10:15:56.000Z</time>
      </trkpt>
      <trkpt lat="41.877708" lon="-2.118007">
        <ele>1100</ele>
        <time>2023-02-11T10:15:57.000Z</time>
      </trkpt>
      <trkpt lat="41.877684" lon="-2.117844">
        <ele>1099.8</ele>
        <time>2023-02-11T10:15:58.000Z</time>
      </trkpt>
      <trkpt lat="41.877647" lon="-2.117682">
        <ele>1099</ele>
        <time>2023-02-11T10:15:59.000Z</time>
      </trkpt>
      <trkpt lat="41.877599" lon="-2.117523">
        <ele>1098.6</ele>
        <time>2023-02-11T10:16:00.000Z</time>
      </trkpt>
      <trkpt lat="41.877547" lon="-2.117364">
        <ele>1097.8</ele>
        <time>2023-02-11T10:16:01.000Z</time>
      </trkpt>
      <trkpt lat="41.877493" lon="-2.117207">
        <ele>1097</ele>
        <time>2023-02-11T10:16:02.000Z</time>
      </trkpt>
      <trkpt lat="41.877434" lon="-2.117053">
        <ele>1095.8</ele>
        <time>2023-02-11T10:16:03.000Z</time>
      </trkpt>
      <trkpt lat="41.877374" lon="-2.116899">
        <ele>1094.8</ele>
        <time>2023-02-11T10:16:04.000Z</time>
      </trkpt>
      <trkpt lat="41.877313" lon="-2.116745">
        <ele>1093.8</ele>
        <time>2023-02-11T10:16:05.000Z</time>
      </trkpt>
      <trkpt lat="41.877249" lon="-2.116594">
        <ele>1092</ele>
        <time>2023-02-11T10:16:06.000Z</time>
      </trkpt>
      <trkpt lat="41.877182" lon="-2.116446">
        <ele>1091.4</ele>
        <time>2023-02-11T10:16:07.000Z</time>
      </trkpt>
      <trkpt lat="41.877116" lon="-2.116298">
        <ele>1090.4</ele>
        <time>2023-02-11T10:16:08.000Z</time>
      </trkpt>
      <trkpt lat="41.877052" lon="-2.116148">
        <ele>1090.2</ele>
        <time>2023-02-11T10:16:09.000Z</time>
      </trkpt>
      <trkpt lat="41.87699" lon="-2.115997">
        <ele>1089.4</ele>
        <time>2023-02-11T10:16:10.000Z</time>
      </trkpt>
      <trkpt lat="41.876934" lon="-2.115841">
        <ele>1089</ele>
        <time>2023-02-11T10:16:11.000Z</time>
      </trkpt>
      <trkpt lat="41.876883" lon="-2.11568">
        <ele>1087.8</ele>
        <time>2023-02-11T10:16:12.000Z</time>
      </trkpt>
      <trkpt lat="41.876836" lon="-2.115519">
        <ele>1087.4</ele>
        <time>2023-02-11T10:16:13.000Z</time>
      </trkpt>
      <trkpt lat="41.876792" lon="-2.115357">
        <ele>1086.8</ele>
        <time>2023-02-11T10:16:14.000Z</time>
      </trkpt>
      <trkpt lat="41.876748" lon="-2.115196">
        <ele>1085.2</ele>
        <time>2023-02-11T10:16:15.000Z</time>
      </trkpt>
      <trkpt lat="41.876702" lon="-2.11504">
        <ele>1084.4</ele>
        <time>2023-02-11T10:16:16.000Z</time>
      </trkpt>
      <trkpt lat="41.876652" lon="-2.114889">
        <ele>1082.8</ele>
        <time>2023-02-11T10:16:17.000Z</time>
      </trkpt>
      <trkpt lat="41.876598" lon="-2.114743">
        <ele>1082.4</ele>
        <time>2023-02-11T10:16:18.000Z</time>
      </trkpt>
      <trkpt lat="41.876541" lon="-2.1146">
        <ele>1081.4</ele>
        <time>2023-02-11T10:16:19.000Z</time>
      </trkpt>
      <trkpt lat="41.876482" lon="-2.11446">
        <ele>1081</ele>
        <time>2023-02-11T10:16:20.000Z</time>
      </trkpt>
      <trkpt lat="41.876421" lon="-2.114321">
        <ele>1080</ele>
        <time>2023-02-11T10:16:21.000Z</time>
      </trkpt>
      <trkpt lat="41.87636" lon="-2.114182">
        <ele>1079.6</ele>
        <time>2023-02-11T10:16:22.000Z</time>
      </trkpt>
      <trkpt lat="41.876306" lon="-2.11404">
        <ele>1078.4</ele>
        <time>2023-02-11T10:16:23.000Z</time>
      </trkpt>
      <trkpt lat="41.876263" lon="-2.113895">
        <ele>1077.4</ele>
        <time>2023-02-11T10:16:24.000Z</time>
      </trkpt>
      <trkpt lat="41.87623" lon="-2.113743">
        <ele>1077</ele>
        <time>2023-02-11T10:16:25.000Z</time>
      </trkpt>
      <trkpt lat="41.876204" lon="-2.113587">
        <ele>1075.8</ele>
        <time>2023-02-11T10:16:26.000Z</time>
      </trkpt>
      <trkpt lat="41.87618" lon="-2.11343">
        <ele>1075.4</ele>
        <time>2023-02-11T10:16:27.000Z</time>
      </trkpt>
      <trkpt lat="41.876156" lon="-2.113268">
        <ele>1075</ele>
        <time>2023-02-11T10:16:28.000Z</time>
      </trkpt>
      <trkpt lat="41.876132" lon="-2.113103">
        <ele>1074.6</ele>
        <time>2023-02-11T10:16:29.000Z</time>
      </trkpt>
      <trkpt lat="41.876109" lon="-2.112936">
        <ele>1074</ele>
        <time>2023-02-11T10:16:30.000Z</time>
      </trkpt>
      <trkpt lat="41.876085" lon="-2.11277">
        <ele>1073.4</ele>
        <time>2023-02-11T10:16:31.000Z</time>
      </trkpt>
      <trkpt lat="41.87606" lon="-2.112603">
        <ele>1072.6</ele>
        <time>2023-02-11T10:16:32.000Z</time>
      </trkpt>
      <trkpt lat="41.876037" lon="-2.112435">
        <ele>1071.8</ele>
        <time>2023-02-11T10:16:33.000Z</time>
      </trkpt>
      <trkpt lat="41.876017" lon="-2.112265">
        <ele>1071.4</ele>
        <time>2023-02-11T10:16:34.000Z</time>
      </trkpt>
      <trkpt lat="41.875998" lon="-2.112092">
        <ele>1071</ele>
        <time>2023-02-11T10:16:35.000Z</time>
      </trkpt>
      <trkpt lat="41.875978" lon="-2.111918">
        <ele>1070.6</ele>
        <time>2023-02-11T10:16:36.000Z</time>
      </trkpt>
      <trkpt lat="41.875956" lon="-2.111742">
        <ele>1069.6</ele>
        <time>2023-02-11T10:16:37.000Z</time>
      </trkpt>
      <trkpt lat="41.875936" lon="-2.111565">
        <ele>1069</ele>
        <time>2023-02-11T10:16:38.000Z</time>
      </trkpt>
      <trkpt lat="41.875915" lon="-2.111386">
        <ele>1067.4</ele>
        <time>2023-02-11T10:16:39.000Z</time>
      </trkpt>
      <trkpt lat="41.875895" lon="-2.111207">
        <ele>1066.8</ele>
        <time>2023-02-11T10:16:40.000Z</time>
      </trkpt>
      <trkpt lat="41.875874" lon="-2.111028">
        <ele>1065.4</ele>
        <time>2023-02-11T10:16:41.000Z</time>
      </trkpt>
      <trkpt lat="41.875853" lon="-2.110851">
        <ele>1064.4</ele>
        <time>2023-02-11T10:16:42.000Z</time>
      </trkpt>
      <trkpt lat="41.875832" lon="-2.110677">
        <ele>1063.6</ele>
        <time>2023-02-11T10:16:43.000Z</time>
      </trkpt>
      <trkpt lat="41.875813" lon="-2.110506">
        <ele>1062</ele>
        <time>2023-02-11T10:16:44.000Z</time>
      </trkpt>
      <trkpt lat="41.875794" lon="-2.110337">
        <ele>1061.4</ele>
        <time>2023-02-11T10:16:45.000Z</time>
      </trkpt>
      <trkpt lat="41.875772" lon="-2.110171">
        <ele>1060.4</ele>
        <time>2023-02-11T10:16:46.000Z</time>
      </trkpt>
      <trkpt lat="41.875752" lon="-2.110006">
        <ele>1060</ele>
        <time>2023-02-11T10:16:47.000Z</time>
      </trkpt>
      <trkpt lat="41.875733" lon="-2.109844">
        <ele>1059.4</ele>
        <time>2023-02-11T10:16:48.000Z</time>
      </trkpt>
      <trkpt lat="41.875713" lon="-2.109684">
        <ele>1059.2</ele>
        <time>2023-02-11T10:16:49.000Z</time>
      </trkpt>
      <trkpt lat="41.875693" lon="-2.109526">
        <ele>1058.8</ele>
        <time>2023-02-11T10:16:50.000Z</time>
      </trkpt>
      <trkpt lat="41.875673" lon="-2.109371">
        <ele>1058.6</ele>
        <time>2023-02-11T10:16:51.000Z</time>
      </trkpt>
      <trkpt lat="41.875654" lon="-2.109217">
        <ele>1057.8</ele>
        <time>2023-02-11T10:16:52.000Z</time>
      </trkpt>
      <trkpt lat="41.875636" lon="-2.109066">
        <ele>1057.2</ele>
        <time>2023-02-11T10:16:53.000Z</time>
      </trkpt>
      <trkpt lat="41.875618" lon="-2.108919">
        <ele>1057</ele>
        <time>2023-02-11T10:16:54.000Z</time>
      </trkpt>
      <trkpt lat="41.8756" lon="-2.10877">
        <ele>1056.6</ele>
        <time>2023-02-11T10:16:55.000Z</time>
      </trkpt>
      <trkpt lat="41.875581" lon="-2.108622">
        <ele>1056.4</ele>
        <time>2023-02-11T10:16:56.000Z</time>
      </trkpt>
      <trkpt lat="41.875564" lon="-2.108475">
        <ele>1056.2</ele>
        <time>2023-02-11T10:16:57.000Z</time>
      </trkpt>
      <trkpt lat="41.875545" lon="-2.10833">
        <ele>1056</ele>
        <time>2023-02-11T10:16:58.000Z</time>
      </trkpt>
      <trkpt lat="41.875526" lon="-2.108186">
        <ele>1055.4</ele>
        <time>2023-02-11T10:16:59.000Z</time>
      </trkpt>
      <trkpt lat="41.875507" lon="-2.108044">
        <ele>1055</ele>
        <time>2023-02-11T10:17:00.000Z</time>
      </trkpt>
      <trkpt lat="41.875489" lon="-2.107902">
        <ele>1054.6</ele>
        <time>2023-02-11T10:17:01.000Z</time>
      </trkpt>
      <trkpt lat="41.875472" lon="-2.107761">
        <ele>1054.2</ele>
        <time>2023-02-11T10:17:02.000Z</time>
      </trkpt>
      <trkpt lat="41.875457" lon="-2.107619">
        <ele>1054</ele>
        <time>2023-02-11T10:17:03.000Z</time>
      </trkpt>
      <trkpt lat="41.875442" lon="-2.107481">
        <ele>1053.6</ele>
        <time>2023-02-11T10:17:04.000Z</time>
      </trkpt>
      <trkpt lat="41.875428" lon="-2.107344">
        <ele>1053.4</ele>
        <time>2023-02-11T10:17:05.000Z</time>
      </trkpt>
      <trkpt lat="41.875411" lon="-2.107207">
        <ele>1053.2</ele>
        <time>2023-02-11T10:17:06.000Z</time>
      </trkpt>
      <trkpt lat="41.875395" lon="-2.10707">
        <ele>1053</ele>
        <time>2023-02-11T10:17:07.000Z</time>
      </trkpt>
      <trkpt lat="41.875379" lon="-2.106934">
        <ele>1052.6</ele>
        <time>2023-02-11T10:17:08.000Z</time>
      </trkpt>
      <trkpt lat="41.875364" lon="-2.106799">
        <ele>1052.6</ele>
        <time>2023-02-11T10:17:09.000Z</time>
      </trkpt>
      <trkpt lat="41.875348" lon="-2.106665">
        <ele>1052.4</ele>
        <time>2023-02-11T10:17:10.000Z</time>
      </trkpt>
      <trkpt lat="41.875335" lon="-2.106534">
        <ele>1052</ele>
        <time>2023-02-11T10:17:11.000Z</time>
      </trkpt>
      <trkpt lat="41.875322" lon="-2.106404">
        <ele>1051.8</ele>
        <time>2023-02-11T10:17:12.000Z</time>
      </trkpt>
      <trkpt lat="41.875308" lon="-2.106275">
        <ele>1051.4</ele>
        <time>2023-02-11T10:17:13.000Z</time>
      </trkpt>
      <trkpt lat="41.875293" lon="-2.106149">
        <ele>1051.2</ele>
        <time>2023-02-11T10:17:14.000Z</time>
      </trkpt>
      <trkpt lat="41.875281" lon="-2.106023">
        <ele>1050.8</ele>
        <time>2023-02-11T10:17:15.000Z</time>
      </trkpt>
      <trkpt lat="41.875268" lon="-2.105898">
        <ele>1050.6</ele>
        <time>2023-02-11T10:17:16.000Z</time>
      </trkpt>
      <trkpt lat="41.875254" lon="-2.105774">
        <ele>1050</ele>
        <time>2023-02-11T10:17:17.000Z</time>
      </trkpt>
      <trkpt lat="41.875238" lon="-2.105656">
        <ele>1049.6</ele>
        <time>2023-02-11T10:17:18.000Z</time>
      </trkpt>
      <trkpt lat="41.875225" lon="-2.105538">
        <ele>1049.2</ele>
        <time>2023-02-11T10:17:19.000Z</time>
      </trkpt>
      <trkpt lat="41.875211" lon="-2.105421">
        <ele>1048.8</ele>
        <time>2023-02-11T10:17:20.000Z</time>
      </trkpt>
      <trkpt lat="41.875198" lon="-2.105306">
        <ele>1048.6</ele>
        <time>2023-02-11T10:17:21.000Z</time>
      </trkpt>
      <trkpt lat="41.875185" lon="-2.105193">
        <ele>1048</ele>
        <time>2023-02-11T10:17:22.000Z</time>
      </trkpt>
      <trkpt lat="41.875172" lon="-2.105082">
        <ele>1047.8</ele>
        <time>2023-02-11T10:17:23.000Z</time>
      </trkpt>
      <trkpt lat="41.875161" lon="-2.104973">
        <ele>1047.4</ele>
        <time>2023-02-11T10:17:24.000Z</time>
      </trkpt>
      <trkpt lat="41.875149" lon="-2.10487">
        <ele>1047.4</ele>
        <time>2023-02-11T10:17:25.000Z</time>
      </trkpt>
      <trkpt lat="41.875138" lon="-2.104768">
        <ele>1047.4</ele>
        <time>2023-02-11T10:17:26.000Z</time>
      </trkpt>
      <trkpt lat="41.875129" lon="-2.10467">
        <ele>1047</ele>
        <time>2023-02-11T10:17:27.000Z</time>
      </trkpt>
      <trkpt lat="41.875121" lon="-2.104574">
        <ele>1047</ele>
        <time>2023-02-11T10:17:28.000Z</time>
      </trkpt>
      <trkpt lat="41.875113" lon="-2.104481">
        <ele>1047</ele>
        <time>2023-02-11T10:17:29.000Z</time>
      </trkpt>
      <trkpt lat="41.875104" lon="-2.104388">
        <ele>1046.8</ele>
        <time>2023-02-11T10:17:30.000Z</time>
      </trkpt>
      <trkpt lat="41.875094" lon="-2.104294">
        <ele>1046.8</ele>
        <time>2023-02-11T10:17:31.000Z</time>
      </trkpt>
      <trkpt lat="41.875084" lon="-2.1042">
        <ele>1046.6</ele>
        <time>2023-02-11T10:17:32.000Z</time>
      </trkpt>
      <trkpt lat="41.875071" lon="-2.104107">
        <ele>1046.6</ele>
        <time>2023-02-11T10:17:33.000Z</time>
      </trkpt>
      <trkpt lat="41.875057" lon="-2.104012">
        <ele>1046.6</ele>
        <time>2023-02-11T10:17:34.000Z</time>
      </trkpt>
      <trkpt lat="41.875045" lon="-2.103915">
        <ele>1046.4</ele>
        <time>2023-02-11T10:17:35.000Z</time>
      </trkpt>
      <trkpt lat="41.875031" lon="-2.103818">
        <ele>1046.4</ele>
        <time>2023-02-11T10:17:36.000Z</time>
      </trkpt>
      <trkpt lat="41.875018" lon="-2.10372">
        <ele>1046.4</ele>
        <time>2023-02-11T10:17:37.000Z</time>
      </trkpt>
      <trkpt lat="41.875006" lon="-2.103621">
        <ele>1046.2</ele>
        <time>2023-02-11T10:17:38.000Z</time>
      </trkpt>
      <trkpt lat="41.874994" lon="-2.103523">
        <ele>1046.2</ele>
        <time>2023-02-11T10:17:39.000Z</time>
      </trkpt>
      <trkpt lat="41.87498" lon="-2.103425">
        <ele>1046.2</ele>
        <time>2023-02-11T10:17:40.000Z</time>
      </trkpt>
      <trkpt lat="41.874965" lon="-2.103329">
        <ele>1046.2</ele>
        <time>2023-02-11T10:17:41.000Z</time>
      </trkpt>
      <trkpt lat="41.874948" lon="-2.103233">
        <ele>1046</ele>
        <time>2023-02-11T10:17:42.000Z</time>
      </trkpt>
      <trkpt lat="41.874928" lon="-2.103138">
        <ele>1046</ele>
        <time>2023-02-11T10:17:43.000Z</time>
      </trkpt>
      <trkpt lat="41.874904" lon="-2.103042">
        <ele>1046</ele>
        <time>2023-02-11T10:17:44.000Z</time>
      </trkpt>
      <trkpt lat="41.874877" lon="-2.102947">
        <ele>1046</ele>
        <time>2023-02-11T10:17:45.000Z</time>
      </trkpt>
      <trkpt lat="41.874848" lon="-2.102855">
        <ele>1046</ele>
        <time>2023-02-11T10:17:46.000Z</time>
      </trkpt>
      <trkpt lat="41.874814" lon="-2.102764">
        <ele>1046</ele>
        <time>2023-02-11T10:17:47.000Z</time>
      </trkpt>
      <trkpt lat="41.874779" lon="-2.102671">
        <ele>1046</ele>
        <time>2023-02-11T10:17:48.000Z</time>
      </trkpt>
      <trkpt lat="41.874743" lon="-2.102578">
        <ele>1046</ele>
        <time>2023-02-11T10:17:49.000Z</time>
      </trkpt>
      <trkpt lat="41.874707" lon="-2.102484">
        <ele>1046</ele>
        <time>2023-02-11T10:17:50.000Z</time>
      </trkpt>
      <trkpt lat="41.874671" lon="-2.102389">
        <ele>1046</ele>
        <time>2023-02-11T10:17:51.000Z</time>
      </trkpt>
      <trkpt lat="41.874635" lon="-2.102293">
        <ele>1046</ele>
        <time>2023-02-11T10:17:52.000Z</time>
      </trkpt>
      <trkpt lat="41.874601" lon="-2.102198">
        <ele>1045.8</ele>
        <time>2023-02-11T10:17:53.000Z</time>
      </trkpt>
      <trkpt lat="41.874565" lon="-2.102102">
        <ele>1045.8</ele>
        <time>2023-02-11T10:17:54.000Z</time>
      </trkpt>
      <trkpt lat="41.874526" lon="-2.102007">
        <ele>1045.8</ele>
        <time>2023-02-11T10:17:55.000Z</time>
      </trkpt>
      <trkpt lat="41.874487" lon="-2.101913">
        <ele>1045.8</ele>
        <time>2023-02-11T10:17:56.000Z</time>
      </trkpt>
      <trkpt lat="41.874451" lon="-2.10182">
        <ele>1045.6</ele>
        <time>2023-02-11T10:17:57.000Z</time>
      </trkpt>
      <trkpt lat="41.874416" lon="-2.101726">
        <ele>1045.6</ele>
        <time>2023-02-11T10:17:58.000Z</time>
      </trkpt>
      <trkpt lat="41.874381" lon="-2.101633">
        <ele>1045.6</ele>
        <time>2023-02-11T10:17:59.000Z</time>
      </trkpt>
      <trkpt lat="41.874344" lon="-2.101538">
        <ele>1045.4</ele>
        <time>2023-02-11T10:18:00.000Z</time>
      </trkpt>
      <trkpt lat="41.874308" lon="-2.101442">
        <ele>1045.6</ele>
        <time>2023-02-11T10:18:01.000Z</time>
      </trkpt>
      <trkpt lat="41.874279" lon="-2.101341">
        <ele>1045.6</ele>
        <time>2023-02-11T10:18:02.000Z</time>
      </trkpt>
      <trkpt lat="41.874261" lon="-2.101232">
        <ele>1045.6</ele>
        <time>2023-02-11T10:18:03.000Z</time>
      </trkpt>
      <trkpt lat="41.874252" lon="-2.101113">
        <ele>1045.4</ele>
        <time>2023-02-11T10:18:04.000Z</time>
      </trkpt>
      <trkpt lat="41.874251" lon="-2.100987">
        <ele>1045.4</ele>
        <time>2023-02-11T10:18:05.000Z</time>
      </trkpt>
      <trkpt lat="41.874259" lon="-2.100858">
        <ele>1045</ele>
        <time>2023-02-11T10:18:06.000Z</time>
      </trkpt>
      <trkpt lat="41.874274" lon="-2.100726">
        <ele>1045</ele>
        <time>2023-02-11T10:18:07.000Z</time>
      </trkpt>
      <trkpt lat="41.874293" lon="-2.10059">
        <ele>1044.8</ele>
        <time>2023-02-11T10:18:08.000Z</time>
      </trkpt>
      <trkpt lat="41.874314" lon="-2.100451">
        <ele>1044.4</ele>
        <time>2023-02-11T10:18:09.000Z</time>
      </trkpt>
      <trkpt lat="41.874335" lon="-2.100308">
        <ele>1044</ele>
        <time>2023-02-11T10:18:10.000Z</time>
      </trkpt>
      <trkpt lat="41.874356" lon="-2.10016">
        <ele>1043.2</ele>
        <time>2023-02-11T10:18:11.000Z</time>
      </trkpt>
      <trkpt lat="41.874379" lon="-2.100007">
        <ele>1043</ele>
        <time>2023-02-11T10:18:12.000Z</time>
      </trkpt>
      <trkpt lat="41.8744" lon="-2.09985">
        <ele>1042</ele>
        <time>2023-02-11T10:18:13.000Z</time>
      </trkpt>
      <trkpt lat="41.87442" lon="-2.099691">
        <ele>1041.6</ele>
        <time>2023-02-11T10:18:14.000Z</time>
      </trkpt>
      <trkpt lat="41.874441" lon="-2.099527">
        <ele>1040.8</ele>
        <time>2023-02-11T10:18:15.000Z</time>
      </trkpt>
      <trkpt lat="41.874462" lon="-2.099361">
        <ele>1039.8</ele>
        <time>2023-02-11T10:18:16.000Z</time>
      </trkpt>
      <trkpt lat="41.874485" lon="-2.099192">
        <ele>1039.4</ele>
        <time>2023-02-11T10:18:17.000Z</time>
      </trkpt>
      <trkpt lat="41.874507" lon="-2.099023">
        <ele>1038.4</ele>
        <time>2023-02-11T10:18:18.000Z</time>
      </trkpt>
      <trkpt lat="41.87453" lon="-2.098851">
        <ele>1037.8</ele>
        <time>2023-02-11T10:18:19.000Z</time>
      </trkpt>
      <trkpt lat="41.874555" lon="-2.09868">
        <ele>1036.6</ele>
        <time>2023-02-11T10:18:20.000Z</time>
      </trkpt>
      <trkpt lat="41.874577" lon="-2.098506">
        <ele>1035.8</ele>
        <time>2023-02-11T10:18:21.000Z</time>
      </trkpt>
      <trkpt lat="41.8746" lon="-2.098334">
        <ele>1034.6</ele>
        <time>2023-02-11T10:18:22.000Z</time>
      </trkpt>
      <trkpt lat="41.874623" lon="-2.098164">
        <ele>1034</ele>
        <time>2023-02-11T10:18:23.000Z</time>
      </trkpt>
      <trkpt lat="41.874645" lon="-2.097996">
        <ele>1033.2</ele>
        <time>2023-02-11T10:18:24.000Z</time>
      </trkpt>
      <trkpt lat="41.874666" lon="-2.09783">
        <ele>1032.4</ele>
        <time>2023-02-11T10:18:25.000Z</time>
      </trkpt>
      <trkpt lat="41.874686" lon="-2.097668">
        <ele>1032</ele>
        <time>2023-02-11T10:18:26.000Z</time>
      </trkpt>
      <trkpt lat="41.874713" lon="-2.097508">
        <ele>1031.2</ele>
        <time>2023-02-11T10:18:27.000Z</time>
      </trkpt>
      <trkpt lat="41.874733" lon="-2.097353">
        <ele>1030.8</ele>
        <time>2023-02-11T10:18:28.000Z</time>
      </trkpt>
      <trkpt lat="41.874754" lon="-2.097202">
        <ele>1030.2</ele>
        <time>2023-02-11T10:18:29.000Z</time>
      </trkpt>
      <trkpt lat="41.874775" lon="-2.097052">
        <ele>1030</ele>
        <time>2023-02-11T10:18:30.000Z</time>
      </trkpt>
      <trkpt lat="41.874795" lon="-2.096909">
        <ele>1029.6</ele>
        <time>2023-02-11T10:18:31.000Z</time>
      </trkpt>
      <trkpt lat="41.874813" lon="-2.096769">
        <ele>1029.4</ele>
        <time>2023-02-11T10:18:32.000Z</time>
      </trkpt>
      <trkpt lat="41.87483" lon="-2.096628">
        <ele>1029</ele>
        <time>2023-02-11T10:18:33.000Z</time>
      </trkpt>
      <trkpt lat="41.874848" lon="-2.096489">
        <ele>1028.6</ele>
        <time>2023-02-11T10:18:34.000Z</time>
      </trkpt>
      <trkpt lat="41.874866" lon="-2.09635">
        <ele>1028.4</ele>
        <time>2023-02-11T10:18:35.000Z</time>
      </trkpt>
      <trkpt lat="41.874886" lon="-2.096212">
        <ele>1028.2</ele>
        <time>2023-02-11T10:18:36.000Z</time>
      </trkpt>
      <trkpt lat="41.874904" lon="-2.096073">
        <ele>1028</ele>
        <time>2023-02-11T10:18:37.000Z</time>
      </trkpt>
      <trkpt lat="41.874921" lon="-2.095933">
        <ele>1027.6</ele>
        <time>2023-02-11T10:18:38.000Z</time>
      </trkpt>
      <trkpt lat="41.874941" lon="-2.095793">
        <ele>1027.4</ele>
        <time>2023-02-11T10:18:39.000Z</time>
      </trkpt>
      <trkpt lat="41.874961" lon="-2.095657">
        <ele>1027.2</ele>
        <time>2023-02-11T10:18:40.000Z</time>
      </trkpt>
      <trkpt lat="41.87498" lon="-2.095519">
        <ele>1027</ele>
        <time>2023-02-11T10:18:41.000Z</time>
      </trkpt>
      <trkpt lat="41.874998" lon="-2.095382">
        <ele>1026.6</ele>
        <time>2023-02-11T10:18:42.000Z</time>
      </trkpt>
      <trkpt lat="41.875018" lon="-2.095247">
        <ele>1026.6</ele>
        <time>2023-02-11T10:18:43.000Z</time>
      </trkpt>
      <trkpt lat="41.875035" lon="-2.095113">
        <ele>1026.4</ele>
        <time>2023-02-11T10:18:44.000Z</time>
      </trkpt>
      <trkpt lat="41.875052" lon="-2.094982">
        <ele>1026</ele>
        <time>2023-02-11T10:18:45.000Z</time>
      </trkpt>
      <trkpt lat="41.875072" lon="-2.094853">
        <ele>1025.8</ele>
        <time>2023-02-11T10:18:46.000Z</time>
      </trkpt>
      <trkpt lat="41.875091" lon="-2.094724">
        <ele>1025.4</ele>
        <time>2023-02-11T10:18:47.000Z</time>
      </trkpt>
      <trkpt lat="41.875108" lon="-2.094596">
        <ele>1025.2</ele>
        <time>2023-02-11T10:18:48.000Z</time>
      </trkpt>
      <trkpt lat="41.875126" lon="-2.09447">
        <ele>1025.2</ele>
        <time>2023-02-11T10:18:49.000Z</time>
      </trkpt>
      <trkpt lat="41.875142" lon="-2.094345">
        <ele>1025.2</ele>
        <time>2023-02-11T10:18:50.000Z</time>
      </trkpt>
      <trkpt lat="41.875157" lon="-2.094222">
        <ele>1025</ele>
        <time>2023-02-11T10:18:51.000Z</time>
      </trkpt>
      <trkpt lat="41.875171" lon="-2.094101">
        <ele>1025</ele>
        <time>2023-02-11T10:18:52.000Z</time>
      </trkpt>
      <trkpt lat="41.875185" lon="-2.093983">
        <ele>1024.8</ele>
        <time>2023-02-11T10:18:53.000Z</time>
      </trkpt>
      <trkpt lat="41.8752" lon="-2.093867">
        <ele>1024.8</ele>
        <time>2023-02-11T10:18:54.000Z</time>
      </trkpt>
      <trkpt lat="41.875215" lon="-2.093751">
        <ele>1024.4</ele>
        <time>2023-02-11T10:18:55.000Z</time>
      </trkpt>
      <trkpt lat="41.875232" lon="-2.093635">
        <ele>1023.6</ele>
        <time>2023-02-11T10:18:56.000Z</time>
      </trkpt>
      <trkpt lat="41.875247" lon="-2.093515">
        <ele>1023.8</ele>
        <time>2023-02-11T10:18:57.000Z</time>
      </trkpt>
      <trkpt lat="41.875263" lon="-2.093393">
        <ele>1023.4</ele>
        <time>2023-02-11T10:18:58.000Z</time>
      </trkpt>
      <trkpt lat="41.87528" lon="-2.093273">
        <ele>1023.4</ele>
        <time>2023-02-11T10:18:59.000Z</time>
      </trkpt>
      <trkpt lat="41.875297" lon="-2.093153">
        <ele>1023.2</ele>
        <time>2023-02-11T10:19:00.000Z</time>
      </trkpt>
      <trkpt lat="41.875313" lon="-2.093038">
        <ele>1023</ele>
        <time>2023-02-11T10:19:01.000Z</time>
      </trkpt>
      <trkpt lat="41.875329" lon="-2.092923">
        <ele>1022.6</ele>
        <time>2023-02-11T10:19:02.000Z</time>
      </trkpt>
      <trkpt lat="41.875343" lon="-2.092806">
        <ele>1022.4</ele>
        <time>2023-02-11T10:19:03.000Z</time>
      </trkpt>
      <trkpt lat="41.875358" lon="-2.09269">
        <ele>1022.4</ele>
        <time>2023-02-11T10:19:04.000Z</time>
      </trkpt>
      <trkpt lat="41.875374" lon="-2.092573">
        <ele>1022.2</ele>
        <time>2023-02-11T10:19:05.000Z</time>
      </trkpt>
      <trkpt lat="41.875389" lon="-2.092456">
        <ele>1022.2</ele>
        <time>2023-02-11T10:19:06.000Z</time>
      </trkpt>
      <trkpt lat="41.875405" lon="-2.09234">
        <ele>1022</ele>
        <time>2023-02-11T10:19:07.000Z</time>
      </trkpt>
      <trkpt lat="41.875421" lon="-2.092223">
        <ele>1022</ele>
        <time>2023-02-11T10:19:08.000Z</time>
      </trkpt>
      <trkpt lat="41.875437" lon="-2.092107">
        <ele>1021.8</ele>
        <time>2023-02-11T10:19:09.000Z</time>
      </trkpt>
      <trkpt lat="41.875451" lon="-2.09199">
        <ele>1021.6</ele>
        <time>2023-02-11T10:19:10.000Z</time>
      </trkpt>
      <trkpt lat="41.875466" lon="-2.091874">
        <ele>1021.8</ele>
        <time>2023-02-11T10:19:11.000Z</time>
      </trkpt>
      <trkpt lat="41.875482" lon="-2.091758">
        <ele>1021.4</ele>
        <time>2023-02-11T10:19:12.000Z</time>
      </trkpt>
      <trkpt lat="41.875498" lon="-2.091642">
        <ele>1021.4</ele>
        <time>2023-02-11T10:19:13.000Z</time>
      </trkpt>
      <trkpt lat="41.875512" lon="-2.091525">
        <ele>1021.4</ele>
        <time>2023-02-11T10:19:14.000Z</time>
      </trkpt>
      <trkpt lat="41.875527" lon="-2.091406">
        <ele>1021.4</ele>
        <time>2023-02-11T10:19:15.000Z</time>
      </trkpt>
      <trkpt lat="41.875544" lon="-2.091287">
        <ele>1021.4</ele>
        <time>2023-02-11T10:19:16.000Z</time>
      </trkpt>
      <trkpt lat="41.875561" lon="-2.091169">
        <ele>1021.2</ele>
        <time>2023-02-11T10:19:17.000Z</time>
      </trkpt>
      <trkpt lat="41.875576" lon="-2.091052">
        <ele>1021.2</ele>
        <time>2023-02-11T10:19:18.000Z</time>
      </trkpt>
      <trkpt lat="41.875592" lon="-2.090933">
        <ele>1021.2</ele>
        <time>2023-02-11T10:19:19.000Z</time>
      </trkpt>
      <trkpt lat="41.875608" lon="-2.090814">
        <ele>1021.2</ele>
        <time>2023-02-11T10:19:20.000Z</time>
      </trkpt>
      <trkpt lat="41.875626" lon="-2.090695">
        <ele>1021.2</ele>
        <time>2023-02-11T10:19:21.000Z</time>
      </trkpt>
      <trkpt lat="41.875641" lon="-2.090574">
        <ele>1021.2</ele>
        <time>2023-02-11T10:19:22.000Z</time>
      </trkpt>
      <trkpt lat="41.875658" lon="-2.090454">
        <ele>1021</ele>
        <time>2023-02-11T10:19:23.000Z</time>
      </trkpt>
      <trkpt lat="41.875674" lon="-2.090335">
        <ele>1021</ele>
        <time>2023-02-11T10:19:24.000Z</time>
      </trkpt>
      <trkpt lat="41.875689" lon="-2.090216">
        <ele>1021</ele>
        <time>2023-02-11T10:19:25.000Z</time>
      </trkpt>
      <trkpt lat="41.875705" lon="-2.090096">
        <ele>1021</ele>
        <time>2023-02-11T10:19:26.000Z</time>
      </trkpt>
      <trkpt lat="41.87572" lon="-2.089975">
        <ele>1020.8</ele>
        <time>2023-02-11T10:19:27.000Z</time>
      </trkpt>
      <trkpt lat="41.875737" lon="-2.089854">
        <ele>1020.8</ele>
        <time>2023-02-11T10:19:28.000Z</time>
      </trkpt>
      <trkpt lat="41.875752" lon="-2.089732">
        <ele>1020.6</ele>
        <time>2023-02-11T10:19:29.000Z</time>
      </trkpt>
      <trkpt lat="41.875767" lon="-2.08961">
        <ele>1020.6</ele>
        <time>2023-02-11T10:19:30.000Z</time>
      </trkpt>
      <trkpt lat="41.875783" lon="-2.08949">
        <ele>1020.6</ele>
        <time>2023-02-11T10:19:31.000Z</time>
      </trkpt>
      <trkpt lat="41.875798" lon="-2.089373">
        <ele>1020.6</ele>
        <time>2023-02-11T10:19:32.000Z</time>
      </trkpt>
      <trkpt lat="41.875813" lon="-2.089257">
        <ele>1020.6</ele>
        <time>2023-02-11T10:19:33.000Z</time>
      </trkpt>
      <trkpt lat="41.875829" lon="-2.089142">
        <ele>1020.6</ele>
        <time>2023-02-11T10:19:34.000Z</time>
      </trkpt>
      <trkpt lat="41.875845" lon="-2.089028">
        <ele>1020.6</ele>
        <time>2023-02-11T10:19:35.000Z</time>
      </trkpt>
      <trkpt lat="41.875861" lon="-2.088915">
        <ele>1020.4</ele>
        <time>2023-02-11T10:19:36.000Z</time>
      </trkpt>
      <trkpt lat="41.875874" lon="-2.088802">
        <ele>1020.6</ele>
        <time>2023-02-11T10:19:37.000Z</time>
      </trkpt>
      <trkpt lat="41.875889" lon="-2.088693">
        <ele>1020.8</ele>
        <time>2023-02-11T10:19:38.000Z</time>
      </trkpt>
      <trkpt lat="41.875903" lon="-2.08858">
        <ele>1020.8</ele>
        <time>2023-02-11T10:19:39.000Z</time>
      </trkpt>
      <trkpt lat="41.875917" lon="-2.088466">
        <ele>1020.8</ele>
        <time>2023-02-11T10:19:40.000Z</time>
      </trkpt>
      <trkpt lat="41.875933" lon="-2.088353">
        <ele>1020.8</ele>
        <time>2023-02-11T10:19:41.000Z</time>
      </trkpt>
      <trkpt lat="41.87595" lon="-2.088238">
        <ele>1020.8</ele>
        <time>2023-02-11T10:19:42.000Z</time>
      </trkpt>
      <trkpt lat="41.875966" lon="-2.088126">
        <ele>1020.8</ele>
        <time>2023-02-11T10:19:43.000Z</time>
      </trkpt>
      <trkpt lat="41.875981" lon="-2.088012">
        <ele>1020.8</ele>
        <time>2023-02-11T10:19:44.000Z</time>
      </trkpt>
      <trkpt lat="41.875996" lon="-2.0879">
        <ele>1020.8</ele>
        <time>2023-02-11T10:19:45.000Z</time>
      </trkpt>
      <trkpt lat="41.876011" lon="-2.087788">
        <ele>1020.8</ele>
        <time>2023-02-11T10:19:46.000Z</time>
      </trkpt>
      <trkpt lat="41.876026" lon="-2.087675">
        <ele>1021</ele>
        <time>2023-02-11T10:19:47.000Z</time>
      </trkpt>
      <trkpt lat="41.876041" lon="-2.087565">
        <ele>1021</ele>
        <time>2023-02-11T10:19:48.000Z</time>
      </trkpt>
      <trkpt lat="41.876056" lon="-2.087454">
        <ele>1021</ele>
        <time>2023-02-11T10:19:49.000Z</time>
      </trkpt>
      <trkpt lat="41.876072" lon="-2.087344">
        <ele>1021</ele>
        <time>2023-02-11T10:19:50.000Z</time>
      </trkpt>
      <trkpt lat="41.876087" lon="-2.087233">
        <ele>1021</ele>
        <time>2023-02-11T10:19:51.000Z</time>
      </trkpt>
      <trkpt lat="41.876104" lon="-2.087121">
        <ele>1021</ele>
        <time>2023-02-11T10:19:52.000Z</time>
      </trkpt>
      <trkpt lat="41.876119" lon="-2.08701">
        <ele>1021</ele>
        <time>2023-02-11T10:19:53.000Z</time>
      </trkpt>
      <trkpt lat="41.876135" lon="-2.086899">
        <ele>1021</ele>
        <time>2023-02-11T10:19:54.000Z</time>
      </trkpt>
      <trkpt lat="41.87615" lon="-2.086789">
        <ele>1021</ele>
        <time>2023-02-11T10:19:55.000Z</time>
      </trkpt>
      <trkpt lat="41.876164" lon="-2.086679">
        <ele>1021.2</ele>
        <time>2023-02-11T10:19:56.000Z</time>
      </trkpt>
      <trkpt lat="41.876179" lon="-2.086567">
        <ele>1021.2</ele>
        <time>2023-02-11T10:19:57.000Z</time>
      </trkpt>
      <trkpt lat="41.876193" lon="-2.086458">
        <ele>1021.2</ele>
        <time>2023-02-11T10:19:58.000Z</time>
      </trkpt>
      <trkpt lat="41.876206" lon="-2.086353">
        <ele>1020.8</ele>
        <time>2023-02-11T10:19:59.000Z</time>
      </trkpt>
      <trkpt lat="41.876218" lon="-2.086246">
        <ele>1020.8</ele>
        <time>2023-02-11T10:20:00.000Z</time>
      </trkpt>
      <trkpt lat="41.876232" lon="-2.086139">
        <ele>1020.8</ele>
        <time>2023-02-11T10:20:01.000Z</time>
      </trkpt>
      <trkpt lat="41.876242" lon="-2.086032">
        <ele>1020.8</ele>
        <time>2023-02-11T10:20:02.000Z</time>
      </trkpt>
      <trkpt lat="41.876249" lon="-2.085927">
        <ele>1020.8</ele>
        <time>2023-02-11T10:20:03.000Z</time>
      </trkpt>
      <trkpt lat="41.876254" lon="-2.085821">
        <ele>1020.8</ele>
        <time>2023-02-11T10:20:04.000Z</time>
      </trkpt>
      <trkpt lat="41.876258" lon="-2.085716">
        <ele>1020.8</ele>
        <time>2023-02-11T10:20:05.000Z</time>
      </trkpt>
      <trkpt lat="41.876259" lon="-2.085612">
        <ele>1020.8</ele>
        <time>2023-02-11T10:20:06.000Z</time>
      </trkpt>
      <trkpt lat="41.876259" lon="-2.085509">
        <ele>1021</ele>
        <time>2023-02-11T10:20:07.000Z</time>
      </trkpt>
      <trkpt lat="41.876258" lon="-2.085407">
        <ele>1021</ele>
        <time>2023-02-11T10:20:08.000Z</time>
      </trkpt>
      <trkpt lat="41.876257" lon="-2.085307">
        <ele>1021.2</ele>
        <time>2023-02-11T10:20:09.000Z</time>
      </trkpt>
      <trkpt lat="41.876253" lon="-2.085205">
        <ele>1021.2</ele>
        <time>2023-02-11T10:20:10.000Z</time>
      </trkpt>
      <trkpt lat="41.876247" lon="-2.085099">
        <ele>1021.4</ele>
        <time>2023-02-11T10:20:11.000Z</time>
      </trkpt>
      <trkpt lat="41.876242" lon="-2.08499">
        <ele>1021.4</ele>
        <time>2023-02-11T10:20:12.000Z</time>
      </trkpt>
      <trkpt lat="41.876236" lon="-2.084882">
        <ele>1021.4</ele>
        <time>2023-02-11T10:20:13.000Z</time>
      </trkpt>
      <trkpt lat="41.876228" lon="-2.084775">
        <ele>1021.4</ele>
        <time>2023-02-11T10:20:14.000Z</time>
      </trkpt>
      <trkpt lat="41.876216" lon="-2.084668">
        <ele>1021.8</ele>
        <time>2023-02-11T10:20:15.000Z</time>
      </trkpt>
      <trkpt lat="41.876203" lon="-2.084562">
        <ele>1021.8</ele>
        <time>2023-02-11T10:20:16.000Z</time>
      </trkpt>
      <trkpt lat="41.876189" lon="-2.084458">
        <ele>1021.8</ele>
        <time>2023-02-11T10:20:17.000Z</time>
      </trkpt>
      <trkpt lat="41.876172" lon="-2.084355">
        <ele>1021.8</ele>
        <time>2023-02-11T10:20:18.000Z</time>
      </trkpt>
      <trkpt lat="41.876153" lon="-2.084254">
        <ele>1021.8</ele>
        <time>2023-02-11T10:20:19.000Z</time>
      </trkpt>
      <trkpt lat="41.876135" lon="-2.08415">
        <ele>1021.8</ele>
        <time>2023-02-11T10:20:20.000Z</time>
      </trkpt>
      <trkpt lat="41.876114" lon="-2.084045">
        <ele>1021.8</ele>
        <time>2023-02-11T10:20:21.000Z</time>
      </trkpt>
      <trkpt lat="41.876093" lon="-2.083939">
        <ele>1021.8</ele>
        <time>2023-02-11T10:20:22.000Z</time>
      </trkpt>
      <trkpt lat="41.876072" lon="-2.083834">
        <ele>1021.6</ele>
        <time>2023-02-11T10:20:23.000Z</time>
      </trkpt>
      <trkpt lat="41.876051" lon="-2.083729">
        <ele>1021.6</ele>
        <time>2023-02-11T10:20:24.000Z</time>
      </trkpt>
      <trkpt lat="41.876029" lon="-2.083625">
        <ele>1021.6</ele>
        <time>2023-02-11T10:20:25.000Z</time>
      </trkpt>
      <trkpt lat="41.876009" lon="-2.083521">
        <ele>1021.6</ele>
        <time>2023-02-11T10:20:26.000Z</time>
      </trkpt>
      <trkpt lat="41.875987" lon="-2.083421">
        <ele>1021.6</ele>
        <time>2023-02-11T10:20:27.000Z</time>
      </trkpt>
      <trkpt lat="41.875965" lon="-2.08332">
        <ele>1021.6</ele>
        <time>2023-02-11T10:20:28.000Z</time>
      </trkpt>
      <trkpt lat="41.875944" lon="-2.08322">
        <ele>1021.6</ele>
        <time>2023-02-11T10:20:29.000Z</time>
      </trkpt>
      <trkpt lat="41.875925" lon="-2.083119">
        <ele>1021.6</ele>
        <time>2023-02-11T10:20:30.000Z</time>
      </trkpt>
      <trkpt lat="41.875905" lon="-2.083019">
        <ele>1021.6</ele>
        <time>2023-02-11T10:20:31.000Z</time>
      </trkpt>
      <trkpt lat="41.875885" lon="-2.08292">
        <ele>1021.6</ele>
        <time>2023-02-11T10:20:32.000Z</time>
      </trkpt>
      <trkpt lat="41.875865" lon="-2.082819">
        <ele>1021.6</ele>
        <time>2023-02-11T10:20:33.000Z</time>
      </trkpt>
      <trkpt lat="41.875845" lon="-2.08272">
        <ele>1021.6</ele>
        <time>2023-02-11T10:20:34.000Z</time>
      </trkpt>
      <trkpt lat="41.875825" lon="-2.08262">
        <ele>1021.6</ele>
        <time>2023-02-11T10:20:35.000Z</time>
      </trkpt>
      <trkpt lat="41.875804" lon="-2.082521">
        <ele>1021.6</ele>
        <time>2023-02-11T10:20:36.000Z</time>
      </trkpt>
      <trkpt lat="41.875785" lon="-2.082422">
        <ele>1021.6</ele>
        <time>2023-02-11T10:20:37.000Z</time>
      </trkpt>
      <trkpt lat="41.875765" lon="-2.082325">
        <ele>1021.8</ele>
        <time>2023-02-11T10:20:38.000Z</time>
      </trkpt>
      <trkpt lat="41.875746" lon="-2.082231">
        <ele>1021.8</ele>
        <time>2023-02-11T10:20:39.000Z</time>
      </trkpt>
      <trkpt lat="41.875727" lon="-2.08214">
        <ele>1021.8</ele>
        <time>2023-02-11T10:20:40.000Z</time>
      </trkpt>
      <trkpt lat="41.875708" lon="-2.08205">
        <ele>1022</ele>
        <time>2023-02-11T10:20:41.000Z</time>
      </trkpt>
      <trkpt lat="41.875689" lon="-2.081961">
        <ele>1022</ele>
        <time>2023-02-11T10:20:42.000Z</time>
      </trkpt>
      <trkpt lat="41.875671" lon="-2.081872">
        <ele>1022</ele>
        <time>2023-02-11T10:20:43.000Z</time>
      </trkpt>
      <trkpt lat="41.875652" lon="-2.081782">
        <ele>1022</ele>
        <time>2023-02-11T10:20:44.000Z</time>
      </trkpt>
      <trkpt lat="41.875635" lon="-2.081692">
        <ele>1022</ele>
        <time>2023-02-11T10:20:45.000Z</time>
      </trkpt>
      <trkpt lat="41.875616" lon="-2.0816">
        <ele>1022</ele>
        <time>2023-02-11T10:20:46.000Z</time>
      </trkpt>
      <trkpt lat="41.8756" lon="-2.081508">
        <ele>1022.2</ele>
        <time>2023-02-11T10:20:47.000Z</time>
      </trkpt>
      <trkpt lat="41.875583" lon="-2.081416">
        <ele>1022.6</ele>
        <time>2023-02-11T10:20:48.000Z</time>
      </trkpt>
      <trkpt lat="41.875566" lon="-2.081325">
        <ele>1022.8</ele>
        <time>2023-02-11T10:20:49.000Z</time>
      </trkpt>
      <trkpt lat="41.875548" lon="-2.081233">
        <ele>1022.8</ele>
        <time>2023-02-11T10:20:50.000Z</time>
      </trkpt>
      <trkpt lat="41.875532" lon="-2.081142">
        <ele>1023</ele>
        <time>2023-02-11T10:20:51.000Z</time>
      </trkpt>
      <trkpt lat="41.875516" lon="-2.081052">
        <ele>1023.4</ele>
        <time>2023-02-11T10:20:52.000Z</time>
      </trkpt>
      <trkpt lat="41.875498" lon="-2.080964">
        <ele>1023.4</ele>
        <time>2023-02-11T10:20:53.000Z</time>
      </trkpt>
      <trkpt lat="41.875483" lon="-2.080875">
        <ele>1023.6</ele>
        <time>2023-02-11T10:20:54.000Z</time>
      </trkpt>
      <trkpt lat="41.875466" lon="-2.080786">
        <ele>1023.6</ele>
        <time>2023-02-11T10:20:55.000Z</time>
      </trkpt>
      <trkpt lat="41.87545" lon="-2.080696">
        <ele>1023.8</ele>
        <time>2023-02-11T10:20:56.000Z</time>
      </trkpt>
      <trkpt lat="41.875429" lon="-2.080606">
        <ele>1023.8</ele>
        <time>2023-02-11T10:20:57.000Z</time>
      </trkpt>
      <trkpt lat="41.875408" lon="-2.080518">
        <ele>1024</ele>
        <time>2023-02-11T10:20:58.000Z</time>
      </trkpt>
      <trkpt lat="41.875388" lon="-2.080427">
        <ele>1024.2</ele>
        <time>2023-02-11T10:20:59.000Z</time>
      </trkpt>
      <trkpt lat="41.875368" lon="-2.080334">
        <ele>1024.2</ele>
        <time>2023-02-11T10:21:00.000Z</time>
      </trkpt>
      <trkpt lat="41.875348" lon="-2.08024">
        <ele>1024.4</ele>
        <time>2023-02-11T10:21:01.000Z</time>
      </trkpt>
      <trkpt lat="41.875328" lon="-2.080143">
        <ele>1024.4</ele>
        <time>2023-02-11T10:21:02.000Z</time>
      </trkpt>
      <trkpt lat="41.875309" lon="-2.080046">
        <ele>1024.4</ele>
        <time>2023-02-11T10:21:03.000Z</time>
      </trkpt>
      <trkpt lat="41.875291" lon="-2.079949">
        <ele>1024.4</ele>
        <time>2023-02-11T10:21:04.000Z</time>
      </trkpt>
      <trkpt lat="41.875273" lon="-2.079853">
        <ele>1024.4</ele>
        <time>2023-02-11T10:21:05.000Z</time>
      </trkpt>
      <trkpt lat="41.875253" lon="-2.079756">
        <ele>1024.4</ele>
        <time>2023-02-11T10:21:06.000Z</time>
      </trkpt>
      <trkpt lat="41.875233" lon="-2.07966">
        <ele>1024.4</ele>
        <time>2023-02-11T10:21:07.000Z</time>
      </trkpt>
      <trkpt lat="41.875213" lon="-2.079564">
        <ele>1024.4</ele>
        <time>2023-02-11T10:21:08.000Z</time>
      </trkpt>
      <trkpt lat="41.875194" lon="-2.079467">
        <ele>1024.4</ele>
        <time>2023-02-11T10:21:09.000Z</time>
      </trkpt>
      <trkpt lat="41.875174" lon="-2.079368">
        <ele>1024.4</ele>
        <time>2023-02-11T10:21:10.000Z</time>
      </trkpt>
      <trkpt lat="41.875155" lon="-2.079267">
        <ele>1024.4</ele>
        <time>2023-02-11T10:21:11.000Z</time>
      </trkpt>
      <trkpt lat="41.875136" lon="-2.079164">
        <ele>1024.2</ele>
        <time>2023-02-11T10:21:12.000Z</time>
      </trkpt>
      <trkpt lat="41.875115" lon="-2.079057">
        <ele>1024.2</ele>
        <time>2023-02-11T10:21:13.000Z</time>
      </trkpt>
      <trkpt lat="41.875094" lon="-2.078948">
        <ele>1024</ele>
        <time>2023-02-11T10:21:14.000Z</time>
      </trkpt>
      <trkpt lat="41.875073" lon="-2.078837">
        <ele>1024</ele>
        <time>2023-02-11T10:21:15.000Z</time>
      </trkpt>
      <trkpt lat="41.875051" lon="-2.078725">
        <ele>1023.8</ele>
        <time>2023-02-11T10:21:16.000Z</time>
      </trkpt>
      <trkpt lat="41.875027" lon="-2.078615">
        <ele>1023.8</ele>
        <time>2023-02-11T10:21:17.000Z</time>
      </trkpt>
      <trkpt lat="41.875005" lon="-2.078505">
        <ele>1023.6</ele>
        <time>2023-02-11T10:21:18.000Z</time>
      </trkpt>
      <trkpt lat="41.874984" lon="-2.078397">
        <ele>1023.2</ele>
        <time>2023-02-11T10:21:19.000Z</time>
      </trkpt>
      <trkpt lat="41.874965" lon="-2.078289">
        <ele>1023</ele>
        <time>2023-02-11T10:21:20.000Z</time>
      </trkpt>
      <trkpt lat="41.874946" lon="-2.078182">
        <ele>1022.8</ele>
        <time>2023-02-11T10:21:21.000Z</time>
      </trkpt>
      <trkpt lat="41.874928" lon="-2.078076">
        <ele>1022.6</ele>
        <time>2023-02-11T10:21:22.000Z</time>
      </trkpt>
      <trkpt lat="41.87491" lon="-2.07797">
        <ele>1022.4</ele>
        <time>2023-02-11T10:21:23.000Z</time>
      </trkpt>
      <trkpt lat="41.874891" lon="-2.077866">
        <ele>1022.2</ele>
        <time>2023-02-11T10:21:24.000Z</time>
      </trkpt>
      <trkpt lat="41.874871" lon="-2.077764">
        <ele>1022.2</ele>
        <time>2023-02-11T10:21:25.000Z</time>
      </trkpt>
      <trkpt lat="41.87485" lon="-2.077665">
        <ele>1022</ele>
        <time>2023-02-11T10:21:26.000Z</time>
      </trkpt>
      <trkpt lat="41.87483" lon="-2.077571">
        <ele>1022</ele>
        <time>2023-02-11T10:21:27.000Z</time>
      </trkpt>
      <trkpt lat="41.87481" lon="-2.077478">
        <ele>1022</ele>
        <time>2023-02-11T10:21:28.000Z</time>
      </trkpt>
      <trkpt lat="41.874791" lon="-2.077389">
        <ele>1022</ele>
        <time>2023-02-11T10:21:29.000Z</time>
      </trkpt>
      <trkpt lat="41.874773" lon="-2.077304">
        <ele>1022</ele>
        <time>2023-02-11T10:21:30.000Z</time>
      </trkpt>
      <trkpt lat="41.874755" lon="-2.077223">
        <ele>1022.2</ele>
        <time>2023-02-11T10:21:31.000Z</time>
      </trkpt>
      <trkpt lat="41.87474" lon="-2.077143">
        <ele>1022.2</ele>
        <time>2023-02-11T10:21:32.000Z</time>
      </trkpt>
      <trkpt lat="41.874723" lon="-2.077065">
        <ele>1022.4</ele>
        <time>2023-02-11T10:21:33.000Z</time>
      </trkpt>
      <trkpt lat="41.874707" lon="-2.076989">
        <ele>1023</ele>
        <time>2023-02-11T10:21:34.000Z</time>
      </trkpt>
      <trkpt lat="41.874692" lon="-2.076912">
        <ele>1023.4</ele>
        <time>2023-02-11T10:21:35.000Z</time>
      </trkpt>
      <trkpt lat="41.874677" lon="-2.076837">
        <ele>1023.6</ele>
        <time>2023-02-11T10:21:36.000Z</time>
      </trkpt>
      <trkpt lat="41.874661" lon="-2.076762">
        <ele>1024</ele>
        <time>2023-02-11T10:21:37.000Z</time>
      </trkpt>
      <trkpt lat="41.874646" lon="-2.076688">
        <ele>1024</ele>
        <time>2023-02-11T10:21:38.000Z</time>
      </trkpt>
      <trkpt lat="41.874634" lon="-2.076612">
        <ele>1024.6</ele>
        <time>2023-02-11T10:21:39.000Z</time>
      </trkpt>
      <trkpt lat="41.874619" lon="-2.076536">
        <ele>1024.6</ele>
        <time>2023-02-11T10:21:40.000Z</time>
      </trkpt>
      <trkpt lat="41.874601" lon="-2.076459">
        <ele>1025</ele>
        <time>2023-02-11T10:21:41.000Z</time>
      </trkpt>
      <trkpt lat="41.874588" lon="-2.076381">
        <ele>1025.2</ele>
        <time>2023-02-11T10:21:42.000Z</time>
      </trkpt>
      <trkpt lat="41.874573" lon="-2.076301">
        <ele>1025.6</ele>
        <time>2023-02-11T10:21:43.000Z</time>
      </trkpt>
      <trkpt lat="41.874553" lon="-2.076219">
        <ele>1026</ele>
        <time>2023-02-11T10:21:44.000Z</time>
      </trkpt>
      <trkpt lat="41.874538" lon="-2.076137">
        <ele>1026.4</ele>
        <time>2023-02-11T10:21:45.000Z</time>
      </trkpt>
      <trkpt lat="41.874521" lon="-2.076053">
        <ele>1027</ele>
        <time>2023-02-11T10:21:46.000Z</time>
      </trkpt>
      <trkpt lat="41.874504" lon="-2.075961">
        <ele>1027</ele>
        <time>2023-02-11T10:21:47.000Z</time>
      </trkpt>
      <trkpt lat="41.874487" lon="-2.075867">
        <ele>1027.4</ele>
        <time>2023-02-11T10:21:48.000Z</time>
      </trkpt>
      <trkpt lat="41.874469" lon="-2.075769">
        <ele>1027.6</ele>
        <time>2023-02-11T10:21:49.000Z</time>
      </trkpt>
      <trkpt lat="41.874449" lon="-2.075669">
        <ele>1027.8</ele>
        <time>2023-02-11T10:21:50.000Z</time>
      </trkpt>
      <trkpt lat="41.874429" lon="-2.075566">
        <ele>1028</ele>
        <time>2023-02-11T10:21:51.000Z</time>
      </trkpt>
      <trkpt lat="41.874406" lon="-2.075461">
        <ele>1028.2</ele>
        <time>2023-02-11T10:21:52.000Z</time>
      </trkpt>
      <trkpt lat="41.874384" lon="-2.075355">
        <ele>1028.4</ele>
        <time>2023-02-11T10:21:53.000Z</time>
      </trkpt>
      <trkpt lat="41.874362" lon="-2.075248">
        <ele>1028.4</ele>
        <time>2023-02-11T10:21:54.000Z</time>
      </trkpt>
      <trkpt lat="41.87434" lon="-2.075143">
        <ele>1028.4</ele>
        <time>2023-02-11T10:21:55.000Z</time>
      </trkpt>
      <trkpt lat="41.874319" lon="-2.075038">
        <ele>1028.4</ele>
        <time>2023-02-11T10:21:56.000Z</time>
      </trkpt>
      <trkpt lat="41.874299" lon="-2.074933">
        <ele>1028.4</ele>
        <time>2023-02-11T10:21:57.000Z</time>
      </trkpt>
      <trkpt lat="41.874281" lon="-2.07483">
        <ele>1028.4</ele>
        <time>2023-02-11T10:21:58.000Z</time>
      </trkpt>
      <trkpt lat="41.874262" lon="-2.074731">
        <ele>1028.4</ele>
        <time>2023-02-11T10:21:59.000Z</time>
      </trkpt>
      <trkpt lat="41.874244" lon="-2.074634">
        <ele>1028.4</ele>
        <time>2023-02-11T10:22:00.000Z</time>
      </trkpt>
      <trkpt lat="41.874225" lon="-2.074537">
        <ele>1028.2</ele>
        <time>2023-02-11T10:22:01.000Z</time>
      </trkpt>
      <trkpt lat="41.874206" lon="-2.074441">
        <ele>1028.2</ele>
        <time>2023-02-11T10:22:02.000Z</time>
      </trkpt>
      <trkpt lat="41.874186" lon="-2.074345">
        <ele>1028.2</ele>
        <time>2023-02-11T10:22:03.000Z</time>
      </trkpt>
      <trkpt lat="41.874166" lon="-2.074245">
        <ele>1028</ele>
        <time>2023-02-11T10:22:04.000Z</time>
      </trkpt>
      <trkpt lat="41.874145" lon="-2.074144">
        <ele>1028</ele>
        <time>2023-02-11T10:22:05.000Z</time>
      </trkpt>
      <trkpt lat="41.874125" lon="-2.074042">
        <ele>1028</ele>
        <time>2023-02-11T10:22:06.000Z</time>
      </trkpt>
      <trkpt lat="41.874103" lon="-2.073937">
        <ele>1028</ele>
        <time>2023-02-11T10:22:07.000Z</time>
      </trkpt>
      <trkpt lat="41.874082" lon="-2.073832">
        <ele>1028</ele>
        <time>2023-02-11T10:22:08.000Z</time>
      </trkpt>
      <trkpt lat="41.87406" lon="-2.073725">
        <ele>1028</ele>
        <time>2023-02-11T10:22:09.000Z</time>
      </trkpt>
      <trkpt lat="41.87404" lon="-2.073619">
        <ele>1028</ele>
        <time>2023-02-11T10:22:10.000Z</time>
      </trkpt>
      <trkpt lat="41.874018" lon="-2.073513">
        <ele>1028</ele>
        <time>2023-02-11T10:22:11.000Z</time>
      </trkpt>
      <trkpt lat="41.873998" lon="-2.073405">
        <ele>1028</ele>
        <time>2023-02-11T10:22:12.000Z</time>
      </trkpt>
      <trkpt lat="41.873979" lon="-2.073295">
        <ele>1028</ele>
        <time>2023-02-11T10:22:13.000Z</time>
      </trkpt>
      <trkpt lat="41.873962" lon="-2.073181">
        <ele>1028</ele>
        <time>2023-02-11T10:22:14.000Z</time>
      </trkpt>
      <trkpt lat="41.87395" lon="-2.073066">
        <ele>1028</ele>
        <time>2023-02-11T10:22:15.000Z</time>
      </trkpt>
      <trkpt lat="41.873946" lon="-2.07295">
        <ele>1028</ele>
        <time>2023-02-11T10:22:16.000Z</time>
      </trkpt>
      <trkpt lat="41.873952" lon="-2.072833">
        <ele>1028</ele>
        <time>2023-02-11T10:22:17.000Z</time>
      </trkpt>
      <trkpt lat="41.873965" lon="-2.072717">
        <ele>1028</ele>
        <time>2023-02-11T10:22:18.000Z</time>
      </trkpt>
      <trkpt lat="41.873982" lon="-2.072603">
        <ele>1027.8</ele>
        <time>2023-02-11T10:22:19.000Z</time>
      </trkpt>
      <trkpt lat="41.873999" lon="-2.072489">
        <ele>1027.8</ele>
        <time>2023-02-11T10:22:20.000Z</time>
      </trkpt>
      <trkpt lat="41.874018" lon="-2.072374">
        <ele>1027.8</ele>
        <time>2023-02-11T10:22:21.000Z</time>
      </trkpt>
      <trkpt lat="41.874038" lon="-2.072259">
        <ele>1027.6</ele>
        <time>2023-02-11T10:22:22.000Z</time>
      </trkpt>
      <trkpt lat="41.874058" lon="-2.072143">
        <ele>1027.6</ele>
        <time>2023-02-11T10:22:23.000Z</time>
      </trkpt>
      <trkpt lat="41.874079" lon="-2.072024">
        <ele>1027.4</ele>
        <time>2023-02-11T10:22:24.000Z</time>
      </trkpt>
      <trkpt lat="41.874101" lon="-2.071904">
        <ele>1027.4</ele>
        <time>2023-02-11T10:22:25.000Z</time>
      </trkpt>
      <trkpt lat="41.874122" lon="-2.071783">
        <ele>1027</ele>
        <time>2023-02-11T10:22:26.000Z</time>
      </trkpt>
      <trkpt lat="41.874144" lon="-2.071661">
        <ele>1027</ele>
        <time>2023-02-11T10:22:27.000Z</time>
      </trkpt>
      <trkpt lat="41.874167" lon="-2.071541">
        <ele>1026.8</ele>
        <time>2023-02-11T10:22:28.000Z</time>
      </trkpt>
      <trkpt lat="41.87419" lon="-2.07142">
        <ele>1026.6</ele>
        <time>2023-02-11T10:22:29.000Z</time>
      </trkpt>
      <trkpt lat="41.874212" lon="-2.071295">
        <ele>1026.4</ele>
        <time>2023-02-11T10:22:30.000Z</time>
      </trkpt>
      <trkpt lat="41.874235" lon="-2.07117">
        <ele>1026.2</ele>
        <time>2023-02-11T10:22:31.000Z</time>
      </trkpt>
      <trkpt lat="41.874257" lon="-2.071044">
        <ele>1026</ele>
        <time>2023-02-11T10:22:32.000Z</time>
      </trkpt>
      <trkpt lat="41.874278" lon="-2.070916">
        <ele>1025.8</ele>
        <time>2023-02-11T10:22:33.000Z</time>
      </trkpt>
      <trkpt lat="41.8743" lon="-2.070786">
        <ele>1025.8</ele>
        <time>2023-02-11T10:22:34.000Z</time>
      </trkpt>
      <trkpt lat="41.874322" lon="-2.070653">
        <ele>1025.6</ele>
        <time>2023-02-11T10:22:35.000Z</time>
      </trkpt>
      <trkpt lat="41.874344" lon="-2.070517">
        <ele>1025.2</ele>
        <time>2023-02-11T10:22:36.000Z</time>
      </trkpt>
      <trkpt lat="41.874369" lon="-2.070381">
        <ele>1024.8</ele>
        <time>2023-02-11T10:22:37.000Z</time>
      </trkpt>
      <trkpt lat="41.874393" lon="-2.070244">
        <ele>1024.2</ele>
        <time>2023-02-11T10:22:38.000Z</time>
      </trkpt>
      <trkpt lat="41.874418" lon="-2.070102">
        <ele>1023.8</ele>
        <time>2023-02-11T10:22:39.000Z</time>
      </trkpt>
      <trkpt lat="41.874445" lon="-2.069959">
        <ele>1023.2</ele>
        <time>2023-02-11T10:22:40.000Z</time>
      </trkpt>
      <trkpt lat="41.874472" lon="-2.069811">
        <ele>1023</ele>
        <time>2023-02-11T10:22:41.000Z</time>
      </trkpt>
      <trkpt lat="41.874498" lon="-2.06966">
        <ele>1022.8</ele>
        <time>2023-02-11T10:22:42.000Z</time>
      </trkpt>
      <trkpt lat="41.874522" lon="-2.069507">
        <ele>1022.4</ele>
        <time>2023-02-11T10:22:43.000Z</time>
      </trkpt>
      <trkpt lat="41.874548" lon="-2.069353">
        <ele>1021.8</ele>
        <time>2023-02-11T10:22:44.000Z</time>
      </trkpt>
      <trkpt lat="41.874574" lon="-2.069196">
        <ele>1021.4</ele>
        <time>2023-02-11T10:22:45.000Z</time>
      </trkpt>
      <trkpt lat="41.874601" lon="-2.069039">
        <ele>1020.8</ele>
        <time>2023-02-11T10:22:46.000Z</time>
      </trkpt>
      <trkpt lat="41.874629" lon="-2.068882">
        <ele>1020.4</ele>
        <time>2023-02-11T10:22:47.000Z</time>
      </trkpt>
      <trkpt lat="41.874657" lon="-2.068722">
        <ele>1019.8</ele>
        <time>2023-02-11T10:22:48.000Z</time>
      </trkpt>
      <trkpt lat="41.874685" lon="-2.068565">
        <ele>1019</ele>
        <time>2023-02-11T10:22:49.000Z</time>
      </trkpt>
      <trkpt lat="41.874713" lon="-2.068407">
        <ele>1018.6</ele>
        <time>2023-02-11T10:22:50.000Z</time>
      </trkpt>
      <trkpt lat="41.874741" lon="-2.068249">
        <ele>1018.2</ele>
        <time>2023-02-11T10:22:51.000Z</time>
      </trkpt>
      <trkpt lat="41.874769" lon="-2.068089">
        <ele>1018</ele>
        <time>2023-02-11T10:22:52.000Z</time>
      </trkpt>
      <trkpt lat="41.874798" lon="-2.067928">
        <ele>1017.6</ele>
        <time>2023-02-11T10:22:53.000Z</time>
      </trkpt>
      <trkpt lat="41.874827" lon="-2.067769">
        <ele>1017.4</ele>
        <time>2023-02-11T10:22:54.000Z</time>
      </trkpt>
      <trkpt lat="41.874854" lon="-2.067609">
        <ele>1017</ele>
        <time>2023-02-11T10:22:55.000Z</time>
      </trkpt>
      <trkpt lat="41.874882" lon="-2.067453">
        <ele>1016.6</ele>
        <time>2023-02-11T10:22:56.000Z</time>
      </trkpt>
      <trkpt lat="41.874909" lon="-2.067297">
        <ele>1015.8</ele>
        <time>2023-02-11T10:22:57.000Z</time>
      </trkpt>
      <trkpt lat="41.874935" lon="-2.067141">
        <ele>1015.2</ele>
        <time>2023-02-11T10:22:58.000Z</time>
      </trkpt>
      <trkpt lat="41.874962" lon="-2.066989">
        <ele>1014.2</ele>
        <time>2023-02-11T10:22:59.000Z</time>
      </trkpt>
      <trkpt lat="41.874987" lon="-2.066839">
        <ele>1013.4</ele>
        <time>2023-02-11T10:23:00.000Z</time>
      </trkpt>
      <trkpt lat="41.875013" lon="-2.066691">
        <ele>1013.2</ele>
        <time>2023-02-11T10:23:01.000Z</time>
      </trkpt>
      <trkpt lat="41.875037" lon="-2.066543">
        <ele>1012.8</ele>
        <time>2023-02-11T10:23:02.000Z</time>
      </trkpt>
      <trkpt lat="41.875062" lon="-2.066393">
        <ele>1012.8</ele>
        <time>2023-02-11T10:23:03.000Z</time>
      </trkpt>
      <trkpt lat="41.875089" lon="-2.066241">
        <ele>1012</ele>
        <time>2023-02-11T10:23:04.000Z</time>
      </trkpt>
      <trkpt lat="41.875114" lon="-2.066087">
        <ele>1011.8</ele>
        <time>2023-02-11T10:23:05.000Z</time>
      </trkpt>
      <trkpt lat="41.875139" lon="-2.065933">
        <ele>1011.4</ele>
        <time>2023-02-11T10:23:06.000Z</time>
      </trkpt>
      <trkpt lat="41.875167" lon="-2.06578">
        <ele>1011</ele>
        <time>2023-02-11T10:23:07.000Z</time>
      </trkpt>
      <trkpt lat="41.875193" lon="-2.065627">
        <ele>1010.4</ele>
        <time>2023-02-11T10:23:08.000Z</time>
      </trkpt>
      <trkpt lat="41.875219" lon="-2.065476">
        <ele>1010.2</ele>
        <time>2023-02-11T10:23:09.000Z</time>
      </trkpt>
      <trkpt lat="41.875245" lon="-2.065326">
        <ele>1010</ele>
        <time>2023-02-11T10:23:10.000Z</time>
      </trkpt>
      <trkpt lat="41.87527" lon="-2.065182">
        <ele>1009.6</ele>
        <time>2023-02-11T10:23:11.000Z</time>
      </trkpt>
      <trkpt lat="41.875294" lon="-2.065041">
        <ele>1009.4</ele>
        <time>2023-02-11T10:23:12.000Z</time>
      </trkpt>
      <trkpt lat="41.875316" lon="-2.064903">
        <ele>1009</ele>
        <time>2023-02-11T10:23:13.000Z</time>
      </trkpt>
      <trkpt lat="41.875338" lon="-2.064771">
        <ele>1009</ele>
        <time>2023-02-11T10:23:14.000Z</time>
      </trkpt>
      <trkpt lat="41.875358" lon="-2.064642">
        <ele>1008.8</ele>
        <time>2023-02-11T10:23:15.000Z</time>
      </trkpt>
      <trkpt lat="41.875376" lon="-2.064519">
        <ele>1008.8</ele>
        <time>2023-02-11T10:23:16.000Z</time>
      </trkpt>
      <trkpt lat="41.875393" lon="-2.064398">
        <ele>1008.6</ele>
        <time>2023-02-11T10:23:17.000Z</time>
      </trkpt>
      <trkpt lat="41.875412" lon="-2.064278">
        <ele>1008.6</ele>
        <time>2023-02-11T10:23:18.000Z</time>
      </trkpt>
      <trkpt lat="41.875432" lon="-2.064162">
        <ele>1008.8</ele>
        <time>2023-02-11T10:23:19.000Z</time>
      </trkpt>
      <trkpt lat="41.875452" lon="-2.064049">
        <ele>1009</ele>
        <time>2023-02-11T10:23:20.000Z</time>
      </trkpt>
      <trkpt lat="41.875473" lon="-2.063937">
        <ele>1009.2</ele>
        <time>2023-02-11T10:23:21.000Z</time>
      </trkpt>
      <trkpt lat="41.875495" lon="-2.063825">
        <ele>1009.4</ele>
        <time>2023-02-11T10:23:22.000Z</time>
      </trkpt>
      <trkpt lat="41.875514" lon="-2.063711">
        <ele>1009.6</ele>
        <time>2023-02-11T10:23:23.000Z</time>
      </trkpt>
      <trkpt lat="41.875532" lon="-2.063596">
        <ele>1010</ele>
        <time>2023-02-11T10:23:24.000Z</time>
      </trkpt>
      <trkpt lat="41.875553" lon="-2.063481">
        <ele>1010</ele>
        <time>2023-02-11T10:23:25.000Z</time>
      </trkpt>
      <trkpt lat="41.875574" lon="-2.063367">
        <ele>1010</ele>
        <time>2023-02-11T10:23:26.000Z</time>
      </trkpt>
      <trkpt lat="41.875593" lon="-2.063254">
        <ele>1010.2</ele>
        <time>2023-02-11T10:23:27.000Z</time>
      </trkpt>
      <trkpt lat="41.875611" lon="-2.063143">
        <ele>1010.4</ele>
        <time>2023-02-11T10:23:28.000Z</time>
      </trkpt>
      <trkpt lat="41.875632" lon="-2.063029">
        <ele>1010.4</ele>
        <time>2023-02-11T10:23:29.000Z</time>
      </trkpt>
      <trkpt lat="41.875653" lon="-2.062915">
        <ele>1010.6</ele>
        <time>2023-02-11T10:23:30.000Z</time>
      </trkpt>
      <trkpt lat="41.875674" lon="-2.062799">
        <ele>1010.6</ele>
        <time>2023-02-11T10:23:31.000Z</time>
      </trkpt>
      <trkpt lat="41.875694" lon="-2.062682">
        <ele>1010.8</ele>
        <time>2023-02-11T10:23:32.000Z</time>
      </trkpt>
      <trkpt lat="41.875714" lon="-2.062565">
        <ele>1010.8</ele>
        <time>2023-02-11T10:23:33.000Z</time>
      </trkpt>
      <trkpt lat="41.875737" lon="-2.062448">
        <ele>1011</ele>
        <time>2023-02-11T10:23:34.000Z</time>
      </trkpt>
      <trkpt lat="41.875759" lon="-2.062332">
        <ele>1011</ele>
        <time>2023-02-11T10:23:35.000Z</time>
      </trkpt>
      <trkpt lat="41.875781" lon="-2.062214">
        <ele>1010.8</ele>
        <time>2023-02-11T10:23:36.000Z</time>
      </trkpt>
      <trkpt lat="41.875804" lon="-2.062096">
        <ele>1010.8</ele>
        <time>2023-02-11T10:23:37.000Z</time>
      </trkpt>
      <trkpt lat="41.875825" lon="-2.061978">
        <ele>1010.6</ele>
        <time>2023-02-11T10:23:38.000Z</time>
      </trkpt>
      <trkpt lat="41.875845" lon="-2.061858">
        <ele>1010.4</ele>
        <time>2023-02-11T10:23:39.000Z</time>
      </trkpt>
      <trkpt lat="41.875865" lon="-2.061737">
        <ele>1010.2</ele>
        <time>2023-02-11T10:23:40.000Z</time>
      </trkpt>
      <trkpt lat="41.875886" lon="-2.061618">
        <ele>1010</ele>
        <time>2023-02-11T10:23:41.000Z</time>
      </trkpt>
      <trkpt lat="41.875907" lon="-2.061495">
        <ele>1009.8</ele>
        <time>2023-02-11T10:23:42.000Z</time>
      </trkpt>
      <trkpt lat="41.875927" lon="-2.06137">
        <ele>1009.6</ele>
        <time>2023-02-11T10:23:43.000Z</time>
      </trkpt>
      <trkpt lat="41.875949" lon="-2.061244">
        <ele>1009.4</ele>
        <time>2023-02-11T10:23:44.000Z</time>
      </trkpt>
      <trkpt lat="41.875969" lon="-2.061116">
        <ele>1009.2</ele>
        <time>2023-02-11T10:23:45.000Z</time>
      </trkpt>
      <trkpt lat="41.875984" lon="-2.060987">
        <ele>1009</ele>
        <time>2023-02-11T10:23:46.000Z</time>
      </trkpt>
      <trkpt lat="41.875985" lon="-2.060855">
        <ele>1008.6</ele>
        <time>2023-02-11T10:23:47.000Z</time>
      </trkpt>
      <trkpt lat="41.875971" lon="-2.060721">
        <ele>1008.4</ele>
        <time>2023-02-11T10:23:48.000Z</time>
      </trkpt>
      <trkpt lat="41.87594" lon="-2.060591">
        <ele>1008</ele>
        <time>2023-02-11T10:23:49.000Z</time>
      </trkpt>
      <trkpt lat="41.875887" lon="-2.060476">
        <ele>1007.8</ele>
        <time>2023-02-11T10:23:50.000Z</time>
      </trkpt>
      <trkpt lat="41.875816" lon="-2.060385">
        <ele>1007.4</ele>
        <time>2023-02-11T10:23:51.000Z</time>
      </trkpt>
      <trkpt lat="41.875732" lon="-2.06031">
        <ele>1007.2</ele>
        <time>2023-02-11T10:23:52.000Z</time>
      </trkpt>
      <trkpt lat="41.875642" lon="-2.060245">
        <ele>1006.8</ele>
        <time>2023-02-11T10:23:53.000Z</time>
      </trkpt>
      <trkpt lat="41.875548" lon="-2.06019">
        <ele>1006.6</ele>
        <time>2023-02-11T10:23:54.000Z</time>
      </trkpt>
      <trkpt lat="41.875453" lon="-2.060139">
        <ele>1006.2</ele>
        <time>2023-02-11T10:23:55.000Z</time>
      </trkpt>
      <trkpt lat="41.875357" lon="-2.060092">
        <ele>1005.8</ele>
        <time>2023-02-11T10:23:56.000Z</time>
      </trkpt>
      <trkpt lat="41.875258" lon="-2.060046">
        <ele>1005.6</ele>
        <time>2023-02-11T10:23:57.000Z</time>
      </trkpt>
      <trkpt lat="41.87516" lon="-2.059999">
        <ele>1004.6</ele>
        <time>2023-02-11T10:23:58.000Z</time>
      </trkpt>
      <trkpt lat="41.875062" lon="-2.05995">
        <ele>1004.4</ele>
        <time>2023-02-11T10:23:59.000Z</time>
      </trkpt>
      <trkpt lat="41.874964" lon="-2.059903">
        <ele>1004.2</ele>
        <time>2023-02-11T10:24:00.000Z</time>
      </trkpt>
      <trkpt lat="41.874865" lon="-2.059856">
        <ele>1004</ele>
        <time>2023-02-11T10:24:01.000Z</time>
      </trkpt>
      <trkpt lat="41.874769" lon="-2.059808">
        <ele>1003.8</ele>
        <time>2023-02-11T10:24:02.000Z</time>
      </trkpt>
      <trkpt lat="41.874673" lon="-2.05976">
        <ele>1003.6</ele>
        <time>2023-02-11T10:24:03.000Z</time>
      </trkpt>
      <trkpt lat="41.874578" lon="-2.059712">
        <ele>1003.6</ele>
        <time>2023-02-11T10:24:04.000Z</time>
      </trkpt>
      <trkpt lat="41.874484" lon="-2.059664">
        <ele>1003.4</ele>
        <time>2023-02-11T10:24:05.000Z</time>
      </trkpt>
      <trkpt lat="41.87439" lon="-2.059616">
        <ele>1003.2</ele>
        <time>2023-02-11T10:24:06.000Z</time>
      </trkpt>
      <trkpt lat="41.874294" lon="-2.059567">
        <ele>1002.8</ele>
        <time>2023-02-11T10:24:07.000Z</time>
      </trkpt>
      <trkpt lat="41.874197" lon="-2.059518">
        <ele>1002.6</ele>
        <time>2023-02-11T10:24:08.000Z</time>
      </trkpt>
      <trkpt lat="41.874097" lon="-2.059466">
        <ele>1002.4</ele>
        <time>2023-02-11T10:24:09.000Z</time>
      </trkpt>
      <trkpt lat="41.873995" lon="-2.059416">
        <ele>1002.2</ele>
        <time>2023-02-11T10:24:10.000Z</time>
      </trkpt>
      <trkpt lat="41.873893" lon="-2.059364">
        <ele>1001.8</ele>
        <time>2023-02-11T10:24:11.000Z</time>
      </trkpt>
      <trkpt lat="41.873789" lon="-2.059311">
        <ele>1001.6</ele>
        <time>2023-02-11T10:24:12.000Z</time>
      </trkpt>
      <trkpt lat="41.873682" lon="-2.059259">
        <ele>1001.2</ele>
        <time>2023-02-11T10:24:13.000Z</time>
      </trkpt>
      <trkpt lat="41.873574" lon="-2.059208">
        <ele>1001</ele>
        <time>2023-02-11T10:24:14.000Z</time>
      </trkpt>
      <trkpt lat="41.873467" lon="-2.059155">
        <ele>1000.6</ele>
        <time>2023-02-11T10:24:15.000Z</time>
      </trkpt>
      <trkpt lat="41.87336" lon="-2.059098">
        <ele>1000.4</ele>
        <time>2023-02-11T10:24:16.000Z</time>
      </trkpt>
      <trkpt lat="41.873251" lon="-2.059043">
        <ele>1000.2</ele>
        <time>2023-02-11T10:24:17.000Z</time>
      </trkpt>
      <trkpt lat="41.873143" lon="-2.058989">
        <ele>999.8</ele>
        <time>2023-02-11T10:24:18.000Z</time>
      </trkpt>
      <trkpt lat="41.873034" lon="-2.058935">
        <ele>999.6</ele>
        <time>2023-02-11T10:24:19.000Z</time>
      </trkpt>
      <trkpt lat="41.872926" lon="-2.058883">
        <ele>999.2</ele>
        <time>2023-02-11T10:24:20.000Z</time>
      </trkpt>
      <trkpt lat="41.872821" lon="-2.058831">
        <ele>999</ele>
        <time>2023-02-11T10:24:21.000Z</time>
      </trkpt>
      <trkpt lat="41.872719" lon="-2.058781">
        <ele>998.6</ele>
        <time>2023-02-11T10:24:22.000Z</time>
      </trkpt>
      <trkpt lat="41.872617" lon="-2.05873">
        <ele>998.4</ele>
        <time>2023-02-11T10:24:23.000Z</time>
      </trkpt>
      <trkpt lat="41.872517" lon="-2.058678">
        <ele>998</ele>
        <time>2023-02-11T10:24:24.000Z</time>
      </trkpt>
      <trkpt lat="41.872418" lon="-2.058626">
        <ele>997.8</ele>
        <time>2023-02-11T10:24:25.000Z</time>
      </trkpt>
      <trkpt lat="41.872318" lon="-2.058574">
        <ele>997.6</ele>
        <time>2023-02-11T10:24:26.000Z</time>
      </trkpt>
      <trkpt lat="41.872217" lon="-2.05852">
        <ele>997.4</ele>
        <time>2023-02-11T10:24:27.000Z</time>
      </trkpt>
      <trkpt lat="41.872114" lon="-2.058468">
        <ele>997.4</ele>
        <time>2023-02-11T10:24:28.000Z</time>
      </trkpt>
      <trkpt lat="41.872012" lon="-2.058416">
        <ele>997</ele>
        <time>2023-02-11T10:24:29.000Z</time>
      </trkpt>
      <trkpt lat="41.871911" lon="-2.058363">
        <ele>997</ele>
        <time>2023-02-11T10:24:30.000Z</time>
      </trkpt>
      <trkpt lat="41.87181" lon="-2.05831">
        <ele>996.6</ele>
        <time>2023-02-11T10:24:31.000Z</time>
      </trkpt>
      <trkpt lat="41.87171" lon="-2.058258">
        <ele>996.2</ele>
        <time>2023-02-11T10:24:32.000Z</time>
      </trkpt>
      <trkpt lat="41.87161" lon="-2.058206">
        <ele>995.8</ele>
        <time>2023-02-11T10:24:33.000Z</time>
      </trkpt>
      <trkpt lat="41.87151" lon="-2.058156">
        <ele>995.6</ele>
        <time>2023-02-11T10:24:34.000Z</time>
      </trkpt>
      <trkpt lat="41.871411" lon="-2.058104">
        <ele>995.4</ele>
        <time>2023-02-11T10:24:35.000Z</time>
      </trkpt>
      <trkpt lat="41.871313" lon="-2.058052">
        <ele>995</ele>
        <time>2023-02-11T10:24:36.000Z</time>
      </trkpt>
      <trkpt lat="41.871213" lon="-2.058">
        <ele>994.8</ele>
        <time>2023-02-11T10:24:37.000Z</time>
      </trkpt>
      <trkpt lat="41.871111" lon="-2.057948">
        <ele>994.6</ele>
        <time>2023-02-11T10:24:38.000Z</time>
      </trkpt>
      <trkpt lat="41.87101" lon="-2.057896">
        <ele>994.4</ele>
        <time>2023-02-11T10:24:39.000Z</time>
      </trkpt>
      <trkpt lat="41.870906" lon="-2.057843">
        <ele>994.2</ele>
        <time>2023-02-11T10:24:40.000Z</time>
      </trkpt>
      <trkpt lat="41.870803" lon="-2.05779">
        <ele>994</ele>
        <time>2023-02-11T10:24:41.000Z</time>
      </trkpt>
      <trkpt lat="41.8707" lon="-2.057736">
        <ele>993.8</ele>
        <time>2023-02-11T10:24:42.000Z</time>
      </trkpt>
      <trkpt lat="41.870596" lon="-2.057684">
        <ele>993.6</ele>
        <time>2023-02-11T10:24:43.000Z</time>
      </trkpt>
      <trkpt lat="41.870492" lon="-2.057634">
        <ele>993.6</ele>
        <time>2023-02-11T10:24:44.000Z</time>
      </trkpt>
      <trkpt lat="41.87039" lon="-2.057583">
        <ele>993.2</ele>
        <time>2023-02-11T10:24:45.000Z</time>
      </trkpt>
      <trkpt lat="41.870288" lon="-2.057531">
        <ele>993.2</ele>
        <time>2023-02-11T10:24:46.000Z</time>
      </trkpt>
      <trkpt lat="41.870187" lon="-2.057478">
        <ele>992.8</ele>
        <time>2023-02-11T10:24:47.000Z</time>
      </trkpt>
      <trkpt lat="41.870088" lon="-2.057426">
        <ele>992.6</ele>
        <time>2023-02-11T10:24:48.000Z</time>
      </trkpt>
      <trkpt lat="41.869989" lon="-2.057375">
        <ele>992.4</ele>
        <time>2023-02-11T10:24:49.000Z</time>
      </trkpt>
      <trkpt lat="41.86989" lon="-2.057326">
        <ele>992.2</ele>
        <time>2023-02-11T10:24:50.000Z</time>
      </trkpt>
      <trkpt lat="41.86979" lon="-2.057279">
        <ele>992.2</ele>
        <time>2023-02-11T10:24:51.000Z</time>
      </trkpt>
      <trkpt lat="41.869689" lon="-2.057229">
        <ele>992</ele>
        <time>2023-02-11T10:24:52.000Z</time>
      </trkpt>
      <trkpt lat="41.869589" lon="-2.057178">
        <ele>992</ele>
        <time>2023-02-11T10:24:53.000Z</time>
      </trkpt>
      <trkpt lat="41.869487" lon="-2.057125">
        <ele>991.8</ele>
        <time>2023-02-11T10:24:54.000Z</time>
      </trkpt>
      <trkpt lat="41.869386" lon="-2.057072">
        <ele>991.6</ele>
        <time>2023-02-11T10:24:55.000Z</time>
      </trkpt>
      <trkpt lat="41.869285" lon="-2.05702">
        <ele>991.6</ele>
        <time>2023-02-11T10:24:56.000Z</time>
      </trkpt>
      <trkpt lat="41.869185" lon="-2.056968">
        <ele>991.4</ele>
        <time>2023-02-11T10:24:57.000Z</time>
      </trkpt>
      <trkpt lat="41.869084" lon="-2.056918">
        <ele>991.2</ele>
        <time>2023-02-11T10:24:58.000Z</time>
      </trkpt>
      <trkpt lat="41.868983" lon="-2.056868">
        <ele>991</ele>
        <time>2023-02-11T10:24:59.000Z</time>
      </trkpt>
      <trkpt lat="41.868882" lon="-2.056815">
        <ele>990.6</ele>
        <time>2023-02-11T10:25:00.000Z</time>
      </trkpt>
      <trkpt lat="41.868781" lon="-2.056762">
        <ele>990.6</ele>
        <time>2023-02-11T10:25:01.000Z</time>
      </trkpt>
      <trkpt lat="41.868678" lon="-2.056712">
        <ele>990.4</ele>
        <time>2023-02-11T10:25:02.000Z</time>
      </trkpt>
      <trkpt lat="41.868573" lon="-2.05666">
        <ele>990</ele>
        <time>2023-02-11T10:25:03.000Z</time>
      </trkpt>
      <trkpt lat="41.868471" lon="-2.056607">
        <ele>990</ele>
        <time>2023-02-11T10:25:04.000Z</time>
      </trkpt>
      <trkpt lat="41.86837" lon="-2.056554">
        <ele>989.8</ele>
        <time>2023-02-11T10:25:05.000Z</time>
      </trkpt>
      <trkpt lat="41.86827" lon="-2.056499">
        <ele>989.8</ele>
        <time>2023-02-11T10:25:06.000Z</time>
      </trkpt>
      <trkpt lat="41.868168" lon="-2.056447">
        <ele>989.6</ele>
        <time>2023-02-11T10:25:07.000Z</time>
      </trkpt>
      <trkpt lat="41.868067" lon="-2.056393">
        <ele>989.6</ele>
        <time>2023-02-11T10:25:08.000Z</time>
      </trkpt>
      <trkpt lat="41.867967" lon="-2.056342">
        <ele>989.4</ele>
        <time>2023-02-11T10:25:09.000Z</time>
      </trkpt>
      <trkpt lat="41.867865" lon="-2.056293">
        <ele>989.4</ele>
        <time>2023-02-11T10:25:10.000Z</time>
      </trkpt>
      <trkpt lat="41.867765" lon="-2.05624">
        <ele>989.2</ele>
        <time>2023-02-11T10:25:11.000Z</time>
      </trkpt>
      <trkpt lat="41.867667" lon="-2.056188">
        <ele>989.2</ele>
        <time>2023-02-11T10:25:12.000Z</time>
      </trkpt>
      <trkpt lat="41.867566" lon="-2.056136">
        <ele>989</ele>
        <time>2023-02-11T10:25:13.000Z</time>
      </trkpt>
      <trkpt lat="41.867467" lon="-2.056085">
        <ele>988.6</ele>
        <time>2023-02-11T10:25:14.000Z</time>
      </trkpt>
      <trkpt lat="41.867368" lon="-2.056036">
        <ele>988.6</ele>
        <time>2023-02-11T10:25:15.000Z</time>
      </trkpt>
      <trkpt lat="41.867268" lon="-2.055989">
        <ele>988.4</ele>
        <time>2023-02-11T10:25:16.000Z</time>
      </trkpt>
      <trkpt lat="41.867169" lon="-2.055941">
        <ele>988.4</ele>
        <time>2023-02-11T10:25:17.000Z</time>
      </trkpt>
      <trkpt lat="41.86707" lon="-2.055889">
        <ele>988.2</ele>
        <time>2023-02-11T10:25:18.000Z</time>
      </trkpt>
      <trkpt lat="41.866971" lon="-2.055836">
        <ele>988.2</ele>
        <time>2023-02-11T10:25:19.000Z</time>
      </trkpt>
      <trkpt lat="41.866872" lon="-2.055785">
        <ele>988</ele>
        <time>2023-02-11T10:25:20.000Z</time>
      </trkpt>
      <trkpt lat="41.866774" lon="-2.055736">
        <ele>987.8</ele>
        <time>2023-02-11T10:25:21.000Z</time>
      </trkpt>
      <trkpt lat="41.866674" lon="-2.055686">
        <ele>987.6</ele>
        <time>2023-02-11T10:25:22.000Z</time>
      </trkpt>
      <trkpt lat="41.866574" lon="-2.055634">
        <ele>987.4</ele>
        <time>2023-02-11T10:25:23.000Z</time>
      </trkpt>
      <trkpt lat="41.866473" lon="-2.055582">
        <ele>987.4</ele>
        <time>2023-02-11T10:25:24.000Z</time>
      </trkpt>
      <trkpt lat="41.866373" lon="-2.05553">
        <ele>987.2</ele>
        <time>2023-02-11T10:25:25.000Z</time>
      </trkpt>
      <trkpt lat="41.866272" lon="-2.055478">
        <ele>987.2</ele>
        <time>2023-02-11T10:25:26.000Z</time>
      </trkpt>
      <trkpt lat="41.866173" lon="-2.055428">
        <ele>987</ele>
        <time>2023-02-11T10:25:27.000Z</time>
      </trkpt>
      <trkpt lat="41.866076" lon="-2.055378">
        <ele>987</ele>
        <time>2023-02-11T10:25:28.000Z</time>
      </trkpt>
      <trkpt lat="41.865978" lon="-2.055328">
        <ele>986.6</ele>
        <time>2023-02-11T10:25:29.000Z</time>
      </trkpt>
      <trkpt lat="41.865881" lon="-2.05528">
        <ele>986.6</ele>
        <time>2023-02-11T10:25:30.000Z</time>
      </trkpt>
      <trkpt lat="41.865786" lon="-2.05523">
        <ele>986.4</ele>
        <time>2023-02-11T10:25:31.000Z</time>
      </trkpt>
      <trkpt lat="41.86569" lon="-2.05518">
        <ele>986.2</ele>
        <time>2023-02-11T10:25:32.000Z</time>
      </trkpt>
      <trkpt lat="41.865594" lon="-2.05513">
        <ele>986.2</ele>
        <time>2023-02-11T10:25:33.000Z</time>
      </trkpt>
      <trkpt lat="41.865498" lon="-2.055081">
        <ele>986.2</ele>
        <time>2023-02-11T10:25:34.000Z</time>
      </trkpt>
      <trkpt lat="41.865404" lon="-2.055032">
        <ele>986.2</ele>
        <time>2023-02-11T10:25:35.000Z</time>
      </trkpt>
      <trkpt lat="41.865309" lon="-2.054985">
        <ele>986.2</ele>
        <time>2023-02-11T10:25:36.000Z</time>
      </trkpt>
      <trkpt lat="41.865215" lon="-2.054938">
        <ele>986</ele>
        <time>2023-02-11T10:25:37.000Z</time>
      </trkpt>
      <trkpt lat="41.865121" lon="-2.054889">
        <ele>986</ele>
        <time>2023-02-11T10:25:38.000Z</time>
      </trkpt>
      <trkpt lat="41.865029" lon="-2.054837">
        <ele>986</ele>
        <time>2023-02-11T10:25:39.000Z</time>
      </trkpt>
      <trkpt lat="41.864936" lon="-2.054787">
        <ele>986</ele>
        <time>2023-02-11T10:25:40.000Z</time>
      </trkpt>
      <trkpt lat="41.864845" lon="-2.054738">
        <ele>986</ele>
        <time>2023-02-11T10:25:41.000Z</time>
      </trkpt>
      <trkpt lat="41.864754" lon="-2.054693">
        <ele>986</ele>
        <time>2023-02-11T10:25:42.000Z</time>
      </trkpt>
      <trkpt lat="41.864662" lon="-2.054648">
        <ele>986</ele>
        <time>2023-02-11T10:25:43.000Z</time>
      </trkpt>
      <trkpt lat="41.864574" lon="-2.054602">
        <ele>985.8</ele>
        <time>2023-02-11T10:25:44.000Z</time>
      </trkpt>
      <trkpt lat="41.864484" lon="-2.054557">
        <ele>985.8</ele>
        <time>2023-02-11T10:25:45.000Z</time>
      </trkpt>
      <trkpt lat="41.864394" lon="-2.054513">
        <ele>985.8</ele>
        <time>2023-02-11T10:25:46.000Z</time>
      </trkpt>
      <trkpt lat="41.864303" lon="-2.054467">
        <ele>985.8</ele>
        <time>2023-02-11T10:25:47.000Z</time>
      </trkpt>
      <trkpt lat="41.864214" lon="-2.05442">
        <ele>985.8</ele>
        <time>2023-02-11T10:25:48.000Z</time>
      </trkpt>
      <trkpt lat="41.864125" lon="-2.054374">
        <ele>985.8</ele>
        <time>2023-02-11T10:25:49.000Z</time>
      </trkpt>
      <trkpt lat="41.864037" lon="-2.054329">
        <ele>985.8</ele>
        <time>2023-02-11T10:25:50.000Z</time>
      </trkpt>
      <trkpt lat="41.86395" lon="-2.054287">
        <ele>985.8</ele>
        <time>2023-02-11T10:25:51.000Z</time>
      </trkpt>
      <trkpt lat="41.863864" lon="-2.054244">
        <ele>985.8</ele>
        <time>2023-02-11T10:25:52.000Z</time>
      </trkpt>
      <trkpt lat="41.863779" lon="-2.0542">
        <ele>985.8</ele>
        <time>2023-02-11T10:25:53.000Z</time>
      </trkpt>
      <trkpt lat="41.863695" lon="-2.054157">
        <ele>985.6</ele>
        <time>2023-02-11T10:25:54.000Z</time>
      </trkpt>
      <trkpt lat="41.86361" lon="-2.054113">
        <ele>985.6</ele>
        <time>2023-02-11T10:25:55.000Z</time>
      </trkpt>
      <trkpt lat="41.863525" lon="-2.054069">
        <ele>985.6</ele>
        <time>2023-02-11T10:25:56.000Z</time>
      </trkpt>
      <trkpt lat="41.86344" lon="-2.054027">
        <ele>985.6</ele>
        <time>2023-02-11T10:25:57.000Z</time>
      </trkpt>
      <trkpt lat="41.863355" lon="-2.053983">
        <ele>985.8</ele>
        <time>2023-02-11T10:25:58.000Z</time>
      </trkpt>
      <trkpt lat="41.86327" lon="-2.053939">
        <ele>985.8</ele>
        <time>2023-02-11T10:25:59.000Z</time>
      </trkpt>
      <trkpt lat="41.863185" lon="-2.053898">
        <ele>985.8</ele>
        <time>2023-02-11T10:26:00.000Z</time>
      </trkpt>
      <trkpt lat="41.8631" lon="-2.053855">
        <ele>985.8</ele>
        <time>2023-02-11T10:26:01.000Z</time>
      </trkpt>
      <trkpt lat="41.863015" lon="-2.053811">
        <ele>985.8</ele>
        <time>2023-02-11T10:26:02.000Z</time>
      </trkpt>
      <trkpt lat="41.86293" lon="-2.053765">
        <ele>986</ele>
        <time>2023-02-11T10:26:03.000Z</time>
      </trkpt>
      <trkpt lat="41.862845" lon="-2.053718">
        <ele>986</ele>
        <time>2023-02-11T10:26:04.000Z</time>
      </trkpt>
      <trkpt lat="41.86276" lon="-2.053676">
        <ele>986</ele>
        <time>2023-02-11T10:26:05.000Z</time>
      </trkpt>
      <trkpt lat="41.862676" lon="-2.053633">
        <ele>986.2</ele>
        <time>2023-02-11T10:26:06.000Z</time>
      </trkpt>
      <trkpt lat="41.862593" lon="-2.05359">
        <ele>986.4</ele>
        <time>2023-02-11T10:26:07.000Z</time>
      </trkpt>
      <trkpt lat="41.862511" lon="-2.053546">
        <ele>986.4</ele>
        <time>2023-02-11T10:26:08.000Z</time>
      </trkpt>
      <trkpt lat="41.862429" lon="-2.053505">
        <ele>986.6</ele>
        <time>2023-02-11T10:26:09.000Z</time>
      </trkpt>
      <trkpt lat="41.862346" lon="-2.053465">
        <ele>986.6</ele>
        <time>2023-02-11T10:26:10.000Z</time>
      </trkpt>
      <trkpt lat="41.862265" lon="-2.053425">
        <ele>986.8</ele>
        <time>2023-02-11T10:26:11.000Z</time>
      </trkpt>
      <trkpt lat="41.862186" lon="-2.053385">
        <ele>987</ele>
        <time>2023-02-11T10:26:12.000Z</time>
      </trkpt>
      <trkpt lat="41.862105" lon="-2.053345">
        <ele>987.2</ele>
        <time>2023-02-11T10:26:13.000Z</time>
      </trkpt>
      <trkpt lat="41.862025" lon="-2.053303">
        <ele>987.2</ele>
        <time>2023-02-11T10:26:14.000Z</time>
      </trkpt>
      <trkpt lat="41.861943" lon="-2.053256">
        <ele>987.2</ele>
        <time>2023-02-11T10:26:15.000Z</time>
      </trkpt>
      <trkpt lat="41.86186" lon="-2.053211">
        <ele>987.4</ele>
        <time>2023-02-11T10:26:16.000Z</time>
      </trkpt>
      <trkpt lat="41.861778" lon="-2.053167">
        <ele>987.4</ele>
        <time>2023-02-11T10:26:17.000Z</time>
      </trkpt>
      <trkpt lat="41.861695" lon="-2.053122">
        <ele>987.4</ele>
        <time>2023-02-11T10:26:18.000Z</time>
      </trkpt>
      <trkpt lat="41.86161" lon="-2.053081">
        <ele>987.4</ele>
        <time>2023-02-11T10:26:19.000Z</time>
      </trkpt>
      <trkpt lat="41.861525" lon="-2.053038">
        <ele>987.4</ele>
        <time>2023-02-11T10:26:20.000Z</time>
      </trkpt>
      <trkpt lat="41.861442" lon="-2.052995">
        <ele>987.6</ele>
        <time>2023-02-11T10:26:21.000Z</time>
      </trkpt>
      <trkpt lat="41.861358" lon="-2.052955">
        <ele>987.6</ele>
        <time>2023-02-11T10:26:22.000Z</time>
      </trkpt>
      <trkpt lat="41.861277" lon="-2.052915">
        <ele>987.6</ele>
        <time>2023-02-11T10:26:23.000Z</time>
      </trkpt>
      <trkpt lat="41.861196" lon="-2.052874">
        <ele>987.6</ele>
        <time>2023-02-11T10:26:24.000Z</time>
      </trkpt>
      <trkpt lat="41.861118" lon="-2.052834">
        <ele>987.8</ele>
        <time>2023-02-11T10:26:25.000Z</time>
      </trkpt>
      <trkpt lat="41.861039" lon="-2.052795">
        <ele>988</ele>
        <time>2023-02-11T10:26:26.000Z</time>
      </trkpt>
      <trkpt lat="41.860959" lon="-2.052756">
        <ele>988</ele>
        <time>2023-02-11T10:26:27.000Z</time>
      </trkpt>
      <trkpt lat="41.860879" lon="-2.052717">
        <ele>988.2</ele>
        <time>2023-02-11T10:26:28.000Z</time>
      </trkpt>
      <trkpt lat="41.860797" lon="-2.052678">
        <ele>988.6</ele>
        <time>2023-02-11T10:26:29.000Z</time>
      </trkpt>
      <trkpt lat="41.860714" lon="-2.052637">
        <ele>988.6</ele>
        <time>2023-02-11T10:26:30.000Z</time>
      </trkpt>
      <trkpt lat="41.860632" lon="-2.052596">
        <ele>988.6</ele>
        <time>2023-02-11T10:26:31.000Z</time>
      </trkpt>
      <trkpt lat="41.860549" lon="-2.052553">
        <ele>988.8</ele>
        <time>2023-02-11T10:26:32.000Z</time>
      </trkpt>
      <trkpt lat="41.860466" lon="-2.052511">
        <ele>989</ele>
        <time>2023-02-11T10:26:33.000Z</time>
      </trkpt>
      <trkpt lat="41.860384" lon="-2.05247">
        <ele>989</ele>
        <time>2023-02-11T10:26:34.000Z</time>
      </trkpt>
      <trkpt lat="41.8603" lon="-2.052431">
        <ele>989</ele>
        <time>2023-02-11T10:26:35.000Z</time>
      </trkpt>
      <trkpt lat="41.860218" lon="-2.052388">
        <ele>989.2</ele>
        <time>2023-02-11T10:26:36.000Z</time>
      </trkpt>
      <trkpt lat="41.860137" lon="-2.052345">
        <ele>989.2</ele>
        <time>2023-02-11T10:26:37.000Z</time>
      </trkpt>
      <trkpt lat="41.860055" lon="-2.052302">
        <ele>989.2</ele>
        <time>2023-02-11T10:26:38.000Z</time>
      </trkpt>
      <trkpt lat="41.859974" lon="-2.05226">
        <ele>989.2</ele>
        <time>2023-02-11T10:26:39.000Z</time>
      </trkpt>
      <trkpt lat="41.859893" lon="-2.052217">
        <ele>989.2</ele>
        <time>2023-02-11T10:26:40.000Z</time>
      </trkpt>
      <trkpt lat="41.85981" lon="-2.052175">
        <ele>989.2</ele>
        <time>2023-02-11T10:26:41.000Z</time>
      </trkpt>
      <trkpt lat="41.859728" lon="-2.052132">
        <ele>989.2</ele>
        <time>2023-02-11T10:26:42.000Z</time>
      </trkpt>
      <trkpt lat="41.859645" lon="-2.052087">
        <ele>989.2</ele>
        <time>2023-02-11T10:26:43.000Z</time>
      </trkpt>
      <trkpt lat="41.859563" lon="-2.052045">
        <ele>989.2</ele>
        <time>2023-02-11T10:26:44.000Z</time>
      </trkpt>
      <trkpt lat="41.859481" lon="-2.052003">
        <ele>989.4</ele>
        <time>2023-02-11T10:26:45.000Z</time>
      </trkpt>
      <trkpt lat="41.859398" lon="-2.051963">
        <ele>989.4</ele>
        <time>2023-02-11T10:26:46.000Z</time>
      </trkpt>
      <trkpt lat="41.859317" lon="-2.05192">
        <ele>989.4</ele>
        <time>2023-02-11T10:26:47.000Z</time>
      </trkpt>
      <trkpt lat="41.859235" lon="-2.051877">
        <ele>989.4</ele>
        <time>2023-02-11T10:26:48.000Z</time>
      </trkpt>
      <trkpt lat="41.859151" lon="-2.051837">
        <ele>989.6</ele>
        <time>2023-02-11T10:26:49.000Z</time>
      </trkpt>
      <trkpt lat="41.859066" lon="-2.051795">
        <ele>989.6</ele>
        <time>2023-02-11T10:26:50.000Z</time>
      </trkpt>
      <trkpt lat="41.858981" lon="-2.051753">
        <ele>989.8</ele>
        <time>2023-02-11T10:26:51.000Z</time>
      </trkpt>
      <trkpt lat="41.858896" lon="-2.051709">
        <ele>989.8</ele>
        <time>2023-02-11T10:26:52.000Z</time>
      </trkpt>
      <trkpt lat="41.85881" lon="-2.051665">
        <ele>989.8</ele>
        <time>2023-02-11T10:26:53.000Z</time>
      </trkpt>
      <trkpt lat="41.858728" lon="-2.051619">
        <ele>990</ele>
        <time>2023-02-11T10:26:54.000Z</time>
      </trkpt>
      <trkpt lat="41.858643" lon="-2.051576">
        <ele>990</ele>
        <time>2023-02-11T10:26:55.000Z</time>
      </trkpt>
      <trkpt lat="41.858558" lon="-2.051535">
        <ele>990</ele>
        <time>2023-02-11T10:26:56.000Z</time>
      </trkpt>
      <trkpt lat="41.858472" lon="-2.051491">
        <ele>990</ele>
        <time>2023-02-11T10:26:57.000Z</time>
      </trkpt>
      <trkpt lat="41.858387" lon="-2.051446">
        <ele>990</ele>
        <time>2023-02-11T10:26:58.000Z</time>
      </trkpt>
      <trkpt lat="41.858299" lon="-2.051399">
        <ele>990</ele>
        <time>2023-02-11T10:26:59.000Z</time>
      </trkpt>
      <trkpt lat="41.858211" lon="-2.051354">
        <ele>990</ele>
        <time>2023-02-11T10:27:00.000Z</time>
      </trkpt>
      <trkpt lat="41.858123" lon="-2.051309">
        <ele>990</ele>
        <time>2023-02-11T10:27:01.000Z</time>
      </trkpt>
      <trkpt lat="41.858037" lon="-2.051264">
        <ele>990</ele>
        <time>2023-02-11T10:27:02.000Z</time>
      </trkpt>
      <trkpt lat="41.85795" lon="-2.05122">
        <ele>989.8</ele>
        <time>2023-02-11T10:27:03.000Z</time>
      </trkpt>
      <trkpt lat="41.857862" lon="-2.051175">
        <ele>989.8</ele>
        <time>2023-02-11T10:27:04.000Z</time>
      </trkpt>
      <trkpt lat="41.857774" lon="-2.051129">
        <ele>989.8</ele>
        <time>2023-02-11T10:27:05.000Z</time>
      </trkpt>
      <trkpt lat="41.857686" lon="-2.051083">
        <ele>989.6</ele>
        <time>2023-02-11T10:27:06.000Z</time>
      </trkpt>
      <trkpt lat="41.857597" lon="-2.051039">
        <ele>989.6</ele>
        <time>2023-02-11T10:27:07.000Z</time>
      </trkpt>
      <trkpt lat="41.857507" lon="-2.050994">
        <ele>989.6</ele>
        <time>2023-02-11T10:27:08.000Z</time>
      </trkpt>
      <trkpt lat="41.857418" lon="-2.05095">
        <ele>989.6</ele>
        <time>2023-02-11T10:27:09.000Z</time>
      </trkpt>
      <trkpt lat="41.857328" lon="-2.050906">
        <ele>989.4</ele>
        <time>2023-02-11T10:27:10.000Z</time>
      </trkpt>
      <trkpt lat="41.857238" lon="-2.050862">
        <ele>989.4</ele>
        <time>2023-02-11T10:27:11.000Z</time>
      </trkpt>
      <trkpt lat="41.857146" lon="-2.050821">
        <ele>989.2</ele>
        <time>2023-02-11T10:27:12.000Z</time>
      </trkpt>
      <trkpt lat="41.857053" lon="-2.050776">
        <ele>989.2</ele>
        <time>2023-02-11T10:27:13.000Z</time>
      </trkpt>
      <trkpt lat="41.856961" lon="-2.050728">
        <ele>989.2</ele>
        <time>2023-02-11T10:27:14.000Z</time>
      </trkpt>
      <trkpt lat="41.856868" lon="-2.05068">
        <ele>989.2</ele>
        <time>2023-02-11T10:27:15.000Z</time>
      </trkpt>
      <trkpt lat="41.856776" lon="-2.050632">
        <ele>988.8</ele>
        <time>2023-02-11T10:27:16.000Z</time>
      </trkpt>
      <trkpt lat="41.856683" lon="-2.050584">
        <ele>988.8</ele>
        <time>2023-02-11T10:27:17.000Z</time>
      </trkpt>
      <trkpt lat="41.85659" lon="-2.050535">
        <ele>988.6</ele>
        <time>2023-02-11T10:27:18.000Z</time>
      </trkpt>
      <trkpt lat="41.856495" lon="-2.050485">
        <ele>988.2</ele>
        <time>2023-02-11T10:27:19.000Z</time>
      </trkpt>
      <trkpt lat="41.856401" lon="-2.050434">
        <ele>988</ele>
        <time>2023-02-11T10:27:20.000Z</time>
      </trkpt>
      <trkpt lat="41.856305" lon="-2.050384">
        <ele>987.8</ele>
        <time>2023-02-11T10:27:21.000Z</time>
      </trkpt>
      <trkpt lat="41.856209" lon="-2.050333">
        <ele>987.8</ele>
        <time>2023-02-11T10:27:22.000Z</time>
      </trkpt>
      <trkpt lat="41.856112" lon="-2.050282">
        <ele>987.6</ele>
        <time>2023-02-11T10:27:23.000Z</time>
      </trkpt>
      <trkpt lat="41.856015" lon="-2.050234">
        <ele>987.6</ele>
        <time>2023-02-11T10:27:24.000Z</time>
      </trkpt>
      <trkpt lat="41.85592" lon="-2.050184">
        <ele>987.6</ele>
        <time>2023-02-11T10:27:25.000Z</time>
      </trkpt>
      <trkpt lat="41.855824" lon="-2.050136">
        <ele>987.4</ele>
        <time>2023-02-11T10:27:26.000Z</time>
      </trkpt>
      <trkpt lat="41.855729" lon="-2.050087">
        <ele>987.2</ele>
        <time>2023-02-11T10:27:27.000Z</time>
      </trkpt>
      <trkpt lat="41.855634" lon="-2.050038">
        <ele>987</ele>
        <time>2023-02-11T10:27:28.000Z</time>
      </trkpt>
      <trkpt lat="41.855541" lon="-2.049988">
        <ele>987</ele>
        <time>2023-02-11T10:27:29.000Z</time>
      </trkpt>
      <trkpt lat="41.855448" lon="-2.049938">
        <ele>986.8</ele>
        <time>2023-02-11T10:27:30.000Z</time>
      </trkpt>
      <trkpt lat="41.855355" lon="-2.049891">
        <ele>986.8</ele>
        <time>2023-02-11T10:27:31.000Z</time>
      </trkpt>
      <trkpt lat="41.855262" lon="-2.049845">
        <ele>986.8</ele>
        <time>2023-02-11T10:27:32.000Z</time>
      </trkpt>
      <trkpt lat="41.85517" lon="-2.049799">
        <ele>986.8</ele>
        <time>2023-02-11T10:27:33.000Z</time>
      </trkpt>
      <trkpt lat="41.855081" lon="-2.049753">
        <ele>986.8</ele>
        <time>2023-02-11T10:27:34.000Z</time>
      </trkpt>
      <trkpt lat="41.854993" lon="-2.04971">
        <ele>986.8</ele>
        <time>2023-02-11T10:27:35.000Z</time>
      </trkpt>
      <trkpt lat="41.854908" lon="-2.049666">
        <ele>986.8</ele>
        <time>2023-02-11T10:27:36.000Z</time>
      </trkpt>
      <trkpt lat="41.854824" lon="-2.049624">
        <ele>986.8</ele>
        <time>2023-02-11T10:27:37.000Z</time>
      </trkpt>
      <trkpt lat="41.854741" lon="-2.049583">
        <ele>986.8</ele>
        <time>2023-02-11T10:27:38.000Z</time>
      </trkpt>
      <trkpt lat="41.854659" lon="-2.049542">
        <ele>987</ele>
        <time>2023-02-11T10:27:39.000Z</time>
      </trkpt>
      <trkpt lat="41.854577" lon="-2.049501">
        <ele>987</ele>
        <time>2023-02-11T10:27:40.000Z</time>
      </trkpt>
      <trkpt lat="41.854496" lon="-2.049461">
        <ele>987.2</ele>
        <time>2023-02-11T10:27:41.000Z</time>
      </trkpt>
      <trkpt lat="41.854414" lon="-2.049419">
        <ele>987.2</ele>
        <time>2023-02-11T10:27:42.000Z</time>
      </trkpt>
      <trkpt lat="41.854335" lon="-2.049378">
        <ele>987.2</ele>
        <time>2023-02-11T10:27:43.000Z</time>
      </trkpt>
      <trkpt lat="41.854254" lon="-2.049339">
        <ele>987.4</ele>
        <time>2023-02-11T10:27:44.000Z</time>
      </trkpt>
      <trkpt lat="41.854175" lon="-2.0493">
        <ele>987.4</ele>
        <time>2023-02-11T10:27:45.000Z</time>
      </trkpt>
      <trkpt lat="41.854094" lon="-2.049261">
        <ele>987.4</ele>
        <time>2023-02-11T10:27:46.000Z</time>
      </trkpt>
      <trkpt lat="41.854015" lon="-2.049221">
        <ele>987.4</ele>
        <time>2023-02-11T10:27:47.000Z</time>
      </trkpt>
      <trkpt lat="41.853937" lon="-2.049181">
        <ele>987.6</ele>
        <time>2023-02-11T10:27:48.000Z</time>
      </trkpt>
      <trkpt lat="41.853858" lon="-2.049141">
        <ele>987.6</ele>
        <time>2023-02-11T10:27:49.000Z</time>
      </trkpt>
      <trkpt lat="41.85378" lon="-2.049101">
        <ele>987.6</ele>
        <time>2023-02-11T10:27:50.000Z</time>
      </trkpt>
      <trkpt lat="41.853702" lon="-2.049061">
        <ele>987.8</ele>
        <time>2023-02-11T10:27:51.000Z</time>
      </trkpt>
      <trkpt lat="41.853624" lon="-2.049022">
        <ele>987.8</ele>
        <time>2023-02-11T10:27:52.000Z</time>
      </trkpt>
      <trkpt lat="41.853547" lon="-2.048981">
        <ele>987.8</ele>
        <time>2023-02-11T10:27:53.000Z</time>
      </trkpt>
      <trkpt lat="41.853468" lon="-2.048942">
        <ele>988</ele>
        <time>2023-02-11T10:27:54.000Z</time>
      </trkpt>
      <trkpt lat="41.85339" lon="-2.048901">
        <ele>988</ele>
        <time>2023-02-11T10:27:55.000Z</time>
      </trkpt>
      <trkpt lat="41.853313" lon="-2.04886">
        <ele>988</ele>
        <time>2023-02-11T10:27:56.000Z</time>
      </trkpt>
      <trkpt lat="41.853234" lon="-2.04882">
        <ele>988</ele>
        <time>2023-02-11T10:27:57.000Z</time>
      </trkpt>
      <trkpt lat="41.853156" lon="-2.048779">
        <ele>988</ele>
        <time>2023-02-11T10:27:58.000Z</time>
      </trkpt>
      <trkpt lat="41.853078" lon="-2.048738">
        <ele>988.2</ele>
        <time>2023-02-11T10:27:59.000Z</time>
      </trkpt>
      <trkpt lat="41.852998" lon="-2.048697">
        <ele>988.2</ele>
        <time>2023-02-11T10:28:00.000Z</time>
      </trkpt>
      <trkpt lat="41.85292" lon="-2.048655">
        <ele>988.2</ele>
        <time>2023-02-11T10:28:01.000Z</time>
      </trkpt>
      <trkpt lat="41.852843" lon="-2.048616">
        <ele>988.2</ele>
        <time>2023-02-11T10:28:02.000Z</time>
      </trkpt>
      <trkpt lat="41.852765" lon="-2.048576">
        <ele>988.4</ele>
        <time>2023-02-11T10:28:03.000Z</time>
      </trkpt>
      <trkpt lat="41.852686" lon="-2.048536">
        <ele>988.4</ele>
        <time>2023-02-11T10:28:04.000Z</time>
      </trkpt>
      <trkpt lat="41.852609" lon="-2.048496">
        <ele>988.6</ele>
        <time>2023-02-11T10:28:05.000Z</time>
      </trkpt>
      <trkpt lat="41.852531" lon="-2.048456">
        <ele>988.6</ele>
        <time>2023-02-11T10:28:06.000Z</time>
      </trkpt>
      <trkpt lat="41.852454" lon="-2.048416">
        <ele>988.8</ele>
        <time>2023-02-11T10:28:07.000Z</time>
      </trkpt>
      <trkpt lat="41.852377" lon="-2.048376">
        <ele>988.8</ele>
        <time>2023-02-11T10:28:08.000Z</time>
      </trkpt>
      <trkpt lat="41.852301" lon="-2.048338">
        <ele>988.8</ele>
        <time>2023-02-11T10:28:09.000Z</time>
      </trkpt>
      <trkpt lat="41.852227" lon="-2.0483">
        <ele>989</ele>
        <time>2023-02-11T10:28:10.000Z</time>
      </trkpt>
      <trkpt lat="41.852153" lon="-2.048261">
        <ele>989</ele>
        <time>2023-02-11T10:28:11.000Z</time>
      </trkpt>
      <trkpt lat="41.852078" lon="-2.048224">
        <ele>989.2</ele>
        <time>2023-02-11T10:28:12.000Z</time>
      </trkpt>
      <trkpt lat="41.852006" lon="-2.048186">
        <ele>989.4</ele>
        <time>2023-02-11T10:28:13.000Z</time>
      </trkpt>
      <trkpt lat="41.851934" lon="-2.048149">
        <ele>989.4</ele>
        <time>2023-02-11T10:28:14.000Z</time>
      </trkpt>
      <trkpt lat="41.85186" lon="-2.048112">
        <ele>989.6</ele>
        <time>2023-02-11T10:28:15.000Z</time>
      </trkpt>
      <trkpt lat="41.851788" lon="-2.048076">
        <ele>989.8</ele>
        <time>2023-02-11T10:28:16.000Z</time>
      </trkpt>
      <trkpt lat="41.851716" lon="-2.04804">
        <ele>989.8</ele>
        <time>2023-02-11T10:28:17.000Z</time>
      </trkpt>
      <trkpt lat="41.851644" lon="-2.048003">
        <ele>990</ele>
        <time>2023-02-11T10:28:18.000Z</time>
      </trkpt>
      <trkpt lat="41.851573" lon="-2.047967">
        <ele>990.2</ele>
        <time>2023-02-11T10:28:19.000Z</time>
      </trkpt>
      <trkpt lat="41.8515" lon="-2.04793">
        <ele>990.2</ele>
        <time>2023-02-11T10:28:20.000Z</time>
      </trkpt>
      <trkpt lat="41.851428" lon="-2.047894">
        <ele>990.4</ele>
        <time>2023-02-11T10:28:21.000Z</time>
      </trkpt>
      <trkpt lat="41.851358" lon="-2.047856">
        <ele>990.4</ele>
        <time>2023-02-11T10:28:22.000Z</time>
      </trkpt>
      <trkpt lat="41.851287" lon="-2.047819">
        <ele>990.4</ele>
        <time>2023-02-11T10:28:23.000Z</time>
      </trkpt>
      <trkpt lat="41.851218" lon="-2.047782">
        <ele>990.6</ele>
        <time>2023-02-11T10:28:24.000Z</time>
      </trkpt>
      <trkpt lat="41.851148" lon="-2.047747">
        <ele>990.6</ele>
        <time>2023-02-11T10:28:25.000Z</time>
      </trkpt>
      <trkpt lat="41.851079" lon="-2.047712">
        <ele>990.8</ele>
        <time>2023-02-11T10:28:26.000Z</time>
      </trkpt>
      <trkpt lat="41.851008" lon="-2.047677">
        <ele>991</ele>
        <time>2023-02-11T10:28:27.000Z</time>
      </trkpt>
      <trkpt lat="41.850937" lon="-2.04764">
        <ele>991</ele>
        <time>2023-02-11T10:28:28.000Z</time>
      </trkpt>
      <trkpt lat="41.850866" lon="-2.047604">
        <ele>991.2</ele>
        <time>2023-02-11T10:28:29.000Z</time>
      </trkpt>
      <trkpt lat="41.850796" lon="-2.047566">
        <ele>991.4</ele>
        <time>2023-02-11T10:28:30.000Z</time>
      </trkpt>
      <trkpt lat="41.850726" lon="-2.047531">
        <ele>991.4</ele>
        <time>2023-02-11T10:28:31.000Z</time>
      </trkpt>
      <trkpt lat="41.850653" lon="-2.047494">
        <ele>991.6</ele>
        <time>2023-02-11T10:28:32.000Z</time>
      </trkpt>
      <trkpt lat="41.85058" lon="-2.047457">
        <ele>991.6</ele>
        <time>2023-02-11T10:28:33.000Z</time>
      </trkpt>
      <trkpt lat="41.850508" lon="-2.047421">
        <ele>991.8</ele>
        <time>2023-02-11T10:28:34.000Z</time>
      </trkpt>
      <trkpt lat="41.850436" lon="-2.047385">
        <ele>991.8</ele>
        <time>2023-02-11T10:28:35.000Z</time>
      </trkpt>
      <trkpt lat="41.850363" lon="-2.047348">
        <ele>991.8</ele>
        <time>2023-02-11T10:28:36.000Z</time>
      </trkpt>
      <trkpt lat="41.850292" lon="-2.047313">
        <ele>992</ele>
        <time>2023-02-11T10:28:37.000Z</time>
      </trkpt>
      <trkpt lat="41.850221" lon="-2.047277">
        <ele>992</ele>
        <time>2023-02-11T10:28:38.000Z</time>
      </trkpt>
      <trkpt lat="41.850149" lon="-2.047243">
        <ele>992.2</ele>
        <time>2023-02-11T10:28:39.000Z</time>
      </trkpt>
      <trkpt lat="41.850077" lon="-2.047207">
        <ele>992.2</ele>
        <time>2023-02-11T10:28:40.000Z</time>
      </trkpt>
      <trkpt lat="41.850005" lon="-2.04717">
        <ele>992.2</ele>
        <time>2023-02-11T10:28:41.000Z</time>
      </trkpt>
      <trkpt lat="41.849933" lon="-2.047137">
        <ele>992.4</ele>
        <time>2023-02-11T10:28:42.000Z</time>
      </trkpt>
      <trkpt lat="41.849862" lon="-2.047102">
        <ele>992.4</ele>
        <time>2023-02-11T10:28:43.000Z</time>
      </trkpt>
      <trkpt lat="41.849791" lon="-2.047066">
        <ele>992.6</ele>
        <time>2023-02-11T10:28:44.000Z</time>
      </trkpt>
      <trkpt lat="41.84972" lon="-2.047029">
        <ele>992.6</ele>
        <time>2023-02-11T10:28:45.000Z</time>
      </trkpt>
      <trkpt lat="41.849648" lon="-2.046992">
        <ele>992.6</ele>
        <time>2023-02-11T10:28:46.000Z</time>
      </trkpt>
      <trkpt lat="41.849577" lon="-2.046956">
        <ele>992.6</ele>
        <time>2023-02-11T10:28:47.000Z</time>
      </trkpt>
      <trkpt lat="41.849504" lon="-2.046919">
        <ele>992.8</ele>
        <time>2023-02-11T10:28:48.000Z</time>
      </trkpt>
      <trkpt lat="41.849433" lon="-2.046881">
        <ele>992.8</ele>
        <time>2023-02-11T10:28:49.000Z</time>
      </trkpt>
      <trkpt lat="41.849361" lon="-2.046844">
        <ele>992.8</ele>
        <time>2023-02-11T10:28:50.000Z</time>
      </trkpt>
      <trkpt lat="41.849288" lon="-2.046808">
        <ele>992.8</ele>
        <time>2023-02-11T10:28:51.000Z</time>
      </trkpt>
      <trkpt lat="41.849216" lon="-2.046772">
        <ele>993</ele>
        <time>2023-02-11T10:28:52.000Z</time>
      </trkpt>
      <trkpt lat="41.849144" lon="-2.046734">
        <ele>993</ele>
        <time>2023-02-11T10:28:53.000Z</time>
      </trkpt>
      <trkpt lat="41.849072" lon="-2.046697">
        <ele>992.8</ele>
        <time>2023-02-11T10:28:54.000Z</time>
      </trkpt>
      <trkpt lat="41.849001" lon="-2.046659">
        <ele>993</ele>
        <time>2023-02-11T10:28:55.000Z</time>
      </trkpt>
      <trkpt lat="41.84893" lon="-2.046621">
        <ele>993</ele>
        <time>2023-02-11T10:28:56.000Z</time>
      </trkpt>
      <trkpt lat="41.848861" lon="-2.046584">
        <ele>993</ele>
        <time>2023-02-11T10:28:57.000Z</time>
      </trkpt>
      <trkpt lat="41.848791" lon="-2.046548">
        <ele>993</ele>
        <time>2023-02-11T10:28:58.000Z</time>
      </trkpt>
      <trkpt lat="41.84872" lon="-2.046512">
        <ele>993.2</ele>
        <time>2023-02-11T10:28:59.000Z</time>
      </trkpt>
      <trkpt lat="41.84865" lon="-2.046477">
        <ele>993.4</ele>
        <time>2023-02-11T10:29:00.000Z</time>
      </trkpt>
      <trkpt lat="41.84858" lon="-2.046439">
        <ele>993.4</ele>
        <time>2023-02-11T10:29:01.000Z</time>
      </trkpt>
      <trkpt lat="41.848511" lon="-2.046402">
        <ele>993.6</ele>
        <time>2023-02-11T10:29:02.000Z</time>
      </trkpt>
      <trkpt lat="41.848443" lon="-2.046362">
        <ele>993.6</ele>
        <time>2023-02-11T10:29:03.000Z</time>
      </trkpt>
      <trkpt lat="41.848375" lon="-2.046316">
        <ele>993.6</ele>
        <time>2023-02-11T10:29:04.000Z</time>
      </trkpt>
      <trkpt lat="41.848301" lon="-2.046274">
        <ele>993.6</ele>
        <time>2023-02-11T10:29:05.000Z</time>
      </trkpt>
      <trkpt lat="41.848226" lon="-2.046236">
        <ele>993.6</ele>
        <time>2023-02-11T10:29:06.000Z</time>
      </trkpt>
      <trkpt lat="41.848151" lon="-2.046195">
        <ele>993.6</ele>
        <time>2023-02-11T10:29:07.000Z</time>
      </trkpt>
      <trkpt lat="41.848075" lon="-2.046152">
        <ele>993.6</ele>
        <time>2023-02-11T10:29:08.000Z</time>
      </trkpt>
      <trkpt lat="41.848001" lon="-2.046113">
        <ele>993.6</ele>
        <time>2023-02-11T10:29:09.000Z</time>
      </trkpt>
      <trkpt lat="41.847927" lon="-2.046077">
        <ele>993.6</ele>
        <time>2023-02-11T10:29:10.000Z</time>
      </trkpt>
      <trkpt lat="41.847853" lon="-2.046041">
        <ele>993.6</ele>
        <time>2023-02-11T10:29:11.000Z</time>
      </trkpt>
      <trkpt lat="41.847777" lon="-2.046004">
        <ele>993.4</ele>
        <time>2023-02-11T10:29:12.000Z</time>
      </trkpt>
      <trkpt lat="41.847703" lon="-2.045965">
        <ele>993.4</ele>
        <time>2023-02-11T10:29:13.000Z</time>
      </trkpt>
      <trkpt lat="41.847631" lon="-2.045927">
        <ele>993.4</ele>
        <time>2023-02-11T10:29:14.000Z</time>
      </trkpt>
      <trkpt lat="41.847561" lon="-2.04589">
        <ele>993.4</ele>
        <time>2023-02-11T10:29:15.000Z</time>
      </trkpt>
      <trkpt lat="41.847489" lon="-2.045851">
        <ele>993.4</ele>
        <time>2023-02-11T10:29:16.000Z</time>
      </trkpt>
      <trkpt lat="41.847418" lon="-2.045814">
        <ele>993.4</ele>
        <time>2023-02-11T10:29:17.000Z</time>
      </trkpt>
      <trkpt lat="41.847345" lon="-2.04578">
        <ele>993.6</ele>
        <time>2023-02-11T10:29:18.000Z</time>
      </trkpt>
      <trkpt lat="41.847274" lon="-2.045746">
        <ele>993.6</ele>
        <time>2023-02-11T10:29:19.000Z</time>
      </trkpt>
      <trkpt lat="41.847202" lon="-2.045709">
        <ele>993.8</ele>
        <time>2023-02-11T10:29:20.000Z</time>
      </trkpt>
      <trkpt lat="41.84713" lon="-2.045673">
        <ele>994</ele>
        <time>2023-02-11T10:29:21.000Z</time>
      </trkpt>
      <trkpt lat="41.847056" lon="-2.045636">
        <ele>994.2</ele>
        <time>2023-02-11T10:29:22.000Z</time>
      </trkpt>
      <trkpt lat="41.846982" lon="-2.0456">
        <ele>994.2</ele>
        <time>2023-02-11T10:29:23.000Z</time>
      </trkpt>
      <trkpt lat="41.84691" lon="-2.045562">
        <ele>994.2</ele>
        <time>2023-02-11T10:29:24.000Z</time>
      </trkpt>
      <trkpt lat="41.846838" lon="-2.045524">
        <ele>994.2</ele>
        <time>2023-02-11T10:29:25.000Z</time>
      </trkpt>
      <trkpt lat="41.846767" lon="-2.045486">
        <ele>994.2</ele>
        <time>2023-02-11T10:29:26.000Z</time>
      </trkpt>
      <trkpt lat="41.846697" lon="-2.045448">
        <ele>994.2</ele>
        <time>2023-02-11T10:29:27.000Z</time>
      </trkpt>
      <trkpt lat="41.846627" lon="-2.045413">
        <ele>994.4</ele>
        <time>2023-02-11T10:29:28.000Z</time>
      </trkpt>
      <trkpt lat="41.846557" lon="-2.045379">
        <ele>994.4</ele>
        <time>2023-02-11T10:29:29.000Z</time>
      </trkpt>
      <trkpt lat="41.846486" lon="-2.045348">
        <ele>994.4</ele>
        <time>2023-02-11T10:29:30.000Z</time>
      </trkpt>
      <trkpt lat="41.846414" lon="-2.045314">
        <ele>994.4</ele>
        <time>2023-02-11T10:29:31.000Z</time>
      </trkpt>
      <trkpt lat="41.846341" lon="-2.045278">
        <ele>994.4</ele>
        <time>2023-02-11T10:29:32.000Z</time>
      </trkpt>
      <trkpt lat="41.846268" lon="-2.045239">
        <ele>994.4</ele>
        <time>2023-02-11T10:29:33.000Z</time>
      </trkpt>
      <trkpt lat="41.846195" lon="-2.0452">
        <ele>994.4</ele>
        <time>2023-02-11T10:29:34.000Z</time>
      </trkpt>
      <trkpt lat="41.846122" lon="-2.045161">
        <ele>994.4</ele>
        <time>2023-02-11T10:29:35.000Z</time>
      </trkpt>
      <trkpt lat="41.846049" lon="-2.045124">
        <ele>994.4</ele>
        <time>2023-02-11T10:29:36.000Z</time>
      </trkpt>
      <trkpt lat="41.845976" lon="-2.045087">
        <ele>994.6</ele>
        <time>2023-02-11T10:29:37.000Z</time>
      </trkpt>
      <trkpt lat="41.845905" lon="-2.045051">
        <ele>994.6</ele>
        <time>2023-02-11T10:29:38.000Z</time>
      </trkpt>
      <trkpt lat="41.845834" lon="-2.045014">
        <ele>994.6</ele>
        <time>2023-02-11T10:29:39.000Z</time>
      </trkpt>
      <trkpt lat="41.845761" lon="-2.044975">
        <ele>994.6</ele>
        <time>2023-02-11T10:29:40.000Z</time>
      </trkpt>
      <trkpt lat="41.84569" lon="-2.044938">
        <ele>994.6</ele>
        <time>2023-02-11T10:29:41.000Z</time>
      </trkpt>
      <trkpt lat="41.84562" lon="-2.044901">
        <ele>994.6</ele>
        <time>2023-02-11T10:29:42.000Z</time>
      </trkpt>
      <trkpt lat="41.845548" lon="-2.044862">
        <ele>994.6</ele>
        <time>2023-02-11T10:29:43.000Z</time>
      </trkpt>
      <trkpt lat="41.845476" lon="-2.044825">
        <ele>994.6</ele>
        <time>2023-02-11T10:29:44.000Z</time>
      </trkpt>
      <trkpt lat="41.845404" lon="-2.044789">
        <ele>994.8</ele>
        <time>2023-02-11T10:29:45.000Z</time>
      </trkpt>
      <trkpt lat="41.845333" lon="-2.044752">
        <ele>994.8</ele>
        <time>2023-02-11T10:29:46.000Z</time>
      </trkpt>
      <trkpt lat="41.84526" lon="-2.044714">
        <ele>994.8</ele>
        <time>2023-02-11T10:29:47.000Z</time>
      </trkpt>
      <trkpt lat="41.845187" lon="-2.044678">
        <ele>994.8</ele>
        <time>2023-02-11T10:29:48.000Z</time>
      </trkpt>
      <trkpt lat="41.845114" lon="-2.044641">
        <ele>994.8</ele>
        <time>2023-02-11T10:29:49.000Z</time>
      </trkpt>
      <trkpt lat="41.84504" lon="-2.044603">
        <ele>994.8</ele>
        <time>2023-02-11T10:29:50.000Z</time>
      </trkpt>
      <trkpt lat="41.844966" lon="-2.044564">
        <ele>995</ele>
        <time>2023-02-11T10:29:51.000Z</time>
      </trkpt>
      <trkpt lat="41.844891" lon="-2.044525">
        <ele>995</ele>
        <time>2023-02-11T10:29:52.000Z</time>
      </trkpt>
      <trkpt lat="41.844816" lon="-2.044488">
        <ele>995</ele>
        <time>2023-02-11T10:29:53.000Z</time>
      </trkpt>
      <trkpt lat="41.844741" lon="-2.04445">
        <ele>995</ele>
        <time>2023-02-11T10:29:54.000Z</time>
      </trkpt>
      <trkpt lat="41.844665" lon="-2.044411">
        <ele>995</ele>
        <time>2023-02-11T10:29:55.000Z</time>
      </trkpt>
      <trkpt lat="41.84459" lon="-2.044372">
        <ele>995</ele>
        <time>2023-02-11T10:29:56.000Z</time>
      </trkpt>
      <trkpt lat="41.844515" lon="-2.044336">
        <ele>995</ele>
        <time>2023-02-11T10:29:57.000Z</time>
      </trkpt>
      <trkpt lat="41.844441" lon="-2.044299">
        <ele>995</ele>
        <time>2023-02-11T10:29:58.000Z</time>
      </trkpt>
      <trkpt lat="41.844367" lon="-2.04426">
        <ele>994.8</ele>
        <time>2023-02-11T10:29:59.000Z</time>
      </trkpt>
      <trkpt lat="41.844292" lon="-2.044222">
        <ele>994.8</ele>
        <time>2023-02-11T10:30:00.000Z</time>
      </trkpt>
      <trkpt lat="41.844217" lon="-2.044184">
        <ele>994.8</ele>
        <time>2023-02-11T10:30:01.000Z</time>
      </trkpt>
      <trkpt lat="41.84414" lon="-2.044145">
        <ele>994.6</ele>
        <time>2023-02-11T10:30:02.000Z</time>
      </trkpt>
      <trkpt lat="41.844064" lon="-2.044106">
        <ele>994.4</ele>
        <time>2023-02-11T10:30:03.000Z</time>
      </trkpt>
      <trkpt lat="41.843988" lon="-2.044067">
        <ele>994.4</ele>
        <time>2023-02-11T10:30:04.000Z</time>
      </trkpt>
      <trkpt lat="41.843911" lon="-2.044029">
        <ele>994.4</ele>
        <time>2023-02-11T10:30:05.000Z</time>
      </trkpt>
      <trkpt lat="41.843835" lon="-2.04399">
        <ele>994.2</ele>
        <time>2023-02-11T10:30:06.000Z</time>
      </trkpt>
      <trkpt lat="41.843757" lon="-2.043952">
        <ele>994</ele>
        <time>2023-02-11T10:30:07.000Z</time>
      </trkpt>
      <trkpt lat="41.843679" lon="-2.043913">
        <ele>994</ele>
        <time>2023-02-11T10:30:08.000Z</time>
      </trkpt>
      <trkpt lat="41.843602" lon="-2.043872">
        <ele>994</ele>
        <time>2023-02-11T10:30:09.000Z</time>
      </trkpt>
      <trkpt lat="41.843524" lon="-2.04383">
        <ele>993.8</ele>
        <time>2023-02-11T10:30:10.000Z</time>
      </trkpt>
      <trkpt lat="41.843448" lon="-2.04379">
        <ele>993.8</ele>
        <time>2023-02-11T10:30:11.000Z</time>
      </trkpt>
      <trkpt lat="41.843372" lon="-2.043751">
        <ele>993.8</ele>
        <time>2023-02-11T10:30:12.000Z</time>
      </trkpt>
      <trkpt lat="41.843295" lon="-2.043711">
        <ele>993.6</ele>
        <time>2023-02-11T10:30:13.000Z</time>
      </trkpt>
      <trkpt lat="41.843218" lon="-2.043671">
        <ele>993.6</ele>
        <time>2023-02-11T10:30:14.000Z</time>
      </trkpt>
      <trkpt lat="41.843141" lon="-2.043633">
        <ele>993.6</ele>
        <time>2023-02-11T10:30:15.000Z</time>
      </trkpt>
      <trkpt lat="41.843066" lon="-2.043595">
        <ele>993.6</ele>
        <time>2023-02-11T10:30:16.000Z</time>
      </trkpt>
      <trkpt lat="41.842989" lon="-2.043556">
        <ele>993.6</ele>
        <time>2023-02-11T10:30:17.000Z</time>
      </trkpt>
      <trkpt lat="41.842912" lon="-2.043518">
        <ele>993.4</ele>
        <time>2023-02-11T10:30:18.000Z</time>
      </trkpt>
      <trkpt lat="41.842834" lon="-2.043479">
        <ele>993.4</ele>
        <time>2023-02-11T10:30:19.000Z</time>
      </trkpt>
      <trkpt lat="41.842755" lon="-2.043441">
        <ele>993.4</ele>
        <time>2023-02-11T10:30:20.000Z</time>
      </trkpt>
      <trkpt lat="41.842674" lon="-2.043401">
        <ele>993.4</ele>
        <time>2023-02-11T10:30:21.000Z</time>
      </trkpt>
      <trkpt lat="41.842593" lon="-2.043358">
        <ele>993.4</ele>
        <time>2023-02-11T10:30:22.000Z</time>
      </trkpt>
      <trkpt lat="41.842515" lon="-2.043314">
        <ele>993.4</ele>
        <time>2023-02-11T10:30:23.000Z</time>
      </trkpt>
      <trkpt lat="41.84244" lon="-2.043276">
        <ele>993.2</ele>
        <time>2023-02-11T10:30:24.000Z</time>
      </trkpt>
      <trkpt lat="41.842367" lon="-2.043238">
        <ele>993.2</ele>
        <time>2023-02-11T10:30:25.000Z</time>
      </trkpt>
      <trkpt lat="41.842293" lon="-2.043202">
        <ele>993</ele>
        <time>2023-02-11T10:30:26.000Z</time>
      </trkpt>
      <trkpt lat="41.842218" lon="-2.043162">
        <ele>992.8</ele>
        <time>2023-02-11T10:30:27.000Z</time>
      </trkpt>
      <trkpt lat="41.842143" lon="-2.043124">
        <ele>992.8</ele>
        <time>2023-02-11T10:30:28.000Z</time>
      </trkpt>
      <trkpt lat="41.842067" lon="-2.043087">
        <ele>992.6</ele>
        <time>2023-02-11T10:30:29.000Z</time>
      </trkpt>
      <trkpt lat="41.841989" lon="-2.043049">
        <ele>992.6</ele>
        <time>2023-02-11T10:30:30.000Z</time>
      </trkpt>
      <trkpt lat="41.841912" lon="-2.043009">
        <ele>992.4</ele>
        <time>2023-02-11T10:30:31.000Z</time>
      </trkpt>
      <trkpt lat="41.841836" lon="-2.042968">
        <ele>992.2</ele>
        <time>2023-02-11T10:30:32.000Z</time>
      </trkpt>
      <trkpt lat="41.841764" lon="-2.042929">
        <ele>992.2</ele>
        <time>2023-02-11T10:30:33.000Z</time>
      </trkpt>
      <trkpt lat="41.841697" lon="-2.042896">
        <ele>992</ele>
        <time>2023-02-11T10:30:34.000Z</time>
      </trkpt>
      <trkpt lat="41.841635" lon="-2.042867">
        <ele>992</ele>
        <time>2023-02-11T10:30:35.000Z</time>
      </trkpt>
      <trkpt lat="41.841577" lon="-2.04284">
        <ele>991.8</ele>
        <time>2023-02-11T10:30:36.000Z</time>
      </trkpt>
      <trkpt lat="41.841521" lon="-2.042814">
        <ele>991.6</ele>
        <time>2023-02-11T10:30:37.000Z</time>
      </trkpt>
      <trkpt lat="41.841469" lon="-2.042791">
        <ele>991.6</ele>
        <time>2023-02-11T10:30:38.000Z</time>
      </trkpt>
      <trkpt lat="41.841422" lon="-2.042764">
        <ele>991.6</ele>
        <time>2023-02-11T10:30:39.000Z</time>
      </trkpt>
      <trkpt lat="41.841378" lon="-2.042738">
        <ele>991.6</ele>
        <time>2023-02-11T10:30:40.000Z</time>
      </trkpt>
      <trkpt lat="41.841332" lon="-2.042711">
        <ele>991.4</ele>
        <time>2023-02-11T10:30:41.000Z</time>
      </trkpt>
      <trkpt lat="41.841283" lon="-2.042684">
        <ele>991.4</ele>
        <time>2023-02-11T10:30:42.000Z</time>
      </trkpt>
      <trkpt lat="41.841232" lon="-2.042655">
        <ele>991.4</ele>
        <time>2023-02-11T10:30:43.000Z</time>
      </trkpt>
      <trkpt lat="41.841177" lon="-2.042624">
        <ele>991.4</ele>
        <time>2023-02-11T10:30:44.000Z</time>
      </trkpt>
      <trkpt lat="41.841122" lon="-2.042591">
        <ele>991.4</ele>
        <time>2023-02-11T10:30:45.000Z</time>
      </trkpt>
      <trkpt lat="41.841066" lon="-2.042554">
        <ele>991.4</ele>
        <time>2023-02-11T10:30:46.000Z</time>
      </trkpt>
      <trkpt lat="41.841009" lon="-2.042512">
        <ele>991.4</ele>
        <time>2023-02-11T10:30:47.000Z</time>
      </trkpt>
      <trkpt lat="41.840955" lon="-2.042463">
        <ele>991.2</ele>
        <time>2023-02-11T10:30:48.000Z</time>
      </trkpt>
      <trkpt lat="41.840902" lon="-2.042411">
        <ele>991.2</ele>
        <time>2023-02-11T10:30:49.000Z</time>
      </trkpt>
      <trkpt lat="41.84085" lon="-2.042357">
        <ele>991.2</ele>
        <time>2023-02-11T10:30:50.000Z</time>
      </trkpt>
      <trkpt lat="41.8408" lon="-2.042295">
        <ele>991</ele>
        <time>2023-02-11T10:30:51.000Z</time>
      </trkpt>
      <trkpt lat="41.840752" lon="-2.042227">
        <ele>991</ele>
        <time>2023-02-11T10:30:52.000Z</time>
      </trkpt>
      <trkpt lat="41.840705" lon="-2.042153">
        <ele>990.8</ele>
        <time>2023-02-11T10:30:53.000Z</time>
      </trkpt>
      <trkpt lat="41.840659" lon="-2.042074">
        <ele>990.6</ele>
        <time>2023-02-11T10:30:54.000Z</time>
      </trkpt>
      <trkpt lat="41.840612" lon="-2.041988">
        <ele>990.6</ele>
        <time>2023-02-11T10:30:55.000Z</time>
      </trkpt>
      <trkpt lat="41.840565" lon="-2.041894">
        <ele>990.4</ele>
        <time>2023-02-11T10:30:56.000Z</time>
      </trkpt>
      <trkpt lat="41.840517" lon="-2.041792">
        <ele>990.2</ele>
        <time>2023-02-11T10:30:57.000Z</time>
      </trkpt>
      <trkpt lat="41.840469" lon="-2.041686">
        <ele>990</ele>
        <time>2023-02-11T10:30:58.000Z</time>
      </trkpt>
      <trkpt lat="41.84042" lon="-2.041577">
        <ele>989.8</ele>
        <time>2023-02-11T10:30:59.000Z</time>
      </trkpt>
      <trkpt lat="41.840369" lon="-2.041464">
        <ele>989.6</ele>
        <time>2023-02-11T10:31:00.000Z</time>
      </trkpt>
      <trkpt lat="41.840316" lon="-2.041351">
        <ele>989.4</ele>
        <time>2023-02-11T10:31:01.000Z</time>
      </trkpt>
      <trkpt lat="41.840265" lon="-2.041234">
        <ele>989.2</ele>
        <time>2023-02-11T10:31:02.000Z</time>
      </trkpt>
      <trkpt lat="41.840217" lon="-2.041114">
        <ele>989</ele>
        <time>2023-02-11T10:31:03.000Z</time>
      </trkpt>
      <trkpt lat="41.84017" lon="-2.040992">
        <ele>988.4</ele>
        <time>2023-02-11T10:31:04.000Z</time>
      </trkpt>
      <trkpt lat="41.840121" lon="-2.04087">
        <ele>988.2</ele>
        <time>2023-02-11T10:31:05.000Z</time>
      </trkpt>
      <trkpt lat="41.840071" lon="-2.040744">
        <ele>988</ele>
        <time>2023-02-11T10:31:06.000Z</time>
      </trkpt>
      <trkpt lat="41.84002" lon="-2.040614">
        <ele>987.8</ele>
        <time>2023-02-11T10:31:07.000Z</time>
      </trkpt>
      <trkpt lat="41.839969" lon="-2.040479">
        <ele>987.6</ele>
        <time>2023-02-11T10:31:08.000Z</time>
      </trkpt>
      <trkpt lat="41.839917" lon="-2.04034">
        <ele>987.4</ele>
        <time>2023-02-11T10:31:09.000Z</time>
      </trkpt>
      <trkpt lat="41.839863" lon="-2.0402">
        <ele>987.2</ele>
        <time>2023-02-11T10:31:10.000Z</time>
      </trkpt>
      <trkpt lat="41.839808" lon="-2.040061">
        <ele>987.2</ele>
        <time>2023-02-11T10:31:11.000Z</time>
      </trkpt>
      <trkpt lat="41.839753" lon="-2.039924">
        <ele>987</ele>
        <time>2023-02-11T10:31:12.000Z</time>
      </trkpt>
      <trkpt lat="41.839698" lon="-2.039792">
        <ele>987</ele>
        <time>2023-02-11T10:31:13.000Z</time>
      </trkpt>
      <trkpt lat="41.839646" lon="-2.039663">
        <ele>986.6</ele>
        <time>2023-02-11T10:31:14.000Z</time>
      </trkpt>
      <trkpt lat="41.839594" lon="-2.039535">
        <ele>986.2</ele>
        <time>2023-02-11T10:31:15.000Z</time>
      </trkpt>
      <trkpt lat="41.83954" lon="-2.039404">
        <ele>985.6</ele>
        <time>2023-02-11T10:31:16.000Z</time>
      </trkpt>
      <trkpt lat="41.839486" lon="-2.039272">
        <ele>985.4</ele>
        <time>2023-02-11T10:31:17.000Z</time>
      </trkpt>
      <trkpt lat="41.839431" lon="-2.039139">
        <ele>985</ele>
        <time>2023-02-11T10:31:18.000Z</time>
      </trkpt>
      <trkpt lat="41.839375" lon="-2.039007">
        <ele>985</ele>
        <time>2023-02-11T10:31:19.000Z</time>
      </trkpt>
      <trkpt lat="41.83932" lon="-2.038875">
        <ele>984.6</ele>
        <time>2023-02-11T10:31:20.000Z</time>
      </trkpt>
      <trkpt lat="41.839266" lon="-2.038745">
        <ele>984.4</ele>
        <time>2023-02-11T10:31:21.000Z</time>
      </trkpt>
      <trkpt lat="41.839212" lon="-2.038616">
        <ele>984</ele>
        <time>2023-02-11T10:31:22.000Z</time>
      </trkpt>
      <trkpt lat="41.839156" lon="-2.038485">
        <ele>983.4</ele>
        <time>2023-02-11T10:31:23.000Z</time>
      </trkpt>
      <trkpt lat="41.8391" lon="-2.038354">
        <ele>983.2</ele>
        <time>2023-02-11T10:31:24.000Z</time>
      </trkpt>
      <trkpt lat="41.839047" lon="-2.038223">
        <ele>982.8</ele>
        <time>2023-02-11T10:31:25.000Z</time>
      </trkpt>
      <trkpt lat="41.838994" lon="-2.038093">
        <ele>982.6</ele>
        <time>2023-02-11T10:31:26.000Z</time>
      </trkpt>
      <trkpt lat="41.838942" lon="-2.037965">
        <ele>982.4</ele>
        <time>2023-02-11T10:31:27.000Z</time>
      </trkpt>
      <trkpt lat="41.83889" lon="-2.037839">
        <ele>982.4</ele>
        <time>2023-02-11T10:31:28.000Z</time>
      </trkpt>
      <trkpt lat="41.838836" lon="-2.037711">
        <ele>982</ele>
        <time>2023-02-11T10:31:29.000Z</time>
      </trkpt>
      <trkpt lat="41.838784" lon="-2.03758">
        <ele>981.6</ele>
        <time>2023-02-11T10:31:30.000Z</time>
      </trkpt>
      <trkpt lat="41.838729" lon="-2.037449">
        <ele>981.2</ele>
        <time>2023-02-11T10:31:31.000Z</time>
      </trkpt>
      <trkpt lat="41.838675" lon="-2.03732">
        <ele>981</ele>
        <time>2023-02-11T10:31:32.000Z</time>
      </trkpt>
      <trkpt lat="41.838621" lon="-2.037191">
        <ele>980.4</ele>
        <time>2023-02-11T10:31:33.000Z</time>
      </trkpt>
      <trkpt lat="41.838567" lon="-2.037063">
        <ele>980.2</ele>
        <time>2023-02-11T10:31:34.000Z</time>
      </trkpt>
      <trkpt lat="41.838515" lon="-2.036933">
        <ele>979.8</ele>
        <time>2023-02-11T10:31:35.000Z</time>
      </trkpt>
      <trkpt lat="41.838462" lon="-2.036805">
        <ele>979.6</ele>
        <time>2023-02-11T10:31:36.000Z</time>
      </trkpt>
      <trkpt lat="41.83841" lon="-2.036679">
        <ele>979.4</ele>
        <time>2023-02-11T10:31:37.000Z</time>
      </trkpt>
      <trkpt lat="41.838358" lon="-2.036551">
        <ele>979</ele>
        <time>2023-02-11T10:31:38.000Z</time>
      </trkpt>
      <trkpt lat="41.838307" lon="-2.036427">
        <ele>979</ele>
        <time>2023-02-11T10:31:39.000Z</time>
      </trkpt>
      <trkpt lat="41.838256" lon="-2.036303">
        <ele>978.6</ele>
        <time>2023-02-11T10:31:40.000Z</time>
      </trkpt>
      <trkpt lat="41.838205" lon="-2.036178">
        <ele>978.6</ele>
        <time>2023-02-11T10:31:41.000Z</time>
      </trkpt>
      <trkpt lat="41.838155" lon="-2.036055">
        <ele>978</ele>
        <time>2023-02-11T10:31:42.000Z</time>
      </trkpt>
      <trkpt lat="41.838106" lon="-2.035933">
        <ele>978</ele>
        <time>2023-02-11T10:31:43.000Z</time>
      </trkpt>
      <trkpt lat="41.838056" lon="-2.035808">
        <ele>977.6</ele>
        <time>2023-02-11T10:31:44.000Z</time>
      </trkpt>
      <trkpt lat="41.838005" lon="-2.035683">
        <ele>977.8</ele>
        <time>2023-02-11T10:31:45.000Z</time>
      </trkpt>
      <trkpt lat="41.837955" lon="-2.035561">
        <ele>977.6</ele>
        <time>2023-02-11T10:31:46.000Z</time>
      </trkpt>
      <trkpt lat="41.837905" lon="-2.035436">
        <ele>977.6</ele>
        <time>2023-02-11T10:31:47.000Z</time>
      </trkpt>
      <trkpt lat="41.837853" lon="-2.03531">
        <ele>977.4</ele>
        <time>2023-02-11T10:31:48.000Z</time>
      </trkpt>
      <trkpt lat="41.837802" lon="-2.035183">
        <ele>977.4</ele>
        <time>2023-02-11T10:31:49.000Z</time>
      </trkpt>
      <trkpt lat="41.83775" lon="-2.035057">
        <ele>977.4</ele>
        <time>2023-02-11T10:31:50.000Z</time>
      </trkpt>
      <trkpt lat="41.8377" lon="-2.034933">
        <ele>977</ele>
        <time>2023-02-11T10:31:51.000Z</time>
      </trkpt>
      <trkpt lat="41.83765" lon="-2.034807">
        <ele>976.8</ele>
        <time>2023-02-11T10:31:52.000Z</time>
      </trkpt>
      <trkpt lat="41.837598" lon="-2.034682">
        <ele>976.6</ele>
        <time>2023-02-11T10:31:53.000Z</time>
      </trkpt>
      <trkpt lat="41.837547" lon="-2.034556">
        <ele>976.4</ele>
        <time>2023-02-11T10:31:54.000Z</time>
      </trkpt>
      <trkpt lat="41.837494" lon="-2.034429">
        <ele>976.4</ele>
        <time>2023-02-11T10:31:55.000Z</time>
      </trkpt>
      <trkpt lat="41.837438" lon="-2.034302">
        <ele>976</ele>
        <time>2023-02-11T10:31:56.000Z</time>
      </trkpt>
      <trkpt lat="41.837384" lon="-2.034175">
        <ele>976</ele>
        <time>2023-02-11T10:31:57.000Z</time>
      </trkpt>
      <trkpt lat="41.837331" lon="-2.034049">
        <ele>975.8</ele>
        <time>2023-02-11T10:31:58.000Z</time>
      </trkpt>
      <trkpt lat="41.837278" lon="-2.033921">
        <ele>975.6</ele>
        <time>2023-02-11T10:31:59.000Z</time>
      </trkpt>
      <trkpt lat="41.837228" lon="-2.033793">
        <ele>975.4</ele>
        <time>2023-02-11T10:32:00.000Z</time>
      </trkpt>
      <trkpt lat="41.837177" lon="-2.033667">
        <ele>975.4</ele>
        <time>2023-02-11T10:32:01.000Z</time>
      </trkpt>
      <trkpt lat="41.837125" lon="-2.033543">
        <ele>975.2</ele>
        <time>2023-02-11T10:32:02.000Z</time>
      </trkpt>
      <trkpt lat="41.837073" lon="-2.03342">
        <ele>975</ele>
        <time>2023-02-11T10:32:03.000Z</time>
      </trkpt>
      <trkpt lat="41.837024" lon="-2.033299">
        <ele>974.8</ele>
        <time>2023-02-11T10:32:04.000Z</time>
      </trkpt>
      <trkpt lat="41.836976" lon="-2.033182">
        <ele>974.8</ele>
        <time>2023-02-11T10:32:05.000Z</time>
      </trkpt>
      <trkpt lat="41.836929" lon="-2.033064">
        <ele>974.6</ele>
        <time>2023-02-11T10:32:06.000Z</time>
      </trkpt>
      <trkpt lat="41.836881" lon="-2.032949">
        <ele>974.6</ele>
        <time>2023-02-11T10:32:07.000Z</time>
      </trkpt>
      <trkpt lat="41.836831" lon="-2.032834">
        <ele>974.6</ele>
        <time>2023-02-11T10:32:08.000Z</time>
      </trkpt>
      <trkpt lat="41.836782" lon="-2.032715">
        <ele>974.4</ele>
        <time>2023-02-11T10:32:09.000Z</time>
      </trkpt>
      <trkpt lat="41.836734" lon="-2.032596">
        <ele>974.4</ele>
        <time>2023-02-11T10:32:10.000Z</time>
      </trkpt>
      <trkpt lat="41.836686" lon="-2.032474">
        <ele>974.4</ele>
        <time>2023-02-11T10:32:11.000Z</time>
      </trkpt>
      <trkpt lat="41.836637" lon="-2.032351">
        <ele>974.4</ele>
        <time>2023-02-11T10:32:12.000Z</time>
      </trkpt>
      <trkpt lat="41.836589" lon="-2.032228">
        <ele>974.4</ele>
        <time>2023-02-11T10:32:13.000Z</time>
      </trkpt>
      <trkpt lat="41.836539" lon="-2.03211">
        <ele>974.4</ele>
        <time>2023-02-11T10:32:14.000Z</time>
      </trkpt>
      <trkpt lat="41.836489" lon="-2.031991">
        <ele>974.4</ele>
        <time>2023-02-11T10:32:15.000Z</time>
      </trkpt>
      <trkpt lat="41.83644" lon="-2.031873">
        <ele>974.2</ele>
        <time>2023-02-11T10:32:16.000Z</time>
      </trkpt>
      <trkpt lat="41.836392" lon="-2.031754">
        <ele>974.2</ele>
        <time>2023-02-11T10:32:17.000Z</time>
      </trkpt>
      <trkpt lat="41.836343" lon="-2.031635">
        <ele>974</ele>
        <time>2023-02-11T10:32:18.000Z</time>
      </trkpt>
      <trkpt lat="41.836293" lon="-2.031514">
        <ele>974</ele>
        <time>2023-02-11T10:32:19.000Z</time>
      </trkpt>
      <trkpt lat="41.836243" lon="-2.031396">
        <ele>974</ele>
        <time>2023-02-11T10:32:20.000Z</time>
      </trkpt>
      <trkpt lat="41.836192" lon="-2.031279">
        <ele>974</ele>
        <time>2023-02-11T10:32:21.000Z</time>
      </trkpt>
      <trkpt lat="41.836145" lon="-2.031159">
        <ele>974</ele>
        <time>2023-02-11T10:32:22.000Z</time>
      </trkpt>
      <trkpt lat="41.836098" lon="-2.031039">
        <ele>973.8</ele>
        <time>2023-02-11T10:32:23.000Z</time>
      </trkpt>
      <trkpt lat="41.836048" lon="-2.03092">
        <ele>973.8</ele>
        <time>2023-02-11T10:32:24.000Z</time>
      </trkpt>
      <trkpt lat="41.835998" lon="-2.030802">
        <ele>973.8</ele>
        <time>2023-02-11T10:32:25.000Z</time>
      </trkpt>
      <trkpt lat="41.835949" lon="-2.030683">
        <ele>973.8</ele>
        <time>2023-02-11T10:32:26.000Z</time>
      </trkpt>
      <trkpt lat="41.835901" lon="-2.030567">
        <ele>973.8</ele>
        <time>2023-02-11T10:32:27.000Z</time>
      </trkpt>
      <trkpt lat="41.835851" lon="-2.030447">
        <ele>973.8</ele>
        <time>2023-02-11T10:32:28.000Z</time>
      </trkpt>
      <trkpt lat="41.835801" lon="-2.030328">
        <ele>973.6</ele>
        <time>2023-02-11T10:32:29.000Z</time>
      </trkpt>
      <trkpt lat="41.835753" lon="-2.03021">
        <ele>973.6</ele>
        <time>2023-02-11T10:32:30.000Z</time>
      </trkpt>
      <trkpt lat="41.835703" lon="-2.03009">
        <ele>973.6</ele>
        <time>2023-02-11T10:32:31.000Z</time>
      </trkpt>
      <trkpt lat="41.835654" lon="-2.029972">
        <ele>973.6</ele>
        <time>2023-02-11T10:32:32.000Z</time>
      </trkpt>
      <trkpt lat="41.835606" lon="-2.029855">
        <ele>973.4</ele>
        <time>2023-02-11T10:32:33.000Z</time>
      </trkpt>
      <trkpt lat="41.835559" lon="-2.029739">
        <ele>973.4</ele>
        <time>2023-02-11T10:32:34.000Z</time>
      </trkpt>
      <trkpt lat="41.83551" lon="-2.029625">
        <ele>973.4</ele>
        <time>2023-02-11T10:32:35.000Z</time>
      </trkpt>
      <trkpt lat="41.835463" lon="-2.02951">
        <ele>973.2</ele>
        <time>2023-02-11T10:32:36.000Z</time>
      </trkpt>
      <trkpt lat="41.835415" lon="-2.029396">
        <ele>973.2</ele>
        <time>2023-02-11T10:32:37.000Z</time>
      </trkpt>
      <trkpt lat="41.835367" lon="-2.029282">
        <ele>973</ele>
        <time>2023-02-11T10:32:38.000Z</time>
      </trkpt>
      <trkpt lat="41.835322" lon="-2.029169">
        <ele>973</ele>
        <time>2023-02-11T10:32:39.000Z</time>
      </trkpt>
      <trkpt lat="41.835275" lon="-2.029054">
        <ele>973</ele>
        <time>2023-02-11T10:32:40.000Z</time>
      </trkpt>
      <trkpt lat="41.835229" lon="-2.028939">
        <ele>972.8</ele>
        <time>2023-02-11T10:32:41.000Z</time>
      </trkpt>
      <trkpt lat="41.83518" lon="-2.028824">
        <ele>972.6</ele>
        <time>2023-02-11T10:32:42.000Z</time>
      </trkpt>
      <trkpt lat="41.835133" lon="-2.028709">
        <ele>972.4</ele>
        <time>2023-02-11T10:32:43.000Z</time>
      </trkpt>
      <trkpt lat="41.835086" lon="-2.028593">
        <ele>972.4</ele>
        <time>2023-02-11T10:32:44.000Z</time>
      </trkpt>
      <trkpt lat="41.835039" lon="-2.028475">
        <ele>972.2</ele>
        <time>2023-02-11T10:32:45.000Z</time>
      </trkpt>
      <trkpt lat="41.834991" lon="-2.028359">
        <ele>972</ele>
        <time>2023-02-11T10:32:46.000Z</time>
      </trkpt>
      <trkpt lat="41.834943" lon="-2.028243">
        <ele>972</ele>
        <time>2023-02-11T10:32:47.000Z</time>
      </trkpt>
      <trkpt lat="41.834896" lon="-2.028128">
        <ele>971.8</ele>
        <time>2023-02-11T10:32:48.000Z</time>
      </trkpt>
      <trkpt lat="41.834849" lon="-2.028015">
        <ele>971.8</ele>
        <time>2023-02-11T10:32:49.000Z</time>
      </trkpt>
      <trkpt lat="41.834801" lon="-2.027905">
        <ele>971.6</ele>
        <time>2023-02-11T10:32:50.000Z</time>
      </trkpt>
      <trkpt lat="41.834754" lon="-2.027792">
        <ele>971.6</ele>
        <time>2023-02-11T10:32:51.000Z</time>
      </trkpt>
      <trkpt lat="41.834711" lon="-2.027677">
        <ele>971.6</ele>
        <time>2023-02-11T10:32:52.000Z</time>
      </trkpt>
      <trkpt lat="41.834663" lon="-2.027564">
        <ele>971.6</ele>
        <time>2023-02-11T10:32:53.000Z</time>
      </trkpt>
      <trkpt lat="41.834615" lon="-2.02745">
        <ele>971.4</ele>
        <time>2023-02-11T10:32:54.000Z</time>
      </trkpt>
      <trkpt lat="41.834567" lon="-2.027338">
        <ele>971.4</ele>
        <time>2023-02-11T10:32:55.000Z</time>
      </trkpt>
      <trkpt lat="41.834519" lon="-2.027227">
        <ele>971.4</ele>
        <time>2023-02-11T10:32:56.000Z</time>
      </trkpt>
      <trkpt lat="41.834471" lon="-2.027116">
        <ele>971.4</ele>
        <time>2023-02-11T10:32:57.000Z</time>
      </trkpt>
      <trkpt lat="41.834423" lon="-2.027004">
        <ele>971.4</ele>
        <time>2023-02-11T10:32:58.000Z</time>
      </trkpt>
      <trkpt lat="41.834375" lon="-2.026892">
        <ele>971.4</ele>
        <time>2023-02-11T10:32:59.000Z</time>
      </trkpt>
      <trkpt lat="41.834329" lon="-2.026779">
        <ele>971.6</ele>
        <time>2023-02-11T10:33:00.000Z</time>
      </trkpt>
      <trkpt lat="41.834284" lon="-2.026665">
        <ele>971.6</ele>
        <time>2023-02-11T10:33:01.000Z</time>
      </trkpt>
      <trkpt lat="41.834239" lon="-2.026551">
        <ele>971.6</ele>
        <time>2023-02-11T10:33:02.000Z</time>
      </trkpt>
      <trkpt lat="41.834195" lon="-2.026437">
        <ele>972</ele>
        <time>2023-02-11T10:33:03.000Z</time>
      </trkpt>
      <trkpt lat="41.834151" lon="-2.026323">
        <ele>972</ele>
        <time>2023-02-11T10:33:04.000Z</time>
      </trkpt>
      <trkpt lat="41.834107" lon="-2.026209">
        <ele>972.2</ele>
        <time>2023-02-11T10:33:05.000Z</time>
      </trkpt>
      <trkpt lat="41.834064" lon="-2.026094">
        <ele>972.2</ele>
        <time>2023-02-11T10:33:06.000Z</time>
      </trkpt>
      <trkpt lat="41.834021" lon="-2.025982">
        <ele>972.2</ele>
        <time>2023-02-11T10:33:07.000Z</time>
      </trkpt>
      <trkpt lat="41.833977" lon="-2.025873">
        <ele>972.2</ele>
        <time>2023-02-11T10:33:08.000Z</time>
      </trkpt>
      <trkpt lat="41.833934" lon="-2.025766">
        <ele>972.2</ele>
        <time>2023-02-11T10:33:09.000Z</time>
      </trkpt>
      <trkpt lat="41.83389" lon="-2.025665">
        <ele>972.2</ele>
        <time>2023-02-11T10:33:10.000Z</time>
      </trkpt>
      <trkpt lat="41.833847" lon="-2.025564">
        <ele>972.2</ele>
        <time>2023-02-11T10:33:11.000Z</time>
      </trkpt>
      <trkpt lat="41.833805" lon="-2.025464">
        <ele>972.2</ele>
        <time>2023-02-11T10:33:12.000Z</time>
      </trkpt>
      <trkpt lat="41.833763" lon="-2.025364">
        <ele>972.2</ele>
        <time>2023-02-11T10:33:13.000Z</time>
      </trkpt>
      <trkpt lat="41.833722" lon="-2.025263">
        <ele>972.2</ele>
        <time>2023-02-11T10:33:14.000Z</time>
      </trkpt>
      <trkpt lat="41.833682" lon="-2.025165">
        <ele>972.2</ele>
        <time>2023-02-11T10:33:15.000Z</time>
      </trkpt>
      <trkpt lat="41.83364" lon="-2.025065">
        <ele>972.2</ele>
        <time>2023-02-11T10:33:16.000Z</time>
      </trkpt>
      <trkpt lat="41.833596" lon="-2.024965">
        <ele>972</ele>
        <time>2023-02-11T10:33:17.000Z</time>
      </trkpt>
      <trkpt lat="41.833552" lon="-2.024863">
        <ele>972</ele>
        <time>2023-02-11T10:33:18.000Z</time>
      </trkpt>
      <trkpt lat="41.833509" lon="-2.02476">
        <ele>972</ele>
        <time>2023-02-11T10:33:19.000Z</time>
      </trkpt>
      <trkpt lat="41.833466" lon="-2.024658">
        <ele>972</ele>
        <time>2023-02-11T10:33:20.000Z</time>
      </trkpt>
      <trkpt lat="41.833423" lon="-2.024556">
        <ele>972</ele>
        <time>2023-02-11T10:33:21.000Z</time>
      </trkpt>
      <trkpt lat="41.833381" lon="-2.024455">
        <ele>972</ele>
        <time>2023-02-11T10:33:22.000Z</time>
      </trkpt>
      <trkpt lat="41.833337" lon="-2.024352">
        <ele>972</ele>
        <time>2023-02-11T10:33:23.000Z</time>
      </trkpt>
      <trkpt lat="41.833293" lon="-2.02425">
        <ele>972</ele>
        <time>2023-02-11T10:33:24.000Z</time>
      </trkpt>
      <trkpt lat="41.83325" lon="-2.024145">
        <ele>972</ele>
        <time>2023-02-11T10:33:25.000Z</time>
      </trkpt>
      <trkpt lat="41.833208" lon="-2.024041">
        <ele>972</ele>
        <time>2023-02-11T10:33:26.000Z</time>
      </trkpt>
      <trkpt lat="41.833165" lon="-2.023937">
        <ele>972</ele>
        <time>2023-02-11T10:33:27.000Z</time>
      </trkpt>
      <trkpt lat="41.83312" lon="-2.023831">
        <ele>972</ele>
        <time>2023-02-11T10:33:28.000Z</time>
      </trkpt>
      <trkpt lat="41.833075" lon="-2.023726">
        <ele>971.8</ele>
        <time>2023-02-11T10:33:29.000Z</time>
      </trkpt>
      <trkpt lat="41.833029" lon="-2.02362">
        <ele>971.8</ele>
        <time>2023-02-11T10:33:30.000Z</time>
      </trkpt>
      <trkpt lat="41.832984" lon="-2.023514">
        <ele>971.8</ele>
        <time>2023-02-11T10:33:31.000Z</time>
      </trkpt>
      <trkpt lat="41.83294" lon="-2.023408">
        <ele>971.8</ele>
        <time>2023-02-11T10:33:32.000Z</time>
      </trkpt>
      <trkpt lat="41.832897" lon="-2.0233">
        <ele>971.8</ele>
        <time>2023-02-11T10:33:33.000Z</time>
      </trkpt>
      <trkpt lat="41.832855" lon="-2.023193">
        <ele>971.8</ele>
        <time>2023-02-11T10:33:34.000Z</time>
      </trkpt>
      <trkpt lat="41.83281" lon="-2.023085">
        <ele>971.8</ele>
        <time>2023-02-11T10:33:35.000Z</time>
      </trkpt>
      <trkpt lat="41.832765" lon="-2.022978">
        <ele>971.6</ele>
        <time>2023-02-11T10:33:36.000Z</time>
      </trkpt>
      <trkpt lat="41.83272" lon="-2.022873">
        <ele>971.6</ele>
        <time>2023-02-11T10:33:37.000Z</time>
      </trkpt>
      <trkpt lat="41.832676" lon="-2.022765">
        <ele>971.6</ele>
        <time>2023-02-11T10:33:38.000Z</time>
      </trkpt>
      <trkpt lat="41.832635" lon="-2.022659">
        <ele>971.6</ele>
        <time>2023-02-11T10:33:39.000Z</time>
      </trkpt>
      <trkpt lat="41.832593" lon="-2.022554">
        <ele>971.6</ele>
        <time>2023-02-11T10:33:40.000Z</time>
      </trkpt>
      <trkpt lat="41.832551" lon="-2.022449">
        <ele>971.6</ele>
        <time>2023-02-11T10:33:41.000Z</time>
      </trkpt>
      <trkpt lat="41.832509" lon="-2.022344">
        <ele>971.6</ele>
        <time>2023-02-11T10:33:42.000Z</time>
      </trkpt>
      <trkpt lat="41.832467" lon="-2.022239">
        <ele>971.6</ele>
        <time>2023-02-11T10:33:43.000Z</time>
      </trkpt>
      <trkpt lat="41.832426" lon="-2.022135">
        <ele>971.6</ele>
        <time>2023-02-11T10:33:44.000Z</time>
      </trkpt>
      <trkpt lat="41.832386" lon="-2.02203">
        <ele>971.6</ele>
        <time>2023-02-11T10:33:45.000Z</time>
      </trkpt>
      <trkpt lat="41.832344" lon="-2.021925">
        <ele>971.6</ele>
        <time>2023-02-11T10:33:46.000Z</time>
      </trkpt>
      <trkpt lat="41.832303" lon="-2.021818">
        <ele>971.8</ele>
        <time>2023-02-11T10:33:47.000Z</time>
      </trkpt>
      <trkpt lat="41.832259" lon="-2.021716">
        <ele>971.8</ele>
        <time>2023-02-11T10:33:48.000Z</time>
      </trkpt>
      <trkpt lat="41.832213" lon="-2.021612">
        <ele>972</ele>
        <time>2023-02-11T10:33:49.000Z</time>
      </trkpt>
      <trkpt lat="41.83217" lon="-2.021506">
        <ele>972</ele>
        <time>2023-02-11T10:33:50.000Z</time>
      </trkpt>
      <trkpt lat="41.832127" lon="-2.021401">
        <ele>972.2</ele>
        <time>2023-02-11T10:33:51.000Z</time>
      </trkpt>
      <trkpt lat="41.832084" lon="-2.021297">
        <ele>972.4</ele>
        <time>2023-02-11T10:33:52.000Z</time>
      </trkpt>
      <trkpt lat="41.832043" lon="-2.021193">
        <ele>972.4</ele>
        <time>2023-02-11T10:33:53.000Z</time>
      </trkpt>
      <trkpt lat="41.832001" lon="-2.02109">
        <ele>972.6</ele>
        <time>2023-02-11T10:33:54.000Z</time>
      </trkpt>
      <trkpt lat="41.831957" lon="-2.02099">
        <ele>972.6</ele>
        <time>2023-02-11T10:33:55.000Z</time>
      </trkpt>
      <trkpt lat="41.831915" lon="-2.020891">
        <ele>972.8</ele>
        <time>2023-02-11T10:33:56.000Z</time>
      </trkpt>
      <trkpt lat="41.831873" lon="-2.02079">
        <ele>972.8</ele>
        <time>2023-02-11T10:33:57.000Z</time>
      </trkpt>
      <trkpt lat="41.831829" lon="-2.02069">
        <ele>973</ele>
        <time>2023-02-11T10:33:58.000Z</time>
      </trkpt>
      <trkpt lat="41.831786" lon="-2.020592">
        <ele>973</ele>
        <time>2023-02-11T10:33:59.000Z</time>
      </trkpt>
      <trkpt lat="41.831744" lon="-2.020497">
        <ele>973</ele>
        <time>2023-02-11T10:34:00.000Z</time>
      </trkpt>
      <trkpt lat="41.831703" lon="-2.0204">
        <ele>973.2</ele>
        <time>2023-02-11T10:34:01.000Z</time>
      </trkpt>
      <trkpt lat="41.831662" lon="-2.020302">
        <ele>973.2</ele>
        <time>2023-02-11T10:34:02.000Z</time>
      </trkpt>
      <trkpt lat="41.831622" lon="-2.020206">
        <ele>973.4</ele>
        <time>2023-02-11T10:34:03.000Z</time>
      </trkpt>
      <trkpt lat="41.831583" lon="-2.02011">
        <ele>973.6</ele>
        <time>2023-02-11T10:34:04.000Z</time>
      </trkpt>
      <trkpt lat="41.831544" lon="-2.020013">
        <ele>973.8</ele>
        <time>2023-02-11T10:34:05.000Z</time>
      </trkpt>
      <trkpt lat="41.831505" lon="-2.019917">
        <ele>973.8</ele>
        <time>2023-02-11T10:34:06.000Z</time>
      </trkpt>
      <trkpt lat="41.831465" lon="-2.019821">
        <ele>974</ele>
        <time>2023-02-11T10:34:07.000Z</time>
      </trkpt>
      <trkpt lat="41.831429" lon="-2.019725">
        <ele>974</ele>
        <time>2023-02-11T10:34:08.000Z</time>
      </trkpt>
      <trkpt lat="41.831391" lon="-2.019629">
        <ele>974.2</ele>
        <time>2023-02-11T10:34:09.000Z</time>
      </trkpt>
      <trkpt lat="41.831351" lon="-2.019533">
        <ele>974.2</ele>
        <time>2023-02-11T10:34:10.000Z</time>
      </trkpt>
      <trkpt lat="41.831313" lon="-2.019437">
        <ele>974.4</ele>
        <time>2023-02-11T10:34:11.000Z</time>
      </trkpt>
      <trkpt lat="41.831273" lon="-2.019342">
        <ele>974.6</ele>
        <time>2023-02-11T10:34:12.000Z</time>
      </trkpt>
      <trkpt lat="41.831232" lon="-2.019247">
        <ele>974.8</ele>
        <time>2023-02-11T10:34:13.000Z</time>
      </trkpt>
      <trkpt lat="41.831193" lon="-2.019153">
        <ele>974.8</ele>
        <time>2023-02-11T10:34:14.000Z</time>
      </trkpt>
      <trkpt lat="41.831155" lon="-2.01906">
        <ele>974.8</ele>
        <time>2023-02-11T10:34:15.000Z</time>
      </trkpt>
      <trkpt lat="41.831116" lon="-2.018966">
        <ele>975</ele>
        <time>2023-02-11T10:34:16.000Z</time>
      </trkpt>
      <trkpt lat="41.831078" lon="-2.018872">
        <ele>975</ele>
        <time>2023-02-11T10:34:17.000Z</time>
      </trkpt>
      <trkpt lat="41.831041" lon="-2.018778">
        <ele>975.2</ele>
        <time>2023-02-11T10:34:18.000Z</time>
      </trkpt>
      <trkpt lat="41.831002" lon="-2.018685">
        <ele>975.4</ele>
        <time>2023-02-11T10:34:19.000Z</time>
      </trkpt>
      <trkpt lat="41.830962" lon="-2.018594">
        <ele>975.6</ele>
        <time>2023-02-11T10:34:20.000Z</time>
      </trkpt>
      <trkpt lat="41.830924" lon="-2.018504">
        <ele>975.6</ele>
        <time>2023-02-11T10:34:21.000Z</time>
      </trkpt>
      <trkpt lat="41.830887" lon="-2.018412">
        <ele>975.6</ele>
        <time>2023-02-11T10:34:22.000Z</time>
      </trkpt>
      <trkpt lat="41.83085" lon="-2.018322">
        <ele>975.8</ele>
        <time>2023-02-11T10:34:23.000Z</time>
      </trkpt>
      <trkpt lat="41.830813" lon="-2.018233">
        <ele>975.8</ele>
        <time>2023-02-11T10:34:24.000Z</time>
      </trkpt>
      <trkpt lat="41.830776" lon="-2.018145">
        <ele>975.8</ele>
        <time>2023-02-11T10:34:25.000Z</time>
      </trkpt>
      <trkpt lat="41.830739" lon="-2.018058">
        <ele>976</ele>
        <time>2023-02-11T10:34:26.000Z</time>
      </trkpt>
      <trkpt lat="41.830702" lon="-2.017971">
        <ele>976</ele>
        <time>2023-02-11T10:34:27.000Z</time>
      </trkpt>
      <trkpt lat="41.830665" lon="-2.017885">
        <ele>976.2</ele>
        <time>2023-02-11T10:34:28.000Z</time>
      </trkpt>
      <trkpt lat="41.830629" lon="-2.017798">
        <ele>976.4</ele>
        <time>2023-02-11T10:34:29.000Z</time>
      </trkpt>
      <trkpt lat="41.830594" lon="-2.01771">
        <ele>976.4</ele>
        <time>2023-02-11T10:34:30.000Z</time>
      </trkpt>
      <trkpt lat="41.830559" lon="-2.017624">
        <ele>976.6</ele>
        <time>2023-02-11T10:34:31.000Z</time>
      </trkpt>
      <trkpt lat="41.830523" lon="-2.017537">
        <ele>977</ele>
        <time>2023-02-11T10:34:32.000Z</time>
      </trkpt>
      <trkpt lat="41.830486" lon="-2.017452">
        <ele>977.2</ele>
        <time>2023-02-11T10:34:33.000Z</time>
      </trkpt>
      <trkpt lat="41.830449" lon="-2.017365">
        <ele>977.4</ele>
        <time>2023-02-11T10:34:34.000Z</time>
      </trkpt>
      <trkpt lat="41.830413" lon="-2.017277">
        <ele>977.4</ele>
        <time>2023-02-11T10:34:35.000Z</time>
      </trkpt>
      <trkpt lat="41.830378" lon="-2.017189">
        <ele>977.6</ele>
        <time>2023-02-11T10:34:36.000Z</time>
      </trkpt>
      <trkpt lat="41.830344" lon="-2.017102">
        <ele>977.6</ele>
        <time>2023-02-11T10:34:37.000Z</time>
      </trkpt>
      <trkpt lat="41.830308" lon="-2.017015">
        <ele>977.6</ele>
        <time>2023-02-11T10:34:38.000Z</time>
      </trkpt>
      <trkpt lat="41.830272" lon="-2.016926">
        <ele>977.8</ele>
        <time>2023-02-11T10:34:39.000Z</time>
      </trkpt>
      <trkpt lat="41.830236" lon="-2.01684">
        <ele>978</ele>
        <time>2023-02-11T10:34:40.000Z</time>
      </trkpt>
      <trkpt lat="41.830197" lon="-2.016752">
        <ele>978</ele>
        <time>2023-02-11T10:34:41.000Z</time>
      </trkpt>
      <trkpt lat="41.830159" lon="-2.016665">
        <ele>978.2</ele>
        <time>2023-02-11T10:34:42.000Z</time>
      </trkpt>
      <trkpt lat="41.830121" lon="-2.016577">
        <ele>978.2</ele>
        <time>2023-02-11T10:34:43.000Z</time>
      </trkpt>
      <trkpt lat="41.830084" lon="-2.01649">
        <ele>978.4</ele>
        <time>2023-02-11T10:34:44.000Z</time>
      </trkpt>
      <trkpt lat="41.830049" lon="-2.016401">
        <ele>978.4</ele>
        <time>2023-02-11T10:34:45.000Z</time>
      </trkpt>
      <trkpt lat="41.830013" lon="-2.016313">
        <ele>978.6</ele>
        <time>2023-02-11T10:34:46.000Z</time>
      </trkpt>
      <trkpt lat="41.829975" lon="-2.016226">
        <ele>978.6</ele>
        <time>2023-02-11T10:34:47.000Z</time>
      </trkpt>
      <trkpt lat="41.829939" lon="-2.016139">
        <ele>978.8</ele>
        <time>2023-02-11T10:34:48.000Z</time>
      </trkpt>
      <trkpt lat="41.829903" lon="-2.016051">
        <ele>978.8</ele>
        <time>2023-02-11T10:34:49.000Z</time>
      </trkpt>
      <trkpt lat="41.829867" lon="-2.015963">
        <ele>978.8</ele>
        <time>2023-02-11T10:34:50.000Z</time>
      </trkpt>
      <trkpt lat="41.829831" lon="-2.015875">
        <ele>979</ele>
        <time>2023-02-11T10:34:51.000Z</time>
      </trkpt>
      <trkpt lat="41.829795" lon="-2.015788">
        <ele>979</ele>
        <time>2023-02-11T10:34:52.000Z</time>
      </trkpt>
      <trkpt lat="41.829759" lon="-2.015701">
        <ele>979.2</ele>
        <time>2023-02-11T10:34:53.000Z</time>
      </trkpt>
      <trkpt lat="41.829724" lon="-2.015612">
        <ele>979.4</ele>
        <time>2023-02-11T10:34:54.000Z</time>
      </trkpt>
      <trkpt lat="41.829688" lon="-2.015523">
        <ele>979.4</ele>
        <time>2023-02-11T10:34:55.000Z</time>
      </trkpt>
      <trkpt lat="41.82965" lon="-2.015436">
        <ele>979.6</ele>
        <time>2023-02-11T10:34:56.000Z</time>
      </trkpt>
      <trkpt lat="41.829614" lon="-2.015348">
        <ele>979.6</ele>
        <time>2023-02-11T10:34:57.000Z</time>
      </trkpt>
      <trkpt lat="41.829577" lon="-2.015261">
        <ele>979.8</ele>
        <time>2023-02-11T10:34:58.000Z</time>
      </trkpt>
      <trkpt lat="41.82954" lon="-2.01517">
        <ele>979.8</ele>
        <time>2023-02-11T10:34:59.000Z</time>
      </trkpt>
      <trkpt lat="41.829504" lon="-2.015081">
        <ele>980</ele>
        <time>2023-02-11T10:35:00.000Z</time>
      </trkpt>
      <trkpt lat="41.829467" lon="-2.014991">
        <ele>980.2</ele>
        <time>2023-02-11T10:35:01.000Z</time>
      </trkpt>
      <trkpt lat="41.829431" lon="-2.014901">
        <ele>980.2</ele>
        <time>2023-02-11T10:35:02.000Z</time>
      </trkpt>
      <trkpt lat="41.829393" lon="-2.014812">
        <ele>980.6</ele>
        <time>2023-02-11T10:35:03.000Z</time>
      </trkpt>
      <trkpt lat="41.829356" lon="-2.014723">
        <ele>980.6</ele>
        <time>2023-02-11T10:35:04.000Z</time>
      </trkpt>
      <trkpt lat="41.82932" lon="-2.014634">
        <ele>981</ele>
        <time>2023-02-11T10:35:05.000Z</time>
      </trkpt>
      <trkpt lat="41.829285" lon="-2.014547">
        <ele>981.2</ele>
        <time>2023-02-11T10:35:06.000Z</time>
      </trkpt>
      <trkpt lat="41.829249" lon="-2.01446">
        <ele>981.4</ele>
        <time>2023-02-11T10:35:07.000Z</time>
      </trkpt>
      <trkpt lat="41.829213" lon="-2.014371">
        <ele>981.6</ele>
        <time>2023-02-11T10:35:08.000Z</time>
      </trkpt>
      <trkpt lat="41.829176" lon="-2.014283">
        <ele>981.6</ele>
        <time>2023-02-11T10:35:09.000Z</time>
      </trkpt>
      <trkpt lat="41.829142" lon="-2.014199">
        <ele>981.8</ele>
        <time>2023-02-11T10:35:10.000Z</time>
      </trkpt>
      <trkpt lat="41.829108" lon="-2.014114">
        <ele>982</ele>
        <time>2023-02-11T10:35:11.000Z</time>
      </trkpt>
      <trkpt lat="41.829074" lon="-2.01403">
        <ele>982.4</ele>
        <time>2023-02-11T10:35:12.000Z</time>
      </trkpt>
      <trkpt lat="41.829037" lon="-2.013949">
        <ele>982.4</ele>
        <time>2023-02-11T10:35:13.000Z</time>
      </trkpt>
      <trkpt lat="41.829002" lon="-2.013869">
        <ele>982.8</ele>
        <time>2023-02-11T10:35:14.000Z</time>
      </trkpt>
      <trkpt lat="41.828969" lon="-2.013789">
        <ele>983</ele>
        <time>2023-02-11T10:35:15.000Z</time>
      </trkpt>
      <trkpt lat="41.828935" lon="-2.01371">
        <ele>983.2</ele>
        <time>2023-02-11T10:35:16.000Z</time>
      </trkpt>
      <trkpt lat="41.828902" lon="-2.013632">
        <ele>983.4</ele>
        <time>2023-02-11T10:35:17.000Z</time>
      </trkpt>
      <trkpt lat="41.828872" lon="-2.013554">
        <ele>983.6</ele>
        <time>2023-02-11T10:35:18.000Z</time>
      </trkpt>
      <trkpt lat="41.82884" lon="-2.013476">
        <ele>984.2</ele>
        <time>2023-02-11T10:35:19.000Z</time>
      </trkpt>
      <trkpt lat="41.828805" lon="-2.013399">
        <ele>984.6</ele>
        <time>2023-02-11T10:35:20.000Z</time>
      </trkpt>
      <trkpt lat="41.828774" lon="-2.013324">
        <ele>985</ele>
        <time>2023-02-11T10:35:21.000Z</time>
      </trkpt>
      <trkpt lat="41.828744" lon="-2.013249">
        <ele>985.2</ele>
        <time>2023-02-11T10:35:22.000Z</time>
      </trkpt>
      <trkpt lat="41.828713" lon="-2.013175">
        <ele>986</ele>
        <time>2023-02-11T10:35:23.000Z</time>
      </trkpt>
      <trkpt lat="41.828681" lon="-2.013103">
        <ele>986.2</ele>
        <time>2023-02-11T10:35:24.000Z</time>
      </trkpt>
      <trkpt lat="41.828651" lon="-2.013028">
        <ele>986.6</ele>
        <time>2023-02-11T10:35:25.000Z</time>
      </trkpt>
      <trkpt lat="41.828621" lon="-2.012954">
        <ele>987.2</ele>
        <time>2023-02-11T10:35:26.000Z</time>
      </trkpt>
      <trkpt lat="41.82859" lon="-2.01288">
        <ele>987.4</ele>
        <time>2023-02-11T10:35:27.000Z</time>
      </trkpt>
      <trkpt lat="41.828559" lon="-2.012807">
        <ele>987.8</ele>
        <time>2023-02-11T10:35:28.000Z</time>
      </trkpt>
      <trkpt lat="41.828528" lon="-2.012733">
        <ele>988.2</ele>
        <time>2023-02-11T10:35:29.000Z</time>
      </trkpt>
      <trkpt lat="41.828502" lon="-2.012658">
        <ele>988.6</ele>
        <time>2023-02-11T10:35:30.000Z</time>
      </trkpt>
      <trkpt lat="41.828473" lon="-2.012581">
        <ele>988.8</ele>
        <time>2023-02-11T10:35:31.000Z</time>
      </trkpt>
      <trkpt lat="41.828441" lon="-2.012504">
        <ele>989.2</ele>
        <time>2023-02-11T10:35:32.000Z</time>
      </trkpt>
      <trkpt lat="41.828409" lon="-2.012428">
        <ele>989.4</ele>
        <time>2023-02-11T10:35:33.000Z</time>
      </trkpt>
      <trkpt lat="41.828378" lon="-2.012352">
        <ele>989.8</ele>
        <time>2023-02-11T10:35:34.000Z</time>
      </trkpt>
      <trkpt lat="41.828347" lon="-2.012275">
        <ele>990.2</ele>
        <time>2023-02-11T10:35:35.000Z</time>
      </trkpt>
      <trkpt lat="41.828314" lon="-2.012199">
        <ele>990.6</ele>
        <time>2023-02-11T10:35:36.000Z</time>
      </trkpt>
      <trkpt lat="41.828282" lon="-2.012124">
        <ele>991</ele>
        <time>2023-02-11T10:35:37.000Z</time>
      </trkpt>
      <trkpt lat="41.828253" lon="-2.012049">
        <ele>991.2</ele>
        <time>2023-02-11T10:35:38.000Z</time>
      </trkpt>
      <trkpt lat="41.828224" lon="-2.011975">
        <ele>991.6</ele>
        <time>2023-02-11T10:35:39.000Z</time>
      </trkpt>
      <trkpt lat="41.828192" lon="-2.011901">
        <ele>991.8</ele>
        <time>2023-02-11T10:35:40.000Z</time>
      </trkpt>
      <trkpt lat="41.828161" lon="-2.011828">
        <ele>992.2</ele>
        <time>2023-02-11T10:35:41.000Z</time>
      </trkpt>
      <trkpt lat="41.828133" lon="-2.011753">
        <ele>992.2</ele>
        <time>2023-02-11T10:35:42.000Z</time>
      </trkpt>
      <trkpt lat="41.828105" lon="-2.011677">
        <ele>992.8</ele>
        <time>2023-02-11T10:35:43.000Z</time>
      </trkpt>
      <trkpt lat="41.828073" lon="-2.011602">
        <ele>993</ele>
        <time>2023-02-11T10:35:44.000Z</time>
      </trkpt>
      <trkpt lat="41.82804" lon="-2.011527">
        <ele>993.4</ele>
        <time>2023-02-11T10:35:45.000Z</time>
      </trkpt>
      <trkpt lat="41.828011" lon="-2.011452">
        <ele>993.8</ele>
        <time>2023-02-11T10:35:46.000Z</time>
      </trkpt>
      <trkpt lat="41.827982" lon="-2.011377">
        <ele>994</ele>
        <time>2023-02-11T10:35:47.000Z</time>
      </trkpt>
      <trkpt lat="41.827949" lon="-2.011304">
        <ele>994.4</ele>
        <time>2023-02-11T10:35:48.000Z</time>
      </trkpt>
      <trkpt lat="41.827916" lon="-2.011229">
        <ele>994.6</ele>
        <time>2023-02-11T10:35:49.000Z</time>
      </trkpt>
      <trkpt lat="41.827887" lon="-2.011152">
        <ele>994.8</ele>
        <time>2023-02-11T10:35:50.000Z</time>
      </trkpt>
      <trkpt lat="41.827856" lon="-2.011075">
        <ele>995</ele>
        <time>2023-02-11T10:35:51.000Z</time>
      </trkpt>
      <trkpt lat="41.827822" lon="-2.011001">
        <ele>995.2</ele>
        <time>2023-02-11T10:35:52.000Z</time>
      </trkpt>
      <trkpt lat="41.827787" lon="-2.010927">
        <ele>995.4</ele>
        <time>2023-02-11T10:35:53.000Z</time>
      </trkpt>
      <trkpt lat="41.827753" lon="-2.01085">
        <ele>996.2</ele>
        <time>2023-02-11T10:35:54.000Z</time>
      </trkpt>
      <trkpt lat="41.827719" lon="-2.010771">
        <ele>996.6</ele>
        <time>2023-02-11T10:35:55.000Z</time>
      </trkpt>
      <trkpt lat="41.827685" lon="-2.010696">
        <ele>996.8</ele>
        <time>2023-02-11T10:35:56.000Z</time>
      </trkpt>
      <trkpt lat="41.827653" lon="-2.010621">
        <ele>997.2</ele>
        <time>2023-02-11T10:35:57.000Z</time>
      </trkpt>
      <trkpt lat="41.827624" lon="-2.010543">
        <ele>997.4</ele>
        <time>2023-02-11T10:35:58.000Z</time>
      </trkpt>
      <trkpt lat="41.827592" lon="-2.010465">
        <ele>997.8</ele>
        <time>2023-02-11T10:35:59.000Z</time>
      </trkpt>
      <trkpt lat="41.827559" lon="-2.010388">
        <ele>997.8</ele>
        <time>2023-02-11T10:36:00.000Z</time>
      </trkpt>
      <trkpt lat="41.827529" lon="-2.010309">
        <ele>998.2</ele>
        <time>2023-02-11T10:36:01.000Z</time>
      </trkpt>
      <trkpt lat="41.827497" lon="-2.010229">
        <ele>998.4</ele>
        <time>2023-02-11T10:36:02.000Z</time>
      </trkpt>
      <trkpt lat="41.827462" lon="-2.01015">
        <ele>998.8</ele>
        <time>2023-02-11T10:36:03.000Z</time>
      </trkpt>
      <trkpt lat="41.827429" lon="-2.010072">
        <ele>999.2</ele>
        <time>2023-02-11T10:36:04.000Z</time>
      </trkpt>
      <trkpt lat="41.827398" lon="-2.009994">
        <ele>999.4</ele>
        <time>2023-02-11T10:36:05.000Z</time>
      </trkpt>
      <trkpt lat="41.827366" lon="-2.009916">
        <ele>999.8</ele>
        <time>2023-02-11T10:36:06.000Z</time>
      </trkpt>
      <trkpt lat="41.827333" lon="-2.009836">
        <ele>1000</ele>
        <time>2023-02-11T10:36:07.000Z</time>
      </trkpt>
      <trkpt lat="41.827301" lon="-2.009757">
        <ele>1000.6</ele>
        <time>2023-02-11T10:36:08.000Z</time>
      </trkpt>
      <trkpt lat="41.827268" lon="-2.009679">
        <ele>1000.6</ele>
        <time>2023-02-11T10:36:09.000Z</time>
      </trkpt>
      <trkpt lat="41.827236" lon="-2.009602">
        <ele>1001</ele>
        <time>2023-02-11T10:36:10.000Z</time>
      </trkpt>
      <trkpt lat="41.827205" lon="-2.009528">
        <ele>1001</ele>
        <time>2023-02-11T10:36:11.000Z</time>
      </trkpt>
      <trkpt lat="41.827173" lon="-2.009453">
        <ele>1001.8</ele>
        <time>2023-02-11T10:36:12.000Z</time>
      </trkpt>
      <trkpt lat="41.827143" lon="-2.009379">
        <ele>1002</ele>
        <time>2023-02-11T10:36:13.000Z</time>
      </trkpt>
      <trkpt lat="41.827112" lon="-2.009308">
        <ele>1002.4</ele>
        <time>2023-02-11T10:36:14.000Z</time>
      </trkpt>
      <trkpt lat="41.827082" lon="-2.009238">
        <ele>1002.8</ele>
        <time>2023-02-11T10:36:15.000Z</time>
      </trkpt>
      <trkpt lat="41.827052" lon="-2.009168">
        <ele>1003</ele>
        <time>2023-02-11T10:36:16.000Z</time>
      </trkpt>
      <trkpt lat="41.827023" lon="-2.009096">
        <ele>1003.4</ele>
        <time>2023-02-11T10:36:17.000Z</time>
      </trkpt>
      <trkpt lat="41.826993" lon="-2.009021">
        <ele>1003.4</ele>
        <time>2023-02-11T10:36:18.000Z</time>
      </trkpt>
      <trkpt lat="41.826962" lon="-2.008943">
        <ele>1003.6</ele>
        <time>2023-02-11T10:36:19.000Z</time>
      </trkpt>
      <trkpt lat="41.82693" lon="-2.008864">
        <ele>1003.8</ele>
        <time>2023-02-11T10:36:20.000Z</time>
      </trkpt>
      <trkpt lat="41.826898" lon="-2.008783">
        <ele>1004</ele>
        <time>2023-02-11T10:36:21.000Z</time>
      </trkpt>
      <trkpt lat="41.826864" lon="-2.008701">
        <ele>1004.2</ele>
        <time>2023-02-11T10:36:22.000Z</time>
      </trkpt>
      <trkpt lat="41.82683" lon="-2.008618">
        <ele>1004.4</ele>
        <time>2023-02-11T10:36:23.000Z</time>
      </trkpt>
      <trkpt lat="41.826795" lon="-2.008532">
        <ele>1004.8</ele>
        <time>2023-02-11T10:36:24.000Z</time>
      </trkpt>
      <trkpt lat="41.826759" lon="-2.008444">
        <ele>1004.8</ele>
        <time>2023-02-11T10:36:25.000Z</time>
      </trkpt>
      <trkpt lat="41.826723" lon="-2.008356">
        <ele>1005</ele>
        <time>2023-02-11T10:36:26.000Z</time>
      </trkpt>
      <trkpt lat="41.826686" lon="-2.008266">
        <ele>1005.2</ele>
        <time>2023-02-11T10:36:27.000Z</time>
      </trkpt>
      <trkpt lat="41.826648" lon="-2.008175">
        <ele>1005.2</ele>
        <time>2023-02-11T10:36:28.000Z</time>
      </trkpt>
      <trkpt lat="41.826611" lon="-2.008086">
        <ele>1005.2</ele>
        <time>2023-02-11T10:36:29.000Z</time>
      </trkpt>
      <trkpt lat="41.826573" lon="-2.007996">
        <ele>1005.4</ele>
        <time>2023-02-11T10:36:30.000Z</time>
      </trkpt>
      <trkpt lat="41.826534" lon="-2.007904">
        <ele>1005.4</ele>
        <time>2023-02-11T10:36:31.000Z</time>
      </trkpt>
      <trkpt lat="41.826496" lon="-2.00781">
        <ele>1005.6</ele>
        <time>2023-02-11T10:36:32.000Z</time>
      </trkpt>
      <trkpt lat="41.826456" lon="-2.007717">
        <ele>1005.6</ele>
        <time>2023-02-11T10:36:33.000Z</time>
      </trkpt>
      <trkpt lat="41.826417" lon="-2.007623">
        <ele>1005.6</ele>
        <time>2023-02-11T10:36:34.000Z</time>
      </trkpt>
      <trkpt lat="41.826379" lon="-2.007528">
        <ele>1005.8</ele>
        <time>2023-02-11T10:36:35.000Z</time>
      </trkpt>
      <trkpt lat="41.82634" lon="-2.007433">
        <ele>1005.8</ele>
        <time>2023-02-11T10:36:36.000Z</time>
      </trkpt>
      <trkpt lat="41.8263" lon="-2.007337">
        <ele>1005.8</ele>
        <time>2023-02-11T10:36:37.000Z</time>
      </trkpt>
      <trkpt lat="41.826261" lon="-2.00724">
        <ele>1006</ele>
        <time>2023-02-11T10:36:38.000Z</time>
      </trkpt>
      <trkpt lat="41.826222" lon="-2.007141">
        <ele>1006.2</ele>
        <time>2023-02-11T10:36:39.000Z</time>
      </trkpt>
      <trkpt lat="41.82618" lon="-2.007043">
        <ele>1006.2</ele>
        <time>2023-02-11T10:36:40.000Z</time>
      </trkpt>
      <trkpt lat="41.82614" lon="-2.006946">
        <ele>1006.4</ele>
        <time>2023-02-11T10:36:41.000Z</time>
      </trkpt>
      <trkpt lat="41.826099" lon="-2.006845">
        <ele>1006.4</ele>
        <time>2023-02-11T10:36:42.000Z</time>
      </trkpt>
      <trkpt lat="41.826058" lon="-2.006742">
        <ele>1006.6</ele>
        <time>2023-02-11T10:36:43.000Z</time>
      </trkpt>
      <trkpt lat="41.826016" lon="-2.006639">
        <ele>1006.6</ele>
        <time>2023-02-11T10:36:44.000Z</time>
      </trkpt>
      <trkpt lat="41.825974" lon="-2.006536">
        <ele>1006.6</ele>
        <time>2023-02-11T10:36:45.000Z</time>
      </trkpt>
      <trkpt lat="41.825928" lon="-2.006434">
        <ele>1006.6</ele>
        <time>2023-02-11T10:36:46.000Z</time>
      </trkpt>
      <trkpt lat="41.825882" lon="-2.006333">
        <ele>1006.6</ele>
        <time>2023-02-11T10:36:47.000Z</time>
      </trkpt>
      <trkpt lat="41.825837" lon="-2.006233">
        <ele>1006.8</ele>
        <time>2023-02-11T10:36:48.000Z</time>
      </trkpt>
      <trkpt lat="41.825792" lon="-2.006132">
        <ele>1006.8</ele>
        <time>2023-02-11T10:36:49.000Z</time>
      </trkpt>
      <trkpt lat="41.825747" lon="-2.006031">
        <ele>1006.8</ele>
        <time>2023-02-11T10:36:50.000Z</time>
      </trkpt>
      <trkpt lat="41.825702" lon="-2.005931">
        <ele>1006.8</ele>
        <time>2023-02-11T10:36:51.000Z</time>
      </trkpt>
      <trkpt lat="41.825656" lon="-2.005831">
        <ele>1006.8</ele>
        <time>2023-02-11T10:36:52.000Z</time>
      </trkpt>
      <trkpt lat="41.825609" lon="-2.005733">
        <ele>1006.8</ele>
        <time>2023-02-11T10:36:53.000Z</time>
      </trkpt>
      <trkpt lat="41.825561" lon="-2.005635">
        <ele>1006.8</ele>
        <time>2023-02-11T10:36:54.000Z</time>
      </trkpt>
      <trkpt lat="41.825513" lon="-2.005536">
        <ele>1006.8</ele>
        <time>2023-02-11T10:36:55.000Z</time>
      </trkpt>
      <trkpt lat="41.825463" lon="-2.005441">
        <ele>1006.6</ele>
        <time>2023-02-11T10:36:56.000Z</time>
      </trkpt>
      <trkpt lat="41.825412" lon="-2.005346">
        <ele>1006.6</ele>
        <time>2023-02-11T10:36:57.000Z</time>
      </trkpt>
      <trkpt lat="41.825358" lon="-2.005252">
        <ele>1006.6</ele>
        <time>2023-02-11T10:36:58.000Z</time>
      </trkpt>
      <trkpt lat="41.825303" lon="-2.005157">
        <ele>1006.6</ele>
        <time>2023-02-11T10:36:59.000Z</time>
      </trkpt>
      <trkpt lat="41.825249" lon="-2.005062">
        <ele>1006.6</ele>
        <time>2023-02-11T10:37:00.000Z</time>
      </trkpt>
      <trkpt lat="41.825192" lon="-2.004965">
        <ele>1006.4</ele>
        <time>2023-02-11T10:37:01.000Z</time>
      </trkpt>
      <trkpt lat="41.825135" lon="-2.004868">
        <ele>1006.4</ele>
        <time>2023-02-11T10:37:02.000Z</time>
      </trkpt>
      <trkpt lat="41.825077" lon="-2.004773">
        <ele>1006.4</ele>
        <time>2023-02-11T10:37:03.000Z</time>
      </trkpt>
      <trkpt lat="41.82502" lon="-2.004677">
        <ele>1006.4</ele>
        <time>2023-02-11T10:37:04.000Z</time>
      </trkpt>
      <trkpt lat="41.824964" lon="-2.004582">
        <ele>1006.4</ele>
        <time>2023-02-11T10:37:05.000Z</time>
      </trkpt>
      <trkpt lat="41.824907" lon="-2.004489">
        <ele>1006.4</ele>
        <time>2023-02-11T10:37:06.000Z</time>
      </trkpt>
      <trkpt lat="41.824852" lon="-2.004396">
        <ele>1006.4</ele>
        <time>2023-02-11T10:37:07.000Z</time>
      </trkpt>
      <trkpt lat="41.824796" lon="-2.004304">
        <ele>1006.6</ele>
        <time>2023-02-11T10:37:08.000Z</time>
      </trkpt>
      <trkpt lat="41.824741" lon="-2.004212">
        <ele>1006.6</ele>
        <time>2023-02-11T10:37:09.000Z</time>
      </trkpt>
      <trkpt lat="41.824687" lon="-2.004121">
        <ele>1006.6</ele>
        <time>2023-02-11T10:37:10.000Z</time>
      </trkpt>
      <trkpt lat="41.824633" lon="-2.004029">
        <ele>1006.6</ele>
        <time>2023-02-11T10:37:11.000Z</time>
      </trkpt>
      <trkpt lat="41.824577" lon="-2.003937">
        <ele>1006.8</ele>
        <time>2023-02-11T10:37:12.000Z</time>
      </trkpt>
      <trkpt lat="41.824522" lon="-2.003844">
        <ele>1006.8</ele>
        <time>2023-02-11T10:37:13.000Z</time>
      </trkpt>
      <trkpt lat="41.824466" lon="-2.003749">
        <ele>1006.8</ele>
        <time>2023-02-11T10:37:14.000Z</time>
      </trkpt>
      <trkpt lat="41.824408" lon="-2.003653">
        <ele>1007</ele>
        <time>2023-02-11T10:37:15.000Z</time>
      </trkpt>
      <trkpt lat="41.824351" lon="-2.003562">
        <ele>1007</ele>
        <time>2023-02-11T10:37:16.000Z</time>
      </trkpt>
      <trkpt lat="41.824294" lon="-2.003469">
        <ele>1007</ele>
        <time>2023-02-11T10:37:17.000Z</time>
      </trkpt>
      <trkpt lat="41.824238" lon="-2.003378">
        <ele>1007</ele>
        <time>2023-02-11T10:37:18.000Z</time>
      </trkpt>
      <trkpt lat="41.824182" lon="-2.003284">
        <ele>1007</ele>
        <time>2023-02-11T10:37:19.000Z</time>
      </trkpt>
      <trkpt lat="41.824126" lon="-2.003192">
        <ele>1007</ele>
        <time>2023-02-11T10:37:20.000Z</time>
      </trkpt>
      <trkpt lat="41.824071" lon="-2.003099">
        <ele>1007</ele>
        <time>2023-02-11T10:37:21.000Z</time>
      </trkpt>
      <trkpt lat="41.824015" lon="-2.003009">
        <ele>1007</ele>
        <time>2023-02-11T10:37:22.000Z</time>
      </trkpt>
      <trkpt lat="41.823959" lon="-2.002918">
        <ele>1007</ele>
        <time>2023-02-11T10:37:23.000Z</time>
      </trkpt>
      <trkpt lat="41.823902" lon="-2.002825">
        <ele>1007</ele>
        <time>2023-02-11T10:37:24.000Z</time>
      </trkpt>
      <trkpt lat="41.823847" lon="-2.002732">
        <ele>1007</ele>
        <time>2023-02-11T10:37:25.000Z</time>
      </trkpt>
      <trkpt lat="41.823791" lon="-2.002641">
        <ele>1006.8</ele>
        <time>2023-02-11T10:37:26.000Z</time>
      </trkpt>
      <trkpt lat="41.823734" lon="-2.002551">
        <ele>1006.8</ele>
        <time>2023-02-11T10:37:27.000Z</time>
      </trkpt>
      <trkpt lat="41.823674" lon="-2.002458">
        <ele>1006.8</ele>
        <time>2023-02-11T10:37:28.000Z</time>
      </trkpt>
      <trkpt lat="41.823616" lon="-2.002366">
        <ele>1006.8</ele>
        <time>2023-02-11T10:37:29.000Z</time>
      </trkpt>
      <trkpt lat="41.823556" lon="-2.002276">
        <ele>1006.8</ele>
        <time>2023-02-11T10:37:30.000Z</time>
      </trkpt>
      <trkpt lat="41.823496" lon="-2.002192">
        <ele>1006.8</ele>
        <time>2023-02-11T10:37:31.000Z</time>
      </trkpt>
      <trkpt lat="41.823432" lon="-2.002113">
        <ele>1006.8</ele>
        <time>2023-02-11T10:37:32.000Z</time>
      </trkpt>
      <trkpt lat="41.823367" lon="-2.002034">
        <ele>1006.8</ele>
        <time>2023-02-11T10:37:33.000Z</time>
      </trkpt>
      <trkpt lat="41.823303" lon="-2.00196">
        <ele>1006.8</ele>
        <time>2023-02-11T10:37:34.000Z</time>
      </trkpt>
      <trkpt lat="41.823237" lon="-2.001886">
        <ele>1006.8</ele>
        <time>2023-02-11T10:37:35.000Z</time>
      </trkpt>
      <trkpt lat="41.82317" lon="-2.001817">
        <ele>1007</ele>
        <time>2023-02-11T10:37:36.000Z</time>
      </trkpt>
      <trkpt lat="41.823103" lon="-2.001751">
        <ele>1007.2</ele>
        <time>2023-02-11T10:37:37.000Z</time>
      </trkpt>
      <trkpt lat="41.823035" lon="-2.001686">
        <ele>1007.2</ele>
        <time>2023-02-11T10:37:38.000Z</time>
      </trkpt>
      <trkpt lat="41.822965" lon="-2.001623">
        <ele>1007.2</ele>
        <time>2023-02-11T10:37:39.000Z</time>
      </trkpt>
      <trkpt lat="41.822894" lon="-2.001558">
        <ele>1007.2</ele>
        <time>2023-02-11T10:37:40.000Z</time>
      </trkpt>
      <trkpt lat="41.822823" lon="-2.001494">
        <ele>1007.4</ele>
        <time>2023-02-11T10:37:41.000Z</time>
      </trkpt>
      <trkpt lat="41.822752" lon="-2.001432">
        <ele>1007.4</ele>
        <time>2023-02-11T10:37:42.000Z</time>
      </trkpt>
      <trkpt lat="41.822679" lon="-2.001375">
        <ele>1007.4</ele>
        <time>2023-02-11T10:37:43.000Z</time>
      </trkpt>
      <trkpt lat="41.822604" lon="-2.001324">
        <ele>1007.6</ele>
        <time>2023-02-11T10:37:44.000Z</time>
      </trkpt>
      <trkpt lat="41.82253" lon="-2.001276">
        <ele>1007.6</ele>
        <time>2023-02-11T10:37:45.000Z</time>
      </trkpt>
      <trkpt lat="41.822458" lon="-2.001231">
        <ele>1007.6</ele>
        <time>2023-02-11T10:37:46.000Z</time>
      </trkpt>
      <trkpt lat="41.822386" lon="-2.001187">
        <ele>1007.6</ele>
        <time>2023-02-11T10:37:47.000Z</time>
      </trkpt>
      <trkpt lat="41.822318" lon="-2.001145">
        <ele>1008</ele>
        <time>2023-02-11T10:37:48.000Z</time>
      </trkpt>
      <trkpt lat="41.82225" lon="-2.001104">
        <ele>1008</ele>
        <time>2023-02-11T10:37:49.000Z</time>
      </trkpt>
      <trkpt lat="41.822182" lon="-2.001064">
        <ele>1008.4</ele>
        <time>2023-02-11T10:37:50.000Z</time>
      </trkpt>
      <trkpt lat="41.822114" lon="-2.001022">
        <ele>1008.6</ele>
        <time>2023-02-11T10:37:51.000Z</time>
      </trkpt>
      <trkpt lat="41.822047" lon="-2.000977">
        <ele>1008.8</ele>
        <time>2023-02-11T10:37:52.000Z</time>
      </trkpt>
      <trkpt lat="41.821979" lon="-2.000933">
        <ele>1009</ele>
        <time>2023-02-11T10:37:53.000Z</time>
      </trkpt>
      <trkpt lat="41.821914" lon="-2.000893">
        <ele>1009.2</ele>
        <time>2023-02-11T10:37:54.000Z</time>
      </trkpt>
      <trkpt lat="41.82185" lon="-2.000853">
        <ele>1009.6</ele>
        <time>2023-02-11T10:37:55.000Z</time>
      </trkpt>
      <trkpt lat="41.821787" lon="-2.000815">
        <ele>1009.6</ele>
        <time>2023-02-11T10:37:56.000Z</time>
      </trkpt>
      <trkpt lat="41.821722" lon="-2.000779">
        <ele>1009.8</ele>
        <time>2023-02-11T10:37:57.000Z</time>
      </trkpt>
      <trkpt lat="41.821656" lon="-2.000747">
        <ele>1010</ele>
        <time>2023-02-11T10:37:58.000Z</time>
      </trkpt>
      <trkpt lat="41.82159" lon="-2.000712">
        <ele>1010.4</ele>
        <time>2023-02-11T10:37:59.000Z</time>
      </trkpt>
      <trkpt lat="41.821525" lon="-2.000677">
        <ele>1010.6</ele>
        <time>2023-02-11T10:38:00.000Z</time>
      </trkpt>
      <trkpt lat="41.82146" lon="-2.000644">
        <ele>1010.8</ele>
        <time>2023-02-11T10:38:01.000Z</time>
      </trkpt>
      <trkpt lat="41.821388" lon="-2.000612">
        <ele>1011.2</ele>
        <time>2023-02-11T10:38:02.000Z</time>
      </trkpt>
      <trkpt lat="41.821318" lon="-2.000578">
        <ele>1011.2</ele>
        <time>2023-02-11T10:38:03.000Z</time>
      </trkpt>
      <trkpt lat="41.821246" lon="-2.000547">
        <ele>1011.6</ele>
        <time>2023-02-11T10:38:04.000Z</time>
      </trkpt>
      <trkpt lat="41.821171" lon="-2.000519">
        <ele>1011.6</ele>
        <time>2023-02-11T10:38:05.000Z</time>
      </trkpt>
      <trkpt lat="41.821096" lon="-2.000492">
        <ele>1011.8</ele>
        <time>2023-02-11T10:38:06.000Z</time>
      </trkpt>
      <trkpt lat="41.821021" lon="-2.000464">
        <ele>1011.8</ele>
        <time>2023-02-11T10:38:07.000Z</time>
      </trkpt>
      <trkpt lat="41.820947" lon="-2.00044">
        <ele>1012</ele>
        <time>2023-02-11T10:38:08.000Z</time>
      </trkpt>
      <trkpt lat="41.820872" lon="-2.000418">
        <ele>1012</ele>
        <time>2023-02-11T10:38:09.000Z</time>
      </trkpt>
      <trkpt lat="41.820797" lon="-2.000394">
        <ele>1012.2</ele>
        <time>2023-02-11T10:38:10.000Z</time>
      </trkpt>
      <trkpt lat="41.820723" lon="-2.000373">
        <ele>1012.2</ele>
        <time>2023-02-11T10:38:11.000Z</time>
      </trkpt>
      <trkpt lat="41.82065" lon="-2.000355">
        <ele>1012.2</ele>
        <time>2023-02-11T10:38:12.000Z</time>
      </trkpt>
      <trkpt lat="41.820576" lon="-2.000338">
        <ele>1012.4</ele>
        <time>2023-02-11T10:38:13.000Z</time>
      </trkpt>
      <trkpt lat="41.820503" lon="-2.000324">
        <ele>1012.6</ele>
        <time>2023-02-11T10:38:14.000Z</time>
      </trkpt>
      <trkpt lat="41.82043" lon="-2.00031">
        <ele>1012.8</ele>
        <time>2023-02-11T10:38:15.000Z</time>
      </trkpt>
      <trkpt lat="41.820355" lon="-2.000298">
        <ele>1013</ele>
        <time>2023-02-11T10:38:16.000Z</time>
      </trkpt>
      <trkpt lat="41.82028" lon="-2.000291">
        <ele>1013.2</ele>
        <time>2023-02-11T10:38:17.000Z</time>
      </trkpt>
      <trkpt lat="41.820204" lon="-2.000284">
        <ele>1013.2</ele>
        <time>2023-02-11T10:38:18.000Z</time>
      </trkpt>
      <trkpt lat="41.820128" lon="-2.000278">
        <ele>1013.4</ele>
        <time>2023-02-11T10:38:19.000Z</time>
      </trkpt>
      <trkpt lat="41.820051" lon="-2.000272">
        <ele>1013.6</ele>
        <time>2023-02-11T10:38:20.000Z</time>
      </trkpt>
      <trkpt lat="41.819975" lon="-2.000267">
        <ele>1013.6</ele>
        <time>2023-02-11T10:38:21.000Z</time>
      </trkpt>
      <trkpt lat="41.819899" lon="-2.000263">
        <ele>1013.6</ele>
        <time>2023-02-11T10:38:22.000Z</time>
      </trkpt>
      <trkpt lat="41.819823" lon="-2.000258">
        <ele>1013.6</ele>
        <time>2023-02-11T10:38:23.000Z</time>
      </trkpt>
      <trkpt lat="41.819747" lon="-2.000254">
        <ele>1013.8</ele>
        <time>2023-02-11T10:38:24.000Z</time>
      </trkpt>
      <trkpt lat="41.819671" lon="-2.000249">
        <ele>1013.8</ele>
        <time>2023-02-11T10:38:25.000Z</time>
      </trkpt>
      <trkpt lat="41.819596" lon="-2.000246">
        <ele>1013.8</ele>
        <time>2023-02-11T10:38:26.000Z</time>
      </trkpt>
      <trkpt lat="41.819521" lon="-2.000243">
        <ele>1013.8</ele>
        <time>2023-02-11T10:38:27.000Z</time>
      </trkpt>
      <trkpt lat="41.819447" lon="-2.000239">
        <ele>1014</ele>
        <time>2023-02-11T10:38:28.000Z</time>
      </trkpt>
      <trkpt lat="41.819374" lon="-2.000235">
        <ele>1014</ele>
        <time>2023-02-11T10:38:29.000Z</time>
      </trkpt>
      <trkpt lat="41.819301" lon="-2.000231">
        <ele>1014</ele>
        <time>2023-02-11T10:38:30.000Z</time>
      </trkpt>
      <trkpt lat="41.819228" lon="-2.000228">
        <ele>1014</ele>
        <time>2023-02-11T10:38:31.000Z</time>
      </trkpt>
      <trkpt lat="41.819156" lon="-2.000225">
        <ele>1014.2</ele>
        <time>2023-02-11T10:38:32.000Z</time>
      </trkpt>
      <trkpt lat="41.819086" lon="-2.00022">
        <ele>1014.4</ele>
        <time>2023-02-11T10:38:33.000Z</time>
      </trkpt>
      <trkpt lat="41.819017" lon="-2.000216">
        <ele>1014.6</ele>
        <time>2023-02-11T10:38:34.000Z</time>
      </trkpt>
      <trkpt lat="41.818949" lon="-2.000215">
        <ele>1015.2</ele>
        <time>2023-02-11T10:38:35.000Z</time>
      </trkpt>
      <trkpt lat="41.81888" lon="-2.000215">
        <ele>1015.4</ele>
        <time>2023-02-11T10:38:36.000Z</time>
      </trkpt>
      <trkpt lat="41.818811" lon="-2.000212">
        <ele>1016</ele>
        <time>2023-02-11T10:38:37.000Z</time>
      </trkpt>
      <trkpt lat="41.818744" lon="-2.000209">
        <ele>1016</ele>
        <time>2023-02-11T10:38:38.000Z</time>
      </trkpt>
      <trkpt lat="41.818678" lon="-2.000206">
        <ele>1016.4</ele>
        <time>2023-02-11T10:38:39.000Z</time>
      </trkpt>
      <trkpt lat="41.818611" lon="-2.000205">
        <ele>1016.6</ele>
        <time>2023-02-11T10:38:40.000Z</time>
      </trkpt>
      <trkpt lat="41.818543" lon="-2.000201">
        <ele>1016.8</ele>
        <time>2023-02-11T10:38:41.000Z</time>
      </trkpt>
      <trkpt lat="41.818476" lon="-2.000196">
        <ele>1017</ele>
        <time>2023-02-11T10:38:42.000Z</time>
      </trkpt>
      <trkpt lat="41.818408" lon="-2.000192">
        <ele>1017</ele>
        <time>2023-02-11T10:38:43.000Z</time>
      </trkpt>
      <trkpt lat="41.818341" lon="-2.000187">
        <ele>1017.4</ele>
        <time>2023-02-11T10:38:44.000Z</time>
      </trkpt>
      <trkpt lat="41.818274" lon="-2.000184">
        <ele>1017.6</ele>
        <time>2023-02-11T10:38:45.000Z</time>
      </trkpt>
      <trkpt lat="41.818207" lon="-2.00018">
        <ele>1017.8</ele>
        <time>2023-02-11T10:38:46.000Z</time>
      </trkpt>
      <trkpt lat="41.81814" lon="-2.000172">
        <ele>1017.8</ele>
        <time>2023-02-11T10:38:47.000Z</time>
      </trkpt>
      <trkpt lat="41.818071" lon="-2.000166">
        <ele>1018</ele>
        <time>2023-02-11T10:38:48.000Z</time>
      </trkpt>
      <trkpt lat="41.818003" lon="-2.000161">
        <ele>1018.2</ele>
        <time>2023-02-11T10:38:49.000Z</time>
      </trkpt>
      <trkpt lat="41.817935" lon="-2.000154">
        <ele>1018.4</ele>
        <time>2023-02-11T10:38:50.000Z</time>
      </trkpt>
      <trkpt lat="41.817869" lon="-2.00015">
        <ele>1018.4</ele>
        <time>2023-02-11T10:38:51.000Z</time>
      </trkpt>
      <trkpt lat="41.817804" lon="-2.00015">
        <ele>1018.4</ele>
        <time>2023-02-11T10:38:52.000Z</time>
      </trkpt>
      <trkpt lat="41.817738" lon="-2.000145">
        <ele>1018.6</ele>
        <time>2023-02-11T10:38:53.000Z</time>
      </trkpt>
      <trkpt lat="41.817673" lon="-2.000139">
        <ele>1018.6</ele>
        <time>2023-02-11T10:38:54.000Z</time>
      </trkpt>
      <trkpt lat="41.817607" lon="-2.00014">
        <ele>1019</ele>
        <time>2023-02-11T10:38:55.000Z</time>
      </trkpt>
      <trkpt lat="41.817542" lon="-2.000139">
        <ele>1019</ele>
        <time>2023-02-11T10:38:56.000Z</time>
      </trkpt>
      <trkpt lat="41.817477" lon="-2.000133">
        <ele>1019.2</ele>
        <time>2023-02-11T10:38:57.000Z</time>
      </trkpt>
      <trkpt lat="41.817412" lon="-2.000131">
        <ele>1019.6</ele>
        <time>2023-02-11T10:38:58.000Z</time>
      </trkpt>
      <trkpt lat="41.817347" lon="-2.000132">
        <ele>1019.8</ele>
        <time>2023-02-11T10:38:59.000Z</time>
      </trkpt>
      <trkpt lat="41.817283" lon="-2.00013">
        <ele>1020</ele>
        <time>2023-02-11T10:39:00.000Z</time>
      </trkpt>
      <trkpt lat="41.817218" lon="-2.000128">
        <ele>1020.2</ele>
        <time>2023-02-11T10:39:01.000Z</time>
      </trkpt>
      <trkpt lat="41.817155" lon="-2.000131">
        <ele>1020.4</ele>
        <time>2023-02-11T10:39:02.000Z</time>
      </trkpt>
      <trkpt lat="41.817092" lon="-2.00014">
        <ele>1020.6</ele>
        <time>2023-02-11T10:39:03.000Z</time>
      </trkpt>
      <trkpt lat="41.817028" lon="-2.000149">
        <ele>1020.8</ele>
        <time>2023-02-11T10:39:04.000Z</time>
      </trkpt>
      <trkpt lat="41.816964" lon="-2.000158">
        <ele>1021</ele>
        <time>2023-02-11T10:39:05.000Z</time>
      </trkpt>
      <trkpt lat="41.816901" lon="-2.00017">
        <ele>1021.4</ele>
        <time>2023-02-11T10:39:06.000Z</time>
      </trkpt>
      <trkpt lat="41.816841" lon="-2.000186">
        <ele>1021.6</ele>
        <time>2023-02-11T10:39:07.000Z</time>
      </trkpt>
      <trkpt lat="41.816779" lon="-2.000205">
        <ele>1022</ele>
        <time>2023-02-11T10:39:08.000Z</time>
      </trkpt>
      <trkpt lat="41.816717" lon="-2.000222">
        <ele>1022</ele>
        <time>2023-02-11T10:39:09.000Z</time>
      </trkpt>
      <trkpt lat="41.816656" lon="-2.000242">
        <ele>1022</ele>
        <time>2023-02-11T10:39:10.000Z</time>
      </trkpt>
      <trkpt lat="41.816596" lon="-2.000267">
        <ele>1022.4</ele>
        <time>2023-02-11T10:39:11.000Z</time>
      </trkpt>
      <trkpt lat="41.816537" lon="-2.000297">
        <ele>1022.4</ele>
        <time>2023-02-11T10:39:12.000Z</time>
      </trkpt>
      <trkpt lat="41.816476" lon="-2.000323">
        <ele>1022.8</ele>
        <time>2023-02-11T10:39:13.000Z</time>
      </trkpt>
      <trkpt lat="41.816417" lon="-2.000347">
        <ele>1023</ele>
        <time>2023-02-11T10:39:14.000Z</time>
      </trkpt>
      <trkpt lat="41.816356" lon="-2.000374">
        <ele>1023</ele>
        <time>2023-02-11T10:39:15.000Z</time>
      </trkpt>
      <trkpt lat="41.8163" lon="-2.000405">
        <ele>1023.2</ele>
        <time>2023-02-11T10:39:16.000Z</time>
      </trkpt>
      <trkpt lat="41.816243" lon="-2.000435">
        <ele>1023.4</ele>
        <time>2023-02-11T10:39:17.000Z</time>
      </trkpt>
      <trkpt lat="41.816183" lon="-2.00046">
        <ele>1023.6</ele>
        <time>2023-02-11T10:39:18.000Z</time>
      </trkpt>
      <trkpt lat="41.816124" lon="-2.000481">
        <ele>1023.6</ele>
        <time>2023-02-11T10:39:19.000Z</time>
      </trkpt>
      <trkpt lat="41.816066" lon="-2.000503">
        <ele>1023.8</ele>
        <time>2023-02-11T10:39:20.000Z</time>
      </trkpt>
      <trkpt lat="41.81601" lon="-2.00053">
        <ele>1024</ele>
        <time>2023-02-11T10:39:21.000Z</time>
      </trkpt>
      <trkpt lat="41.815956" lon="-2.000557">
        <ele>1024.2</ele>
        <time>2023-02-11T10:39:22.000Z</time>
      </trkpt>
      <trkpt lat="41.815901" lon="-2.000584">
        <ele>1024.2</ele>
        <time>2023-02-11T10:39:23.000Z</time>
      </trkpt>
      <trkpt lat="41.815844" lon="-2.000608">
        <ele>1024.8</ele>
        <time>2023-02-11T10:39:24.000Z</time>
      </trkpt>
      <trkpt lat="41.815789" lon="-2.000628">
        <ele>1025</ele>
        <time>2023-02-11T10:39:25.000Z</time>
      </trkpt>
      <trkpt lat="41.815735" lon="-2.000646">
        <ele>1025.4</ele>
        <time>2023-02-11T10:39:26.000Z</time>
      </trkpt>
      <trkpt lat="41.815682" lon="-2.000664">
        <ele>1025.4</ele>
        <time>2023-02-11T10:39:27.000Z</time>
      </trkpt>
      <trkpt lat="41.815629" lon="-2.000685">
        <ele>1025.8</ele>
        <time>2023-02-11T10:39:28.000Z</time>
      </trkpt>
      <trkpt lat="41.815574" lon="-2.000708">
        <ele>1026</ele>
        <time>2023-02-11T10:39:29.000Z</time>
      </trkpt>
      <trkpt lat="41.815521" lon="-2.000731">
        <ele>1026.2</ele>
        <time>2023-02-11T10:39:30.000Z</time>
      </trkpt>
      <trkpt lat="41.81547" lon="-2.000755">
        <ele>1026.2</ele>
        <time>2023-02-11T10:39:31.000Z</time>
      </trkpt>
      <trkpt lat="41.815421" lon="-2.000781">
        <ele>1026.4</ele>
        <time>2023-02-11T10:39:32.000Z</time>
      </trkpt>
      <trkpt lat="41.815372" lon="-2.000806">
        <ele>1026.6</ele>
        <time>2023-02-11T10:39:33.000Z</time>
      </trkpt>
      <trkpt lat="41.815323" lon="-2.00083">
        <ele>1026.8</ele>
        <time>2023-02-11T10:39:34.000Z</time>
      </trkpt>
      <trkpt lat="41.815276" lon="-2.000857">
        <ele>1027</ele>
        <time>2023-02-11T10:39:35.000Z</time>
      </trkpt>
      <trkpt lat="41.815228" lon="-2.000881">
        <ele>1027</ele>
        <time>2023-02-11T10:39:36.000Z</time>
      </trkpt>
      <trkpt lat="41.815179" lon="-2.000905">
        <ele>1027.2</ele>
        <time>2023-02-11T10:39:37.000Z</time>
      </trkpt>
      <trkpt lat="41.815129" lon="-2.000931">
        <ele>1027.4</ele>
        <time>2023-02-11T10:39:38.000Z</time>
      </trkpt>
      <trkpt lat="41.815078" lon="-2.000954">
        <ele>1027.6</ele>
        <time>2023-02-11T10:39:39.000Z</time>
      </trkpt>
      <trkpt lat="41.815027" lon="-2.000977">
        <ele>1027.8</ele>
        <time>2023-02-11T10:39:40.000Z</time>
      </trkpt>
      <trkpt lat="41.814975" lon="-2.000999">
        <ele>1028</ele>
        <time>2023-02-11T10:39:41.000Z</time>
      </trkpt>
      <trkpt lat="41.814923" lon="-2.001022">
        <ele>1028.2</ele>
        <time>2023-02-11T10:39:42.000Z</time>
      </trkpt>
      <trkpt lat="41.81487" lon="-2.001046">
        <ele>1028.4</ele>
        <time>2023-02-11T10:39:43.000Z</time>
      </trkpt>
      <trkpt lat="41.814818" lon="-2.001067">
        <ele>1028.4</ele>
        <time>2023-02-11T10:39:44.000Z</time>
      </trkpt>
      <trkpt lat="41.814764" lon="-2.001085">
        <ele>1028.6</ele>
        <time>2023-02-11T10:39:45.000Z</time>
      </trkpt>
      <trkpt lat="41.814711" lon="-2.001103">
        <ele>1028.6</ele>
        <time>2023-02-11T10:39:46.000Z</time>
      </trkpt>
      <trkpt lat="41.814658" lon="-2.001121">
        <ele>1028.8</ele>
        <time>2023-02-11T10:39:47.000Z</time>
      </trkpt>
      <trkpt lat="41.814604" lon="-2.001142">
        <ele>1028.8</ele>
        <time>2023-02-11T10:39:48.000Z</time>
      </trkpt>
      <trkpt lat="41.814549" lon="-2.001164">
        <ele>1029</ele>
        <time>2023-02-11T10:39:49.000Z</time>
      </trkpt>
      <trkpt lat="41.814494" lon="-2.001188">
        <ele>1029</ele>
        <time>2023-02-11T10:39:50.000Z</time>
      </trkpt>
      <trkpt lat="41.814439" lon="-2.001214">
        <ele>1029.4</ele>
        <time>2023-02-11T10:39:51.000Z</time>
      </trkpt>
      <trkpt lat="41.814386" lon="-2.001242">
        <ele>1029.4</ele>
        <time>2023-02-11T10:39:52.000Z</time>
      </trkpt>
      <trkpt lat="41.814332" lon="-2.00127">
        <ele>1029.6</ele>
        <time>2023-02-11T10:39:53.000Z</time>
      </trkpt>
      <trkpt lat="41.814276" lon="-2.001295">
        <ele>1029.6</ele>
        <time>2023-02-11T10:39:54.000Z</time>
      </trkpt>
      <trkpt lat="41.814218" lon="-2.001317">
        <ele>1030</ele>
        <time>2023-02-11T10:39:55.000Z</time>
      </trkpt>
      <trkpt lat="41.814162" lon="-2.001336">
        <ele>1030</ele>
        <time>2023-02-11T10:39:56.000Z</time>
      </trkpt>
      <trkpt lat="41.814106" lon="-2.001357">
        <ele>1030.2</ele>
        <time>2023-02-11T10:39:57.000Z</time>
      </trkpt>
      <trkpt lat="41.814047" lon="-2.001382">
        <ele>1030.4</ele>
        <time>2023-02-11T10:39:58.000Z</time>
      </trkpt>
      <trkpt lat="41.813992" lon="-2.001408">
        <ele>1030.6</ele>
        <time>2023-02-11T10:39:59.000Z</time>
      </trkpt>
      <trkpt lat="41.813938" lon="-2.001434">
        <ele>1030.6</ele>
        <time>2023-02-11T10:40:00.000Z</time>
      </trkpt>
      <trkpt lat="41.813881" lon="-2.001456">
        <ele>1030.8</ele>
        <time>2023-02-11T10:40:01.000Z</time>
      </trkpt>
      <trkpt lat="41.813823" lon="-2.001474">
        <ele>1030.8</ele>
        <time>2023-02-11T10:40:02.000Z</time>
      </trkpt>
      <trkpt lat="41.813765" lon="-2.001489">
        <ele>1030.8</ele>
        <time>2023-02-11T10:40:03.000Z</time>
      </trkpt>
      <trkpt lat="41.813709" lon="-2.001502">
        <ele>1031</ele>
        <time>2023-02-11T10:40:04.000Z</time>
      </trkpt>
      <trkpt lat="41.813652" lon="-2.001516">
        <ele>1031</ele>
        <time>2023-02-11T10:40:05.000Z</time>
      </trkpt>
      <trkpt lat="41.813595" lon="-2.001531">
        <ele>1031.2</ele>
        <time>2023-02-11T10:40:06.000Z</time>
      </trkpt>
      <trkpt lat="41.813536" lon="-2.001544">
        <ele>1031.4</ele>
        <time>2023-02-11T10:40:07.000Z</time>
      </trkpt>
      <trkpt lat="41.813477" lon="-2.001557">
        <ele>1031.4</ele>
        <time>2023-02-11T10:40:08.000Z</time>
      </trkpt>
      <trkpt lat="41.813417" lon="-2.001566">
        <ele>1031.6</ele>
        <time>2023-02-11T10:40:09.000Z</time>
      </trkpt>
      <trkpt lat="41.813356" lon="-2.001571">
        <ele>1031.6</ele>
        <time>2023-02-11T10:40:10.000Z</time>
      </trkpt>
      <trkpt lat="41.813296" lon="-2.001575">
        <ele>1031.8</ele>
        <time>2023-02-11T10:40:11.000Z</time>
      </trkpt>
      <trkpt lat="41.813236" lon="-2.001578">
        <ele>1031.8</ele>
        <time>2023-02-11T10:40:12.000Z</time>
      </trkpt>
      <trkpt lat="41.813176" lon="-2.001581">
        <ele>1032</ele>
        <time>2023-02-11T10:40:13.000Z</time>
      </trkpt>
      <trkpt lat="41.813113" lon="-2.001585">
        <ele>1032</ele>
        <time>2023-02-11T10:40:14.000Z</time>
      </trkpt>
      <trkpt lat="41.81305" lon="-2.001586">
        <ele>1032</ele>
        <time>2023-02-11T10:40:15.000Z</time>
      </trkpt>
      <trkpt lat="41.812987" lon="-2.00159">
        <ele>1032.2</ele>
        <time>2023-02-11T10:40:16.000Z</time>
      </trkpt>
      <trkpt lat="41.812924" lon="-2.001593">
        <ele>1032.4</ele>
        <time>2023-02-11T10:40:17.000Z</time>
      </trkpt>
      <trkpt lat="41.812861" lon="-2.001597">
        <ele>1032.8</ele>
        <time>2023-02-11T10:40:18.000Z</time>
      </trkpt>
      <trkpt lat="41.812796" lon="-2.001599">
        <ele>1033</ele>
        <time>2023-02-11T10:40:19.000Z</time>
      </trkpt>
      <trkpt lat="41.812731" lon="-2.001601">
        <ele>1033.4</ele>
        <time>2023-02-11T10:40:20.000Z</time>
      </trkpt>
      <trkpt lat="41.812667" lon="-2.001603">
        <ele>1033.4</ele>
        <time>2023-02-11T10:40:21.000Z</time>
      </trkpt>
      <trkpt lat="41.812602" lon="-2.001606">
        <ele>1033.4</ele>
        <time>2023-02-11T10:40:22.000Z</time>
      </trkpt>
      <trkpt lat="41.812536" lon="-2.001608">
        <ele>1033.6</ele>
        <time>2023-02-11T10:40:23.000Z</time>
      </trkpt>
      <trkpt lat="41.812471" lon="-2.00161">
        <ele>1033.6</ele>
        <time>2023-02-11T10:40:24.000Z</time>
      </trkpt>
      <trkpt lat="41.812404" lon="-2.001612">
        <ele>1033.6</ele>
        <time>2023-02-11T10:40:25.000Z</time>
      </trkpt>
      <trkpt lat="41.812337" lon="-2.001615">
        <ele>1033.6</ele>
        <time>2023-02-11T10:40:26.000Z</time>
      </trkpt>
      <trkpt lat="41.81227" lon="-2.001622">
        <ele>1033.4</ele>
        <time>2023-02-11T10:40:27.000Z</time>
      </trkpt>
      <trkpt lat="41.812204" lon="-2.001629">
        <ele>1033.4</ele>
        <time>2023-02-11T10:40:28.000Z</time>
      </trkpt>
      <trkpt lat="41.812138" lon="-2.001637">
        <ele>1033.4</ele>
        <time>2023-02-11T10:40:29.000Z</time>
      </trkpt>
      <trkpt lat="41.812072" lon="-2.001643">
        <ele>1033.4</ele>
        <time>2023-02-11T10:40:30.000Z</time>
      </trkpt>
      <trkpt lat="41.812009" lon="-2.001646">
        <ele>1033.4</ele>
        <time>2023-02-11T10:40:31.000Z</time>
      </trkpt>
      <trkpt lat="41.811945" lon="-2.001649">
        <ele>1033.4</ele>
        <time>2023-02-11T10:40:32.000Z</time>
      </trkpt>
      <trkpt lat="41.811882" lon="-2.001652">
        <ele>1033.4</ele>
        <time>2023-02-11T10:40:33.000Z</time>
      </trkpt>
      <trkpt lat="41.811821" lon="-2.001654">
        <ele>1033.4</ele>
        <time>2023-02-11T10:40:34.000Z</time>
      </trkpt>
      <trkpt lat="41.81176" lon="-2.001657">
        <ele>1033.4</ele>
        <time>2023-02-11T10:40:35.000Z</time>
      </trkpt>
      <trkpt lat="41.811698" lon="-2.001658">
        <ele>1033.6</ele>
        <time>2023-02-11T10:40:36.000Z</time>
      </trkpt>
      <trkpt lat="41.811638" lon="-2.00166">
        <ele>1033.6</ele>
        <time>2023-02-11T10:40:37.000Z</time>
      </trkpt>
      <trkpt lat="41.811578" lon="-2.00166">
        <ele>1033.8</ele>
        <time>2023-02-11T10:40:38.000Z</time>
      </trkpt>
      <trkpt lat="41.811518" lon="-2.001662">
        <ele>1033.8</ele>
        <time>2023-02-11T10:40:39.000Z</time>
      </trkpt>
      <trkpt lat="41.811458" lon="-2.001663">
        <ele>1034</ele>
        <time>2023-02-11T10:40:40.000Z</time>
      </trkpt>
      <trkpt lat="41.811398" lon="-2.001665">
        <ele>1034</ele>
        <time>2023-02-11T10:40:41.000Z</time>
      </trkpt>
      <trkpt lat="41.811338" lon="-2.001666">
        <ele>1034</ele>
        <time>2023-02-11T10:40:42.000Z</time>
      </trkpt>
      <trkpt lat="41.811279" lon="-2.001671">
        <ele>1034.2</ele>
        <time>2023-02-11T10:40:43.000Z</time>
      </trkpt>
      <trkpt lat="41.81122" lon="-2.001676">
        <ele>1034.2</ele>
        <time>2023-02-11T10:40:44.000Z</time>
      </trkpt>
      <trkpt lat="41.811159" lon="-2.001676">
        <ele>1034.2</ele>
        <time>2023-02-11T10:40:45.000Z</time>
      </trkpt>
      <trkpt lat="41.8111" lon="-2.001676">
        <ele>1034.4</ele>
        <time>2023-02-11T10:40:46.000Z</time>
      </trkpt>
      <trkpt lat="41.811042" lon="-2.001675">
        <ele>1034.6</ele>
        <time>2023-02-11T10:40:47.000Z</time>
      </trkpt>
      <trkpt lat="41.810983" lon="-2.001677">
        <ele>1034.6</ele>
        <time>2023-02-11T10:40:48.000Z</time>
      </trkpt>
      <trkpt lat="41.810926" lon="-2.001681">
        <ele>1034.8</ele>
        <time>2023-02-11T10:40:49.000Z</time>
      </trkpt>
      <trkpt lat="41.810867" lon="-2.001684">
        <ele>1034.8</ele>
        <time>2023-02-11T10:40:50.000Z</time>
      </trkpt>
      <trkpt lat="41.810807" lon="-2.001686">
        <ele>1035</ele>
        <time>2023-02-11T10:40:51.000Z</time>
      </trkpt>
      <trkpt lat="41.810748" lon="-2.001689">
        <ele>1035.2</ele>
        <time>2023-02-11T10:40:52.000Z</time>
      </trkpt>
      <trkpt lat="41.810688" lon="-2.001694">
        <ele>1035.4</ele>
        <time>2023-02-11T10:40:53.000Z</time>
      </trkpt>
      <trkpt lat="41.810628" lon="-2.001696">
        <ele>1035.6</ele>
        <time>2023-02-11T10:40:54.000Z</time>
      </trkpt>
      <trkpt lat="41.810567" lon="-2.001699">
        <ele>1035.6</ele>
        <time>2023-02-11T10:40:55.000Z</time>
      </trkpt>
      <trkpt lat="41.810507" lon="-2.001701">
        <ele>1035.8</ele>
        <time>2023-02-11T10:40:56.000Z</time>
      </trkpt>
      <trkpt lat="41.810446" lon="-2.0017">
        <ele>1035.8</ele>
        <time>2023-02-11T10:40:57.000Z</time>
      </trkpt>
      <trkpt lat="41.810388" lon="-2.001701">
        <ele>1036</ele>
        <time>2023-02-11T10:40:58.000Z</time>
      </trkpt>
      <trkpt lat="41.81033" lon="-2.001704">
        <ele>1036</ele>
        <time>2023-02-11T10:40:59.000Z</time>
      </trkpt>
      <trkpt lat="41.810274" lon="-2.001707">
        <ele>1036.2</ele>
        <time>2023-02-11T10:41:00.000Z</time>
      </trkpt>
      <trkpt lat="41.810217" lon="-2.001707">
        <ele>1036.2</ele>
        <time>2023-02-11T10:41:01.000Z</time>
      </trkpt>
      <trkpt lat="41.810159" lon="-2.001708">
        <ele>1036.4</ele>
        <time>2023-02-11T10:41:02.000Z</time>
      </trkpt>
      <trkpt lat="41.8101" lon="-2.001708">
        <ele>1036.4</ele>
        <time>2023-02-11T10:41:03.000Z</time>
      </trkpt>
      <trkpt lat="41.81004" lon="-2.001707">
        <ele>1036.6</ele>
        <time>2023-02-11T10:41:04.000Z</time>
      </trkpt>
      <trkpt lat="41.809981" lon="-2.001709">
        <ele>1036.8</ele>
        <time>2023-02-11T10:41:05.000Z</time>
      </trkpt>
      <trkpt lat="41.809923" lon="-2.001709">
        <ele>1037</ele>
        <time>2023-02-11T10:41:06.000Z</time>
      </trkpt>
      <trkpt lat="41.809864" lon="-2.00171">
        <ele>1037.2</ele>
        <time>2023-02-11T10:41:07.000Z</time>
      </trkpt>
      <trkpt lat="41.809805" lon="-2.00171">
        <ele>1037.4</ele>
        <time>2023-02-11T10:41:08.000Z</time>
      </trkpt>
      <trkpt lat="41.809745" lon="-2.001712">
        <ele>1037.6</ele>
        <time>2023-02-11T10:41:09.000Z</time>
      </trkpt>
      <trkpt lat="41.809686" lon="-2.001714">
        <ele>1037.8</ele>
        <time>2023-02-11T10:41:10.000Z</time>
      </trkpt>
      <trkpt lat="41.809626" lon="-2.001717">
        <ele>1038.2</ele>
        <time>2023-02-11T10:41:11.000Z</time>
      </trkpt>
      <trkpt lat="41.809566" lon="-2.001719">
        <ele>1038.4</ele>
        <time>2023-02-11T10:41:12.000Z</time>
      </trkpt>
      <trkpt lat="41.809507" lon="-2.001721">
        <ele>1038.6</ele>
        <time>2023-02-11T10:41:13.000Z</time>
      </trkpt>
      <trkpt lat="41.809447" lon="-2.001725">
        <ele>1039</ele>
        <time>2023-02-11T10:41:14.000Z</time>
      </trkpt>
      <trkpt lat="41.809387" lon="-2.001728">
        <ele>1039</ele>
        <time>2023-02-11T10:41:15.000Z</time>
      </trkpt>
      <trkpt lat="41.809326" lon="-2.00173">
        <ele>1039.4</ele>
        <time>2023-02-11T10:41:16.000Z</time>
      </trkpt>
      <trkpt lat="41.809266" lon="-2.001733">
        <ele>1039.4</ele>
        <time>2023-02-11T10:41:17.000Z</time>
      </trkpt>
      <trkpt lat="41.809207" lon="-2.001734">
        <ele>1039.8</ele>
        <time>2023-02-11T10:41:18.000Z</time>
      </trkpt>
      <trkpt lat="41.809146" lon="-2.001736">
        <ele>1040</ele>
        <time>2023-02-11T10:41:19.000Z</time>
      </trkpt>
      <trkpt lat="41.809086" lon="-2.001736">
        <ele>1040.2</ele>
        <time>2023-02-11T10:41:20.000Z</time>
      </trkpt>
      <trkpt lat="41.809023" lon="-2.001739">
        <ele>1040.2</ele>
        <time>2023-02-11T10:41:21.000Z</time>
      </trkpt>
      <trkpt lat="41.80896" lon="-2.001741">
        <ele>1040.6</ele>
        <time>2023-02-11T10:41:22.000Z</time>
      </trkpt>
      <trkpt lat="41.808896" lon="-2.001745">
        <ele>1040.8</ele>
        <time>2023-02-11T10:41:23.000Z</time>
      </trkpt>
      <trkpt lat="41.808833" lon="-2.00175">
        <ele>1041</ele>
        <time>2023-02-11T10:41:24.000Z</time>
      </trkpt>
      <trkpt lat="41.808771" lon="-2.001754">
        <ele>1041.2</ele>
        <time>2023-02-11T10:41:25.000Z</time>
      </trkpt>
      <trkpt lat="41.808711" lon="-2.001756">
        <ele>1041.4</ele>
        <time>2023-02-11T10:41:26.000Z</time>
      </trkpt>
      <trkpt lat="41.808653" lon="-2.001759">
        <ele>1041.8</ele>
        <time>2023-02-11T10:41:27.000Z</time>
      </trkpt>
      <trkpt lat="41.808595" lon="-2.001761">
        <ele>1042</ele>
        <time>2023-02-11T10:41:28.000Z</time>
      </trkpt>
      <trkpt lat="41.808538" lon="-2.001764">
        <ele>1042.4</ele>
        <time>2023-02-11T10:41:29.000Z</time>
      </trkpt>
      <trkpt lat="41.808482" lon="-2.001767">
        <ele>1042.6</ele>
        <time>2023-02-11T10:41:30.000Z</time>
      </trkpt>
      <trkpt lat="41.808424" lon="-2.001771">
        <ele>1042.6</ele>
        <time>2023-02-11T10:41:31.000Z</time>
      </trkpt>
      <trkpt lat="41.808365" lon="-2.001774">
        <ele>1043</ele>
        <time>2023-02-11T10:41:32.000Z</time>
      </trkpt>
      <trkpt lat="41.808303" lon="-2.001774">
        <ele>1043.2</ele>
        <time>2023-02-11T10:41:33.000Z</time>
      </trkpt>
      <trkpt lat="41.808238" lon="-2.001775">
        <ele>1043.4</ele>
        <time>2023-02-11T10:41:34.000Z</time>
      </trkpt>
      <trkpt lat="41.808171" lon="-2.001777">
        <ele>1043.4</ele>
        <time>2023-02-11T10:41:35.000Z</time>
      </trkpt>
      <trkpt lat="41.808104" lon="-2.001779">
        <ele>1043.4</ele>
        <time>2023-02-11T10:41:36.000Z</time>
      </trkpt>
      <trkpt lat="41.808038" lon="-2.001781">
        <ele>1043.4</ele>
        <time>2023-02-11T10:41:37.000Z</time>
      </trkpt>
      <trkpt lat="41.807974" lon="-2.00178">
        <ele>1043.6</ele>
        <time>2023-02-11T10:41:38.000Z</time>
      </trkpt>
      <trkpt lat="41.807912" lon="-2.001781">
        <ele>1043.6</ele>
        <time>2023-02-11T10:41:39.000Z</time>
      </trkpt>
      <trkpt lat="41.807847" lon="-2.001782">
        <ele>1043.8</ele>
        <time>2023-02-11T10:41:40.000Z</time>
      </trkpt>
      <trkpt lat="41.80778" lon="-2.001781">
        <ele>1043.8</ele>
        <time>2023-02-11T10:41:41.000Z</time>
      </trkpt>
      <trkpt lat="41.807712" lon="-2.001776">
        <ele>1043.8</ele>
        <time>2023-02-11T10:41:42.000Z</time>
      </trkpt>
      <trkpt lat="41.80764" lon="-2.001765">
        <ele>1043.8</ele>
        <time>2023-02-11T10:41:43.000Z</time>
      </trkpt>
      <trkpt lat="41.807566" lon="-2.001746">
        <ele>1043.8</ele>
        <time>2023-02-11T10:41:44.000Z</time>
      </trkpt>
      <trkpt lat="41.80749" lon="-2.001719">
        <ele>1043.8</ele>
        <time>2023-02-11T10:41:45.000Z</time>
      </trkpt>
      <trkpt lat="41.807413" lon="-2.001684">
        <ele>1043.6</ele>
        <time>2023-02-11T10:41:46.000Z</time>
      </trkpt>
      <trkpt lat="41.807334" lon="-2.001644">
        <ele>1043.6</ele>
        <time>2023-02-11T10:41:47.000Z</time>
      </trkpt>
      <trkpt lat="41.807251" lon="-2.001599">
        <ele>1043.6</ele>
        <time>2023-02-11T10:41:48.000Z</time>
      </trkpt>
      <trkpt lat="41.807168" lon="-2.00155">
        <ele>1043.6</ele>
        <time>2023-02-11T10:41:49.000Z</time>
      </trkpt>
      <trkpt lat="41.807086" lon="-2.001498">
        <ele>1043.6</ele>
        <time>2023-02-11T10:41:50.000Z</time>
      </trkpt>
      <trkpt lat="41.807001" lon="-2.001444">
        <ele>1043</ele>
        <time>2023-02-11T10:41:51.000Z</time>
      </trkpt>
      <trkpt lat="41.806914" lon="-2.00139">
        <ele>1042.8</ele>
        <time>2023-02-11T10:41:52.000Z</time>
      </trkpt>
      <trkpt lat="41.806824" lon="-2.001332">
        <ele>1042.4</ele>
        <time>2023-02-11T10:41:53.000Z</time>
      </trkpt>
      <trkpt lat="41.806733" lon="-2.001275">
        <ele>1042</ele>
        <time>2023-02-11T10:41:54.000Z</time>
      </trkpt>
      <trkpt lat="41.806641" lon="-2.001213">
        <ele>1041.8</ele>
        <time>2023-02-11T10:41:55.000Z</time>
      </trkpt>
      <trkpt lat="41.806549" lon="-2.001148">
        <ele>1041.4</ele>
        <time>2023-02-11T10:41:56.000Z</time>
      </trkpt>
      <trkpt lat="41.806454" lon="-2.001082">
        <ele>1041.2</ele>
        <time>2023-02-11T10:41:57.000Z</time>
      </trkpt>
      <trkpt lat="41.806358" lon="-2.001014">
        <ele>1040.8</ele>
        <time>2023-02-11T10:41:58.000Z</time>
      </trkpt>
      <trkpt lat="41.80626" lon="-2.000947">
        <ele>1040.6</ele>
        <time>2023-02-11T10:41:59.000Z</time>
      </trkpt>
      <trkpt lat="41.806159" lon="-2.000886">
        <ele>1040.2</ele>
        <time>2023-02-11T10:42:00.000Z</time>
      </trkpt>
      <trkpt lat="41.806055" lon="-2.000828">
        <ele>1040</ele>
        <time>2023-02-11T10:42:01.000Z</time>
      </trkpt>
      <trkpt lat="41.805946" lon="-2.00078">
        <ele>1039.2</ele>
        <time>2023-02-11T10:42:02.000Z</time>
      </trkpt>
      <trkpt lat="41.805835" lon="-2.000745">
        <ele>1038.4</ele>
        <time>2023-02-11T10:42:03.000Z</time>
      </trkpt>
      <trkpt lat="41.805724" lon="-2.000723">
        <ele>1038.2</ele>
        <time>2023-02-11T10:42:04.000Z</time>
      </trkpt>
      <trkpt lat="41.805614" lon="-2.000699">
        <ele>1037.6</ele>
        <time>2023-02-11T10:42:05.000Z</time>
      </trkpt>
      <trkpt lat="41.805503" lon="-2.000659">
        <ele>1036.8</ele>
        <time>2023-02-11T10:42:06.000Z</time>
      </trkpt>
      <trkpt lat="41.805397" lon="-2.000595">
        <ele>1035.8</ele>
        <time>2023-02-11T10:42:07.000Z</time>
      </trkpt>
      <trkpt lat="41.805298" lon="-2.00051">
        <ele>1035.4</ele>
        <time>2023-02-11T10:42:08.000Z</time>
      </trkpt>
      <trkpt lat="41.805205" lon="-2.000409">
        <ele>1034.8</ele>
        <time>2023-02-11T10:42:09.000Z</time>
      </trkpt>
      <trkpt lat="41.805116" lon="-2.0003">
        <ele>1034.4</ele>
        <time>2023-02-11T10:42:10.000Z</time>
      </trkpt>
      <trkpt lat="41.805027" lon="-2.000183">
        <ele>1033</ele>
        <time>2023-02-11T10:42:11.000Z</time>
      </trkpt>
      <trkpt lat="41.804935" lon="-2.000061">
        <ele>1032.2</ele>
        <time>2023-02-11T10:42:12.000Z</time>
      </trkpt>
      <trkpt lat="41.804841" lon="-1.999951">
        <ele>1030.8</ele>
        <time>2023-02-11T10:42:13.000Z</time>
      </trkpt>
      <trkpt lat="41.804744" lon="-1.999854">
        <ele>1029.8</ele>
        <time>2023-02-11T10:42:14.000Z</time>
      </trkpt>
      <trkpt lat="41.804651" lon="-1.999765">
        <ele>1029.4</ele>
        <time>2023-02-11T10:42:15.000Z</time>
      </trkpt>
      <trkpt lat="41.804559" lon="-1.999684">
        <ele>1027.8</ele>
        <time>2023-02-11T10:42:16.000Z</time>
      </trkpt>
      <trkpt lat="41.804466" lon="-1.999601">
        <ele>1027.2</ele>
        <time>2023-02-11T10:42:17.000Z</time>
      </trkpt>
      <trkpt lat="41.804373" lon="-1.999519">
        <ele>1026.2</ele>
        <time>2023-02-11T10:42:18.000Z</time>
      </trkpt>
      <trkpt lat="41.804281" lon="-1.999438">
        <ele>1026</ele>
        <time>2023-02-11T10:42:19.000Z</time>
      </trkpt>
      <trkpt lat="41.80419" lon="-1.999357">
        <ele>1025.2</ele>
        <time>2023-02-11T10:42:20.000Z</time>
      </trkpt>
      <trkpt lat="41.804102" lon="-1.999275">
        <ele>1025</ele>
        <time>2023-02-11T10:42:21.000Z</time>
      </trkpt>
      <trkpt lat="41.804012" lon="-1.999195">
        <ele>1025</ele>
        <time>2023-02-11T10:42:22.000Z</time>
      </trkpt>
      <trkpt lat="41.803924" lon="-1.999116">
        <ele>1024.8</ele>
        <time>2023-02-11T10:42:23.000Z</time>
      </trkpt>
      <trkpt lat="41.803835" lon="-1.999042">
        <ele>1024.8</ele>
        <time>2023-02-11T10:42:24.000Z</time>
      </trkpt>
      <trkpt lat="41.803746" lon="-1.998965">
        <ele>1024.6</ele>
        <time>2023-02-11T10:42:25.000Z</time>
      </trkpt>
      <trkpt lat="41.803659" lon="-1.99889">
        <ele>1024.6</ele>
        <time>2023-02-11T10:42:26.000Z</time>
      </trkpt>
      <trkpt lat="41.80357" lon="-1.998813">
        <ele>1024.4</ele>
        <time>2023-02-11T10:42:27.000Z</time>
      </trkpt>
      <trkpt lat="41.803481" lon="-1.998738">
        <ele>1024.4</ele>
        <time>2023-02-11T10:42:28.000Z</time>
      </trkpt>
      <trkpt lat="41.803393" lon="-1.998662">
        <ele>1024.2</ele>
        <time>2023-02-11T10:42:29.000Z</time>
      </trkpt>
      <trkpt lat="41.803304" lon="-1.998586">
        <ele>1024.2</ele>
        <time>2023-02-11T10:42:30.000Z</time>
      </trkpt>
      <trkpt lat="41.803214" lon="-1.998508">
        <ele>1024</ele>
        <time>2023-02-11T10:42:31.000Z</time>
      </trkpt>
      <trkpt lat="41.803124" lon="-1.99843">
        <ele>1023.8</ele>
        <time>2023-02-11T10:42:32.000Z</time>
      </trkpt>
      <trkpt lat="41.803034" lon="-1.998349">
        <ele>1023.4</ele>
        <time>2023-02-11T10:42:33.000Z</time>
      </trkpt>
      <trkpt lat="41.802947" lon="-1.99827">
        <ele>1023</ele>
        <time>2023-02-11T10:42:34.000Z</time>
      </trkpt>
      <trkpt lat="41.80286" lon="-1.99819">
        <ele>1022.8</ele>
        <time>2023-02-11T10:42:35.000Z</time>
      </trkpt>
      <trkpt lat="41.802775" lon="-1.998116">
        <ele>1022.4</ele>
        <time>2023-02-11T10:42:36.000Z</time>
      </trkpt>
      <trkpt lat="41.802691" lon="-1.998043">
        <ele>1022.2</ele>
        <time>2023-02-11T10:42:37.000Z</time>
      </trkpt>
      <trkpt lat="41.802607" lon="-1.997967">
        <ele>1022</ele>
        <time>2023-02-11T10:42:38.000Z</time>
      </trkpt>
      <trkpt lat="41.802524" lon="-1.997892">
        <ele>1021.8</ele>
        <time>2023-02-11T10:42:39.000Z</time>
      </trkpt>
      <trkpt lat="41.802442" lon="-1.997817">
        <ele>1021.6</ele>
        <time>2023-02-11T10:42:40.000Z</time>
      </trkpt>
      <trkpt lat="41.802359" lon="-1.997741">
        <ele>1021.4</ele>
        <time>2023-02-11T10:42:41.000Z</time>
      </trkpt>
      <trkpt lat="41.802277" lon="-1.997671">
        <ele>1021.2</ele>
        <time>2023-02-11T10:42:42.000Z</time>
      </trkpt>
      <trkpt lat="41.802195" lon="-1.997601">
        <ele>1021.2</ele>
        <time>2023-02-11T10:42:43.000Z</time>
      </trkpt>
      <trkpt lat="41.802117" lon="-1.99753">
        <ele>1021</ele>
        <time>2023-02-11T10:42:44.000Z</time>
      </trkpt>
      <trkpt lat="41.802036" lon="-1.997457">
        <ele>1020.8</ele>
        <time>2023-02-11T10:42:45.000Z</time>
      </trkpt>
      <trkpt lat="41.801957" lon="-1.997382">
        <ele>1020.8</ele>
        <time>2023-02-11T10:42:46.000Z</time>
      </trkpt>
      <trkpt lat="41.801877" lon="-1.997306">
        <ele>1020.6</ele>
        <time>2023-02-11T10:42:47.000Z</time>
      </trkpt>
      <trkpt lat="41.801797" lon="-1.997235">
        <ele>1020.6</ele>
        <time>2023-02-11T10:42:48.000Z</time>
      </trkpt>
      <trkpt lat="41.801717" lon="-1.997163">
        <ele>1020.6</ele>
        <time>2023-02-11T10:42:49.000Z</time>
      </trkpt>
      <trkpt lat="41.801639" lon="-1.997093">
        <ele>1020.6</ele>
        <time>2023-02-11T10:42:50.000Z</time>
      </trkpt>
      <trkpt lat="41.801562" lon="-1.997026">
        <ele>1020.6</ele>
        <time>2023-02-11T10:42:51.000Z</time>
      </trkpt>
      <trkpt lat="41.801488" lon="-1.996962">
        <ele>1020.6</ele>
        <time>2023-02-11T10:42:52.000Z</time>
      </trkpt>
      <trkpt lat="41.801417" lon="-1.9969">
        <ele>1020.6</ele>
        <time>2023-02-11T10:42:53.000Z</time>
      </trkpt>
      <trkpt lat="41.801347" lon="-1.996839">
        <ele>1020.8</ele>
        <time>2023-02-11T10:42:54.000Z</time>
      </trkpt>
      <trkpt lat="41.801276" lon="-1.996779">
        <ele>1020.8</ele>
        <time>2023-02-11T10:42:55.000Z</time>
      </trkpt>
      <trkpt lat="41.801208" lon="-1.996719">
        <ele>1021</ele>
        <time>2023-02-11T10:42:56.000Z</time>
      </trkpt>
      <trkpt lat="41.801142" lon="-1.996659">
        <ele>1021</ele>
        <time>2023-02-11T10:42:57.000Z</time>
      </trkpt>
      <trkpt lat="41.801075" lon="-1.996596">
        <ele>1021.6</ele>
        <time>2023-02-11T10:42:58.000Z</time>
      </trkpt>
      <trkpt lat="41.801008" lon="-1.996534">
        <ele>1021.8</ele>
        <time>2023-02-11T10:42:59.000Z</time>
      </trkpt>
      <trkpt lat="41.80094" lon="-1.996476">
        <ele>1022.4</ele>
        <time>2023-02-11T10:43:00.000Z</time>
      </trkpt>
      <trkpt lat="41.800873" lon="-1.996419">
        <ele>1023</ele>
        <time>2023-02-11T10:43:01.000Z</time>
      </trkpt>
      <trkpt lat="41.800809" lon="-1.996362">
        <ele>1023.2</ele>
        <time>2023-02-11T10:43:02.000Z</time>
      </trkpt>
      <trkpt lat="41.800746" lon="-1.996308">
        <ele>1023.6</ele>
        <time>2023-02-11T10:43:03.000Z</time>
      </trkpt>
      <trkpt lat="41.800685" lon="-1.996258">
        <ele>1023.8</ele>
        <time>2023-02-11T10:43:04.000Z</time>
      </trkpt>
      <trkpt lat="41.800627" lon="-1.99621">
        <ele>1024.4</ele>
        <time>2023-02-11T10:43:05.000Z</time>
      </trkpt>
      <trkpt lat="41.80057" lon="-1.996162">
        <ele>1024.4</ele>
        <time>2023-02-11T10:43:06.000Z</time>
      </trkpt>
      <trkpt lat="41.800514" lon="-1.996113">
        <ele>1025</ele>
        <time>2023-02-11T10:43:07.000Z</time>
      </trkpt>
      <trkpt lat="41.800462" lon="-1.996064">
        <ele>1025.4</ele>
        <time>2023-02-11T10:43:08.000Z</time>
      </trkpt>
      <trkpt lat="41.800412" lon="-1.996016">
        <ele>1026</ele>
        <time>2023-02-11T10:43:09.000Z</time>
      </trkpt>
      <trkpt lat="41.800363" lon="-1.995969">
        <ele>1026.4</ele>
        <time>2023-02-11T10:43:10.000Z</time>
      </trkpt>
      <trkpt lat="41.800316" lon="-1.995923">
        <ele>1026.6</ele>
        <time>2023-02-11T10:43:11.000Z</time>
      </trkpt>
      <trkpt lat="41.800268" lon="-1.99588">
        <ele>1026.8</ele>
        <time>2023-02-11T10:43:12.000Z</time>
      </trkpt>
      <trkpt lat="41.800218" lon="-1.995837">
        <ele>1026.8</ele>
        <time>2023-02-11T10:43:13.000Z</time>
      </trkpt>
      <trkpt lat="41.800168" lon="-1.995795">
        <ele>1027</ele>
        <time>2023-02-11T10:43:14.000Z</time>
      </trkpt>
      <trkpt lat="41.800118" lon="-1.995752">
        <ele>1027</ele>
        <time>2023-02-11T10:43:15.000Z</time>
      </trkpt>
      <trkpt lat="41.800068" lon="-1.995708">
        <ele>1027.2</ele>
        <time>2023-02-11T10:43:16.000Z</time>
      </trkpt>
      <trkpt lat="41.800018" lon="-1.995664">
        <ele>1027.4</ele>
        <time>2023-02-11T10:43:17.000Z</time>
      </trkpt>
      <trkpt lat="41.799967" lon="-1.995623">
        <ele>1027.6</ele>
        <time>2023-02-11T10:43:18.000Z</time>
      </trkpt>
      <trkpt lat="41.799916" lon="-1.995583">
        <ele>1027.8</ele>
        <time>2023-02-11T10:43:19.000Z</time>
      </trkpt>
      <trkpt lat="41.799867" lon="-1.995541">
        <ele>1028</ele>
        <time>2023-02-11T10:43:20.000Z</time>
      </trkpt>
      <trkpt lat="41.799816" lon="-1.995501">
        <ele>1028</ele>
        <time>2023-02-11T10:43:21.000Z</time>
      </trkpt>
      <trkpt lat="41.799762" lon="-1.99546">
        <ele>1028.2</ele>
        <time>2023-02-11T10:43:22.000Z</time>
      </trkpt>
      <trkpt lat="41.799707" lon="-1.99542">
        <ele>1028.4</ele>
        <time>2023-02-11T10:43:23.000Z</time>
      </trkpt>
      <trkpt lat="41.799651" lon="-1.995383">
        <ele>1028.6</ele>
        <time>2023-02-11T10:43:24.000Z</time>
      </trkpt>
      <trkpt lat="41.799591" lon="-1.995344">
        <ele>1029</ele>
        <time>2023-02-11T10:43:25.000Z</time>
      </trkpt>
      <trkpt lat="41.79953" lon="-1.995306">
        <ele>1029</ele>
        <time>2023-02-11T10:43:26.000Z</time>
      </trkpt>
      <trkpt lat="41.799468" lon="-1.995271">
        <ele>1029.2</ele>
        <time>2023-02-11T10:43:27.000Z</time>
      </trkpt>
      <trkpt lat="41.799403" lon="-1.995238">
        <ele>1029.4</ele>
        <time>2023-02-11T10:43:28.000Z</time>
      </trkpt>
      <trkpt lat="41.799333" lon="-1.995214">
        <ele>1029.6</ele>
        <time>2023-02-11T10:43:29.000Z</time>
      </trkpt>
      <trkpt lat="41.799261" lon="-1.995191">
        <ele>1029.6</ele>
        <time>2023-02-11T10:43:30.000Z</time>
      </trkpt>
      <trkpt lat="41.799187" lon="-1.99517">
        <ele>1029.8</ele>
        <time>2023-02-11T10:43:31.000Z</time>
      </trkpt>
      <trkpt lat="41.799113" lon="-1.995152">
        <ele>1029.8</ele>
        <time>2023-02-11T10:43:32.000Z</time>
      </trkpt>
      <trkpt lat="41.799039" lon="-1.99514">
        <ele>1030</ele>
        <time>2023-02-11T10:43:33.000Z</time>
      </trkpt>
      <trkpt lat="41.798964" lon="-1.995134">
        <ele>1030.2</ele>
        <time>2023-02-11T10:43:34.000Z</time>
      </trkpt>
      <trkpt lat="41.798887" lon="-1.995131">
        <ele>1030.2</ele>
        <time>2023-02-11T10:43:35.000Z</time>
      </trkpt>
      <trkpt lat="41.79881" lon="-1.99513">
        <ele>1030.2</ele>
        <time>2023-02-11T10:43:36.000Z</time>
      </trkpt>
      <trkpt lat="41.798728" lon="-1.995131">
        <ele>1030.2</ele>
        <time>2023-02-11T10:43:37.000Z</time>
      </trkpt>
      <trkpt lat="41.798645" lon="-1.995131">
        <ele>1030.4</ele>
        <time>2023-02-11T10:43:38.000Z</time>
      </trkpt>
      <trkpt lat="41.798559" lon="-1.995131">
        <ele>1030.4</ele>
        <time>2023-02-11T10:43:39.000Z</time>
      </trkpt>
      <trkpt lat="41.79847" lon="-1.995132">
        <ele>1030.4</ele>
        <time>2023-02-11T10:43:40.000Z</time>
      </trkpt>
      <trkpt lat="41.798379" lon="-1.995135">
        <ele>1030.4</ele>
        <time>2023-02-11T10:43:41.000Z</time>
      </trkpt>
      <trkpt lat="41.798286" lon="-1.995137">
        <ele>1030.4</ele>
        <time>2023-02-11T10:43:42.000Z</time>
      </trkpt>
      <trkpt lat="41.79819" lon="-1.995139">
        <ele>1030.4</ele>
        <time>2023-02-11T10:43:43.000Z</time>
      </trkpt>
      <trkpt lat="41.798093" lon="-1.995139">
        <ele>1030.2</ele>
        <time>2023-02-11T10:43:44.000Z</time>
      </trkpt>
      <trkpt lat="41.797994" lon="-1.995136">
        <ele>1029.6</ele>
        <time>2023-02-11T10:43:45.000Z</time>
      </trkpt>
      <trkpt lat="41.797895" lon="-1.995133">
        <ele>1029.4</ele>
        <time>2023-02-11T10:43:46.000Z</time>
      </trkpt>
      <trkpt lat="41.797793" lon="-1.995132">
        <ele>1029.2</ele>
        <time>2023-02-11T10:43:47.000Z</time>
      </trkpt>
      <trkpt lat="41.797686" lon="-1.995132">
        <ele>1029.2</ele>
        <time>2023-02-11T10:43:48.000Z</time>
      </trkpt>
      <trkpt lat="41.797577" lon="-1.995133">
        <ele>1028.2</ele>
        <time>2023-02-11T10:43:49.000Z</time>
      </trkpt>
      <trkpt lat="41.797467" lon="-1.995133">
        <ele>1027.6</ele>
        <time>2023-02-11T10:43:50.000Z</time>
      </trkpt>
      <trkpt lat="41.797357" lon="-1.995132">
        <ele>1027.2</ele>
        <time>2023-02-11T10:43:51.000Z</time>
      </trkpt>
      <trkpt lat="41.797247" lon="-1.99513">
        <ele>1026.4</ele>
        <time>2023-02-11T10:43:52.000Z</time>
      </trkpt>
      <trkpt lat="41.797138" lon="-1.995129">
        <ele>1026</ele>
        <time>2023-02-11T10:43:53.000Z</time>
      </trkpt>
      <trkpt lat="41.79703" lon="-1.995128">
        <ele>1025.2</ele>
        <time>2023-02-11T10:43:54.000Z</time>
      </trkpt>
      <trkpt lat="41.796924" lon="-1.995124">
        <ele>1025</ele>
        <time>2023-02-11T10:43:55.000Z</time>
      </trkpt>
      <trkpt lat="41.79682" lon="-1.995122">
        <ele>1024.4</ele>
        <time>2023-02-11T10:43:56.000Z</time>
      </trkpt>
      <trkpt lat="41.796717" lon="-1.995121">
        <ele>1024.2</ele>
        <time>2023-02-11T10:43:57.000Z</time>
      </trkpt>
      <trkpt lat="41.796614" lon="-1.995122">
        <ele>1023.8</ele>
        <time>2023-02-11T10:43:58.000Z</time>
      </trkpt>
      <trkpt lat="41.796512" lon="-1.995124">
        <ele>1023.4</ele>
        <time>2023-02-11T10:43:59.000Z</time>
      </trkpt>
      <trkpt lat="41.796411" lon="-1.995127">
        <ele>1023.4</ele>
        <time>2023-02-11T10:44:00.000Z</time>
      </trkpt>
      <trkpt lat="41.796312" lon="-1.995129">
        <ele>1023.2</ele>
        <time>2023-02-11T10:44:01.000Z</time>
      </trkpt>
      <trkpt lat="41.796215" lon="-1.99513">
        <ele>1023</ele>
        <time>2023-02-11T10:44:02.000Z</time>
      </trkpt>
      <trkpt lat="41.796118" lon="-1.995134">
        <ele>1022.8</ele>
        <time>2023-02-11T10:44:03.000Z</time>
      </trkpt>
      <trkpt lat="41.796023" lon="-1.995134">
        <ele>1022.6</ele>
        <time>2023-02-11T10:44:04.000Z</time>
      </trkpt>
      <trkpt lat="41.795929" lon="-1.995132">
        <ele>1022.4</ele>
        <time>2023-02-11T10:44:05.000Z</time>
      </trkpt>
      <trkpt lat="41.795834" lon="-1.995132">
        <ele>1022.4</ele>
        <time>2023-02-11T10:44:06.000Z</time>
      </trkpt>
      <trkpt lat="41.79574" lon="-1.995132">
        <ele>1022.2</ele>
        <time>2023-02-11T10:44:07.000Z</time>
      </trkpt>
      <trkpt lat="41.795644" lon="-1.995132">
        <ele>1022.2</ele>
        <time>2023-02-11T10:44:08.000Z</time>
      </trkpt>
      <trkpt lat="41.795549" lon="-1.99513">
        <ele>1022.2</ele>
        <time>2023-02-11T10:44:09.000Z</time>
      </trkpt>
      <trkpt lat="41.795453" lon="-1.995121">
        <ele>1022.2</ele>
        <time>2023-02-11T10:44:10.000Z</time>
      </trkpt>
      <trkpt lat="41.795358" lon="-1.995108">
        <ele>1022.2</ele>
        <time>2023-02-11T10:44:11.000Z</time>
      </trkpt>
      <trkpt lat="41.795265" lon="-1.995089">
        <ele>1022.2</ele>
        <time>2023-02-11T10:44:12.000Z</time>
      </trkpt>
      <trkpt lat="41.795173" lon="-1.995065">
        <ele>1022</ele>
        <time>2023-02-11T10:44:13.000Z</time>
      </trkpt>
      <trkpt lat="41.795079" lon="-1.995033">
        <ele>1021.8</ele>
        <time>2023-02-11T10:44:14.000Z</time>
      </trkpt>
      <trkpt lat="41.794986" lon="-1.994995">
        <ele>1021.6</ele>
        <time>2023-02-11T10:44:15.000Z</time>
      </trkpt>
      <trkpt lat="41.794895" lon="-1.99495">
        <ele>1021.4</ele>
        <time>2023-02-11T10:44:16.000Z</time>
      </trkpt>
      <trkpt lat="41.794807" lon="-1.994898">
        <ele>1021.4</ele>
        <time>2023-02-11T10:44:17.000Z</time>
      </trkpt>
      <trkpt lat="41.794721" lon="-1.994841">
        <ele>1021.2</ele>
        <time>2023-02-11T10:44:18.000Z</time>
      </trkpt>
      <trkpt lat="41.794638" lon="-1.994779">
        <ele>1021</ele>
        <time>2023-02-11T10:44:19.000Z</time>
      </trkpt>
      <trkpt lat="41.794556" lon="-1.994714">
        <ele>1020.8</ele>
        <time>2023-02-11T10:44:20.000Z</time>
      </trkpt>
      <trkpt lat="41.794474" lon="-1.994648">
        <ele>1020.8</ele>
        <time>2023-02-11T10:44:21.000Z</time>
      </trkpt>
      <trkpt lat="41.794392" lon="-1.99458">
        <ele>1020.8</ele>
        <time>2023-02-11T10:44:22.000Z</time>
      </trkpt>
      <trkpt lat="41.794308" lon="-1.994512">
        <ele>1020.6</ele>
        <time>2023-02-11T10:44:23.000Z</time>
      </trkpt>
      <trkpt lat="41.794225" lon="-1.994444">
        <ele>1020.6</ele>
        <time>2023-02-11T10:44:24.000Z</time>
      </trkpt>
      <trkpt lat="41.794142" lon="-1.994374">
        <ele>1020.4</ele>
        <time>2023-02-11T10:44:25.000Z</time>
      </trkpt>
      <trkpt lat="41.794059" lon="-1.994303">
        <ele>1020.4</ele>
        <time>2023-02-11T10:44:26.000Z</time>
      </trkpt>
      <trkpt lat="41.793977" lon="-1.994236">
        <ele>1020.4</ele>
        <time>2023-02-11T10:44:27.000Z</time>
      </trkpt>
      <trkpt lat="41.793892" lon="-1.99417">
        <ele>1020.4</ele>
        <time>2023-02-11T10:44:28.000Z</time>
      </trkpt>
      <trkpt lat="41.793807" lon="-1.994106">
        <ele>1020.4</ele>
        <time>2023-02-11T10:44:29.000Z</time>
      </trkpt>
      <trkpt lat="41.793724" lon="-1.994042">
        <ele>1020.4</ele>
        <time>2023-02-11T10:44:30.000Z</time>
      </trkpt>
      <trkpt lat="41.79364" lon="-1.993975">
        <ele>1020.2</ele>
        <time>2023-02-11T10:44:31.000Z</time>
      </trkpt>
      <trkpt lat="41.793558" lon="-1.993911">
        <ele>1020.2</ele>
        <time>2023-02-11T10:44:32.000Z</time>
      </trkpt>
      <trkpt lat="41.793475" lon="-1.993845">
        <ele>1020.2</ele>
        <time>2023-02-11T10:44:33.000Z</time>
      </trkpt>
      <trkpt lat="41.793394" lon="-1.993779">
        <ele>1020.2</ele>
        <time>2023-02-11T10:44:34.000Z</time>
      </trkpt>
      <trkpt lat="41.793312" lon="-1.993715">
        <ele>1020.2</ele>
        <time>2023-02-11T10:44:35.000Z</time>
      </trkpt>
      <trkpt lat="41.79323" lon="-1.993651">
        <ele>1020.2</ele>
        <time>2023-02-11T10:44:36.000Z</time>
      </trkpt>
      <trkpt lat="41.793149" lon="-1.993586">
        <ele>1020</ele>
        <time>2023-02-11T10:44:37.000Z</time>
      </trkpt>
      <trkpt lat="41.793068" lon="-1.993522">
        <ele>1020</ele>
        <time>2023-02-11T10:44:38.000Z</time>
      </trkpt>
      <trkpt lat="41.792988" lon="-1.993457">
        <ele>1020</ele>
        <time>2023-02-11T10:44:39.000Z</time>
      </trkpt>
      <trkpt lat="41.792909" lon="-1.993391">
        <ele>1020</ele>
        <time>2023-02-11T10:44:40.000Z</time>
      </trkpt>
      <trkpt lat="41.79283" lon="-1.993327">
        <ele>1019.8</ele>
        <time>2023-02-11T10:44:41.000Z</time>
      </trkpt>
      <trkpt lat="41.792752" lon="-1.993261">
        <ele>1019.8</ele>
        <time>2023-02-11T10:44:42.000Z</time>
      </trkpt>
      <trkpt lat="41.792676" lon="-1.993194">
        <ele>1019.8</ele>
        <time>2023-02-11T10:44:43.000Z</time>
      </trkpt>
      <trkpt lat="41.792598" lon="-1.993131">
        <ele>1019.8</ele>
        <time>2023-02-11T10:44:44.000Z</time>
      </trkpt>
      <trkpt lat="41.792519" lon="-1.993068">
        <ele>1019.6</ele>
        <time>2023-02-11T10:44:45.000Z</time>
      </trkpt>
      <trkpt lat="41.792442" lon="-1.993005">
        <ele>1019.6</ele>
        <time>2023-02-11T10:44:46.000Z</time>
      </trkpt>
      <trkpt lat="41.792365" lon="-1.992943">
        <ele>1019.6</ele>
        <time>2023-02-11T10:44:47.000Z</time>
      </trkpt>
      <trkpt lat="41.792289" lon="-1.992881">
        <ele>1019.6</ele>
        <time>2023-02-11T10:44:48.000Z</time>
      </trkpt>
      <trkpt lat="41.792215" lon="-1.992818">
        <ele>1019.6</ele>
        <time>2023-02-11T10:44:49.000Z</time>
      </trkpt>
      <trkpt lat="41.792142" lon="-1.992757">
        <ele>1019.6</ele>
        <time>2023-02-11T10:44:50.000Z</time>
      </trkpt>
      <trkpt lat="41.792069" lon="-1.992699">
        <ele>1019.6</ele>
        <time>2023-02-11T10:44:51.000Z</time>
      </trkpt>
      <trkpt lat="41.791996" lon="-1.99264">
        <ele>1019.8</ele>
        <time>2023-02-11T10:44:52.000Z</time>
      </trkpt>
      <trkpt lat="41.791926" lon="-1.99258">
        <ele>1019.8</ele>
        <time>2023-02-11T10:44:53.000Z</time>
      </trkpt>
      <trkpt lat="41.791856" lon="-1.992518">
        <ele>1019.8</ele>
        <time>2023-02-11T10:44:54.000Z</time>
      </trkpt>
      <trkpt lat="41.791785" lon="-1.992456">
        <ele>1020</ele>
        <time>2023-02-11T10:44:55.000Z</time>
      </trkpt>
      <trkpt lat="41.791713" lon="-1.992396">
        <ele>1020</ele>
        <time>2023-02-11T10:44:56.000Z</time>
      </trkpt>
      <trkpt lat="41.791641" lon="-1.992335">
        <ele>1020</ele>
        <time>2023-02-11T10:44:57.000Z</time>
      </trkpt>
      <trkpt lat="41.79157" lon="-1.992268">
        <ele>1020</ele>
        <time>2023-02-11T10:44:58.000Z</time>
      </trkpt>
      <trkpt lat="41.791495" lon="-1.992204">
        <ele>1020</ele>
        <time>2023-02-11T10:44:59.000Z</time>
      </trkpt>
      <trkpt lat="41.791418" lon="-1.992143">
        <ele>1020</ele>
        <time>2023-02-11T10:45:00.000Z</time>
      </trkpt>
      <trkpt lat="41.79134" lon="-1.992081">
        <ele>1020.2</ele>
        <time>2023-02-11T10:45:01.000Z</time>
      </trkpt>
      <trkpt lat="41.791265" lon="-1.99202">
        <ele>1020.2</ele>
        <time>2023-02-11T10:45:02.000Z</time>
      </trkpt>
      <trkpt lat="41.791192" lon="-1.991958">
        <ele>1020.2</ele>
        <time>2023-02-11T10:45:03.000Z</time>
      </trkpt>
      <trkpt lat="41.791121" lon="-1.991899">
        <ele>1020.4</ele>
        <time>2023-02-11T10:45:04.000Z</time>
      </trkpt>
      <trkpt lat="41.79105" lon="-1.991839">
        <ele>1020.4</ele>
        <time>2023-02-11T10:45:05.000Z</time>
      </trkpt>
      <trkpt lat="41.790978" lon="-1.991779">
        <ele>1020.6</ele>
        <time>2023-02-11T10:45:06.000Z</time>
      </trkpt>
      <trkpt lat="41.790906" lon="-1.99172">
        <ele>1020.6</ele>
        <time>2023-02-11T10:45:07.000Z</time>
      </trkpt>
      <trkpt lat="41.790833" lon="-1.991661">
        <ele>1020.8</ele>
        <time>2023-02-11T10:45:08.000Z</time>
      </trkpt>
      <trkpt lat="41.790758" lon="-1.991599">
        <ele>1021</ele>
        <time>2023-02-11T10:45:09.000Z</time>
      </trkpt>
      <trkpt lat="41.790686" lon="-1.991537">
        <ele>1021</ele>
        <time>2023-02-11T10:45:10.000Z</time>
      </trkpt>
      <trkpt lat="41.790613" lon="-1.991475">
        <ele>1021</ele>
        <time>2023-02-11T10:45:11.000Z</time>
      </trkpt>
      <trkpt lat="41.790541" lon="-1.991415">
        <ele>1021</ele>
        <time>2023-02-11T10:45:12.000Z</time>
      </trkpt>
      <trkpt lat="41.790468" lon="-1.991355">
        <ele>1021</ele>
        <time>2023-02-11T10:45:13.000Z</time>
      </trkpt>
      <trkpt lat="41.790396" lon="-1.991294">
        <ele>1021.2</ele>
        <time>2023-02-11T10:45:14.000Z</time>
      </trkpt>
      <trkpt lat="41.790323" lon="-1.991234">
        <ele>1021.2</ele>
        <time>2023-02-11T10:45:15.000Z</time>
      </trkpt>
      <trkpt lat="41.79025" lon="-1.991173">
        <ele>1021.2</ele>
        <time>2023-02-11T10:45:16.000Z</time>
      </trkpt>
      <trkpt lat="41.790178" lon="-1.99111">
        <ele>1021.2</ele>
        <time>2023-02-11T10:45:17.000Z</time>
      </trkpt>
      <trkpt lat="41.790105" lon="-1.991049">
        <ele>1021.2</ele>
        <time>2023-02-11T10:45:18.000Z</time>
      </trkpt>
      <trkpt lat="41.790032" lon="-1.990989">
        <ele>1021.2</ele>
        <time>2023-02-11T10:45:19.000Z</time>
      </trkpt>
      <trkpt lat="41.789959" lon="-1.990929">
        <ele>1021.2</ele>
        <time>2023-02-11T10:45:20.000Z</time>
      </trkpt>
      <trkpt lat="41.789887" lon="-1.990871">
        <ele>1021.4</ele>
        <time>2023-02-11T10:45:21.000Z</time>
      </trkpt>
      <trkpt lat="41.789814" lon="-1.990812">
        <ele>1021.4</ele>
        <time>2023-02-11T10:45:22.000Z</time>
      </trkpt>
      <trkpt lat="41.789743" lon="-1.990756">
        <ele>1021.4</ele>
        <time>2023-02-11T10:45:23.000Z</time>
      </trkpt>
      <trkpt lat="41.789671" lon="-1.990701">
        <ele>1021.6</ele>
        <time>2023-02-11T10:45:24.000Z</time>
      </trkpt>
      <trkpt lat="41.7896" lon="-1.990647">
        <ele>1021.6</ele>
        <time>2023-02-11T10:45:25.000Z</time>
      </trkpt>
      <trkpt lat="41.789531" lon="-1.990593">
        <ele>1021.6</ele>
        <time>2023-02-11T10:45:26.000Z</time>
      </trkpt>
      <trkpt lat="41.789463" lon="-1.990538">
        <ele>1021.8</ele>
        <time>2023-02-11T10:45:27.000Z</time>
      </trkpt>
      <trkpt lat="41.789396" lon="-1.990486">
        <ele>1021.8</ele>
        <time>2023-02-11T10:45:28.000Z</time>
      </trkpt>
      <trkpt lat="41.789329" lon="-1.990434">
        <ele>1021.8</ele>
        <time>2023-02-11T10:45:29.000Z</time>
      </trkpt>
      <trkpt lat="41.789264" lon="-1.990382">
        <ele>1021.8</ele>
        <time>2023-02-11T10:45:30.000Z</time>
      </trkpt>
      <trkpt lat="41.789199" lon="-1.990333">
        <ele>1021.8</ele>
        <time>2023-02-11T10:45:31.000Z</time>
      </trkpt>
      <trkpt lat="41.789136" lon="-1.990283">
        <ele>1022</ele>
        <time>2023-02-11T10:45:32.000Z</time>
      </trkpt>
      <trkpt lat="41.789073" lon="-1.990235">
        <ele>1022</ele>
        <time>2023-02-11T10:45:33.000Z</time>
      </trkpt>
      <trkpt lat="41.789012" lon="-1.990186">
        <ele>1022.4</ele>
        <time>2023-02-11T10:45:34.000Z</time>
      </trkpt>
      <trkpt lat="41.78895" lon="-1.990135">
        <ele>1022.6</ele>
        <time>2023-02-11T10:45:35.000Z</time>
      </trkpt>
      <trkpt lat="41.788888" lon="-1.990086">
        <ele>1022.6</ele>
        <time>2023-02-11T10:45:36.000Z</time>
      </trkpt>
      <trkpt lat="41.788827" lon="-1.990037">
        <ele>1023</ele>
        <time>2023-02-11T10:45:37.000Z</time>
      </trkpt>
      <trkpt lat="41.788768" lon="-1.98999">
        <ele>1023.2</ele>
        <time>2023-02-11T10:45:38.000Z</time>
      </trkpt>
      <trkpt lat="41.78871" lon="-1.989943">
        <ele>1023.4</ele>
        <time>2023-02-11T10:45:39.000Z</time>
      </trkpt>
      <trkpt lat="41.788652" lon="-1.989894">
        <ele>1023.6</ele>
        <time>2023-02-11T10:45:40.000Z</time>
      </trkpt>
      <trkpt lat="41.788595" lon="-1.989846">
        <ele>1023.8</ele>
        <time>2023-02-11T10:45:41.000Z</time>
      </trkpt>
      <trkpt lat="41.788538" lon="-1.989798">
        <ele>1023.8</ele>
        <time>2023-02-11T10:45:42.000Z</time>
      </trkpt>
      <trkpt lat="41.78848" lon="-1.989748">
        <ele>1024</ele>
        <time>2023-02-11T10:45:43.000Z</time>
      </trkpt>
      <trkpt lat="41.788421" lon="-1.989697">
        <ele>1024.2</ele>
        <time>2023-02-11T10:45:44.000Z</time>
      </trkpt>
      <trkpt lat="41.788362" lon="-1.989644">
        <ele>1024.2</ele>
        <time>2023-02-11T10:45:45.000Z</time>
      </trkpt>
      <trkpt lat="41.788304" lon="-1.989589">
        <ele>1024.6</ele>
        <time>2023-02-11T10:45:46.000Z</time>
      </trkpt>
      <trkpt lat="41.788243" lon="-1.989532">
        <ele>1024.6</ele>
        <time>2023-02-11T10:45:47.000Z</time>
      </trkpt>
      <trkpt lat="41.788183" lon="-1.989475">
        <ele>1024.8</ele>
        <time>2023-02-11T10:45:48.000Z</time>
      </trkpt>
      <trkpt lat="41.78812" lon="-1.989416">
        <ele>1025</ele>
        <time>2023-02-11T10:45:49.000Z</time>
      </trkpt>
      <trkpt lat="41.788059" lon="-1.989359">
        <ele>1025</ele>
        <time>2023-02-11T10:45:50.000Z</time>
      </trkpt>
      <trkpt lat="41.787993" lon="-1.989302">
        <ele>1025.2</ele>
        <time>2023-02-11T10:45:51.000Z</time>
      </trkpt>
      <trkpt lat="41.787923" lon="-1.989246">
        <ele>1025.4</ele>
        <time>2023-02-11T10:45:52.000Z</time>
      </trkpt>
      <trkpt lat="41.787853" lon="-1.989188">
        <ele>1025.4</ele>
        <time>2023-02-11T10:45:53.000Z</time>
      </trkpt>
      <trkpt lat="41.787782" lon="-1.98913">
        <ele>1025.4</ele>
        <time>2023-02-11T10:45:54.000Z</time>
      </trkpt>
      <trkpt lat="41.78771" lon="-1.989073">
        <ele>1025.4</ele>
        <time>2023-02-11T10:45:55.000Z</time>
      </trkpt>
      <trkpt lat="41.787638" lon="-1.98902">
        <ele>1025.6</ele>
        <time>2023-02-11T10:45:56.000Z</time>
      </trkpt>
      <trkpt lat="41.787568" lon="-1.988966">
        <ele>1025.6</ele>
        <time>2023-02-11T10:45:57.000Z</time>
      </trkpt>
      <trkpt lat="41.787496" lon="-1.988909">
        <ele>1025.6</ele>
        <time>2023-02-11T10:45:58.000Z</time>
      </trkpt>
      <trkpt lat="41.787423" lon="-1.988851">
        <ele>1025.6</ele>
        <time>2023-02-11T10:45:59.000Z</time>
      </trkpt>
      <trkpt lat="41.787351" lon="-1.988794">
        <ele>1025.6</ele>
        <time>2023-02-11T10:46:00.000Z</time>
      </trkpt>
      <trkpt lat="41.787278" lon="-1.988736">
        <ele>1025.8</ele>
        <time>2023-02-11T10:46:01.000Z</time>
      </trkpt>
      <trkpt lat="41.787207" lon="-1.988681">
        <ele>1025.8</ele>
        <time>2023-02-11T10:46:02.000Z</time>
      </trkpt>
      <trkpt lat="41.787136" lon="-1.988626">
        <ele>1025.8</ele>
        <time>2023-02-11T10:46:03.000Z</time>
      </trkpt>
      <trkpt lat="41.787066" lon="-1.988571">
        <ele>1026</ele>
        <time>2023-02-11T10:46:04.000Z</time>
      </trkpt>
      <trkpt lat="41.786996" lon="-1.988513">
        <ele>1026</ele>
        <time>2023-02-11T10:46:05.000Z</time>
      </trkpt>
      <trkpt lat="41.786926" lon="-1.988451">
        <ele>1026.2</ele>
        <time>2023-02-11T10:46:06.000Z</time>
      </trkpt>
      <trkpt lat="41.786856" lon="-1.988388">
        <ele>1026.4</ele>
        <time>2023-02-11T10:46:07.000Z</time>
      </trkpt>
      <trkpt lat="41.786786" lon="-1.988329">
        <ele>1026.6</ele>
        <time>2023-02-11T10:46:08.000Z</time>
      </trkpt>
      <trkpt lat="41.786717" lon="-1.988269">
        <ele>1026.6</ele>
        <time>2023-02-11T10:46:09.000Z</time>
      </trkpt>
      <trkpt lat="41.786648" lon="-1.988209">
        <ele>1026.6</ele>
        <time>2023-02-11T10:46:10.000Z</time>
      </trkpt>
      <trkpt lat="41.786578" lon="-1.988149">
        <ele>1026.6</ele>
        <time>2023-02-11T10:46:11.000Z</time>
      </trkpt>
      <trkpt lat="41.786506" lon="-1.98809">
        <ele>1026.8</ele>
        <time>2023-02-11T10:46:12.000Z</time>
      </trkpt>
      <trkpt lat="41.786435" lon="-1.988031">
        <ele>1026.8</ele>
        <time>2023-02-11T10:46:13.000Z</time>
      </trkpt>
      <trkpt lat="41.786364" lon="-1.98797">
        <ele>1026.8</ele>
        <time>2023-02-11T10:46:14.000Z</time>
      </trkpt>
      <trkpt lat="41.786292" lon="-1.987912">
        <ele>1026.8</ele>
        <time>2023-02-11T10:46:15.000Z</time>
      </trkpt>
      <trkpt lat="41.786221" lon="-1.987852">
        <ele>1026.8</ele>
        <time>2023-02-11T10:46:16.000Z</time>
      </trkpt>
      <trkpt lat="41.78615" lon="-1.98779">
        <ele>1026.8</ele>
        <time>2023-02-11T10:46:17.000Z</time>
      </trkpt>
      <trkpt lat="41.786079" lon="-1.98773">
        <ele>1026.8</ele>
        <time>2023-02-11T10:46:18.000Z</time>
      </trkpt>
      <trkpt lat="41.786007" lon="-1.987673">
        <ele>1026.8</ele>
        <time>2023-02-11T10:46:19.000Z</time>
      </trkpt>
      <trkpt lat="41.785936" lon="-1.987619">
        <ele>1027</ele>
        <time>2023-02-11T10:46:20.000Z</time>
      </trkpt>
      <trkpt lat="41.785867" lon="-1.987569">
        <ele>1027</ele>
        <time>2023-02-11T10:46:21.000Z</time>
      </trkpt>
      <trkpt lat="41.785799" lon="-1.987511">
        <ele>1027</ele>
        <time>2023-02-11T10:46:22.000Z</time>
      </trkpt>
      <trkpt lat="41.785729" lon="-1.987452">
        <ele>1027</ele>
        <time>2023-02-11T10:46:23.000Z</time>
      </trkpt>
      <trkpt lat="41.785659" lon="-1.987396">
        <ele>1027</ele>
        <time>2023-02-11T10:46:24.000Z</time>
      </trkpt>
      <trkpt lat="41.78559" lon="-1.987337">
        <ele>1027</ele>
        <time>2023-02-11T10:46:25.000Z</time>
      </trkpt>
      <trkpt lat="41.785521" lon="-1.987278">
        <ele>1027.2</ele>
        <time>2023-02-11T10:46:26.000Z</time>
      </trkpt>
      <trkpt lat="41.785451" lon="-1.987219">
        <ele>1027.2</ele>
        <time>2023-02-11T10:46:27.000Z</time>
      </trkpt>
      <trkpt lat="41.785382" lon="-1.987163">
        <ele>1027.2</ele>
        <time>2023-02-11T10:46:28.000Z</time>
      </trkpt>
      <trkpt lat="41.785311" lon="-1.987105">
        <ele>1027.2</ele>
        <time>2023-02-11T10:46:29.000Z</time>
      </trkpt>
      <trkpt lat="41.78524" lon="-1.987051">
        <ele>1027.4</ele>
        <time>2023-02-11T10:46:30.000Z</time>
      </trkpt>
      <trkpt lat="41.785171" lon="-1.986998">
        <ele>1027.4</ele>
        <time>2023-02-11T10:46:31.000Z</time>
      </trkpt>
      <trkpt lat="41.785103" lon="-1.986942">
        <ele>1027.4</ele>
        <time>2023-02-11T10:46:32.000Z</time>
      </trkpt>
      <trkpt lat="41.785035" lon="-1.986889">
        <ele>1027.6</ele>
        <time>2023-02-11T10:46:33.000Z</time>
      </trkpt>
      <trkpt lat="41.784968" lon="-1.986834">
        <ele>1027.6</ele>
        <time>2023-02-11T10:46:34.000Z</time>
      </trkpt>
      <trkpt lat="41.784904" lon="-1.986782">
        <ele>1027.8</ele>
        <time>2023-02-11T10:46:35.000Z</time>
      </trkpt>
      <trkpt lat="41.78484" lon="-1.986729">
        <ele>1027.8</ele>
        <time>2023-02-11T10:46:36.000Z</time>
      </trkpt>
      <trkpt lat="41.784777" lon="-1.986678">
        <ele>1028</ele>
        <time>2023-02-11T10:46:37.000Z</time>
      </trkpt>
      <trkpt lat="41.784718" lon="-1.986629">
        <ele>1028</ele>
        <time>2023-02-11T10:46:38.000Z</time>
      </trkpt>
      <trkpt lat="41.784659" lon="-1.986579">
        <ele>1028.4</ele>
        <time>2023-02-11T10:46:39.000Z</time>
      </trkpt>
      <trkpt lat="41.784601" lon="-1.986529">
        <ele>1028.4</ele>
        <time>2023-02-11T10:46:40.000Z</time>
      </trkpt>
      <trkpt lat="41.784544" lon="-1.986479">
        <ele>1028.8</ele>
        <time>2023-02-11T10:46:41.000Z</time>
      </trkpt>
      <trkpt lat="41.784488" lon="-1.98643">
        <ele>1029</ele>
        <time>2023-02-11T10:46:42.000Z</time>
      </trkpt>
      <trkpt lat="41.784433" lon="-1.986381">
        <ele>1029.2</ele>
        <time>2023-02-11T10:46:43.000Z</time>
      </trkpt>
      <trkpt lat="41.784377" lon="-1.986335">
        <ele>1029.6</ele>
        <time>2023-02-11T10:46:44.000Z</time>
      </trkpt>
      <trkpt lat="41.784321" lon="-1.986287">
        <ele>1029.8</ele>
        <time>2023-02-11T10:46:45.000Z</time>
      </trkpt>
      <trkpt lat="41.784266" lon="-1.986238">
        <ele>1030</ele>
        <time>2023-02-11T10:46:46.000Z</time>
      </trkpt>
      <trkpt lat="41.784207" lon="-1.986188">
        <ele>1030.2</ele>
        <time>2023-02-11T10:46:47.000Z</time>
      </trkpt>
      <trkpt lat="41.784149" lon="-1.986137">
        <ele>1030.4</ele>
        <time>2023-02-11T10:46:48.000Z</time>
      </trkpt>
      <trkpt lat="41.784093" lon="-1.986082">
        <ele>1030.6</ele>
        <time>2023-02-11T10:46:49.000Z</time>
      </trkpt>
      <trkpt lat="41.784034" lon="-1.986032">
        <ele>1030.8</ele>
        <time>2023-02-11T10:46:50.000Z</time>
      </trkpt>
      <trkpt lat="41.783974" lon="-1.985981">
        <ele>1031</ele>
        <time>2023-02-11T10:46:51.000Z</time>
      </trkpt>
      <trkpt lat="41.783916" lon="-1.98593">
        <ele>1031.2</ele>
        <time>2023-02-11T10:46:52.000Z</time>
      </trkpt>
      <trkpt lat="41.783855" lon="-1.985879">
        <ele>1031.6</ele>
        <time>2023-02-11T10:46:53.000Z</time>
      </trkpt>
      <trkpt lat="41.783794" lon="-1.985827">
        <ele>1031.6</ele>
        <time>2023-02-11T10:46:54.000Z</time>
      </trkpt>
      <trkpt lat="41.783731" lon="-1.985777">
        <ele>1031.6</ele>
        <time>2023-02-11T10:46:55.000Z</time>
      </trkpt>
      <trkpt lat="41.783669" lon="-1.985724">
        <ele>1031.8</ele>
        <time>2023-02-11T10:46:56.000Z</time>
      </trkpt>
      <trkpt lat="41.783605" lon="-1.985669">
        <ele>1031.8</ele>
        <time>2023-02-11T10:46:57.000Z</time>
      </trkpt>
      <trkpt lat="41.783542" lon="-1.985613">
        <ele>1032</ele>
        <time>2023-02-11T10:46:58.000Z</time>
      </trkpt>
      <trkpt lat="41.783481" lon="-1.985558">
        <ele>1032.2</ele>
        <time>2023-02-11T10:46:59.000Z</time>
      </trkpt>
      <trkpt lat="41.783417" lon="-1.985504">
        <ele>1032.4</ele>
        <time>2023-02-11T10:47:00.000Z</time>
      </trkpt>
      <trkpt lat="41.783353" lon="-1.985452">
        <ele>1032.6</ele>
        <time>2023-02-11T10:47:01.000Z</time>
      </trkpt>
      <trkpt lat="41.78329" lon="-1.985401">
        <ele>1032.6</ele>
        <time>2023-02-11T10:47:02.000Z</time>
      </trkpt>
      <trkpt lat="41.783226" lon="-1.985346">
        <ele>1032.8</ele>
        <time>2023-02-11T10:47:03.000Z</time>
      </trkpt>
      <trkpt lat="41.783162" lon="-1.985293">
        <ele>1032.8</ele>
        <time>2023-02-11T10:47:04.000Z</time>
      </trkpt>
      <trkpt lat="41.783098" lon="-1.985239">
        <ele>1032.8</ele>
        <time>2023-02-11T10:47:05.000Z</time>
      </trkpt>
      <trkpt lat="41.783034" lon="-1.985188">
        <ele>1032.8</ele>
        <time>2023-02-11T10:47:06.000Z</time>
      </trkpt>
      <trkpt lat="41.782968" lon="-1.985136">
        <ele>1032.8</ele>
        <time>2023-02-11T10:47:07.000Z</time>
      </trkpt>
      <trkpt lat="41.782903" lon="-1.985083">
        <ele>1033</ele>
        <time>2023-02-11T10:47:08.000Z</time>
      </trkpt>
      <trkpt lat="41.782842" lon="-1.985022">
        <ele>1033</ele>
        <time>2023-02-11T10:47:09.000Z</time>
      </trkpt>
      <trkpt lat="41.782783" lon="-1.984955">
        <ele>1033</ele>
        <time>2023-02-11T10:47:10.000Z</time>
      </trkpt>
      <trkpt lat="41.782722" lon="-1.98489">
        <ele>1033</ele>
        <time>2023-02-11T10:47:11.000Z</time>
      </trkpt>
      <trkpt lat="41.782656" lon="-1.984828">
        <ele>1033</ele>
        <time>2023-02-11T10:47:12.000Z</time>
      </trkpt>
      <trkpt lat="41.78259" lon="-1.98477">
        <ele>1033</ele>
        <time>2023-02-11T10:47:13.000Z</time>
      </trkpt>
      <trkpt lat="41.782525" lon="-1.984712">
        <ele>1033</ele>
        <time>2023-02-11T10:47:14.000Z</time>
      </trkpt>
      <trkpt lat="41.78246" lon="-1.984655">
        <ele>1033</ele>
        <time>2023-02-11T10:47:15.000Z</time>
      </trkpt>
      <trkpt lat="41.782394" lon="-1.984595">
        <ele>1033</ele>
        <time>2023-02-11T10:47:16.000Z</time>
      </trkpt>
      <trkpt lat="41.782328" lon="-1.984534">
        <ele>1033</ele>
        <time>2023-02-11T10:47:17.000Z</time>
      </trkpt>
      <trkpt lat="41.782265" lon="-1.984474">
        <ele>1033</ele>
        <time>2023-02-11T10:47:18.000Z</time>
      </trkpt>
      <trkpt lat="41.782199" lon="-1.984414">
        <ele>1033</ele>
        <time>2023-02-11T10:47:19.000Z</time>
      </trkpt>
      <trkpt lat="41.782137" lon="-1.98436">
        <ele>1033</ele>
        <time>2023-02-11T10:47:20.000Z</time>
      </trkpt>
      <trkpt lat="41.782073" lon="-1.984303">
        <ele>1033</ele>
        <time>2023-02-11T10:47:21.000Z</time>
      </trkpt>
      <trkpt lat="41.78201" lon="-1.984242">
        <ele>1033</ele>
        <time>2023-02-11T10:47:22.000Z</time>
      </trkpt>
      <trkpt lat="41.781947" lon="-1.984184">
        <ele>1033</ele>
        <time>2023-02-11T10:47:23.000Z</time>
      </trkpt>
      <trkpt lat="41.781884" lon="-1.984127">
        <ele>1033.2</ele>
        <time>2023-02-11T10:47:24.000Z</time>
      </trkpt>
      <trkpt lat="41.781818" lon="-1.984064">
        <ele>1033.2</ele>
        <time>2023-02-11T10:47:25.000Z</time>
      </trkpt>
      <trkpt lat="41.781751" lon="-1.984002">
        <ele>1033.4</ele>
        <time>2023-02-11T10:47:26.000Z</time>
      </trkpt>
      <trkpt lat="41.781685" lon="-1.983947">
        <ele>1033.4</ele>
        <time>2023-02-11T10:47:27.000Z</time>
      </trkpt>
      <trkpt lat="41.781617" lon="-1.983894">
        <ele>1033.4</ele>
        <time>2023-02-11T10:47:28.000Z</time>
      </trkpt>
      <trkpt lat="41.781547" lon="-1.983853">
        <ele>1033.6</ele>
        <time>2023-02-11T10:47:29.000Z</time>
      </trkpt>
      <trkpt lat="41.781474" lon="-1.983822">
        <ele>1033.6</ele>
        <time>2023-02-11T10:47:30.000Z</time>
      </trkpt>
      <trkpt lat="41.781401" lon="-1.983802">
        <ele>1033.8</ele>
        <time>2023-02-11T10:47:31.000Z</time>
      </trkpt>
      <trkpt lat="41.781328" lon="-1.98379">
        <ele>1033.8</ele>
        <time>2023-02-11T10:47:32.000Z</time>
      </trkpt>
      <trkpt lat="41.781253" lon="-1.983782">
        <ele>1034</ele>
        <time>2023-02-11T10:47:33.000Z</time>
      </trkpt>
      <trkpt lat="41.781177" lon="-1.983781">
        <ele>1034.2</ele>
        <time>2023-02-11T10:47:34.000Z</time>
      </trkpt>
      <trkpt lat="41.781099" lon="-1.983782">
        <ele>1034.2</ele>
        <time>2023-02-11T10:47:35.000Z</time>
      </trkpt>
      <trkpt lat="41.781026" lon="-1.983795">
        <ele>1034.4</ele>
        <time>2023-02-11T10:47:36.000Z</time>
      </trkpt>
      <trkpt lat="41.780963" lon="-1.983832">
        <ele>1034.4</ele>
        <time>2023-02-11T10:47:37.000Z</time>
      </trkpt>
      <trkpt lat="41.780901" lon="-1.983873">
        <ele>1034.4</ele>
        <time>2023-02-11T10:47:38.000Z</time>
      </trkpt>
      <trkpt lat="41.780839" lon="-1.983918">
        <ele>1034.6</ele>
        <time>2023-02-11T10:47:39.000Z</time>
      </trkpt>
      <trkpt lat="41.780778" lon="-1.983967">
        <ele>1034.8</ele>
        <time>2023-02-11T10:47:40.000Z</time>
      </trkpt>
      <trkpt lat="41.780721" lon="-1.984016">
        <ele>1035</ele>
        <time>2023-02-11T10:47:41.000Z</time>
      </trkpt>
      <trkpt lat="41.780656" lon="-1.984062">
        <ele>1035.2</ele>
        <time>2023-02-11T10:47:42.000Z</time>
      </trkpt>
      <trkpt lat="41.780596" lon="-1.984114">
        <ele>1035.4</ele>
        <time>2023-02-11T10:47:43.000Z</time>
      </trkpt>
      <trkpt lat="41.780543" lon="-1.984174">
        <ele>1035.6</ele>
        <time>2023-02-11T10:47:44.000Z</time>
      </trkpt>
      <trkpt lat="41.780501" lon="-1.984242">
        <ele>1035.8</ele>
        <time>2023-02-11T10:47:45.000Z</time>
      </trkpt>
      <trkpt lat="41.780457" lon="-1.984305">
        <ele>1036</ele>
        <time>2023-02-11T10:47:46.000Z</time>
      </trkpt>
      <trkpt lat="41.780412" lon="-1.984359">
        <ele>1036</ele>
        <time>2023-02-11T10:47:47.000Z</time>
      </trkpt>
      <trkpt lat="41.780368" lon="-1.984419">
        <ele>1036.2</ele>
        <time>2023-02-11T10:47:48.000Z</time>
      </trkpt>
      <trkpt lat="41.780323" lon="-1.984479">
        <ele>1036.2</ele>
        <time>2023-02-11T10:47:49.000Z</time>
      </trkpt>
      <trkpt lat="41.780276" lon="-1.984538">
        <ele>1036.6</ele>
        <time>2023-02-11T10:47:50.000Z</time>
      </trkpt>
      <trkpt lat="41.780224" lon="-1.984598">
        <ele>1037</ele>
        <time>2023-02-11T10:47:51.000Z</time>
      </trkpt>
      <trkpt lat="41.780173" lon="-1.98466">
        <ele>1037.2</ele>
        <time>2023-02-11T10:47:52.000Z</time>
      </trkpt>
      <trkpt lat="41.780123" lon="-1.984724">
        <ele>1037.6</ele>
        <time>2023-02-11T10:47:53.000Z</time>
      </trkpt>
      <trkpt lat="41.780068" lon="-1.984785">
        <ele>1037.8</ele>
        <time>2023-02-11T10:47:54.000Z</time>
      </trkpt>
      <trkpt lat="41.780009" lon="-1.984848">
        <ele>1038</ele>
        <time>2023-02-11T10:47:55.000Z</time>
      </trkpt>
      <trkpt lat="41.77995" lon="-1.984911">
        <ele>1038.2</ele>
        <time>2023-02-11T10:47:56.000Z</time>
      </trkpt>
      <trkpt lat="41.779897" lon="-1.984976">
        <ele>1038.4</ele>
        <time>2023-02-11T10:47:57.000Z</time>
      </trkpt>
      <trkpt lat="41.779843" lon="-1.985039">
        <ele>1038.4</ele>
        <time>2023-02-11T10:47:58.000Z</time>
      </trkpt>
      <trkpt lat="41.779791" lon="-1.985102">
        <ele>1038.6</ele>
        <time>2023-02-11T10:47:59.000Z</time>
      </trkpt>
      <trkpt lat="41.779745" lon="-1.98516">
        <ele>1038.8</ele>
        <time>2023-02-11T10:48:00.000Z</time>
      </trkpt>
      <trkpt lat="41.77971" lon="-1.985203">
        <ele>1038.8</ele>
        <time>2023-02-11T10:48:01.000Z</time>
      </trkpt>
      <trkpt lat="41.779681" lon="-1.985239">
        <ele>1039</ele>
        <time>2023-02-11T10:48:02.000Z</time>
      </trkpt>
      <trkpt lat="41.77966" lon="-1.98527">
        <ele>1039</ele>
        <time>2023-02-11T10:48:03.000Z</time>
      </trkpt>
      <trkpt lat="41.779642" lon="-1.985296">
        <ele>1038.8</ele>
        <time>2023-02-11T10:48:04.000Z</time>
      </trkpt>
      <trkpt lat="41.779628" lon="-1.985318">
        <ele>1038.8</ele>
        <time>2023-02-11T10:48:05.000Z</time>
      </trkpt>
      <trkpt lat="41.779618" lon="-1.985336">
        <ele>1039</ele>
        <time>2023-02-11T10:48:06.000Z</time>
      </trkpt>
      <trkpt lat="41.779605" lon="-1.985352">
        <ele>1039</ele>
        <time>2023-02-11T10:48:07.000Z</time>
      </trkpt>
      <trkpt lat="41.779589" lon="-1.98537">
        <ele>1039</ele>
        <time>2023-02-11T10:48:08.000Z</time>
      </trkpt>
      <trkpt lat="41.779565" lon="-1.985395">
        <ele>1039</ele>
        <time>2023-02-11T10:48:09.000Z</time>
      </trkpt>
      <trkpt lat="41.779538" lon="-1.98542">
        <ele>1039</ele>
        <time>2023-02-11T10:48:10.000Z</time>
      </trkpt>
      <trkpt lat="41.779511" lon="-1.985446">
        <ele>1039</ele>
        <time>2023-02-11T10:48:11.000Z</time>
      </trkpt>
      <trkpt lat="41.779491" lon="-1.985468">
        <ele>1039</ele>
        <time>2023-02-11T10:48:12.000Z</time>
      </trkpt>
      <trkpt lat="41.779473" lon="-1.985487">
        <ele>1039</ele>
        <time>2023-02-11T10:48:13.000Z</time>
      </trkpt>
      <trkpt lat="41.779451" lon="-1.985509">
        <ele>1039</ele>
        <time>2023-02-11T10:48:14.000Z</time>
      </trkpt>
      <trkpt lat="41.779422" lon="-1.985537">
        <ele>1039</ele>
        <time>2023-02-11T10:48:15.000Z</time>
      </trkpt>
      <trkpt lat="41.779395" lon="-1.985558">
        <ele>1039</ele>
        <time>2023-02-11T10:48:16.000Z</time>
      </trkpt>
      <trkpt lat="41.779365" lon="-1.98556">
        <ele>1039.2</ele>
        <time>2023-02-11T10:48:17.000Z</time>
      </trkpt>
      <trkpt lat="41.779331" lon="-1.985543">
        <ele>1039.2</ele>
        <time>2023-02-11T10:48:18.000Z</time>
      </trkpt>
      <trkpt lat="41.779293" lon="-1.98551">
        <ele>1039.2</ele>
        <time>2023-02-11T10:48:19.000Z</time>
      </trkpt>
      <trkpt lat="41.779255" lon="-1.985467">
        <ele>1039.2</ele>
        <time>2023-02-11T10:48:20.000Z</time>
      </trkpt>
      <trkpt lat="41.779213" lon="-1.985422">
        <ele>1039.4</ele>
        <time>2023-02-11T10:48:21.000Z</time>
      </trkpt>
      <trkpt lat="41.77916" lon="-1.985369">
        <ele>1039.4</ele>
        <time>2023-02-11T10:48:22.000Z</time>
      </trkpt>
      <trkpt lat="41.779101" lon="-1.985309">
        <ele>1039.4</ele>
        <time>2023-02-11T10:48:23.000Z</time>
      </trkpt>
      <trkpt lat="41.779063" lon="-1.985256">
        <ele>1039.6</ele>
        <time>2023-02-11T10:48:24.000Z</time>
      </trkpt>
      <trkpt lat="41.779027" lon="-1.985213">
        <ele>1039.6</ele>
        <time>2023-02-11T10:48:25.000Z</time>
      </trkpt>
      <trkpt lat="41.778994" lon="-1.985168">
        <ele>1039.8</ele>
        <time>2023-02-11T10:48:26.000Z</time>
      </trkpt>
      <trkpt lat="41.778967" lon="-1.985118">
        <ele>1039.8</ele>
        <time>2023-02-11T10:48:27.000Z</time>
      </trkpt>
      <trkpt lat="41.77894" lon="-1.985058">
        <ele>1039.8</ele>
        <time>2023-02-11T10:48:28.000Z</time>
      </trkpt>
      <trkpt lat="41.778913" lon="-1.984999">
        <ele>1040</ele>
        <time>2023-02-11T10:48:29.000Z</time>
      </trkpt>
      <trkpt lat="41.778885" lon="-1.984942">
        <ele>1040</ele>
        <time>2023-02-11T10:48:30.000Z</time>
      </trkpt>
      <trkpt lat="41.778858" lon="-1.98488">
        <ele>1040.2</ele>
        <time>2023-02-11T10:48:31.000Z</time>
      </trkpt>
      <trkpt lat="41.778831" lon="-1.984829">
        <ele>1040.2</ele>
        <time>2023-02-11T10:48:32.000Z</time>
      </trkpt>
      <trkpt lat="41.778803" lon="-1.984783">
        <ele>1040.4</ele>
        <time>2023-02-11T10:48:33.000Z</time>
      </trkpt>
      <trkpt lat="41.778757" lon="-1.984737">
        <ele>1040.4</ele>
        <time>2023-02-11T10:48:34.000Z</time>
      </trkpt>
      <trkpt lat="41.778704" lon="-1.984691">
        <ele>1040.6</ele>
        <time>2023-02-11T10:48:35.000Z</time>
      </trkpt>
      <trkpt lat="41.778643" lon="-1.984647">
        <ele>1040.8</ele>
        <time>2023-02-11T10:48:36.000Z</time>
      </trkpt>
      <trkpt lat="41.778587" lon="-1.984605">
        <ele>1041</ele>
        <time>2023-02-11T10:48:37.000Z</time>
      </trkpt>
      <trkpt lat="41.77855" lon="-1.984565">
        <ele>1041.4</ele>
        <time>2023-02-11T10:48:38.000Z</time>
      </trkpt>
      <trkpt lat="41.778511" lon="-1.984523">
        <ele>1041.6</ele>
        <time>2023-02-11T10:48:39.000Z</time>
      </trkpt>
      <trkpt lat="41.778478" lon="-1.984481">
        <ele>1042</ele>
        <time>2023-02-11T10:48:40.000Z</time>
      </trkpt>
      <trkpt lat="41.778444" lon="-1.984437">
        <ele>1042</ele>
        <time>2023-02-11T10:48:41.000Z</time>
      </trkpt>
      <trkpt lat="41.778407" lon="-1.984394">
        <ele>1042.4</ele>
        <time>2023-02-11T10:48:42.000Z</time>
      </trkpt>
      <trkpt lat="41.778369" lon="-1.984354">
        <ele>1042.6</ele>
        <time>2023-02-11T10:48:43.000Z</time>
      </trkpt>
      <trkpt lat="41.77833" lon="-1.984319">
        <ele>1043.2</ele>
        <time>2023-02-11T10:48:44.000Z</time>
      </trkpt>
      <trkpt lat="41.778296" lon="-1.984285">
        <ele>1043.4</ele>
        <time>2023-02-11T10:48:45.000Z</time>
      </trkpt>
      <trkpt lat="41.778267" lon="-1.984254">
        <ele>1044.2</ele>
        <time>2023-02-11T10:48:46.000Z</time>
      </trkpt>
      <trkpt lat="41.778239" lon="-1.984224">
        <ele>1044.6</ele>
        <time>2023-02-11T10:48:47.000Z</time>
      </trkpt>
      <trkpt lat="41.778217" lon="-1.984191">
        <ele>1045</ele>
        <time>2023-02-11T10:48:48.000Z</time>
      </trkpt>
      <trkpt lat="41.77819" lon="-1.984157">
        <ele>1045.4</ele>
        <time>2023-02-11T10:48:49.000Z</time>
      </trkpt>
      <trkpt lat="41.778159" lon="-1.984121">
        <ele>1045.8</ele>
        <time>2023-02-11T10:48:50.000Z</time>
      </trkpt>
      <trkpt lat="41.778121" lon="-1.984081">
        <ele>1046.2</ele>
        <time>2023-02-11T10:48:51.000Z</time>
      </trkpt>
      <trkpt lat="41.778081" lon="-1.984036">
        <ele>1046.4</ele>
        <time>2023-02-11T10:48:52.000Z</time>
      </trkpt>
      <trkpt lat="41.77804" lon="-1.983981">
        <ele>1046.8</ele>
        <time>2023-02-11T10:48:53.000Z</time>
      </trkpt>
      <trkpt lat="41.778007" lon="-1.983936">
        <ele>1047</ele>
        <time>2023-02-11T10:48:54.000Z</time>
      </trkpt>
      <trkpt lat="41.777969" lon="-1.983891">
        <ele>1047.2</ele>
        <time>2023-02-11T10:48:55.000Z</time>
      </trkpt>
      <trkpt lat="41.777929" lon="-1.983846">
        <ele>1047.4</ele>
        <time>2023-02-11T10:48:56.000Z</time>
      </trkpt>
      <trkpt lat="41.777883" lon="-1.983802">
        <ele>1047.8</ele>
        <time>2023-02-11T10:48:57.000Z</time>
      </trkpt>
      <trkpt lat="41.777836" lon="-1.983754">
        <ele>1048</ele>
        <time>2023-02-11T10:48:58.000Z</time>
      </trkpt>
      <trkpt lat="41.777788" lon="-1.983691">
        <ele>1048</ele>
        <time>2023-02-11T10:48:59.000Z</time>
      </trkpt>
      <trkpt lat="41.777755" lon="-1.983639">
        <ele>1048.4</ele>
        <time>2023-02-11T10:49:00.000Z</time>
      </trkpt>
      <trkpt lat="41.777721" lon="-1.983589">
        <ele>1048.4</ele>
        <time>2023-02-11T10:49:01.000Z</time>
      </trkpt>
      <trkpt lat="41.777689" lon="-1.983551">
        <ele>1048.8</ele>
        <time>2023-02-11T10:49:02.000Z</time>
      </trkpt>
      <trkpt lat="41.777657" lon="-1.983504">
        <ele>1048.8</ele>
        <time>2023-02-11T10:49:03.000Z</time>
      </trkpt>
      <trkpt lat="41.777626" lon="-1.983447">
        <ele>1049</ele>
        <time>2023-02-11T10:49:04.000Z</time>
      </trkpt>
      <trkpt lat="41.777584" lon="-1.983389">
        <ele>1049.4</ele>
        <time>2023-02-11T10:49:05.000Z</time>
      </trkpt>
      <trkpt lat="41.777532" lon="-1.983331">
        <ele>1049.8</ele>
        <time>2023-02-11T10:49:06.000Z</time>
      </trkpt>
      <trkpt lat="41.777471" lon="-1.983271">
        <ele>1050</ele>
        <time>2023-02-11T10:49:07.000Z</time>
      </trkpt>
      <trkpt lat="41.77741" lon="-1.983189">
        <ele>1050.2</ele>
        <time>2023-02-11T10:49:08.000Z</time>
      </trkpt>
      <trkpt lat="41.777367" lon="-1.983132">
        <ele>1050.4</ele>
        <time>2023-02-11T10:49:09.000Z</time>
      </trkpt>
      <trkpt lat="41.777328" lon="-1.983082">
        <ele>1050.6</ele>
        <time>2023-02-11T10:49:10.000Z</time>
      </trkpt>
      <trkpt lat="41.777288" lon="-1.983029">
        <ele>1050.6</ele>
        <time>2023-02-11T10:49:11.000Z</time>
      </trkpt>
      <trkpt lat="41.777246" lon="-1.982962">
        <ele>1050.6</ele>
        <time>2023-02-11T10:49:12.000Z</time>
      </trkpt>
      <trkpt lat="41.777202" lon="-1.982893">
        <ele>1050.4</ele>
        <time>2023-02-11T10:49:13.000Z</time>
      </trkpt>
      <trkpt lat="41.777154" lon="-1.982827">
        <ele>1050.4</ele>
        <time>2023-02-11T10:49:14.000Z</time>
      </trkpt>
      <trkpt lat="41.777107" lon="-1.982761">
        <ele>1050.4</ele>
        <time>2023-02-11T10:49:15.000Z</time>
      </trkpt>
      <trkpt lat="41.777059" lon="-1.982695">
        <ele>1050.4</ele>
        <time>2023-02-11T10:49:16.000Z</time>
      </trkpt>
      <trkpt lat="41.777011" lon="-1.982627">
        <ele>1050.2</ele>
        <time>2023-02-11T10:49:17.000Z</time>
      </trkpt>
      <trkpt lat="41.776959" lon="-1.982555">
        <ele>1050</ele>
        <time>2023-02-11T10:49:18.000Z</time>
      </trkpt>
      <trkpt lat="41.776906" lon="-1.98248">
        <ele>1050</ele>
        <time>2023-02-11T10:49:19.000Z</time>
      </trkpt>
      <trkpt lat="41.776848" lon="-1.982407">
        <ele>1049.8</ele>
        <time>2023-02-11T10:49:20.000Z</time>
      </trkpt>
      <trkpt lat="41.776794" lon="-1.982338">
        <ele>1049.6</ele>
        <time>2023-02-11T10:49:21.000Z</time>
      </trkpt>
      <trkpt lat="41.776738" lon="-1.982265">
        <ele>1049.6</ele>
        <time>2023-02-11T10:49:22.000Z</time>
      </trkpt>
      <trkpt lat="41.776681" lon="-1.982191">
        <ele>1049.6</ele>
        <time>2023-02-11T10:49:23.000Z</time>
      </trkpt>
      <trkpt lat="41.776625" lon="-1.982134">
        <ele>1049.4</ele>
        <time>2023-02-11T10:49:24.000Z</time>
      </trkpt>
      <trkpt lat="41.776571" lon="-1.982067">
        <ele>1049.2</ele>
        <time>2023-02-11T10:49:25.000Z</time>
      </trkpt>
      <trkpt lat="41.776512" lon="-1.981987">
        <ele>1049.2</ele>
        <time>2023-02-11T10:49:26.000Z</time>
      </trkpt>
      <trkpt lat="41.776452" lon="-1.981904">
        <ele>1049.2</ele>
        <time>2023-02-11T10:49:27.000Z</time>
      </trkpt>
      <trkpt lat="41.776391" lon="-1.981817">
        <ele>1049</ele>
        <time>2023-02-11T10:49:28.000Z</time>
      </trkpt>
      <trkpt lat="41.77633" lon="-1.981734">
        <ele>1048.8</ele>
        <time>2023-02-11T10:49:29.000Z</time>
      </trkpt>
      <trkpt lat="41.77627" lon="-1.981649">
        <ele>1048.8</ele>
        <time>2023-02-11T10:49:30.000Z</time>
      </trkpt>
      <trkpt lat="41.776211" lon="-1.981562">
        <ele>1048.6</ele>
        <time>2023-02-11T10:49:31.000Z</time>
      </trkpt>
      <trkpt lat="41.776149" lon="-1.981478">
        <ele>1048.6</ele>
        <time>2023-02-11T10:49:32.000Z</time>
      </trkpt>
      <trkpt lat="41.776088" lon="-1.981395">
        <ele>1048.6</ele>
        <time>2023-02-11T10:49:33.000Z</time>
      </trkpt>
      <trkpt lat="41.776026" lon="-1.981309">
        <ele>1048.6</ele>
        <time>2023-02-11T10:49:34.000Z</time>
      </trkpt>
      <trkpt lat="41.775968" lon="-1.981228">
        <ele>1048.6</ele>
        <time>2023-02-11T10:49:35.000Z</time>
      </trkpt>
      <trkpt lat="41.775912" lon="-1.981153">
        <ele>1048.6</ele>
        <time>2023-02-11T10:49:36.000Z</time>
      </trkpt>
      <trkpt lat="41.775852" lon="-1.981072">
        <ele>1048.6</ele>
        <time>2023-02-11T10:49:37.000Z</time>
      </trkpt>
      <trkpt lat="41.775791" lon="-1.980988">
        <ele>1048.6</ele>
        <time>2023-02-11T10:49:38.000Z</time>
      </trkpt>
      <trkpt lat="41.775729" lon="-1.980901">
        <ele>1048.6</ele>
        <time>2023-02-11T10:49:39.000Z</time>
      </trkpt>
      <trkpt lat="41.775665" lon="-1.980811">
        <ele>1048.2</ele>
        <time>2023-02-11T10:49:40.000Z</time>
      </trkpt>
      <trkpt lat="41.775604" lon="-1.980726">
        <ele>1048.2</ele>
        <time>2023-02-11T10:49:41.000Z</time>
      </trkpt>
      <trkpt lat="41.77554" lon="-1.980641">
        <ele>1048.6</ele>
        <time>2023-02-11T10:49:42.000Z</time>
      </trkpt>
      <trkpt lat="41.775478" lon="-1.980555">
        <ele>1048.6</ele>
        <time>2023-02-11T10:49:43.000Z</time>
      </trkpt>
      <trkpt lat="41.775418" lon="-1.980473">
        <ele>1048.6</ele>
        <time>2023-02-11T10:49:44.000Z</time>
      </trkpt>
      <trkpt lat="41.775359" lon="-1.980391">
        <ele>1048.6</ele>
        <time>2023-02-11T10:49:45.000Z</time>
      </trkpt>
      <trkpt lat="41.7753" lon="-1.980308">
        <ele>1048.6</ele>
        <time>2023-02-11T10:49:46.000Z</time>
      </trkpt>
      <trkpt lat="41.77524" lon="-1.980224">
        <ele>1048.6</ele>
        <time>2023-02-11T10:49:47.000Z</time>
      </trkpt>
      <trkpt lat="41.775181" lon="-1.98014">
        <ele>1048.6</ele>
        <time>2023-02-11T10:49:48.000Z</time>
      </trkpt>
      <trkpt lat="41.775125" lon="-1.98006">
        <ele>1048.6</ele>
        <time>2023-02-11T10:49:49.000Z</time>
      </trkpt>
      <trkpt lat="41.775065" lon="-1.979985">
        <ele>1048.6</ele>
        <time>2023-02-11T10:49:50.000Z</time>
      </trkpt>
      <trkpt lat="41.775008" lon="-1.979911">
        <ele>1048.6</ele>
        <time>2023-02-11T10:49:51.000Z</time>
      </trkpt>
      <trkpt lat="41.774953" lon="-1.979839">
        <ele>1048.8</ele>
        <time>2023-02-11T10:49:52.000Z</time>
      </trkpt>
      <trkpt lat="41.774898" lon="-1.979764">
        <ele>1049</ele>
        <time>2023-02-11T10:49:53.000Z</time>
      </trkpt>
      <trkpt lat="41.774842" lon="-1.979683">
        <ele>1048.8</ele>
        <time>2023-02-11T10:49:54.000Z</time>
      </trkpt>
      <trkpt lat="41.774786" lon="-1.979602">
        <ele>1049.2</ele>
        <time>2023-02-11T10:49:55.000Z</time>
      </trkpt>
      <trkpt lat="41.774731" lon="-1.979525">
        <ele>1049</ele>
        <time>2023-02-11T10:49:56.000Z</time>
      </trkpt>
      <trkpt lat="41.774675" lon="-1.97945">
        <ele>1049</ele>
        <time>2023-02-11T10:49:57.000Z</time>
      </trkpt>
      <trkpt lat="41.774618" lon="-1.979373">
        <ele>1049.2</ele>
        <time>2023-02-11T10:49:58.000Z</time>
      </trkpt>
      <trkpt lat="41.77456" lon="-1.979294">
        <ele>1049.2</ele>
        <time>2023-02-11T10:49:59.000Z</time>
      </trkpt>
      <trkpt lat="41.7745" lon="-1.979214">
        <ele>1049.2</ele>
        <time>2023-02-11T10:50:00.000Z</time>
      </trkpt>
      <trkpt lat="41.774443" lon="-1.979136">
        <ele>1049.2</ele>
        <time>2023-02-11T10:50:01.000Z</time>
      </trkpt>
      <trkpt lat="41.774389" lon="-1.979061">
        <ele>1049.2</ele>
        <time>2023-02-11T10:50:02.000Z</time>
      </trkpt>
      <trkpt lat="41.774334" lon="-1.978985">
        <ele>1049.2</ele>
        <time>2023-02-11T10:50:03.000Z</time>
      </trkpt>
      <trkpt lat="41.774276" lon="-1.978906">
        <ele>1049.2</ele>
        <time>2023-02-11T10:50:04.000Z</time>
      </trkpt>
      <trkpt lat="41.774219" lon="-1.978826">
        <ele>1049.4</ele>
        <time>2023-02-11T10:50:05.000Z</time>
      </trkpt>
      <trkpt lat="41.774164" lon="-1.97875">
        <ele>1049.4</ele>
        <time>2023-02-11T10:50:06.000Z</time>
      </trkpt>
      <trkpt lat="41.774112" lon="-1.978676">
        <ele>1049.6</ele>
        <time>2023-02-11T10:50:07.000Z</time>
      </trkpt>
      <trkpt lat="41.77406" lon="-1.978603">
        <ele>1049.6</ele>
        <time>2023-02-11T10:50:08.000Z</time>
      </trkpt>
      <trkpt lat="41.774007" lon="-1.978531">
        <ele>1049.8</ele>
        <time>2023-02-11T10:50:09.000Z</time>
      </trkpt>
      <trkpt lat="41.773955" lon="-1.978458">
        <ele>1049.8</ele>
        <time>2023-02-11T10:50:10.000Z</time>
      </trkpt>
      <trkpt lat="41.773903" lon="-1.978388">
        <ele>1049.8</ele>
        <time>2023-02-11T10:50:11.000Z</time>
      </trkpt>
      <trkpt lat="41.773854" lon="-1.978318">
        <ele>1050</ele>
        <time>2023-02-11T10:50:12.000Z</time>
      </trkpt>
      <trkpt lat="41.773807" lon="-1.978251">
        <ele>1050.2</ele>
        <time>2023-02-11T10:50:13.000Z</time>
      </trkpt>
      <trkpt lat="41.773759" lon="-1.978184">
        <ele>1050.6</ele>
        <time>2023-02-11T10:50:14.000Z</time>
      </trkpt>
      <trkpt lat="41.773713" lon="-1.978119">
        <ele>1051.2</ele>
        <time>2023-02-11T10:50:15.000Z</time>
      </trkpt>
      <trkpt lat="41.773668" lon="-1.978054">
        <ele>1051.2</ele>
        <time>2023-02-11T10:50:16.000Z</time>
      </trkpt>
      <trkpt lat="41.773626" lon="-1.977993">
        <ele>1051.2</ele>
        <time>2023-02-11T10:50:17.000Z</time>
      </trkpt>
      <trkpt lat="41.773584" lon="-1.977936">
        <ele>1051.4</ele>
        <time>2023-02-11T10:50:18.000Z</time>
      </trkpt>
      <trkpt lat="41.773541" lon="-1.977878">
        <ele>1051.8</ele>
        <time>2023-02-11T10:50:19.000Z</time>
      </trkpt>
      <trkpt lat="41.773499" lon="-1.977818">
        <ele>1052.4</ele>
        <time>2023-02-11T10:50:20.000Z</time>
      </trkpt>
      <trkpt lat="41.773457" lon="-1.97776">
        <ele>1052.4</ele>
        <time>2023-02-11T10:50:21.000Z</time>
      </trkpt>
      <trkpt lat="41.773414" lon="-1.977701">
        <ele>1052.8</ele>
        <time>2023-02-11T10:50:22.000Z</time>
      </trkpt>
      <trkpt lat="41.773373" lon="-1.977644">
        <ele>1052.8</ele>
        <time>2023-02-11T10:50:23.000Z</time>
      </trkpt>
      <trkpt lat="41.773333" lon="-1.977587">
        <ele>1053.2</ele>
        <time>2023-02-11T10:50:24.000Z</time>
      </trkpt>
      <trkpt lat="41.773289" lon="-1.977528">
        <ele>1053.4</ele>
        <time>2023-02-11T10:50:25.000Z</time>
      </trkpt>
      <trkpt lat="41.773248" lon="-1.977469">
        <ele>1053.4</ele>
        <time>2023-02-11T10:50:26.000Z</time>
      </trkpt>
      <trkpt lat="41.773207" lon="-1.977411">
        <ele>1053.8</ele>
        <time>2023-02-11T10:50:27.000Z</time>
      </trkpt>
      <trkpt lat="41.773162" lon="-1.977352">
        <ele>1053.8</ele>
        <time>2023-02-11T10:50:28.000Z</time>
      </trkpt>
      <trkpt lat="41.773119" lon="-1.977293">
        <ele>1054</ele>
        <time>2023-02-11T10:50:29.000Z</time>
      </trkpt>
      <trkpt lat="41.773075" lon="-1.977236">
        <ele>1054.2</ele>
        <time>2023-02-11T10:50:30.000Z</time>
      </trkpt>
      <trkpt lat="41.77303" lon="-1.977174">
        <ele>1054.6</ele>
        <time>2023-02-11T10:50:31.000Z</time>
      </trkpt>
      <trkpt lat="41.772988" lon="-1.977113">
        <ele>1054.6</ele>
        <time>2023-02-11T10:50:32.000Z</time>
      </trkpt>
      <trkpt lat="41.772946" lon="-1.977053">
        <ele>1054.8</ele>
        <time>2023-02-11T10:50:33.000Z</time>
      </trkpt>
      <trkpt lat="41.772904" lon="-1.976995">
        <ele>1055</ele>
        <time>2023-02-11T10:50:34.000Z</time>
      </trkpt>
      <trkpt lat="41.772859" lon="-1.976934">
        <ele>1055</ele>
        <time>2023-02-11T10:50:35.000Z</time>
      </trkpt>
      <trkpt lat="41.772813" lon="-1.976871">
        <ele>1055.2</ele>
        <time>2023-02-11T10:50:36.000Z</time>
      </trkpt>
      <trkpt lat="41.772765" lon="-1.976806">
        <ele>1055.2</ele>
        <time>2023-02-11T10:50:37.000Z</time>
      </trkpt>
      <trkpt lat="41.772721" lon="-1.976744">
        <ele>1055.4</ele>
        <time>2023-02-11T10:50:38.000Z</time>
      </trkpt>
      <trkpt lat="41.772677" lon="-1.976684">
        <ele>1055.6</ele>
        <time>2023-02-11T10:50:39.000Z</time>
      </trkpt>
      <trkpt lat="41.772633" lon="-1.976625">
        <ele>1055.8</ele>
        <time>2023-02-11T10:50:40.000Z</time>
      </trkpt>
      <trkpt lat="41.772587" lon="-1.976564">
        <ele>1056</ele>
        <time>2023-02-11T10:50:41.000Z</time>
      </trkpt>
      <trkpt lat="41.772543" lon="-1.976505">
        <ele>1056.2</ele>
        <time>2023-02-11T10:50:42.000Z</time>
      </trkpt>
      <trkpt lat="41.772498" lon="-1.976444">
        <ele>1056.2</ele>
        <time>2023-02-11T10:50:43.000Z</time>
      </trkpt>
      <trkpt lat="41.772452" lon="-1.976382">
        <ele>1056.4</ele>
        <time>2023-02-11T10:50:44.000Z</time>
      </trkpt>
      <trkpt lat="41.772406" lon="-1.976318">
        <ele>1056.6</ele>
        <time>2023-02-11T10:50:45.000Z</time>
      </trkpt>
      <trkpt lat="41.772357" lon="-1.976255">
        <ele>1056.6</ele>
        <time>2023-02-11T10:50:46.000Z</time>
      </trkpt>
      <trkpt lat="41.772313" lon="-1.976191">
        <ele>1056.8</ele>
        <time>2023-02-11T10:50:47.000Z</time>
      </trkpt>
      <trkpt lat="41.772267" lon="-1.976127">
        <ele>1056.8</ele>
        <time>2023-02-11T10:50:48.000Z</time>
      </trkpt>
      <trkpt lat="41.772223" lon="-1.976066">
        <ele>1057</ele>
        <time>2023-02-11T10:50:49.000Z</time>
      </trkpt>
      <trkpt lat="41.772177" lon="-1.976004">
        <ele>1057</ele>
        <time>2023-02-11T10:50:50.000Z</time>
      </trkpt>
      <trkpt lat="41.772132" lon="-1.975942">
        <ele>1057.2</ele>
        <time>2023-02-11T10:50:51.000Z</time>
      </trkpt>
      <trkpt lat="41.772087" lon="-1.97588">
        <ele>1057.2</ele>
        <time>2023-02-11T10:50:52.000Z</time>
      </trkpt>
      <trkpt lat="41.772039" lon="-1.975818">
        <ele>1057.4</ele>
        <time>2023-02-11T10:50:53.000Z</time>
      </trkpt>
      <trkpt lat="41.771995" lon="-1.975759">
        <ele>1057.6</ele>
        <time>2023-02-11T10:50:54.000Z</time>
      </trkpt>
      <trkpt lat="41.77195" lon="-1.975701">
        <ele>1057.6</ele>
        <time>2023-02-11T10:50:55.000Z</time>
      </trkpt>
      <trkpt lat="41.771904" lon="-1.975641">
        <ele>1057.8</ele>
        <time>2023-02-11T10:50:56.000Z</time>
      </trkpt>
      <trkpt lat="41.771857" lon="-1.975581">
        <ele>1058</ele>
        <time>2023-02-11T10:50:57.000Z</time>
      </trkpt>
      <trkpt lat="41.771811" lon="-1.975519">
        <ele>1058</ele>
        <time>2023-02-11T10:50:58.000Z</time>
      </trkpt>
      <trkpt lat="41.771764" lon="-1.975454">
        <ele>1058.2</ele>
        <time>2023-02-11T10:50:59.000Z</time>
      </trkpt>
      <trkpt lat="41.771716" lon="-1.975392">
        <ele>1058.4</ele>
        <time>2023-02-11T10:51:00.000Z</time>
      </trkpt>
      <trkpt lat="41.771665" lon="-1.975332">
        <ele>1058.4</ele>
        <time>2023-02-11T10:51:01.000Z</time>
      </trkpt>
      <trkpt lat="41.771616" lon="-1.97527">
        <ele>1058.8</ele>
        <time>2023-02-11T10:51:02.000Z</time>
      </trkpt>
      <trkpt lat="41.771566" lon="-1.975207">
        <ele>1059</ele>
        <time>2023-02-11T10:51:03.000Z</time>
      </trkpt>
      <trkpt lat="41.771516" lon="-1.975145">
        <ele>1059.2</ele>
        <time>2023-02-11T10:51:04.000Z</time>
      </trkpt>
      <trkpt lat="41.771466" lon="-1.975085">
        <ele>1059.6</ele>
        <time>2023-02-11T10:51:05.000Z</time>
      </trkpt>
      <trkpt lat="41.771416" lon="-1.975023">
        <ele>1059.6</ele>
        <time>2023-02-11T10:51:06.000Z</time>
      </trkpt>
      <trkpt lat="41.771367" lon="-1.974963">
        <ele>1059.8</ele>
        <time>2023-02-11T10:51:07.000Z</time>
      </trkpt>
      <trkpt lat="41.771318" lon="-1.974902">
        <ele>1059.8</ele>
        <time>2023-02-11T10:51:08.000Z</time>
      </trkpt>
      <trkpt lat="41.771269" lon="-1.974841">
        <ele>1060</ele>
        <time>2023-02-11T10:51:09.000Z</time>
      </trkpt>
      <trkpt lat="41.771219" lon="-1.974781">
        <ele>1060.2</ele>
        <time>2023-02-11T10:51:10.000Z</time>
      </trkpt>
      <trkpt lat="41.771167" lon="-1.974719">
        <ele>1060.4</ele>
        <time>2023-02-11T10:51:11.000Z</time>
      </trkpt>
      <trkpt lat="41.771116" lon="-1.974658">
        <ele>1060.4</ele>
        <time>2023-02-11T10:51:12.000Z</time>
      </trkpt>
      <trkpt lat="41.771062" lon="-1.974598">
        <ele>1060.6</ele>
        <time>2023-02-11T10:51:13.000Z</time>
      </trkpt>
      <trkpt lat="41.771009" lon="-1.974536">
        <ele>1060.8</ele>
        <time>2023-02-11T10:51:14.000Z</time>
      </trkpt>
      <trkpt lat="41.770957" lon="-1.97447">
        <ele>1061</ele>
        <time>2023-02-11T10:51:15.000Z</time>
      </trkpt>
      <trkpt lat="41.770905" lon="-1.974405">
        <ele>1061.2</ele>
        <time>2023-02-11T10:51:16.000Z</time>
      </trkpt>
      <trkpt lat="41.770852" lon="-1.974341">
        <ele>1061.2</ele>
        <time>2023-02-11T10:51:17.000Z</time>
      </trkpt>
      <trkpt lat="41.770802" lon="-1.974279">
        <ele>1061.4</ele>
        <time>2023-02-11T10:51:18.000Z</time>
      </trkpt>
      <trkpt lat="41.770752" lon="-1.974218">
        <ele>1061.6</ele>
        <time>2023-02-11T10:51:19.000Z</time>
      </trkpt>
      <trkpt lat="41.770701" lon="-1.97416">
        <ele>1061.8</ele>
        <time>2023-02-11T10:51:20.000Z</time>
      </trkpt>
      <trkpt lat="41.770651" lon="-1.974102">
        <ele>1062.2</ele>
        <time>2023-02-11T10:51:21.000Z</time>
      </trkpt>
      <trkpt lat="41.7706" lon="-1.974044">
        <ele>1062.2</ele>
        <time>2023-02-11T10:51:22.000Z</time>
      </trkpt>
      <trkpt lat="41.77055" lon="-1.973985">
        <ele>1062.4</ele>
        <time>2023-02-11T10:51:23.000Z</time>
      </trkpt>
      <trkpt lat="41.770501" lon="-1.973927">
        <ele>1062.6</ele>
        <time>2023-02-11T10:51:24.000Z</time>
      </trkpt>
      <trkpt lat="41.770451" lon="-1.973868">
        <ele>1063</ele>
        <time>2023-02-11T10:51:25.000Z</time>
      </trkpt>
      <trkpt lat="41.770399" lon="-1.973805">
        <ele>1063.2</ele>
        <time>2023-02-11T10:51:26.000Z</time>
      </trkpt>
      <trkpt lat="41.770347" lon="-1.973744">
        <ele>1063.4</ele>
        <time>2023-02-11T10:51:27.000Z</time>
      </trkpt>
      <trkpt lat="41.770294" lon="-1.973682">
        <ele>1063.4</ele>
        <time>2023-02-11T10:51:28.000Z</time>
      </trkpt>
      <trkpt lat="41.770243" lon="-1.973621">
        <ele>1063.6</ele>
        <time>2023-02-11T10:51:29.000Z</time>
      </trkpt>
      <trkpt lat="41.770192" lon="-1.97356">
        <ele>1063.8</ele>
        <time>2023-02-11T10:51:30.000Z</time>
      </trkpt>
      <trkpt lat="41.77014" lon="-1.973499">
        <ele>1063.8</ele>
        <time>2023-02-11T10:51:31.000Z</time>
      </trkpt>
      <trkpt lat="41.770087" lon="-1.973438">
        <ele>1064</ele>
        <time>2023-02-11T10:51:32.000Z</time>
      </trkpt>
      <trkpt lat="41.770035" lon="-1.973376">
        <ele>1064</ele>
        <time>2023-02-11T10:51:33.000Z</time>
      </trkpt>
      <trkpt lat="41.769984" lon="-1.973316">
        <ele>1064</ele>
        <time>2023-02-11T10:51:34.000Z</time>
      </trkpt>
      <trkpt lat="41.769934" lon="-1.973257">
        <ele>1064.2</ele>
        <time>2023-02-11T10:51:35.000Z</time>
      </trkpt>
      <trkpt lat="41.769884" lon="-1.973197">
        <ele>1064.2</ele>
        <time>2023-02-11T10:51:36.000Z</time>
      </trkpt>
      <trkpt lat="41.769833" lon="-1.973138">
        <ele>1064.4</ele>
        <time>2023-02-11T10:51:37.000Z</time>
      </trkpt>
      <trkpt lat="41.769783" lon="-1.973082">
        <ele>1064.8</ele>
        <time>2023-02-11T10:51:38.000Z</time>
      </trkpt>
      <trkpt lat="41.769736" lon="-1.973025">
        <ele>1064.8</ele>
        <time>2023-02-11T10:51:39.000Z</time>
      </trkpt>
      <trkpt lat="41.769689" lon="-1.97297">
        <ele>1065.2</ele>
        <time>2023-02-11T10:51:40.000Z</time>
      </trkpt>
      <trkpt lat="41.769644" lon="-1.972915">
        <ele>1065.2</ele>
        <time>2023-02-11T10:51:41.000Z</time>
      </trkpt>
      <trkpt lat="41.7696" lon="-1.972859">
        <ele>1065.6</ele>
        <time>2023-02-11T10:51:42.000Z</time>
      </trkpt>
      <trkpt lat="41.769553" lon="-1.972804">
        <ele>1066</ele>
        <time>2023-02-11T10:51:43.000Z</time>
      </trkpt>
      <trkpt lat="41.769511" lon="-1.97275">
        <ele>1066</ele>
        <time>2023-02-11T10:51:44.000Z</time>
      </trkpt>
      <trkpt lat="41.769471" lon="-1.972699">
        <ele>1066.4</ele>
        <time>2023-02-11T10:51:45.000Z</time>
      </trkpt>
      <trkpt lat="41.769431" lon="-1.972647">
        <ele>1066.6</ele>
        <time>2023-02-11T10:51:46.000Z</time>
      </trkpt>
      <trkpt lat="41.769396" lon="-1.972593">
        <ele>1066.8</ele>
        <time>2023-02-11T10:51:47.000Z</time>
      </trkpt>
      <trkpt lat="41.769365" lon="-1.972532">
        <ele>1067</ele>
        <time>2023-02-11T10:51:48.000Z</time>
      </trkpt>
      <trkpt lat="41.769337" lon="-1.972468">
        <ele>1067.4</ele>
        <time>2023-02-11T10:51:49.000Z</time>
      </trkpt>
      <trkpt lat="41.769313" lon="-1.972405">
        <ele>1067.6</ele>
        <time>2023-02-11T10:51:50.000Z</time>
      </trkpt>
      <trkpt lat="41.769288" lon="-1.972342">
        <ele>1068</ele>
        <time>2023-02-11T10:51:51.000Z</time>
      </trkpt>
      <trkpt lat="41.769262" lon="-1.972278">
        <ele>1068.4</ele>
        <time>2023-02-11T10:51:52.000Z</time>
      </trkpt>
      <trkpt lat="41.769236" lon="-1.972216">
        <ele>1068.8</ele>
        <time>2023-02-11T10:51:53.000Z</time>
      </trkpt>
      <trkpt lat="41.769212" lon="-1.972156">
        <ele>1069.4</ele>
        <time>2023-02-11T10:51:54.000Z</time>
      </trkpt>
      <trkpt lat="41.769187" lon="-1.972096">
        <ele>1069.8</ele>
        <time>2023-02-11T10:51:55.000Z</time>
      </trkpt>
      <trkpt lat="41.769164" lon="-1.972033">
        <ele>1070</ele>
        <time>2023-02-11T10:51:56.000Z</time>
      </trkpt>
      <trkpt lat="41.76914" lon="-1.97197">
        <ele>1070.2</ele>
        <time>2023-02-11T10:51:57.000Z</time>
      </trkpt>
      <trkpt lat="41.769118" lon="-1.971912">
        <ele>1070.6</ele>
        <time>2023-02-11T10:51:58.000Z</time>
      </trkpt>
      <trkpt lat="41.769095" lon="-1.971856">
        <ele>1070.6</ele>
        <time>2023-02-11T10:51:59.000Z</time>
      </trkpt>
      <trkpt lat="41.769066" lon="-1.971802">
        <ele>1070.8</ele>
        <time>2023-02-11T10:52:00.000Z</time>
      </trkpt>
      <trkpt lat="41.769029" lon="-1.971751">
        <ele>1071</ele>
        <time>2023-02-11T10:52:01.000Z</time>
      </trkpt>
      <trkpt lat="41.768986" lon="-1.971705">
        <ele>1071.4</ele>
        <time>2023-02-11T10:52:02.000Z</time>
      </trkpt>
      <trkpt lat="41.768941" lon="-1.971667">
        <ele>1071.8</ele>
        <time>2023-02-11T10:52:03.000Z</time>
      </trkpt>
      <trkpt lat="41.768896" lon="-1.971635">
        <ele>1071.8</ele>
        <time>2023-02-11T10:52:04.000Z</time>
      </trkpt>
      <trkpt lat="41.768847" lon="-1.971606">
        <ele>1072.2</ele>
        <time>2023-02-11T10:52:05.000Z</time>
      </trkpt>
      <trkpt lat="41.768796" lon="-1.971574">
        <ele>1072.2</ele>
        <time>2023-02-11T10:52:06.000Z</time>
      </trkpt>
      <trkpt lat="41.768747" lon="-1.971546">
        <ele>1072.6</ele>
        <time>2023-02-11T10:52:07.000Z</time>
      </trkpt>
      <trkpt lat="41.768694" lon="-1.97152">
        <ele>1072.8</ele>
        <time>2023-02-11T10:52:08.000Z</time>
      </trkpt>
      <trkpt lat="41.76864" lon="-1.971494">
        <ele>1073.4</ele>
        <time>2023-02-11T10:52:09.000Z</time>
      </trkpt>
      <trkpt lat="41.768585" lon="-1.971466">
        <ele>1073.6</ele>
        <time>2023-02-11T10:52:10.000Z</time>
      </trkpt>
      <trkpt lat="41.768527" lon="-1.971433">
        <ele>1074</ele>
        <time>2023-02-11T10:52:11.000Z</time>
      </trkpt>
      <trkpt lat="41.768474" lon="-1.971399">
        <ele>1074.4</ele>
        <time>2023-02-11T10:52:12.000Z</time>
      </trkpt>
      <trkpt lat="41.768419" lon="-1.971363">
        <ele>1074.6</ele>
        <time>2023-02-11T10:52:13.000Z</time>
      </trkpt>
      <trkpt lat="41.768367" lon="-1.971329">
        <ele>1075</ele>
        <time>2023-02-11T10:52:14.000Z</time>
      </trkpt>
      <trkpt lat="41.768314" lon="-1.971295">
        <ele>1075</ele>
        <time>2023-02-11T10:52:15.000Z</time>
      </trkpt>
      <trkpt lat="41.768263" lon="-1.971261">
        <ele>1075.2</ele>
        <time>2023-02-11T10:52:16.000Z</time>
      </trkpt>
      <trkpt lat="41.768212" lon="-1.971227">
        <ele>1075.4</ele>
        <time>2023-02-11T10:52:17.000Z</time>
      </trkpt>
      <trkpt lat="41.768161" lon="-1.971193">
        <ele>1075.8</ele>
        <time>2023-02-11T10:52:18.000Z</time>
      </trkpt>
      <trkpt lat="41.768109" lon="-1.971156">
        <ele>1075.8</ele>
        <time>2023-02-11T10:52:19.000Z</time>
      </trkpt>
      <trkpt lat="41.768058" lon="-1.971123">
        <ele>1075.8</ele>
        <time>2023-02-11T10:52:20.000Z</time>
      </trkpt>
      <trkpt lat="41.768009" lon="-1.971091">
        <ele>1076</ele>
        <time>2023-02-11T10:52:21.000Z</time>
      </trkpt>
      <trkpt lat="41.767957" lon="-1.971059">
        <ele>1076.2</ele>
        <time>2023-02-11T10:52:22.000Z</time>
      </trkpt>
      <trkpt lat="41.767906" lon="-1.971029">
        <ele>1076.4</ele>
        <time>2023-02-11T10:52:23.000Z</time>
      </trkpt>
      <trkpt lat="41.767856" lon="-1.970996">
        <ele>1076.6</ele>
        <time>2023-02-11T10:52:24.000Z</time>
      </trkpt>
      <trkpt lat="41.767804" lon="-1.970964">
        <ele>1076.8</ele>
        <time>2023-02-11T10:52:25.000Z</time>
      </trkpt>
      <trkpt lat="41.767755" lon="-1.970933">
        <ele>1077</ele>
        <time>2023-02-11T10:52:26.000Z</time>
      </trkpt>
      <trkpt lat="41.767706" lon="-1.970901">
        <ele>1077.4</ele>
        <time>2023-02-11T10:52:27.000Z</time>
      </trkpt>
      <trkpt lat="41.767655" lon="-1.970873">
        <ele>1077.6</ele>
        <time>2023-02-11T10:52:28.000Z</time>
      </trkpt>
      <trkpt lat="41.767605" lon="-1.970847">
        <ele>1077.8</ele>
        <time>2023-02-11T10:52:29.000Z</time>
      </trkpt>
      <trkpt lat="41.767555" lon="-1.970818">
        <ele>1078</ele>
        <time>2023-02-11T10:52:30.000Z</time>
      </trkpt>
      <trkpt lat="41.767507" lon="-1.970787">
        <ele>1078.4</ele>
        <time>2023-02-11T10:52:31.000Z</time>
      </trkpt>
      <trkpt lat="41.767457" lon="-1.970754">
        <ele>1078.8</ele>
        <time>2023-02-11T10:52:32.000Z</time>
      </trkpt>
      <trkpt lat="41.76741" lon="-1.970726">
        <ele>1079</ele>
        <time>2023-02-11T10:52:33.000Z</time>
      </trkpt>
      <trkpt lat="41.767361" lon="-1.9707">
        <ele>1079.2</ele>
        <time>2023-02-11T10:52:34.000Z</time>
      </trkpt>
      <trkpt lat="41.767311" lon="-1.970674">
        <ele>1079.4</ele>
        <time>2023-02-11T10:52:35.000Z</time>
      </trkpt>
      <trkpt lat="41.767261" lon="-1.970646">
        <ele>1079.8</ele>
        <time>2023-02-11T10:52:36.000Z</time>
      </trkpt>
      <trkpt lat="41.767215" lon="-1.970614">
        <ele>1080</ele>
        <time>2023-02-11T10:52:37.000Z</time>
      </trkpt>
      <trkpt lat="41.767169" lon="-1.970583">
        <ele>1080.2</ele>
        <time>2023-02-11T10:52:38.000Z</time>
      </trkpt>
      <trkpt lat="41.767124" lon="-1.970551">
        <ele>1080.4</ele>
        <time>2023-02-11T10:52:39.000Z</time>
      </trkpt>
      <trkpt lat="41.767079" lon="-1.970521">
        <ele>1080.8</ele>
        <time>2023-02-11T10:52:40.000Z</time>
      </trkpt>
      <trkpt lat="41.767033" lon="-1.970492">
        <ele>1081.2</ele>
        <time>2023-02-11T10:52:41.000Z</time>
      </trkpt>
      <trkpt lat="41.766988" lon="-1.970465">
        <ele>1081.6</ele>
        <time>2023-02-11T10:52:42.000Z</time>
      </trkpt>
      <trkpt lat="41.766942" lon="-1.970441">
        <ele>1081.6</ele>
        <time>2023-02-11T10:52:43.000Z</time>
      </trkpt>
      <trkpt lat="41.766897" lon="-1.970418">
        <ele>1081.8</ele>
        <time>2023-02-11T10:52:44.000Z</time>
      </trkpt>
      <trkpt lat="41.766853" lon="-1.970393">
        <ele>1082</ele>
        <time>2023-02-11T10:52:45.000Z</time>
      </trkpt>
      <trkpt lat="41.766808" lon="-1.970367">
        <ele>1082.2</ele>
        <time>2023-02-11T10:52:46.000Z</time>
      </trkpt>
      <trkpt lat="41.766761" lon="-1.97034">
        <ele>1082.6</ele>
        <time>2023-02-11T10:52:47.000Z</time>
      </trkpt>
      <trkpt lat="41.766712" lon="-1.970313">
        <ele>1082.8</ele>
        <time>2023-02-11T10:52:48.000Z</time>
      </trkpt>
      <trkpt lat="41.766666" lon="-1.970286">
        <ele>1083.2</ele>
        <time>2023-02-11T10:52:49.000Z</time>
      </trkpt>
      <trkpt lat="41.766622" lon="-1.970254">
        <ele>1083.6</ele>
        <time>2023-02-11T10:52:50.000Z</time>
      </trkpt>
      <trkpt lat="41.766578" lon="-1.970224">
        <ele>1083.8</ele>
        <time>2023-02-11T10:52:51.000Z</time>
      </trkpt>
      <trkpt lat="41.766535" lon="-1.970193">
        <ele>1084.2</ele>
        <time>2023-02-11T10:52:52.000Z</time>
      </trkpt>
      <trkpt lat="41.766487" lon="-1.970161">
        <ele>1084.4</ele>
        <time>2023-02-11T10:52:53.000Z</time>
      </trkpt>
      <trkpt lat="41.766441" lon="-1.970129">
        <ele>1084.6</ele>
        <time>2023-02-11T10:52:54.000Z</time>
      </trkpt>
      <trkpt lat="41.766394" lon="-1.970099">
        <ele>1084.8</ele>
        <time>2023-02-11T10:52:55.000Z</time>
      </trkpt>
      <trkpt lat="41.766348" lon="-1.970065">
        <ele>1085.2</ele>
        <time>2023-02-11T10:52:56.000Z</time>
      </trkpt>
      <trkpt lat="41.7663" lon="-1.970029">
        <ele>1085.4</ele>
        <time>2023-02-11T10:52:57.000Z</time>
      </trkpt>
      <trkpt lat="41.766253" lon="-1.969992">
        <ele>1085.6</ele>
        <time>2023-02-11T10:52:58.000Z</time>
      </trkpt>
      <trkpt lat="41.766204" lon="-1.969951">
        <ele>1085.8</ele>
        <time>2023-02-11T10:52:59.000Z</time>
      </trkpt>
      <trkpt lat="41.766156" lon="-1.969909">
        <ele>1086</ele>
        <time>2023-02-11T10:53:00.000Z</time>
      </trkpt>
      <trkpt lat="41.766106" lon="-1.969867">
        <ele>1086.4</ele>
        <time>2023-02-11T10:53:01.000Z</time>
      </trkpt>
      <trkpt lat="41.766054" lon="-1.969825">
        <ele>1086.8</ele>
        <time>2023-02-11T10:53:02.000Z</time>
      </trkpt>
      <trkpt lat="41.766006" lon="-1.969783">
        <ele>1086.8</ele>
        <time>2023-02-11T10:53:03.000Z</time>
      </trkpt>
      <trkpt lat="41.765957" lon="-1.969738">
        <ele>1087</ele>
        <time>2023-02-11T10:53:04.000Z</time>
      </trkpt>
      <trkpt lat="41.765906" lon="-1.969692">
        <ele>1087.2</ele>
        <time>2023-02-11T10:53:05.000Z</time>
      </trkpt>
      <trkpt lat="41.765858" lon="-1.969644">
        <ele>1087.2</ele>
        <time>2023-02-11T10:53:06.000Z</time>
      </trkpt>
      <trkpt lat="41.765808" lon="-1.969595">
        <ele>1087.2</ele>
        <time>2023-02-11T10:53:07.000Z</time>
      </trkpt>
      <trkpt lat="41.765756" lon="-1.969544">
        <ele>1087.4</ele>
        <time>2023-02-11T10:53:08.000Z</time>
      </trkpt>
      <trkpt lat="41.765706" lon="-1.969492">
        <ele>1087.8</ele>
        <time>2023-02-11T10:53:09.000Z</time>
      </trkpt>
      <trkpt lat="41.765656" lon="-1.969439">
        <ele>1088</ele>
        <time>2023-02-11T10:53:10.000Z</time>
      </trkpt>
      <trkpt lat="41.765606" lon="-1.969384">
        <ele>1088.2</ele>
        <time>2023-02-11T10:53:11.000Z</time>
      </trkpt>
      <trkpt lat="41.765558" lon="-1.969326">
        <ele>1088.4</ele>
        <time>2023-02-11T10:53:12.000Z</time>
      </trkpt>
      <trkpt lat="41.765511" lon="-1.969265">
        <ele>1088.6</ele>
        <time>2023-02-11T10:53:13.000Z</time>
      </trkpt>
      <trkpt lat="41.765463" lon="-1.969205">
        <ele>1088.8</ele>
        <time>2023-02-11T10:53:14.000Z</time>
      </trkpt>
      <trkpt lat="41.765419" lon="-1.969145">
        <ele>1088.8</ele>
        <time>2023-02-11T10:53:15.000Z</time>
      </trkpt>
      <trkpt lat="41.765376" lon="-1.969086">
        <ele>1089</ele>
        <time>2023-02-11T10:53:16.000Z</time>
      </trkpt>
      <trkpt lat="41.765333" lon="-1.969027">
        <ele>1089</ele>
        <time>2023-02-11T10:53:17.000Z</time>
      </trkpt>
      <trkpt lat="41.765291" lon="-1.96897">
        <ele>1089.4</ele>
        <time>2023-02-11T10:53:18.000Z</time>
      </trkpt>
      <trkpt lat="41.765249" lon="-1.96891">
        <ele>1089.6</ele>
        <time>2023-02-11T10:53:19.000Z</time>
      </trkpt>
      <trkpt lat="41.765209" lon="-1.96885">
        <ele>1089.8</ele>
        <time>2023-02-11T10:53:20.000Z</time>
      </trkpt>
      <trkpt lat="41.765168" lon="-1.96879">
        <ele>1090.2</ele>
        <time>2023-02-11T10:53:21.000Z</time>
      </trkpt>
      <trkpt lat="41.765128" lon="-1.968729">
        <ele>1090.4</ele>
        <time>2023-02-11T10:53:22.000Z</time>
      </trkpt>
      <trkpt lat="41.765092" lon="-1.96867">
        <ele>1090.6</ele>
        <time>2023-02-11T10:53:23.000Z</time>
      </trkpt>
      <trkpt lat="41.765053" lon="-1.968607">
        <ele>1090.8</ele>
        <time>2023-02-11T10:53:24.000Z</time>
      </trkpt>
      <trkpt lat="41.765017" lon="-1.968544">
        <ele>1091</ele>
        <time>2023-02-11T10:53:25.000Z</time>
      </trkpt>
      <trkpt lat="41.764985" lon="-1.968478">
        <ele>1091</ele>
        <time>2023-02-11T10:53:26.000Z</time>
      </trkpt>
      <trkpt lat="41.764947" lon="-1.968414">
        <ele>1091.2</ele>
        <time>2023-02-11T10:53:27.000Z</time>
      </trkpt>
      <trkpt lat="41.76491" lon="-1.968349">
        <ele>1091.4</ele>
        <time>2023-02-11T10:53:28.000Z</time>
      </trkpt>
      <trkpt lat="41.764873" lon="-1.968284">
        <ele>1091.8</ele>
        <time>2023-02-11T10:53:29.000Z</time>
      </trkpt>
      <trkpt lat="41.764835" lon="-1.968221">
        <ele>1091.8</ele>
        <time>2023-02-11T10:53:30.000Z</time>
      </trkpt>
      <trkpt lat="41.764799" lon="-1.968158">
        <ele>1092</ele>
        <time>2023-02-11T10:53:31.000Z</time>
      </trkpt>
      <trkpt lat="41.764762" lon="-1.968097">
        <ele>1092.2</ele>
        <time>2023-02-11T10:53:32.000Z</time>
      </trkpt>
      <trkpt lat="41.764724" lon="-1.968034">
        <ele>1092.2</ele>
        <time>2023-02-11T10:53:33.000Z</time>
      </trkpt>
      <trkpt lat="41.764685" lon="-1.96797">
        <ele>1092.4</ele>
        <time>2023-02-11T10:53:34.000Z</time>
      </trkpt>
      <trkpt lat="41.764649" lon="-1.967908">
        <ele>1092.6</ele>
        <time>2023-02-11T10:53:35.000Z</time>
      </trkpt>
      <trkpt lat="41.764613" lon="-1.967843">
        <ele>1092.6</ele>
        <time>2023-02-11T10:53:36.000Z</time>
      </trkpt>
      <trkpt lat="41.764573" lon="-1.96778">
        <ele>1092.8</ele>
        <time>2023-02-11T10:53:37.000Z</time>
      </trkpt>
      <trkpt lat="41.764532" lon="-1.967714">
        <ele>1092.8</ele>
        <time>2023-02-11T10:53:38.000Z</time>
      </trkpt>
      <trkpt lat="41.764493" lon="-1.967649">
        <ele>1092.8</ele>
        <time>2023-02-11T10:53:39.000Z</time>
      </trkpt>
      <trkpt lat="41.764455" lon="-1.967583">
        <ele>1093.2</ele>
        <time>2023-02-11T10:53:40.000Z</time>
      </trkpt>
      <trkpt lat="41.764415" lon="-1.967516">
        <ele>1093.6</ele>
        <time>2023-02-11T10:53:41.000Z</time>
      </trkpt>
      <trkpt lat="41.764375" lon="-1.967448">
        <ele>1093.8</ele>
        <time>2023-02-11T10:53:42.000Z</time>
      </trkpt>
      <trkpt lat="41.764334" lon="-1.967378">
        <ele>1094</ele>
        <time>2023-02-11T10:53:43.000Z</time>
      </trkpt>
      <trkpt lat="41.764292" lon="-1.967308">
        <ele>1094</ele>
        <time>2023-02-11T10:53:44.000Z</time>
      </trkpt>
      <trkpt lat="41.764251" lon="-1.967241">
        <ele>1094.2</ele>
        <time>2023-02-11T10:53:45.000Z</time>
      </trkpt>
      <trkpt lat="41.764208" lon="-1.967172">
        <ele>1094.4</ele>
        <time>2023-02-11T10:53:46.000Z</time>
      </trkpt>
      <trkpt lat="41.764164" lon="-1.967103">
        <ele>1094.4</ele>
        <time>2023-02-11T10:53:47.000Z</time>
      </trkpt>
      <trkpt lat="41.76412" lon="-1.96704">
        <ele>1094.6</ele>
        <time>2023-02-11T10:53:48.000Z</time>
      </trkpt>
      <trkpt lat="41.764077" lon="-1.966977">
        <ele>1094.8</ele>
        <time>2023-02-11T10:53:49.000Z</time>
      </trkpt>
      <trkpt lat="41.764032" lon="-1.966916">
        <ele>1095.2</ele>
        <time>2023-02-11T10:53:50.000Z</time>
      </trkpt>
      <trkpt lat="41.763985" lon="-1.96685">
        <ele>1095</ele>
        <time>2023-02-11T10:53:51.000Z</time>
      </trkpt>
      <trkpt lat="41.763938" lon="-1.966783">
        <ele>1095.2</ele>
        <time>2023-02-11T10:53:52.000Z</time>
      </trkpt>
      <trkpt lat="41.763891" lon="-1.966717">
        <ele>1095</ele>
        <time>2023-02-11T10:53:53.000Z</time>
      </trkpt>
      <trkpt lat="41.763842" lon="-1.966655">
        <ele>1095.2</ele>
        <time>2023-02-11T10:53:54.000Z</time>
      </trkpt>
      <trkpt lat="41.763792" lon="-1.966592">
        <ele>1095.4</ele>
        <time>2023-02-11T10:53:55.000Z</time>
      </trkpt>
      <trkpt lat="41.763742" lon="-1.966531">
        <ele>1095.4</ele>
        <time>2023-02-11T10:53:56.000Z</time>
      </trkpt>
      <trkpt lat="41.763688" lon="-1.96647">
        <ele>1095.6</ele>
        <time>2023-02-11T10:53:57.000Z</time>
      </trkpt>
      <trkpt lat="41.76363" lon="-1.966409">
        <ele>1095.8</ele>
        <time>2023-02-11T10:53:58.000Z</time>
      </trkpt>
      <trkpt lat="41.763578" lon="-1.966351">
        <ele>1096</ele>
        <time>2023-02-11T10:53:59.000Z</time>
      </trkpt>
      <trkpt lat="41.763526" lon="-1.966294">
        <ele>1096</ele>
        <time>2023-02-11T10:54:00.000Z</time>
      </trkpt>
      <trkpt lat="41.763473" lon="-1.966236">
        <ele>1096.2</ele>
        <time>2023-02-11T10:54:01.000Z</time>
      </trkpt>
      <trkpt lat="41.76342" lon="-1.966179">
        <ele>1096.4</ele>
        <time>2023-02-11T10:54:02.000Z</time>
      </trkpt>
      <trkpt lat="41.763367" lon="-1.966124">
        <ele>1096.6</ele>
        <time>2023-02-11T10:54:03.000Z</time>
      </trkpt>
      <trkpt lat="41.763315" lon="-1.966068">
        <ele>1096.6</ele>
        <time>2023-02-11T10:54:04.000Z</time>
      </trkpt>
      <trkpt lat="41.763261" lon="-1.966011">
        <ele>1097</ele>
        <time>2023-02-11T10:54:05.000Z</time>
      </trkpt>
      <trkpt lat="41.763206" lon="-1.965954">
        <ele>1097.2</ele>
        <time>2023-02-11T10:54:06.000Z</time>
      </trkpt>
      <trkpt lat="41.763153" lon="-1.965901">
        <ele>1097.4</ele>
        <time>2023-02-11T10:54:07.000Z</time>
      </trkpt>
      <trkpt lat="41.763101" lon="-1.965844">
        <ele>1097.8</ele>
        <time>2023-02-11T10:54:08.000Z</time>
      </trkpt>
      <trkpt lat="41.763047" lon="-1.965788">
        <ele>1097.8</ele>
        <time>2023-02-11T10:54:09.000Z</time>
      </trkpt>
      <trkpt lat="41.762993" lon="-1.96573">
        <ele>1098</ele>
        <time>2023-02-11T10:54:10.000Z</time>
      </trkpt>
      <trkpt lat="41.762938" lon="-1.965673">
        <ele>1098.2</ele>
        <time>2023-02-11T10:54:11.000Z</time>
      </trkpt>
      <trkpt lat="41.762885" lon="-1.965614">
        <ele>1098.6</ele>
        <time>2023-02-11T10:54:12.000Z</time>
      </trkpt>
      <trkpt lat="41.762828" lon="-1.965554">
        <ele>1098.6</ele>
        <time>2023-02-11T10:54:13.000Z</time>
      </trkpt>
      <trkpt lat="41.762774" lon="-1.965495">
        <ele>1098.8</ele>
        <time>2023-02-11T10:54:14.000Z</time>
      </trkpt>
      <trkpt lat="41.762722" lon="-1.965437">
        <ele>1099</ele>
        <time>2023-02-11T10:54:15.000Z</time>
      </trkpt>
      <trkpt lat="41.762669" lon="-1.96538">
        <ele>1099.2</ele>
        <time>2023-02-11T10:54:16.000Z</time>
      </trkpt>
      <trkpt lat="41.762615" lon="-1.965321">
        <ele>1099.6</ele>
        <time>2023-02-11T10:54:17.000Z</time>
      </trkpt>
      <trkpt lat="41.762562" lon="-1.965263">
        <ele>1099.6</ele>
        <time>2023-02-11T10:54:18.000Z</time>
      </trkpt>
      <trkpt lat="41.76251" lon="-1.965204">
        <ele>1100</ele>
        <time>2023-02-11T10:54:19.000Z</time>
      </trkpt>
      <trkpt lat="41.762457" lon="-1.965144">
        <ele>1100.4</ele>
        <time>2023-02-11T10:54:20.000Z</time>
      </trkpt>
      <trkpt lat="41.762403" lon="-1.965083">
        <ele>1100.4</ele>
        <time>2023-02-11T10:54:21.000Z</time>
      </trkpt>
      <trkpt lat="41.76235" lon="-1.965022">
        <ele>1100.6</ele>
        <time>2023-02-11T10:54:22.000Z</time>
      </trkpt>
      <trkpt lat="41.762296" lon="-1.96496">
        <ele>1100.8</ele>
        <time>2023-02-11T10:54:23.000Z</time>
      </trkpt>
      <trkpt lat="41.762244" lon="-1.964899">
        <ele>1101</ele>
        <time>2023-02-11T10:54:24.000Z</time>
      </trkpt>
      <trkpt lat="41.762192" lon="-1.96484">
        <ele>1101.4</ele>
        <time>2023-02-11T10:54:25.000Z</time>
      </trkpt>
      <trkpt lat="41.762141" lon="-1.96478">
        <ele>1101.4</ele>
        <time>2023-02-11T10:54:26.000Z</time>
      </trkpt>
      <trkpt lat="41.762091" lon="-1.964721">
        <ele>1101.6</ele>
        <time>2023-02-11T10:54:27.000Z</time>
      </trkpt>
      <trkpt lat="41.762039" lon="-1.964663">
        <ele>1101.8</ele>
        <time>2023-02-11T10:54:28.000Z</time>
      </trkpt>
      <trkpt lat="41.761989" lon="-1.964606">
        <ele>1102</ele>
        <time>2023-02-11T10:54:29.000Z</time>
      </trkpt>
      <trkpt lat="41.76194" lon="-1.964547">
        <ele>1102</ele>
        <time>2023-02-11T10:54:30.000Z</time>
      </trkpt>
      <trkpt lat="41.76189" lon="-1.964489">
        <ele>1102.2</ele>
        <time>2023-02-11T10:54:31.000Z</time>
      </trkpt>
      <trkpt lat="41.761842" lon="-1.964432">
        <ele>1102.2</ele>
        <time>2023-02-11T10:54:32.000Z</time>
      </trkpt>
      <trkpt lat="41.761794" lon="-1.964376">
        <ele>1102.2</ele>
        <time>2023-02-11T10:54:33.000Z</time>
      </trkpt>
      <trkpt lat="41.761745" lon="-1.964319">
        <ele>1102.6</ele>
        <time>2023-02-11T10:54:34.000Z</time>
      </trkpt>
      <trkpt lat="41.761698" lon="-1.964262">
        <ele>1102.8</ele>
        <time>2023-02-11T10:54:35.000Z</time>
      </trkpt>
      <trkpt lat="41.761651" lon="-1.964207">
        <ele>1103</ele>
        <time>2023-02-11T10:54:36.000Z</time>
      </trkpt>
      <trkpt lat="41.761605" lon="-1.96415">
        <ele>1103.4</ele>
        <time>2023-02-11T10:54:37.000Z</time>
      </trkpt>
      <trkpt lat="41.761561" lon="-1.964095">
        <ele>1103.4</ele>
        <time>2023-02-11T10:54:38.000Z</time>
      </trkpt>
      <trkpt lat="41.761515" lon="-1.96404">
        <ele>1103.8</ele>
        <time>2023-02-11T10:54:39.000Z</time>
      </trkpt>
      <trkpt lat="41.761468" lon="-1.963986">
        <ele>1103.8</ele>
        <time>2023-02-11T10:54:40.000Z</time>
      </trkpt>
      <trkpt lat="41.761422" lon="-1.963933">
        <ele>1104.2</ele>
        <time>2023-02-11T10:54:41.000Z</time>
      </trkpt>
      <trkpt lat="41.761377" lon="-1.96388">
        <ele>1104.4</ele>
        <time>2023-02-11T10:54:42.000Z</time>
      </trkpt>
      <trkpt lat="41.761331" lon="-1.963826">
        <ele>1104.8</ele>
        <time>2023-02-11T10:54:43.000Z</time>
      </trkpt>
      <trkpt lat="41.761284" lon="-1.963772">
        <ele>1104.8</ele>
        <time>2023-02-11T10:54:44.000Z</time>
      </trkpt>
      <trkpt lat="41.761238" lon="-1.963717">
        <ele>1105</ele>
        <time>2023-02-11T10:54:45.000Z</time>
      </trkpt>
      <trkpt lat="41.761189" lon="-1.963664">
        <ele>1105</ele>
        <time>2023-02-11T10:54:46.000Z</time>
      </trkpt>
      <trkpt lat="41.761139" lon="-1.963612">
        <ele>1105.2</ele>
        <time>2023-02-11T10:54:47.000Z</time>
      </trkpt>
      <trkpt lat="41.761091" lon="-1.963558">
        <ele>1105.6</ele>
        <time>2023-02-11T10:54:48.000Z</time>
      </trkpt>
      <trkpt lat="41.761043" lon="-1.963503">
        <ele>1105.8</ele>
        <time>2023-02-11T10:54:49.000Z</time>
      </trkpt>
      <trkpt lat="41.760994" lon="-1.963447">
        <ele>1106</ele>
        <time>2023-02-11T10:54:50.000Z</time>
      </trkpt>
      <trkpt lat="41.760942" lon="-1.96339">
        <ele>1106.2</ele>
        <time>2023-02-11T10:54:51.000Z</time>
      </trkpt>
      <trkpt lat="41.76089" lon="-1.963334">
        <ele>1106.2</ele>
        <time>2023-02-11T10:54:52.000Z</time>
      </trkpt>
      <trkpt lat="41.760837" lon="-1.963276">
        <ele>1106.2</ele>
        <time>2023-02-11T10:54:53.000Z</time>
      </trkpt>
      <trkpt lat="41.760785" lon="-1.963219">
        <ele>1106.4</ele>
        <time>2023-02-11T10:54:54.000Z</time>
      </trkpt>
      <trkpt lat="41.760732" lon="-1.96316">
        <ele>1106.6</ele>
        <time>2023-02-11T10:54:55.000Z</time>
      </trkpt>
      <trkpt lat="41.760679" lon="-1.963102">
        <ele>1106.6</ele>
        <time>2023-02-11T10:54:56.000Z</time>
      </trkpt>
      <trkpt lat="41.760625" lon="-1.963043">
        <ele>1106.8</ele>
        <time>2023-02-11T10:54:57.000Z</time>
      </trkpt>
      <trkpt lat="41.760569" lon="-1.962983">
        <ele>1106.8</ele>
        <time>2023-02-11T10:54:58.000Z</time>
      </trkpt>
      <trkpt lat="41.760514" lon="-1.962923">
        <ele>1106.8</ele>
        <time>2023-02-11T10:54:59.000Z</time>
      </trkpt>
      <trkpt lat="41.760459" lon="-1.962861">
        <ele>1106.8</ele>
        <time>2023-02-11T10:55:00.000Z</time>
      </trkpt>
      <trkpt lat="41.760405" lon="-1.9628">
        <ele>1106.8</ele>
        <time>2023-02-11T10:55:01.000Z</time>
      </trkpt>
      <trkpt lat="41.760352" lon="-1.96274">
        <ele>1106.8</ele>
        <time>2023-02-11T10:55:02.000Z</time>
      </trkpt>
      <trkpt lat="41.760296" lon="-1.96268">
        <ele>1107</ele>
        <time>2023-02-11T10:55:03.000Z</time>
      </trkpt>
      <trkpt lat="41.760241" lon="-1.96262">
        <ele>1107</ele>
        <time>2023-02-11T10:55:04.000Z</time>
      </trkpt>
      <trkpt lat="41.760187" lon="-1.962559">
        <ele>1107.2</ele>
        <time>2023-02-11T10:55:05.000Z</time>
      </trkpt>
      <trkpt lat="41.760134" lon="-1.962498">
        <ele>1107.2</ele>
        <time>2023-02-11T10:55:06.000Z</time>
      </trkpt>
      <trkpt lat="41.760079" lon="-1.96244">
        <ele>1107.4</ele>
        <time>2023-02-11T10:55:07.000Z</time>
      </trkpt>
      <trkpt lat="41.760024" lon="-1.962382">
        <ele>1107.6</ele>
        <time>2023-02-11T10:55:08.000Z</time>
      </trkpt>
      <trkpt lat="41.759971" lon="-1.962323">
        <ele>1107.6</ele>
        <time>2023-02-11T10:55:09.000Z</time>
      </trkpt>
      <trkpt lat="41.759919" lon="-1.962267">
        <ele>1108</ele>
        <time>2023-02-11T10:55:10.000Z</time>
      </trkpt>
      <trkpt lat="41.759866" lon="-1.962213">
        <ele>1108.2</ele>
        <time>2023-02-11T10:55:11.000Z</time>
      </trkpt>
      <trkpt lat="41.759812" lon="-1.962159">
        <ele>1108.4</ele>
        <time>2023-02-11T10:55:12.000Z</time>
      </trkpt>
      <trkpt lat="41.759756" lon="-1.962105">
        <ele>1108.6</ele>
        <time>2023-02-11T10:55:13.000Z</time>
      </trkpt>
      <trkpt lat="41.759704" lon="-1.96205">
        <ele>1109</ele>
        <time>2023-02-11T10:55:14.000Z</time>
      </trkpt>
      <trkpt lat="41.759651" lon="-1.962">
        <ele>1109.2</ele>
        <time>2023-02-11T10:55:15.000Z</time>
      </trkpt>
      <trkpt lat="41.759598" lon="-1.961951">
        <ele>1109.4</ele>
        <time>2023-02-11T10:55:16.000Z</time>
      </trkpt>
      <trkpt lat="41.759544" lon="-1.961902">
        <ele>1109.6</ele>
        <time>2023-02-11T10:55:17.000Z</time>
      </trkpt>
      <trkpt lat="41.759491" lon="-1.961853">
        <ele>1109.6</ele>
        <time>2023-02-11T10:55:18.000Z</time>
      </trkpt>
      <trkpt lat="41.759438" lon="-1.961807">
        <ele>1110</ele>
        <time>2023-02-11T10:55:19.000Z</time>
      </trkpt>
      <trkpt lat="41.759385" lon="-1.961764">
        <ele>1110</ele>
        <time>2023-02-11T10:55:20.000Z</time>
      </trkpt>
      <trkpt lat="41.759331" lon="-1.961726">
        <ele>1110.2</ele>
        <time>2023-02-11T10:55:21.000Z</time>
      </trkpt>
      <trkpt lat="41.759277" lon="-1.961691">
        <ele>1110.2</ele>
        <time>2023-02-11T10:55:22.000Z</time>
      </trkpt>
      <trkpt lat="41.759223" lon="-1.961657">
        <ele>1110.4</ele>
        <time>2023-02-11T10:55:23.000Z</time>
      </trkpt>
      <trkpt lat="41.759168" lon="-1.961622">
        <ele>1110.6</ele>
        <time>2023-02-11T10:55:24.000Z</time>
      </trkpt>
      <trkpt lat="41.759115" lon="-1.961588">
        <ele>1111</ele>
        <time>2023-02-11T10:55:25.000Z</time>
      </trkpt>
      <trkpt lat="41.759065" lon="-1.961553">
        <ele>1111.4</ele>
        <time>2023-02-11T10:55:26.000Z</time>
      </trkpt>
      <trkpt lat="41.759014" lon="-1.961518">
        <ele>1111.6</ele>
        <time>2023-02-11T10:55:27.000Z</time>
      </trkpt>
      <trkpt lat="41.758962" lon="-1.961483">
        <ele>1111.6</ele>
        <time>2023-02-11T10:55:28.000Z</time>
      </trkpt>
      <trkpt lat="41.758911" lon="-1.961447">
        <ele>1111.8</ele>
        <time>2023-02-11T10:55:29.000Z</time>
      </trkpt>
      <trkpt lat="41.758861" lon="-1.961415">
        <ele>1112.2</ele>
        <time>2023-02-11T10:55:30.000Z</time>
      </trkpt>
      <trkpt lat="41.758808" lon="-1.961387">
        <ele>1112.6</ele>
        <time>2023-02-11T10:55:31.000Z</time>
      </trkpt>
      <trkpt lat="41.758755" lon="-1.96136">
        <ele>1112.8</ele>
        <time>2023-02-11T10:55:32.000Z</time>
      </trkpt>
      <trkpt lat="41.758704" lon="-1.961329">
        <ele>1112.8</ele>
        <time>2023-02-11T10:55:33.000Z</time>
      </trkpt>
      <trkpt lat="41.758656" lon="-1.961296">
        <ele>1113</ele>
        <time>2023-02-11T10:55:34.000Z</time>
      </trkpt>
      <trkpt lat="41.758606" lon="-1.961265">
        <ele>1113.2</ele>
        <time>2023-02-11T10:55:35.000Z</time>
      </trkpt>
      <trkpt lat="41.758557" lon="-1.961238">
        <ele>1113.4</ele>
        <time>2023-02-11T10:55:36.000Z</time>
      </trkpt>
      <trkpt lat="41.758506" lon="-1.961212">
        <ele>1113.6</ele>
        <time>2023-02-11T10:55:37.000Z</time>
      </trkpt>
      <trkpt lat="41.758455" lon="-1.961185">
        <ele>1113.8</ele>
        <time>2023-02-11T10:55:38.000Z</time>
      </trkpt>
      <trkpt lat="41.758404" lon="-1.961156">
        <ele>1114</ele>
        <time>2023-02-11T10:55:39.000Z</time>
      </trkpt>
      <trkpt lat="41.758354" lon="-1.961123">
        <ele>1114</ele>
        <time>2023-02-11T10:55:40.000Z</time>
      </trkpt>
      <trkpt lat="41.758304" lon="-1.961092">
        <ele>1114.4</ele>
        <time>2023-02-11T10:55:41.000Z</time>
      </trkpt>
      <trkpt lat="41.758257" lon="-1.961062">
        <ele>1114.8</ele>
        <time>2023-02-11T10:55:42.000Z</time>
      </trkpt>
      <trkpt lat="41.758208" lon="-1.961038">
        <ele>1115</ele>
        <time>2023-02-11T10:55:43.000Z</time>
      </trkpt>
      <trkpt lat="41.75816" lon="-1.961009">
        <ele>1115.4</ele>
        <time>2023-02-11T10:55:44.000Z</time>
      </trkpt>
      <trkpt lat="41.758114" lon="-1.96098">
        <ele>1115.6</ele>
        <time>2023-02-11T10:55:45.000Z</time>
      </trkpt>
      <trkpt lat="41.758069" lon="-1.960951">
        <ele>1115.8</ele>
        <time>2023-02-11T10:55:46.000Z</time>
      </trkpt>
      <trkpt lat="41.758025" lon="-1.960919">
        <ele>1115.8</ele>
        <time>2023-02-11T10:55:47.000Z</time>
      </trkpt>
      <trkpt lat="41.757978" lon="-1.960889">
        <ele>1116.2</ele>
        <time>2023-02-11T10:55:48.000Z</time>
      </trkpt>
      <trkpt lat="41.757929" lon="-1.96086">
        <ele>1116.2</ele>
        <time>2023-02-11T10:55:49.000Z</time>
      </trkpt>
      <trkpt lat="41.75788" lon="-1.960835">
        <ele>1116.8</ele>
        <time>2023-02-11T10:55:50.000Z</time>
      </trkpt>
      <trkpt lat="41.757831" lon="-1.960809">
        <ele>1116.8</ele>
        <time>2023-02-11T10:55:51.000Z</time>
      </trkpt>
      <trkpt lat="41.757779" lon="-1.96078">
        <ele>1117.2</ele>
        <time>2023-02-11T10:55:52.000Z</time>
      </trkpt>
      <trkpt lat="41.757729" lon="-1.960749">
        <ele>1117.4</ele>
        <time>2023-02-11T10:55:53.000Z</time>
      </trkpt>
      <trkpt lat="41.757683" lon="-1.960718">
        <ele>1117.8</ele>
        <time>2023-02-11T10:55:54.000Z</time>
      </trkpt>
      <trkpt lat="41.757636" lon="-1.960686">
        <ele>1118</ele>
        <time>2023-02-11T10:55:55.000Z</time>
      </trkpt>
      <trkpt lat="41.757588" lon="-1.960654">
        <ele>1118.2</ele>
        <time>2023-02-11T10:55:56.000Z</time>
      </trkpt>
      <trkpt lat="41.75754" lon="-1.960625">
        <ele>1118.4</ele>
        <time>2023-02-11T10:55:57.000Z</time>
      </trkpt>
      <trkpt lat="41.75749" lon="-1.960597">
        <ele>1118.6</ele>
        <time>2023-02-11T10:55:58.000Z</time>
      </trkpt>
      <trkpt lat="41.757441" lon="-1.960566">
        <ele>1119.2</ele>
        <time>2023-02-11T10:55:59.000Z</time>
      </trkpt>
      <trkpt lat="41.757394" lon="-1.960536">
        <ele>1119.2</ele>
        <time>2023-02-11T10:56:00.000Z</time>
      </trkpt>
      <trkpt lat="41.757348" lon="-1.960501">
        <ele>1119.4</ele>
        <time>2023-02-11T10:56:01.000Z</time>
      </trkpt>
      <trkpt lat="41.757304" lon="-1.960463">
        <ele>1119.8</ele>
        <time>2023-02-11T10:56:02.000Z</time>
      </trkpt>
      <trkpt lat="41.757259" lon="-1.960426">
        <ele>1119.8</ele>
        <time>2023-02-11T10:56:03.000Z</time>
      </trkpt>
      <trkpt lat="41.757213" lon="-1.960393">
        <ele>1120.2</ele>
        <time>2023-02-11T10:56:04.000Z</time>
      </trkpt>
      <trkpt lat="41.757167" lon="-1.96036">
        <ele>1120.2</ele>
        <time>2023-02-11T10:56:05.000Z</time>
      </trkpt>
      <trkpt lat="41.757121" lon="-1.960326">
        <ele>1120.6</ele>
        <time>2023-02-11T10:56:06.000Z</time>
      </trkpt>
      <trkpt lat="41.757076" lon="-1.960286">
        <ele>1120.6</ele>
        <time>2023-02-11T10:56:07.000Z</time>
      </trkpt>
      <trkpt lat="41.757033" lon="-1.960245">
        <ele>1121</ele>
        <time>2023-02-11T10:56:08.000Z</time>
      </trkpt>
      <trkpt lat="41.75699" lon="-1.960206">
        <ele>1121</ele>
        <time>2023-02-11T10:56:09.000Z</time>
      </trkpt>
      <trkpt lat="41.756946" lon="-1.960168">
        <ele>1121.4</ele>
        <time>2023-02-11T10:56:10.000Z</time>
      </trkpt>
      <trkpt lat="41.756903" lon="-1.960129">
        <ele>1121.6</ele>
        <time>2023-02-11T10:56:11.000Z</time>
      </trkpt>
      <trkpt lat="41.756861" lon="-1.96009">
        <ele>1122</ele>
        <time>2023-02-11T10:56:12.000Z</time>
      </trkpt>
      <trkpt lat="41.756819" lon="-1.960048">
        <ele>1122.4</ele>
        <time>2023-02-11T10:56:13.000Z</time>
      </trkpt>
      <trkpt lat="41.756776" lon="-1.960008">
        <ele>1122.4</ele>
        <time>2023-02-11T10:56:14.000Z</time>
      </trkpt>
      <trkpt lat="41.756737" lon="-1.959967">
        <ele>1122.8</ele>
        <time>2023-02-11T10:56:15.000Z</time>
      </trkpt>
      <trkpt lat="41.756699" lon="-1.959928">
        <ele>1122.8</ele>
        <time>2023-02-11T10:56:16.000Z</time>
      </trkpt>
      <trkpt lat="41.756661" lon="-1.95989">
        <ele>1123.2</ele>
        <time>2023-02-11T10:56:17.000Z</time>
      </trkpt>
      <trkpt lat="41.756627" lon="-1.959852">
        <ele>1123.4</ele>
        <time>2023-02-11T10:56:18.000Z</time>
      </trkpt>
      <trkpt lat="41.756593" lon="-1.959811">
        <ele>1123.8</ele>
        <time>2023-02-11T10:56:19.000Z</time>
      </trkpt>
      <trkpt lat="41.756563" lon="-1.959769">
        <ele>1124</ele>
        <time>2023-02-11T10:56:20.000Z</time>
      </trkpt>
      <trkpt lat="41.756531" lon="-1.959728">
        <ele>1124.4</ele>
        <time>2023-02-11T10:56:21.000Z</time>
      </trkpt>
      <trkpt lat="41.756502" lon="-1.959689">
        <ele>1124.6</ele>
        <time>2023-02-11T10:56:22.000Z</time>
      </trkpt>
      <trkpt lat="41.756472" lon="-1.959648">
        <ele>1125</ele>
        <time>2023-02-11T10:56:23.000Z</time>
      </trkpt>
      <trkpt lat="41.756444" lon="-1.959608">
        <ele>1125.2</ele>
        <time>2023-02-11T10:56:24.000Z</time>
      </trkpt>
      <trkpt lat="41.756414" lon="-1.959566">
        <ele>1125.6</ele>
        <time>2023-02-11T10:56:25.000Z</time>
      </trkpt>
      <trkpt lat="41.756386" lon="-1.959523">
        <ele>1126</ele>
        <time>2023-02-11T10:56:26.000Z</time>
      </trkpt>
      <trkpt lat="41.756358" lon="-1.959479">
        <ele>1126.2</ele>
        <time>2023-02-11T10:56:27.000Z</time>
      </trkpt>
      <trkpt lat="41.756329" lon="-1.959434">
        <ele>1126.4</ele>
        <time>2023-02-11T10:56:28.000Z</time>
      </trkpt>
      <trkpt lat="41.7563" lon="-1.95939">
        <ele>1126.8</ele>
        <time>2023-02-11T10:56:29.000Z</time>
      </trkpt>
      <trkpt lat="41.75627" lon="-1.959345">
        <ele>1127</ele>
        <time>2023-02-11T10:56:30.000Z</time>
      </trkpt>
      <trkpt lat="41.756238" lon="-1.959301">
        <ele>1127.2</ele>
        <time>2023-02-11T10:56:31.000Z</time>
      </trkpt>
      <trkpt lat="41.756206" lon="-1.959256">
        <ele>1127.6</ele>
        <time>2023-02-11T10:56:32.000Z</time>
      </trkpt>
      <trkpt lat="41.756174" lon="-1.959212">
        <ele>1128</ele>
        <time>2023-02-11T10:56:33.000Z</time>
      </trkpt>
      <trkpt lat="41.756141" lon="-1.959168">
        <ele>1128.4</ele>
        <time>2023-02-11T10:56:34.000Z</time>
      </trkpt>
      <trkpt lat="41.756108" lon="-1.959125">
        <ele>1128.8</ele>
        <time>2023-02-11T10:56:35.000Z</time>
      </trkpt>
      <trkpt lat="41.756077" lon="-1.959082">
        <ele>1129</ele>
        <time>2023-02-11T10:56:36.000Z</time>
      </trkpt>
      <trkpt lat="41.756045" lon="-1.95904">
        <ele>1129.4</ele>
        <time>2023-02-11T10:56:37.000Z</time>
      </trkpt>
      <trkpt lat="41.756012" lon="-1.958997">
        <ele>1129.8</ele>
        <time>2023-02-11T10:56:38.000Z</time>
      </trkpt>
      <trkpt lat="41.755982" lon="-1.958953">
        <ele>1130.2</ele>
        <time>2023-02-11T10:56:39.000Z</time>
      </trkpt>
      <trkpt lat="41.755953" lon="-1.958911">
        <ele>1130.4</ele>
        <time>2023-02-11T10:56:40.000Z</time>
      </trkpt>
      <trkpt lat="41.755923" lon="-1.958865">
        <ele>1130.8</ele>
        <time>2023-02-11T10:56:41.000Z</time>
      </trkpt>
      <trkpt lat="41.755894" lon="-1.958821">
        <ele>1131.2</ele>
        <time>2023-02-11T10:56:42.000Z</time>
      </trkpt>
      <trkpt lat="41.755866" lon="-1.958776">
        <ele>1131.4</ele>
        <time>2023-02-11T10:56:43.000Z</time>
      </trkpt>
      <trkpt lat="41.755841" lon="-1.958731">
        <ele>1131.8</ele>
        <time>2023-02-11T10:56:44.000Z</time>
      </trkpt>
      <trkpt lat="41.755815" lon="-1.958684">
        <ele>1132</ele>
        <time>2023-02-11T10:56:45.000Z</time>
      </trkpt>
      <trkpt lat="41.755792" lon="-1.95864">
        <ele>1132.4</ele>
        <time>2023-02-11T10:56:46.000Z</time>
      </trkpt>
      <trkpt lat="41.755769" lon="-1.958593">
        <ele>1132.6</ele>
        <time>2023-02-11T10:56:47.000Z</time>
      </trkpt>
      <trkpt lat="41.755743" lon="-1.958542">
        <ele>1133</ele>
        <time>2023-02-11T10:56:48.000Z</time>
      </trkpt>
      <trkpt lat="41.755714" lon="-1.958492">
        <ele>1133.2</ele>
        <time>2023-02-11T10:56:49.000Z</time>
      </trkpt>
      <trkpt lat="41.755689" lon="-1.958447">
        <ele>1133.6</ele>
        <time>2023-02-11T10:56:50.000Z</time>
      </trkpt>
      <trkpt lat="41.75566" lon="-1.958401">
        <ele>1133.8</ele>
        <time>2023-02-11T10:56:51.000Z</time>
      </trkpt>
      <trkpt lat="41.755632" lon="-1.958356">
        <ele>1134</ele>
        <time>2023-02-11T10:56:52.000Z</time>
      </trkpt>
      <trkpt lat="41.755605" lon="-1.958309">
        <ele>1134.4</ele>
        <time>2023-02-11T10:56:53.000Z</time>
      </trkpt>
      <trkpt lat="41.755579" lon="-1.958265">
        <ele>1134.6</ele>
        <time>2023-02-11T10:56:54.000Z</time>
      </trkpt>
      <trkpt lat="41.75555" lon="-1.958218">
        <ele>1135</ele>
        <time>2023-02-11T10:56:55.000Z</time>
      </trkpt>
      <trkpt lat="41.755526" lon="-1.958179">
        <ele>1135.2</ele>
        <time>2023-02-11T10:56:56.000Z</time>
      </trkpt>
      <trkpt lat="41.755499" lon="-1.958135">
        <ele>1135.6</ele>
        <time>2023-02-11T10:56:57.000Z</time>
      </trkpt>
      <trkpt lat="41.75547" lon="-1.95809">
        <ele>1135.8</ele>
        <time>2023-02-11T10:56:58.000Z</time>
      </trkpt>
      <trkpt lat="41.755442" lon="-1.958046">
        <ele>1136</ele>
        <time>2023-02-11T10:56:59.000Z</time>
      </trkpt>
      <trkpt lat="41.755416" lon="-1.958004">
        <ele>1136.2</ele>
        <time>2023-02-11T10:57:00.000Z</time>
      </trkpt>
      <trkpt lat="41.75539" lon="-1.957963">
        <ele>1136.6</ele>
        <time>2023-02-11T10:57:01.000Z</time>
      </trkpt>
      <trkpt lat="41.755366" lon="-1.957924">
        <ele>1137</ele>
        <time>2023-02-11T10:57:02.000Z</time>
      </trkpt>
      <trkpt lat="41.75534" lon="-1.957883">
        <ele>1137.2</ele>
        <time>2023-02-11T10:57:03.000Z</time>
      </trkpt>
      <trkpt lat="41.755313" lon="-1.957842">
        <ele>1137.6</ele>
        <time>2023-02-11T10:57:04.000Z</time>
      </trkpt>
      <trkpt lat="41.755285" lon="-1.957801">
        <ele>1137.6</ele>
        <time>2023-02-11T10:57:05.000Z</time>
      </trkpt>
      <trkpt lat="41.755255" lon="-1.957758">
        <ele>1138</ele>
        <time>2023-02-11T10:57:06.000Z</time>
      </trkpt>
      <trkpt lat="41.755226" lon="-1.957716">
        <ele>1138.2</ele>
        <time>2023-02-11T10:57:07.000Z</time>
      </trkpt>
      <trkpt lat="41.755199" lon="-1.957674">
        <ele>1138.6</ele>
        <time>2023-02-11T10:57:08.000Z</time>
      </trkpt>
      <trkpt lat="41.755171" lon="-1.95763">
        <ele>1138.8</ele>
        <time>2023-02-11T10:57:09.000Z</time>
      </trkpt>
      <trkpt lat="41.755142" lon="-1.957587">
        <ele>1139.2</ele>
        <time>2023-02-11T10:57:10.000Z</time>
      </trkpt>
      <trkpt lat="41.755113" lon="-1.957546">
        <ele>1139.8</ele>
        <time>2023-02-11T10:57:11.000Z</time>
      </trkpt>
      <trkpt lat="41.755083" lon="-1.957505">
        <ele>1139.8</ele>
        <time>2023-02-11T10:57:12.000Z</time>
      </trkpt>
      <trkpt lat="41.755055" lon="-1.957464">
        <ele>1140.2</ele>
        <time>2023-02-11T10:57:13.000Z</time>
      </trkpt>
      <trkpt lat="41.755027" lon="-1.957423">
        <ele>1140.6</ele>
        <time>2023-02-11T10:57:14.000Z</time>
      </trkpt>
      <trkpt lat="41.755" lon="-1.957383">
        <ele>1140.8</ele>
        <time>2023-02-11T10:57:15.000Z</time>
      </trkpt>
      <trkpt lat="41.754971" lon="-1.957344">
        <ele>1141</ele>
        <time>2023-02-11T10:57:16.000Z</time>
      </trkpt>
      <trkpt lat="41.754942" lon="-1.957303">
        <ele>1141.2</ele>
        <time>2023-02-11T10:57:17.000Z</time>
      </trkpt>
      <trkpt lat="41.754912" lon="-1.957262">
        <ele>1141.4</ele>
        <time>2023-02-11T10:57:18.000Z</time>
      </trkpt>
      <trkpt lat="41.754882" lon="-1.957222">
        <ele>1141.8</ele>
        <time>2023-02-11T10:57:19.000Z</time>
      </trkpt>
      <trkpt lat="41.754854" lon="-1.957183">
        <ele>1141.8</ele>
        <time>2023-02-11T10:57:20.000Z</time>
      </trkpt>
      <trkpt lat="41.754826" lon="-1.957145">
        <ele>1142.2</ele>
        <time>2023-02-11T10:57:21.000Z</time>
      </trkpt>
      <trkpt lat="41.7548" lon="-1.957108">
        <ele>1142.6</ele>
        <time>2023-02-11T10:57:22.000Z</time>
      </trkpt>
      <trkpt lat="41.754774" lon="-1.957067">
        <ele>1142.6</ele>
        <time>2023-02-11T10:57:23.000Z</time>
      </trkpt>
      <trkpt lat="41.754746" lon="-1.957027">
        <ele>1143</ele>
        <time>2023-02-11T10:57:24.000Z</time>
      </trkpt>
      <trkpt lat="41.754716" lon="-1.956989">
        <ele>1143.4</ele>
        <time>2023-02-11T10:57:25.000Z</time>
      </trkpt>
      <trkpt lat="41.754685" lon="-1.956951">
        <ele>1143.8</ele>
        <time>2023-02-11T10:57:26.000Z</time>
      </trkpt>
      <trkpt lat="41.754654" lon="-1.956912">
        <ele>1144</ele>
        <time>2023-02-11T10:57:27.000Z</time>
      </trkpt>
      <trkpt lat="41.754622" lon="-1.956873">
        <ele>1144.4</ele>
        <time>2023-02-11T10:57:28.000Z</time>
      </trkpt>
      <trkpt lat="41.75459" lon="-1.956835">
        <ele>1144.6</ele>
        <time>2023-02-11T10:57:29.000Z</time>
      </trkpt>
      <trkpt lat="41.754558" lon="-1.956797">
        <ele>1145</ele>
        <time>2023-02-11T10:57:30.000Z</time>
      </trkpt>
      <trkpt lat="41.754526" lon="-1.956756">
        <ele>1145.6</ele>
        <time>2023-02-11T10:57:31.000Z</time>
      </trkpt>
      <trkpt lat="41.754496" lon="-1.956717">
        <ele>1145.8</ele>
        <time>2023-02-11T10:57:32.000Z</time>
      </trkpt>
      <trkpt lat="41.754467" lon="-1.956677">
        <ele>1146.4</ele>
        <time>2023-02-11T10:57:33.000Z</time>
      </trkpt>
      <trkpt lat="41.754437" lon="-1.956638">
        <ele>1146.6</ele>
        <time>2023-02-11T10:57:34.000Z</time>
      </trkpt>
      <trkpt lat="41.754407" lon="-1.956602">
        <ele>1147</ele>
        <time>2023-02-11T10:57:35.000Z</time>
      </trkpt>
      <trkpt lat="41.754376" lon="-1.956566">
        <ele>1147</ele>
        <time>2023-02-11T10:57:36.000Z</time>
      </trkpt>
      <trkpt lat="41.754345" lon="-1.956529">
        <ele>1147.2</ele>
        <time>2023-02-11T10:57:37.000Z</time>
      </trkpt>
      <trkpt lat="41.754312" lon="-1.956493">
        <ele>1147.4</ele>
        <time>2023-02-11T10:57:38.000Z</time>
      </trkpt>
      <trkpt lat="41.75428" lon="-1.956458">
        <ele>1147.8</ele>
        <time>2023-02-11T10:57:39.000Z</time>
      </trkpt>
      <trkpt lat="41.754246" lon="-1.956421">
        <ele>1148</ele>
        <time>2023-02-11T10:57:40.000Z</time>
      </trkpt>
      <trkpt lat="41.75421" lon="-1.956388">
        <ele>1148.4</ele>
        <time>2023-02-11T10:57:41.000Z</time>
      </trkpt>
      <trkpt lat="41.754175" lon="-1.956356">
        <ele>1149</ele>
        <time>2023-02-11T10:57:42.000Z</time>
      </trkpt>
      <trkpt lat="41.754138" lon="-1.956326">
        <ele>1149.2</ele>
        <time>2023-02-11T10:57:43.000Z</time>
      </trkpt>
      <trkpt lat="41.754103" lon="-1.956294">
        <ele>1149.6</ele>
        <time>2023-02-11T10:57:44.000Z</time>
      </trkpt>
      <trkpt lat="41.754066" lon="-1.956264">
        <ele>1149.6</ele>
        <time>2023-02-11T10:57:45.000Z</time>
      </trkpt>
      <trkpt lat="41.754028" lon="-1.956234">
        <ele>1150</ele>
        <time>2023-02-11T10:57:46.000Z</time>
      </trkpt>
      <trkpt lat="41.753989" lon="-1.956205">
        <ele>1150</ele>
        <time>2023-02-11T10:57:47.000Z</time>
      </trkpt>
      <trkpt lat="41.753949" lon="-1.956175">
        <ele>1150.4</ele>
        <time>2023-02-11T10:57:48.000Z</time>
      </trkpt>
      <trkpt lat="41.753911" lon="-1.956143">
        <ele>1150.6</ele>
        <time>2023-02-11T10:57:49.000Z</time>
      </trkpt>
      <trkpt lat="41.753875" lon="-1.956112">
        <ele>1151</ele>
        <time>2023-02-11T10:57:50.000Z</time>
      </trkpt>
      <trkpt lat="41.753839" lon="-1.956084">
        <ele>1151.4</ele>
        <time>2023-02-11T10:57:51.000Z</time>
      </trkpt>
      <trkpt lat="41.7538" lon="-1.956056">
        <ele>1151.4</ele>
        <time>2023-02-11T10:57:52.000Z</time>
      </trkpt>
      <trkpt lat="41.753761" lon="-1.956029">
        <ele>1152.2</ele>
        <time>2023-02-11T10:57:53.000Z</time>
      </trkpt>
      <trkpt lat="41.753723" lon="-1.956">
        <ele>1152.2</ele>
        <time>2023-02-11T10:57:54.000Z</time>
      </trkpt>
      <trkpt lat="41.753682" lon="-1.955973">
        <ele>1152.4</ele>
        <time>2023-02-11T10:57:55.000Z</time>
      </trkpt>
      <trkpt lat="41.753639" lon="-1.955948">
        <ele>1152.6</ele>
        <time>2023-02-11T10:57:56.000Z</time>
      </trkpt>
      <trkpt lat="41.753593" lon="-1.955923">
        <ele>1153</ele>
        <time>2023-02-11T10:57:57.000Z</time>
      </trkpt>
      <trkpt lat="41.753549" lon="-1.955894">
        <ele>1153.2</ele>
        <time>2023-02-11T10:57:58.000Z</time>
      </trkpt>
      <trkpt lat="41.753507" lon="-1.955863">
        <ele>1153.6</ele>
        <time>2023-02-11T10:57:59.000Z</time>
      </trkpt>
      <trkpt lat="41.753463" lon="-1.955833">
        <ele>1154</ele>
        <time>2023-02-11T10:58:00.000Z</time>
      </trkpt>
      <trkpt lat="41.753419" lon="-1.955805">
        <ele>1154</ele>
        <time>2023-02-11T10:58:01.000Z</time>
      </trkpt>
      <trkpt lat="41.753374" lon="-1.955777">
        <ele>1154.4</ele>
        <time>2023-02-11T10:58:02.000Z</time>
      </trkpt>
      <trkpt lat="41.753329" lon="-1.955751">
        <ele>1154.4</ele>
        <time>2023-02-11T10:58:03.000Z</time>
      </trkpt>
      <trkpt lat="41.753283" lon="-1.955725">
        <ele>1154.8</ele>
        <time>2023-02-11T10:58:04.000Z</time>
      </trkpt>
      <trkpt lat="41.753237" lon="-1.955698">
        <ele>1154.8</ele>
        <time>2023-02-11T10:58:05.000Z</time>
      </trkpt>
      <trkpt lat="41.753193" lon="-1.955667">
        <ele>1155.4</ele>
        <time>2023-02-11T10:58:06.000Z</time>
      </trkpt>
      <trkpt lat="41.753147" lon="-1.955639">
        <ele>1155.4</ele>
        <time>2023-02-11T10:58:07.000Z</time>
      </trkpt>
      <trkpt lat="41.753103" lon="-1.955613">
        <ele>1155.6</ele>
        <time>2023-02-11T10:58:08.000Z</time>
      </trkpt>
      <trkpt lat="41.753057" lon="-1.955584">
        <ele>1155.8</ele>
        <time>2023-02-11T10:58:09.000Z</time>
      </trkpt>
      <trkpt lat="41.753013" lon="-1.955557">
        <ele>1156</ele>
        <time>2023-02-11T10:58:10.000Z</time>
      </trkpt>
      <trkpt lat="41.75297" lon="-1.955531">
        <ele>1156.4</ele>
        <time>2023-02-11T10:58:11.000Z</time>
      </trkpt>
      <trkpt lat="41.752927" lon="-1.955505">
        <ele>1156.8</ele>
        <time>2023-02-11T10:58:12.000Z</time>
      </trkpt>
      <trkpt lat="41.752884" lon="-1.955482">
        <ele>1157</ele>
        <time>2023-02-11T10:58:13.000Z</time>
      </trkpt>
      <trkpt lat="41.752842" lon="-1.955456">
        <ele>1157</ele>
        <time>2023-02-11T10:58:14.000Z</time>
      </trkpt>
      <trkpt lat="41.752801" lon="-1.955429">
        <ele>1157.2</ele>
        <time>2023-02-11T10:58:15.000Z</time>
      </trkpt>
      <trkpt lat="41.75276" lon="-1.955405">
        <ele>1157.4</ele>
        <time>2023-02-11T10:58:16.000Z</time>
      </trkpt>
      <trkpt lat="41.752719" lon="-1.955382">
        <ele>1157.6</ele>
        <time>2023-02-11T10:58:17.000Z</time>
      </trkpt>
      <trkpt lat="41.752678" lon="-1.955355">
        <ele>1158</ele>
        <time>2023-02-11T10:58:18.000Z</time>
      </trkpt>
      <trkpt lat="41.75264" lon="-1.955327">
        <ele>1158</ele>
        <time>2023-02-11T10:58:19.000Z</time>
      </trkpt>
      <trkpt lat="41.7526" lon="-1.955302">
        <ele>1158.2</ele>
        <time>2023-02-11T10:58:20.000Z</time>
      </trkpt>
      <trkpt lat="41.752562" lon="-1.955278">
        <ele>1158.4</ele>
        <time>2023-02-11T10:58:21.000Z</time>
      </trkpt>
      <trkpt lat="41.75252" lon="-1.955252">
        <ele>1158.6</ele>
        <time>2023-02-11T10:58:22.000Z</time>
      </trkpt>
      <trkpt lat="41.75248" lon="-1.955225">
        <ele>1158.8</ele>
        <time>2023-02-11T10:58:23.000Z</time>
      </trkpt>
      <trkpt lat="41.752442" lon="-1.955196">
        <ele>1159.2</ele>
        <time>2023-02-11T10:58:24.000Z</time>
      </trkpt>
      <trkpt lat="41.752403" lon="-1.955169">
        <ele>1159.6</ele>
        <time>2023-02-11T10:58:25.000Z</time>
      </trkpt>
      <trkpt lat="41.752364" lon="-1.955143">
        <ele>1159.8</ele>
        <time>2023-02-11T10:58:26.000Z</time>
      </trkpt>
      <trkpt lat="41.752325" lon="-1.955118">
        <ele>1160</ele>
        <time>2023-02-11T10:58:27.000Z</time>
      </trkpt>
      <trkpt lat="41.752284" lon="-1.955092">
        <ele>1160.2</ele>
        <time>2023-02-11T10:58:28.000Z</time>
      </trkpt>
      <trkpt lat="41.752243" lon="-1.955064">
        <ele>1160.6</ele>
        <time>2023-02-11T10:58:29.000Z</time>
      </trkpt>
      <trkpt lat="41.752202" lon="-1.955038">
        <ele>1160.8</ele>
        <time>2023-02-11T10:58:30.000Z</time>
      </trkpt>
      <trkpt lat="41.752161" lon="-1.955009">
        <ele>1161</ele>
        <time>2023-02-11T10:58:31.000Z</time>
      </trkpt>
      <trkpt lat="41.75212" lon="-1.954978">
        <ele>1161.2</ele>
        <time>2023-02-11T10:58:32.000Z</time>
      </trkpt>
      <trkpt lat="41.75208" lon="-1.954948">
        <ele>1161.6</ele>
        <time>2023-02-11T10:58:33.000Z</time>
      </trkpt>
      <trkpt lat="41.752042" lon="-1.954919">
        <ele>1161.8</ele>
        <time>2023-02-11T10:58:34.000Z</time>
      </trkpt>
      <trkpt lat="41.752003" lon="-1.954889">
        <ele>1162</ele>
        <time>2023-02-11T10:58:35.000Z</time>
      </trkpt>
      <trkpt lat="41.751964" lon="-1.954858">
        <ele>1162.2</ele>
        <time>2023-02-11T10:58:36.000Z</time>
      </trkpt>
      <trkpt lat="41.751926" lon="-1.95483">
        <ele>1162.6</ele>
        <time>2023-02-11T10:58:37.000Z</time>
      </trkpt>
      <trkpt lat="41.751887" lon="-1.954801">
        <ele>1162.8</ele>
        <time>2023-02-11T10:58:38.000Z</time>
      </trkpt>
      <trkpt lat="41.751847" lon="-1.954775">
        <ele>1163.2</ele>
        <time>2023-02-11T10:58:39.000Z</time>
      </trkpt>
      <trkpt lat="41.751805" lon="-1.954748">
        <ele>1163.4</ele>
        <time>2023-02-11T10:58:40.000Z</time>
      </trkpt>
      <trkpt lat="41.751764" lon="-1.954719">
        <ele>1163.6</ele>
        <time>2023-02-11T10:58:41.000Z</time>
      </trkpt>
      <trkpt lat="41.751724" lon="-1.954686">
        <ele>1164</ele>
        <time>2023-02-11T10:58:42.000Z</time>
      </trkpt>
      <trkpt lat="41.751686" lon="-1.95465">
        <ele>1164.2</ele>
        <time>2023-02-11T10:58:43.000Z</time>
      </trkpt>
      <trkpt lat="41.751651" lon="-1.954615">
        <ele>1164.8</ele>
        <time>2023-02-11T10:58:44.000Z</time>
      </trkpt>
      <trkpt lat="41.751618" lon="-1.95458">
        <ele>1165</ele>
        <time>2023-02-11T10:58:45.000Z</time>
      </trkpt>
      <trkpt lat="41.751582" lon="-1.954545">
        <ele>1165.4</ele>
        <time>2023-02-11T10:58:46.000Z</time>
      </trkpt>
      <trkpt lat="41.751544" lon="-1.95451">
        <ele>1165.6</ele>
        <time>2023-02-11T10:58:47.000Z</time>
      </trkpt>
      <trkpt lat="41.751507" lon="-1.954475">
        <ele>1166</ele>
        <time>2023-02-11T10:58:48.000Z</time>
      </trkpt>
      <trkpt lat="41.75147" lon="-1.954438">
        <ele>1166.4</ele>
        <time>2023-02-11T10:58:49.000Z</time>
      </trkpt>
      <trkpt lat="41.751433" lon="-1.954401">
        <ele>1166.6</ele>
        <time>2023-02-11T10:58:50.000Z</time>
      </trkpt>
      <trkpt lat="41.751397" lon="-1.954363">
        <ele>1167.2</ele>
        <time>2023-02-11T10:58:51.000Z</time>
      </trkpt>
      <trkpt lat="41.751362" lon="-1.954325">
        <ele>1167.2</ele>
        <time>2023-02-11T10:58:52.000Z</time>
      </trkpt>
      <trkpt lat="41.751327" lon="-1.954289">
        <ele>1167.6</ele>
        <time>2023-02-11T10:58:53.000Z</time>
      </trkpt>
      <trkpt lat="41.751292" lon="-1.954255">
        <ele>1167.8</ele>
        <time>2023-02-11T10:58:54.000Z</time>
      </trkpt>
      <trkpt lat="41.751254" lon="-1.95422">
        <ele>1168.2</ele>
        <time>2023-02-11T10:58:55.000Z</time>
      </trkpt>
      <trkpt lat="41.751216" lon="-1.954185">
        <ele>1168.4</ele>
        <time>2023-02-11T10:58:56.000Z</time>
      </trkpt>
      <trkpt lat="41.751181" lon="-1.954147">
        <ele>1169</ele>
        <time>2023-02-11T10:58:57.000Z</time>
      </trkpt>
      <trkpt lat="41.751143" lon="-1.954111">
        <ele>1169.4</ele>
        <time>2023-02-11T10:58:58.000Z</time>
      </trkpt>
      <trkpt lat="41.751105" lon="-1.954074">
        <ele>1169.4</ele>
        <time>2023-02-11T10:58:59.000Z</time>
      </trkpt>
      <trkpt lat="41.75107" lon="-1.954035">
        <ele>1170</ele>
        <time>2023-02-11T10:59:00.000Z</time>
      </trkpt>
      <trkpt lat="41.751039" lon="-1.953997">
        <ele>1170.2</ele>
        <time>2023-02-11T10:59:01.000Z</time>
      </trkpt>
      <trkpt lat="41.751009" lon="-1.953959">
        <ele>1170.8</ele>
        <time>2023-02-11T10:59:02.000Z</time>
      </trkpt>
      <trkpt lat="41.750977" lon="-1.953923">
        <ele>1171</ele>
        <time>2023-02-11T10:59:03.000Z</time>
      </trkpt>
      <trkpt lat="41.750944" lon="-1.953888">
        <ele>1171.6</ele>
        <time>2023-02-11T10:59:04.000Z</time>
      </trkpt>
      <trkpt lat="41.750911" lon="-1.953854">
        <ele>1171.6</ele>
        <time>2023-02-11T10:59:05.000Z</time>
      </trkpt>
      <trkpt lat="41.750878" lon="-1.953819">
        <ele>1172</ele>
        <time>2023-02-11T10:59:06.000Z</time>
      </trkpt>
      <trkpt lat="41.750843" lon="-1.95378">
        <ele>1172.4</ele>
        <time>2023-02-11T10:59:07.000Z</time>
      </trkpt>
      <trkpt lat="41.750806" lon="-1.953744">
        <ele>1172.6</ele>
        <time>2023-02-11T10:59:08.000Z</time>
      </trkpt>
      <trkpt lat="41.750771" lon="-1.953709">
        <ele>1173.2</ele>
        <time>2023-02-11T10:59:09.000Z</time>
      </trkpt>
      <trkpt lat="41.750739" lon="-1.953674">
        <ele>1173.2</ele>
        <time>2023-02-11T10:59:10.000Z</time>
      </trkpt>
      <trkpt lat="41.750708" lon="-1.953637">
        <ele>1173.4</ele>
        <time>2023-02-11T10:59:11.000Z</time>
      </trkpt>
      <trkpt lat="41.750675" lon="-1.953601">
        <ele>1173.8</ele>
        <time>2023-02-11T10:59:12.000Z</time>
      </trkpt>
      <trkpt lat="41.75064" lon="-1.953567">
        <ele>1174.4</ele>
        <time>2023-02-11T10:59:13.000Z</time>
      </trkpt>
      <trkpt lat="41.750604" lon="-1.953533">
        <ele>1174.2</ele>
        <time>2023-02-11T10:59:14.000Z</time>
      </trkpt>
      <trkpt lat="41.750567" lon="-1.9535">
        <ele>1174.8</ele>
        <time>2023-02-11T10:59:15.000Z</time>
      </trkpt>
      <trkpt lat="41.750532" lon="-1.953468">
        <ele>1175.2</ele>
        <time>2023-02-11T10:59:16.000Z</time>
      </trkpt>
      <trkpt lat="41.750499" lon="-1.953435">
        <ele>1175.6</ele>
        <time>2023-02-11T10:59:17.000Z</time>
      </trkpt>
      <trkpt lat="41.750466" lon="-1.953399">
        <ele>1176</ele>
        <time>2023-02-11T10:59:18.000Z</time>
      </trkpt>
      <trkpt lat="41.750434" lon="-1.953365">
        <ele>1176.2</ele>
        <time>2023-02-11T10:59:19.000Z</time>
      </trkpt>
      <trkpt lat="41.750402" lon="-1.953331">
        <ele>1176.8</ele>
        <time>2023-02-11T10:59:20.000Z</time>
      </trkpt>
      <trkpt lat="41.75037" lon="-1.953296">
        <ele>1177</ele>
        <time>2023-02-11T10:59:21.000Z</time>
      </trkpt>
      <trkpt lat="41.750336" lon="-1.953258">
        <ele>1177.4</ele>
        <time>2023-02-11T10:59:22.000Z</time>
      </trkpt>
      <trkpt lat="41.750299" lon="-1.953219">
        <ele>1177.4</ele>
        <time>2023-02-11T10:59:23.000Z</time>
      </trkpt>
      <trkpt lat="41.750261" lon="-1.953181">
        <ele>1177.6</ele>
        <time>2023-02-11T10:59:24.000Z</time>
      </trkpt>
      <trkpt lat="41.75022" lon="-1.953145">
        <ele>1177.8</ele>
        <time>2023-02-11T10:59:25.000Z</time>
      </trkpt>
      <trkpt lat="41.75018" lon="-1.953109">
        <ele>1178</ele>
        <time>2023-02-11T10:59:26.000Z</time>
      </trkpt>
      <trkpt lat="41.750143" lon="-1.95307">
        <ele>1178.4</ele>
        <time>2023-02-11T10:59:27.000Z</time>
      </trkpt>
      <trkpt lat="41.750105" lon="-1.953034">
        <ele>1178.6</ele>
        <time>2023-02-11T10:59:28.000Z</time>
      </trkpt>
      <trkpt lat="41.750069" lon="-1.952998">
        <ele>1179</ele>
        <time>2023-02-11T10:59:29.000Z</time>
      </trkpt>
      <trkpt lat="41.75003" lon="-1.952959">
        <ele>1179</ele>
        <time>2023-02-11T10:59:30.000Z</time>
      </trkpt>
      <trkpt lat="41.749992" lon="-1.952921">
        <ele>1179.2</ele>
        <time>2023-02-11T10:59:31.000Z</time>
      </trkpt>
      <trkpt lat="41.749953" lon="-1.952885">
        <ele>1179.4</ele>
        <time>2023-02-11T10:59:32.000Z</time>
      </trkpt>
      <trkpt lat="41.749913" lon="-1.952849">
        <ele>1179.8</ele>
        <time>2023-02-11T10:59:33.000Z</time>
      </trkpt>
      <trkpt lat="41.749873" lon="-1.952813">
        <ele>1180</ele>
        <time>2023-02-11T10:59:34.000Z</time>
      </trkpt>
      <trkpt lat="41.749833" lon="-1.952775">
        <ele>1180.6</ele>
        <time>2023-02-11T10:59:35.000Z</time>
      </trkpt>
      <trkpt lat="41.749794" lon="-1.95274">
        <ele>1181.2</ele>
        <time>2023-02-11T10:59:36.000Z</time>
      </trkpt>
      <trkpt lat="41.749754" lon="-1.952703">
        <ele>1181.4</ele>
        <time>2023-02-11T10:59:37.000Z</time>
      </trkpt>
      <trkpt lat="41.749714" lon="-1.952667">
        <ele>1181.8</ele>
        <time>2023-02-11T10:59:38.000Z</time>
      </trkpt>
      <trkpt lat="41.749675" lon="-1.952632">
        <ele>1182</ele>
        <time>2023-02-11T10:59:39.000Z</time>
      </trkpt>
      <trkpt lat="41.749632" lon="-1.952595">
        <ele>1182.2</ele>
        <time>2023-02-11T10:59:40.000Z</time>
      </trkpt>
      <trkpt lat="41.749589" lon="-1.952556">
        <ele>1182.4</ele>
        <time>2023-02-11T10:59:41.000Z</time>
      </trkpt>
      <trkpt lat="41.749549" lon="-1.952518">
        <ele>1182.8</ele>
        <time>2023-02-11T10:59:42.000Z</time>
      </trkpt>
      <trkpt lat="41.74951" lon="-1.952484">
        <ele>1183</ele>
        <time>2023-02-11T10:59:43.000Z</time>
      </trkpt>
      <trkpt lat="41.74947" lon="-1.952448">
        <ele>1183.4</ele>
        <time>2023-02-11T10:59:44.000Z</time>
      </trkpt>
      <trkpt lat="41.74943" lon="-1.952412">
        <ele>1183.4</ele>
        <time>2023-02-11T10:59:45.000Z</time>
      </trkpt>
      <trkpt lat="41.749391" lon="-1.952374">
        <ele>1183.6</ele>
        <time>2023-02-11T10:59:46.000Z</time>
      </trkpt>
      <trkpt lat="41.74935" lon="-1.952335">
        <ele>1183.8</ele>
        <time>2023-02-11T10:59:47.000Z</time>
      </trkpt>
      <trkpt lat="41.74931" lon="-1.952299">
        <ele>1184</ele>
        <time>2023-02-11T10:59:48.000Z</time>
      </trkpt>
      <trkpt lat="41.749271" lon="-1.952261">
        <ele>1184.4</ele>
        <time>2023-02-11T10:59:49.000Z</time>
      </trkpt>
      <trkpt lat="41.749231" lon="-1.952224">
        <ele>1184.4</ele>
        <time>2023-02-11T10:59:50.000Z</time>
      </trkpt>
      <trkpt lat="41.749194" lon="-1.952187">
        <ele>1184.6</ele>
        <time>2023-02-11T10:59:51.000Z</time>
      </trkpt>
      <trkpt lat="41.749154" lon="-1.952148">
        <ele>1185</ele>
        <time>2023-02-11T10:59:52.000Z</time>
      </trkpt>
      <trkpt lat="41.749114" lon="-1.95211">
        <ele>1185.4</ele>
        <time>2023-02-11T10:59:53.000Z</time>
      </trkpt>
      <trkpt lat="41.749074" lon="-1.952073">
        <ele>1185.6</ele>
        <time>2023-02-11T10:59:54.000Z</time>
      </trkpt>
      <trkpt lat="41.749034" lon="-1.952038">
        <ele>1186.2</ele>
        <time>2023-02-11T10:59:55.000Z</time>
      </trkpt>
      <trkpt lat="41.748995" lon="-1.952003">
        <ele>1186.4</ele>
        <time>2023-02-11T10:59:56.000Z</time>
      </trkpt>
      <trkpt lat="41.748954" lon="-1.951966">
        <ele>1186.6</ele>
        <time>2023-02-11T10:59:57.000Z</time>
      </trkpt>
      <trkpt lat="41.748914" lon="-1.951928">
        <ele>1186.8</ele>
        <time>2023-02-11T10:59:58.000Z</time>
      </trkpt>
      <trkpt lat="41.748874" lon="-1.951889">
        <ele>1186.8</ele>
        <time>2023-02-11T10:59:59.000Z</time>
      </trkpt>
      <trkpt lat="41.748834" lon="-1.951849">
        <ele>1187.2</ele>
        <time>2023-02-11T11:00:00.000Z</time>
      </trkpt>
      <trkpt lat="41.748794" lon="-1.951811">
        <ele>1187.4</ele>
        <time>2023-02-11T11:00:01.000Z</time>
      </trkpt>
      <trkpt lat="41.748754" lon="-1.951773">
        <ele>1187.8</ele>
        <time>2023-02-11T11:00:02.000Z</time>
      </trkpt>
      <trkpt lat="41.748714" lon="-1.951734">
        <ele>1187.8</ele>
        <time>2023-02-11T11:00:03.000Z</time>
      </trkpt>
      <trkpt lat="41.748674" lon="-1.951696">
        <ele>1188</ele>
        <time>2023-02-11T11:00:04.000Z</time>
      </trkpt>
      <trkpt lat="41.748634" lon="-1.951659">
        <ele>1188.2</ele>
        <time>2023-02-11T11:00:05.000Z</time>
      </trkpt>
      <trkpt lat="41.748593" lon="-1.951622">
        <ele>1188.6</ele>
        <time>2023-02-11T11:00:06.000Z</time>
      </trkpt>
      <trkpt lat="41.74855" lon="-1.951583">
        <ele>1188.8</ele>
        <time>2023-02-11T11:00:07.000Z</time>
      </trkpt>
      <trkpt lat="41.748509" lon="-1.951545">
        <ele>1189</ele>
        <time>2023-02-11T11:00:08.000Z</time>
      </trkpt>
      <trkpt lat="41.74847" lon="-1.951507">
        <ele>1189.4</ele>
        <time>2023-02-11T11:00:09.000Z</time>
      </trkpt>
      <trkpt lat="41.748431" lon="-1.951467">
        <ele>1189.6</ele>
        <time>2023-02-11T11:00:10.000Z</time>
      </trkpt>
      <trkpt lat="41.748389" lon="-1.951426">
        <ele>1190.2</ele>
        <time>2023-02-11T11:00:11.000Z</time>
      </trkpt>
      <trkpt lat="41.748349" lon="-1.951386">
        <ele>1190.2</ele>
        <time>2023-02-11T11:00:12.000Z</time>
      </trkpt>
      <trkpt lat="41.748308" lon="-1.951346">
        <ele>1190.6</ele>
        <time>2023-02-11T11:00:13.000Z</time>
      </trkpt>
      <trkpt lat="41.74827" lon="-1.951307">
        <ele>1190.6</ele>
        <time>2023-02-11T11:00:14.000Z</time>
      </trkpt>
      <trkpt lat="41.748231" lon="-1.951267">
        <ele>1191</ele>
        <time>2023-02-11T11:00:15.000Z</time>
      </trkpt>
      <trkpt lat="41.74819" lon="-1.951227">
        <ele>1191</ele>
        <time>2023-02-11T11:00:16.000Z</time>
      </trkpt>
      <trkpt lat="41.74815" lon="-1.951186">
        <ele>1191.4</ele>
        <time>2023-02-11T11:00:17.000Z</time>
      </trkpt>
      <trkpt lat="41.748111" lon="-1.951145">
        <ele>1191.8</ele>
        <time>2023-02-11T11:00:18.000Z</time>
      </trkpt>
      <trkpt lat="41.748072" lon="-1.951102">
        <ele>1192</ele>
        <time>2023-02-11T11:00:19.000Z</time>
      </trkpt>
      <trkpt lat="41.748033" lon="-1.951058">
        <ele>1192.4</ele>
        <time>2023-02-11T11:00:20.000Z</time>
      </trkpt>
      <trkpt lat="41.747991" lon="-1.951013">
        <ele>1192.6</ele>
        <time>2023-02-11T11:00:21.000Z</time>
      </trkpt>
      <trkpt lat="41.747951" lon="-1.950968">
        <ele>1192.8</ele>
        <time>2023-02-11T11:00:22.000Z</time>
      </trkpt>
      <trkpt lat="41.747911" lon="-1.950925">
        <ele>1193</ele>
        <time>2023-02-11T11:00:23.000Z</time>
      </trkpt>
      <trkpt lat="41.747869" lon="-1.95088">
        <ele>1193.2</ele>
        <time>2023-02-11T11:00:24.000Z</time>
      </trkpt>
      <trkpt lat="41.747826" lon="-1.950833">
        <ele>1193.6</ele>
        <time>2023-02-11T11:00:25.000Z</time>
      </trkpt>
      <trkpt lat="41.747783" lon="-1.950783">
        <ele>1193.8</ele>
        <time>2023-02-11T11:00:26.000Z</time>
      </trkpt>
      <trkpt lat="41.747737" lon="-1.950729">
        <ele>1194.2</ele>
        <time>2023-02-11T11:00:27.000Z</time>
      </trkpt>
      <trkpt lat="41.74769" lon="-1.950674">
        <ele>1194.2</ele>
        <time>2023-02-11T11:00:28.000Z</time>
      </trkpt>
      <trkpt lat="41.747643" lon="-1.950619">
        <ele>1194.4</ele>
        <time>2023-02-11T11:00:29.000Z</time>
      </trkpt>
      <trkpt lat="41.747597" lon="-1.950565">
        <ele>1194.4</ele>
        <time>2023-02-11T11:00:30.000Z</time>
      </trkpt>
      <trkpt lat="41.74755" lon="-1.950507">
        <ele>1194.6</ele>
        <time>2023-02-11T11:00:31.000Z</time>
      </trkpt>
      <trkpt lat="41.747502" lon="-1.95045">
        <ele>1194.6</ele>
        <time>2023-02-11T11:00:32.000Z</time>
      </trkpt>
      <trkpt lat="41.747455" lon="-1.950393">
        <ele>1194.8</ele>
        <time>2023-02-11T11:00:33.000Z</time>
      </trkpt>
      <trkpt lat="41.747407" lon="-1.950339">
        <ele>1194.8</ele>
        <time>2023-02-11T11:00:34.000Z</time>
      </trkpt>
      <trkpt lat="41.747358" lon="-1.950283">
        <ele>1194.8</ele>
        <time>2023-02-11T11:00:35.000Z</time>
      </trkpt>
      <trkpt lat="41.747308" lon="-1.950224">
        <ele>1195</ele>
        <time>2023-02-11T11:00:36.000Z</time>
      </trkpt>
      <trkpt lat="41.747258" lon="-1.950165">
        <ele>1195</ele>
        <time>2023-02-11T11:00:37.000Z</time>
      </trkpt>
      <trkpt lat="41.74721" lon="-1.950106">
        <ele>1195.2</ele>
        <time>2023-02-11T11:00:38.000Z</time>
      </trkpt>
      <trkpt lat="41.747162" lon="-1.95005">
        <ele>1195.2</ele>
        <time>2023-02-11T11:00:39.000Z</time>
      </trkpt>
      <trkpt lat="41.747114" lon="-1.949991">
        <ele>1195.4</ele>
        <time>2023-02-11T11:00:40.000Z</time>
      </trkpt>
      <trkpt lat="41.747067" lon="-1.949935">
        <ele>1195.4</ele>
        <time>2023-02-11T11:00:41.000Z</time>
      </trkpt>
      <trkpt lat="41.74702" lon="-1.949876">
        <ele>1195.6</ele>
        <time>2023-02-11T11:00:42.000Z</time>
      </trkpt>
      <trkpt lat="41.746974" lon="-1.94982">
        <ele>1195.6</ele>
        <time>2023-02-11T11:00:43.000Z</time>
      </trkpt>
      <trkpt lat="41.746929" lon="-1.949765">
        <ele>1195.6</ele>
        <time>2023-02-11T11:00:44.000Z</time>
      </trkpt>
      <trkpt lat="41.746886" lon="-1.949711">
        <ele>1195.8</ele>
        <time>2023-02-11T11:00:45.000Z</time>
      </trkpt>
      <trkpt lat="41.746844" lon="-1.949657">
        <ele>1195.8</ele>
        <time>2023-02-11T11:00:46.000Z</time>
      </trkpt>
      <trkpt lat="41.746799" lon="-1.949607">
        <ele>1196.2</ele>
        <time>2023-02-11T11:00:47.000Z</time>
      </trkpt>
      <trkpt lat="41.746754" lon="-1.94956">
        <ele>1196.2</ele>
        <time>2023-02-11T11:00:48.000Z</time>
      </trkpt>
      <trkpt lat="41.746713" lon="-1.949511">
        <ele>1196.6</ele>
        <time>2023-02-11T11:00:49.000Z</time>
      </trkpt>
      <trkpt lat="41.746674" lon="-1.949463">
        <ele>1196.6</ele>
        <time>2023-02-11T11:00:50.000Z</time>
      </trkpt>
      <trkpt lat="41.746632" lon="-1.949413">
        <ele>1197</ele>
        <time>2023-02-11T11:00:51.000Z</time>
      </trkpt>
      <trkpt lat="41.746588" lon="-1.949365">
        <ele>1197</ele>
        <time>2023-02-11T11:00:52.000Z</time>
      </trkpt>
      <trkpt lat="41.746544" lon="-1.94932">
        <ele>1197.4</ele>
        <time>2023-02-11T11:00:53.000Z</time>
      </trkpt>
      <trkpt lat="41.7465" lon="-1.949272">
        <ele>1197.8</ele>
        <time>2023-02-11T11:00:54.000Z</time>
      </trkpt>
      <trkpt lat="41.746459" lon="-1.949224">
        <ele>1198</ele>
        <time>2023-02-11T11:00:55.000Z</time>
      </trkpt>
      <trkpt lat="41.746419" lon="-1.949177">
        <ele>1198.6</ele>
        <time>2023-02-11T11:00:56.000Z</time>
      </trkpt>
      <trkpt lat="41.746376" lon="-1.949131">
        <ele>1198.6</ele>
        <time>2023-02-11T11:00:57.000Z</time>
      </trkpt>
      <trkpt lat="41.746329" lon="-1.949088">
        <ele>1199</ele>
        <time>2023-02-11T11:00:58.000Z</time>
      </trkpt>
      <trkpt lat="41.746282" lon="-1.949045">
        <ele>1199.4</ele>
        <time>2023-02-11T11:00:59.000Z</time>
      </trkpt>
      <trkpt lat="41.746235" lon="-1.948999">
        <ele>1200.2</ele>
        <time>2023-02-11T11:01:00.000Z</time>
      </trkpt>
      <trkpt lat="41.746187" lon="-1.948953">
        <ele>1200.4</ele>
        <time>2023-02-11T11:01:01.000Z</time>
      </trkpt>
      <trkpt lat="41.746135" lon="-1.948909">
        <ele>1200.6</ele>
        <time>2023-02-11T11:01:02.000Z</time>
      </trkpt>
      <trkpt lat="41.74608" lon="-1.948866">
        <ele>1200.8</ele>
        <time>2023-02-11T11:01:03.000Z</time>
      </trkpt>
      <trkpt lat="41.746026" lon="-1.948824">
        <ele>1201</ele>
        <time>2023-02-11T11:01:04.000Z</time>
      </trkpt>
      <trkpt lat="41.745974" lon="-1.948786">
        <ele>1201.2</ele>
        <time>2023-02-11T11:01:05.000Z</time>
      </trkpt>
      <trkpt lat="41.745925" lon="-1.948748">
        <ele>1201.4</ele>
        <time>2023-02-11T11:01:06.000Z</time>
      </trkpt>
      <trkpt lat="41.745876" lon="-1.94871">
        <ele>1201.6</ele>
        <time>2023-02-11T11:01:07.000Z</time>
      </trkpt>
      <trkpt lat="41.745828" lon="-1.948674">
        <ele>1201.8</ele>
        <time>2023-02-11T11:01:08.000Z</time>
      </trkpt>
      <trkpt lat="41.745779" lon="-1.948642">
        <ele>1202</ele>
        <time>2023-02-11T11:01:09.000Z</time>
      </trkpt>
      <trkpt lat="41.74573" lon="-1.948606">
        <ele>1202</ele>
        <time>2023-02-11T11:01:10.000Z</time>
      </trkpt>
      <trkpt lat="41.745681" lon="-1.948569">
        <ele>1202.2</ele>
        <time>2023-02-11T11:01:11.000Z</time>
      </trkpt>
      <trkpt lat="41.745632" lon="-1.948533">
        <ele>1202.4</ele>
        <time>2023-02-11T11:01:12.000Z</time>
      </trkpt>
      <trkpt lat="41.745582" lon="-1.948495">
        <ele>1202.8</ele>
        <time>2023-02-11T11:01:13.000Z</time>
      </trkpt>
      <trkpt lat="41.745533" lon="-1.948462">
        <ele>1203</ele>
        <time>2023-02-11T11:01:14.000Z</time>
      </trkpt>
      <trkpt lat="41.745484" lon="-1.948426">
        <ele>1203.2</ele>
        <time>2023-02-11T11:01:15.000Z</time>
      </trkpt>
      <trkpt lat="41.745436" lon="-1.948388">
        <ele>1203.4</ele>
        <time>2023-02-11T11:01:16.000Z</time>
      </trkpt>
      <trkpt lat="41.745386" lon="-1.94835">
        <ele>1203.6</ele>
        <time>2023-02-11T11:01:17.000Z</time>
      </trkpt>
      <trkpt lat="41.745337" lon="-1.948311">
        <ele>1203.8</ele>
        <time>2023-02-11T11:01:18.000Z</time>
      </trkpt>
      <trkpt lat="41.745289" lon="-1.948272">
        <ele>1204</ele>
        <time>2023-02-11T11:01:19.000Z</time>
      </trkpt>
      <trkpt lat="41.745238" lon="-1.948232">
        <ele>1204.2</ele>
        <time>2023-02-11T11:01:20.000Z</time>
      </trkpt>
      <trkpt lat="41.745187" lon="-1.948196">
        <ele>1204.4</ele>
        <time>2023-02-11T11:01:21.000Z</time>
      </trkpt>
      <trkpt lat="41.745137" lon="-1.948157">
        <ele>1204.8</ele>
        <time>2023-02-11T11:01:22.000Z</time>
      </trkpt>
      <trkpt lat="41.74509" lon="-1.948114">
        <ele>1205</ele>
        <time>2023-02-11T11:01:23.000Z</time>
      </trkpt>
      <trkpt lat="41.745041" lon="-1.948075">
        <ele>1205</ele>
        <time>2023-02-11T11:01:24.000Z</time>
      </trkpt>
      <trkpt lat="41.744986" lon="-1.948032">
        <ele>1205.2</ele>
        <time>2023-02-11T11:01:25.000Z</time>
      </trkpt>
      <trkpt lat="41.744933" lon="-1.947995">
        <ele>1205.2</ele>
        <time>2023-02-11T11:01:26.000Z</time>
      </trkpt>
      <trkpt lat="41.744878" lon="-1.947955">
        <ele>1205.4</ele>
        <time>2023-02-11T11:01:27.000Z</time>
      </trkpt>
      <trkpt lat="41.744824" lon="-1.947913">
        <ele>1205.6</ele>
        <time>2023-02-11T11:01:28.000Z</time>
      </trkpt>
      <trkpt lat="41.74477" lon="-1.947872">
        <ele>1205.6</ele>
        <time>2023-02-11T11:01:29.000Z</time>
      </trkpt>
      <trkpt lat="41.744713" lon="-1.947832">
        <ele>1205.6</ele>
        <time>2023-02-11T11:01:30.000Z</time>
      </trkpt>
      <trkpt lat="41.744655" lon="-1.947791">
        <ele>1205.8</ele>
        <time>2023-02-11T11:01:31.000Z</time>
      </trkpt>
      <trkpt lat="41.744597" lon="-1.94775">
        <ele>1205.8</ele>
        <time>2023-02-11T11:01:32.000Z</time>
      </trkpt>
      <trkpt lat="41.74454" lon="-1.947706">
        <ele>1206.2</ele>
        <time>2023-02-11T11:01:33.000Z</time>
      </trkpt>
      <trkpt lat="41.744484" lon="-1.947663">
        <ele>1206.4</ele>
        <time>2023-02-11T11:01:34.000Z</time>
      </trkpt>
      <trkpt lat="41.744427" lon="-1.947617">
        <ele>1206.4</ele>
        <time>2023-02-11T11:01:35.000Z</time>
      </trkpt>
      <trkpt lat="41.744369" lon="-1.947569">
        <ele>1206.6</ele>
        <time>2023-02-11T11:01:36.000Z</time>
      </trkpt>
      <trkpt lat="41.744312" lon="-1.947523">
        <ele>1206.6</ele>
        <time>2023-02-11T11:01:37.000Z</time>
      </trkpt>
      <trkpt lat="41.744255" lon="-1.947483">
        <ele>1206.8</ele>
        <time>2023-02-11T11:01:38.000Z</time>
      </trkpt>
      <trkpt lat="41.744197" lon="-1.94744">
        <ele>1206.8</ele>
        <time>2023-02-11T11:01:39.000Z</time>
      </trkpt>
      <trkpt lat="41.744139" lon="-1.947395">
        <ele>1207</ele>
        <time>2023-02-11T11:01:40.000Z</time>
      </trkpt>
      <trkpt lat="41.744077" lon="-1.947346">
        <ele>1207</ele>
        <time>2023-02-11T11:01:41.000Z</time>
      </trkpt>
      <trkpt lat="41.744016" lon="-1.947298">
        <ele>1207.2</ele>
        <time>2023-02-11T11:01:42.000Z</time>
      </trkpt>
      <trkpt lat="41.743954" lon="-1.947247">
        <ele>1207.2</ele>
        <time>2023-02-11T11:01:43.000Z</time>
      </trkpt>
      <trkpt lat="41.743891" lon="-1.947198">
        <ele>1207.4</ele>
        <time>2023-02-11T11:01:44.000Z</time>
      </trkpt>
      <trkpt lat="41.743828" lon="-1.947148">
        <ele>1207.4</ele>
        <time>2023-02-11T11:01:45.000Z</time>
      </trkpt>
      <trkpt lat="41.743762" lon="-1.947097">
        <ele>1207.4</ele>
        <time>2023-02-11T11:01:46.000Z</time>
      </trkpt>
      <trkpt lat="41.743697" lon="-1.947045">
        <ele>1207.4</ele>
        <time>2023-02-11T11:01:47.000Z</time>
      </trkpt>
      <trkpt lat="41.743632" lon="-1.946991">
        <ele>1207.2</ele>
        <time>2023-02-11T11:01:48.000Z</time>
      </trkpt>
      <trkpt lat="41.743564" lon="-1.946937">
        <ele>1207.2</ele>
        <time>2023-02-11T11:01:49.000Z</time>
      </trkpt>
      <trkpt lat="41.743496" lon="-1.946885">
        <ele>1207</ele>
        <time>2023-02-11T11:01:50.000Z</time>
      </trkpt>
      <trkpt lat="41.743428" lon="-1.946833">
        <ele>1206.8</ele>
        <time>2023-02-11T11:01:51.000Z</time>
      </trkpt>
      <trkpt lat="41.743359" lon="-1.94678">
        <ele>1206.6</ele>
        <time>2023-02-11T11:01:52.000Z</time>
      </trkpt>
      <trkpt lat="41.743287" lon="-1.946728">
        <ele>1206.6</ele>
        <time>2023-02-11T11:01:53.000Z</time>
      </trkpt>
      <trkpt lat="41.743216" lon="-1.946677">
        <ele>1206.2</ele>
        <time>2023-02-11T11:01:54.000Z</time>
      </trkpt>
      <trkpt lat="41.743142" lon="-1.946623">
        <ele>1206.2</ele>
        <time>2023-02-11T11:01:55.000Z</time>
      </trkpt>
      <trkpt lat="41.743065" lon="-1.946572">
        <ele>1206.2</ele>
        <time>2023-02-11T11:01:56.000Z</time>
      </trkpt>
      <trkpt lat="41.742987" lon="-1.946524">
        <ele>1206.2</ele>
        <time>2023-02-11T11:01:57.000Z</time>
      </trkpt>
      <trkpt lat="41.742906" lon="-1.946473">
        <ele>1206</ele>
        <time>2023-02-11T11:01:58.000Z</time>
      </trkpt>
      <trkpt lat="41.742825" lon="-1.946421">
        <ele>1205.8</ele>
        <time>2023-02-11T11:01:59.000Z</time>
      </trkpt>
      <trkpt lat="41.742741" lon="-1.946366">
        <ele>1205.8</ele>
        <time>2023-02-11T11:02:00.000Z</time>
      </trkpt>
      <trkpt lat="41.742656" lon="-1.946307">
        <ele>1205.6</ele>
        <time>2023-02-11T11:02:01.000Z</time>
      </trkpt>
      <trkpt lat="41.742569" lon="-1.946246">
        <ele>1205.6</ele>
        <time>2023-02-11T11:02:02.000Z</time>
      </trkpt>
      <trkpt lat="41.742483" lon="-1.946183">
        <ele>1205.6</ele>
        <time>2023-02-11T11:02:03.000Z</time>
      </trkpt>
      <trkpt lat="41.742398" lon="-1.94612">
        <ele>1205.4</ele>
        <time>2023-02-11T11:02:04.000Z</time>
      </trkpt>
      <trkpt lat="41.742306" lon="-1.946053">
        <ele>1205.2</ele>
        <time>2023-02-11T11:02:05.000Z</time>
      </trkpt>
      <trkpt lat="41.742215" lon="-1.945986">
        <ele>1205</ele>
        <time>2023-02-11T11:02:06.000Z</time>
      </trkpt>
      <trkpt lat="41.742122" lon="-1.945915">
        <ele>1204.6</ele>
        <time>2023-02-11T11:02:07.000Z</time>
      </trkpt>
      <trkpt lat="41.742027" lon="-1.945841">
        <ele>1204.6</ele>
        <time>2023-02-11T11:02:08.000Z</time>
      </trkpt>
      <trkpt lat="41.74193" lon="-1.945765">
        <ele>1204.2</ele>
        <time>2023-02-11T11:02:09.000Z</time>
      </trkpt>
      <trkpt lat="41.741831" lon="-1.945688">
        <ele>1203.6</ele>
        <time>2023-02-11T11:02:10.000Z</time>
      </trkpt>
      <trkpt lat="41.741731" lon="-1.94561">
        <ele>1203.4</ele>
        <time>2023-02-11T11:02:11.000Z</time>
      </trkpt>
      <trkpt lat="41.741629" lon="-1.94553">
        <ele>1203</ele>
        <time>2023-02-11T11:02:12.000Z</time>
      </trkpt>
      <trkpt lat="41.741527" lon="-1.945449">
        <ele>1202.8</ele>
        <time>2023-02-11T11:02:13.000Z</time>
      </trkpt>
      <trkpt lat="41.741424" lon="-1.945367">
        <ele>1202.4</ele>
        <time>2023-02-11T11:02:14.000Z</time>
      </trkpt>
      <trkpt lat="41.741321" lon="-1.945281">
        <ele>1202.2</ele>
        <time>2023-02-11T11:02:15.000Z</time>
      </trkpt>
      <trkpt lat="41.741218" lon="-1.945194">
        <ele>1201.6</ele>
        <time>2023-02-11T11:02:16.000Z</time>
      </trkpt>
      <trkpt lat="41.741114" lon="-1.945108">
        <ele>1201.4</ele>
        <time>2023-02-11T11:02:17.000Z</time>
      </trkpt>
      <trkpt lat="41.741009" lon="-1.945022">
        <ele>1200.8</ele>
        <time>2023-02-11T11:02:18.000Z</time>
      </trkpt>
      <trkpt lat="41.740904" lon="-1.944937">
        <ele>1200.4</ele>
        <time>2023-02-11T11:02:19.000Z</time>
      </trkpt>
      <trkpt lat="41.740799" lon="-1.944854">
        <ele>1199.4</ele>
        <time>2023-02-11T11:02:20.000Z</time>
      </trkpt>
      <trkpt lat="41.740692" lon="-1.944777">
        <ele>1198.6</ele>
        <time>2023-02-11T11:02:21.000Z</time>
      </trkpt>
      <trkpt lat="41.740582" lon="-1.944709">
        <ele>1198.4</ele>
        <time>2023-02-11T11:02:22.000Z</time>
      </trkpt>
      <trkpt lat="41.740468" lon="-1.944643">
        <ele>1198</ele>
        <time>2023-02-11T11:02:23.000Z</time>
      </trkpt>
      <trkpt lat="41.740351" lon="-1.944581">
        <ele>1197.6</ele>
        <time>2023-02-11T11:02:24.000Z</time>
      </trkpt>
      <trkpt lat="41.740232" lon="-1.944522">
        <ele>1197.2</ele>
        <time>2023-02-11T11:02:25.000Z</time>
      </trkpt>
      <trkpt lat="41.740115" lon="-1.944468">
        <ele>1197</ele>
        <time>2023-02-11T11:02:26.000Z</time>
      </trkpt>
      <trkpt lat="41.739996" lon="-1.944425">
        <ele>1196.6</ele>
        <time>2023-02-11T11:02:27.000Z</time>
      </trkpt>
      <trkpt lat="41.739877" lon="-1.944388">
        <ele>1196.2</ele>
        <time>2023-02-11T11:02:28.000Z</time>
      </trkpt>
      <trkpt lat="41.739755" lon="-1.94435">
        <ele>1195.6</ele>
        <time>2023-02-11T11:02:29.000Z</time>
      </trkpt>
      <trkpt lat="41.739633" lon="-1.944322">
        <ele>1195</ele>
        <time>2023-02-11T11:02:30.000Z</time>
      </trkpt>
      <trkpt lat="41.739512" lon="-1.944305">
        <ele>1194.6</ele>
        <time>2023-02-11T11:02:31.000Z</time>
      </trkpt>
      <trkpt lat="41.739388" lon="-1.944291">
        <ele>1194</ele>
        <time>2023-02-11T11:02:32.000Z</time>
      </trkpt>
      <trkpt lat="41.739264" lon="-1.94428">
        <ele>1193.6</ele>
        <time>2023-02-11T11:02:33.000Z</time>
      </trkpt>
      <trkpt lat="41.739139" lon="-1.944273">
        <ele>1193</ele>
        <time>2023-02-11T11:02:34.000Z</time>
      </trkpt>
      <trkpt lat="41.739013" lon="-1.944271">
        <ele>1192.6</ele>
        <time>2023-02-11T11:02:35.000Z</time>
      </trkpt>
      <trkpt lat="41.738887" lon="-1.944276">
        <ele>1191.8</ele>
        <time>2023-02-11T11:02:36.000Z</time>
      </trkpt>
      <trkpt lat="41.738761" lon="-1.944285">
        <ele>1191.4</ele>
        <time>2023-02-11T11:02:37.000Z</time>
      </trkpt>
      <trkpt lat="41.738637" lon="-1.944303">
        <ele>1190.8</ele>
        <time>2023-02-11T11:02:38.000Z</time>
      </trkpt>
      <trkpt lat="41.738515" lon="-1.944329">
        <ele>1190.2</ele>
        <time>2023-02-11T11:02:39.000Z</time>
      </trkpt>
      <trkpt lat="41.738394" lon="-1.944361">
        <ele>1190</ele>
        <time>2023-02-11T11:02:40.000Z</time>
      </trkpt>
      <trkpt lat="41.738273" lon="-1.944398">
        <ele>1189.4</ele>
        <time>2023-02-11T11:02:41.000Z</time>
      </trkpt>
      <trkpt lat="41.738153" lon="-1.944437">
        <ele>1189</ele>
        <time>2023-02-11T11:02:42.000Z</time>
      </trkpt>
      <trkpt lat="41.738032" lon="-1.944482">
        <ele>1188.4</ele>
        <time>2023-02-11T11:02:43.000Z</time>
      </trkpt>
      <trkpt lat="41.737911" lon="-1.944535">
        <ele>1188.2</ele>
        <time>2023-02-11T11:02:44.000Z</time>
      </trkpt>
      <trkpt lat="41.73779" lon="-1.944592">
        <ele>1187.4</ele>
        <time>2023-02-11T11:02:45.000Z</time>
      </trkpt>
      <trkpt lat="41.73767" lon="-1.944653">
        <ele>1187</ele>
        <time>2023-02-11T11:02:46.000Z</time>
      </trkpt>
      <trkpt lat="41.737555" lon="-1.94472">
        <ele>1186.2</ele>
        <time>2023-02-11T11:02:47.000Z</time>
      </trkpt>
      <trkpt lat="41.737444" lon="-1.944795">
        <ele>1185.8</ele>
        <time>2023-02-11T11:02:48.000Z</time>
      </trkpt>
      <trkpt lat="41.737338" lon="-1.944876">
        <ele>1185.6</ele>
        <time>2023-02-11T11:02:49.000Z</time>
      </trkpt>
      <trkpt lat="41.737237" lon="-1.944958">
        <ele>1185.2</ele>
        <time>2023-02-11T11:02:50.000Z</time>
      </trkpt>
      <trkpt lat="41.737135" lon="-1.945038">
        <ele>1185</ele>
        <time>2023-02-11T11:02:51.000Z</time>
      </trkpt>
      <trkpt lat="41.737037" lon="-1.94512">
        <ele>1184.4</ele>
        <time>2023-02-11T11:02:52.000Z</time>
      </trkpt>
      <trkpt lat="41.736942" lon="-1.945206">
        <ele>1184</ele>
        <time>2023-02-11T11:02:53.000Z</time>
      </trkpt>
      <trkpt lat="41.736853" lon="-1.945299">
        <ele>1183.6</ele>
        <time>2023-02-11T11:02:54.000Z</time>
      </trkpt>
      <trkpt lat="41.736765" lon="-1.945396">
        <ele>1183.4</ele>
        <time>2023-02-11T11:02:55.000Z</time>
      </trkpt>
      <trkpt lat="41.736682" lon="-1.945498">
        <ele>1183</ele>
        <time>2023-02-11T11:02:56.000Z</time>
      </trkpt>
      <trkpt lat="41.736601" lon="-1.945601">
        <ele>1182.6</ele>
        <time>2023-02-11T11:02:57.000Z</time>
      </trkpt>
      <trkpt lat="41.73652" lon="-1.945706">
        <ele>1182.4</ele>
        <time>2023-02-11T11:02:58.000Z</time>
      </trkpt>
      <trkpt lat="41.73644" lon="-1.945811">
        <ele>1182.2</ele>
        <time>2023-02-11T11:02:59.000Z</time>
      </trkpt>
      <trkpt lat="41.736362" lon="-1.945922">
        <ele>1182</ele>
        <time>2023-02-11T11:03:00.000Z</time>
      </trkpt>
      <trkpt lat="41.73629" lon="-1.946036">
        <ele>1181.6</ele>
        <time>2023-02-11T11:03:01.000Z</time>
      </trkpt>
      <trkpt lat="41.736219" lon="-1.946147">
        <ele>1181.4</ele>
        <time>2023-02-11T11:03:02.000Z</time>
      </trkpt>
      <trkpt lat="41.736151" lon="-1.946256">
        <ele>1181.2</ele>
        <time>2023-02-11T11:03:03.000Z</time>
      </trkpt>
      <trkpt lat="41.736084" lon="-1.946369">
        <ele>1181</ele>
        <time>2023-02-11T11:03:04.000Z</time>
      </trkpt>
      <trkpt lat="41.736017" lon="-1.946482">
        <ele>1180.8</ele>
        <time>2023-02-11T11:03:05.000Z</time>
      </trkpt>
      <trkpt lat="41.73595" lon="-1.946593">
        <ele>1180.6</ele>
        <time>2023-02-11T11:03:06.000Z</time>
      </trkpt>
      <trkpt lat="41.735883" lon="-1.946704">
        <ele>1180.2</ele>
        <time>2023-02-11T11:03:07.000Z</time>
      </trkpt>
      <trkpt lat="41.735817" lon="-1.946812">
        <ele>1180</ele>
        <time>2023-02-11T11:03:08.000Z</time>
      </trkpt>
      <trkpt lat="41.735754" lon="-1.94692">
        <ele>1180</ele>
        <time>2023-02-11T11:03:09.000Z</time>
      </trkpt>
      <trkpt lat="41.73569" lon="-1.947026">
        <ele>1179.8</ele>
        <time>2023-02-11T11:03:10.000Z</time>
      </trkpt>
      <trkpt lat="41.735623" lon="-1.947131">
        <ele>1179.6</ele>
        <time>2023-02-11T11:03:11.000Z</time>
      </trkpt>
      <trkpt lat="41.735556" lon="-1.947234">
        <ele>1179.6</ele>
        <time>2023-02-11T11:03:12.000Z</time>
      </trkpt>
      <trkpt lat="41.735493" lon="-1.947337">
        <ele>1179.4</ele>
        <time>2023-02-11T11:03:13.000Z</time>
      </trkpt>
      <trkpt lat="41.735429" lon="-1.947441">
        <ele>1179</ele>
        <time>2023-02-11T11:03:14.000Z</time>
      </trkpt>
      <trkpt lat="41.735364" lon="-1.947542">
        <ele>1178.8</ele>
        <time>2023-02-11T11:03:15.000Z</time>
      </trkpt>
      <trkpt lat="41.735296" lon="-1.947643">
        <ele>1178.6</ele>
        <time>2023-02-11T11:03:16.000Z</time>
      </trkpt>
      <trkpt lat="41.735226" lon="-1.947739">
        <ele>1178.4</ele>
        <time>2023-02-11T11:03:17.000Z</time>
      </trkpt>
      <trkpt lat="41.735158" lon="-1.947833">
        <ele>1178.4</ele>
        <time>2023-02-11T11:03:18.000Z</time>
      </trkpt>
      <trkpt lat="41.735089" lon="-1.947927">
        <ele>1178</ele>
        <time>2023-02-11T11:03:19.000Z</time>
      </trkpt>
      <trkpt lat="41.735017" lon="-1.948017">
        <ele>1178</ele>
        <time>2023-02-11T11:03:20.000Z</time>
      </trkpt>
      <trkpt lat="41.734943" lon="-1.948105">
        <ele>1177.8</ele>
        <time>2023-02-11T11:03:21.000Z</time>
      </trkpt>
      <trkpt lat="41.734867" lon="-1.948189">
        <ele>1177.6</ele>
        <time>2023-02-11T11:03:22.000Z</time>
      </trkpt>
      <trkpt lat="41.734787" lon="-1.948271">
        <ele>1177.2</ele>
        <time>2023-02-11T11:03:23.000Z</time>
      </trkpt>
      <trkpt lat="41.734706" lon="-1.948351">
        <ele>1177.2</ele>
        <time>2023-02-11T11:03:24.000Z</time>
      </trkpt>
      <trkpt lat="41.734625" lon="-1.948426">
        <ele>1176.8</ele>
        <time>2023-02-11T11:03:25.000Z</time>
      </trkpt>
      <trkpt lat="41.734542" lon="-1.9485">
        <ele>1176.6</ele>
        <time>2023-02-11T11:03:26.000Z</time>
      </trkpt>
      <trkpt lat="41.734457" lon="-1.948569">
        <ele>1176.4</ele>
        <time>2023-02-11T11:03:27.000Z</time>
      </trkpt>
      <trkpt lat="41.73437" lon="-1.948636">
        <ele>1176.4</ele>
        <time>2023-02-11T11:03:28.000Z</time>
      </trkpt>
      <trkpt lat="41.734282" lon="-1.948699">
        <ele>1176.2</ele>
        <time>2023-02-11T11:03:29.000Z</time>
      </trkpt>
      <trkpt lat="41.734196" lon="-1.94876">
        <ele>1176</ele>
        <time>2023-02-11T11:03:30.000Z</time>
      </trkpt>
      <trkpt lat="41.734106" lon="-1.94882">
        <ele>1175.8</ele>
        <time>2023-02-11T11:03:31.000Z</time>
      </trkpt>
      <trkpt lat="41.734017" lon="-1.948882">
        <ele>1175.6</ele>
        <time>2023-02-11T11:03:32.000Z</time>
      </trkpt>
      <trkpt lat="41.733925" lon="-1.948941">
        <ele>1175.4</ele>
        <time>2023-02-11T11:03:33.000Z</time>
      </trkpt>
      <trkpt lat="41.733834" lon="-1.948999">
        <ele>1175</ele>
        <time>2023-02-11T11:03:34.000Z</time>
      </trkpt>
      <trkpt lat="41.73374" lon="-1.949059">
        <ele>1174.8</ele>
        <time>2023-02-11T11:03:35.000Z</time>
      </trkpt>
      <trkpt lat="41.733644" lon="-1.949121">
        <ele>1174.4</ele>
        <time>2023-02-11T11:03:36.000Z</time>
      </trkpt>
      <trkpt lat="41.733548" lon="-1.949183">
        <ele>1174</ele>
        <time>2023-02-11T11:03:37.000Z</time>
      </trkpt>
      <trkpt lat="41.733453" lon="-1.949244">
        <ele>1174</ele>
        <time>2023-02-11T11:03:38.000Z</time>
      </trkpt>
      <trkpt lat="41.73336" lon="-1.949305">
        <ele>1173.6</ele>
        <time>2023-02-11T11:03:39.000Z</time>
      </trkpt>
      <trkpt lat="41.733265" lon="-1.949368">
        <ele>1173.6</ele>
        <time>2023-02-11T11:03:40.000Z</time>
      </trkpt>
      <trkpt lat="41.733169" lon="-1.949431">
        <ele>1173.4</ele>
        <time>2023-02-11T11:03:41.000Z</time>
      </trkpt>
      <trkpt lat="41.733076" lon="-1.949493">
        <ele>1173.4</ele>
        <time>2023-02-11T11:03:42.000Z</time>
      </trkpt>
      <trkpt lat="41.732984" lon="-1.949554">
        <ele>1173.2</ele>
        <time>2023-02-11T11:03:43.000Z</time>
      </trkpt>
      <trkpt lat="41.732892" lon="-1.949616">
        <ele>1173.2</ele>
        <time>2023-02-11T11:03:44.000Z</time>
      </trkpt>
      <trkpt lat="41.732802" lon="-1.949674">
        <ele>1173</ele>
        <time>2023-02-11T11:03:45.000Z</time>
      </trkpt>
      <trkpt lat="41.732713" lon="-1.949731">
        <ele>1172.8</ele>
        <time>2023-02-11T11:03:46.000Z</time>
      </trkpt>
      <trkpt lat="41.732622" lon="-1.94979">
        <ele>1172.6</ele>
        <time>2023-02-11T11:03:47.000Z</time>
      </trkpt>
      <trkpt lat="41.732531" lon="-1.949849">
        <ele>1172.6</ele>
        <time>2023-02-11T11:03:48.000Z</time>
      </trkpt>
      <trkpt lat="41.732442" lon="-1.949909">
        <ele>1172.4</ele>
        <time>2023-02-11T11:03:49.000Z</time>
      </trkpt>
      <trkpt lat="41.732355" lon="-1.949972">
        <ele>1172.4</ele>
        <time>2023-02-11T11:03:50.000Z</time>
      </trkpt>
      <trkpt lat="41.73227" lon="-1.950036">
        <ele>1172.4</ele>
        <time>2023-02-11T11:03:51.000Z</time>
      </trkpt>
      <trkpt lat="41.732187" lon="-1.950103">
        <ele>1172.2</ele>
        <time>2023-02-11T11:03:52.000Z</time>
      </trkpt>
      <trkpt lat="41.732104" lon="-1.950176">
        <ele>1172.2</ele>
        <time>2023-02-11T11:03:53.000Z</time>
      </trkpt>
      <trkpt lat="41.732023" lon="-1.950249">
        <ele>1172.2</ele>
        <time>2023-02-11T11:03:54.000Z</time>
      </trkpt>
      <trkpt lat="41.731943" lon="-1.950324">
        <ele>1172</ele>
        <time>2023-02-11T11:03:55.000Z</time>
      </trkpt>
      <trkpt lat="41.731863" lon="-1.950402">
        <ele>1172</ele>
        <time>2023-02-11T11:03:56.000Z</time>
      </trkpt>
      <trkpt lat="41.731783" lon="-1.95048">
        <ele>1171.8</ele>
        <time>2023-02-11T11:03:57.000Z</time>
      </trkpt>
      <trkpt lat="41.731706" lon="-1.950559">
        <ele>1171.6</ele>
        <time>2023-02-11T11:03:58.000Z</time>
      </trkpt>
      <trkpt lat="41.731634" lon="-1.950643">
        <ele>1171.4</ele>
        <time>2023-02-11T11:03:59.000Z</time>
      </trkpt>
      <trkpt lat="41.731566" lon="-1.95073">
        <ele>1171.2</ele>
        <time>2023-02-11T11:04:00.000Z</time>
      </trkpt>
      <trkpt lat="41.731495" lon="-1.950815">
        <ele>1170.8</ele>
        <time>2023-02-11T11:04:01.000Z</time>
      </trkpt>
      <trkpt lat="41.731427" lon="-1.950902">
        <ele>1170.6</ele>
        <time>2023-02-11T11:04:02.000Z</time>
      </trkpt>
      <trkpt lat="41.731362" lon="-1.95099">
        <ele>1170.4</ele>
        <time>2023-02-11T11:04:03.000Z</time>
      </trkpt>
      <trkpt lat="41.731301" lon="-1.951085">
        <ele>1170.2</ele>
        <time>2023-02-11T11:04:04.000Z</time>
      </trkpt>
      <trkpt lat="41.731244" lon="-1.951176">
        <ele>1170.2</ele>
        <time>2023-02-11T11:04:05.000Z</time>
      </trkpt>
      <trkpt lat="41.731191" lon="-1.951266">
        <ele>1170</ele>
        <time>2023-02-11T11:04:06.000Z</time>
      </trkpt>
      <trkpt lat="41.73114" lon="-1.951357">
        <ele>1169.8</ele>
        <time>2023-02-11T11:04:07.000Z</time>
      </trkpt>
      <trkpt lat="41.73109" lon="-1.951449">
        <ele>1169.6</ele>
        <time>2023-02-11T11:04:08.000Z</time>
      </trkpt>
      <trkpt lat="41.731041" lon="-1.951544">
        <ele>1169.6</ele>
        <time>2023-02-11T11:04:09.000Z</time>
      </trkpt>
      <trkpt lat="41.730993" lon="-1.951638">
        <ele>1169.4</ele>
        <time>2023-02-11T11:04:10.000Z</time>
      </trkpt>
      <trkpt lat="41.730947" lon="-1.951733">
        <ele>1169.4</ele>
        <time>2023-02-11T11:04:11.000Z</time>
      </trkpt>
      <trkpt lat="41.730904" lon="-1.951829">
        <ele>1169.2</ele>
        <time>2023-02-11T11:04:12.000Z</time>
      </trkpt>
      <trkpt lat="41.730862" lon="-1.951929">
        <ele>1169.2</ele>
        <time>2023-02-11T11:04:13.000Z</time>
      </trkpt>
      <trkpt lat="41.730822" lon="-1.952026">
        <ele>1168.8</ele>
        <time>2023-02-11T11:04:14.000Z</time>
      </trkpt>
      <trkpt lat="41.730784" lon="-1.952121">
        <ele>1168.8</ele>
        <time>2023-02-11T11:04:15.000Z</time>
      </trkpt>
      <trkpt lat="41.730745" lon="-1.952218">
        <ele>1168.8</ele>
        <time>2023-02-11T11:04:16.000Z</time>
      </trkpt>
      <trkpt lat="41.730708" lon="-1.95232">
        <ele>1168.8</ele>
        <time>2023-02-11T11:04:17.000Z</time>
      </trkpt>
      <trkpt lat="41.730675" lon="-1.95242">
        <ele>1168.8</ele>
        <time>2023-02-11T11:04:18.000Z</time>
      </trkpt>
      <trkpt lat="41.730641" lon="-1.95252">
        <ele>1168.8</ele>
        <time>2023-02-11T11:04:19.000Z</time>
      </trkpt>
      <trkpt lat="41.730608" lon="-1.952616">
        <ele>1168.8</ele>
        <time>2023-02-11T11:04:20.000Z</time>
      </trkpt>
      <trkpt lat="41.73058" lon="-1.952711">
        <ele>1168.8</ele>
        <time>2023-02-11T11:04:21.000Z</time>
      </trkpt>
      <trkpt lat="41.730549" lon="-1.952806">
        <ele>1168.8</ele>
        <time>2023-02-11T11:04:22.000Z</time>
      </trkpt>
      <trkpt lat="41.730519" lon="-1.952901">
        <ele>1169.2</ele>
        <time>2023-02-11T11:04:23.000Z</time>
      </trkpt>
      <trkpt lat="41.730491" lon="-1.952995">
        <ele>1169.2</ele>
        <time>2023-02-11T11:04:24.000Z</time>
      </trkpt>
      <trkpt lat="41.730462" lon="-1.953087">
        <ele>1169.2</ele>
        <time>2023-02-11T11:04:25.000Z</time>
      </trkpt>
      <trkpt lat="41.730432" lon="-1.953178">
        <ele>1169.4</ele>
        <time>2023-02-11T11:04:26.000Z</time>
      </trkpt>
      <trkpt lat="41.730405" lon="-1.953273">
        <ele>1169.4</ele>
        <time>2023-02-11T11:04:27.000Z</time>
      </trkpt>
      <trkpt lat="41.730375" lon="-1.953365">
        <ele>1169.4</ele>
        <time>2023-02-11T11:04:28.000Z</time>
      </trkpt>
      <trkpt lat="41.730345" lon="-1.953458">
        <ele>1169.6</ele>
        <time>2023-02-11T11:04:29.000Z</time>
      </trkpt>
      <trkpt lat="41.730316" lon="-1.95355">
        <ele>1169.6</ele>
        <time>2023-02-11T11:04:30.000Z</time>
      </trkpt>
      <trkpt lat="41.730287" lon="-1.953637">
        <ele>1169.8</ele>
        <time>2023-02-11T11:04:31.000Z</time>
      </trkpt>
      <trkpt lat="41.730258" lon="-1.953729">
        <ele>1169.8</ele>
        <time>2023-02-11T11:04:32.000Z</time>
      </trkpt>
      <trkpt lat="41.73023" lon="-1.95382">
        <ele>1169.8</ele>
        <time>2023-02-11T11:04:33.000Z</time>
      </trkpt>
      <trkpt lat="41.730201" lon="-1.953909">
        <ele>1169.8</ele>
        <time>2023-02-11T11:04:34.000Z</time>
      </trkpt>
      <trkpt lat="41.730173" lon="-1.953999">
        <ele>1170</ele>
        <time>2023-02-11T11:04:35.000Z</time>
      </trkpt>
      <trkpt lat="41.730145" lon="-1.954087">
        <ele>1170</ele>
        <time>2023-02-11T11:04:36.000Z</time>
      </trkpt>
      <trkpt lat="41.730117" lon="-1.954174">
        <ele>1170.2</ele>
        <time>2023-02-11T11:04:37.000Z</time>
      </trkpt>
      <trkpt lat="41.730088" lon="-1.954264">
        <ele>1170.2</ele>
        <time>2023-02-11T11:04:38.000Z</time>
      </trkpt>
      <trkpt lat="41.73006" lon="-1.954353">
        <ele>1170.2</ele>
        <time>2023-02-11T11:04:39.000Z</time>
      </trkpt>
      <trkpt lat="41.730032" lon="-1.954439">
        <ele>1170.2</ele>
        <time>2023-02-11T11:04:40.000Z</time>
      </trkpt>
      <trkpt lat="41.730003" lon="-1.954526">
        <ele>1170.2</ele>
        <time>2023-02-11T11:04:41.000Z</time>
      </trkpt>
      <trkpt lat="41.729973" lon="-1.954615">
        <ele>1170.2</ele>
        <time>2023-02-11T11:04:42.000Z</time>
      </trkpt>
      <trkpt lat="41.729941" lon="-1.954704">
        <ele>1170.4</ele>
        <time>2023-02-11T11:04:43.000Z</time>
      </trkpt>
      <trkpt lat="41.729908" lon="-1.954792">
        <ele>1170.4</ele>
        <time>2023-02-11T11:04:44.000Z</time>
      </trkpt>
      <trkpt lat="41.729873" lon="-1.95488">
        <ele>1170.6</ele>
        <time>2023-02-11T11:04:45.000Z</time>
      </trkpt>
      <trkpt lat="41.729836" lon="-1.95497">
        <ele>1170.6</ele>
        <time>2023-02-11T11:04:46.000Z</time>
      </trkpt>
      <trkpt lat="41.729798" lon="-1.955062">
        <ele>1170.8</ele>
        <time>2023-02-11T11:04:47.000Z</time>
      </trkpt>
      <trkpt lat="41.729762" lon="-1.955153">
        <ele>1170.8</ele>
        <time>2023-02-11T11:04:48.000Z</time>
      </trkpt>
      <trkpt lat="41.729723" lon="-1.955244">
        <ele>1170.8</ele>
        <time>2023-02-11T11:04:49.000Z</time>
      </trkpt>
      <trkpt lat="41.729684" lon="-1.955336">
        <ele>1170.8</ele>
        <time>2023-02-11T11:04:50.000Z</time>
      </trkpt>
      <trkpt lat="41.729645" lon="-1.955431">
        <ele>1170.8</ele>
        <time>2023-02-11T11:04:51.000Z</time>
      </trkpt>
      <trkpt lat="41.729606" lon="-1.955528">
        <ele>1170.8</ele>
        <time>2023-02-11T11:04:52.000Z</time>
      </trkpt>
      <trkpt lat="41.729564" lon="-1.955624">
        <ele>1170.8</ele>
        <time>2023-02-11T11:04:53.000Z</time>
      </trkpt>
      <trkpt lat="41.729521" lon="-1.95572">
        <ele>1170.8</ele>
        <time>2023-02-11T11:04:54.000Z</time>
      </trkpt>
      <trkpt lat="41.729479" lon="-1.955818">
        <ele>1170.6</ele>
        <time>2023-02-11T11:04:55.000Z</time>
      </trkpt>
      <trkpt lat="41.729438" lon="-1.955915">
        <ele>1170.6</ele>
        <time>2023-02-11T11:04:56.000Z</time>
      </trkpt>
      <trkpt lat="41.729396" lon="-1.956011">
        <ele>1170.4</ele>
        <time>2023-02-11T11:04:57.000Z</time>
      </trkpt>
      <trkpt lat="41.729349" lon="-1.956104">
        <ele>1170.4</ele>
        <time>2023-02-11T11:04:58.000Z</time>
      </trkpt>
      <trkpt lat="41.729304" lon="-1.9562">
        <ele>1170.2</ele>
        <time>2023-02-11T11:04:59.000Z</time>
      </trkpt>
      <trkpt lat="41.729262" lon="-1.956299">
        <ele>1169.8</ele>
        <time>2023-02-11T11:05:00.000Z</time>
      </trkpt>
      <trkpt lat="41.729221" lon="-1.956397">
        <ele>1169.6</ele>
        <time>2023-02-11T11:05:01.000Z</time>
      </trkpt>
      <trkpt lat="41.729178" lon="-1.956498">
        <ele>1169.4</ele>
        <time>2023-02-11T11:05:02.000Z</time>
      </trkpt>
      <trkpt lat="41.729136" lon="-1.956602">
        <ele>1169.4</ele>
        <time>2023-02-11T11:05:03.000Z</time>
      </trkpt>
      <trkpt lat="41.729092" lon="-1.956702">
        <ele>1169.4</ele>
        <time>2023-02-11T11:05:04.000Z</time>
      </trkpt>
      <trkpt lat="41.729051" lon="-1.956802">
        <ele>1169.2</ele>
        <time>2023-02-11T11:05:05.000Z</time>
      </trkpt>
      <trkpt lat="41.729011" lon="-1.9569">
        <ele>1169.2</ele>
        <time>2023-02-11T11:05:06.000Z</time>
      </trkpt>
      <trkpt lat="41.728969" lon="-1.956999">
        <ele>1169</ele>
        <time>2023-02-11T11:05:07.000Z</time>
      </trkpt>
      <trkpt lat="41.728926" lon="-1.957096">
        <ele>1168.8</ele>
        <time>2023-02-11T11:05:08.000Z</time>
      </trkpt>
      <trkpt lat="41.728884" lon="-1.957192">
        <ele>1168.6</ele>
        <time>2023-02-11T11:05:09.000Z</time>
      </trkpt>
      <trkpt lat="41.728841" lon="-1.95729">
        <ele>1168.6</ele>
        <time>2023-02-11T11:05:10.000Z</time>
      </trkpt>
      <trkpt lat="41.728802" lon="-1.957386">
        <ele>1168.6</ele>
        <time>2023-02-11T11:05:11.000Z</time>
      </trkpt>
      <trkpt lat="41.728761" lon="-1.957483">
        <ele>1168.6</ele>
        <time>2023-02-11T11:05:12.000Z</time>
      </trkpt>
      <trkpt lat="41.728719" lon="-1.957581">
        <ele>1168.6</ele>
        <time>2023-02-11T11:05:13.000Z</time>
      </trkpt>
      <trkpt lat="41.728676" lon="-1.957681">
        <ele>1168.6</ele>
        <time>2023-02-11T11:05:14.000Z</time>
      </trkpt>
      <trkpt lat="41.728634" lon="-1.957782">
        <ele>1168.6</ele>
        <time>2023-02-11T11:05:15.000Z</time>
      </trkpt>
      <trkpt lat="41.728595" lon="-1.957882">
        <ele>1168.4</ele>
        <time>2023-02-11T11:05:16.000Z</time>
      </trkpt>
      <trkpt lat="41.728552" lon="-1.957985">
        <ele>1168.4</ele>
        <time>2023-02-11T11:05:17.000Z</time>
      </trkpt>
      <trkpt lat="41.728509" lon="-1.958083">
        <ele>1168.4</ele>
        <time>2023-02-11T11:05:18.000Z</time>
      </trkpt>
      <trkpt lat="41.728466" lon="-1.958183">
        <ele>1168.4</ele>
        <time>2023-02-11T11:05:19.000Z</time>
      </trkpt>
      <trkpt lat="41.728426" lon="-1.958284">
        <ele>1168.2</ele>
        <time>2023-02-11T11:05:20.000Z</time>
      </trkpt>
      <trkpt lat="41.728387" lon="-1.958383">
        <ele>1168.2</ele>
        <time>2023-02-11T11:05:21.000Z</time>
      </trkpt>
      <trkpt lat="41.728347" lon="-1.958484">
        <ele>1168.2</ele>
        <time>2023-02-11T11:05:22.000Z</time>
      </trkpt>
      <trkpt lat="41.728308" lon="-1.958586">
        <ele>1168.2</ele>
        <time>2023-02-11T11:05:23.000Z</time>
      </trkpt>
      <trkpt lat="41.728269" lon="-1.958688">
        <ele>1168.2</ele>
        <time>2023-02-11T11:05:24.000Z</time>
      </trkpt>
      <trkpt lat="41.72823" lon="-1.958791">
        <ele>1168</ele>
        <time>2023-02-11T11:05:25.000Z</time>
      </trkpt>
      <trkpt lat="41.728193" lon="-1.958891">
        <ele>1168.2</ele>
        <time>2023-02-11T11:05:26.000Z</time>
      </trkpt>
      <trkpt lat="41.728153" lon="-1.95899">
        <ele>1168.2</ele>
        <time>2023-02-11T11:05:27.000Z</time>
      </trkpt>
      <trkpt lat="41.728114" lon="-1.95909">
        <ele>1168.2</ele>
        <time>2023-02-11T11:05:28.000Z</time>
      </trkpt>
      <trkpt lat="41.728075" lon="-1.959188">
        <ele>1168.2</ele>
        <time>2023-02-11T11:05:29.000Z</time>
      </trkpt>
      <trkpt lat="41.728031" lon="-1.959288">
        <ele>1168.2</ele>
        <time>2023-02-11T11:05:30.000Z</time>
      </trkpt>
      <trkpt lat="41.727988" lon="-1.959383">
        <ele>1168.2</ele>
        <time>2023-02-11T11:05:31.000Z</time>
      </trkpt>
      <trkpt lat="41.727944" lon="-1.959475">
        <ele>1168.2</ele>
        <time>2023-02-11T11:05:32.000Z</time>
      </trkpt>
      <trkpt lat="41.727897" lon="-1.959561">
        <ele>1168.2</ele>
        <time>2023-02-11T11:05:33.000Z</time>
      </trkpt>
      <trkpt lat="41.727848" lon="-1.959643">
        <ele>1168.2</ele>
        <time>2023-02-11T11:05:34.000Z</time>
      </trkpt>
      <trkpt lat="41.727803" lon="-1.959723">
        <ele>1168.4</ele>
        <time>2023-02-11T11:05:35.000Z</time>
      </trkpt>
      <trkpt lat="41.727758" lon="-1.959802">
        <ele>1168.4</ele>
        <time>2023-02-11T11:05:36.000Z</time>
      </trkpt>
      <trkpt lat="41.727716" lon="-1.959878">
        <ele>1168.4</ele>
        <time>2023-02-11T11:05:37.000Z</time>
      </trkpt>
      <trkpt lat="41.727673" lon="-1.959947">
        <ele>1168.4</ele>
        <time>2023-02-11T11:05:38.000Z</time>
      </trkpt>
      <trkpt lat="41.727628" lon="-1.960002">
        <ele>1168.4</ele>
        <time>2023-02-11T11:05:39.000Z</time>
      </trkpt>
      <trkpt lat="41.727581" lon="-1.960046">
        <ele>1168.4</ele>
        <time>2023-02-11T11:05:40.000Z</time>
      </trkpt>
      <trkpt lat="41.727503" lon="-1.960005">
        <ele>1168.4</ele>
        <time>2023-02-11T11:05:41.000Z</time>
      </trkpt>
      <trkpt lat="41.727428" lon="-1.959959">
        <ele>1168.4</ele>
        <time>2023-02-11T11:05:42.000Z</time>
      </trkpt>
      <trkpt lat="41.727346" lon="-1.959915">
        <ele>1168.4</ele>
        <time>2023-02-11T11:05:43.000Z</time>
      </trkpt>
      <trkpt lat="41.727249" lon="-1.959877">
        <ele>1168.4</ele>
        <time>2023-02-11T11:05:44.000Z</time>
      </trkpt>
      <trkpt lat="41.727148" lon="-1.959848">
        <ele>1168.2</ele>
        <time>2023-02-11T11:05:45.000Z</time>
      </trkpt>
      <trkpt lat="41.727046" lon="-1.959821">
        <ele>1167.8</ele>
        <time>2023-02-11T11:05:46.000Z</time>
      </trkpt>
      <trkpt lat="41.726941" lon="-1.959797">
        <ele>1167.6</ele>
        <time>2023-02-11T11:05:47.000Z</time>
      </trkpt>
      <trkpt lat="41.726834" lon="-1.959773">
        <ele>1167</ele>
        <time>2023-02-11T11:05:48.000Z</time>
      </trkpt>
      <trkpt lat="41.726727" lon="-1.959752">
        <ele>1166.6</ele>
        <time>2023-02-11T11:05:49.000Z</time>
      </trkpt>
      <trkpt lat="41.726619" lon="-1.959733">
        <ele>1166</ele>
        <time>2023-02-11T11:05:50.000Z</time>
      </trkpt>
      <trkpt lat="41.726515" lon="-1.959713">
        <ele>1165.8</ele>
        <time>2023-02-11T11:05:51.000Z</time>
      </trkpt>
      <trkpt lat="41.726409" lon="-1.959698">
        <ele>1165</ele>
        <time>2023-02-11T11:05:52.000Z</time>
      </trkpt>
      <trkpt lat="41.726301" lon="-1.959685">
        <ele>1164.8</ele>
        <time>2023-02-11T11:05:53.000Z</time>
      </trkpt>
      <trkpt lat="41.726196" lon="-1.959672">
        <ele>1164</ele>
        <time>2023-02-11T11:05:54.000Z</time>
      </trkpt>
      <trkpt lat="41.726091" lon="-1.959658">
        <ele>1163.8</ele>
        <time>2023-02-11T11:05:55.000Z</time>
      </trkpt>
      <trkpt lat="41.725988" lon="-1.959652">
        <ele>1163.6</ele>
        <time>2023-02-11T11:05:56.000Z</time>
      </trkpt>
      <trkpt lat="41.725885" lon="-1.959651">
        <ele>1163.4</ele>
        <time>2023-02-11T11:05:57.000Z</time>
      </trkpt>
      <trkpt lat="41.725778" lon="-1.959652">
        <ele>1163.2</ele>
        <time>2023-02-11T11:05:58.000Z</time>
      </trkpt>
      <trkpt lat="41.725675" lon="-1.959654">
        <ele>1162.8</ele>
        <time>2023-02-11T11:05:59.000Z</time>
      </trkpt>
      <trkpt lat="41.725572" lon="-1.959663">
        <ele>1162.8</ele>
        <time>2023-02-11T11:06:00.000Z</time>
      </trkpt>
      <trkpt lat="41.725472" lon="-1.959677">
        <ele>1162.4</ele>
        <time>2023-02-11T11:06:01.000Z</time>
      </trkpt>
      <trkpt lat="41.725371" lon="-1.9597">
        <ele>1162.4</ele>
        <time>2023-02-11T11:06:02.000Z</time>
      </trkpt>
      <trkpt lat="41.725271" lon="-1.95973">
        <ele>1162</ele>
        <time>2023-02-11T11:06:03.000Z</time>
      </trkpt>
      <trkpt lat="41.725171" lon="-1.959768">
        <ele>1161.6</ele>
        <time>2023-02-11T11:06:04.000Z</time>
      </trkpt>
      <trkpt lat="41.725074" lon="-1.95981">
        <ele>1161.4</ele>
        <time>2023-02-11T11:06:05.000Z</time>
      </trkpt>
      <trkpt lat="41.724975" lon="-1.959855">
        <ele>1161.2</ele>
        <time>2023-02-11T11:06:06.000Z</time>
      </trkpt>
      <trkpt lat="41.724878" lon="-1.959905">
        <ele>1160.8</ele>
        <time>2023-02-11T11:06:07.000Z</time>
      </trkpt>
      <trkpt lat="41.724786" lon="-1.959961">
        <ele>1160.2</ele>
        <time>2023-02-11T11:06:08.000Z</time>
      </trkpt>
      <trkpt lat="41.724695" lon="-1.960017">
        <ele>1160</ele>
        <time>2023-02-11T11:06:09.000Z</time>
      </trkpt>
      <trkpt lat="41.724607" lon="-1.960073">
        <ele>1159.6</ele>
        <time>2023-02-11T11:06:10.000Z</time>
      </trkpt>
      <trkpt lat="41.724523" lon="-1.960132">
        <ele>1159.6</ele>
        <time>2023-02-11T11:06:11.000Z</time>
      </trkpt>
      <trkpt lat="41.724442" lon="-1.960194">
        <ele>1159.4</ele>
        <time>2023-02-11T11:06:12.000Z</time>
      </trkpt>
      <trkpt lat="41.724362" lon="-1.960254">
        <ele>1159.2</ele>
        <time>2023-02-11T11:06:13.000Z</time>
      </trkpt>
      <trkpt lat="41.724281" lon="-1.960312">
        <ele>1159</ele>
        <time>2023-02-11T11:06:14.000Z</time>
      </trkpt>
      <trkpt lat="41.724198" lon="-1.960369">
        <ele>1158.8</ele>
        <time>2023-02-11T11:06:15.000Z</time>
      </trkpt>
      <trkpt lat="41.724116" lon="-1.960427">
        <ele>1158.6</ele>
        <time>2023-02-11T11:06:16.000Z</time>
      </trkpt>
      <trkpt lat="41.724035" lon="-1.960489">
        <ele>1158.2</ele>
        <time>2023-02-11T11:06:17.000Z</time>
      </trkpt>
      <trkpt lat="41.723954" lon="-1.960549">
        <ele>1158</ele>
        <time>2023-02-11T11:06:18.000Z</time>
      </trkpt>
      <trkpt lat="41.723874" lon="-1.960605">
        <ele>1157.8</ele>
        <time>2023-02-11T11:06:19.000Z</time>
      </trkpt>
      <trkpt lat="41.723793" lon="-1.960661">
        <ele>1157.8</ele>
        <time>2023-02-11T11:06:20.000Z</time>
      </trkpt>
      <trkpt lat="41.72371" lon="-1.960715">
        <ele>1157.6</ele>
        <time>2023-02-11T11:06:21.000Z</time>
      </trkpt>
      <trkpt lat="41.723628" lon="-1.960768">
        <ele>1157.6</ele>
        <time>2023-02-11T11:06:22.000Z</time>
      </trkpt>
      <trkpt lat="41.723543" lon="-1.960823">
        <ele>1157.6</ele>
        <time>2023-02-11T11:06:23.000Z</time>
      </trkpt>
      <trkpt lat="41.723454" lon="-1.960873">
        <ele>1157.4</ele>
        <time>2023-02-11T11:06:24.000Z</time>
      </trkpt>
      <trkpt lat="41.723362" lon="-1.960922">
        <ele>1157.4</ele>
        <time>2023-02-11T11:06:25.000Z</time>
      </trkpt>
      <trkpt lat="41.723269" lon="-1.960968">
        <ele>1157</ele>
        <time>2023-02-11T11:06:26.000Z</time>
      </trkpt>
      <trkpt lat="41.723175" lon="-1.961007">
        <ele>1157</ele>
        <time>2023-02-11T11:06:27.000Z</time>
      </trkpt>
      <trkpt lat="41.723078" lon="-1.961042">
        <ele>1156.8</ele>
        <time>2023-02-11T11:06:28.000Z</time>
      </trkpt>
      <trkpt lat="41.722978" lon="-1.961072">
        <ele>1156.6</ele>
        <time>2023-02-11T11:06:29.000Z</time>
      </trkpt>
      <trkpt lat="41.722876" lon="-1.961098">
        <ele>1156.4</ele>
        <time>2023-02-11T11:06:30.000Z</time>
      </trkpt>
      <trkpt lat="41.722773" lon="-1.96112">
        <ele>1156.4</ele>
        <time>2023-02-11T11:06:31.000Z</time>
      </trkpt>
      <trkpt lat="41.722669" lon="-1.961138">
        <ele>1156</ele>
        <time>2023-02-11T11:06:32.000Z</time>
      </trkpt>
      <trkpt lat="41.722566" lon="-1.961144">
        <ele>1155.8</ele>
        <time>2023-02-11T11:06:33.000Z</time>
      </trkpt>
      <trkpt lat="41.722462" lon="-1.961144">
        <ele>1155</ele>
        <time>2023-02-11T11:06:34.000Z</time>
      </trkpt>
      <trkpt lat="41.722356" lon="-1.961136">
        <ele>1154.8</ele>
        <time>2023-02-11T11:06:35.000Z</time>
      </trkpt>
      <trkpt lat="41.722251" lon="-1.961125">
        <ele>1154.6</ele>
        <time>2023-02-11T11:06:36.000Z</time>
      </trkpt>
      <trkpt lat="41.722148" lon="-1.961108">
        <ele>1153.6</ele>
        <time>2023-02-11T11:06:37.000Z</time>
      </trkpt>
      <trkpt lat="41.722041" lon="-1.961084">
        <ele>1152.8</ele>
        <time>2023-02-11T11:06:38.000Z</time>
      </trkpt>
      <trkpt lat="41.721932" lon="-1.961056">
        <ele>1151.8</ele>
        <time>2023-02-11T11:06:39.000Z</time>
      </trkpt>
      <trkpt lat="41.721822" lon="-1.961021">
        <ele>1151.4</ele>
        <time>2023-02-11T11:06:40.000Z</time>
      </trkpt>
      <trkpt lat="41.72171" lon="-1.960987">
        <ele>1151</ele>
        <time>2023-02-11T11:06:41.000Z</time>
      </trkpt>
      <trkpt lat="41.721598" lon="-1.960955">
        <ele>1151</ele>
        <time>2023-02-11T11:06:42.000Z</time>
      </trkpt>
      <trkpt lat="41.721488" lon="-1.960923">
        <ele>1150.6</ele>
        <time>2023-02-11T11:06:43.000Z</time>
      </trkpt>
      <trkpt lat="41.721378" lon="-1.960891">
        <ele>1149.6</ele>
        <time>2023-02-11T11:06:44.000Z</time>
      </trkpt>
      <trkpt lat="41.721268" lon="-1.960862">
        <ele>1149</ele>
        <time>2023-02-11T11:06:45.000Z</time>
      </trkpt>
      <trkpt lat="41.721161" lon="-1.960839">
        <ele>1148.2</ele>
        <time>2023-02-11T11:06:46.000Z</time>
      </trkpt>
      <trkpt lat="41.721055" lon="-1.96082">
        <ele>1148</ele>
        <time>2023-02-11T11:06:47.000Z</time>
      </trkpt>
      <trkpt lat="41.720948" lon="-1.960808">
        <ele>1147.6</ele>
        <time>2023-02-11T11:06:48.000Z</time>
      </trkpt>
      <trkpt lat="41.72084" lon="-1.960804">
        <ele>1147.2</ele>
        <time>2023-02-11T11:06:49.000Z</time>
      </trkpt>
      <trkpt lat="41.720735" lon="-1.960803">
        <ele>1147</ele>
        <time>2023-02-11T11:06:50.000Z</time>
      </trkpt>
      <trkpt lat="41.720633" lon="-1.960805">
        <ele>1147</ele>
        <time>2023-02-11T11:06:51.000Z</time>
      </trkpt>
      <trkpt lat="41.720533" lon="-1.960813">
        <ele>1147</ele>
        <time>2023-02-11T11:06:52.000Z</time>
      </trkpt>
      <trkpt lat="41.720438" lon="-1.960825">
        <ele>1147</ele>
        <time>2023-02-11T11:06:53.000Z</time>
      </trkpt>
      <trkpt lat="41.72035" lon="-1.960833">
        <ele>1147</ele>
        <time>2023-02-11T11:06:54.000Z</time>
      </trkpt>
      <trkpt lat="41.720266" lon="-1.960842">
        <ele>1147</ele>
        <time>2023-02-11T11:06:55.000Z</time>
      </trkpt>
      <trkpt lat="41.720185" lon="-1.960851">
        <ele>1147</ele>
        <time>2023-02-11T11:06:56.000Z</time>
      </trkpt>
      <trkpt lat="41.720108" lon="-1.960862">
        <ele>1147.2</ele>
        <time>2023-02-11T11:06:57.000Z</time>
      </trkpt>
      <trkpt lat="41.720038" lon="-1.960872">
        <ele>1147.2</ele>
        <time>2023-02-11T11:06:58.000Z</time>
      </trkpt>
      <trkpt lat="41.719972" lon="-1.960881">
        <ele>1147.8</ele>
        <time>2023-02-11T11:06:59.000Z</time>
      </trkpt>
      <trkpt lat="41.719911" lon="-1.960889">
        <ele>1148</ele>
        <time>2023-02-11T11:07:00.000Z</time>
      </trkpt>
      <trkpt lat="41.719852" lon="-1.960898">
        <ele>1148.2</ele>
        <time>2023-02-11T11:07:01.000Z</time>
      </trkpt>
      <trkpt lat="41.719794" lon="-1.960905">
        <ele>1148.4</ele>
        <time>2023-02-11T11:07:02.000Z</time>
      </trkpt>
      <trkpt lat="41.719739" lon="-1.960908">
        <ele>1148.6</ele>
        <time>2023-02-11T11:07:03.000Z</time>
      </trkpt>
      <trkpt lat="41.719686" lon="-1.960911">
        <ele>1149.2</ele>
        <time>2023-02-11T11:07:04.000Z</time>
      </trkpt>
      <trkpt lat="41.719633" lon="-1.960912">
        <ele>1149.6</ele>
        <time>2023-02-11T11:07:05.000Z</time>
      </trkpt>
      <trkpt lat="41.719583" lon="-1.960914">
        <ele>1150.4</ele>
        <time>2023-02-11T11:07:06.000Z</time>
      </trkpt>
      <trkpt lat="41.719534" lon="-1.960914">
        <ele>1150.6</ele>
        <time>2023-02-11T11:07:07.000Z</time>
      </trkpt>
      <trkpt lat="41.719486" lon="-1.960917">
        <ele>1151.2</ele>
        <time>2023-02-11T11:07:08.000Z</time>
      </trkpt>
      <trkpt lat="41.719437" lon="-1.960921">
        <ele>1151.4</ele>
        <time>2023-02-11T11:07:09.000Z</time>
      </trkpt>
      <trkpt lat="41.719388" lon="-1.960923">
        <ele>1151.8</ele>
        <time>2023-02-11T11:07:10.000Z</time>
      </trkpt>
      <trkpt lat="41.719339" lon="-1.960925">
        <ele>1152</ele>
        <time>2023-02-11T11:07:11.000Z</time>
      </trkpt>
      <trkpt lat="41.719291" lon="-1.960928">
        <ele>1152.8</ele>
        <time>2023-02-11T11:07:12.000Z</time>
      </trkpt>
      <trkpt lat="41.719242" lon="-1.960928">
        <ele>1153</ele>
        <time>2023-02-11T11:07:13.000Z</time>
      </trkpt>
      <trkpt lat="41.719193" lon="-1.960926">
        <ele>1153.4</ele>
        <time>2023-02-11T11:07:14.000Z</time>
      </trkpt>
      <trkpt lat="41.719143" lon="-1.960923">
        <ele>1154</ele>
        <time>2023-02-11T11:07:15.000Z</time>
      </trkpt>
      <trkpt lat="41.719092" lon="-1.96092">
        <ele>1154.2</ele>
        <time>2023-02-11T11:07:16.000Z</time>
      </trkpt>
      <trkpt lat="41.719038" lon="-1.960916">
        <ele>1154.6</ele>
        <time>2023-02-11T11:07:17.000Z</time>
      </trkpt>
      <trkpt lat="41.718981" lon="-1.960912">
        <ele>1155</ele>
        <time>2023-02-11T11:07:18.000Z</time>
      </trkpt>
      <trkpt lat="41.718923" lon="-1.960906">
        <ele>1155.4</ele>
        <time>2023-02-11T11:07:19.000Z</time>
      </trkpt>
      <trkpt lat="41.718866" lon="-1.960897">
        <ele>1155.6</ele>
        <time>2023-02-11T11:07:20.000Z</time>
      </trkpt>
      <trkpt lat="41.718806" lon="-1.960888">
        <ele>1156</ele>
        <time>2023-02-11T11:07:21.000Z</time>
      </trkpt>
      <trkpt lat="41.718746" lon="-1.96088">
        <ele>1156.2</ele>
        <time>2023-02-11T11:07:22.000Z</time>
      </trkpt>
      <trkpt lat="41.718684" lon="-1.960873">
        <ele>1156.4</ele>
        <time>2023-02-11T11:07:23.000Z</time>
      </trkpt>
      <trkpt lat="41.718623" lon="-1.960867">
        <ele>1156.6</ele>
        <time>2023-02-11T11:07:24.000Z</time>
      </trkpt>
      <trkpt lat="41.718563" lon="-1.96086">
        <ele>1156.8</ele>
        <time>2023-02-11T11:07:25.000Z</time>
      </trkpt>
      <trkpt lat="41.718504" lon="-1.960854">
        <ele>1157</ele>
        <time>2023-02-11T11:07:26.000Z</time>
      </trkpt>
      <trkpt lat="41.718446" lon="-1.960848">
        <ele>1157.2</ele>
        <time>2023-02-11T11:07:27.000Z</time>
      </trkpt>
      <trkpt lat="41.718388" lon="-1.960838">
        <ele>1157.4</ele>
        <time>2023-02-11T11:07:28.000Z</time>
      </trkpt>
      <trkpt lat="41.718331" lon="-1.960832">
        <ele>1157.6</ele>
        <time>2023-02-11T11:07:29.000Z</time>
      </trkpt>
      <trkpt lat="41.718276" lon="-1.960833">
        <ele>1157.8</ele>
        <time>2023-02-11T11:07:30.000Z</time>
      </trkpt>
      <trkpt lat="41.718218" lon="-1.960835">
        <ele>1158</ele>
        <time>2023-02-11T11:07:31.000Z</time>
      </trkpt>
      <trkpt lat="41.718155" lon="-1.960834">
        <ele>1158.2</ele>
        <time>2023-02-11T11:07:32.000Z</time>
      </trkpt>
      <trkpt lat="41.718091" lon="-1.960829">
        <ele>1158.2</ele>
        <time>2023-02-11T11:07:33.000Z</time>
      </trkpt>
      <trkpt lat="41.718025" lon="-1.960824">
        <ele>1158.4</ele>
        <time>2023-02-11T11:07:34.000Z</time>
      </trkpt>
      <trkpt lat="41.717962" lon="-1.960815">
        <ele>1158.4</ele>
        <time>2023-02-11T11:07:35.000Z</time>
      </trkpt>
      <trkpt lat="41.717897" lon="-1.960807">
        <ele>1158.6</ele>
        <time>2023-02-11T11:07:36.000Z</time>
      </trkpt>
      <trkpt lat="41.717831" lon="-1.960798">
        <ele>1158.8</ele>
        <time>2023-02-11T11:07:37.000Z</time>
      </trkpt>
      <trkpt lat="41.717762" lon="-1.960789">
        <ele>1159</ele>
        <time>2023-02-11T11:07:38.000Z</time>
      </trkpt>
      <trkpt lat="41.717691" lon="-1.960785">
        <ele>1159</ele>
        <time>2023-02-11T11:07:39.000Z</time>
      </trkpt>
      <trkpt lat="41.717619" lon="-1.96078">
        <ele>1159</ele>
        <time>2023-02-11T11:07:40.000Z</time>
      </trkpt>
      <trkpt lat="41.71755" lon="-1.960776">
        <ele>1159</ele>
        <time>2023-02-11T11:07:41.000Z</time>
      </trkpt>
      <trkpt lat="41.717483" lon="-1.960773">
        <ele>1159</ele>
        <time>2023-02-11T11:07:42.000Z</time>
      </trkpt>
      <trkpt lat="41.717417" lon="-1.96077">
        <ele>1159</ele>
        <time>2023-02-11T11:07:43.000Z</time>
      </trkpt>
      <trkpt lat="41.717351" lon="-1.960768">
        <ele>1159</ele>
        <time>2023-02-11T11:07:44.000Z</time>
      </trkpt>
      <trkpt lat="41.717285" lon="-1.960766">
        <ele>1159</ele>
        <time>2023-02-11T11:07:45.000Z</time>
      </trkpt>
      <trkpt lat="41.717218" lon="-1.960767">
        <ele>1159</ele>
        <time>2023-02-11T11:07:46.000Z</time>
      </trkpt>
      <trkpt lat="41.717153" lon="-1.96077">
        <ele>1159</ele>
        <time>2023-02-11T11:07:47.000Z</time>
      </trkpt>
      <trkpt lat="41.717088" lon="-1.960772">
        <ele>1159.2</ele>
        <time>2023-02-11T11:07:48.000Z</time>
      </trkpt>
      <trkpt lat="41.717025" lon="-1.960776">
        <ele>1159.2</ele>
        <time>2023-02-11T11:07:49.000Z</time>
      </trkpt>
      <trkpt lat="41.716962" lon="-1.960779">
        <ele>1159.4</ele>
        <time>2023-02-11T11:07:50.000Z</time>
      </trkpt>
      <trkpt lat="41.716902" lon="-1.960783">
        <ele>1159.6</ele>
        <time>2023-02-11T11:07:51.000Z</time>
      </trkpt>
      <trkpt lat="41.716844" lon="-1.960791">
        <ele>1159.6</ele>
        <time>2023-02-11T11:07:52.000Z</time>
      </trkpt>
      <trkpt lat="41.716788" lon="-1.960799">
        <ele>1159.8</ele>
        <time>2023-02-11T11:07:53.000Z</time>
      </trkpt>
      <trkpt lat="41.716735" lon="-1.960807">
        <ele>1159.8</ele>
        <time>2023-02-11T11:07:54.000Z</time>
      </trkpt>
      <trkpt lat="41.716686" lon="-1.960813">
        <ele>1160</ele>
        <time>2023-02-11T11:07:55.000Z</time>
      </trkpt>
      <trkpt lat="41.716638" lon="-1.960823">
        <ele>1160.2</ele>
        <time>2023-02-11T11:07:56.000Z</time>
      </trkpt>
      <trkpt lat="41.71659" lon="-1.960836">
        <ele>1160.8</ele>
        <time>2023-02-11T11:07:57.000Z</time>
      </trkpt>
      <trkpt lat="41.716543" lon="-1.960848">
        <ele>1161.2</ele>
        <time>2023-02-11T11:07:58.000Z</time>
      </trkpt>
      <trkpt lat="41.716498" lon="-1.960858">
        <ele>1161.8</ele>
        <time>2023-02-11T11:07:59.000Z</time>
      </trkpt>
      <trkpt lat="41.716452" lon="-1.960869">
        <ele>1162</ele>
        <time>2023-02-11T11:08:00.000Z</time>
      </trkpt>
      <trkpt lat="41.716406" lon="-1.960882">
        <ele>1162</ele>
        <time>2023-02-11T11:08:01.000Z</time>
      </trkpt>
      <trkpt lat="41.71636" lon="-1.960896">
        <ele>1162.2</ele>
        <time>2023-02-11T11:08:02.000Z</time>
      </trkpt>
      <trkpt lat="41.716314" lon="-1.960909">
        <ele>1162.4</ele>
        <time>2023-02-11T11:08:03.000Z</time>
      </trkpt>
      <trkpt lat="41.716268" lon="-1.960919">
        <ele>1163</ele>
        <time>2023-02-11T11:08:04.000Z</time>
      </trkpt>
      <trkpt lat="41.716224" lon="-1.960925">
        <ele>1163.2</ele>
        <time>2023-02-11T11:08:05.000Z</time>
      </trkpt>
      <trkpt lat="41.71618" lon="-1.960929">
        <ele>1163.6</ele>
        <time>2023-02-11T11:08:06.000Z</time>
      </trkpt>
      <trkpt lat="41.716136" lon="-1.960935">
        <ele>1164</ele>
        <time>2023-02-11T11:08:07.000Z</time>
      </trkpt>
      <trkpt lat="41.716093" lon="-1.960944">
        <ele>1164.4</ele>
        <time>2023-02-11T11:08:08.000Z</time>
      </trkpt>
      <trkpt lat="41.716051" lon="-1.960954">
        <ele>1164.8</ele>
        <time>2023-02-11T11:08:09.000Z</time>
      </trkpt>
      <trkpt lat="41.71601" lon="-1.960968">
        <ele>1165.2</ele>
        <time>2023-02-11T11:08:10.000Z</time>
      </trkpt>
      <trkpt lat="41.715967" lon="-1.96098">
        <ele>1165.6</ele>
        <time>2023-02-11T11:08:11.000Z</time>
      </trkpt>
      <trkpt lat="41.715922" lon="-1.96099">
        <ele>1165.6</ele>
        <time>2023-02-11T11:08:12.000Z</time>
      </trkpt>
      <trkpt lat="41.715876" lon="-1.960999">
        <ele>1166</ele>
        <time>2023-02-11T11:08:13.000Z</time>
      </trkpt>
      <trkpt lat="41.715833" lon="-1.961006">
        <ele>1166.2</ele>
        <time>2023-02-11T11:08:14.000Z</time>
      </trkpt>
      <trkpt lat="41.71579" lon="-1.96101">
        <ele>1166.6</ele>
        <time>2023-02-11T11:08:15.000Z</time>
      </trkpt>
      <trkpt lat="41.715747" lon="-1.961014">
        <ele>1166.8</ele>
        <time>2023-02-11T11:08:16.000Z</time>
      </trkpt>
      <trkpt lat="41.715704" lon="-1.961017">
        <ele>1167.2</ele>
        <time>2023-02-11T11:08:17.000Z</time>
      </trkpt>
      <trkpt lat="41.715659" lon="-1.96102">
        <ele>1167.4</ele>
        <time>2023-02-11T11:08:18.000Z</time>
      </trkpt>
      <trkpt lat="41.715615" lon="-1.961025">
        <ele>1167.8</ele>
        <time>2023-02-11T11:08:19.000Z</time>
      </trkpt>
      <trkpt lat="41.715571" lon="-1.961031">
        <ele>1168.4</ele>
        <time>2023-02-11T11:08:20.000Z</time>
      </trkpt>
      <trkpt lat="41.715529" lon="-1.961035">
        <ele>1168.6</ele>
        <time>2023-02-11T11:08:21.000Z</time>
      </trkpt>
      <trkpt lat="41.715485" lon="-1.961035">
        <ele>1169</ele>
        <time>2023-02-11T11:08:22.000Z</time>
      </trkpt>
      <trkpt lat="41.715439" lon="-1.961033">
        <ele>1169.2</ele>
        <time>2023-02-11T11:08:23.000Z</time>
      </trkpt>
      <trkpt lat="41.715393" lon="-1.961028">
        <ele>1169.6</ele>
        <time>2023-02-11T11:08:24.000Z</time>
      </trkpt>
      <trkpt lat="41.715349" lon="-1.96102">
        <ele>1170</ele>
        <time>2023-02-11T11:08:25.000Z</time>
      </trkpt>
      <trkpt lat="41.715305" lon="-1.961012">
        <ele>1170.6</ele>
        <time>2023-02-11T11:08:26.000Z</time>
      </trkpt>
      <trkpt lat="41.715259" lon="-1.961004">
        <ele>1170.6</ele>
        <time>2023-02-11T11:08:27.000Z</time>
      </trkpt>
      <trkpt lat="41.715213" lon="-1.960995">
        <ele>1171.4</ele>
        <time>2023-02-11T11:08:28.000Z</time>
      </trkpt>
      <trkpt lat="41.715169" lon="-1.960987">
        <ele>1171.6</ele>
        <time>2023-02-11T11:08:29.000Z</time>
      </trkpt>
      <trkpt lat="41.715123" lon="-1.960976">
        <ele>1172</ele>
        <time>2023-02-11T11:08:30.000Z</time>
      </trkpt>
      <trkpt lat="41.715079" lon="-1.960962">
        <ele>1172.6</ele>
        <time>2023-02-11T11:08:31.000Z</time>
      </trkpt>
      <trkpt lat="41.715036" lon="-1.960944">
        <ele>1172.8</ele>
        <time>2023-02-11T11:08:32.000Z</time>
      </trkpt>
      <trkpt lat="41.714993" lon="-1.960926">
        <ele>1173.2</ele>
        <time>2023-02-11T11:08:33.000Z</time>
      </trkpt>
      <trkpt lat="41.714944" lon="-1.960909">
        <ele>1173.4</ele>
        <time>2023-02-11T11:08:34.000Z</time>
      </trkpt>
      <trkpt lat="41.714897" lon="-1.960894">
        <ele>1173.6</ele>
        <time>2023-02-11T11:08:35.000Z</time>
      </trkpt>
      <trkpt lat="41.714852" lon="-1.960877">
        <ele>1173.8</ele>
        <time>2023-02-11T11:08:36.000Z</time>
      </trkpt>
      <trkpt lat="41.714809" lon="-1.960859">
        <ele>1174.2</ele>
        <time>2023-02-11T11:08:37.000Z</time>
      </trkpt>
      <trkpt lat="41.714764" lon="-1.960838">
        <ele>1174.4</ele>
        <time>2023-02-11T11:08:38.000Z</time>
      </trkpt>
      <trkpt lat="41.714716" lon="-1.960818">
        <ele>1174.6</ele>
        <time>2023-02-11T11:08:39.000Z</time>
      </trkpt>
      <trkpt lat="41.714668" lon="-1.960796">
        <ele>1175</ele>
        <time>2023-02-11T11:08:40.000Z</time>
      </trkpt>
      <trkpt lat="41.714623" lon="-1.960773">
        <ele>1175.2</ele>
        <time>2023-02-11T11:08:41.000Z</time>
      </trkpt>
      <trkpt lat="41.714576" lon="-1.960751">
        <ele>1175.4</ele>
        <time>2023-02-11T11:08:42.000Z</time>
      </trkpt>
      <trkpt lat="41.71453" lon="-1.960728">
        <ele>1175.6</ele>
        <time>2023-02-11T11:08:43.000Z</time>
      </trkpt>
      <trkpt lat="41.714485" lon="-1.960702">
        <ele>1176.2</ele>
        <time>2023-02-11T11:08:44.000Z</time>
      </trkpt>
      <trkpt lat="41.714438" lon="-1.960677">
        <ele>1176.2</ele>
        <time>2023-02-11T11:08:45.000Z</time>
      </trkpt>
      <trkpt lat="41.714391" lon="-1.96065">
        <ele>1176.6</ele>
        <time>2023-02-11T11:08:46.000Z</time>
      </trkpt>
      <trkpt lat="41.714342" lon="-1.960623">
        <ele>1176.8</ele>
        <time>2023-02-11T11:08:47.000Z</time>
      </trkpt>
      <trkpt lat="41.714292" lon="-1.960596">
        <ele>1177</ele>
        <time>2023-02-11T11:08:48.000Z</time>
      </trkpt>
      <trkpt lat="41.714243" lon="-1.960568">
        <ele>1177.2</ele>
        <time>2023-02-11T11:08:49.000Z</time>
      </trkpt>
      <trkpt lat="41.714194" lon="-1.96054">
        <ele>1177.2</ele>
        <time>2023-02-11T11:08:50.000Z</time>
      </trkpt>
      <trkpt lat="41.714142" lon="-1.960509">
        <ele>1177.2</ele>
        <time>2023-02-11T11:08:51.000Z</time>
      </trkpt>
      <trkpt lat="41.714088" lon="-1.960474">
        <ele>1177.4</ele>
        <time>2023-02-11T11:08:52.000Z</time>
      </trkpt>
      <trkpt lat="41.714032" lon="-1.960443">
        <ele>1177.4</ele>
        <time>2023-02-11T11:08:53.000Z</time>
      </trkpt>
      <trkpt lat="41.713977" lon="-1.960411">
        <ele>1177.4</ele>
        <time>2023-02-11T11:08:54.000Z</time>
      </trkpt>
      <trkpt lat="41.713919" lon="-1.960377">
        <ele>1177.4</ele>
        <time>2023-02-11T11:08:55.000Z</time>
      </trkpt>
      <trkpt lat="41.713862" lon="-1.96034">
        <ele>1177.6</ele>
        <time>2023-02-11T11:08:56.000Z</time>
      </trkpt>
      <trkpt lat="41.713802" lon="-1.960303">
        <ele>1177.6</ele>
        <time>2023-02-11T11:08:57.000Z</time>
      </trkpt>
      <trkpt lat="41.713739" lon="-1.960265">
        <ele>1177.6</ele>
        <time>2023-02-11T11:08:58.000Z</time>
      </trkpt>
      <trkpt lat="41.713673" lon="-1.960225">
        <ele>1177.6</ele>
        <time>2023-02-11T11:08:59.000Z</time>
      </trkpt>
      <trkpt lat="41.713604" lon="-1.960185">
        <ele>1177.6</ele>
        <time>2023-02-11T11:09:00.000Z</time>
      </trkpt>
      <trkpt lat="41.713533" lon="-1.960142">
        <ele>1177.4</ele>
        <time>2023-02-11T11:09:01.000Z</time>
      </trkpt>
      <trkpt lat="41.71346" lon="-1.960101">
        <ele>1177.4</ele>
        <time>2023-02-11T11:09:02.000Z</time>
      </trkpt>
      <trkpt lat="41.713386" lon="-1.960057">
        <ele>1177.2</ele>
        <time>2023-02-11T11:09:03.000Z</time>
      </trkpt>
      <trkpt lat="41.713308" lon="-1.960013">
        <ele>1177</ele>
        <time>2023-02-11T11:09:04.000Z</time>
      </trkpt>
      <trkpt lat="41.713228" lon="-1.959967">
        <ele>1177</ele>
        <time>2023-02-11T11:09:05.000Z</time>
      </trkpt>
      <trkpt lat="41.713145" lon="-1.959921">
        <ele>1176.8</ele>
        <time>2023-02-11T11:09:06.000Z</time>
      </trkpt>
      <trkpt lat="41.713059" lon="-1.959877">
        <ele>1176.6</ele>
        <time>2023-02-11T11:09:07.000Z</time>
      </trkpt>
      <trkpt lat="41.712969" lon="-1.959834">
        <ele>1176.2</ele>
        <time>2023-02-11T11:09:08.000Z</time>
      </trkpt>
      <trkpt lat="41.712875" lon="-1.959794">
        <ele>1175.6</ele>
        <time>2023-02-11T11:09:09.000Z</time>
      </trkpt>
      <trkpt lat="41.71278" lon="-1.959754">
        <ele>1175.6</ele>
        <time>2023-02-11T11:09:10.000Z</time>
      </trkpt>
      <trkpt lat="41.712682" lon="-1.959715">
        <ele>1175.2</ele>
        <time>2023-02-11T11:09:11.000Z</time>
      </trkpt>
      <trkpt lat="41.712584" lon="-1.95968">
        <ele>1175</ele>
        <time>2023-02-11T11:09:12.000Z</time>
      </trkpt>
      <trkpt lat="41.712486" lon="-1.959644">
        <ele>1174.4</ele>
        <time>2023-02-11T11:09:13.000Z</time>
      </trkpt>
      <trkpt lat="41.712388" lon="-1.959608">
        <ele>1174.2</ele>
        <time>2023-02-11T11:09:14.000Z</time>
      </trkpt>
      <trkpt lat="41.712288" lon="-1.959572">
        <ele>1174</ele>
        <time>2023-02-11T11:09:15.000Z</time>
      </trkpt>
      <trkpt lat="41.712188" lon="-1.959534">
        <ele>1173.8</ele>
        <time>2023-02-11T11:09:16.000Z</time>
      </trkpt>
      <trkpt lat="41.712087" lon="-1.959495">
        <ele>1173.4</ele>
        <time>2023-02-11T11:09:17.000Z</time>
      </trkpt>
      <trkpt lat="41.711983" lon="-1.959456">
        <ele>1173.4</ele>
        <time>2023-02-11T11:09:18.000Z</time>
      </trkpt>
      <trkpt lat="41.711878" lon="-1.959416">
        <ele>1172.8</ele>
        <time>2023-02-11T11:09:19.000Z</time>
      </trkpt>
      <trkpt lat="41.711769" lon="-1.959375">
        <ele>1172.2</ele>
        <time>2023-02-11T11:09:20.000Z</time>
      </trkpt>
      <trkpt lat="41.711661" lon="-1.959332">
        <ele>1171.8</ele>
        <time>2023-02-11T11:09:21.000Z</time>
      </trkpt>
      <trkpt lat="41.711553" lon="-1.959289">
        <ele>1170.6</ele>
        <time>2023-02-11T11:09:22.000Z</time>
      </trkpt>
      <trkpt lat="41.711447" lon="-1.959247">
        <ele>1170</ele>
        <time>2023-02-11T11:09:23.000Z</time>
      </trkpt>
      <trkpt lat="41.711342" lon="-1.959209">
        <ele>1169.2</ele>
        <time>2023-02-11T11:09:24.000Z</time>
      </trkpt>
      <trkpt lat="41.711239" lon="-1.959174">
        <ele>1168.8</ele>
        <time>2023-02-11T11:09:25.000Z</time>
      </trkpt>
      <trkpt lat="41.711137" lon="-1.959142">
        <ele>1168.4</ele>
        <time>2023-02-11T11:09:26.000Z</time>
      </trkpt>
      <trkpt lat="41.711036" lon="-1.959116">
        <ele>1168.4</ele>
        <time>2023-02-11T11:09:27.000Z</time>
      </trkpt>
      <trkpt lat="41.710935" lon="-1.95909">
        <ele>1168</ele>
        <time>2023-02-11T11:09:28.000Z</time>
      </trkpt>
      <trkpt lat="41.710833" lon="-1.959066">
        <ele>1167.8</ele>
        <time>2023-02-11T11:09:29.000Z</time>
      </trkpt>
      <trkpt lat="41.71073" lon="-1.959044">
        <ele>1167.8</ele>
        <time>2023-02-11T11:09:30.000Z</time>
      </trkpt>
      <trkpt lat="41.710628" lon="-1.959028">
        <ele>1167.6</ele>
        <time>2023-02-11T11:09:31.000Z</time>
      </trkpt>
      <trkpt lat="41.710526" lon="-1.959013">
        <ele>1167.2</ele>
        <time>2023-02-11T11:09:32.000Z</time>
      </trkpt>
      <trkpt lat="41.710425" lon="-1.959002">
        <ele>1166.8</ele>
        <time>2023-02-11T11:09:33.000Z</time>
      </trkpt>
      <trkpt lat="41.710327" lon="-1.958993">
        <ele>1166.6</ele>
        <time>2023-02-11T11:09:34.000Z</time>
      </trkpt>
      <trkpt lat="41.710229" lon="-1.958983">
        <ele>1166.2</ele>
        <time>2023-02-11T11:09:35.000Z</time>
      </trkpt>
      <trkpt lat="41.710133" lon="-1.958976">
        <ele>1166.2</ele>
        <time>2023-02-11T11:09:36.000Z</time>
      </trkpt>
      <trkpt lat="41.710041" lon="-1.958976">
        <ele>1166</ele>
        <time>2023-02-11T11:09:37.000Z</time>
      </trkpt>
      <trkpt lat="41.709952" lon="-1.958977">
        <ele>1166</ele>
        <time>2023-02-11T11:09:38.000Z</time>
      </trkpt>
      <trkpt lat="41.709863" lon="-1.958979">
        <ele>1165.8</ele>
        <time>2023-02-11T11:09:39.000Z</time>
      </trkpt>
      <trkpt lat="41.709777" lon="-1.958981">
        <ele>1165.8</ele>
        <time>2023-02-11T11:09:40.000Z</time>
      </trkpt>
      <trkpt lat="41.709689" lon="-1.958984">
        <ele>1165.8</ele>
        <time>2023-02-11T11:09:41.000Z</time>
      </trkpt>
      <trkpt lat="41.709605" lon="-1.958989">
        <ele>1165.8</ele>
        <time>2023-02-11T11:09:42.000Z</time>
      </trkpt>
      <trkpt lat="41.709517" lon="-1.958995">
        <ele>1165.8</ele>
        <time>2023-02-11T11:09:43.000Z</time>
      </trkpt>
      <trkpt lat="41.709427" lon="-1.958996">
        <ele>1165.8</ele>
        <time>2023-02-11T11:09:44.000Z</time>
      </trkpt>
      <trkpt lat="41.709335" lon="-1.958998">
        <ele>1165.8</ele>
        <time>2023-02-11T11:09:45.000Z</time>
      </trkpt>
      <trkpt lat="41.709243" lon="-1.958997">
        <ele>1165.8</ele>
        <time>2023-02-11T11:09:46.000Z</time>
      </trkpt>
      <trkpt lat="41.709151" lon="-1.958997">
        <ele>1165.8</ele>
        <time>2023-02-11T11:09:47.000Z</time>
      </trkpt>
      <trkpt lat="41.709061" lon="-1.959002">
        <ele>1165.6</ele>
        <time>2023-02-11T11:09:48.000Z</time>
      </trkpt>
      <trkpt lat="41.708971" lon="-1.959007">
        <ele>1165.6</ele>
        <time>2023-02-11T11:09:49.000Z</time>
      </trkpt>
      <trkpt lat="41.708881" lon="-1.959011">
        <ele>1165.6</ele>
        <time>2023-02-11T11:09:50.000Z</time>
      </trkpt>
      <trkpt lat="41.70879" lon="-1.959014">
        <ele>1165.4</ele>
        <time>2023-02-11T11:09:51.000Z</time>
      </trkpt>
      <trkpt lat="41.708697" lon="-1.959018">
        <ele>1165.4</ele>
        <time>2023-02-11T11:09:52.000Z</time>
      </trkpt>
      <trkpt lat="41.708606" lon="-1.959023">
        <ele>1165.4</ele>
        <time>2023-02-11T11:09:53.000Z</time>
      </trkpt>
      <trkpt lat="41.708515" lon="-1.959029">
        <ele>1165.4</ele>
        <time>2023-02-11T11:09:54.000Z</time>
      </trkpt>
      <trkpt lat="41.708426" lon="-1.959035">
        <ele>1165.4</ele>
        <time>2023-02-11T11:09:55.000Z</time>
      </trkpt>
      <trkpt lat="41.708336" lon="-1.959038">
        <ele>1165.4</ele>
        <time>2023-02-11T11:09:56.000Z</time>
      </trkpt>
      <trkpt lat="41.708245" lon="-1.95904">
        <ele>1165.4</ele>
        <time>2023-02-11T11:09:57.000Z</time>
      </trkpt>
      <trkpt lat="41.708155" lon="-1.959041">
        <ele>1165.4</ele>
        <time>2023-02-11T11:09:58.000Z</time>
      </trkpt>
      <trkpt lat="41.708063" lon="-1.959044">
        <ele>1165.6</ele>
        <time>2023-02-11T11:09:59.000Z</time>
      </trkpt>
      <trkpt lat="41.707971" lon="-1.959045">
        <ele>1165.6</ele>
        <time>2023-02-11T11:10:00.000Z</time>
      </trkpt>
      <trkpt lat="41.707877" lon="-1.959048">
        <ele>1165.6</ele>
        <time>2023-02-11T11:10:01.000Z</time>
      </trkpt>
      <trkpt lat="41.707783" lon="-1.959052">
        <ele>1165.6</ele>
        <time>2023-02-11T11:10:02.000Z</time>
      </trkpt>
      <trkpt lat="41.707689" lon="-1.959054">
        <ele>1165.8</ele>
        <time>2023-02-11T11:10:03.000Z</time>
      </trkpt>
      <trkpt lat="41.707595" lon="-1.959055">
        <ele>1165.8</ele>
        <time>2023-02-11T11:10:04.000Z</time>
      </trkpt>
      <trkpt lat="41.707498" lon="-1.959057">
        <ele>1166</ele>
        <time>2023-02-11T11:10:05.000Z</time>
      </trkpt>
      <trkpt lat="41.707401" lon="-1.959056">
        <ele>1166</ele>
        <time>2023-02-11T11:10:06.000Z</time>
      </trkpt>
      <trkpt lat="41.707304" lon="-1.959058">
        <ele>1166.2</ele>
        <time>2023-02-11T11:10:07.000Z</time>
      </trkpt>
      <trkpt lat="41.707209" lon="-1.959059">
        <ele>1166.2</ele>
        <time>2023-02-11T11:10:08.000Z</time>
      </trkpt>
      <trkpt lat="41.707115" lon="-1.959057">
        <ele>1166.4</ele>
        <time>2023-02-11T11:10:09.000Z</time>
      </trkpt>
      <trkpt lat="41.707024" lon="-1.95905">
        <ele>1166.4</ele>
        <time>2023-02-11T11:10:10.000Z</time>
      </trkpt>
      <trkpt lat="41.706938" lon="-1.95904">
        <ele>1166.6</ele>
        <time>2023-02-11T11:10:11.000Z</time>
      </trkpt>
      <trkpt lat="41.706857" lon="-1.95903">
        <ele>1166.8</ele>
        <time>2023-02-11T11:10:12.000Z</time>
      </trkpt>
      <trkpt lat="41.706781" lon="-1.959023">
        <ele>1167</ele>
        <time>2023-02-11T11:10:13.000Z</time>
      </trkpt>
      <trkpt lat="41.706708" lon="-1.959012">
        <ele>1167.2</ele>
        <time>2023-02-11T11:10:14.000Z</time>
      </trkpt>
      <trkpt lat="41.706637" lon="-1.958998">
        <ele>1167.4</ele>
        <time>2023-02-11T11:10:15.000Z</time>
      </trkpt>
      <trkpt lat="41.706569" lon="-1.958983">
        <ele>1167.8</ele>
        <time>2023-02-11T11:10:16.000Z</time>
      </trkpt>
      <trkpt lat="41.706502" lon="-1.958966">
        <ele>1168.2</ele>
        <time>2023-02-11T11:10:17.000Z</time>
      </trkpt>
      <trkpt lat="41.706438" lon="-1.958946">
        <ele>1168.4</ele>
        <time>2023-02-11T11:10:18.000Z</time>
      </trkpt>
      <trkpt lat="41.706375" lon="-1.958929">
        <ele>1169</ele>
        <time>2023-02-11T11:10:19.000Z</time>
      </trkpt>
      <trkpt lat="41.706314" lon="-1.95891">
        <ele>1169.4</ele>
        <time>2023-02-11T11:10:20.000Z</time>
      </trkpt>
      <trkpt lat="41.706252" lon="-1.958885">
        <ele>1169.6</ele>
        <time>2023-02-11T11:10:21.000Z</time>
      </trkpt>
      <trkpt lat="41.706191" lon="-1.958859">
        <ele>1169.8</ele>
        <time>2023-02-11T11:10:22.000Z</time>
      </trkpt>
      <trkpt lat="41.706131" lon="-1.958832">
        <ele>1170</ele>
        <time>2023-02-11T11:10:23.000Z</time>
      </trkpt>
      <trkpt lat="41.706071" lon="-1.958807">
        <ele>1170.2</ele>
        <time>2023-02-11T11:10:24.000Z</time>
      </trkpt>
      <trkpt lat="41.706012" lon="-1.958777">
        <ele>1170.2</ele>
        <time>2023-02-11T11:10:25.000Z</time>
      </trkpt>
      <trkpt lat="41.705955" lon="-1.958745">
        <ele>1170.6</ele>
        <time>2023-02-11T11:10:26.000Z</time>
      </trkpt>
      <trkpt lat="41.705899" lon="-1.958713">
        <ele>1170.6</ele>
        <time>2023-02-11T11:10:27.000Z</time>
      </trkpt>
      <trkpt lat="41.705843" lon="-1.958683">
        <ele>1170.8</ele>
        <time>2023-02-11T11:10:28.000Z</time>
      </trkpt>
      <trkpt lat="41.705785" lon="-1.958652">
        <ele>1171</ele>
        <time>2023-02-11T11:10:29.000Z</time>
      </trkpt>
      <trkpt lat="41.705728" lon="-1.958619">
        <ele>1171.2</ele>
        <time>2023-02-11T11:10:30.000Z</time>
      </trkpt>
      <trkpt lat="41.705676" lon="-1.958581">
        <ele>1171.4</ele>
        <time>2023-02-11T11:10:31.000Z</time>
      </trkpt>
      <trkpt lat="41.705624" lon="-1.958543">
        <ele>1171.8</ele>
        <time>2023-02-11T11:10:32.000Z</time>
      </trkpt>
      <trkpt lat="41.705573" lon="-1.958506">
        <ele>1172.2</ele>
        <time>2023-02-11T11:10:33.000Z</time>
      </trkpt>
      <trkpt lat="41.705521" lon="-1.958467">
        <ele>1172.4</ele>
        <time>2023-02-11T11:10:34.000Z</time>
      </trkpt>
      <trkpt lat="41.705467" lon="-1.958427">
        <ele>1172.6</ele>
        <time>2023-02-11T11:10:35.000Z</time>
      </trkpt>
      <trkpt lat="41.705413" lon="-1.958387">
        <ele>1172.8</ele>
        <time>2023-02-11T11:10:36.000Z</time>
      </trkpt>
      <trkpt lat="41.705359" lon="-1.95834">
        <ele>1173.4</ele>
        <time>2023-02-11T11:10:37.000Z</time>
      </trkpt>
      <trkpt lat="41.705306" lon="-1.958291">
        <ele>1173.8</ele>
        <time>2023-02-11T11:10:38.000Z</time>
      </trkpt>
      <trkpt lat="41.705251" lon="-1.958245">
        <ele>1174</ele>
        <time>2023-02-11T11:10:39.000Z</time>
      </trkpt>
      <trkpt lat="41.705192" lon="-1.958198">
        <ele>1174.2</ele>
        <time>2023-02-11T11:10:40.000Z</time>
      </trkpt>
      <trkpt lat="41.705134" lon="-1.958149">
        <ele>1174.4</ele>
        <time>2023-02-11T11:10:41.000Z</time>
      </trkpt>
      <trkpt lat="41.705077" lon="-1.9581">
        <ele>1174.6</ele>
        <time>2023-02-11T11:10:42.000Z</time>
      </trkpt>
      <trkpt lat="41.705018" lon="-1.958053">
        <ele>1174.6</ele>
        <time>2023-02-11T11:10:43.000Z</time>
      </trkpt>
      <trkpt lat="41.70496" lon="-1.958007">
        <ele>1174.8</ele>
        <time>2023-02-11T11:10:44.000Z</time>
      </trkpt>
      <trkpt lat="41.704899" lon="-1.957959">
        <ele>1175</ele>
        <time>2023-02-11T11:10:45.000Z</time>
      </trkpt>
      <trkpt lat="41.704836" lon="-1.957907">
        <ele>1175</ele>
        <time>2023-02-11T11:10:46.000Z</time>
      </trkpt>
      <trkpt lat="41.704774" lon="-1.957854">
        <ele>1175.2</ele>
        <time>2023-02-11T11:10:47.000Z</time>
      </trkpt>
      <trkpt lat="41.704712" lon="-1.957801">
        <ele>1175.4</ele>
        <time>2023-02-11T11:10:48.000Z</time>
      </trkpt>
      <trkpt lat="41.704651" lon="-1.95775">
        <ele>1175.4</ele>
        <time>2023-02-11T11:10:49.000Z</time>
      </trkpt>
      <trkpt lat="41.704589" lon="-1.957697">
        <ele>1175.4</ele>
        <time>2023-02-11T11:10:50.000Z</time>
      </trkpt>
      <trkpt lat="41.70453" lon="-1.957646">
        <ele>1175.6</ele>
        <time>2023-02-11T11:10:51.000Z</time>
      </trkpt>
      <trkpt lat="41.70447" lon="-1.957593">
        <ele>1175.6</ele>
        <time>2023-02-11T11:10:52.000Z</time>
      </trkpt>
      <trkpt lat="41.704409" lon="-1.957541">
        <ele>1175.6</ele>
        <time>2023-02-11T11:10:53.000Z</time>
      </trkpt>
      <trkpt lat="41.70435" lon="-1.957493">
        <ele>1175.8</ele>
        <time>2023-02-11T11:10:54.000Z</time>
      </trkpt>
      <trkpt lat="41.704287" lon="-1.957439">
        <ele>1175.8</ele>
        <time>2023-02-11T11:10:55.000Z</time>
      </trkpt>
      <trkpt lat="41.704222" lon="-1.957382">
        <ele>1175.8</ele>
        <time>2023-02-11T11:10:56.000Z</time>
      </trkpt>
      <trkpt lat="41.704157" lon="-1.957323">
        <ele>1175.8</ele>
        <time>2023-02-11T11:10:57.000Z</time>
      </trkpt>
      <trkpt lat="41.704092" lon="-1.957264">
        <ele>1175.8</ele>
        <time>2023-02-11T11:10:58.000Z</time>
      </trkpt>
      <trkpt lat="41.704022" lon="-1.957206">
        <ele>1175.8</ele>
        <time>2023-02-11T11:10:59.000Z</time>
      </trkpt>
      <trkpt lat="41.703953" lon="-1.957147">
        <ele>1176</ele>
        <time>2023-02-11T11:11:00.000Z</time>
      </trkpt>
      <trkpt lat="41.703887" lon="-1.957086">
        <ele>1176</ele>
        <time>2023-02-11T11:11:01.000Z</time>
      </trkpt>
      <trkpt lat="41.703821" lon="-1.957023">
        <ele>1176</ele>
        <time>2023-02-11T11:11:02.000Z</time>
      </trkpt>
      <trkpt lat="41.703755" lon="-1.956958">
        <ele>1176</ele>
        <time>2023-02-11T11:11:03.000Z</time>
      </trkpt>
      <trkpt lat="41.703685" lon="-1.956893">
        <ele>1176</ele>
        <time>2023-02-11T11:11:04.000Z</time>
      </trkpt>
      <trkpt lat="41.703613" lon="-1.956827">
        <ele>1176</ele>
        <time>2023-02-11T11:11:05.000Z</time>
      </trkpt>
      <trkpt lat="41.703541" lon="-1.956761">
        <ele>1176</ele>
        <time>2023-02-11T11:11:06.000Z</time>
      </trkpt>
      <trkpt lat="41.703467" lon="-1.956687">
        <ele>1175.8</ele>
        <time>2023-02-11T11:11:07.000Z</time>
      </trkpt>
      <trkpt lat="41.703395" lon="-1.956612">
        <ele>1175.8</ele>
        <time>2023-02-11T11:11:08.000Z</time>
      </trkpt>
      <trkpt lat="41.703321" lon="-1.956537">
        <ele>1175.8</ele>
        <time>2023-02-11T11:11:09.000Z</time>
      </trkpt>
      <trkpt lat="41.703247" lon="-1.956461">
        <ele>1175.8</ele>
        <time>2023-02-11T11:11:10.000Z</time>
      </trkpt>
      <trkpt lat="41.703172" lon="-1.956383">
        <ele>1175.6</ele>
        <time>2023-02-11T11:11:11.000Z</time>
      </trkpt>
      <trkpt lat="41.703095" lon="-1.956304">
        <ele>1175.4</ele>
        <time>2023-02-11T11:11:12.000Z</time>
      </trkpt>
      <trkpt lat="41.703021" lon="-1.956225">
        <ele>1175.2</ele>
        <time>2023-02-11T11:11:13.000Z</time>
      </trkpt>
      <trkpt lat="41.702945" lon="-1.956142">
        <ele>1175.2</ele>
        <time>2023-02-11T11:11:14.000Z</time>
      </trkpt>
      <trkpt lat="41.702869" lon="-1.956059">
        <ele>1174.8</ele>
        <time>2023-02-11T11:11:15.000Z</time>
      </trkpt>
      <trkpt lat="41.702793" lon="-1.955975">
        <ele>1174.8</ele>
        <time>2023-02-11T11:11:16.000Z</time>
      </trkpt>
      <trkpt lat="41.702715" lon="-1.955889">
        <ele>1174.6</ele>
        <time>2023-02-11T11:11:17.000Z</time>
      </trkpt>
      <trkpt lat="41.702633" lon="-1.955804">
        <ele>1174.4</ele>
        <time>2023-02-11T11:11:18.000Z</time>
      </trkpt>
      <trkpt lat="41.702551" lon="-1.955719">
        <ele>1174.4</ele>
        <time>2023-02-11T11:11:19.000Z</time>
      </trkpt>
      <trkpt lat="41.702473" lon="-1.955635">
        <ele>1174.2</ele>
        <time>2023-02-11T11:11:20.000Z</time>
      </trkpt>
      <trkpt lat="41.702389" lon="-1.955546">
        <ele>1174.2</ele>
        <time>2023-02-11T11:11:21.000Z</time>
      </trkpt>
      <trkpt lat="41.702307" lon="-1.955459">
        <ele>1174</ele>
        <time>2023-02-11T11:11:22.000Z</time>
      </trkpt>
      <trkpt lat="41.702228" lon="-1.955372">
        <ele>1173.8</ele>
        <time>2023-02-11T11:11:23.000Z</time>
      </trkpt>
      <trkpt lat="41.70215" lon="-1.955285">
        <ele>1173.6</ele>
        <time>2023-02-11T11:11:24.000Z</time>
      </trkpt>
      <trkpt lat="41.702073" lon="-1.9552">
        <ele>1173.6</ele>
        <time>2023-02-11T11:11:25.000Z</time>
      </trkpt>
      <trkpt lat="41.702" lon="-1.955114">
        <ele>1173.4</ele>
        <time>2023-02-11T11:11:26.000Z</time>
      </trkpt>
      <trkpt lat="41.701931" lon="-1.955026">
        <ele>1173.2</ele>
        <time>2023-02-11T11:11:27.000Z</time>
      </trkpt>
      <trkpt lat="41.701862" lon="-1.954938">
        <ele>1173.2</ele>
        <time>2023-02-11T11:11:28.000Z</time>
      </trkpt>
      <trkpt lat="41.701794" lon="-1.954847">
        <ele>1173.2</ele>
        <time>2023-02-11T11:11:29.000Z</time>
      </trkpt>
      <trkpt lat="41.701727" lon="-1.954753">
        <ele>1173.2</ele>
        <time>2023-02-11T11:11:30.000Z</time>
      </trkpt>
      <trkpt lat="41.701662" lon="-1.954657">
        <ele>1173.2</ele>
        <time>2023-02-11T11:11:31.000Z</time>
      </trkpt>
      <trkpt lat="41.701599" lon="-1.95456">
        <ele>1173</ele>
        <time>2023-02-11T11:11:32.000Z</time>
      </trkpt>
      <trkpt lat="41.70154" lon="-1.954459">
        <ele>1173</ele>
        <time>2023-02-11T11:11:33.000Z</time>
      </trkpt>
      <trkpt lat="41.701482" lon="-1.954358">
        <ele>1173</ele>
        <time>2023-02-11T11:11:34.000Z</time>
      </trkpt>
      <trkpt lat="41.701424" lon="-1.954256">
        <ele>1173</ele>
        <time>2023-02-11T11:11:35.000Z</time>
      </trkpt>
      <trkpt lat="41.701366" lon="-1.954154">
        <ele>1172.8</ele>
        <time>2023-02-11T11:11:36.000Z</time>
      </trkpt>
      <trkpt lat="41.701307" lon="-1.954051">
        <ele>1172.8</ele>
        <time>2023-02-11T11:11:37.000Z</time>
      </trkpt>
      <trkpt lat="41.701253" lon="-1.953949">
        <ele>1172.6</ele>
        <time>2023-02-11T11:11:38.000Z</time>
      </trkpt>
      <trkpt lat="41.701197" lon="-1.953845">
        <ele>1172.6</ele>
        <time>2023-02-11T11:11:39.000Z</time>
      </trkpt>
      <trkpt lat="41.701144" lon="-1.95374">
        <ele>1172.2</ele>
        <time>2023-02-11T11:11:40.000Z</time>
      </trkpt>
      <trkpt lat="41.701091" lon="-1.953637">
        <ele>1172</ele>
        <time>2023-02-11T11:11:41.000Z</time>
      </trkpt>
      <trkpt lat="41.701037" lon="-1.953534">
        <ele>1171.6</ele>
        <time>2023-02-11T11:11:42.000Z</time>
      </trkpt>
      <trkpt lat="41.700979" lon="-1.953431">
        <ele>1171.6</ele>
        <time>2023-02-11T11:11:43.000Z</time>
      </trkpt>
      <trkpt lat="41.700923" lon="-1.953327">
        <ele>1171.6</ele>
        <time>2023-02-11T11:11:44.000Z</time>
      </trkpt>
      <trkpt lat="41.700868" lon="-1.953228">
        <ele>1171.6</ele>
        <time>2023-02-11T11:11:45.000Z</time>
      </trkpt>
      <trkpt lat="41.700814" lon="-1.953129">
        <ele>1171.6</ele>
        <time>2023-02-11T11:11:46.000Z</time>
      </trkpt>
      <trkpt lat="41.700762" lon="-1.953031">
        <ele>1171.8</ele>
        <time>2023-02-11T11:11:47.000Z</time>
      </trkpt>
      <trkpt lat="41.700713" lon="-1.95294">
        <ele>1171.8</ele>
        <time>2023-02-11T11:11:48.000Z</time>
      </trkpt>
      <trkpt lat="41.700665" lon="-1.952849">
        <ele>1172</ele>
        <time>2023-02-11T11:11:49.000Z</time>
      </trkpt>
      <trkpt lat="41.700618" lon="-1.952758">
        <ele>1172.2</ele>
        <time>2023-02-11T11:11:50.000Z</time>
      </trkpt>
      <trkpt lat="41.700571" lon="-1.952668">
        <ele>1172.4</ele>
        <time>2023-02-11T11:11:51.000Z</time>
      </trkpt>
      <trkpt lat="41.700523" lon="-1.952583">
        <ele>1172.4</ele>
        <time>2023-02-11T11:11:52.000Z</time>
      </trkpt>
      <trkpt lat="41.700477" lon="-1.952497">
        <ele>1172.6</ele>
        <time>2023-02-11T11:11:53.000Z</time>
      </trkpt>
      <trkpt lat="41.700431" lon="-1.952411">
        <ele>1172.6</ele>
        <time>2023-02-11T11:11:54.000Z</time>
      </trkpt>
      <trkpt lat="41.700385" lon="-1.952327">
        <ele>1173</ele>
        <time>2023-02-11T11:11:55.000Z</time>
      </trkpt>
      <trkpt lat="41.700338" lon="-1.952244">
        <ele>1173.2</ele>
        <time>2023-02-11T11:11:56.000Z</time>
      </trkpt>
      <trkpt lat="41.700292" lon="-1.952161">
        <ele>1173.4</ele>
        <time>2023-02-11T11:11:57.000Z</time>
      </trkpt>
      <trkpt lat="41.700248" lon="-1.952078">
        <ele>1173.8</ele>
        <time>2023-02-11T11:11:58.000Z</time>
      </trkpt>
      <trkpt lat="41.700204" lon="-1.951998">
        <ele>1174.2</ele>
        <time>2023-02-11T11:11:59.000Z</time>
      </trkpt>
      <trkpt lat="41.70016" lon="-1.951919">
        <ele>1174.8</ele>
        <time>2023-02-11T11:12:00.000Z</time>
      </trkpt>
      <trkpt lat="41.700116" lon="-1.951839">
        <ele>1175</ele>
        <time>2023-02-11T11:12:01.000Z</time>
      </trkpt>
      <trkpt lat="41.700071" lon="-1.951761">
        <ele>1175.2</ele>
        <time>2023-02-11T11:12:02.000Z</time>
      </trkpt>
      <trkpt lat="41.700028" lon="-1.95168">
        <ele>1175.4</ele>
        <time>2023-02-11T11:12:03.000Z</time>
      </trkpt>
      <trkpt lat="41.699984" lon="-1.951598">
        <ele>1175.6</ele>
        <time>2023-02-11T11:12:04.000Z</time>
      </trkpt>
      <trkpt lat="41.699938" lon="-1.951517">
        <ele>1175.6</ele>
        <time>2023-02-11T11:12:05.000Z</time>
      </trkpt>
      <trkpt lat="41.699892" lon="-1.951435">
        <ele>1175.8</ele>
        <time>2023-02-11T11:12:06.000Z</time>
      </trkpt>
      <trkpt lat="41.699848" lon="-1.951354">
        <ele>1175.8</ele>
        <time>2023-02-11T11:12:07.000Z</time>
      </trkpt>
      <trkpt lat="41.699798" lon="-1.951269">
        <ele>1175.8</ele>
        <time>2023-02-11T11:12:08.000Z</time>
      </trkpt>
      <trkpt lat="41.699746" lon="-1.951185">
        <ele>1175.8</ele>
        <time>2023-02-11T11:12:09.000Z</time>
      </trkpt>
      <trkpt lat="41.699696" lon="-1.951099">
        <ele>1175.8</ele>
        <time>2023-02-11T11:12:10.000Z</time>
      </trkpt>
      <trkpt lat="41.699646" lon="-1.951013">
        <ele>1175.8</ele>
        <time>2023-02-11T11:12:11.000Z</time>
      </trkpt>
      <trkpt lat="41.699596" lon="-1.95093">
        <ele>1175.8</ele>
        <time>2023-02-11T11:12:12.000Z</time>
      </trkpt>
      <trkpt lat="41.699543" lon="-1.950841">
        <ele>1175.8</ele>
        <time>2023-02-11T11:12:13.000Z</time>
      </trkpt>
      <trkpt lat="41.699489" lon="-1.950752">
        <ele>1175.8</ele>
        <time>2023-02-11T11:12:14.000Z</time>
      </trkpt>
      <trkpt lat="41.699431" lon="-1.950662">
        <ele>1175.6</ele>
        <time>2023-02-11T11:12:15.000Z</time>
      </trkpt>
      <trkpt lat="41.699371" lon="-1.950572">
        <ele>1175.6</ele>
        <time>2023-02-11T11:12:16.000Z</time>
      </trkpt>
      <trkpt lat="41.699313" lon="-1.950481">
        <ele>1175.6</ele>
        <time>2023-02-11T11:12:17.000Z</time>
      </trkpt>
      <trkpt lat="41.699256" lon="-1.950389">
        <ele>1175.4</ele>
        <time>2023-02-11T11:12:18.000Z</time>
      </trkpt>
      <trkpt lat="41.699196" lon="-1.950297">
        <ele>1175.4</ele>
        <time>2023-02-11T11:12:19.000Z</time>
      </trkpt>
      <trkpt lat="41.699136" lon="-1.950206">
        <ele>1175.4</ele>
        <time>2023-02-11T11:12:20.000Z</time>
      </trkpt>
      <trkpt lat="41.699078" lon="-1.950112">
        <ele>1175.4</ele>
        <time>2023-02-11T11:12:21.000Z</time>
      </trkpt>
      <trkpt lat="41.699018" lon="-1.950018">
        <ele>1175.2</ele>
        <time>2023-02-11T11:12:22.000Z</time>
      </trkpt>
      <trkpt lat="41.698957" lon="-1.949925">
        <ele>1175.2</ele>
        <time>2023-02-11T11:12:23.000Z</time>
      </trkpt>
      <trkpt lat="41.698897" lon="-1.94983">
        <ele>1175</ele>
        <time>2023-02-11T11:12:24.000Z</time>
      </trkpt>
      <trkpt lat="41.698838" lon="-1.949734">
        <ele>1175</ele>
        <time>2023-02-11T11:12:25.000Z</time>
      </trkpt>
      <trkpt lat="41.698778" lon="-1.949637">
        <ele>1174.8</ele>
        <time>2023-02-11T11:12:26.000Z</time>
      </trkpt>
      <trkpt lat="41.698713" lon="-1.94954">
        <ele>1174.6</ele>
        <time>2023-02-11T11:12:27.000Z</time>
      </trkpt>
      <trkpt lat="41.698649" lon="-1.949442">
        <ele>1174.6</ele>
        <time>2023-02-11T11:12:28.000Z</time>
      </trkpt>
      <trkpt lat="41.698581" lon="-1.949338">
        <ele>1174.4</ele>
        <time>2023-02-11T11:12:29.000Z</time>
      </trkpt>
      <trkpt lat="41.698515" lon="-1.949238">
        <ele>1174.4</ele>
        <time>2023-02-11T11:12:30.000Z</time>
      </trkpt>
      <trkpt lat="41.698446" lon="-1.949132">
        <ele>1174.2</ele>
        <time>2023-02-11T11:12:31.000Z</time>
      </trkpt>
      <trkpt lat="41.698376" lon="-1.949022">
        <ele>1174</ele>
        <time>2023-02-11T11:12:32.000Z</time>
      </trkpt>
      <trkpt lat="41.698304" lon="-1.948909">
        <ele>1173.8</ele>
        <time>2023-02-11T11:12:33.000Z</time>
      </trkpt>
      <trkpt lat="41.698229" lon="-1.948793">
        <ele>1173.6</ele>
        <time>2023-02-11T11:12:34.000Z</time>
      </trkpt>
      <trkpt lat="41.698152" lon="-1.948676">
        <ele>1173</ele>
        <time>2023-02-11T11:12:35.000Z</time>
      </trkpt>
      <trkpt lat="41.698075" lon="-1.948561">
        <ele>1172.6</ele>
        <time>2023-02-11T11:12:36.000Z</time>
      </trkpt>
      <trkpt lat="41.697999" lon="-1.948442">
        <ele>1172.6</ele>
        <time>2023-02-11T11:12:37.000Z</time>
      </trkpt>
      <trkpt lat="41.697923" lon="-1.948321">
        <ele>1172.2</ele>
        <time>2023-02-11T11:12:38.000Z</time>
      </trkpt>
      <trkpt lat="41.697847" lon="-1.948201">
        <ele>1171.8</ele>
        <time>2023-02-11T11:12:39.000Z</time>
      </trkpt>
      <trkpt lat="41.697768" lon="-1.948081">
        <ele>1171</ele>
        <time>2023-02-11T11:12:40.000Z</time>
      </trkpt>
      <trkpt lat="41.69769" lon="-1.947959">
        <ele>1170.6</ele>
        <time>2023-02-11T11:12:41.000Z</time>
      </trkpt>
      <trkpt lat="41.697613" lon="-1.947838">
        <ele>1169.8</ele>
        <time>2023-02-11T11:12:42.000Z</time>
      </trkpt>
      <trkpt lat="41.697536" lon="-1.947718">
        <ele>1169.4</ele>
        <time>2023-02-11T11:12:43.000Z</time>
      </trkpt>
      <trkpt lat="41.697459" lon="-1.947599">
        <ele>1168.8</ele>
        <time>2023-02-11T11:12:44.000Z</time>
      </trkpt>
      <trkpt lat="41.697384" lon="-1.947479">
        <ele>1168.6</ele>
        <time>2023-02-11T11:12:45.000Z</time>
      </trkpt>
      <trkpt lat="41.697308" lon="-1.947365">
        <ele>1168.2</ele>
        <time>2023-02-11T11:12:46.000Z</time>
      </trkpt>
      <trkpt lat="41.697231" lon="-1.947248">
        <ele>1167.8</ele>
        <time>2023-02-11T11:12:47.000Z</time>
      </trkpt>
      <trkpt lat="41.697153" lon="-1.947126">
        <ele>1167.4</ele>
        <time>2023-02-11T11:12:48.000Z</time>
      </trkpt>
      <trkpt lat="41.697078" lon="-1.947003">
        <ele>1167</ele>
        <time>2023-02-11T11:12:49.000Z</time>
      </trkpt>
      <trkpt lat="41.697" lon="-1.946881">
        <ele>1166.8</ele>
        <time>2023-02-11T11:12:50.000Z</time>
      </trkpt>
      <trkpt lat="41.696922" lon="-1.946762">
        <ele>1166.4</ele>
        <time>2023-02-11T11:12:51.000Z</time>
      </trkpt>
      <trkpt lat="41.696846" lon="-1.946644">
        <ele>1166.2</ele>
        <time>2023-02-11T11:12:52.000Z</time>
      </trkpt>
      <trkpt lat="41.696771" lon="-1.946527">
        <ele>1165.6</ele>
        <time>2023-02-11T11:12:53.000Z</time>
      </trkpt>
      <trkpt lat="41.696696" lon="-1.946414">
        <ele>1165.4</ele>
        <time>2023-02-11T11:12:54.000Z</time>
      </trkpt>
      <trkpt lat="41.696618" lon="-1.946302">
        <ele>1165.2</ele>
        <time>2023-02-11T11:12:55.000Z</time>
      </trkpt>
      <trkpt lat="41.696544" lon="-1.946191">
        <ele>1165</ele>
        <time>2023-02-11T11:12:56.000Z</time>
      </trkpt>
      <trkpt lat="41.696469" lon="-1.946083">
        <ele>1165</ele>
        <time>2023-02-11T11:12:57.000Z</time>
      </trkpt>
      <trkpt lat="41.696395" lon="-1.945978">
        <ele>1165</ele>
        <time>2023-02-11T11:12:58.000Z</time>
      </trkpt>
      <trkpt lat="41.696325" lon="-1.945878">
        <ele>1165</ele>
        <time>2023-02-11T11:12:59.000Z</time>
      </trkpt>
      <trkpt lat="41.696254" lon="-1.945783">
        <ele>1165</ele>
        <time>2023-02-11T11:13:00.000Z</time>
      </trkpt>
      <trkpt lat="41.696184" lon="-1.945691">
        <ele>1165</ele>
        <time>2023-02-11T11:13:01.000Z</time>
      </trkpt>
      <trkpt lat="41.696115" lon="-1.9456">
        <ele>1165</ele>
        <time>2023-02-11T11:13:02.000Z</time>
      </trkpt>
      <trkpt lat="41.696043" lon="-1.945511">
        <ele>1165.2</ele>
        <time>2023-02-11T11:13:03.000Z</time>
      </trkpt>
      <trkpt lat="41.695971" lon="-1.945428">
        <ele>1165.2</ele>
        <time>2023-02-11T11:13:04.000Z</time>
      </trkpt>
      <trkpt lat="41.695901" lon="-1.945344">
        <ele>1165.2</ele>
        <time>2023-02-11T11:13:05.000Z</time>
      </trkpt>
      <trkpt lat="41.69583" lon="-1.945258">
        <ele>1165.4</ele>
        <time>2023-02-11T11:13:06.000Z</time>
      </trkpt>
      <trkpt lat="41.695758" lon="-1.945176">
        <ele>1165.4</ele>
        <time>2023-02-11T11:13:07.000Z</time>
      </trkpt>
      <trkpt lat="41.695686" lon="-1.945097">
        <ele>1165.6</ele>
        <time>2023-02-11T11:13:08.000Z</time>
      </trkpt>
      <trkpt lat="41.695615" lon="-1.94502">
        <ele>1165.8</ele>
        <time>2023-02-11T11:13:09.000Z</time>
      </trkpt>
      <trkpt lat="41.695544" lon="-1.944944">
        <ele>1165.8</ele>
        <time>2023-02-11T11:13:10.000Z</time>
      </trkpt>
      <trkpt lat="41.695472" lon="-1.944869">
        <ele>1166</ele>
        <time>2023-02-11T11:13:11.000Z</time>
      </trkpt>
      <trkpt lat="41.6954" lon="-1.944796">
        <ele>1166</ele>
        <time>2023-02-11T11:13:12.000Z</time>
      </trkpt>
      <trkpt lat="41.695329" lon="-1.94472">
        <ele>1166</ele>
        <time>2023-02-11T11:13:13.000Z</time>
      </trkpt>
      <trkpt lat="41.695263" lon="-1.944642">
        <ele>1166.2</ele>
        <time>2023-02-11T11:13:14.000Z</time>
      </trkpt>
      <trkpt lat="41.695197" lon="-1.944567">
        <ele>1166.4</ele>
        <time>2023-02-11T11:13:15.000Z</time>
      </trkpt>
      <trkpt lat="41.695126" lon="-1.944494">
        <ele>1166.4</ele>
        <time>2023-02-11T11:13:16.000Z</time>
      </trkpt>
      <trkpt lat="41.695056" lon="-1.944419">
        <ele>1166.4</ele>
        <time>2023-02-11T11:13:17.000Z</time>
      </trkpt>
      <trkpt lat="41.694986" lon="-1.944347">
        <ele>1166.6</ele>
        <time>2023-02-11T11:13:18.000Z</time>
      </trkpt>
      <trkpt lat="41.694915" lon="-1.944271">
        <ele>1166.6</ele>
        <time>2023-02-11T11:13:19.000Z</time>
      </trkpt>
      <trkpt lat="41.694845" lon="-1.944196">
        <ele>1166.6</ele>
        <time>2023-02-11T11:13:20.000Z</time>
      </trkpt>
      <trkpt lat="41.694777" lon="-1.944124">
        <ele>1166.6</ele>
        <time>2023-02-11T11:13:21.000Z</time>
      </trkpt>
      <trkpt lat="41.694709" lon="-1.944054">
        <ele>1166.8</ele>
        <time>2023-02-11T11:13:22.000Z</time>
      </trkpt>
      <trkpt lat="41.694637" lon="-1.943981">
        <ele>1166.8</ele>
        <time>2023-02-11T11:13:23.000Z</time>
      </trkpt>
      <trkpt lat="41.694567" lon="-1.943908">
        <ele>1167</ele>
        <time>2023-02-11T11:13:24.000Z</time>
      </trkpt>
      <trkpt lat="41.694497" lon="-1.943834">
        <ele>1167.2</ele>
        <time>2023-02-11T11:13:25.000Z</time>
      </trkpt>
      <trkpt lat="41.694426" lon="-1.943757">
        <ele>1167.2</ele>
        <time>2023-02-11T11:13:26.000Z</time>
      </trkpt>
      <trkpt lat="41.694354" lon="-1.943681">
        <ele>1167.4</ele>
        <time>2023-02-11T11:13:27.000Z</time>
      </trkpt>
      <trkpt lat="41.694284" lon="-1.943607">
        <ele>1167.4</ele>
        <time>2023-02-11T11:13:28.000Z</time>
      </trkpt>
      <trkpt lat="41.694213" lon="-1.943535">
        <ele>1167.4</ele>
        <time>2023-02-11T11:13:29.000Z</time>
      </trkpt>
      <trkpt lat="41.69414" lon="-1.943459">
        <ele>1167.4</ele>
        <time>2023-02-11T11:13:30.000Z</time>
      </trkpt>
      <trkpt lat="41.694068" lon="-1.943383">
        <ele>1167.6</ele>
        <time>2023-02-11T11:13:31.000Z</time>
      </trkpt>
      <trkpt lat="41.693998" lon="-1.943309">
        <ele>1167.4</ele>
        <time>2023-02-11T11:13:32.000Z</time>
      </trkpt>
      <trkpt lat="41.693927" lon="-1.943237">
        <ele>1167.4</ele>
        <time>2023-02-11T11:13:33.000Z</time>
      </trkpt>
      <trkpt lat="41.693855" lon="-1.943163">
        <ele>1167.4</ele>
        <time>2023-02-11T11:13:34.000Z</time>
      </trkpt>
      <trkpt lat="41.693785" lon="-1.943093">
        <ele>1167.4</ele>
        <time>2023-02-11T11:13:35.000Z</time>
      </trkpt>
      <trkpt lat="41.693711" lon="-1.943021">
        <ele>1167.4</ele>
        <time>2023-02-11T11:13:36.000Z</time>
      </trkpt>
      <trkpt lat="41.693638" lon="-1.942951">
        <ele>1167.4</ele>
        <time>2023-02-11T11:13:37.000Z</time>
      </trkpt>
      <trkpt lat="41.693564" lon="-1.942881">
        <ele>1167.4</ele>
        <time>2023-02-11T11:13:38.000Z</time>
      </trkpt>
      <trkpt lat="41.69349" lon="-1.94281">
        <ele>1167.4</ele>
        <time>2023-02-11T11:13:39.000Z</time>
      </trkpt>
      <trkpt lat="41.693415" lon="-1.94274">
        <ele>1167.4</ele>
        <time>2023-02-11T11:13:40.000Z</time>
      </trkpt>
      <trkpt lat="41.69334" lon="-1.942667">
        <ele>1167.4</ele>
        <time>2023-02-11T11:13:41.000Z</time>
      </trkpt>
      <trkpt lat="41.693265" lon="-1.942598">
        <ele>1167.6</ele>
        <time>2023-02-11T11:13:42.000Z</time>
      </trkpt>
      <trkpt lat="41.693187" lon="-1.942527">
        <ele>1167.8</ele>
        <time>2023-02-11T11:13:43.000Z</time>
      </trkpt>
      <trkpt lat="41.693104" lon="-1.942457">
        <ele>1167.8</ele>
        <time>2023-02-11T11:13:44.000Z</time>
      </trkpt>
      <trkpt lat="41.693025" lon="-1.942388">
        <ele>1167.6</ele>
        <time>2023-02-11T11:13:45.000Z</time>
      </trkpt>
      <trkpt lat="41.692946" lon="-1.942323">
        <ele>1167.8</ele>
        <time>2023-02-11T11:13:46.000Z</time>
      </trkpt>
      <trkpt lat="41.692867" lon="-1.942256">
        <ele>1167.8</ele>
        <time>2023-02-11T11:13:47.000Z</time>
      </trkpt>
      <trkpt lat="41.692784" lon="-1.942186">
        <ele>1167.6</ele>
        <time>2023-02-11T11:13:48.000Z</time>
      </trkpt>
      <trkpt lat="41.692695" lon="-1.942116">
        <ele>1167.4</ele>
        <time>2023-02-11T11:13:49.000Z</time>
      </trkpt>
      <trkpt lat="41.692607" lon="-1.942045">
        <ele>1167.4</ele>
        <time>2023-02-11T11:13:50.000Z</time>
      </trkpt>
      <trkpt lat="41.692521" lon="-1.941973">
        <ele>1167.2</ele>
        <time>2023-02-11T11:13:51.000Z</time>
      </trkpt>
      <trkpt lat="41.692435" lon="-1.941903">
        <ele>1167.2</ele>
        <time>2023-02-11T11:13:52.000Z</time>
      </trkpt>
      <trkpt lat="41.692348" lon="-1.941832">
        <ele>1167</ele>
        <time>2023-02-11T11:13:53.000Z</time>
      </trkpt>
      <trkpt lat="41.69226" lon="-1.941762">
        <ele>1167</ele>
        <time>2023-02-11T11:13:54.000Z</time>
      </trkpt>
      <trkpt lat="41.692172" lon="-1.941689">
        <ele>1166.8</ele>
        <time>2023-02-11T11:13:55.000Z</time>
      </trkpt>
      <trkpt lat="41.692082" lon="-1.941615">
        <ele>1166.4</ele>
        <time>2023-02-11T11:13:56.000Z</time>
      </trkpt>
      <trkpt lat="41.691991" lon="-1.94154">
        <ele>1166.2</ele>
        <time>2023-02-11T11:13:57.000Z</time>
      </trkpt>
      <trkpt lat="41.6919" lon="-1.941467">
        <ele>1165.8</ele>
        <time>2023-02-11T11:13:58.000Z</time>
      </trkpt>
      <trkpt lat="41.691808" lon="-1.941391">
        <ele>1166</ele>
        <time>2023-02-11T11:13:59.000Z</time>
      </trkpt>
      <trkpt lat="41.691707" lon="-1.941311">
        <ele>1165.6</ele>
        <time>2023-02-11T11:14:00.000Z</time>
      </trkpt>
      <trkpt lat="41.691613" lon="-1.941232">
        <ele>1165.6</ele>
        <time>2023-02-11T11:14:01.000Z</time>
      </trkpt>
      <trkpt lat="41.691521" lon="-1.941155">
        <ele>1165.2</ele>
        <time>2023-02-11T11:14:02.000Z</time>
      </trkpt>
      <trkpt lat="41.691426" lon="-1.941078">
        <ele>1165.2</ele>
        <time>2023-02-11T11:14:03.000Z</time>
      </trkpt>
      <trkpt lat="41.691331" lon="-1.940998">
        <ele>1165</ele>
        <time>2023-02-11T11:14:04.000Z</time>
      </trkpt>
      <trkpt lat="41.691237" lon="-1.94092">
        <ele>1164.4</ele>
        <time>2023-02-11T11:14:05.000Z</time>
      </trkpt>
      <trkpt lat="41.691142" lon="-1.940843">
        <ele>1164</ele>
        <time>2023-02-11T11:14:06.000Z</time>
      </trkpt>
      <trkpt lat="41.691046" lon="-1.940766">
        <ele>1163.6</ele>
        <time>2023-02-11T11:14:07.000Z</time>
      </trkpt>
      <trkpt lat="41.69095" lon="-1.940689">
        <ele>1163.6</ele>
        <time>2023-02-11T11:14:08.000Z</time>
      </trkpt>
      <trkpt lat="41.690852" lon="-1.940612">
        <ele>1163.2</ele>
        <time>2023-02-11T11:14:09.000Z</time>
      </trkpt>
      <trkpt lat="41.690756" lon="-1.940536">
        <ele>1163</ele>
        <time>2023-02-11T11:14:10.000Z</time>
      </trkpt>
      <trkpt lat="41.690661" lon="-1.940461">
        <ele>1162.6</ele>
        <time>2023-02-11T11:14:11.000Z</time>
      </trkpt>
      <trkpt lat="41.690567" lon="-1.940384">
        <ele>1162.4</ele>
        <time>2023-02-11T11:14:12.000Z</time>
      </trkpt>
      <trkpt lat="41.690472" lon="-1.940308">
        <ele>1161.6</ele>
        <time>2023-02-11T11:14:13.000Z</time>
      </trkpt>
      <trkpt lat="41.690374" lon="-1.940232">
        <ele>1161</ele>
        <time>2023-02-11T11:14:14.000Z</time>
      </trkpt>
      <trkpt lat="41.690278" lon="-1.940155">
        <ele>1160.8</ele>
        <time>2023-02-11T11:14:15.000Z</time>
      </trkpt>
      <trkpt lat="41.690183" lon="-1.940077">
        <ele>1160.4</ele>
        <time>2023-02-11T11:14:16.000Z</time>
      </trkpt>
      <trkpt lat="41.690089" lon="-1.940001">
        <ele>1160.2</ele>
        <time>2023-02-11T11:14:17.000Z</time>
      </trkpt>
      <trkpt lat="41.689993" lon="-1.939924">
        <ele>1159.6</ele>
        <time>2023-02-11T11:14:18.000Z</time>
      </trkpt>
      <trkpt lat="41.689898" lon="-1.939847">
        <ele>1159.4</ele>
        <time>2023-02-11T11:14:19.000Z</time>
      </trkpt>
      <trkpt lat="41.689803" lon="-1.939769">
        <ele>1159</ele>
        <time>2023-02-11T11:14:20.000Z</time>
      </trkpt>
      <trkpt lat="41.689707" lon="-1.939689">
        <ele>1159</ele>
        <time>2023-02-11T11:14:21.000Z</time>
      </trkpt>
      <trkpt lat="41.689611" lon="-1.93961">
        <ele>1158.6</ele>
        <time>2023-02-11T11:14:22.000Z</time>
      </trkpt>
      <trkpt lat="41.689514" lon="-1.93953">
        <ele>1158.4</ele>
        <time>2023-02-11T11:14:23.000Z</time>
      </trkpt>
      <trkpt lat="41.689418" lon="-1.939451">
        <ele>1157.8</ele>
        <time>2023-02-11T11:14:24.000Z</time>
      </trkpt>
      <trkpt lat="41.689319" lon="-1.93937">
        <ele>1157.6</ele>
        <time>2023-02-11T11:14:25.000Z</time>
      </trkpt>
      <trkpt lat="41.689221" lon="-1.939291">
        <ele>1157.4</ele>
        <time>2023-02-11T11:14:26.000Z</time>
      </trkpt>
      <trkpt lat="41.689122" lon="-1.93921">
        <ele>1156.8</ele>
        <time>2023-02-11T11:14:27.000Z</time>
      </trkpt>
      <trkpt lat="41.689023" lon="-1.939129">
        <ele>1156.6</ele>
        <time>2023-02-11T11:14:28.000Z</time>
      </trkpt>
      <trkpt lat="41.688921" lon="-1.939046">
        <ele>1156.2</ele>
        <time>2023-02-11T11:14:29.000Z</time>
      </trkpt>
      <trkpt lat="41.68882" lon="-1.938964">
        <ele>1156</ele>
        <time>2023-02-11T11:14:30.000Z</time>
      </trkpt>
      <trkpt lat="41.68872" lon="-1.938881">
        <ele>1155.6</ele>
        <time>2023-02-11T11:14:31.000Z</time>
      </trkpt>
      <trkpt lat="41.68862" lon="-1.938799">
        <ele>1155.4</ele>
        <time>2023-02-11T11:14:32.000Z</time>
      </trkpt>
      <trkpt lat="41.688519" lon="-1.938717">
        <ele>1154.6</ele>
        <time>2023-02-11T11:14:33.000Z</time>
      </trkpt>
      <trkpt lat="41.688417" lon="-1.938632">
        <ele>1154</ele>
        <time>2023-02-11T11:14:34.000Z</time>
      </trkpt>
      <trkpt lat="41.688316" lon="-1.93855">
        <ele>1153.8</ele>
        <time>2023-02-11T11:14:35.000Z</time>
      </trkpt>
      <trkpt lat="41.688214" lon="-1.938465">
        <ele>1153.4</ele>
        <time>2023-02-11T11:14:36.000Z</time>
      </trkpt>
      <trkpt lat="41.688112" lon="-1.938381">
        <ele>1153</ele>
        <time>2023-02-11T11:14:37.000Z</time>
      </trkpt>
      <trkpt lat="41.68801" lon="-1.938298">
        <ele>1152.4</ele>
        <time>2023-02-11T11:14:38.000Z</time>
      </trkpt>
      <trkpt lat="41.68791" lon="-1.938217">
        <ele>1152.2</ele>
        <time>2023-02-11T11:14:39.000Z</time>
      </trkpt>
      <trkpt lat="41.687806" lon="-1.938133">
        <ele>1151.8</ele>
        <time>2023-02-11T11:14:40.000Z</time>
      </trkpt>
      <trkpt lat="41.687704" lon="-1.938053">
        <ele>1151.4</ele>
        <time>2023-02-11T11:14:41.000Z</time>
      </trkpt>
      <trkpt lat="41.687605" lon="-1.937973">
        <ele>1150.6</ele>
        <time>2023-02-11T11:14:42.000Z</time>
      </trkpt>
      <trkpt lat="41.687504" lon="-1.937889">
        <ele>1150.4</ele>
        <time>2023-02-11T11:14:43.000Z</time>
      </trkpt>
      <trkpt lat="41.687403" lon="-1.937805">
        <ele>1149.8</ele>
        <time>2023-02-11T11:14:44.000Z</time>
      </trkpt>
      <trkpt lat="41.687304" lon="-1.937723">
        <ele>1149.4</ele>
        <time>2023-02-11T11:14:45.000Z</time>
      </trkpt>
      <trkpt lat="41.687206" lon="-1.937643">
        <ele>1149</ele>
        <time>2023-02-11T11:14:46.000Z</time>
      </trkpt>
      <trkpt lat="41.687109" lon="-1.937564">
        <ele>1148.4</ele>
        <time>2023-02-11T11:14:47.000Z</time>
      </trkpt>
      <trkpt lat="41.687012" lon="-1.937484">
        <ele>1148.4</ele>
        <time>2023-02-11T11:14:48.000Z</time>
      </trkpt>
      <trkpt lat="41.686917" lon="-1.937407">
        <ele>1148</ele>
        <time>2023-02-11T11:14:49.000Z</time>
      </trkpt>
      <trkpt lat="41.686824" lon="-1.937332">
        <ele>1148</ele>
        <time>2023-02-11T11:14:50.000Z</time>
      </trkpt>
      <trkpt lat="41.686734" lon="-1.937255">
        <ele>1147.8</ele>
        <time>2023-02-11T11:14:51.000Z</time>
      </trkpt>
      <trkpt lat="41.686646" lon="-1.937178">
        <ele>1147.8</ele>
        <time>2023-02-11T11:14:52.000Z</time>
      </trkpt>
      <trkpt lat="41.686562" lon="-1.937107">
        <ele>1147.6</ele>
        <time>2023-02-11T11:14:53.000Z</time>
      </trkpt>
      <trkpt lat="41.686481" lon="-1.93704">
        <ele>1147.6</ele>
        <time>2023-02-11T11:14:54.000Z</time>
      </trkpt>
      <trkpt lat="41.686402" lon="-1.936972">
        <ele>1147.6</ele>
        <time>2023-02-11T11:14:55.000Z</time>
      </trkpt>
      <trkpt lat="41.686326" lon="-1.936907">
        <ele>1147.6</ele>
        <time>2023-02-11T11:14:56.000Z</time>
      </trkpt>
      <trkpt lat="41.686251" lon="-1.936844">
        <ele>1147.6</ele>
        <time>2023-02-11T11:14:57.000Z</time>
      </trkpt>
      <trkpt lat="41.686176" lon="-1.93678">
        <ele>1148.2</ele>
        <time>2023-02-11T11:14:58.000Z</time>
      </trkpt>
      <trkpt lat="41.686103" lon="-1.936719">
        <ele>1148.4</ele>
        <time>2023-02-11T11:14:59.000Z</time>
      </trkpt>
      <trkpt lat="41.686032" lon="-1.936654">
        <ele>1148.8</ele>
        <time>2023-02-11T11:15:00.000Z</time>
      </trkpt>
      <trkpt lat="41.685964" lon="-1.936585">
        <ele>1149</ele>
        <time>2023-02-11T11:15:01.000Z</time>
      </trkpt>
      <trkpt lat="41.685896" lon="-1.936518">
        <ele>1149.4</ele>
        <time>2023-02-11T11:15:02.000Z</time>
      </trkpt>
      <trkpt lat="41.685829" lon="-1.936451">
        <ele>1149.8</ele>
        <time>2023-02-11T11:15:03.000Z</time>
      </trkpt>
      <trkpt lat="41.685762" lon="-1.936379">
        <ele>1150</ele>
        <time>2023-02-11T11:15:04.000Z</time>
      </trkpt>
      <trkpt lat="41.685695" lon="-1.936309">
        <ele>1150.8</ele>
        <time>2023-02-11T11:15:05.000Z</time>
      </trkpt>
      <trkpt lat="41.685629" lon="-1.936238">
        <ele>1151</ele>
        <time>2023-02-11T11:15:06.000Z</time>
      </trkpt>
      <trkpt lat="41.685567" lon="-1.936166">
        <ele>1151.6</ele>
        <time>2023-02-11T11:15:07.000Z</time>
      </trkpt>
      <trkpt lat="41.685511" lon="-1.936092">
        <ele>1151.6</ele>
        <time>2023-02-11T11:15:08.000Z</time>
      </trkpt>
      <trkpt lat="41.685455" lon="-1.936019">
        <ele>1152.2</ele>
        <time>2023-02-11T11:15:09.000Z</time>
      </trkpt>
      <trkpt lat="41.685398" lon="-1.935941">
        <ele>1152.4</ele>
        <time>2023-02-11T11:15:10.000Z</time>
      </trkpt>
      <trkpt lat="41.685337" lon="-1.93586">
        <ele>1153.4</ele>
        <time>2023-02-11T11:15:11.000Z</time>
      </trkpt>
      <trkpt lat="41.685279" lon="-1.935779">
        <ele>1154</ele>
        <time>2023-02-11T11:15:12.000Z</time>
      </trkpt>
      <trkpt lat="41.685223" lon="-1.9357">
        <ele>1154.6</ele>
        <time>2023-02-11T11:15:13.000Z</time>
      </trkpt>
      <trkpt lat="41.685165" lon="-1.935622">
        <ele>1155</ele>
        <time>2023-02-11T11:15:14.000Z</time>
      </trkpt>
      <trkpt lat="41.685108" lon="-1.935541">
        <ele>1155</ele>
        <time>2023-02-11T11:15:15.000Z</time>
      </trkpt>
      <trkpt lat="41.685054" lon="-1.935457">
        <ele>1155.4</ele>
        <time>2023-02-11T11:15:16.000Z</time>
      </trkpt>
      <trkpt lat="41.684998" lon="-1.935372">
        <ele>1155.6</ele>
        <time>2023-02-11T11:15:17.000Z</time>
      </trkpt>
      <trkpt lat="41.684939" lon="-1.935283">
        <ele>1155.8</ele>
        <time>2023-02-11T11:15:18.000Z</time>
      </trkpt>
      <trkpt lat="41.684877" lon="-1.935195">
        <ele>1156</ele>
        <time>2023-02-11T11:15:19.000Z</time>
      </trkpt>
      <trkpt lat="41.684817" lon="-1.935106">
        <ele>1156</ele>
        <time>2023-02-11T11:15:20.000Z</time>
      </trkpt>
      <trkpt lat="41.684755" lon="-1.935014">
        <ele>1156</ele>
        <time>2023-02-11T11:15:21.000Z</time>
      </trkpt>
      <trkpt lat="41.684692" lon="-1.93492">
        <ele>1156</ele>
        <time>2023-02-11T11:15:22.000Z</time>
      </trkpt>
      <trkpt lat="41.68463" lon="-1.934825">
        <ele>1156</ele>
        <time>2023-02-11T11:15:23.000Z</time>
      </trkpt>
      <trkpt lat="41.684568" lon="-1.934733">
        <ele>1155.8</ele>
        <time>2023-02-11T11:15:24.000Z</time>
      </trkpt>
      <trkpt lat="41.684503" lon="-1.934639">
        <ele>1155.8</ele>
        <time>2023-02-11T11:15:25.000Z</time>
      </trkpt>
      <trkpt lat="41.684441" lon="-1.934544">
        <ele>1155.8</ele>
        <time>2023-02-11T11:15:26.000Z</time>
      </trkpt>
      <trkpt lat="41.684377" lon="-1.934446">
        <ele>1155.6</ele>
        <time>2023-02-11T11:15:27.000Z</time>
      </trkpt>
      <trkpt lat="41.684313" lon="-1.934347">
        <ele>1155.4</ele>
        <time>2023-02-11T11:15:28.000Z</time>
      </trkpt>
      <trkpt lat="41.684251" lon="-1.934249">
        <ele>1155.4</ele>
        <time>2023-02-11T11:15:29.000Z</time>
      </trkpt>
      <trkpt lat="41.68419" lon="-1.934154">
        <ele>1155.2</ele>
        <time>2023-02-11T11:15:30.000Z</time>
      </trkpt>
      <trkpt lat="41.684126" lon="-1.934061">
        <ele>1155.2</ele>
        <time>2023-02-11T11:15:31.000Z</time>
      </trkpt>
      <trkpt lat="41.684063" lon="-1.933967">
        <ele>1155</ele>
        <time>2023-02-11T11:15:32.000Z</time>
      </trkpt>
      <trkpt lat="41.684002" lon="-1.93387">
        <ele>1155</ele>
        <time>2023-02-11T11:15:33.000Z</time>
      </trkpt>
      <trkpt lat="41.68394" lon="-1.933771">
        <ele>1154.8</ele>
        <time>2023-02-11T11:15:34.000Z</time>
      </trkpt>
      <trkpt lat="41.683878" lon="-1.933673">
        <ele>1154.8</ele>
        <time>2023-02-11T11:15:35.000Z</time>
      </trkpt>
      <trkpt lat="41.683813" lon="-1.933579">
        <ele>1154.6</ele>
        <time>2023-02-11T11:15:36.000Z</time>
      </trkpt>
      <trkpt lat="41.683746" lon="-1.933484">
        <ele>1154.6</ele>
        <time>2023-02-11T11:15:37.000Z</time>
      </trkpt>
      <trkpt lat="41.683679" lon="-1.933387">
        <ele>1154.6</ele>
        <time>2023-02-11T11:15:38.000Z</time>
      </trkpt>
      <trkpt lat="41.683612" lon="-1.933288">
        <ele>1154.4</ele>
        <time>2023-02-11T11:15:39.000Z</time>
      </trkpt>
      <trkpt lat="41.683543" lon="-1.933192">
        <ele>1154.2</ele>
        <time>2023-02-11T11:15:40.000Z</time>
      </trkpt>
      <trkpt lat="41.683471" lon="-1.933096">
        <ele>1154.2</ele>
        <time>2023-02-11T11:15:41.000Z</time>
      </trkpt>
      <trkpt lat="41.683402" lon="-1.932998">
        <ele>1154</ele>
        <time>2023-02-11T11:15:42.000Z</time>
      </trkpt>
      <trkpt lat="41.68333" lon="-1.932894">
        <ele>1153.8</ele>
        <time>2023-02-11T11:15:43.000Z</time>
      </trkpt>
      <trkpt lat="41.683258" lon="-1.932786">
        <ele>1153.6</ele>
        <time>2023-02-11T11:15:44.000Z</time>
      </trkpt>
      <trkpt lat="41.683184" lon="-1.932676">
        <ele>1153.4</ele>
        <time>2023-02-11T11:15:45.000Z</time>
      </trkpt>
      <trkpt lat="41.683111" lon="-1.932563">
        <ele>1153.2</ele>
        <time>2023-02-11T11:15:46.000Z</time>
      </trkpt>
      <trkpt lat="41.683037" lon="-1.932449">
        <ele>1152.8</ele>
        <time>2023-02-11T11:15:47.000Z</time>
      </trkpt>
      <trkpt lat="41.682962" lon="-1.932336">
        <ele>1152.4</ele>
        <time>2023-02-11T11:15:48.000Z</time>
      </trkpt>
      <trkpt lat="41.68289" lon="-1.932223">
        <ele>1151.8</ele>
        <time>2023-02-11T11:15:49.000Z</time>
      </trkpt>
      <trkpt lat="41.682823" lon="-1.932109">
        <ele>1151.4</ele>
        <time>2023-02-11T11:15:50.000Z</time>
      </trkpt>
      <trkpt lat="41.682759" lon="-1.931996">
        <ele>1151</ele>
        <time>2023-02-11T11:15:51.000Z</time>
      </trkpt>
      <trkpt lat="41.682698" lon="-1.931879">
        <ele>1150.4</ele>
        <time>2023-02-11T11:15:52.000Z</time>
      </trkpt>
      <trkpt lat="41.68264" lon="-1.931764">
        <ele>1150.2</ele>
        <time>2023-02-11T11:15:53.000Z</time>
      </trkpt>
      <trkpt lat="41.682584" lon="-1.931652">
        <ele>1149.8</ele>
        <time>2023-02-11T11:15:54.000Z</time>
      </trkpt>
      <trkpt lat="41.682532" lon="-1.931539">
        <ele>1149.6</ele>
        <time>2023-02-11T11:15:55.000Z</time>
      </trkpt>
      <trkpt lat="41.682481" lon="-1.931428">
        <ele>1149.4</ele>
        <time>2023-02-11T11:15:56.000Z</time>
      </trkpt>
      <trkpt lat="41.682431" lon="-1.931314">
        <ele>1149.4</ele>
        <time>2023-02-11T11:15:57.000Z</time>
      </trkpt>
      <trkpt lat="41.682383" lon="-1.9312">
        <ele>1149.2</ele>
        <time>2023-02-11T11:15:58.000Z</time>
      </trkpt>
      <trkpt lat="41.682338" lon="-1.931087">
        <ele>1149.2</ele>
        <time>2023-02-11T11:15:59.000Z</time>
      </trkpt>
      <trkpt lat="41.6823" lon="-1.930977">
        <ele>1149</ele>
        <time>2023-02-11T11:16:00.000Z</time>
      </trkpt>
      <trkpt lat="41.682266" lon="-1.930872">
        <ele>1149</ele>
        <time>2023-02-11T11:16:01.000Z</time>
      </trkpt>
      <trkpt lat="41.682233" lon="-1.93077">
        <ele>1149</ele>
        <time>2023-02-11T11:16:02.000Z</time>
      </trkpt>
      <trkpt lat="41.682202" lon="-1.930669">
        <ele>1149.2</ele>
        <time>2023-02-11T11:16:03.000Z</time>
      </trkpt>
      <trkpt lat="41.682174" lon="-1.930568">
        <ele>1149.4</ele>
        <time>2023-02-11T11:16:04.000Z</time>
      </trkpt>
      <trkpt lat="41.682148" lon="-1.930472">
        <ele>1149.6</ele>
        <time>2023-02-11T11:16:05.000Z</time>
      </trkpt>
      <trkpt lat="41.682125" lon="-1.930379">
        <ele>1149.8</ele>
        <time>2023-02-11T11:16:06.000Z</time>
      </trkpt>
      <trkpt lat="41.682102" lon="-1.930291">
        <ele>1150.2</ele>
        <time>2023-02-11T11:16:07.000Z</time>
      </trkpt>
      <trkpt lat="41.68208" lon="-1.930203">
        <ele>1150.4</ele>
        <time>2023-02-11T11:16:08.000Z</time>
      </trkpt>
      <trkpt lat="41.682062" lon="-1.930118">
        <ele>1151</ele>
        <time>2023-02-11T11:16:09.000Z</time>
      </trkpt>
      <trkpt lat="41.682046" lon="-1.930037">
        <ele>1151.2</ele>
        <time>2023-02-11T11:16:10.000Z</time>
      </trkpt>
      <trkpt lat="41.682029" lon="-1.929961">
        <ele>1151.6</ele>
        <time>2023-02-11T11:16:11.000Z</time>
      </trkpt>
      <trkpt lat="41.682011" lon="-1.929883">
        <ele>1152.4</ele>
        <time>2023-02-11T11:16:12.000Z</time>
      </trkpt>
      <trkpt lat="41.681996" lon="-1.929807">
        <ele>1152.6</ele>
        <time>2023-02-11T11:16:13.000Z</time>
      </trkpt>
      <trkpt lat="41.681978" lon="-1.929731">
        <ele>1153</ele>
        <time>2023-02-11T11:16:14.000Z</time>
      </trkpt>
      <trkpt lat="41.681965" lon="-1.929655">
        <ele>1153.4</ele>
        <time>2023-02-11T11:16:15.000Z</time>
      </trkpt>
      <trkpt lat="41.681953" lon="-1.92958">
        <ele>1153.6</ele>
        <time>2023-02-11T11:16:16.000Z</time>
      </trkpt>
      <trkpt lat="41.681938" lon="-1.929509">
        <ele>1153.8</ele>
        <time>2023-02-11T11:16:17.000Z</time>
      </trkpt>
      <trkpt lat="41.681926" lon="-1.929438">
        <ele>1154.2</ele>
        <time>2023-02-11T11:16:18.000Z</time>
      </trkpt>
      <trkpt lat="41.681914" lon="-1.929368">
        <ele>1154.6</ele>
        <time>2023-02-11T11:16:19.000Z</time>
      </trkpt>
      <trkpt lat="41.681901" lon="-1.929296">
        <ele>1155</ele>
        <time>2023-02-11T11:16:20.000Z</time>
      </trkpt>
      <trkpt lat="41.681884" lon="-1.929224">
        <ele>1155.4</ele>
        <time>2023-02-11T11:16:21.000Z</time>
      </trkpt>
      <trkpt lat="41.681865" lon="-1.929153">
        <ele>1155.8</ele>
        <time>2023-02-11T11:16:22.000Z</time>
      </trkpt>
      <trkpt lat="41.681851" lon="-1.92908">
        <ele>1156.2</ele>
        <time>2023-02-11T11:16:23.000Z</time>
      </trkpt>
      <trkpt lat="41.681836" lon="-1.929008">
        <ele>1156.4</ele>
        <time>2023-02-11T11:16:24.000Z</time>
      </trkpt>
      <trkpt lat="41.681821" lon="-1.928938">
        <ele>1157</ele>
        <time>2023-02-11T11:16:25.000Z</time>
      </trkpt>
      <trkpt lat="41.681813" lon="-1.928865">
        <ele>1157.2</ele>
        <time>2023-02-11T11:16:26.000Z</time>
      </trkpt>
      <trkpt lat="41.681801" lon="-1.928797">
        <ele>1157.8</ele>
        <time>2023-02-11T11:16:27.000Z</time>
      </trkpt>
      <trkpt lat="41.681788" lon="-1.928729">
        <ele>1157.8</ele>
        <time>2023-02-11T11:16:28.000Z</time>
      </trkpt>
      <trkpt lat="41.681774" lon="-1.928659">
        <ele>1158</ele>
        <time>2023-02-11T11:16:29.000Z</time>
      </trkpt>
      <trkpt lat="41.681758" lon="-1.928591">
        <ele>1158.4</ele>
        <time>2023-02-11T11:16:30.000Z</time>
      </trkpt>
      <trkpt lat="41.681743" lon="-1.928522">
        <ele>1158.8</ele>
        <time>2023-02-11T11:16:31.000Z</time>
      </trkpt>
      <trkpt lat="41.681727" lon="-1.928451">
        <ele>1159.2</ele>
        <time>2023-02-11T11:16:32.000Z</time>
      </trkpt>
      <trkpt lat="41.681711" lon="-1.92838">
        <ele>1159.2</ele>
        <time>2023-02-11T11:16:33.000Z</time>
      </trkpt>
      <trkpt lat="41.681693" lon="-1.928308">
        <ele>1159.6</ele>
        <time>2023-02-11T11:16:34.000Z</time>
      </trkpt>
      <trkpt lat="41.681681" lon="-1.928239">
        <ele>1159.6</ele>
        <time>2023-02-11T11:16:35.000Z</time>
      </trkpt>
      <trkpt lat="41.681667" lon="-1.928169">
        <ele>1160</ele>
        <time>2023-02-11T11:16:36.000Z</time>
      </trkpt>
      <trkpt lat="41.681653" lon="-1.928096">
        <ele>1160.2</ele>
        <time>2023-02-11T11:16:37.000Z</time>
      </trkpt>
      <trkpt lat="41.681637" lon="-1.928024">
        <ele>1160.8</ele>
        <time>2023-02-11T11:16:38.000Z</time>
      </trkpt>
      <trkpt lat="41.681623" lon="-1.927951">
        <ele>1161</ele>
        <time>2023-02-11T11:16:39.000Z</time>
      </trkpt>
      <trkpt lat="41.681608" lon="-1.927877">
        <ele>1161.6</ele>
        <time>2023-02-11T11:16:40.000Z</time>
      </trkpt>
      <trkpt lat="41.681594" lon="-1.927802">
        <ele>1162</ele>
        <time>2023-02-11T11:16:41.000Z</time>
      </trkpt>
      <trkpt lat="41.681578" lon="-1.927729">
        <ele>1162.2</ele>
        <time>2023-02-11T11:16:42.000Z</time>
      </trkpt>
      <trkpt lat="41.681559" lon="-1.927656">
        <ele>1162.4</ele>
        <time>2023-02-11T11:16:43.000Z</time>
      </trkpt>
      <trkpt lat="41.681543" lon="-1.927581">
        <ele>1162.4</ele>
        <time>2023-02-11T11:16:44.000Z</time>
      </trkpt>
      <trkpt lat="41.681527" lon="-1.927508">
        <ele>1163</ele>
        <time>2023-02-11T11:16:45.000Z</time>
      </trkpt>
      <trkpt lat="41.681514" lon="-1.927432">
        <ele>1163.2</ele>
        <time>2023-02-11T11:16:46.000Z</time>
      </trkpt>
      <trkpt lat="41.6815" lon="-1.927361">
        <ele>1163.6</ele>
        <time>2023-02-11T11:16:47.000Z</time>
      </trkpt>
      <trkpt lat="41.681486" lon="-1.927293">
        <ele>1163.8</ele>
        <time>2023-02-11T11:16:48.000Z</time>
      </trkpt>
      <trkpt lat="41.681472" lon="-1.927225">
        <ele>1164.2</ele>
        <time>2023-02-11T11:16:49.000Z</time>
      </trkpt>
      <trkpt lat="41.681459" lon="-1.927156">
        <ele>1164.2</ele>
        <time>2023-02-11T11:16:50.000Z</time>
      </trkpt>
      <trkpt lat="41.681444" lon="-1.927084">
        <ele>1164.6</ele>
        <time>2023-02-11T11:16:51.000Z</time>
      </trkpt>
      <trkpt lat="41.68143" lon="-1.927011">
        <ele>1164.8</ele>
        <time>2023-02-11T11:16:52.000Z</time>
      </trkpt>
      <trkpt lat="41.681415" lon="-1.926939">
        <ele>1165</ele>
        <time>2023-02-11T11:16:53.000Z</time>
      </trkpt>
      <trkpt lat="41.681398" lon="-1.926868">
        <ele>1165.4</ele>
        <time>2023-02-11T11:16:54.000Z</time>
      </trkpt>
      <trkpt lat="41.681382" lon="-1.926797">
        <ele>1165.4</ele>
        <time>2023-02-11T11:16:55.000Z</time>
      </trkpt>
      <trkpt lat="41.681365" lon="-1.926725">
        <ele>1165.8</ele>
        <time>2023-02-11T11:16:56.000Z</time>
      </trkpt>
      <trkpt lat="41.681347" lon="-1.92665">
        <ele>1166</ele>
        <time>2023-02-11T11:16:57.000Z</time>
      </trkpt>
      <trkpt lat="41.681329" lon="-1.926577">
        <ele>1166.4</ele>
        <time>2023-02-11T11:16:58.000Z</time>
      </trkpt>
      <trkpt lat="41.681314" lon="-1.926501">
        <ele>1166.4</ele>
        <time>2023-02-11T11:16:59.000Z</time>
      </trkpt>
      <trkpt lat="41.681302" lon="-1.92642">
        <ele>1166.8</ele>
        <time>2023-02-11T11:17:00.000Z</time>
      </trkpt>
      <trkpt lat="41.681286" lon="-1.926345">
        <ele>1166.8</ele>
        <time>2023-02-11T11:17:01.000Z</time>
      </trkpt>
      <trkpt lat="41.681264" lon="-1.926266">
        <ele>1167.2</ele>
        <time>2023-02-11T11:17:02.000Z</time>
      </trkpt>
      <trkpt lat="41.681248" lon="-1.926188">
        <ele>1167.6</ele>
        <time>2023-02-11T11:17:03.000Z</time>
      </trkpt>
      <trkpt lat="41.681234" lon="-1.926109">
        <ele>1167.6</ele>
        <time>2023-02-11T11:17:04.000Z</time>
      </trkpt>
      <trkpt lat="41.68122" lon="-1.926027">
        <ele>1168</ele>
        <time>2023-02-11T11:17:05.000Z</time>
      </trkpt>
      <trkpt lat="41.681207" lon="-1.925944">
        <ele>1168.2</ele>
        <time>2023-02-11T11:17:06.000Z</time>
      </trkpt>
      <trkpt lat="41.681195" lon="-1.925858">
        <ele>1168.6</ele>
        <time>2023-02-11T11:17:07.000Z</time>
      </trkpt>
      <trkpt lat="41.681182" lon="-1.925771">
        <ele>1168.6</ele>
        <time>2023-02-11T11:17:08.000Z</time>
      </trkpt>
      <trkpt lat="41.681168" lon="-1.925685">
        <ele>1168.8</ele>
        <time>2023-02-11T11:17:09.000Z</time>
      </trkpt>
      <trkpt lat="41.681156" lon="-1.925599">
        <ele>1169</ele>
        <time>2023-02-11T11:17:10.000Z</time>
      </trkpt>
      <trkpt lat="41.681145" lon="-1.925512">
        <ele>1169.2</ele>
        <time>2023-02-11T11:17:11.000Z</time>
      </trkpt>
      <trkpt lat="41.681134" lon="-1.925426">
        <ele>1169.4</ele>
        <time>2023-02-11T11:17:12.000Z</time>
      </trkpt>
      <trkpt lat="41.681124" lon="-1.925341">
        <ele>1169.6</ele>
        <time>2023-02-11T11:17:13.000Z</time>
      </trkpt>
      <trkpt lat="41.681113" lon="-1.925256">
        <ele>1169.8</ele>
        <time>2023-02-11T11:17:14.000Z</time>
      </trkpt>
      <trkpt lat="41.681103" lon="-1.925171">
        <ele>1170</ele>
        <time>2023-02-11T11:17:15.000Z</time>
      </trkpt>
      <trkpt lat="41.681093" lon="-1.925085">
        <ele>1170.4</ele>
        <time>2023-02-11T11:17:16.000Z</time>
      </trkpt>
      <trkpt lat="41.681083" lon="-1.925">
        <ele>1170.6</ele>
        <time>2023-02-11T11:17:17.000Z</time>
      </trkpt>
      <trkpt lat="41.681074" lon="-1.924915">
        <ele>1171</ele>
        <time>2023-02-11T11:17:18.000Z</time>
      </trkpt>
      <trkpt lat="41.681065" lon="-1.92483">
        <ele>1171.2</ele>
        <time>2023-02-11T11:17:19.000Z</time>
      </trkpt>
      <trkpt lat="41.681056" lon="-1.924745">
        <ele>1171.6</ele>
        <time>2023-02-11T11:17:20.000Z</time>
      </trkpt>
      <trkpt lat="41.681048" lon="-1.924662">
        <ele>1171.8</ele>
        <time>2023-02-11T11:17:21.000Z</time>
      </trkpt>
      <trkpt lat="41.681039" lon="-1.924578">
        <ele>1171.8</ele>
        <time>2023-02-11T11:17:22.000Z</time>
      </trkpt>
      <trkpt lat="41.681031" lon="-1.924493">
        <ele>1172</ele>
        <time>2023-02-11T11:17:23.000Z</time>
      </trkpt>
      <trkpt lat="41.681024" lon="-1.924406">
        <ele>1172.2</ele>
        <time>2023-02-11T11:17:24.000Z</time>
      </trkpt>
      <trkpt lat="41.681017" lon="-1.924319">
        <ele>1172.4</ele>
        <time>2023-02-11T11:17:25.000Z</time>
      </trkpt>
      <trkpt lat="41.68101" lon="-1.924233">
        <ele>1172.4</ele>
        <time>2023-02-11T11:17:26.000Z</time>
      </trkpt>
      <trkpt lat="41.681" lon="-1.924147">
        <ele>1173.2</ele>
        <time>2023-02-11T11:17:27.000Z</time>
      </trkpt>
      <trkpt lat="41.680987" lon="-1.924059">
        <ele>1173.4</ele>
        <time>2023-02-11T11:17:28.000Z</time>
      </trkpt>
      <trkpt lat="41.680973" lon="-1.923969">
        <ele>1173.8</ele>
        <time>2023-02-11T11:17:29.000Z</time>
      </trkpt>
      <trkpt lat="41.680963" lon="-1.923878">
        <ele>1174</ele>
        <time>2023-02-11T11:17:30.000Z</time>
      </trkpt>
      <trkpt lat="41.680952" lon="-1.923789">
        <ele>1174</ele>
        <time>2023-02-11T11:17:31.000Z</time>
      </trkpt>
      <trkpt lat="41.680941" lon="-1.923697">
        <ele>1174.2</ele>
        <time>2023-02-11T11:17:32.000Z</time>
      </trkpt>
      <trkpt lat="41.68093" lon="-1.923604">
        <ele>1174.2</ele>
        <time>2023-02-11T11:17:33.000Z</time>
      </trkpt>
      <trkpt lat="41.680919" lon="-1.923511">
        <ele>1174.4</ele>
        <time>2023-02-11T11:17:34.000Z</time>
      </trkpt>
      <trkpt lat="41.680907" lon="-1.923419">
        <ele>1174.4</ele>
        <time>2023-02-11T11:17:35.000Z</time>
      </trkpt>
      <trkpt lat="41.680897" lon="-1.923327">
        <ele>1174.4</ele>
        <time>2023-02-11T11:17:36.000Z</time>
      </trkpt>
      <trkpt lat="41.680888" lon="-1.923234">
        <ele>1174.4</ele>
        <time>2023-02-11T11:17:37.000Z</time>
      </trkpt>
      <trkpt lat="41.680877" lon="-1.923144">
        <ele>1174.6</ele>
        <time>2023-02-11T11:17:38.000Z</time>
      </trkpt>
      <trkpt lat="41.680867" lon="-1.923054">
        <ele>1174.6</ele>
        <time>2023-02-11T11:17:39.000Z</time>
      </trkpt>
      <trkpt lat="41.680858" lon="-1.922966">
        <ele>1174.6</ele>
        <time>2023-02-11T11:17:40.000Z</time>
      </trkpt>
      <trkpt lat="41.68085" lon="-1.922877">
        <ele>1174.8</ele>
        <time>2023-02-11T11:17:41.000Z</time>
      </trkpt>
      <trkpt lat="41.680839" lon="-1.922789">
        <ele>1174.8</ele>
        <time>2023-02-11T11:17:42.000Z</time>
      </trkpt>
      <trkpt lat="41.680828" lon="-1.9227">
        <ele>1175.2</ele>
        <time>2023-02-11T11:17:43.000Z</time>
      </trkpt>
      <trkpt lat="41.680816" lon="-1.922612">
        <ele>1175.2</ele>
        <time>2023-02-11T11:17:44.000Z</time>
      </trkpt>
      <trkpt lat="41.680805" lon="-1.922523">
        <ele>1175.6</ele>
        <time>2023-02-11T11:17:45.000Z</time>
      </trkpt>
      <trkpt lat="41.680794" lon="-1.922433">
        <ele>1175.8</ele>
        <time>2023-02-11T11:17:46.000Z</time>
      </trkpt>
      <trkpt lat="41.680784" lon="-1.922343">
        <ele>1176</ele>
        <time>2023-02-11T11:17:47.000Z</time>
      </trkpt>
      <trkpt lat="41.680776" lon="-1.922255">
        <ele>1176</ele>
        <time>2023-02-11T11:17:48.000Z</time>
      </trkpt>
      <trkpt lat="41.680768" lon="-1.922168">
        <ele>1176.2</ele>
        <time>2023-02-11T11:17:49.000Z</time>
      </trkpt>
      <trkpt lat="41.68076" lon="-1.922078">
        <ele>1176.2</ele>
        <time>2023-02-11T11:17:50.000Z</time>
      </trkpt>
      <trkpt lat="41.680751" lon="-1.921988">
        <ele>1176.6</ele>
        <time>2023-02-11T11:17:51.000Z</time>
      </trkpt>
      <trkpt lat="41.680741" lon="-1.921901">
        <ele>1176.8</ele>
        <time>2023-02-11T11:17:52.000Z</time>
      </trkpt>
      <trkpt lat="41.680733" lon="-1.921813">
        <ele>1176.8</ele>
        <time>2023-02-11T11:17:53.000Z</time>
      </trkpt>
      <trkpt lat="41.680723" lon="-1.92172">
        <ele>1177</ele>
        <time>2023-02-11T11:17:54.000Z</time>
      </trkpt>
      <trkpt lat="41.680711" lon="-1.921627">
        <ele>1177</ele>
        <time>2023-02-11T11:17:55.000Z</time>
      </trkpt>
      <trkpt lat="41.6807" lon="-1.921533">
        <ele>1177.2</ele>
        <time>2023-02-11T11:17:56.000Z</time>
      </trkpt>
      <trkpt lat="41.68069" lon="-1.92144">
        <ele>1177.2</ele>
        <time>2023-02-11T11:17:57.000Z</time>
      </trkpt>
      <trkpt lat="41.68068" lon="-1.921345">
        <ele>1177.2</ele>
        <time>2023-02-11T11:17:58.000Z</time>
      </trkpt>
      <trkpt lat="41.680673" lon="-1.92125">
        <ele>1177.4</ele>
        <time>2023-02-11T11:17:59.000Z</time>
      </trkpt>
      <trkpt lat="41.680666" lon="-1.921157">
        <ele>1177.4</ele>
        <time>2023-02-11T11:18:00.000Z</time>
      </trkpt>
      <trkpt lat="41.680657" lon="-1.921062">
        <ele>1177.8</ele>
        <time>2023-02-11T11:18:01.000Z</time>
      </trkpt>
      <trkpt lat="41.680646" lon="-1.92097">
        <ele>1177.8</ele>
        <time>2023-02-11T11:18:02.000Z</time>
      </trkpt>
      <trkpt lat="41.680631" lon="-1.920882">
        <ele>1178</ele>
        <time>2023-02-11T11:18:03.000Z</time>
      </trkpt>
      <trkpt lat="41.680622" lon="-1.920787">
        <ele>1178</ele>
        <time>2023-02-11T11:18:04.000Z</time>
      </trkpt>
      <trkpt lat="41.680612" lon="-1.920691">
        <ele>1178.2</ele>
        <time>2023-02-11T11:18:05.000Z</time>
      </trkpt>
      <trkpt lat="41.680603" lon="-1.920594">
        <ele>1178.2</ele>
        <time>2023-02-11T11:18:06.000Z</time>
      </trkpt>
      <trkpt lat="41.680594" lon="-1.920497">
        <ele>1178.4</ele>
        <time>2023-02-11T11:18:07.000Z</time>
      </trkpt>
      <trkpt lat="41.680583" lon="-1.920399">
        <ele>1178.4</ele>
        <time>2023-02-11T11:18:08.000Z</time>
      </trkpt>
      <trkpt lat="41.680569" lon="-1.920301">
        <ele>1178.4</ele>
        <time>2023-02-11T11:18:09.000Z</time>
      </trkpt>
      <trkpt lat="41.680555" lon="-1.9202">
        <ele>1178.4</ele>
        <time>2023-02-11T11:18:10.000Z</time>
      </trkpt>
      <trkpt lat="41.680544" lon="-1.9201">
        <ele>1178.6</ele>
        <time>2023-02-11T11:18:11.000Z</time>
      </trkpt>
      <trkpt lat="41.680536" lon="-1.92">
        <ele>1178.8</ele>
        <time>2023-02-11T11:18:12.000Z</time>
      </trkpt>
      <trkpt lat="41.680525" lon="-1.919899">
        <ele>1178.8</ele>
        <time>2023-02-11T11:18:13.000Z</time>
      </trkpt>
      <trkpt lat="41.680513" lon="-1.919799">
        <ele>1179</ele>
        <time>2023-02-11T11:18:14.000Z</time>
      </trkpt>
      <trkpt lat="41.680501" lon="-1.919698">
        <ele>1179</ele>
        <time>2023-02-11T11:18:15.000Z</time>
      </trkpt>
      <trkpt lat="41.680489" lon="-1.919595">
        <ele>1179</ele>
        <time>2023-02-11T11:18:16.000Z</time>
      </trkpt>
      <trkpt lat="41.680477" lon="-1.919492">
        <ele>1179</ele>
        <time>2023-02-11T11:18:17.000Z</time>
      </trkpt>
      <trkpt lat="41.680464" lon="-1.919387">
        <ele>1179.2</ele>
        <time>2023-02-11T11:18:18.000Z</time>
      </trkpt>
      <trkpt lat="41.68045" lon="-1.919282">
        <ele>1179.2</ele>
        <time>2023-02-11T11:18:19.000Z</time>
      </trkpt>
      <trkpt lat="41.680439" lon="-1.91918">
        <ele>1179.2</ele>
        <time>2023-02-11T11:18:20.000Z</time>
      </trkpt>
      <trkpt lat="41.680428" lon="-1.919078">
        <ele>1179.4</ele>
        <time>2023-02-11T11:18:21.000Z</time>
      </trkpt>
      <trkpt lat="41.680416" lon="-1.918978">
        <ele>1179.4</ele>
        <time>2023-02-11T11:18:22.000Z</time>
      </trkpt>
      <trkpt lat="41.680405" lon="-1.918877">
        <ele>1179.6</ele>
        <time>2023-02-11T11:18:23.000Z</time>
      </trkpt>
      <trkpt lat="41.680391" lon="-1.918775">
        <ele>1179.8</ele>
        <time>2023-02-11T11:18:24.000Z</time>
      </trkpt>
      <trkpt lat="41.680379" lon="-1.918673">
        <ele>1180</ele>
        <time>2023-02-11T11:18:25.000Z</time>
      </trkpt>
      <trkpt lat="41.680369" lon="-1.918568">
        <ele>1180</ele>
        <time>2023-02-11T11:18:26.000Z</time>
      </trkpt>
      <trkpt lat="41.68036" lon="-1.918465">
        <ele>1180.2</ele>
        <time>2023-02-11T11:18:27.000Z</time>
      </trkpt>
      <trkpt lat="41.68035" lon="-1.918364">
        <ele>1180.4</ele>
        <time>2023-02-11T11:18:28.000Z</time>
      </trkpt>
      <trkpt lat="41.68034" lon="-1.918264">
        <ele>1180.6</ele>
        <time>2023-02-11T11:18:29.000Z</time>
      </trkpt>
      <trkpt lat="41.680329" lon="-1.918165">
        <ele>1180.6</ele>
        <time>2023-02-11T11:18:30.000Z</time>
      </trkpt>
      <trkpt lat="41.680318" lon="-1.918065">
        <ele>1180.6</ele>
        <time>2023-02-11T11:18:31.000Z</time>
      </trkpt>
      <trkpt lat="41.680307" lon="-1.917965">
        <ele>1180.8</ele>
        <time>2023-02-11T11:18:32.000Z</time>
      </trkpt>
      <trkpt lat="41.680294" lon="-1.917866">
        <ele>1180.8</ele>
        <time>2023-02-11T11:18:33.000Z</time>
      </trkpt>
      <trkpt lat="41.680283" lon="-1.917765">
        <ele>1181</ele>
        <time>2023-02-11T11:18:34.000Z</time>
      </trkpt>
      <trkpt lat="41.680271" lon="-1.917664">
        <ele>1181</ele>
        <time>2023-02-11T11:18:35.000Z</time>
      </trkpt>
      <trkpt lat="41.68026" lon="-1.917562">
        <ele>1181.2</ele>
        <time>2023-02-11T11:18:36.000Z</time>
      </trkpt>
      <trkpt lat="41.68025" lon="-1.91746">
        <ele>1181.4</ele>
        <time>2023-02-11T11:18:37.000Z</time>
      </trkpt>
      <trkpt lat="41.680241" lon="-1.917359">
        <ele>1181.4</ele>
        <time>2023-02-11T11:18:38.000Z</time>
      </trkpt>
      <trkpt lat="41.680231" lon="-1.917258">
        <ele>1181.6</ele>
        <time>2023-02-11T11:18:39.000Z</time>
      </trkpt>
      <trkpt lat="41.680219" lon="-1.917158">
        <ele>1182</ele>
        <time>2023-02-11T11:18:40.000Z</time>
      </trkpt>
      <trkpt lat="41.680207" lon="-1.917057">
        <ele>1182.2</ele>
        <time>2023-02-11T11:18:41.000Z</time>
      </trkpt>
      <trkpt lat="41.680195" lon="-1.916955">
        <ele>1182.4</ele>
        <time>2023-02-11T11:18:42.000Z</time>
      </trkpt>
      <trkpt lat="41.680184" lon="-1.916853">
        <ele>1182.6</ele>
        <time>2023-02-11T11:18:43.000Z</time>
      </trkpt>
      <trkpt lat="41.680172" lon="-1.916754">
        <ele>1182.8</ele>
        <time>2023-02-11T11:18:44.000Z</time>
      </trkpt>
      <trkpt lat="41.680161" lon="-1.916654">
        <ele>1183.2</ele>
        <time>2023-02-11T11:18:45.000Z</time>
      </trkpt>
      <trkpt lat="41.68015" lon="-1.916554">
        <ele>1183.2</ele>
        <time>2023-02-11T11:18:46.000Z</time>
      </trkpt>
      <trkpt lat="41.680139" lon="-1.916455">
        <ele>1183.4</ele>
        <time>2023-02-11T11:18:47.000Z</time>
      </trkpt>
      <trkpt lat="41.680128" lon="-1.916357">
        <ele>1183.6</ele>
        <time>2023-02-11T11:18:48.000Z</time>
      </trkpt>
      <trkpt lat="41.680117" lon="-1.916259">
        <ele>1183.8</ele>
        <time>2023-02-11T11:18:49.000Z</time>
      </trkpt>
      <trkpt lat="41.680107" lon="-1.916162">
        <ele>1183.8</ele>
        <time>2023-02-11T11:18:50.000Z</time>
      </trkpt>
      <trkpt lat="41.680096" lon="-1.916065">
        <ele>1183.8</ele>
        <time>2023-02-11T11:18:51.000Z</time>
      </trkpt>
      <trkpt lat="41.680084" lon="-1.915965">
        <ele>1184</ele>
        <time>2023-02-11T11:18:52.000Z</time>
      </trkpt>
      <trkpt lat="41.68007" lon="-1.915865">
        <ele>1184.2</ele>
        <time>2023-02-11T11:18:53.000Z</time>
      </trkpt>
      <trkpt lat="41.680055" lon="-1.915763">
        <ele>1184.2</ele>
        <time>2023-02-11T11:18:54.000Z</time>
      </trkpt>
      <trkpt lat="41.680039" lon="-1.915661">
        <ele>1184.2</ele>
        <time>2023-02-11T11:18:55.000Z</time>
      </trkpt>
      <trkpt lat="41.680022" lon="-1.915558">
        <ele>1184.4</ele>
        <time>2023-02-11T11:18:56.000Z</time>
      </trkpt>
      <trkpt lat="41.680002" lon="-1.915453">
        <ele>1184.4</ele>
        <time>2023-02-11T11:18:57.000Z</time>
      </trkpt>
      <trkpt lat="41.679979" lon="-1.915345">
        <ele>1184.4</ele>
        <time>2023-02-11T11:18:58.000Z</time>
      </trkpt>
      <trkpt lat="41.679954" lon="-1.91524">
        <ele>1184.4</ele>
        <time>2023-02-11T11:18:59.000Z</time>
      </trkpt>
      <trkpt lat="41.679928" lon="-1.915134">
        <ele>1184.4</ele>
        <time>2023-02-11T11:19:00.000Z</time>
      </trkpt>
      <trkpt lat="41.679903" lon="-1.915028">
        <ele>1184.4</ele>
        <time>2023-02-11T11:19:01.000Z</time>
      </trkpt>
      <trkpt lat="41.679876" lon="-1.914921">
        <ele>1184.4</ele>
        <time>2023-02-11T11:19:02.000Z</time>
      </trkpt>
      <trkpt lat="41.679848" lon="-1.914814">
        <ele>1184.4</ele>
        <time>2023-02-11T11:19:03.000Z</time>
      </trkpt>
      <trkpt lat="41.679819" lon="-1.914707">
        <ele>1184.4</ele>
        <time>2023-02-11T11:19:04.000Z</time>
      </trkpt>
      <trkpt lat="41.679786" lon="-1.914604">
        <ele>1184.6</ele>
        <time>2023-02-11T11:19:05.000Z</time>
      </trkpt>
      <trkpt lat="41.679753" lon="-1.914503">
        <ele>1184.6</ele>
        <time>2023-02-11T11:19:06.000Z</time>
      </trkpt>
      <trkpt lat="41.679721" lon="-1.914403">
        <ele>1184.6</ele>
        <time>2023-02-11T11:19:07.000Z</time>
      </trkpt>
      <trkpt lat="41.679689" lon="-1.914302">
        <ele>1184.6</ele>
        <time>2023-02-11T11:19:08.000Z</time>
      </trkpt>
      <trkpt lat="41.679652" lon="-1.914199">
        <ele>1184.6</ele>
        <time>2023-02-11T11:19:09.000Z</time>
      </trkpt>
      <trkpt lat="41.679612" lon="-1.914097">
        <ele>1184.8</ele>
        <time>2023-02-11T11:19:10.000Z</time>
      </trkpt>
      <trkpt lat="41.679572" lon="-1.913998">
        <ele>1184.8</ele>
        <time>2023-02-11T11:19:11.000Z</time>
      </trkpt>
      <trkpt lat="41.679529" lon="-1.913896">
        <ele>1184.8</ele>
        <time>2023-02-11T11:19:12.000Z</time>
      </trkpt>
      <trkpt lat="41.679479" lon="-1.913796">
        <ele>1184.8</ele>
        <time>2023-02-11T11:19:13.000Z</time>
      </trkpt>
      <trkpt lat="41.679429" lon="-1.913697">
        <ele>1184.8</ele>
        <time>2023-02-11T11:19:14.000Z</time>
      </trkpt>
      <trkpt lat="41.679378" lon="-1.9136">
        <ele>1184.8</ele>
        <time>2023-02-11T11:19:15.000Z</time>
      </trkpt>
      <trkpt lat="41.679326" lon="-1.913505">
        <ele>1184.8</ele>
        <time>2023-02-11T11:19:16.000Z</time>
      </trkpt>
      <trkpt lat="41.679274" lon="-1.913403">
        <ele>1184.8</ele>
        <time>2023-02-11T11:19:17.000Z</time>
      </trkpt>
      <trkpt lat="41.679221" lon="-1.913307">
        <ele>1184.8</ele>
        <time>2023-02-11T11:19:18.000Z</time>
      </trkpt>
      <trkpt lat="41.679166" lon="-1.913213">
        <ele>1184.8</ele>
        <time>2023-02-11T11:19:19.000Z</time>
      </trkpt>
      <trkpt lat="41.67911" lon="-1.913119">
        <ele>1184.8</ele>
        <time>2023-02-11T11:19:20.000Z</time>
      </trkpt>
      <trkpt lat="41.679052" lon="-1.913026">
        <ele>1184.8</ele>
        <time>2023-02-11T11:19:21.000Z</time>
      </trkpt>
      <trkpt lat="41.678993" lon="-1.912935">
        <ele>1184.8</ele>
        <time>2023-02-11T11:19:22.000Z</time>
      </trkpt>
      <trkpt lat="41.678933" lon="-1.912847">
        <ele>1184.8</ele>
        <time>2023-02-11T11:19:23.000Z</time>
      </trkpt>
      <trkpt lat="41.678871" lon="-1.912761">
        <ele>1184.8</ele>
        <time>2023-02-11T11:19:24.000Z</time>
      </trkpt>
      <trkpt lat="41.678808" lon="-1.912675">
        <ele>1184.8</ele>
        <time>2023-02-11T11:19:25.000Z</time>
      </trkpt>
      <trkpt lat="41.678742" lon="-1.912591">
        <ele>1184.8</ele>
        <time>2023-02-11T11:19:26.000Z</time>
      </trkpt>
      <trkpt lat="41.678673" lon="-1.91251">
        <ele>1184.8</ele>
        <time>2023-02-11T11:19:27.000Z</time>
      </trkpt>
      <trkpt lat="41.678602" lon="-1.912431">
        <ele>1184.8</ele>
        <time>2023-02-11T11:19:28.000Z</time>
      </trkpt>
      <trkpt lat="41.678533" lon="-1.912351">
        <ele>1184.8</ele>
        <time>2023-02-11T11:19:29.000Z</time>
      </trkpt>
      <trkpt lat="41.678464" lon="-1.912271">
        <ele>1184.8</ele>
        <time>2023-02-11T11:19:30.000Z</time>
      </trkpt>
      <trkpt lat="41.678393" lon="-1.912191">
        <ele>1184.8</ele>
        <time>2023-02-11T11:19:31.000Z</time>
      </trkpt>
      <trkpt lat="41.67832" lon="-1.912113">
        <ele>1184.8</ele>
        <time>2023-02-11T11:19:32.000Z</time>
      </trkpt>
      <trkpt lat="41.678244" lon="-1.912035">
        <ele>1184.6</ele>
        <time>2023-02-11T11:19:33.000Z</time>
      </trkpt>
      <trkpt lat="41.678167" lon="-1.911959">
        <ele>1184.6</ele>
        <time>2023-02-11T11:19:34.000Z</time>
      </trkpt>
      <trkpt lat="41.678087" lon="-1.911883">
        <ele>1184.6</ele>
        <time>2023-02-11T11:19:35.000Z</time>
      </trkpt>
      <trkpt lat="41.678008" lon="-1.911808">
        <ele>1184.6</ele>
        <time>2023-02-11T11:19:36.000Z</time>
      </trkpt>
      <trkpt lat="41.677932" lon="-1.911731">
        <ele>1184.6</ele>
        <time>2023-02-11T11:19:37.000Z</time>
      </trkpt>
      <trkpt lat="41.677854" lon="-1.911652">
        <ele>1184.6</ele>
        <time>2023-02-11T11:19:38.000Z</time>
      </trkpt>
      <trkpt lat="41.677779" lon="-1.911578">
        <ele>1184.6</ele>
        <time>2023-02-11T11:19:39.000Z</time>
      </trkpt>
      <trkpt lat="41.677703" lon="-1.911504">
        <ele>1184.4</ele>
        <time>2023-02-11T11:19:40.000Z</time>
      </trkpt>
      <trkpt lat="41.677628" lon="-1.911428">
        <ele>1184.2</ele>
        <time>2023-02-11T11:19:41.000Z</time>
      </trkpt>
      <trkpt lat="41.677554" lon="-1.911352">
        <ele>1184.2</ele>
        <time>2023-02-11T11:19:42.000Z</time>
      </trkpt>
      <trkpt lat="41.677477" lon="-1.911276">
        <ele>1184</ele>
        <time>2023-02-11T11:19:43.000Z</time>
      </trkpt>
      <trkpt lat="41.6774" lon="-1.911199">
        <ele>1184</ele>
        <time>2023-02-11T11:19:44.000Z</time>
      </trkpt>
      <trkpt lat="41.677321" lon="-1.911121">
        <ele>1183.8</ele>
        <time>2023-02-11T11:19:45.000Z</time>
      </trkpt>
      <trkpt lat="41.677242" lon="-1.911044">
        <ele>1183.8</ele>
        <time>2023-02-11T11:19:46.000Z</time>
      </trkpt>
      <trkpt lat="41.677161" lon="-1.910965">
        <ele>1183.6</ele>
        <time>2023-02-11T11:19:47.000Z</time>
      </trkpt>
      <trkpt lat="41.677078" lon="-1.910885">
        <ele>1183.6</ele>
        <time>2023-02-11T11:19:48.000Z</time>
      </trkpt>
      <trkpt lat="41.676995" lon="-1.910803">
        <ele>1183.4</ele>
        <time>2023-02-11T11:19:49.000Z</time>
      </trkpt>
      <trkpt lat="41.676912" lon="-1.91072">
        <ele>1183</ele>
        <time>2023-02-11T11:19:50.000Z</time>
      </trkpt>
      <trkpt lat="41.676828" lon="-1.910637">
        <ele>1183</ele>
        <time>2023-02-11T11:19:51.000Z</time>
      </trkpt>
      <trkpt lat="41.676744" lon="-1.910554">
        <ele>1182.8</ele>
        <time>2023-02-11T11:19:52.000Z</time>
      </trkpt>
      <trkpt lat="41.67666" lon="-1.91047">
        <ele>1182.8</ele>
        <time>2023-02-11T11:19:53.000Z</time>
      </trkpt>
      <trkpt lat="41.676576" lon="-1.910385">
        <ele>1182.4</ele>
        <time>2023-02-11T11:19:54.000Z</time>
      </trkpt>
      <trkpt lat="41.676494" lon="-1.910299">
        <ele>1182.4</ele>
        <time>2023-02-11T11:19:55.000Z</time>
      </trkpt>
      <trkpt lat="41.67641" lon="-1.910215">
        <ele>1182.2</ele>
        <time>2023-02-11T11:19:56.000Z</time>
      </trkpt>
      <trkpt lat="41.676324" lon="-1.91013">
        <ele>1182.2</ele>
        <time>2023-02-11T11:19:57.000Z</time>
      </trkpt>
      <trkpt lat="41.676239" lon="-1.910045">
        <ele>1182</ele>
        <time>2023-02-11T11:19:58.000Z</time>
      </trkpt>
      <trkpt lat="41.676155" lon="-1.90996">
        <ele>1182</ele>
        <time>2023-02-11T11:19:59.000Z</time>
      </trkpt>
      <trkpt lat="41.67607" lon="-1.909874">
        <ele>1181.8</ele>
        <time>2023-02-11T11:20:00.000Z</time>
      </trkpt>
      <trkpt lat="41.675986" lon="-1.909787">
        <ele>1181.6</ele>
        <time>2023-02-11T11:20:01.000Z</time>
      </trkpt>
      <trkpt lat="41.675899" lon="-1.909699">
        <ele>1181.4</ele>
        <time>2023-02-11T11:20:02.000Z</time>
      </trkpt>
      <trkpt lat="41.675809" lon="-1.909612">
        <ele>1181.2</ele>
        <time>2023-02-11T11:20:03.000Z</time>
      </trkpt>
      <trkpt lat="41.675718" lon="-1.909522">
        <ele>1181</ele>
        <time>2023-02-11T11:20:04.000Z</time>
      </trkpt>
      <trkpt lat="41.675628" lon="-1.909429">
        <ele>1181</ele>
        <time>2023-02-11T11:20:05.000Z</time>
      </trkpt>
      <trkpt lat="41.675538" lon="-1.909336">
        <ele>1180.8</ele>
        <time>2023-02-11T11:20:06.000Z</time>
      </trkpt>
      <trkpt lat="41.67545" lon="-1.909242">
        <ele>1180.6</ele>
        <time>2023-02-11T11:20:07.000Z</time>
      </trkpt>
      <trkpt lat="41.675366" lon="-1.909145">
        <ele>1180.6</ele>
        <time>2023-02-11T11:20:08.000Z</time>
      </trkpt>
      <trkpt lat="41.675284" lon="-1.909048">
        <ele>1180.4</ele>
        <time>2023-02-11T11:20:09.000Z</time>
      </trkpt>
      <trkpt lat="41.675204" lon="-1.908952">
        <ele>1180.2</ele>
        <time>2023-02-11T11:20:10.000Z</time>
      </trkpt>
      <trkpt lat="41.675125" lon="-1.908851">
        <ele>1180</ele>
        <time>2023-02-11T11:20:11.000Z</time>
      </trkpt>
      <trkpt lat="41.675049" lon="-1.908749">
        <ele>1179.8</ele>
        <time>2023-02-11T11:20:12.000Z</time>
      </trkpt>
      <trkpt lat="41.674975" lon="-1.908646">
        <ele>1179.8</ele>
        <time>2023-02-11T11:20:13.000Z</time>
      </trkpt>
      <trkpt lat="41.674903" lon="-1.908539">
        <ele>1179.6</ele>
        <time>2023-02-11T11:20:14.000Z</time>
      </trkpt>
      <trkpt lat="41.674831" lon="-1.908434">
        <ele>1179.4</ele>
        <time>2023-02-11T11:20:15.000Z</time>
      </trkpt>
      <trkpt lat="41.674758" lon="-1.908325">
        <ele>1179.2</ele>
        <time>2023-02-11T11:20:16.000Z</time>
      </trkpt>
      <trkpt lat="41.674688" lon="-1.908214">
        <ele>1179.2</ele>
        <time>2023-02-11T11:20:17.000Z</time>
      </trkpt>
      <trkpt lat="41.674619" lon="-1.9081">
        <ele>1178.8</ele>
        <time>2023-02-11T11:20:18.000Z</time>
      </trkpt>
      <trkpt lat="41.67455" lon="-1.907986">
        <ele>1178.4</ele>
        <time>2023-02-11T11:20:19.000Z</time>
      </trkpt>
      <trkpt lat="41.674478" lon="-1.90787">
        <ele>1178.2</ele>
        <time>2023-02-11T11:20:20.000Z</time>
      </trkpt>
      <trkpt lat="41.674405" lon="-1.907752">
        <ele>1177.6</ele>
        <time>2023-02-11T11:20:21.000Z</time>
      </trkpt>
      <trkpt lat="41.674332" lon="-1.907635">
        <ele>1177.4</ele>
        <time>2023-02-11T11:20:22.000Z</time>
      </trkpt>
      <trkpt lat="41.674258" lon="-1.907515">
        <ele>1177.2</ele>
        <time>2023-02-11T11:20:23.000Z</time>
      </trkpt>
      <trkpt lat="41.674184" lon="-1.907397">
        <ele>1177</ele>
        <time>2023-02-11T11:20:24.000Z</time>
      </trkpt>
      <trkpt lat="41.674108" lon="-1.907276">
        <ele>1176.8</ele>
        <time>2023-02-11T11:20:25.000Z</time>
      </trkpt>
      <trkpt lat="41.674034" lon="-1.907153">
        <ele>1176.6</ele>
        <time>2023-02-11T11:20:26.000Z</time>
      </trkpt>
      <trkpt lat="41.673961" lon="-1.907031">
        <ele>1176.4</ele>
        <time>2023-02-11T11:20:27.000Z</time>
      </trkpt>
      <trkpt lat="41.673889" lon="-1.906908">
        <ele>1176.2</ele>
        <time>2023-02-11T11:20:28.000Z</time>
      </trkpt>
      <trkpt lat="41.673817" lon="-1.906784">
        <ele>1175.8</ele>
        <time>2023-02-11T11:20:29.000Z</time>
      </trkpt>
      <trkpt lat="41.673744" lon="-1.906664">
        <ele>1175.6</ele>
        <time>2023-02-11T11:20:30.000Z</time>
      </trkpt>
      <trkpt lat="41.673671" lon="-1.906545">
        <ele>1175.4</ele>
        <time>2023-02-11T11:20:31.000Z</time>
      </trkpt>
      <trkpt lat="41.673598" lon="-1.906428">
        <ele>1175.2</ele>
        <time>2023-02-11T11:20:32.000Z</time>
      </trkpt>
      <trkpt lat="41.673527" lon="-1.906314">
        <ele>1175</ele>
        <time>2023-02-11T11:20:33.000Z</time>
      </trkpt>
      <trkpt lat="41.673454" lon="-1.906204">
        <ele>1174.8</ele>
        <time>2023-02-11T11:20:34.000Z</time>
      </trkpt>
      <trkpt lat="41.673383" lon="-1.906091">
        <ele>1174.8</ele>
        <time>2023-02-11T11:20:35.000Z</time>
      </trkpt>
      <trkpt lat="41.673312" lon="-1.905975">
        <ele>1174.4</ele>
        <time>2023-02-11T11:20:36.000Z</time>
      </trkpt>
      <trkpt lat="41.673241" lon="-1.90586">
        <ele>1174.2</ele>
        <time>2023-02-11T11:20:37.000Z</time>
      </trkpt>
      <trkpt lat="41.67317" lon="-1.905746">
        <ele>1174</ele>
        <time>2023-02-11T11:20:38.000Z</time>
      </trkpt>
      <trkpt lat="41.673098" lon="-1.905633">
        <ele>1173.6</ele>
        <time>2023-02-11T11:20:39.000Z</time>
      </trkpt>
      <trkpt lat="41.673027" lon="-1.905515">
        <ele>1173.4</ele>
        <time>2023-02-11T11:20:40.000Z</time>
      </trkpt>
      <trkpt lat="41.672956" lon="-1.905397">
        <ele>1173.2</ele>
        <time>2023-02-11T11:20:41.000Z</time>
      </trkpt>
      <trkpt lat="41.672887" lon="-1.905278">
        <ele>1173</ele>
        <time>2023-02-11T11:20:42.000Z</time>
      </trkpt>
      <trkpt lat="41.672818" lon="-1.905157">
        <ele>1172.8</ele>
        <time>2023-02-11T11:20:43.000Z</time>
      </trkpt>
      <trkpt lat="41.672752" lon="-1.905034">
        <ele>1172.6</ele>
        <time>2023-02-11T11:20:44.000Z</time>
      </trkpt>
      <trkpt lat="41.672689" lon="-1.904907">
        <ele>1172.2</ele>
        <time>2023-02-11T11:20:45.000Z</time>
      </trkpt>
      <trkpt lat="41.672627" lon="-1.904776">
        <ele>1172</ele>
        <time>2023-02-11T11:20:46.000Z</time>
      </trkpt>
      <trkpt lat="41.672569" lon="-1.904643">
        <ele>1171.6</ele>
        <time>2023-02-11T11:20:47.000Z</time>
      </trkpt>
      <trkpt lat="41.672514" lon="-1.904509">
        <ele>1171</ele>
        <time>2023-02-11T11:20:48.000Z</time>
      </trkpt>
      <trkpt lat="41.67246" lon="-1.90437">
        <ele>1170.8</ele>
        <time>2023-02-11T11:20:49.000Z</time>
      </trkpt>
      <trkpt lat="41.672407" lon="-1.904233">
        <ele>1170.4</ele>
        <time>2023-02-11T11:20:50.000Z</time>
      </trkpt>
      <trkpt lat="41.672355" lon="-1.904093">
        <ele>1170.2</ele>
        <time>2023-02-11T11:20:51.000Z</time>
      </trkpt>
      <trkpt lat="41.672302" lon="-1.90395">
        <ele>1169.8</ele>
        <time>2023-02-11T11:20:52.000Z</time>
      </trkpt>
      <trkpt lat="41.672252" lon="-1.903808">
        <ele>1169.8</ele>
        <time>2023-02-11T11:20:53.000Z</time>
      </trkpt>
      <trkpt lat="41.672202" lon="-1.903665">
        <ele>1169.6</ele>
        <time>2023-02-11T11:20:54.000Z</time>
      </trkpt>
      <trkpt lat="41.67215" lon="-1.903519">
        <ele>1169.4</ele>
        <time>2023-02-11T11:20:55.000Z</time>
      </trkpt>
      <trkpt lat="41.672098" lon="-1.903373">
        <ele>1169</ele>
        <time>2023-02-11T11:20:56.000Z</time>
      </trkpt>
      <trkpt lat="41.672046" lon="-1.903226">
        <ele>1168.8</ele>
        <time>2023-02-11T11:20:57.000Z</time>
      </trkpt>
      <trkpt lat="41.671992" lon="-1.903079">
        <ele>1168.4</ele>
        <time>2023-02-11T11:20:58.000Z</time>
      </trkpt>
      <trkpt lat="41.671939" lon="-1.90293">
        <ele>1168.2</ele>
        <time>2023-02-11T11:20:59.000Z</time>
      </trkpt>
      <trkpt lat="41.671884" lon="-1.902784">
        <ele>1168</ele>
        <time>2023-02-11T11:21:00.000Z</time>
      </trkpt>
      <trkpt lat="41.671824" lon="-1.902639">
        <ele>1167.6</ele>
        <time>2023-02-11T11:21:01.000Z</time>
      </trkpt>
      <trkpt lat="41.671762" lon="-1.902493">
        <ele>1167.4</ele>
        <time>2023-02-11T11:21:02.000Z</time>
      </trkpt>
      <trkpt lat="41.671696" lon="-1.902349">
        <ele>1166.8</ele>
        <time>2023-02-11T11:21:03.000Z</time>
      </trkpt>
      <trkpt lat="41.671622" lon="-1.902205">
        <ele>1166.6</ele>
        <time>2023-02-11T11:21:04.000Z</time>
      </trkpt>
      <trkpt lat="41.671545" lon="-1.902062">
        <ele>1165.6</ele>
        <time>2023-02-11T11:21:05.000Z</time>
      </trkpt>
      <trkpt lat="41.671464" lon="-1.901919">
        <ele>1165.2</ele>
        <time>2023-02-11T11:21:06.000Z</time>
      </trkpt>
      <trkpt lat="41.671377" lon="-1.901779">
        <ele>1164.4</ele>
        <time>2023-02-11T11:21:07.000Z</time>
      </trkpt>
      <trkpt lat="41.671285" lon="-1.901642">
        <ele>1163.8</ele>
        <time>2023-02-11T11:21:08.000Z</time>
      </trkpt>
      <trkpt lat="41.671192" lon="-1.901509">
        <ele>1163.4</ele>
        <time>2023-02-11T11:21:09.000Z</time>
      </trkpt>
      <trkpt lat="41.671094" lon="-1.901378">
        <ele>1162.4</ele>
        <time>2023-02-11T11:21:10.000Z</time>
      </trkpt>
      <trkpt lat="41.670993" lon="-1.901252">
        <ele>1161.8</ele>
        <time>2023-02-11T11:21:11.000Z</time>
      </trkpt>
      <trkpt lat="41.670889" lon="-1.901129">
        <ele>1160.8</ele>
        <time>2023-02-11T11:21:12.000Z</time>
      </trkpt>
      <trkpt lat="41.670786" lon="-1.901007">
        <ele>1160.2</ele>
        <time>2023-02-11T11:21:13.000Z</time>
      </trkpt>
      <trkpt lat="41.670679" lon="-1.90088">
        <ele>1159.4</ele>
        <time>2023-02-11T11:21:14.000Z</time>
      </trkpt>
      <trkpt lat="41.670567" lon="-1.900749">
        <ele>1159.2</ele>
        <time>2023-02-11T11:21:15.000Z</time>
      </trkpt>
      <trkpt lat="41.670457" lon="-1.900618">
        <ele>1158</ele>
        <time>2023-02-11T11:21:16.000Z</time>
      </trkpt>
      <trkpt lat="41.670344" lon="-1.900488">
        <ele>1157.6</ele>
        <time>2023-02-11T11:21:17.000Z</time>
      </trkpt>
      <trkpt lat="41.670229" lon="-1.900356">
        <ele>1155.8</ele>
        <time>2023-02-11T11:21:18.000Z</time>
      </trkpt>
      <trkpt lat="41.670114" lon="-1.900224">
        <ele>1154</ele>
        <time>2023-02-11T11:21:19.000Z</time>
      </trkpt>
      <trkpt lat="41.669997" lon="-1.900095">
        <ele>1153.6</ele>
        <time>2023-02-11T11:21:20.000Z</time>
      </trkpt>
      <trkpt lat="41.669874" lon="-1.899973">
        <ele>1152.2</ele>
        <time>2023-02-11T11:21:21.000Z</time>
      </trkpt>
      <trkpt lat="41.669747" lon="-1.899861">
        <ele>1151.8</ele>
        <time>2023-02-11T11:21:22.000Z</time>
      </trkpt>
      <trkpt lat="41.669614" lon="-1.899758">
        <ele>1150.6</ele>
        <time>2023-02-11T11:21:23.000Z</time>
      </trkpt>
      <trkpt lat="41.669477" lon="-1.899668">
        <ele>1149.8</ele>
        <time>2023-02-11T11:21:24.000Z</time>
      </trkpt>
      <trkpt lat="41.669336" lon="-1.899583">
        <ele>1148</ele>
        <time>2023-02-11T11:21:25.000Z</time>
      </trkpt>
      <trkpt lat="41.669191" lon="-1.899505">
        <ele>1147</ele>
        <time>2023-02-11T11:21:26.000Z</time>
      </trkpt>
      <trkpt lat="41.669046" lon="-1.899432">
        <ele>1146.2</ele>
        <time>2023-02-11T11:21:27.000Z</time>
      </trkpt>
      <trkpt lat="41.668898" lon="-1.899356">
        <ele>1144.8</ele>
        <time>2023-02-11T11:21:28.000Z</time>
      </trkpt>
      <trkpt lat="41.668751" lon="-1.89928">
        <ele>1144.2</ele>
        <time>2023-02-11T11:21:29.000Z</time>
      </trkpt>
      <trkpt lat="41.668602" lon="-1.899202">
        <ele>1142.4</ele>
        <time>2023-02-11T11:21:30.000Z</time>
      </trkpt>
      <trkpt lat="41.668456" lon="-1.899123">
        <ele>1141.4</ele>
        <time>2023-02-11T11:21:31.000Z</time>
      </trkpt>
      <trkpt lat="41.668314" lon="-1.899036">
        <ele>1140.2</ele>
        <time>2023-02-11T11:21:32.000Z</time>
      </trkpt>
      <trkpt lat="41.668177" lon="-1.898944">
        <ele>1139.4</ele>
        <time>2023-02-11T11:21:33.000Z</time>
      </trkpt>
      <trkpt lat="41.668044" lon="-1.898851">
        <ele>1137.8</ele>
        <time>2023-02-11T11:21:34.000Z</time>
      </trkpt>
      <trkpt lat="41.667916" lon="-1.89876">
        <ele>1137.4</ele>
        <time>2023-02-11T11:21:35.000Z</time>
      </trkpt>
      <trkpt lat="41.66779" lon="-1.898668">
        <ele>1135.8</ele>
        <time>2023-02-11T11:21:36.000Z</time>
      </trkpt>
      <trkpt lat="41.667672" lon="-1.898571">
        <ele>1135</ele>
        <time>2023-02-11T11:21:37.000Z</time>
      </trkpt>
      <trkpt lat="41.66756" lon="-1.898472">
        <ele>1134.4</ele>
        <time>2023-02-11T11:21:38.000Z</time>
      </trkpt>
      <trkpt lat="41.667455" lon="-1.898372">
        <ele>1133</ele>
        <time>2023-02-11T11:21:39.000Z</time>
      </trkpt>
      <trkpt lat="41.66735" lon="-1.898273">
        <ele>1132.6</ele>
        <time>2023-02-11T11:21:40.000Z</time>
      </trkpt>
      <trkpt lat="41.667252" lon="-1.898166">
        <ele>1132</ele>
        <time>2023-02-11T11:21:41.000Z</time>
      </trkpt>
      <trkpt lat="41.667157" lon="-1.898056">
        <ele>1132</ele>
        <time>2023-02-11T11:21:42.000Z</time>
      </trkpt>
      <trkpt lat="41.667065" lon="-1.897946">
        <ele>1131.6</ele>
        <time>2023-02-11T11:21:43.000Z</time>
      </trkpt>
      <trkpt lat="41.666976" lon="-1.897842">
        <ele>1131.4</ele>
        <time>2023-02-11T11:21:44.000Z</time>
      </trkpt>
      <trkpt lat="41.666889" lon="-1.897736">
        <ele>1130.8</ele>
        <time>2023-02-11T11:21:45.000Z</time>
      </trkpt>
      <trkpt lat="41.666804" lon="-1.897628">
        <ele>1130.4</ele>
        <time>2023-02-11T11:21:46.000Z</time>
      </trkpt>
      <trkpt lat="41.666718" lon="-1.897524">
        <ele>1129.4</ele>
        <time>2023-02-11T11:21:47.000Z</time>
      </trkpt>
      <trkpt lat="41.666634" lon="-1.89742">
        <ele>1128.8</ele>
        <time>2023-02-11T11:21:48.000Z</time>
      </trkpt>
      <trkpt lat="41.666554" lon="-1.897316">
        <ele>1128.6</ele>
        <time>2023-02-11T11:21:49.000Z</time>
      </trkpt>
      <trkpt lat="41.666475" lon="-1.897209">
        <ele>1127.6</ele>
        <time>2023-02-11T11:21:50.000Z</time>
      </trkpt>
      <trkpt lat="41.666399" lon="-1.897103">
        <ele>1127.4</ele>
        <time>2023-02-11T11:21:51.000Z</time>
      </trkpt>
      <trkpt lat="41.666328" lon="-1.89699">
        <ele>1126.8</ele>
        <time>2023-02-11T11:21:52.000Z</time>
      </trkpt>
      <trkpt lat="41.666261" lon="-1.896877">
        <ele>1126.6</ele>
        <time>2023-02-11T11:21:53.000Z</time>
      </trkpt>
      <trkpt lat="41.666201" lon="-1.896771">
        <ele>1126</ele>
        <time>2023-02-11T11:21:54.000Z</time>
      </trkpt>
      <trkpt lat="41.666145" lon="-1.896675">
        <ele>1125.8</ele>
        <time>2023-02-11T11:21:55.000Z</time>
      </trkpt>
      <trkpt lat="41.666092" lon="-1.896599">
        <ele>1124.8</ele>
        <time>2023-02-11T11:21:56.000Z</time>
      </trkpt>
      <trkpt lat="41.666049" lon="-1.896552">
        <ele>1123.8</ele>
        <time>2023-02-11T11:21:57.000Z</time>
      </trkpt>
      <trkpt lat="41.666021" lon="-1.896533">
        <ele>1123.6</ele>
        <time>2023-02-11T11:21:58.000Z</time>
      </trkpt>
      <trkpt lat="41.665996" lon="-1.89653">
        <ele>1123.2</ele>
        <time>2023-02-11T11:21:59.000Z</time>
      </trkpt>
      <trkpt lat="41.665975" lon="-1.896541">
        <ele>1123</ele>
        <time>2023-02-11T11:22:00.000Z</time>
      </trkpt>
      <trkpt lat="41.665961" lon="-1.896558">
        <ele>1123</ele>
        <time>2023-02-11T11:22:01.000Z</time>
      </trkpt>
      <trkpt lat="41.665952" lon="-1.896574">
        <ele>1122.8</ele>
        <time>2023-02-11T11:22:02.000Z</time>
      </trkpt>
      <trkpt lat="41.665948" lon="-1.896588">
        <ele>1122.8</ele>
        <time>2023-02-11T11:22:03.000Z</time>
      </trkpt>
      <trkpt lat="41.665946" lon="-1.896599">
        <ele>1122.8</ele>
        <time>2023-02-11T11:22:04.000Z</time>
      </trkpt>
      <trkpt lat="41.665939" lon="-1.896611">
        <ele>1122.8</ele>
        <time>2023-02-11T11:22:05.000Z</time>
      </trkpt>
      <trkpt lat="41.665928" lon="-1.896633">
        <ele>1122.8</ele>
        <time>2023-02-11T11:22:06.000Z</time>
      </trkpt>
      <trkpt lat="41.66591" lon="-1.896665">
        <ele>1122.8</ele>
        <time>2023-02-11T11:22:07.000Z</time>
      </trkpt>
      <trkpt lat="41.665888" lon="-1.896708">
        <ele>1122.8</ele>
        <time>2023-02-11T11:22:08.000Z</time>
      </trkpt>
      <trkpt lat="41.665856" lon="-1.896755">
        <ele>1122.8</ele>
        <time>2023-02-11T11:22:09.000Z</time>
      </trkpt>
      <trkpt lat="41.665822" lon="-1.896805">
        <ele>1123</ele>
        <time>2023-02-11T11:22:10.000Z</time>
      </trkpt>
      <trkpt lat="41.665784" lon="-1.89686">
        <ele>1123</ele>
        <time>2023-02-11T11:22:11.000Z</time>
      </trkpt>
      <trkpt lat="41.66574" lon="-1.896917">
        <ele>1123</ele>
        <time>2023-02-11T11:22:12.000Z</time>
      </trkpt>
      <trkpt lat="41.665694" lon="-1.896979">
        <ele>1123</ele>
        <time>2023-02-11T11:22:13.000Z</time>
      </trkpt>
      <trkpt lat="41.665646" lon="-1.897042">
        <ele>1123</ele>
        <time>2023-02-11T11:22:14.000Z</time>
      </trkpt>
      <trkpt lat="41.665597" lon="-1.897106">
        <ele>1122.8</ele>
        <time>2023-02-11T11:22:15.000Z</time>
      </trkpt>
      <trkpt lat="41.665547" lon="-1.897166">
        <ele>1122.8</ele>
        <time>2023-02-11T11:22:16.000Z</time>
      </trkpt>
      <trkpt lat="41.665495" lon="-1.897236">
        <ele>1122.8</ele>
        <time>2023-02-11T11:22:17.000Z</time>
      </trkpt>
      <trkpt lat="41.66544" lon="-1.897302">
        <ele>1122.8</ele>
        <time>2023-02-11T11:22:18.000Z</time>
      </trkpt>
      <trkpt lat="41.665382" lon="-1.897366">
        <ele>1122.8</ele>
        <time>2023-02-11T11:22:19.000Z</time>
      </trkpt>
      <trkpt lat="41.66532" lon="-1.897428">
        <ele>1122.6</ele>
        <time>2023-02-11T11:22:20.000Z</time>
      </trkpt>
      <trkpt lat="41.665261" lon="-1.89749">
        <ele>1122.6</ele>
        <time>2023-02-11T11:22:21.000Z</time>
      </trkpt>
      <trkpt lat="41.665199" lon="-1.897548">
        <ele>1122.6</ele>
        <time>2023-02-11T11:22:22.000Z</time>
      </trkpt>
      <trkpt lat="41.665138" lon="-1.897605">
        <ele>1122.4</ele>
        <time>2023-02-11T11:22:23.000Z</time>
      </trkpt>
      <trkpt lat="41.665074" lon="-1.897667">
        <ele>1122.4</ele>
        <time>2023-02-11T11:22:24.000Z</time>
      </trkpt>
      <trkpt lat="41.665007" lon="-1.897726">
        <ele>1122</ele>
        <time>2023-02-11T11:22:25.000Z</time>
      </trkpt>
      <trkpt lat="41.664934" lon="-1.897787">
        <ele>1121.8</ele>
        <time>2023-02-11T11:22:26.000Z</time>
      </trkpt>
      <trkpt lat="41.664858" lon="-1.897839">
        <ele>1121.8</ele>
        <time>2023-02-11T11:22:27.000Z</time>
      </trkpt>
      <trkpt lat="41.664781" lon="-1.897885">
        <ele>1121.8</ele>
        <time>2023-02-11T11:22:28.000Z</time>
      </trkpt>
      <trkpt lat="41.664707" lon="-1.897924">
        <ele>1121.8</ele>
        <time>2023-02-11T11:22:29.000Z</time>
      </trkpt>
      <trkpt lat="41.66464" lon="-1.897961">
        <ele>1121.8</ele>
        <time>2023-02-11T11:22:30.000Z</time>
      </trkpt>
      <trkpt lat="41.664568" lon="-1.897991">
        <ele>1121.8</ele>
        <time>2023-02-11T11:22:31.000Z</time>
      </trkpt>
      <trkpt lat="41.664489" lon="-1.898016">
        <ele>1121.8</ele>
        <time>2023-02-11T11:22:32.000Z</time>
      </trkpt>
      <trkpt lat="41.664418" lon="-1.89804">
        <ele>1121.8</ele>
        <time>2023-02-11T11:22:33.000Z</time>
      </trkpt>
      <trkpt lat="41.66435" lon="-1.898061">
        <ele>1121.8</ele>
        <time>2023-02-11T11:22:34.000Z</time>
      </trkpt>
      <trkpt lat="41.664285" lon="-1.89808">
        <ele>1121.8</ele>
        <time>2023-02-11T11:22:35.000Z</time>
      </trkpt>
      <trkpt lat="41.664224" lon="-1.898099">
        <ele>1122.2</ele>
        <time>2023-02-11T11:22:36.000Z</time>
      </trkpt>
      <trkpt lat="41.664169" lon="-1.898124">
        <ele>1122.6</ele>
        <time>2023-02-11T11:22:37.000Z</time>
      </trkpt>
      <trkpt lat="41.664119" lon="-1.898154">
        <ele>1122.6</ele>
        <time>2023-02-11T11:22:38.000Z</time>
      </trkpt>
      <trkpt lat="41.664072" lon="-1.89818">
        <ele>1122.8</ele>
        <time>2023-02-11T11:22:39.000Z</time>
      </trkpt>
      <trkpt lat="41.66402" lon="-1.898207">
        <ele>1122.8</ele>
        <time>2023-02-11T11:22:40.000Z</time>
      </trkpt>
      <trkpt lat="41.663977" lon="-1.89824">
        <ele>1123</ele>
        <time>2023-02-11T11:22:41.000Z</time>
      </trkpt>
      <trkpt lat="41.663937" lon="-1.898285">
        <ele>1123.2</ele>
        <time>2023-02-11T11:22:42.000Z</time>
      </trkpt>
      <trkpt lat="41.663898" lon="-1.898336">
        <ele>1123.6</ele>
        <time>2023-02-11T11:22:43.000Z</time>
      </trkpt>
      <trkpt lat="41.663858" lon="-1.898387">
        <ele>1123.6</ele>
        <time>2023-02-11T11:22:44.000Z</time>
      </trkpt>
      <trkpt lat="41.663817" lon="-1.898437">
        <ele>1123.8</ele>
        <time>2023-02-11T11:22:45.000Z</time>
      </trkpt>
      <trkpt lat="41.663775" lon="-1.898488">
        <ele>1124.2</ele>
        <time>2023-02-11T11:22:46.000Z</time>
      </trkpt>
      <trkpt lat="41.663733" lon="-1.898545">
        <ele>1124.4</ele>
        <time>2023-02-11T11:22:47.000Z</time>
      </trkpt>
      <trkpt lat="41.663688" lon="-1.898597">
        <ele>1124.4</ele>
        <time>2023-02-11T11:22:48.000Z</time>
      </trkpt>
      <trkpt lat="41.663644" lon="-1.898647">
        <ele>1124.6</ele>
        <time>2023-02-11T11:22:49.000Z</time>
      </trkpt>
      <trkpt lat="41.663604" lon="-1.898697">
        <ele>1124.6</ele>
        <time>2023-02-11T11:22:50.000Z</time>
      </trkpt>
      <trkpt lat="41.663562" lon="-1.898749">
        <ele>1124.6</ele>
        <time>2023-02-11T11:22:51.000Z</time>
      </trkpt>
      <trkpt lat="41.663514" lon="-1.8988">
        <ele>1124.6</ele>
        <time>2023-02-11T11:22:52.000Z</time>
      </trkpt>
      <trkpt lat="41.663472" lon="-1.898849">
        <ele>1124.8</ele>
        <time>2023-02-11T11:22:53.000Z</time>
      </trkpt>
      <trkpt lat="41.663435" lon="-1.898898">
        <ele>1124.8</ele>
        <time>2023-02-11T11:22:54.000Z</time>
      </trkpt>
      <trkpt lat="41.663398" lon="-1.898943">
        <ele>1124.8</ele>
        <time>2023-02-11T11:22:55.000Z</time>
      </trkpt>
      <trkpt lat="41.66336" lon="-1.898988">
        <ele>1124.8</ele>
        <time>2023-02-11T11:22:56.000Z</time>
      </trkpt>
      <trkpt lat="41.663326" lon="-1.899035">
        <ele>1124.8</ele>
        <time>2023-02-11T11:22:57.000Z</time>
      </trkpt>
      <trkpt lat="41.663299" lon="-1.899091">
        <ele>1125</ele>
        <time>2023-02-11T11:22:58.000Z</time>
      </trkpt>
      <trkpt lat="41.663276" lon="-1.899145">
        <ele>1125</ele>
        <time>2023-02-11T11:22:59.000Z</time>
      </trkpt>
      <trkpt lat="41.663255" lon="-1.899201">
        <ele>1125</ele>
        <time>2023-02-11T11:23:00.000Z</time>
      </trkpt>
      <trkpt lat="41.663236" lon="-1.899253">
        <ele>1125.2</ele>
        <time>2023-02-11T11:23:01.000Z</time>
      </trkpt>
      <trkpt lat="41.663217" lon="-1.899303">
        <ele>1125.2</ele>
        <time>2023-02-11T11:23:02.000Z</time>
      </trkpt>
      <trkpt lat="41.663199" lon="-1.899351">
        <ele>1125.2</ele>
        <time>2023-02-11T11:23:03.000Z</time>
      </trkpt>
      <trkpt lat="41.663184" lon="-1.899396">
        <ele>1125.2</ele>
        <time>2023-02-11T11:23:04.000Z</time>
      </trkpt>
      <trkpt lat="41.663174" lon="-1.899432">
        <ele>1125.2</ele>
        <time>2023-02-11T11:23:05.000Z</time>
      </trkpt>
      <trkpt lat="41.663168" lon="-1.899451">
        <ele>1125.2</ele>
        <time>2023-02-11T11:23:06.000Z</time>
      </trkpt>
      <trkpt lat="41.663166" lon="-1.899458">
        <ele>1125.2</ele>
        <time>2023-02-11T11:23:07.000Z</time>
      </trkpt>
      <trkpt lat="41.663166" lon="-1.899458">
        <ele>1125</ele>
        <time>2023-02-11T11:23:08.000Z</time>
      </trkpt>
      <trkpt lat="41.663166" lon="-1.899458">
        <ele>1125</ele>
        <time>2023-02-11T11:23:09.000Z</time>
      </trkpt>
      <trkpt lat="41.663136" lon="-1.899507">
        <ele>1123.2</ele>
        <time>2023-02-11T11:26:18.000Z</time>
      </trkpt>
      <trkpt lat="41.66312" lon="-1.899548">
        <ele>1123.2</ele>
        <time>2023-02-11T11:26:19.000Z</time>
      </trkpt>
      <trkpt lat="41.6631" lon="-1.899596">
        <ele>1123.2</ele>
        <time>2023-02-11T11:26:20.000Z</time>
      </trkpt>
      <trkpt lat="41.66308" lon="-1.89965">
        <ele>1123.4</ele>
        <time>2023-02-11T11:26:21.000Z</time>
      </trkpt>
      <trkpt lat="41.663053" lon="-1.899725">
        <ele>1123.4</ele>
        <time>2023-02-11T11:26:22.000Z</time>
      </trkpt>
      <trkpt lat="41.663026" lon="-1.899808">
        <ele>1123.4</ele>
        <time>2023-02-11T11:26:23.000Z</time>
      </trkpt>
      <trkpt lat="41.662993" lon="-1.899895">
        <ele>1123.4</ele>
        <time>2023-02-11T11:26:24.000Z</time>
      </trkpt>
      <trkpt lat="41.662956" lon="-1.899988">
        <ele>1123.4</ele>
        <time>2023-02-11T11:26:25.000Z</time>
      </trkpt>
      <trkpt lat="41.662921" lon="-1.900086">
        <ele>1123.4</ele>
        <time>2023-02-11T11:26:26.000Z</time>
      </trkpt>
      <trkpt lat="41.662884" lon="-1.900189">
        <ele>1123.4</ele>
        <time>2023-02-11T11:26:27.000Z</time>
      </trkpt>
      <trkpt lat="41.662846" lon="-1.900295">
        <ele>1123.4</ele>
        <time>2023-02-11T11:26:28.000Z</time>
      </trkpt>
      <trkpt lat="41.662808" lon="-1.900404">
        <ele>1123.2</ele>
        <time>2023-02-11T11:26:29.000Z</time>
      </trkpt>
      <trkpt lat="41.662768" lon="-1.900514">
        <ele>1123.2</ele>
        <time>2023-02-11T11:26:30.000Z</time>
      </trkpt>
      <trkpt lat="41.662729" lon="-1.900628">
        <ele>1123</ele>
        <time>2023-02-11T11:26:31.000Z</time>
      </trkpt>
      <trkpt lat="41.662691" lon="-1.900744">
        <ele>1122.8</ele>
        <time>2023-02-11T11:26:32.000Z</time>
      </trkpt>
      <trkpt lat="41.662652" lon="-1.900861">
        <ele>1122.2</ele>
        <time>2023-02-11T11:26:33.000Z</time>
      </trkpt>
      <trkpt lat="41.662613" lon="-1.900978">
        <ele>1122.4</ele>
        <time>2023-02-11T11:26:34.000Z</time>
      </trkpt>
      <trkpt lat="41.662576" lon="-1.901096">
        <ele>1122.2</ele>
        <time>2023-02-11T11:26:35.000Z</time>
      </trkpt>
      <trkpt lat="41.662535" lon="-1.901214">
        <ele>1122</ele>
        <time>2023-02-11T11:26:36.000Z</time>
      </trkpt>
      <trkpt lat="41.662493" lon="-1.901331">
        <ele>1121.6</ele>
        <time>2023-02-11T11:26:37.000Z</time>
      </trkpt>
      <trkpt lat="41.662451" lon="-1.901446">
        <ele>1121.4</ele>
        <time>2023-02-11T11:26:38.000Z</time>
      </trkpt>
      <trkpt lat="41.662411" lon="-1.901562">
        <ele>1121.2</ele>
        <time>2023-02-11T11:26:39.000Z</time>
      </trkpt>
      <trkpt lat="41.662373" lon="-1.901678">
        <ele>1121</ele>
        <time>2023-02-11T11:26:40.000Z</time>
      </trkpt>
      <trkpt lat="41.662336" lon="-1.901795">
        <ele>1120.8</ele>
        <time>2023-02-11T11:26:41.000Z</time>
      </trkpt>
      <trkpt lat="41.662299" lon="-1.90191">
        <ele>1120.2</ele>
        <time>2023-02-11T11:26:42.000Z</time>
      </trkpt>
      <trkpt lat="41.662263" lon="-1.902025">
        <ele>1120</ele>
        <time>2023-02-11T11:26:43.000Z</time>
      </trkpt>
      <trkpt lat="41.662227" lon="-1.902141">
        <ele>1119.6</ele>
        <time>2023-02-11T11:26:44.000Z</time>
      </trkpt>
      <trkpt lat="41.662189" lon="-1.902256">
        <ele>1119.6</ele>
        <time>2023-02-11T11:26:45.000Z</time>
      </trkpt>
      <trkpt lat="41.66215" lon="-1.90237">
        <ele>1119.4</ele>
        <time>2023-02-11T11:26:46.000Z</time>
      </trkpt>
      <trkpt lat="41.66211" lon="-1.902485">
        <ele>1119.4</ele>
        <time>2023-02-11T11:26:47.000Z</time>
      </trkpt>
      <trkpt lat="41.662072" lon="-1.9026">
        <ele>1119.2</ele>
        <time>2023-02-11T11:26:48.000Z</time>
      </trkpt>
      <trkpt lat="41.662035" lon="-1.902715">
        <ele>1119</ele>
        <time>2023-02-11T11:26:49.000Z</time>
      </trkpt>
      <trkpt lat="41.662" lon="-1.902831">
        <ele>1118.8</ele>
        <time>2023-02-11T11:26:50.000Z</time>
      </trkpt>
      <trkpt lat="41.661965" lon="-1.902952">
        <ele>1118.4</ele>
        <time>2023-02-11T11:26:51.000Z</time>
      </trkpt>
      <trkpt lat="41.661934" lon="-1.903073">
        <ele>1118</ele>
        <time>2023-02-11T11:26:52.000Z</time>
      </trkpt>
      <trkpt lat="41.661896" lon="-1.903191">
        <ele>1117.8</ele>
        <time>2023-02-11T11:26:53.000Z</time>
      </trkpt>
      <trkpt lat="41.661855" lon="-1.903306">
        <ele>1117.6</ele>
        <time>2023-02-11T11:26:54.000Z</time>
      </trkpt>
      <trkpt lat="41.661815" lon="-1.903418">
        <ele>1117.4</ele>
        <time>2023-02-11T11:26:55.000Z</time>
      </trkpt>
      <trkpt lat="41.661777" lon="-1.903531">
        <ele>1117.2</ele>
        <time>2023-02-11T11:26:56.000Z</time>
      </trkpt>
      <trkpt lat="41.66174" lon="-1.903644">
        <ele>1116.8</ele>
        <time>2023-02-11T11:26:57.000Z</time>
      </trkpt>
      <trkpt lat="41.661703" lon="-1.903755">
        <ele>1116.8</ele>
        <time>2023-02-11T11:26:58.000Z</time>
      </trkpt>
      <trkpt lat="41.661665" lon="-1.903865">
        <ele>1116.6</ele>
        <time>2023-02-11T11:26:59.000Z</time>
      </trkpt>
      <trkpt lat="41.661627" lon="-1.903976">
        <ele>1116.6</ele>
        <time>2023-02-11T11:27:00.000Z</time>
      </trkpt>
      <trkpt lat="41.66159" lon="-1.904085">
        <ele>1116.4</ele>
        <time>2023-02-11T11:27:01.000Z</time>
      </trkpt>
      <trkpt lat="41.661553" lon="-1.904191">
        <ele>1116.2</ele>
        <time>2023-02-11T11:27:02.000Z</time>
      </trkpt>
      <trkpt lat="41.661514" lon="-1.904296">
        <ele>1116.2</ele>
        <time>2023-02-11T11:27:03.000Z</time>
      </trkpt>
      <trkpt lat="41.661474" lon="-1.904402">
        <ele>1116</ele>
        <time>2023-02-11T11:27:04.000Z</time>
      </trkpt>
      <trkpt lat="41.661436" lon="-1.904509">
        <ele>1115.8</ele>
        <time>2023-02-11T11:27:05.000Z</time>
      </trkpt>
      <trkpt lat="41.6614" lon="-1.904619">
        <ele>1115.8</ele>
        <time>2023-02-11T11:27:06.000Z</time>
      </trkpt>
      <trkpt lat="41.661363" lon="-1.90473">
        <ele>1115.8</ele>
        <time>2023-02-11T11:27:07.000Z</time>
      </trkpt>
      <trkpt lat="41.661325" lon="-1.904842">
        <ele>1115.6</ele>
        <time>2023-02-11T11:27:08.000Z</time>
      </trkpt>
      <trkpt lat="41.661287" lon="-1.904955">
        <ele>1115.6</ele>
        <time>2023-02-11T11:27:09.000Z</time>
      </trkpt>
      <trkpt lat="41.661248" lon="-1.905068">
        <ele>1115.4</ele>
        <time>2023-02-11T11:27:10.000Z</time>
      </trkpt>
      <trkpt lat="41.66121" lon="-1.905179">
        <ele>1115.2</ele>
        <time>2023-02-11T11:27:11.000Z</time>
      </trkpt>
      <trkpt lat="41.661171" lon="-1.905291">
        <ele>1115.2</ele>
        <time>2023-02-11T11:27:12.000Z</time>
      </trkpt>
      <trkpt lat="41.661132" lon="-1.905404">
        <ele>1115</ele>
        <time>2023-02-11T11:27:13.000Z</time>
      </trkpt>
      <trkpt lat="41.661093" lon="-1.905517">
        <ele>1115</ele>
        <time>2023-02-11T11:27:14.000Z</time>
      </trkpt>
      <trkpt lat="41.661055" lon="-1.905629">
        <ele>1114.8</ele>
        <time>2023-02-11T11:27:15.000Z</time>
      </trkpt>
      <trkpt lat="41.661017" lon="-1.905741">
        <ele>1114.6</ele>
        <time>2023-02-11T11:27:16.000Z</time>
      </trkpt>
      <trkpt lat="41.660982" lon="-1.905854">
        <ele>1114.6</ele>
        <time>2023-02-11T11:27:17.000Z</time>
      </trkpt>
      <trkpt lat="41.660948" lon="-1.905966">
        <ele>1114.6</ele>
        <time>2023-02-11T11:27:18.000Z</time>
      </trkpt>
      <trkpt lat="41.660912" lon="-1.906077">
        <ele>1114.4</ele>
        <time>2023-02-11T11:27:19.000Z</time>
      </trkpt>
      <trkpt lat="41.660874" lon="-1.906187">
        <ele>1114.2</ele>
        <time>2023-02-11T11:27:20.000Z</time>
      </trkpt>
      <trkpt lat="41.660836" lon="-1.906295">
        <ele>1114</ele>
        <time>2023-02-11T11:27:21.000Z</time>
      </trkpt>
      <trkpt lat="41.660799" lon="-1.906405">
        <ele>1114</ele>
        <time>2023-02-11T11:27:22.000Z</time>
      </trkpt>
      <trkpt lat="41.660764" lon="-1.906515">
        <ele>1114</ele>
        <time>2023-02-11T11:27:23.000Z</time>
      </trkpt>
      <trkpt lat="41.660727" lon="-1.906621">
        <ele>1113.8</ele>
        <time>2023-02-11T11:27:24.000Z</time>
      </trkpt>
      <trkpt lat="41.660693" lon="-1.906729">
        <ele>1113.8</ele>
        <time>2023-02-11T11:27:25.000Z</time>
      </trkpt>
      <trkpt lat="41.660656" lon="-1.906833">
        <ele>1113.8</ele>
        <time>2023-02-11T11:27:26.000Z</time>
      </trkpt>
      <trkpt lat="41.660619" lon="-1.906935">
        <ele>1113.8</ele>
        <time>2023-02-11T11:27:27.000Z</time>
      </trkpt>
      <trkpt lat="41.660581" lon="-1.90704">
        <ele>1113.8</ele>
        <time>2023-02-11T11:27:28.000Z</time>
      </trkpt>
      <trkpt lat="41.660543" lon="-1.907145">
        <ele>1113.8</ele>
        <time>2023-02-11T11:27:29.000Z</time>
      </trkpt>
      <trkpt lat="41.660502" lon="-1.90725">
        <ele>1113.6</ele>
        <time>2023-02-11T11:27:30.000Z</time>
      </trkpt>
      <trkpt lat="41.660458" lon="-1.907349">
        <ele>1113.6</ele>
        <time>2023-02-11T11:27:31.000Z</time>
      </trkpt>
      <trkpt lat="41.660409" lon="-1.907442">
        <ele>1113.4</ele>
        <time>2023-02-11T11:27:32.000Z</time>
      </trkpt>
      <trkpt lat="41.660357" lon="-1.907531">
        <ele>1113.2</ele>
        <time>2023-02-11T11:27:33.000Z</time>
      </trkpt>
      <trkpt lat="41.660299" lon="-1.907614">
        <ele>1113.2</ele>
        <time>2023-02-11T11:27:34.000Z</time>
      </trkpt>
      <trkpt lat="41.660239" lon="-1.907694">
        <ele>1112.8</ele>
        <time>2023-02-11T11:27:35.000Z</time>
      </trkpt>
      <trkpt lat="41.660179" lon="-1.907769">
        <ele>1112.6</ele>
        <time>2023-02-11T11:27:36.000Z</time>
      </trkpt>
      <trkpt lat="41.660119" lon="-1.907845">
        <ele>1112.4</ele>
        <time>2023-02-11T11:27:37.000Z</time>
      </trkpt>
      <trkpt lat="41.660058" lon="-1.90792">
        <ele>1112.2</ele>
        <time>2023-02-11T11:27:38.000Z</time>
      </trkpt>
      <trkpt lat="41.659995" lon="-1.907994">
        <ele>1112.2</ele>
        <time>2023-02-11T11:27:39.000Z</time>
      </trkpt>
      <trkpt lat="41.659932" lon="-1.908064">
        <ele>1112.2</ele>
        <time>2023-02-11T11:27:40.000Z</time>
      </trkpt>
      <trkpt lat="41.65987" lon="-1.908131">
        <ele>1112.2</ele>
        <time>2023-02-11T11:27:41.000Z</time>
      </trkpt>
      <trkpt lat="41.6598" lon="-1.908187">
        <ele>1112</ele>
        <time>2023-02-11T11:27:42.000Z</time>
      </trkpt>
      <trkpt lat="41.659727" lon="-1.908231">
        <ele>1112</ele>
        <time>2023-02-11T11:27:43.000Z</time>
      </trkpt>
      <trkpt lat="41.659651" lon="-1.908267">
        <ele>1111.8</ele>
        <time>2023-02-11T11:27:44.000Z</time>
      </trkpt>
      <trkpt lat="41.659572" lon="-1.908293">
        <ele>1111.8</ele>
        <time>2023-02-11T11:27:45.000Z</time>
      </trkpt>
      <trkpt lat="41.65949" lon="-1.908308">
        <ele>1112</ele>
        <time>2023-02-11T11:27:46.000Z</time>
      </trkpt>
      <trkpt lat="41.659409" lon="-1.90832">
        <ele>1112</ele>
        <time>2023-02-11T11:27:47.000Z</time>
      </trkpt>
      <trkpt lat="41.659329" lon="-1.908327">
        <ele>1112</ele>
        <time>2023-02-11T11:27:48.000Z</time>
      </trkpt>
      <trkpt lat="41.65925" lon="-1.908328">
        <ele>1112.2</ele>
        <time>2023-02-11T11:27:49.000Z</time>
      </trkpt>
      <trkpt lat="41.659173" lon="-1.908323">
        <ele>1112.2</ele>
        <time>2023-02-11T11:27:50.000Z</time>
      </trkpt>
      <trkpt lat="41.659098" lon="-1.908306">
        <ele>1112.2</ele>
        <time>2023-02-11T11:27:51.000Z</time>
      </trkpt>
      <trkpt lat="41.659025" lon="-1.908277">
        <ele>1112.2</ele>
        <time>2023-02-11T11:27:52.000Z</time>
      </trkpt>
      <trkpt lat="41.658954" lon="-1.908242">
        <ele>1112.4</ele>
        <time>2023-02-11T11:27:53.000Z</time>
      </trkpt>
      <trkpt lat="41.658885" lon="-1.908203">
        <ele>1112.4</ele>
        <time>2023-02-11T11:27:54.000Z</time>
      </trkpt>
      <trkpt lat="41.658817" lon="-1.908163">
        <ele>1112.6</ele>
        <time>2023-02-11T11:27:55.000Z</time>
      </trkpt>
      <trkpt lat="41.658751" lon="-1.908125">
        <ele>1112.8</ele>
        <time>2023-02-11T11:27:56.000Z</time>
      </trkpt>
      <trkpt lat="41.658689" lon="-1.908086">
        <ele>1113</ele>
        <time>2023-02-11T11:27:57.000Z</time>
      </trkpt>
      <trkpt lat="41.658624" lon="-1.908043">
        <ele>1113</ele>
        <time>2023-02-11T11:27:58.000Z</time>
      </trkpt>
      <trkpt lat="41.65856" lon="-1.908">
        <ele>1113.2</ele>
        <time>2023-02-11T11:27:59.000Z</time>
      </trkpt>
      <trkpt lat="41.658495" lon="-1.907959">
        <ele>1113.4</ele>
        <time>2023-02-11T11:28:00.000Z</time>
      </trkpt>
      <trkpt lat="41.658431" lon="-1.907918">
        <ele>1113.6</ele>
        <time>2023-02-11T11:28:01.000Z</time>
      </trkpt>
      <trkpt lat="41.658373" lon="-1.90788">
        <ele>1113.8</ele>
        <time>2023-02-11T11:28:02.000Z</time>
      </trkpt>
      <trkpt lat="41.658312" lon="-1.907842">
        <ele>1113.8</ele>
        <time>2023-02-11T11:28:03.000Z</time>
      </trkpt>
      <trkpt lat="41.658249" lon="-1.907802">
        <ele>1114</ele>
        <time>2023-02-11T11:28:04.000Z</time>
      </trkpt>
      <trkpt lat="41.658188" lon="-1.907764">
        <ele>1114</ele>
        <time>2023-02-11T11:28:05.000Z</time>
      </trkpt>
      <trkpt lat="41.658124" lon="-1.907727">
        <ele>1114.2</ele>
        <time>2023-02-11T11:28:06.000Z</time>
      </trkpt>
      <trkpt lat="41.658061" lon="-1.907696">
        <ele>1114.4</ele>
        <time>2023-02-11T11:28:07.000Z</time>
      </trkpt>
      <trkpt lat="41.657994" lon="-1.907677">
        <ele>1114.4</ele>
        <time>2023-02-11T11:28:08.000Z</time>
      </trkpt>
      <trkpt lat="41.657925" lon="-1.907669">
        <ele>1114.6</ele>
        <time>2023-02-11T11:28:09.000Z</time>
      </trkpt>
      <trkpt lat="41.657857" lon="-1.90767">
        <ele>1114.8</ele>
        <time>2023-02-11T11:28:10.000Z</time>
      </trkpt>
      <trkpt lat="41.657788" lon="-1.907678">
        <ele>1115.2</ele>
        <time>2023-02-11T11:28:11.000Z</time>
      </trkpt>
      <trkpt lat="41.657721" lon="-1.907699">
        <ele>1115.2</ele>
        <time>2023-02-11T11:28:12.000Z</time>
      </trkpt>
      <trkpt lat="41.657656" lon="-1.90773">
        <ele>1115.4</ele>
        <time>2023-02-11T11:28:13.000Z</time>
      </trkpt>
      <trkpt lat="41.6576" lon="-1.907777">
        <ele>1115.4</ele>
        <time>2023-02-11T11:28:14.000Z</time>
      </trkpt>
      <trkpt lat="41.657547" lon="-1.907833">
        <ele>1115.6</ele>
        <time>2023-02-11T11:28:15.000Z</time>
      </trkpt>
      <trkpt lat="41.6575" lon="-1.907894">
        <ele>1115.6</ele>
        <time>2023-02-11T11:28:16.000Z</time>
      </trkpt>
      <trkpt lat="41.657457" lon="-1.907959">
        <ele>1116.2</ele>
        <time>2023-02-11T11:28:17.000Z</time>
      </trkpt>
      <trkpt lat="41.657422" lon="-1.908034">
        <ele>1116.4</ele>
        <time>2023-02-11T11:28:18.000Z</time>
      </trkpt>
      <trkpt lat="41.657393" lon="-1.908108">
        <ele>1116.6</ele>
        <time>2023-02-11T11:28:19.000Z</time>
      </trkpt>
      <trkpt lat="41.657359" lon="-1.908177">
        <ele>1116.6</ele>
        <time>2023-02-11T11:28:20.000Z</time>
      </trkpt>
      <trkpt lat="41.657323" lon="-1.908244">
        <ele>1116.8</ele>
        <time>2023-02-11T11:28:21.000Z</time>
      </trkpt>
      <trkpt lat="41.65729" lon="-1.908313">
        <ele>1117.2</ele>
        <time>2023-02-11T11:28:22.000Z</time>
      </trkpt>
      <trkpt lat="41.657261" lon="-1.908383">
        <ele>1117.2</ele>
        <time>2023-02-11T11:28:23.000Z</time>
      </trkpt>
      <trkpt lat="41.657232" lon="-1.908451">
        <ele>1117.4</ele>
        <time>2023-02-11T11:28:24.000Z</time>
      </trkpt>
      <trkpt lat="41.657207" lon="-1.908515">
        <ele>1117.6</ele>
        <time>2023-02-11T11:28:25.000Z</time>
      </trkpt>
      <trkpt lat="41.65718" lon="-1.908582">
        <ele>1117.8</ele>
        <time>2023-02-11T11:28:26.000Z</time>
      </trkpt>
      <trkpt lat="41.657144" lon="-1.908643">
        <ele>1117.8</ele>
        <time>2023-02-11T11:28:27.000Z</time>
      </trkpt>
      <trkpt lat="41.657105" lon="-1.908699">
        <ele>1118.4</ele>
        <time>2023-02-11T11:28:28.000Z</time>
      </trkpt>
      <trkpt lat="41.657063" lon="-1.908756">
        <ele>1118.6</ele>
        <time>2023-02-11T11:28:29.000Z</time>
      </trkpt>
      <trkpt lat="41.65702" lon="-1.908811">
        <ele>1118.8</ele>
        <time>2023-02-11T11:28:30.000Z</time>
      </trkpt>
      <trkpt lat="41.65698" lon="-1.908867">
        <ele>1119</ele>
        <time>2023-02-11T11:28:31.000Z</time>
      </trkpt>
      <trkpt lat="41.656934" lon="-1.908921">
        <ele>1119.2</ele>
        <time>2023-02-11T11:28:32.000Z</time>
      </trkpt>
      <trkpt lat="41.65689" lon="-1.90897">
        <ele>1119.6</ele>
        <time>2023-02-11T11:28:33.000Z</time>
      </trkpt>
      <trkpt lat="41.656851" lon="-1.909005">
        <ele>1119.8</ele>
        <time>2023-02-11T11:28:34.000Z</time>
      </trkpt>
      <trkpt lat="41.65679" lon="-1.909052">
        <ele>1120</ele>
        <time>2023-02-11T11:28:35.000Z</time>
      </trkpt>
      <trkpt lat="41.656738" lon="-1.909079">
        <ele>1120</ele>
        <time>2023-02-11T11:28:36.000Z</time>
      </trkpt>
      <trkpt lat="41.656685" lon="-1.909104">
        <ele>1120.2</ele>
        <time>2023-02-11T11:28:37.000Z</time>
      </trkpt>
      <trkpt lat="41.656631" lon="-1.909128">
        <ele>1120.4</ele>
        <time>2023-02-11T11:28:38.000Z</time>
      </trkpt>
      <trkpt lat="41.656578" lon="-1.909153">
        <ele>1120.6</ele>
        <time>2023-02-11T11:28:39.000Z</time>
      </trkpt>
      <trkpt lat="41.656526" lon="-1.909172">
        <ele>1120.8</ele>
        <time>2023-02-11T11:28:40.000Z</time>
      </trkpt>
      <trkpt lat="41.656474" lon="-1.909186">
        <ele>1120.8</ele>
        <time>2023-02-11T11:28:41.000Z</time>
      </trkpt>
      <trkpt lat="41.656423" lon="-1.909199">
        <ele>1120.8</ele>
        <time>2023-02-11T11:28:42.000Z</time>
      </trkpt>
      <trkpt lat="41.656372" lon="-1.909211">
        <ele>1121.2</ele>
        <time>2023-02-11T11:28:43.000Z</time>
      </trkpt>
      <trkpt lat="41.656321" lon="-1.909219">
        <ele>1121</ele>
        <time>2023-02-11T11:28:44.000Z</time>
      </trkpt>
      <trkpt lat="41.65627" lon="-1.909222">
        <ele>1121.2</ele>
        <time>2023-02-11T11:28:45.000Z</time>
      </trkpt>
      <trkpt lat="41.656221" lon="-1.909223">
        <ele>1121.6</ele>
        <time>2023-02-11T11:28:46.000Z</time>
      </trkpt>
      <trkpt lat="41.65617" lon="-1.909218">
        <ele>1121.6</ele>
        <time>2023-02-11T11:28:47.000Z</time>
      </trkpt>
      <trkpt lat="41.65612" lon="-1.909213">
        <ele>1121.8</ele>
        <time>2023-02-11T11:28:48.000Z</time>
      </trkpt>
      <trkpt lat="41.656073" lon="-1.909203">
        <ele>1122.2</ele>
        <time>2023-02-11T11:28:49.000Z</time>
      </trkpt>
      <trkpt lat="41.656026" lon="-1.909191">
        <ele>1122.4</ele>
        <time>2023-02-11T11:28:50.000Z</time>
      </trkpt>
      <trkpt lat="41.655978" lon="-1.909177">
        <ele>1122.8</ele>
        <time>2023-02-11T11:28:51.000Z</time>
      </trkpt>
      <trkpt lat="41.655929" lon="-1.909166">
        <ele>1123</ele>
        <time>2023-02-11T11:28:52.000Z</time>
      </trkpt>
      <trkpt lat="41.655881" lon="-1.909155">
        <ele>1123.4</ele>
        <time>2023-02-11T11:28:53.000Z</time>
      </trkpt>
      <trkpt lat="41.655834" lon="-1.909146">
        <ele>1123.6</ele>
        <time>2023-02-11T11:28:54.000Z</time>
      </trkpt>
      <trkpt lat="41.655786" lon="-1.90914">
        <ele>1124</ele>
        <time>2023-02-11T11:28:55.000Z</time>
      </trkpt>
      <trkpt lat="41.655738" lon="-1.909135">
        <ele>1124.2</ele>
        <time>2023-02-11T11:28:56.000Z</time>
      </trkpt>
      <trkpt lat="41.655688" lon="-1.909131">
        <ele>1124.4</ele>
        <time>2023-02-11T11:28:57.000Z</time>
      </trkpt>
      <trkpt lat="41.655635" lon="-1.909132">
        <ele>1124.6</ele>
        <time>2023-02-11T11:28:58.000Z</time>
      </trkpt>
      <trkpt lat="41.655582" lon="-1.909138">
        <ele>1124.8</ele>
        <time>2023-02-11T11:28:59.000Z</time>
      </trkpt>
      <trkpt lat="41.655533" lon="-1.909151">
        <ele>1125</ele>
        <time>2023-02-11T11:29:00.000Z</time>
      </trkpt>
      <trkpt lat="41.655481" lon="-1.909162">
        <ele>1125.4</ele>
        <time>2023-02-11T11:29:01.000Z</time>
      </trkpt>
      <trkpt lat="41.655431" lon="-1.909173">
        <ele>1125.6</ele>
        <time>2023-02-11T11:29:02.000Z</time>
      </trkpt>
      <trkpt lat="41.655379" lon="-1.909184">
        <ele>1125.8</ele>
        <time>2023-02-11T11:29:03.000Z</time>
      </trkpt>
      <trkpt lat="41.655327" lon="-1.909196">
        <ele>1126</ele>
        <time>2023-02-11T11:29:04.000Z</time>
      </trkpt>
      <trkpt lat="41.655275" lon="-1.909209">
        <ele>1126.2</ele>
        <time>2023-02-11T11:29:05.000Z</time>
      </trkpt>
      <trkpt lat="41.655221" lon="-1.909221">
        <ele>1126.4</ele>
        <time>2023-02-11T11:29:06.000Z</time>
      </trkpt>
      <trkpt lat="41.655168" lon="-1.909232">
        <ele>1126.6</ele>
        <time>2023-02-11T11:29:07.000Z</time>
      </trkpt>
      <trkpt lat="41.655115" lon="-1.909244">
        <ele>1127</ele>
        <time>2023-02-11T11:29:08.000Z</time>
      </trkpt>
      <trkpt lat="41.65506" lon="-1.90926">
        <ele>1127.2</ele>
        <time>2023-02-11T11:29:09.000Z</time>
      </trkpt>
      <trkpt lat="41.655006" lon="-1.909278">
        <ele>1127.4</ele>
        <time>2023-02-11T11:29:10.000Z</time>
      </trkpt>
      <trkpt lat="41.654952" lon="-1.909294">
        <ele>1127.6</ele>
        <time>2023-02-11T11:29:11.000Z</time>
      </trkpt>
      <trkpt lat="41.654896" lon="-1.909308">
        <ele>1127.6</ele>
        <time>2023-02-11T11:29:12.000Z</time>
      </trkpt>
      <trkpt lat="41.654841" lon="-1.909325">
        <ele>1127.8</ele>
        <time>2023-02-11T11:29:13.000Z</time>
      </trkpt>
      <trkpt lat="41.654785" lon="-1.909342">
        <ele>1128</ele>
        <time>2023-02-11T11:29:14.000Z</time>
      </trkpt>
      <trkpt lat="41.654729" lon="-1.909358">
        <ele>1128.2</ele>
        <time>2023-02-11T11:29:15.000Z</time>
      </trkpt>
      <trkpt lat="41.654675" lon="-1.909372">
        <ele>1128.2</ele>
        <time>2023-02-11T11:29:16.000Z</time>
      </trkpt>
      <trkpt lat="41.65462" lon="-1.909385">
        <ele>1128.4</ele>
        <time>2023-02-11T11:29:17.000Z</time>
      </trkpt>
      <trkpt lat="41.654567" lon="-1.9094">
        <ele>1128.4</ele>
        <time>2023-02-11T11:29:18.000Z</time>
      </trkpt>
      <trkpt lat="41.654513" lon="-1.909416">
        <ele>1128.6</ele>
        <time>2023-02-11T11:29:19.000Z</time>
      </trkpt>
      <trkpt lat="41.654459" lon="-1.909433">
        <ele>1129</ele>
        <time>2023-02-11T11:29:20.000Z</time>
      </trkpt>
      <trkpt lat="41.654407" lon="-1.909447">
        <ele>1129.2</ele>
        <time>2023-02-11T11:29:21.000Z</time>
      </trkpt>
      <trkpt lat="41.654357" lon="-1.909459">
        <ele>1129.6</ele>
        <time>2023-02-11T11:29:22.000Z</time>
      </trkpt>
      <trkpt lat="41.654305" lon="-1.909471">
        <ele>1129.8</ele>
        <time>2023-02-11T11:29:23.000Z</time>
      </trkpt>
      <trkpt lat="41.654253" lon="-1.909482">
        <ele>1130</ele>
        <time>2023-02-11T11:29:24.000Z</time>
      </trkpt>
      <trkpt lat="41.654203" lon="-1.909495">
        <ele>1130</ele>
        <time>2023-02-11T11:29:25.000Z</time>
      </trkpt>
      <trkpt lat="41.65415" lon="-1.909509">
        <ele>1130.6</ele>
        <time>2023-02-11T11:29:26.000Z</time>
      </trkpt>
      <trkpt lat="41.654099" lon="-1.909523">
        <ele>1130.6</ele>
        <time>2023-02-11T11:29:27.000Z</time>
      </trkpt>
      <trkpt lat="41.654046" lon="-1.909534">
        <ele>1130.8</ele>
        <time>2023-02-11T11:29:28.000Z</time>
      </trkpt>
      <trkpt lat="41.653992" lon="-1.909547">
        <ele>1131</ele>
        <time>2023-02-11T11:29:29.000Z</time>
      </trkpt>
      <trkpt lat="41.653937" lon="-1.909561">
        <ele>1131.4</ele>
        <time>2023-02-11T11:29:30.000Z</time>
      </trkpt>
      <trkpt lat="41.653885" lon="-1.909574">
        <ele>1131.6</ele>
        <time>2023-02-11T11:29:31.000Z</time>
      </trkpt>
      <trkpt lat="41.653835" lon="-1.909587">
        <ele>1131.6</ele>
        <time>2023-02-11T11:29:32.000Z</time>
      </trkpt>
      <trkpt lat="41.653786" lon="-1.909599">
        <ele>1132</ele>
        <time>2023-02-11T11:29:33.000Z</time>
      </trkpt>
      <trkpt lat="41.653737" lon="-1.909611">
        <ele>1132</ele>
        <time>2023-02-11T11:29:34.000Z</time>
      </trkpt>
      <trkpt lat="41.653688" lon="-1.909625">
        <ele>1132.4</ele>
        <time>2023-02-11T11:29:35.000Z</time>
      </trkpt>
      <trkpt lat="41.653639" lon="-1.909637">
        <ele>1132.6</ele>
        <time>2023-02-11T11:29:36.000Z</time>
      </trkpt>
      <trkpt lat="41.653588" lon="-1.909648">
        <ele>1133</ele>
        <time>2023-02-11T11:29:37.000Z</time>
      </trkpt>
      <trkpt lat="41.653539" lon="-1.909662">
        <ele>1133</ele>
        <time>2023-02-11T11:29:38.000Z</time>
      </trkpt>
      <trkpt lat="41.65349" lon="-1.909674">
        <ele>1133.4</ele>
        <time>2023-02-11T11:29:39.000Z</time>
      </trkpt>
      <trkpt lat="41.653441" lon="-1.909686">
        <ele>1133.4</ele>
        <time>2023-02-11T11:29:40.000Z</time>
      </trkpt>
      <trkpt lat="41.65339" lon="-1.909696">
        <ele>1133.8</ele>
        <time>2023-02-11T11:29:41.000Z</time>
      </trkpt>
      <trkpt lat="41.653341" lon="-1.909705">
        <ele>1134</ele>
        <time>2023-02-11T11:29:42.000Z</time>
      </trkpt>
      <trkpt lat="41.653292" lon="-1.909714">
        <ele>1134.2</ele>
        <time>2023-02-11T11:29:43.000Z</time>
      </trkpt>
      <trkpt lat="41.653242" lon="-1.90972">
        <ele>1134.4</ele>
        <time>2023-02-11T11:29:44.000Z</time>
      </trkpt>
      <trkpt lat="41.653192" lon="-1.909723">
        <ele>1134.6</ele>
        <time>2023-02-11T11:29:45.000Z</time>
      </trkpt>
      <trkpt lat="41.65314" lon="-1.909719">
        <ele>1134.8</ele>
        <time>2023-02-11T11:29:46.000Z</time>
      </trkpt>
      <trkpt lat="41.65309" lon="-1.909716">
        <ele>1134.8</ele>
        <time>2023-02-11T11:29:47.000Z</time>
      </trkpt>
      <trkpt lat="41.65304" lon="-1.909715">
        <ele>1135.2</ele>
        <time>2023-02-11T11:29:48.000Z</time>
      </trkpt>
      <trkpt lat="41.652993" lon="-1.909714">
        <ele>1135.4</ele>
        <time>2023-02-11T11:29:49.000Z</time>
      </trkpt>
      <trkpt lat="41.652945" lon="-1.909714">
        <ele>1135.6</ele>
        <time>2023-02-11T11:29:50.000Z</time>
      </trkpt>
      <trkpt lat="41.652899" lon="-1.909715">
        <ele>1136</ele>
        <time>2023-02-11T11:29:51.000Z</time>
      </trkpt>
      <trkpt lat="41.652855" lon="-1.909717">
        <ele>1136.4</ele>
        <time>2023-02-11T11:29:52.000Z</time>
      </trkpt>
      <trkpt lat="41.65281" lon="-1.909717">
        <ele>1137</ele>
        <time>2023-02-11T11:29:53.000Z</time>
      </trkpt>
      <trkpt lat="41.652765" lon="-1.909715">
        <ele>1137.4</ele>
        <time>2023-02-11T11:29:54.000Z</time>
      </trkpt>
      <trkpt lat="41.652719" lon="-1.909714">
        <ele>1137.8</ele>
        <time>2023-02-11T11:29:55.000Z</time>
      </trkpt>
      <trkpt lat="41.652675" lon="-1.909711">
        <ele>1138</ele>
        <time>2023-02-11T11:29:56.000Z</time>
      </trkpt>
      <trkpt lat="41.652633" lon="-1.909705">
        <ele>1138.4</ele>
        <time>2023-02-11T11:29:57.000Z</time>
      </trkpt>
      <trkpt lat="41.652588" lon="-1.909704">
        <ele>1138.4</ele>
        <time>2023-02-11T11:29:58.000Z</time>
      </trkpt>
      <trkpt lat="41.652542" lon="-1.909706">
        <ele>1138.8</ele>
        <time>2023-02-11T11:29:59.000Z</time>
      </trkpt>
      <trkpt lat="41.652496" lon="-1.909704">
        <ele>1139</ele>
        <time>2023-02-11T11:30:00.000Z</time>
      </trkpt>
      <trkpt lat="41.652447" lon="-1.909699">
        <ele>1139.4</ele>
        <time>2023-02-11T11:30:01.000Z</time>
      </trkpt>
      <trkpt lat="41.6524" lon="-1.909699">
        <ele>1139.8</ele>
        <time>2023-02-11T11:30:02.000Z</time>
      </trkpt>
      <trkpt lat="41.652354" lon="-1.909698">
        <ele>1140</ele>
        <time>2023-02-11T11:30:03.000Z</time>
      </trkpt>
      <trkpt lat="41.652306" lon="-1.909697">
        <ele>1140.6</ele>
        <time>2023-02-11T11:30:04.000Z</time>
      </trkpt>
      <trkpt lat="41.652259" lon="-1.909703">
        <ele>1140.8</ele>
        <time>2023-02-11T11:30:05.000Z</time>
      </trkpt>
      <trkpt lat="41.652211" lon="-1.909715">
        <ele>1141.4</ele>
        <time>2023-02-11T11:30:06.000Z</time>
      </trkpt>
      <trkpt lat="41.652162" lon="-1.909731">
        <ele>1141.4</ele>
        <time>2023-02-11T11:30:07.000Z</time>
      </trkpt>
      <trkpt lat="41.652112" lon="-1.909753">
        <ele>1141.6</ele>
        <time>2023-02-11T11:30:08.000Z</time>
      </trkpt>
      <trkpt lat="41.652064" lon="-1.909778">
        <ele>1141.8</ele>
        <time>2023-02-11T11:30:09.000Z</time>
      </trkpt>
      <trkpt lat="41.652017" lon="-1.909808">
        <ele>1142</ele>
        <time>2023-02-11T11:30:10.000Z</time>
      </trkpt>
      <trkpt lat="41.651969" lon="-1.909838">
        <ele>1142.6</ele>
        <time>2023-02-11T11:30:11.000Z</time>
      </trkpt>
      <trkpt lat="41.651922" lon="-1.90987">
        <ele>1142.8</ele>
        <time>2023-02-11T11:30:12.000Z</time>
      </trkpt>
      <trkpt lat="41.651876" lon="-1.909904">
        <ele>1143.4</ele>
        <time>2023-02-11T11:30:13.000Z</time>
      </trkpt>
      <trkpt lat="41.651827" lon="-1.909936">
        <ele>1143.4</ele>
        <time>2023-02-11T11:30:14.000Z</time>
      </trkpt>
      <trkpt lat="41.651778" lon="-1.909967">
        <ele>1143.6</ele>
        <time>2023-02-11T11:30:15.000Z</time>
      </trkpt>
      <trkpt lat="41.651729" lon="-1.910001">
        <ele>1143.8</ele>
        <time>2023-02-11T11:30:16.000Z</time>
      </trkpt>
      <trkpt lat="41.651677" lon="-1.910034">
        <ele>1144.2</ele>
        <time>2023-02-11T11:30:17.000Z</time>
      </trkpt>
      <trkpt lat="41.651623" lon="-1.910063">
        <ele>1144.4</ele>
        <time>2023-02-11T11:30:18.000Z</time>
      </trkpt>
      <trkpt lat="41.651569" lon="-1.910091">
        <ele>1144.8</ele>
        <time>2023-02-11T11:30:19.000Z</time>
      </trkpt>
      <trkpt lat="41.651514" lon="-1.910123">
        <ele>1144.8</ele>
        <time>2023-02-11T11:30:20.000Z</time>
      </trkpt>
      <trkpt lat="41.651463" lon="-1.910162">
        <ele>1145.2</ele>
        <time>2023-02-11T11:30:21.000Z</time>
      </trkpt>
      <trkpt lat="41.651414" lon="-1.910204">
        <ele>1145.2</ele>
        <time>2023-02-11T11:30:22.000Z</time>
      </trkpt>
      <trkpt lat="41.651367" lon="-1.910243">
        <ele>1145.4</ele>
        <time>2023-02-11T11:30:23.000Z</time>
      </trkpt>
      <trkpt lat="41.651317" lon="-1.91028">
        <ele>1145.6</ele>
        <time>2023-02-11T11:30:24.000Z</time>
      </trkpt>
      <trkpt lat="41.651267" lon="-1.91032">
        <ele>1145.6</ele>
        <time>2023-02-11T11:30:25.000Z</time>
      </trkpt>
      <trkpt lat="41.65122" lon="-1.91036">
        <ele>1145.8</ele>
        <time>2023-02-11T11:30:26.000Z</time>
      </trkpt>
      <trkpt lat="41.651175" lon="-1.910399">
        <ele>1146</ele>
        <time>2023-02-11T11:30:27.000Z</time>
      </trkpt>
      <trkpt lat="41.651131" lon="-1.910437">
        <ele>1146.2</ele>
        <time>2023-02-11T11:30:28.000Z</time>
      </trkpt>
      <trkpt lat="41.651087" lon="-1.910475">
        <ele>1146.4</ele>
        <time>2023-02-11T11:30:29.000Z</time>
      </trkpt>
      <trkpt lat="41.651043" lon="-1.910514">
        <ele>1146.4</ele>
        <time>2023-02-11T11:30:30.000Z</time>
      </trkpt>
      <trkpt lat="41.651001" lon="-1.910555">
        <ele>1146.6</ele>
        <time>2023-02-11T11:30:31.000Z</time>
      </trkpt>
      <trkpt lat="41.650959" lon="-1.910593">
        <ele>1146.8</ele>
        <time>2023-02-11T11:30:32.000Z</time>
      </trkpt>
      <trkpt lat="41.650915" lon="-1.91063">
        <ele>1147.2</ele>
        <time>2023-02-11T11:30:33.000Z</time>
      </trkpt>
      <trkpt lat="41.650871" lon="-1.910661">
        <ele>1147.2</ele>
        <time>2023-02-11T11:30:34.000Z</time>
      </trkpt>
      <trkpt lat="41.650829" lon="-1.910691">
        <ele>1147.6</ele>
        <time>2023-02-11T11:30:35.000Z</time>
      </trkpt>
      <trkpt lat="41.650789" lon="-1.91072">
        <ele>1147.6</ele>
        <time>2023-02-11T11:30:36.000Z</time>
      </trkpt>
      <trkpt lat="41.650746" lon="-1.910749">
        <ele>1147.8</ele>
        <time>2023-02-11T11:30:37.000Z</time>
      </trkpt>
      <trkpt lat="41.650702" lon="-1.910779">
        <ele>1148</ele>
        <time>2023-02-11T11:30:38.000Z</time>
      </trkpt>
      <trkpt lat="41.650655" lon="-1.910806">
        <ele>1148</ele>
        <time>2023-02-11T11:30:39.000Z</time>
      </trkpt>
      <trkpt lat="41.650605" lon="-1.910829">
        <ele>1148.2</ele>
        <time>2023-02-11T11:30:40.000Z</time>
      </trkpt>
      <trkpt lat="41.650553" lon="-1.910848">
        <ele>1148.6</ele>
        <time>2023-02-11T11:30:41.000Z</time>
      </trkpt>
      <trkpt lat="41.650503" lon="-1.910869">
        <ele>1148.8</ele>
        <time>2023-02-11T11:30:42.000Z</time>
      </trkpt>
      <trkpt lat="41.650453" lon="-1.910892">
        <ele>1149</ele>
        <time>2023-02-11T11:30:43.000Z</time>
      </trkpt>
      <trkpt lat="41.650404" lon="-1.910918">
        <ele>1149.2</ele>
        <time>2023-02-11T11:30:44.000Z</time>
      </trkpt>
      <trkpt lat="41.650356" lon="-1.910942">
        <ele>1149.4</ele>
        <time>2023-02-11T11:30:45.000Z</time>
      </trkpt>
      <trkpt lat="41.650306" lon="-1.910964">
        <ele>1149.6</ele>
        <time>2023-02-11T11:30:46.000Z</time>
      </trkpt>
      <trkpt lat="41.650256" lon="-1.910988">
        <ele>1149.6</ele>
        <time>2023-02-11T11:30:47.000Z</time>
      </trkpt>
      <trkpt lat="41.650207" lon="-1.911008">
        <ele>1149.8</ele>
        <time>2023-02-11T11:30:48.000Z</time>
      </trkpt>
      <trkpt lat="41.650158" lon="-1.911027">
        <ele>1150</ele>
        <time>2023-02-11T11:30:49.000Z</time>
      </trkpt>
      <trkpt lat="41.650108" lon="-1.911043">
        <ele>1150.2</ele>
        <time>2023-02-11T11:30:50.000Z</time>
      </trkpt>
      <trkpt lat="41.650058" lon="-1.911058">
        <ele>1150.4</ele>
        <time>2023-02-11T11:30:51.000Z</time>
      </trkpt>
      <trkpt lat="41.650011" lon="-1.911073">
        <ele>1150.6</ele>
        <time>2023-02-11T11:30:52.000Z</time>
      </trkpt>
      <trkpt lat="41.649963" lon="-1.911089">
        <ele>1150.8</ele>
        <time>2023-02-11T11:30:53.000Z</time>
      </trkpt>
      <trkpt lat="41.649912" lon="-1.911101">
        <ele>1150.8</ele>
        <time>2023-02-11T11:30:54.000Z</time>
      </trkpt>
      <trkpt lat="41.649861" lon="-1.911113">
        <ele>1151.2</ele>
        <time>2023-02-11T11:30:55.000Z</time>
      </trkpt>
      <trkpt lat="41.649811" lon="-1.911125">
        <ele>1151.4</ele>
        <time>2023-02-11T11:30:56.000Z</time>
      </trkpt>
      <trkpt lat="41.64976" lon="-1.911137">
        <ele>1151.6</ele>
        <time>2023-02-11T11:30:57.000Z</time>
      </trkpt>
      <trkpt lat="41.649708" lon="-1.911146">
        <ele>1151.6</ele>
        <time>2023-02-11T11:30:58.000Z</time>
      </trkpt>
      <trkpt lat="41.649653" lon="-1.911152">
        <ele>1152</ele>
        <time>2023-02-11T11:30:59.000Z</time>
      </trkpt>
      <trkpt lat="41.649599" lon="-1.911157">
        <ele>1152.4</ele>
        <time>2023-02-11T11:31:00.000Z</time>
      </trkpt>
      <trkpt lat="41.649545" lon="-1.911164">
        <ele>1152.4</ele>
        <time>2023-02-11T11:31:01.000Z</time>
      </trkpt>
      <trkpt lat="41.649493" lon="-1.911172">
        <ele>1153</ele>
        <time>2023-02-11T11:31:02.000Z</time>
      </trkpt>
      <trkpt lat="41.64944" lon="-1.911185">
        <ele>1153.2</ele>
        <time>2023-02-11T11:31:03.000Z</time>
      </trkpt>
      <trkpt lat="41.649389" lon="-1.9112">
        <ele>1153.4</ele>
        <time>2023-02-11T11:31:04.000Z</time>
      </trkpt>
      <trkpt lat="41.649338" lon="-1.911218">
        <ele>1153.6</ele>
        <time>2023-02-11T11:31:05.000Z</time>
      </trkpt>
      <trkpt lat="41.649288" lon="-1.911239">
        <ele>1154</ele>
        <time>2023-02-11T11:31:06.000Z</time>
      </trkpt>
      <trkpt lat="41.649236" lon="-1.911263">
        <ele>1154.2</ele>
        <time>2023-02-11T11:31:07.000Z</time>
      </trkpt>
      <trkpt lat="41.649189" lon="-1.91129">
        <ele>1154.6</ele>
        <time>2023-02-11T11:31:08.000Z</time>
      </trkpt>
      <trkpt lat="41.649139" lon="-1.91132">
        <ele>1154.6</ele>
        <time>2023-02-11T11:31:09.000Z</time>
      </trkpt>
      <trkpt lat="41.649091" lon="-1.911354">
        <ele>1155</ele>
        <time>2023-02-11T11:31:10.000Z</time>
      </trkpt>
      <trkpt lat="41.649044" lon="-1.911387">
        <ele>1155.4</ele>
        <time>2023-02-11T11:31:11.000Z</time>
      </trkpt>
      <trkpt lat="41.648992" lon="-1.91142">
        <ele>1155.6</ele>
        <time>2023-02-11T11:31:12.000Z</time>
      </trkpt>
      <trkpt lat="41.648939" lon="-1.911453">
        <ele>1156.2</ele>
        <time>2023-02-11T11:31:13.000Z</time>
      </trkpt>
      <trkpt lat="41.648886" lon="-1.911486">
        <ele>1156.4</ele>
        <time>2023-02-11T11:31:14.000Z</time>
      </trkpt>
      <trkpt lat="41.648832" lon="-1.911522">
        <ele>1157</ele>
        <time>2023-02-11T11:31:15.000Z</time>
      </trkpt>
      <trkpt lat="41.648777" lon="-1.911559">
        <ele>1157</ele>
        <time>2023-02-11T11:31:16.000Z</time>
      </trkpt>
      <trkpt lat="41.648722" lon="-1.911598">
        <ele>1157.4</ele>
        <time>2023-02-11T11:31:17.000Z</time>
      </trkpt>
      <trkpt lat="41.648668" lon="-1.911636">
        <ele>1157.4</ele>
        <time>2023-02-11T11:31:18.000Z</time>
      </trkpt>
      <trkpt lat="41.648612" lon="-1.911678">
        <ele>1157.4</ele>
        <time>2023-02-11T11:31:19.000Z</time>
      </trkpt>
      <trkpt lat="41.648555" lon="-1.911721">
        <ele>1157.6</ele>
        <time>2023-02-11T11:31:20.000Z</time>
      </trkpt>
      <trkpt lat="41.648492" lon="-1.911767">
        <ele>1157.6</ele>
        <time>2023-02-11T11:31:21.000Z</time>
      </trkpt>
      <trkpt lat="41.648426" lon="-1.911818">
        <ele>1157.6</ele>
        <time>2023-02-11T11:31:22.000Z</time>
      </trkpt>
      <trkpt lat="41.648355" lon="-1.911873">
        <ele>1157.6</ele>
        <time>2023-02-11T11:31:23.000Z</time>
      </trkpt>
      <trkpt lat="41.648281" lon="-1.911933">
        <ele>1157.6</ele>
        <time>2023-02-11T11:31:24.000Z</time>
      </trkpt>
      <trkpt lat="41.648206" lon="-1.911994">
        <ele>1157.6</ele>
        <time>2023-02-11T11:31:25.000Z</time>
      </trkpt>
      <trkpt lat="41.648125" lon="-1.91206">
        <ele>1157.4</ele>
        <time>2023-02-11T11:31:26.000Z</time>
      </trkpt>
      <trkpt lat="41.648043" lon="-1.912128">
        <ele>1157.2</ele>
        <time>2023-02-11T11:31:27.000Z</time>
      </trkpt>
      <trkpt lat="41.647956" lon="-1.912194">
        <ele>1156.6</ele>
        <time>2023-02-11T11:31:28.000Z</time>
      </trkpt>
      <trkpt lat="41.647873" lon="-1.912266">
        <ele>1156.4</ele>
        <time>2023-02-11T11:31:29.000Z</time>
      </trkpt>
      <trkpt lat="41.647786" lon="-1.912337">
        <ele>1155.8</ele>
        <time>2023-02-11T11:31:30.000Z</time>
      </trkpt>
      <trkpt lat="41.647697" lon="-1.912408">
        <ele>1155</ele>
        <time>2023-02-11T11:31:31.000Z</time>
      </trkpt>
      <trkpt lat="41.647609" lon="-1.912479">
        <ele>1154.6</ele>
        <time>2023-02-11T11:31:32.000Z</time>
      </trkpt>
      <trkpt lat="41.647523" lon="-1.91255">
        <ele>1153.8</ele>
        <time>2023-02-11T11:31:33.000Z</time>
      </trkpt>
      <trkpt lat="41.647436" lon="-1.912621">
        <ele>1153.4</ele>
        <time>2023-02-11T11:31:34.000Z</time>
      </trkpt>
      <trkpt lat="41.64735" lon="-1.912689">
        <ele>1152.8</ele>
        <time>2023-02-11T11:31:35.000Z</time>
      </trkpt>
      <trkpt lat="41.647266" lon="-1.912755">
        <ele>1152.6</ele>
        <time>2023-02-11T11:31:36.000Z</time>
      </trkpt>
      <trkpt lat="41.647183" lon="-1.91282">
        <ele>1152.2</ele>
        <time>2023-02-11T11:31:37.000Z</time>
      </trkpt>
      <trkpt lat="41.647102" lon="-1.912879">
        <ele>1151.8</ele>
        <time>2023-02-11T11:31:38.000Z</time>
      </trkpt>
      <trkpt lat="41.647021" lon="-1.912938">
        <ele>1151.2</ele>
        <time>2023-02-11T11:31:39.000Z</time>
      </trkpt>
      <trkpt lat="41.646942" lon="-1.912996">
        <ele>1151</ele>
        <time>2023-02-11T11:31:40.000Z</time>
      </trkpt>
      <trkpt lat="41.646865" lon="-1.913052">
        <ele>1150.8</ele>
        <time>2023-02-11T11:31:41.000Z</time>
      </trkpt>
      <trkpt lat="41.646788" lon="-1.913104">
        <ele>1150.6</ele>
        <time>2023-02-11T11:31:42.000Z</time>
      </trkpt>
      <trkpt lat="41.646709" lon="-1.913148">
        <ele>1150.4</ele>
        <time>2023-02-11T11:31:43.000Z</time>
      </trkpt>
      <trkpt lat="41.64663" lon="-1.913187">
        <ele>1150.4</ele>
        <time>2023-02-11T11:31:44.000Z</time>
      </trkpt>
      <trkpt lat="41.646548" lon="-1.913224">
        <ele>1150.2</ele>
        <time>2023-02-11T11:31:45.000Z</time>
      </trkpt>
      <trkpt lat="41.646468" lon="-1.91326">
        <ele>1150.2</ele>
        <time>2023-02-11T11:31:46.000Z</time>
      </trkpt>
      <trkpt lat="41.646389" lon="-1.913292">
        <ele>1150.2</ele>
        <time>2023-02-11T11:31:47.000Z</time>
      </trkpt>
      <trkpt lat="41.646309" lon="-1.913316">
        <ele>1150</ele>
        <time>2023-02-11T11:31:48.000Z</time>
      </trkpt>
      <trkpt lat="41.646226" lon="-1.91333">
        <ele>1150</ele>
        <time>2023-02-11T11:31:49.000Z</time>
      </trkpt>
      <trkpt lat="41.646145" lon="-1.913338">
        <ele>1150</ele>
        <time>2023-02-11T11:31:50.000Z</time>
      </trkpt>
      <trkpt lat="41.646063" lon="-1.913339">
        <ele>1150.2</ele>
        <time>2023-02-11T11:31:51.000Z</time>
      </trkpt>
      <trkpt lat="41.64598" lon="-1.913327">
        <ele>1150.2</ele>
        <time>2023-02-11T11:31:52.000Z</time>
      </trkpt>
      <trkpt lat="41.645899" lon="-1.913304">
        <ele>1150.2</ele>
        <time>2023-02-11T11:31:53.000Z</time>
      </trkpt>
      <trkpt lat="41.645821" lon="-1.913274">
        <ele>1150.2</ele>
        <time>2023-02-11T11:31:54.000Z</time>
      </trkpt>
      <trkpt lat="41.645744" lon="-1.913241">
        <ele>1150.4</ele>
        <time>2023-02-11T11:31:55.000Z</time>
      </trkpt>
      <trkpt lat="41.645666" lon="-1.91321">
        <ele>1150.4</ele>
        <time>2023-02-11T11:31:56.000Z</time>
      </trkpt>
      <trkpt lat="41.645585" lon="-1.913185">
        <ele>1150.2</ele>
        <time>2023-02-11T11:31:57.000Z</time>
      </trkpt>
      <trkpt lat="41.645498" lon="-1.913174">
        <ele>1150.4</ele>
        <time>2023-02-11T11:31:58.000Z</time>
      </trkpt>
      <trkpt lat="41.645411" lon="-1.913181">
        <ele>1150.2</ele>
        <time>2023-02-11T11:31:59.000Z</time>
      </trkpt>
      <trkpt lat="41.645323" lon="-1.913215">
        <ele>1150.2</ele>
        <time>2023-02-11T11:32:00.000Z</time>
      </trkpt>
      <trkpt lat="41.645237" lon="-1.913271">
        <ele>1150</ele>
        <time>2023-02-11T11:32:01.000Z</time>
      </trkpt>
      <trkpt lat="41.645156" lon="-1.913341">
        <ele>1149.8</ele>
        <time>2023-02-11T11:32:02.000Z</time>
      </trkpt>
      <trkpt lat="41.645074" lon="-1.913418">
        <ele>1149.6</ele>
        <time>2023-02-11T11:32:03.000Z</time>
      </trkpt>
      <trkpt lat="41.644992" lon="-1.9135">
        <ele>1149.2</ele>
        <time>2023-02-11T11:32:04.000Z</time>
      </trkpt>
      <trkpt lat="41.644911" lon="-1.913583">
        <ele>1149</ele>
        <time>2023-02-11T11:32:05.000Z</time>
      </trkpt>
      <trkpt lat="41.644823" lon="-1.913666">
        <ele>1148.6</ele>
        <time>2023-02-11T11:32:06.000Z</time>
      </trkpt>
      <trkpt lat="41.644734" lon="-1.913752">
        <ele>1148.4</ele>
        <time>2023-02-11T11:32:07.000Z</time>
      </trkpt>
      <trkpt lat="41.644645" lon="-1.913839">
        <ele>1147.8</ele>
        <time>2023-02-11T11:32:08.000Z</time>
      </trkpt>
      <trkpt lat="41.644555" lon="-1.913926">
        <ele>1147.6</ele>
        <time>2023-02-11T11:32:09.000Z</time>
      </trkpt>
      <trkpt lat="41.644466" lon="-1.914015">
        <ele>1146.8</ele>
        <time>2023-02-11T11:32:10.000Z</time>
      </trkpt>
      <trkpt lat="41.644379" lon="-1.91411">
        <ele>1146.2</ele>
        <time>2023-02-11T11:32:11.000Z</time>
      </trkpt>
      <trkpt lat="41.644286" lon="-1.914206">
        <ele>1146</ele>
        <time>2023-02-11T11:32:12.000Z</time>
      </trkpt>
      <trkpt lat="41.64419" lon="-1.914304">
        <ele>1145</ele>
        <time>2023-02-11T11:32:13.000Z</time>
      </trkpt>
      <trkpt lat="41.644091" lon="-1.914404">
        <ele>1144.6</ele>
        <time>2023-02-11T11:32:14.000Z</time>
      </trkpt>
      <trkpt lat="41.64399" lon="-1.914506">
        <ele>1144</ele>
        <time>2023-02-11T11:32:15.000Z</time>
      </trkpt>
      <trkpt lat="41.643885" lon="-1.914609">
        <ele>1143</ele>
        <time>2023-02-11T11:32:16.000Z</time>
      </trkpt>
      <trkpt lat="41.643777" lon="-1.914716">
        <ele>1141.6</ele>
        <time>2023-02-11T11:32:17.000Z</time>
      </trkpt>
      <trkpt lat="41.643667" lon="-1.914828">
        <ele>1141.2</ele>
        <time>2023-02-11T11:32:18.000Z</time>
      </trkpt>
      <trkpt lat="41.643553" lon="-1.914938">
        <ele>1139.8</ele>
        <time>2023-02-11T11:32:19.000Z</time>
      </trkpt>
      <trkpt lat="41.643439" lon="-1.915045">
        <ele>1138.4</ele>
        <time>2023-02-11T11:32:20.000Z</time>
      </trkpt>
      <trkpt lat="41.643327" lon="-1.915151">
        <ele>1137.8</ele>
        <time>2023-02-11T11:32:21.000Z</time>
      </trkpt>
      <trkpt lat="41.643222" lon="-1.915255">
        <ele>1136.6</ele>
        <time>2023-02-11T11:32:22.000Z</time>
      </trkpt>
      <trkpt lat="41.643119" lon="-1.915354">
        <ele>1136.2</ele>
        <time>2023-02-11T11:32:23.000Z</time>
      </trkpt>
      <trkpt lat="41.643017" lon="-1.915452">
        <ele>1135.2</ele>
        <time>2023-02-11T11:32:24.000Z</time>
      </trkpt>
      <trkpt lat="41.642917" lon="-1.915541">
        <ele>1134.8</ele>
        <time>2023-02-11T11:32:25.000Z</time>
      </trkpt>
      <trkpt lat="41.642816" lon="-1.915619">
        <ele>1134.2</ele>
        <time>2023-02-11T11:32:26.000Z</time>
      </trkpt>
      <trkpt lat="41.642713" lon="-1.915693">
        <ele>1134</ele>
        <time>2023-02-11T11:32:27.000Z</time>
      </trkpt>
      <trkpt lat="41.642612" lon="-1.915762">
        <ele>1133.2</ele>
        <time>2023-02-11T11:32:28.000Z</time>
      </trkpt>
      <trkpt lat="41.642509" lon="-1.915828">
        <ele>1132.8</ele>
        <time>2023-02-11T11:32:29.000Z</time>
      </trkpt>
      <trkpt lat="41.642406" lon="-1.915893">
        <ele>1132.2</ele>
        <time>2023-02-11T11:32:30.000Z</time>
      </trkpt>
      <trkpt lat="41.642306" lon="-1.91596">
        <ele>1131.8</ele>
        <time>2023-02-11T11:32:31.000Z</time>
      </trkpt>
      <trkpt lat="41.6422" lon="-1.916025">
        <ele>1131.6</ele>
        <time>2023-02-11T11:32:32.000Z</time>
      </trkpt>
      <trkpt lat="41.642095" lon="-1.916089">
        <ele>1130.6</ele>
        <time>2023-02-11T11:32:33.000Z</time>
      </trkpt>
      <trkpt lat="41.64199" lon="-1.916152">
        <ele>1130.4</ele>
        <time>2023-02-11T11:32:34.000Z</time>
      </trkpt>
      <trkpt lat="41.641889" lon="-1.916217">
        <ele>1130</ele>
        <time>2023-02-11T11:32:35.000Z</time>
      </trkpt>
      <trkpt lat="41.641792" lon="-1.916276">
        <ele>1129.6</ele>
        <time>2023-02-11T11:32:36.000Z</time>
      </trkpt>
      <trkpt lat="41.641698" lon="-1.916335">
        <ele>1129.4</ele>
        <time>2023-02-11T11:32:37.000Z</time>
      </trkpt>
      <trkpt lat="41.641609" lon="-1.916395">
        <ele>1129.2</ele>
        <time>2023-02-11T11:32:38.000Z</time>
      </trkpt>
      <trkpt lat="41.641523" lon="-1.916453">
        <ele>1129.2</ele>
        <time>2023-02-11T11:32:39.000Z</time>
      </trkpt>
      <trkpt lat="41.64144" lon="-1.91651">
        <ele>1129.2</ele>
        <time>2023-02-11T11:32:40.000Z</time>
      </trkpt>
      <trkpt lat="41.641358" lon="-1.916559">
        <ele>1129.2</ele>
        <time>2023-02-11T11:32:41.000Z</time>
      </trkpt>
      <trkpt lat="41.641284" lon="-1.916609">
        <ele>1129.2</ele>
        <time>2023-02-11T11:32:42.000Z</time>
      </trkpt>
      <trkpt lat="41.641209" lon="-1.916656">
        <ele>1129.2</ele>
        <time>2023-02-11T11:32:43.000Z</time>
      </trkpt>
      <trkpt lat="41.641135" lon="-1.9167">
        <ele>1129.2</ele>
        <time>2023-02-11T11:32:44.000Z</time>
      </trkpt>
      <trkpt lat="41.641062" lon="-1.916746">
        <ele>1129.4</ele>
        <time>2023-02-11T11:32:45.000Z</time>
      </trkpt>
      <trkpt lat="41.640993" lon="-1.916793">
        <ele>1129.6</ele>
        <time>2023-02-11T11:32:46.000Z</time>
      </trkpt>
      <trkpt lat="41.640927" lon="-1.91684">
        <ele>1129.6</ele>
        <time>2023-02-11T11:32:47.000Z</time>
      </trkpt>
      <trkpt lat="41.640861" lon="-1.916889">
        <ele>1130</ele>
        <time>2023-02-11T11:32:48.000Z</time>
      </trkpt>
      <trkpt lat="41.640799" lon="-1.916947">
        <ele>1130.2</ele>
        <time>2023-02-11T11:32:49.000Z</time>
      </trkpt>
      <trkpt lat="41.640742" lon="-1.917013">
        <ele>1130.6</ele>
        <time>2023-02-11T11:32:50.000Z</time>
      </trkpt>
      <trkpt lat="41.640689" lon="-1.917086">
        <ele>1131</ele>
        <time>2023-02-11T11:32:51.000Z</time>
      </trkpt>
      <trkpt lat="41.640638" lon="-1.917161">
        <ele>1131</ele>
        <time>2023-02-11T11:32:52.000Z</time>
      </trkpt>
      <trkpt lat="41.640589" lon="-1.917239">
        <ele>1131.2</ele>
        <time>2023-02-11T11:32:53.000Z</time>
      </trkpt>
      <trkpt lat="41.640542" lon="-1.917317">
        <ele>1131.2</ele>
        <time>2023-02-11T11:32:54.000Z</time>
      </trkpt>
      <trkpt lat="41.640496" lon="-1.917396">
        <ele>1131.2</ele>
        <time>2023-02-11T11:32:55.000Z</time>
      </trkpt>
      <trkpt lat="41.640448" lon="-1.917475">
        <ele>1131.4</ele>
        <time>2023-02-11T11:32:56.000Z</time>
      </trkpt>
      <trkpt lat="41.640402" lon="-1.917555">
        <ele>1131.6</ele>
        <time>2023-02-11T11:32:57.000Z</time>
      </trkpt>
      <trkpt lat="41.640356" lon="-1.917634">
        <ele>1131.6</ele>
        <time>2023-02-11T11:32:58.000Z</time>
      </trkpt>
      <trkpt lat="41.640309" lon="-1.917711">
        <ele>1131.6</ele>
        <time>2023-02-11T11:32:59.000Z</time>
      </trkpt>
      <trkpt lat="41.640262" lon="-1.917787">
        <ele>1132</ele>
        <time>2023-02-11T11:33:00.000Z</time>
      </trkpt>
      <trkpt lat="41.640216" lon="-1.917862">
        <ele>1132</ele>
        <time>2023-02-11T11:33:01.000Z</time>
      </trkpt>
      <trkpt lat="41.640172" lon="-1.917932">
        <ele>1132.2</ele>
        <time>2023-02-11T11:33:02.000Z</time>
      </trkpt>
      <trkpt lat="41.64013" lon="-1.918">
        <ele>1132.6</ele>
        <time>2023-02-11T11:33:03.000Z</time>
      </trkpt>
      <trkpt lat="41.640092" lon="-1.91807">
        <ele>1133</ele>
        <time>2023-02-11T11:33:04.000Z</time>
      </trkpt>
      <trkpt lat="41.640053" lon="-1.918137">
        <ele>1133.2</ele>
        <time>2023-02-11T11:33:05.000Z</time>
      </trkpt>
      <trkpt lat="41.640016" lon="-1.9182">
        <ele>1133.2</ele>
        <time>2023-02-11T11:33:06.000Z</time>
      </trkpt>
      <trkpt lat="41.639976" lon="-1.918261">
        <ele>1133.4</ele>
        <time>2023-02-11T11:33:07.000Z</time>
      </trkpt>
      <trkpt lat="41.639936" lon="-1.91833">
        <ele>1133.6</ele>
        <time>2023-02-11T11:33:08.000Z</time>
      </trkpt>
      <trkpt lat="41.639897" lon="-1.918394">
        <ele>1133.8</ele>
        <time>2023-02-11T11:33:09.000Z</time>
      </trkpt>
      <trkpt lat="41.639859" lon="-1.918458">
        <ele>1134.2</ele>
        <time>2023-02-11T11:33:10.000Z</time>
      </trkpt>
      <trkpt lat="41.639821" lon="-1.918524">
        <ele>1134.6</ele>
        <time>2023-02-11T11:33:11.000Z</time>
      </trkpt>
      <trkpt lat="41.639785" lon="-1.918587">
        <ele>1134.8</ele>
        <time>2023-02-11T11:33:12.000Z</time>
      </trkpt>
      <trkpt lat="41.639749" lon="-1.918648">
        <ele>1135</ele>
        <time>2023-02-11T11:33:13.000Z</time>
      </trkpt>
      <trkpt lat="41.639715" lon="-1.91871">
        <ele>1135.2</ele>
        <time>2023-02-11T11:33:14.000Z</time>
      </trkpt>
      <trkpt lat="41.639684" lon="-1.918773">
        <ele>1135.4</ele>
        <time>2023-02-11T11:33:15.000Z</time>
      </trkpt>
      <trkpt lat="41.639653" lon="-1.918835">
        <ele>1135.6</ele>
        <time>2023-02-11T11:33:16.000Z</time>
      </trkpt>
      <trkpt lat="41.639625" lon="-1.918896">
        <ele>1136</ele>
        <time>2023-02-11T11:33:17.000Z</time>
      </trkpt>
      <trkpt lat="41.639597" lon="-1.918953">
        <ele>1136.2</ele>
        <time>2023-02-11T11:33:18.000Z</time>
      </trkpt>
      <trkpt lat="41.639573" lon="-1.919012">
        <ele>1136.8</ele>
        <time>2023-02-11T11:33:19.000Z</time>
      </trkpt>
      <trkpt lat="41.639546" lon="-1.919071">
        <ele>1137.4</ele>
        <time>2023-02-11T11:33:20.000Z</time>
      </trkpt>
      <trkpt lat="41.639521" lon="-1.919132">
        <ele>1137.8</ele>
        <time>2023-02-11T11:33:21.000Z</time>
      </trkpt>
      <trkpt lat="41.639496" lon="-1.919188">
        <ele>1138.6</ele>
        <time>2023-02-11T11:33:22.000Z</time>
      </trkpt>
      <trkpt lat="41.639471" lon="-1.919246">
        <ele>1138.8</ele>
        <time>2023-02-11T11:33:23.000Z</time>
      </trkpt>
      <trkpt lat="41.639447" lon="-1.919306">
        <ele>1139.2</ele>
        <time>2023-02-11T11:33:24.000Z</time>
      </trkpt>
      <trkpt lat="41.63942" lon="-1.919364">
        <ele>1139.2</ele>
        <time>2023-02-11T11:33:25.000Z</time>
      </trkpt>
      <trkpt lat="41.639392" lon="-1.919424">
        <ele>1139.6</ele>
        <time>2023-02-11T11:33:26.000Z</time>
      </trkpt>
      <trkpt lat="41.639363" lon="-1.919479">
        <ele>1139.8</ele>
        <time>2023-02-11T11:33:27.000Z</time>
      </trkpt>
      <trkpt lat="41.639331" lon="-1.919534">
        <ele>1140</ele>
        <time>2023-02-11T11:33:28.000Z</time>
      </trkpt>
      <trkpt lat="41.639298" lon="-1.919586">
        <ele>1140</ele>
        <time>2023-02-11T11:33:29.000Z</time>
      </trkpt>
      <trkpt lat="41.639263" lon="-1.919638">
        <ele>1140.2</ele>
        <time>2023-02-11T11:33:30.000Z</time>
      </trkpt>
      <trkpt lat="41.639227" lon="-1.91969">
        <ele>1140.6</ele>
        <time>2023-02-11T11:33:31.000Z</time>
      </trkpt>
      <trkpt lat="41.639189" lon="-1.919746">
        <ele>1140.8</ele>
        <time>2023-02-11T11:33:32.000Z</time>
      </trkpt>
      <trkpt lat="41.639149" lon="-1.9198">
        <ele>1141.2</ele>
        <time>2023-02-11T11:33:33.000Z</time>
      </trkpt>
      <trkpt lat="41.639104" lon="-1.919852">
        <ele>1141.4</ele>
        <time>2023-02-11T11:33:34.000Z</time>
      </trkpt>
      <trkpt lat="41.639056" lon="-1.919903">
        <ele>1141.6</ele>
        <time>2023-02-11T11:33:35.000Z</time>
      </trkpt>
      <trkpt lat="41.639008" lon="-1.919959">
        <ele>1141.6</ele>
        <time>2023-02-11T11:33:36.000Z</time>
      </trkpt>
      <trkpt lat="41.638959" lon="-1.920013">
        <ele>1141.8</ele>
        <time>2023-02-11T11:33:37.000Z</time>
      </trkpt>
      <trkpt lat="41.638907" lon="-1.920069">
        <ele>1141.8</ele>
        <time>2023-02-11T11:33:38.000Z</time>
      </trkpt>
      <trkpt lat="41.638851" lon="-1.920125">
        <ele>1142</ele>
        <time>2023-02-11T11:33:39.000Z</time>
      </trkpt>
      <trkpt lat="41.638796" lon="-1.920181">
        <ele>1142.2</ele>
        <time>2023-02-11T11:33:40.000Z</time>
      </trkpt>
      <trkpt lat="41.638741" lon="-1.920239">
        <ele>1142.2</ele>
        <time>2023-02-11T11:33:41.000Z</time>
      </trkpt>
      <trkpt lat="41.638683" lon="-1.920296">
        <ele>1142.4</ele>
        <time>2023-02-11T11:33:42.000Z</time>
      </trkpt>
      <trkpt lat="41.638625" lon="-1.920355">
        <ele>1142.4</ele>
        <time>2023-02-11T11:33:43.000Z</time>
      </trkpt>
      <trkpt lat="41.638569" lon="-1.920416">
        <ele>1142.4</ele>
        <time>2023-02-11T11:33:44.000Z</time>
      </trkpt>
      <trkpt lat="41.638506" lon="-1.920475">
        <ele>1142.4</ele>
        <time>2023-02-11T11:33:45.000Z</time>
      </trkpt>
      <trkpt lat="41.638437" lon="-1.920526">
        <ele>1142.4</ele>
        <time>2023-02-11T11:33:46.000Z</time>
      </trkpt>
      <trkpt lat="41.638366" lon="-1.920576">
        <ele>1142.4</ele>
        <time>2023-02-11T11:33:47.000Z</time>
      </trkpt>
      <trkpt lat="41.638294" lon="-1.920625">
        <ele>1142.2</ele>
        <time>2023-02-11T11:33:48.000Z</time>
      </trkpt>
      <trkpt lat="41.638217" lon="-1.920667">
        <ele>1142</ele>
        <time>2023-02-11T11:33:49.000Z</time>
      </trkpt>
      <trkpt lat="41.638137" lon="-1.920708">
        <ele>1142</ele>
        <time>2023-02-11T11:33:50.000Z</time>
      </trkpt>
      <trkpt lat="41.638054" lon="-1.920749">
        <ele>1142</ele>
        <time>2023-02-11T11:33:51.000Z</time>
      </trkpt>
      <trkpt lat="41.637972" lon="-1.920789">
        <ele>1142</ele>
        <time>2023-02-11T11:33:52.000Z</time>
      </trkpt>
      <trkpt lat="41.637893" lon="-1.92083">
        <ele>1141.8</ele>
        <time>2023-02-11T11:33:53.000Z</time>
      </trkpt>
      <trkpt lat="41.637814" lon="-1.920869">
        <ele>1141.8</ele>
        <time>2023-02-11T11:33:54.000Z</time>
      </trkpt>
      <trkpt lat="41.637737" lon="-1.92091">
        <ele>1141.6</ele>
        <time>2023-02-11T11:33:55.000Z</time>
      </trkpt>
      <trkpt lat="41.637664" lon="-1.92095">
        <ele>1141.4</ele>
        <time>2023-02-11T11:33:56.000Z</time>
      </trkpt>
      <trkpt lat="41.637595" lon="-1.92099">
        <ele>1141.2</ele>
        <time>2023-02-11T11:33:57.000Z</time>
      </trkpt>
      <trkpt lat="41.637529" lon="-1.921033">
        <ele>1141.2</ele>
        <time>2023-02-11T11:33:58.000Z</time>
      </trkpt>
      <trkpt lat="41.63747" lon="-1.921077">
        <ele>1141.2</ele>
        <time>2023-02-11T11:33:59.000Z</time>
      </trkpt>
      <trkpt lat="41.63741" lon="-1.921125">
        <ele>1141.4</ele>
        <time>2023-02-11T11:34:00.000Z</time>
      </trkpt>
      <trkpt lat="41.637353" lon="-1.921178">
        <ele>1141.6</ele>
        <time>2023-02-11T11:34:01.000Z</time>
      </trkpt>
      <trkpt lat="41.637296" lon="-1.921239">
        <ele>1141.8</ele>
        <time>2023-02-11T11:34:02.000Z</time>
      </trkpt>
      <trkpt lat="41.637241" lon="-1.921305">
        <ele>1142</ele>
        <time>2023-02-11T11:34:03.000Z</time>
      </trkpt>
      <trkpt lat="41.637185" lon="-1.921379">
        <ele>1142</ele>
        <time>2023-02-11T11:34:04.000Z</time>
      </trkpt>
      <trkpt lat="41.637127" lon="-1.921459">
        <ele>1142.2</ele>
        <time>2023-02-11T11:34:05.000Z</time>
      </trkpt>
      <trkpt lat="41.637068" lon="-1.921546">
        <ele>1142.2</ele>
        <time>2023-02-11T11:34:06.000Z</time>
      </trkpt>
      <trkpt lat="41.637008" lon="-1.92164">
        <ele>1142.2</ele>
        <time>2023-02-11T11:34:07.000Z</time>
      </trkpt>
      <trkpt lat="41.63695" lon="-1.921742">
        <ele>1142.2</ele>
        <time>2023-02-11T11:34:08.000Z</time>
      </trkpt>
      <trkpt lat="41.63689" lon="-1.92185">
        <ele>1142</ele>
        <time>2023-02-11T11:34:09.000Z</time>
      </trkpt>
      <trkpt lat="41.636823" lon="-1.921959">
        <ele>1142</ele>
        <time>2023-02-11T11:34:10.000Z</time>
      </trkpt>
      <trkpt lat="41.636755" lon="-1.922071">
        <ele>1141.6</ele>
        <time>2023-02-11T11:34:11.000Z</time>
      </trkpt>
      <trkpt lat="41.636688" lon="-1.922184">
        <ele>1141.4</ele>
        <time>2023-02-11T11:34:12.000Z</time>
      </trkpt>
      <trkpt lat="41.636619" lon="-1.9223">
        <ele>1140.4</ele>
        <time>2023-02-11T11:34:13.000Z</time>
      </trkpt>
      <trkpt lat="41.636548" lon="-1.922417">
        <ele>1140</ele>
        <time>2023-02-11T11:34:14.000Z</time>
      </trkpt>
      <trkpt lat="41.636477" lon="-1.922533">
        <ele>1139.2</ele>
        <time>2023-02-11T11:34:15.000Z</time>
      </trkpt>
      <trkpt lat="41.636406" lon="-1.922649">
        <ele>1138.8</ele>
        <time>2023-02-11T11:34:16.000Z</time>
      </trkpt>
      <trkpt lat="41.636339" lon="-1.92276">
        <ele>1138</ele>
        <time>2023-02-11T11:34:17.000Z</time>
      </trkpt>
      <trkpt lat="41.636272" lon="-1.922868">
        <ele>1137.4</ele>
        <time>2023-02-11T11:34:18.000Z</time>
      </trkpt>
      <trkpt lat="41.636207" lon="-1.922975">
        <ele>1136.8</ele>
        <time>2023-02-11T11:34:19.000Z</time>
      </trkpt>
      <trkpt lat="41.636146" lon="-1.92308">
        <ele>1136.6</ele>
        <time>2023-02-11T11:34:20.000Z</time>
      </trkpt>
      <trkpt lat="41.636086" lon="-1.923181">
        <ele>1136.4</ele>
        <time>2023-02-11T11:34:21.000Z</time>
      </trkpt>
      <trkpt lat="41.636025" lon="-1.923281">
        <ele>1136</ele>
        <time>2023-02-11T11:34:22.000Z</time>
      </trkpt>
      <trkpt lat="41.635964" lon="-1.923377">
        <ele>1135.8</ele>
        <time>2023-02-11T11:34:23.000Z</time>
      </trkpt>
      <trkpt lat="41.635905" lon="-1.923473">
        <ele>1135.8</ele>
        <time>2023-02-11T11:34:24.000Z</time>
      </trkpt>
      <trkpt lat="41.63585" lon="-1.923574">
        <ele>1135.8</ele>
        <time>2023-02-11T11:34:25.000Z</time>
      </trkpt>
      <trkpt lat="41.635794" lon="-1.923674">
        <ele>1135.6</ele>
        <time>2023-02-11T11:34:26.000Z</time>
      </trkpt>
      <trkpt lat="41.635735" lon="-1.923772">
        <ele>1135.6</ele>
        <time>2023-02-11T11:34:27.000Z</time>
      </trkpt>
      <trkpt lat="41.635678" lon="-1.923869">
        <ele>1135.4</ele>
        <time>2023-02-11T11:34:28.000Z</time>
      </trkpt>
      <trkpt lat="41.635619" lon="-1.923968">
        <ele>1135.2</ele>
        <time>2023-02-11T11:34:29.000Z</time>
      </trkpt>
      <trkpt lat="41.63556" lon="-1.924065">
        <ele>1135.2</ele>
        <time>2023-02-11T11:34:30.000Z</time>
      </trkpt>
      <trkpt lat="41.6355" lon="-1.924161">
        <ele>1135</ele>
        <time>2023-02-11T11:34:31.000Z</time>
      </trkpt>
      <trkpt lat="41.635444" lon="-1.924257">
        <ele>1135</ele>
        <time>2023-02-11T11:34:32.000Z</time>
      </trkpt>
      <trkpt lat="41.63539" lon="-1.924351">
        <ele>1134.8</ele>
        <time>2023-02-11T11:34:33.000Z</time>
      </trkpt>
      <trkpt lat="41.635336" lon="-1.924443">
        <ele>1134.8</ele>
        <time>2023-02-11T11:34:34.000Z</time>
      </trkpt>
      <trkpt lat="41.635281" lon="-1.924535">
        <ele>1134.6</ele>
        <time>2023-02-11T11:34:35.000Z</time>
      </trkpt>
      <trkpt lat="41.635227" lon="-1.924626">
        <ele>1134.4</ele>
        <time>2023-02-11T11:34:36.000Z</time>
      </trkpt>
      <trkpt lat="41.635171" lon="-1.924715">
        <ele>1134</ele>
        <time>2023-02-11T11:34:37.000Z</time>
      </trkpt>
      <trkpt lat="41.635115" lon="-1.924806">
        <ele>1134</ele>
        <time>2023-02-11T11:34:38.000Z</time>
      </trkpt>
      <trkpt lat="41.635061" lon="-1.924898">
        <ele>1133.8</ele>
        <time>2023-02-11T11:34:39.000Z</time>
      </trkpt>
      <trkpt lat="41.635004" lon="-1.92499">
        <ele>1133.6</ele>
        <time>2023-02-11T11:34:40.000Z</time>
      </trkpt>
      <trkpt lat="41.634946" lon="-1.925083">
        <ele>1133.4</ele>
        <time>2023-02-11T11:34:41.000Z</time>
      </trkpt>
      <trkpt lat="41.634889" lon="-1.925176">
        <ele>1133.4</ele>
        <time>2023-02-11T11:34:42.000Z</time>
      </trkpt>
      <trkpt lat="41.63483" lon="-1.925268">
        <ele>1133.4</ele>
        <time>2023-02-11T11:34:43.000Z</time>
      </trkpt>
      <trkpt lat="41.634771" lon="-1.92536">
        <ele>1133.4</ele>
        <time>2023-02-11T11:34:44.000Z</time>
      </trkpt>
      <trkpt lat="41.634714" lon="-1.925454">
        <ele>1133.4</ele>
        <time>2023-02-11T11:34:45.000Z</time>
      </trkpt>
      <trkpt lat="41.634655" lon="-1.92555">
        <ele>1133.2</ele>
        <time>2023-02-11T11:34:46.000Z</time>
      </trkpt>
      <trkpt lat="41.6346" lon="-1.925646">
        <ele>1133.2</ele>
        <time>2023-02-11T11:34:47.000Z</time>
      </trkpt>
      <trkpt lat="41.634544" lon="-1.925743">
        <ele>1133.2</ele>
        <time>2023-02-11T11:34:48.000Z</time>
      </trkpt>
      <trkpt lat="41.634488" lon="-1.92584">
        <ele>1133.2</ele>
        <time>2023-02-11T11:34:49.000Z</time>
      </trkpt>
      <trkpt lat="41.634433" lon="-1.925935">
        <ele>1133.2</ele>
        <time>2023-02-11T11:34:50.000Z</time>
      </trkpt>
      <trkpt lat="41.634376" lon="-1.926028">
        <ele>1133.2</ele>
        <time>2023-02-11T11:34:51.000Z</time>
      </trkpt>
      <trkpt lat="41.634322" lon="-1.926119">
        <ele>1133.2</ele>
        <time>2023-02-11T11:34:52.000Z</time>
      </trkpt>
      <trkpt lat="41.634267" lon="-1.926212">
        <ele>1133</ele>
        <time>2023-02-11T11:34:53.000Z</time>
      </trkpt>
      <trkpt lat="41.63421" lon="-1.926307">
        <ele>1133</ele>
        <time>2023-02-11T11:34:54.000Z</time>
      </trkpt>
      <trkpt lat="41.634155" lon="-1.926405">
        <ele>1133</ele>
        <time>2023-02-11T11:34:55.000Z</time>
      </trkpt>
      <trkpt lat="41.634097" lon="-1.926504">
        <ele>1132.8</ele>
        <time>2023-02-11T11:34:56.000Z</time>
      </trkpt>
      <trkpt lat="41.634038" lon="-1.926607">
        <ele>1132.8</ele>
        <time>2023-02-11T11:34:57.000Z</time>
      </trkpt>
      <trkpt lat="41.633979" lon="-1.926714">
        <ele>1132.6</ele>
        <time>2023-02-11T11:34:58.000Z</time>
      </trkpt>
      <trkpt lat="41.633916" lon="-1.926819">
        <ele>1132.4</ele>
        <time>2023-02-11T11:34:59.000Z</time>
      </trkpt>
      <trkpt lat="41.63385" lon="-1.926924">
        <ele>1132.2</ele>
        <time>2023-02-11T11:35:00.000Z</time>
      </trkpt>
      <trkpt lat="41.633785" lon="-1.92703">
        <ele>1132.2</ele>
        <time>2023-02-11T11:35:01.000Z</time>
      </trkpt>
      <trkpt lat="41.633722" lon="-1.927139">
        <ele>1132</ele>
        <time>2023-02-11T11:35:02.000Z</time>
      </trkpt>
      <trkpt lat="41.633659" lon="-1.927246">
        <ele>1132</ele>
        <time>2023-02-11T11:35:03.000Z</time>
      </trkpt>
      <trkpt lat="41.633596" lon="-1.92735">
        <ele>1131.8</ele>
        <time>2023-02-11T11:35:04.000Z</time>
      </trkpt>
      <trkpt lat="41.633535" lon="-1.927449">
        <ele>1131.6</ele>
        <time>2023-02-11T11:35:05.000Z</time>
      </trkpt>
      <trkpt lat="41.633474" lon="-1.927544">
        <ele>1131.6</ele>
        <time>2023-02-11T11:35:06.000Z</time>
      </trkpt>
      <trkpt lat="41.633417" lon="-1.927637">
        <ele>1131.6</ele>
        <time>2023-02-11T11:35:07.000Z</time>
      </trkpt>
      <trkpt lat="41.633362" lon="-1.927727">
        <ele>1131.6</ele>
        <time>2023-02-11T11:35:08.000Z</time>
      </trkpt>
      <trkpt lat="41.633306" lon="-1.927813">
        <ele>1131.6</ele>
        <time>2023-02-11T11:35:09.000Z</time>
      </trkpt>
      <trkpt lat="41.633253" lon="-1.9279">
        <ele>1131.8</ele>
        <time>2023-02-11T11:35:10.000Z</time>
      </trkpt>
      <trkpt lat="41.633202" lon="-1.927988">
        <ele>1132</ele>
        <time>2023-02-11T11:35:11.000Z</time>
      </trkpt>
      <trkpt lat="41.633155" lon="-1.928074">
        <ele>1132.2</ele>
        <time>2023-02-11T11:35:12.000Z</time>
      </trkpt>
      <trkpt lat="41.633108" lon="-1.928159">
        <ele>1132.4</ele>
        <time>2023-02-11T11:35:13.000Z</time>
      </trkpt>
      <trkpt lat="41.633058" lon="-1.928243">
        <ele>1132.4</ele>
        <time>2023-02-11T11:35:14.000Z</time>
      </trkpt>
      <trkpt lat="41.633011" lon="-1.928326">
        <ele>1132.6</ele>
        <time>2023-02-11T11:35:15.000Z</time>
      </trkpt>
      <trkpt lat="41.63296" lon="-1.928407">
        <ele>1132.8</ele>
        <time>2023-02-11T11:35:16.000Z</time>
      </trkpt>
      <trkpt lat="41.632911" lon="-1.928488">
        <ele>1132.8</ele>
        <time>2023-02-11T11:35:17.000Z</time>
      </trkpt>
      <trkpt lat="41.632861" lon="-1.92857">
        <ele>1133.2</ele>
        <time>2023-02-11T11:35:18.000Z</time>
      </trkpt>
      <trkpt lat="41.632812" lon="-1.92865">
        <ele>1133.2</ele>
        <time>2023-02-11T11:35:19.000Z</time>
      </trkpt>
      <trkpt lat="41.632762" lon="-1.928728">
        <ele>1133.4</ele>
        <time>2023-02-11T11:35:20.000Z</time>
      </trkpt>
      <trkpt lat="41.632711" lon="-1.928804">
        <ele>1133.4</ele>
        <time>2023-02-11T11:35:21.000Z</time>
      </trkpt>
      <trkpt lat="41.63266" lon="-1.928882">
        <ele>1133.8</ele>
        <time>2023-02-11T11:35:22.000Z</time>
      </trkpt>
      <trkpt lat="41.632609" lon="-1.928958">
        <ele>1134</ele>
        <time>2023-02-11T11:35:23.000Z</time>
      </trkpt>
      <trkpt lat="41.632556" lon="-1.929033">
        <ele>1134.2</ele>
        <time>2023-02-11T11:35:24.000Z</time>
      </trkpt>
      <trkpt lat="41.632503" lon="-1.929105">
        <ele>1134.2</ele>
        <time>2023-02-11T11:35:25.000Z</time>
      </trkpt>
      <trkpt lat="41.632445" lon="-1.92917">
        <ele>1134.2</ele>
        <time>2023-02-11T11:35:26.000Z</time>
      </trkpt>
      <trkpt lat="41.63239" lon="-1.929234">
        <ele>1134.4</ele>
        <time>2023-02-11T11:35:27.000Z</time>
      </trkpt>
      <trkpt lat="41.632334" lon="-1.929294">
        <ele>1134.4</ele>
        <time>2023-02-11T11:35:28.000Z</time>
      </trkpt>
      <trkpt lat="41.632276" lon="-1.929353">
        <ele>1134.8</ele>
        <time>2023-02-11T11:35:29.000Z</time>
      </trkpt>
      <trkpt lat="41.632217" lon="-1.929411">
        <ele>1134.8</ele>
        <time>2023-02-11T11:35:30.000Z</time>
      </trkpt>
      <trkpt lat="41.632157" lon="-1.92947">
        <ele>1135</ele>
        <time>2023-02-11T11:35:31.000Z</time>
      </trkpt>
      <trkpt lat="41.632096" lon="-1.929526">
        <ele>1135.2</ele>
        <time>2023-02-11T11:35:32.000Z</time>
      </trkpt>
      <trkpt lat="41.632036" lon="-1.929583">
        <ele>1135.6</ele>
        <time>2023-02-11T11:35:33.000Z</time>
      </trkpt>
      <trkpt lat="41.631974" lon="-1.929642">
        <ele>1135.8</ele>
        <time>2023-02-11T11:35:34.000Z</time>
      </trkpt>
      <trkpt lat="41.631914" lon="-1.929702">
        <ele>1136</ele>
        <time>2023-02-11T11:35:35.000Z</time>
      </trkpt>
      <trkpt lat="41.631855" lon="-1.929761">
        <ele>1136.2</ele>
        <time>2023-02-11T11:35:36.000Z</time>
      </trkpt>
      <trkpt lat="41.631793" lon="-1.929818">
        <ele>1136.2</ele>
        <time>2023-02-11T11:35:37.000Z</time>
      </trkpt>
      <trkpt lat="41.63173" lon="-1.929876">
        <ele>1136.4</ele>
        <time>2023-02-11T11:35:38.000Z</time>
      </trkpt>
      <trkpt lat="41.63167" lon="-1.929934">
        <ele>1136.4</ele>
        <time>2023-02-11T11:35:39.000Z</time>
      </trkpt>
      <trkpt lat="41.631611" lon="-1.929994">
        <ele>1136.6</ele>
        <time>2023-02-11T11:35:40.000Z</time>
      </trkpt>
      <trkpt lat="41.631553" lon="-1.93005">
        <ele>1136.8</ele>
        <time>2023-02-11T11:35:41.000Z</time>
      </trkpt>
      <trkpt lat="41.631495" lon="-1.930104">
        <ele>1137</ele>
        <time>2023-02-11T11:35:42.000Z</time>
      </trkpt>
      <trkpt lat="41.631439" lon="-1.930156">
        <ele>1137.2</ele>
        <time>2023-02-11T11:35:43.000Z</time>
      </trkpt>
      <trkpt lat="41.631383" lon="-1.930208">
        <ele>1137.4</ele>
        <time>2023-02-11T11:35:44.000Z</time>
      </trkpt>
      <trkpt lat="41.631333" lon="-1.930261">
        <ele>1137.6</ele>
        <time>2023-02-11T11:35:45.000Z</time>
      </trkpt>
      <trkpt lat="41.63128" lon="-1.930312">
        <ele>1137.8</ele>
        <time>2023-02-11T11:35:46.000Z</time>
      </trkpt>
      <trkpt lat="41.631225" lon="-1.930364">
        <ele>1138</ele>
        <time>2023-02-11T11:35:47.000Z</time>
      </trkpt>
      <trkpt lat="41.631167" lon="-1.930418">
        <ele>1138.4</ele>
        <time>2023-02-11T11:35:48.000Z</time>
      </trkpt>
      <trkpt lat="41.631107" lon="-1.930473">
        <ele>1138.6</ele>
        <time>2023-02-11T11:35:49.000Z</time>
      </trkpt>
      <trkpt lat="41.631047" lon="-1.93053">
        <ele>1138.8</ele>
        <time>2023-02-11T11:35:50.000Z</time>
      </trkpt>
      <trkpt lat="41.630988" lon="-1.930591">
        <ele>1139</ele>
        <time>2023-02-11T11:35:51.000Z</time>
      </trkpt>
      <trkpt lat="41.630925" lon="-1.93065">
        <ele>1139.2</ele>
        <time>2023-02-11T11:35:52.000Z</time>
      </trkpt>
      <trkpt lat="41.630864" lon="-1.930712">
        <ele>1139.4</ele>
        <time>2023-02-11T11:35:53.000Z</time>
      </trkpt>
      <trkpt lat="41.630801" lon="-1.930771">
        <ele>1139.4</ele>
        <time>2023-02-11T11:35:54.000Z</time>
      </trkpt>
      <trkpt lat="41.630743" lon="-1.930828">
        <ele>1140.2</ele>
        <time>2023-02-11T11:35:55.000Z</time>
      </trkpt>
      <trkpt lat="41.630686" lon="-1.930887">
        <ele>1140.4</ele>
        <time>2023-02-11T11:35:56.000Z</time>
      </trkpt>
      <trkpt lat="41.630626" lon="-1.93095">
        <ele>1140.4</ele>
        <time>2023-02-11T11:35:57.000Z</time>
      </trkpt>
      <trkpt lat="41.630566" lon="-1.931016">
        <ele>1140.6</ele>
        <time>2023-02-11T11:35:58.000Z</time>
      </trkpt>
      <trkpt lat="41.63051" lon="-1.931083">
        <ele>1140.6</ele>
        <time>2023-02-11T11:35:59.000Z</time>
      </trkpt>
      <trkpt lat="41.630462" lon="-1.931156">
        <ele>1141</ele>
        <time>2023-02-11T11:36:00.000Z</time>
      </trkpt>
      <trkpt lat="41.630418" lon="-1.931232">
        <ele>1141.2</ele>
        <time>2023-02-11T11:36:01.000Z</time>
      </trkpt>
      <trkpt lat="41.630378" lon="-1.931311">
        <ele>1141.4</ele>
        <time>2023-02-11T11:36:02.000Z</time>
      </trkpt>
      <trkpt lat="41.630339" lon="-1.931394">
        <ele>1141.6</ele>
        <time>2023-02-11T11:36:03.000Z</time>
      </trkpt>
      <trkpt lat="41.630303" lon="-1.931478">
        <ele>1141.6</ele>
        <time>2023-02-11T11:36:04.000Z</time>
      </trkpt>
      <trkpt lat="41.630269" lon="-1.931564">
        <ele>1141.8</ele>
        <time>2023-02-11T11:36:05.000Z</time>
      </trkpt>
      <trkpt lat="41.630233" lon="-1.931654">
        <ele>1141.8</ele>
        <time>2023-02-11T11:36:06.000Z</time>
      </trkpt>
      <trkpt lat="41.630197" lon="-1.931746">
        <ele>1141.8</ele>
        <time>2023-02-11T11:36:07.000Z</time>
      </trkpt>
      <trkpt lat="41.630158" lon="-1.931838">
        <ele>1141.8</ele>
        <time>2023-02-11T11:36:08.000Z</time>
      </trkpt>
      <trkpt lat="41.630121" lon="-1.931931">
        <ele>1141.8</ele>
        <time>2023-02-11T11:36:09.000Z</time>
      </trkpt>
      <trkpt lat="41.630083" lon="-1.932025">
        <ele>1141.8</ele>
        <time>2023-02-11T11:36:10.000Z</time>
      </trkpt>
      <trkpt lat="41.630046" lon="-1.932115">
        <ele>1142</ele>
        <time>2023-02-11T11:36:11.000Z</time>
      </trkpt>
      <trkpt lat="41.630012" lon="-1.932207">
        <ele>1142</ele>
        <time>2023-02-11T11:36:12.000Z</time>
      </trkpt>
      <trkpt lat="41.629973" lon="-1.932298">
        <ele>1142</ele>
        <time>2023-02-11T11:36:13.000Z</time>
      </trkpt>
      <trkpt lat="41.629934" lon="-1.932391">
        <ele>1142</ele>
        <time>2023-02-11T11:36:14.000Z</time>
      </trkpt>
      <trkpt lat="41.629895" lon="-1.932487">
        <ele>1141.6</ele>
        <time>2023-02-11T11:36:15.000Z</time>
      </trkpt>
      <trkpt lat="41.629855" lon="-1.932585">
        <ele>1141.6</ele>
        <time>2023-02-11T11:36:16.000Z</time>
      </trkpt>
      <trkpt lat="41.629814" lon="-1.932686">
        <ele>1141.6</ele>
        <time>2023-02-11T11:36:17.000Z</time>
      </trkpt>
      <trkpt lat="41.629772" lon="-1.932788">
        <ele>1141.6</ele>
        <time>2023-02-11T11:36:18.000Z</time>
      </trkpt>
      <trkpt lat="41.629732" lon="-1.932893">
        <ele>1141.6</ele>
        <time>2023-02-11T11:36:19.000Z</time>
      </trkpt>
      <trkpt lat="41.629693" lon="-1.932999">
        <ele>1141.6</ele>
        <time>2023-02-11T11:36:20.000Z</time>
      </trkpt>
      <trkpt lat="41.629652" lon="-1.933106">
        <ele>1141.6</ele>
        <time>2023-02-11T11:36:21.000Z</time>
      </trkpt>
      <trkpt lat="41.629611" lon="-1.933214">
        <ele>1141.6</ele>
        <time>2023-02-11T11:36:22.000Z</time>
      </trkpt>
      <trkpt lat="41.629572" lon="-1.933322">
        <ele>1141.6</ele>
        <time>2023-02-11T11:36:23.000Z</time>
      </trkpt>
      <trkpt lat="41.629532" lon="-1.93343">
        <ele>1141.4</ele>
        <time>2023-02-11T11:36:24.000Z</time>
      </trkpt>
      <trkpt lat="41.629489" lon="-1.933539">
        <ele>1141.2</ele>
        <time>2023-02-11T11:36:25.000Z</time>
      </trkpt>
      <trkpt lat="41.629445" lon="-1.933651">
        <ele>1141.2</ele>
        <time>2023-02-11T11:36:26.000Z</time>
      </trkpt>
      <trkpt lat="41.629403" lon="-1.933762">
        <ele>1141.2</ele>
        <time>2023-02-11T11:36:27.000Z</time>
      </trkpt>
      <trkpt lat="41.629358" lon="-1.933874">
        <ele>1141</ele>
        <time>2023-02-11T11:36:28.000Z</time>
      </trkpt>
      <trkpt lat="41.629317" lon="-1.933986">
        <ele>1140.8</ele>
        <time>2023-02-11T11:36:29.000Z</time>
      </trkpt>
      <trkpt lat="41.629276" lon="-1.934098">
        <ele>1140.6</ele>
        <time>2023-02-11T11:36:30.000Z</time>
      </trkpt>
      <trkpt lat="41.629233" lon="-1.934213">
        <ele>1140.4</ele>
        <time>2023-02-11T11:36:31.000Z</time>
      </trkpt>
      <trkpt lat="41.62919" lon="-1.934327">
        <ele>1140.4</ele>
        <time>2023-02-11T11:36:32.000Z</time>
      </trkpt>
      <trkpt lat="41.629148" lon="-1.934441">
        <ele>1140.4</ele>
        <time>2023-02-11T11:36:33.000Z</time>
      </trkpt>
      <trkpt lat="41.629106" lon="-1.934555">
        <ele>1140.4</ele>
        <time>2023-02-11T11:36:34.000Z</time>
      </trkpt>
      <trkpt lat="41.629068" lon="-1.93467">
        <ele>1140.2</ele>
        <time>2023-02-11T11:36:35.000Z</time>
      </trkpt>
      <trkpt lat="41.629028" lon="-1.934787">
        <ele>1140.2</ele>
        <time>2023-02-11T11:36:36.000Z</time>
      </trkpt>
      <trkpt lat="41.628986" lon="-1.934907">
        <ele>1140</ele>
        <time>2023-02-11T11:36:37.000Z</time>
      </trkpt>
      <trkpt lat="41.628942" lon="-1.935026">
        <ele>1140</ele>
        <time>2023-02-11T11:36:38.000Z</time>
      </trkpt>
      <trkpt lat="41.628899" lon="-1.935145">
        <ele>1139.8</ele>
        <time>2023-02-11T11:36:39.000Z</time>
      </trkpt>
      <trkpt lat="41.628858" lon="-1.935268">
        <ele>1139.6</ele>
        <time>2023-02-11T11:36:40.000Z</time>
      </trkpt>
      <trkpt lat="41.628815" lon="-1.93539">
        <ele>1139.6</ele>
        <time>2023-02-11T11:36:41.000Z</time>
      </trkpt>
      <trkpt lat="41.628774" lon="-1.935512">
        <ele>1139.6</ele>
        <time>2023-02-11T11:36:42.000Z</time>
      </trkpt>
      <trkpt lat="41.628733" lon="-1.935631">
        <ele>1139.4</ele>
        <time>2023-02-11T11:36:43.000Z</time>
      </trkpt>
      <trkpt lat="41.62869" lon="-1.935747">
        <ele>1139.2</ele>
        <time>2023-02-11T11:36:44.000Z</time>
      </trkpt>
      <trkpt lat="41.628643" lon="-1.935859">
        <ele>1138.8</ele>
        <time>2023-02-11T11:36:45.000Z</time>
      </trkpt>
      <trkpt lat="41.628592" lon="-1.935971">
        <ele>1138.6</ele>
        <time>2023-02-11T11:36:46.000Z</time>
      </trkpt>
      <trkpt lat="41.628532" lon="-1.936079">
        <ele>1138.2</ele>
        <time>2023-02-11T11:36:47.000Z</time>
      </trkpt>
      <trkpt lat="41.628463" lon="-1.936181">
        <ele>1138.2</ele>
        <time>2023-02-11T11:36:48.000Z</time>
      </trkpt>
      <trkpt lat="41.62839" lon="-1.936286">
        <ele>1137.8</ele>
        <time>2023-02-11T11:36:49.000Z</time>
      </trkpt>
      <trkpt lat="41.628313" lon="-1.936392">
        <ele>1137.6</ele>
        <time>2023-02-11T11:36:50.000Z</time>
      </trkpt>
      <trkpt lat="41.628236" lon="-1.9365">
        <ele>1136.8</ele>
        <time>2023-02-11T11:36:51.000Z</time>
      </trkpt>
      <trkpt lat="41.628161" lon="-1.936607">
        <ele>1136.6</ele>
        <time>2023-02-11T11:36:52.000Z</time>
      </trkpt>
      <trkpt lat="41.628086" lon="-1.936711">
        <ele>1136.2</ele>
        <time>2023-02-11T11:36:53.000Z</time>
      </trkpt>
      <trkpt lat="41.62801" lon="-1.936815">
        <ele>1136</ele>
        <time>2023-02-11T11:36:54.000Z</time>
      </trkpt>
      <trkpt lat="41.627934" lon="-1.936916">
        <ele>1135.8</ele>
        <time>2023-02-11T11:36:55.000Z</time>
      </trkpt>
      <trkpt lat="41.627859" lon="-1.93702">
        <ele>1135.2</ele>
        <time>2023-02-11T11:36:56.000Z</time>
      </trkpt>
      <trkpt lat="41.627783" lon="-1.937125">
        <ele>1135</ele>
        <time>2023-02-11T11:36:57.000Z</time>
      </trkpt>
      <trkpt lat="41.627706" lon="-1.937233">
        <ele>1134.8</ele>
        <time>2023-02-11T11:36:58.000Z</time>
      </trkpt>
      <trkpt lat="41.627627" lon="-1.937341">
        <ele>1134.6</ele>
        <time>2023-02-11T11:36:59.000Z</time>
      </trkpt>
      <trkpt lat="41.62755" lon="-1.937452">
        <ele>1134.2</ele>
        <time>2023-02-11T11:37:00.000Z</time>
      </trkpt>
      <trkpt lat="41.627472" lon="-1.937564">
        <ele>1134</ele>
        <time>2023-02-11T11:37:01.000Z</time>
      </trkpt>
      <trkpt lat="41.627395" lon="-1.937674">
        <ele>1133.6</ele>
        <time>2023-02-11T11:37:02.000Z</time>
      </trkpt>
      <trkpt lat="41.627319" lon="-1.937785">
        <ele>1133.4</ele>
        <time>2023-02-11T11:37:03.000Z</time>
      </trkpt>
      <trkpt lat="41.627242" lon="-1.937896">
        <ele>1132.2</ele>
        <time>2023-02-11T11:37:04.000Z</time>
      </trkpt>
      <trkpt lat="41.627168" lon="-1.938004">
        <ele>1131</ele>
        <time>2023-02-11T11:37:05.000Z</time>
      </trkpt>
      <trkpt lat="41.627097" lon="-1.938116">
        <ele>1130.6</ele>
        <time>2023-02-11T11:37:06.000Z</time>
      </trkpt>
      <trkpt lat="41.627024" lon="-1.938232">
        <ele>1130.2</ele>
        <time>2023-02-11T11:37:07.000Z</time>
      </trkpt>
      <trkpt lat="41.626951" lon="-1.938345">
        <ele>1130</ele>
        <time>2023-02-11T11:37:08.000Z</time>
      </trkpt>
      <trkpt lat="41.626878" lon="-1.938458">
        <ele>1129.6</ele>
        <time>2023-02-11T11:37:09.000Z</time>
      </trkpt>
      <trkpt lat="41.626801" lon="-1.938566">
        <ele>1129.4</ele>
        <time>2023-02-11T11:37:10.000Z</time>
      </trkpt>
      <trkpt lat="41.626721" lon="-1.938674">
        <ele>1129</ele>
        <time>2023-02-11T11:37:11.000Z</time>
      </trkpt>
      <trkpt lat="41.626638" lon="-1.938775">
        <ele>1128.8</ele>
        <time>2023-02-11T11:37:12.000Z</time>
      </trkpt>
      <trkpt lat="41.626551" lon="-1.938872">
        <ele>1128.2</ele>
        <time>2023-02-11T11:37:13.000Z</time>
      </trkpt>
      <trkpt lat="41.626458" lon="-1.938961">
        <ele>1127.6</ele>
        <time>2023-02-11T11:37:14.000Z</time>
      </trkpt>
      <trkpt lat="41.62636" lon="-1.939046">
        <ele>1127.2</ele>
        <time>2023-02-11T11:37:15.000Z</time>
      </trkpt>
      <trkpt lat="41.626258" lon="-1.93913">
        <ele>1126.8</ele>
        <time>2023-02-11T11:37:16.000Z</time>
      </trkpt>
      <trkpt lat="41.626157" lon="-1.939214">
        <ele>1126.4</ele>
        <time>2023-02-11T11:37:17.000Z</time>
      </trkpt>
      <trkpt lat="41.626055" lon="-1.9393">
        <ele>1126</ele>
        <time>2023-02-11T11:37:18.000Z</time>
      </trkpt>
      <trkpt lat="41.625955" lon="-1.93939">
        <ele>1126</ele>
        <time>2023-02-11T11:37:19.000Z</time>
      </trkpt>
      <trkpt lat="41.625856" lon="-1.939474">
        <ele>1125.4</ele>
        <time>2023-02-11T11:37:20.000Z</time>
      </trkpt>
      <trkpt lat="41.625755" lon="-1.939555">
        <ele>1125</ele>
        <time>2023-02-11T11:37:21.000Z</time>
      </trkpt>
      <trkpt lat="41.625648" lon="-1.939624">
        <ele>1124.8</ele>
        <time>2023-02-11T11:37:22.000Z</time>
      </trkpt>
      <trkpt lat="41.625536" lon="-1.939681">
        <ele>1124.2</ele>
        <time>2023-02-11T11:37:23.000Z</time>
      </trkpt>
      <trkpt lat="41.625425" lon="-1.939738">
        <ele>1123.6</ele>
        <time>2023-02-11T11:37:24.000Z</time>
      </trkpt>
      <trkpt lat="41.625318" lon="-1.939801">
        <ele>1123</ele>
        <time>2023-02-11T11:37:25.000Z</time>
      </trkpt>
      <trkpt lat="41.625216" lon="-1.93987">
        <ele>1122.8</ele>
        <time>2023-02-11T11:37:26.000Z</time>
      </trkpt>
      <trkpt lat="41.625116" lon="-1.939946">
        <ele>1122.4</ele>
        <time>2023-02-11T11:37:27.000Z</time>
      </trkpt>
      <trkpt lat="41.625016" lon="-1.940037">
        <ele>1122.2</ele>
        <time>2023-02-11T11:37:28.000Z</time>
      </trkpt>
      <trkpt lat="41.624927" lon="-1.940145">
        <ele>1121.8</ele>
        <time>2023-02-11T11:37:29.000Z</time>
      </trkpt>
      <trkpt lat="41.624853" lon="-1.940272">
        <ele>1121.2</ele>
        <time>2023-02-11T11:37:30.000Z</time>
      </trkpt>
      <trkpt lat="41.624787" lon="-1.940404">
        <ele>1120.6</ele>
        <time>2023-02-11T11:37:31.000Z</time>
      </trkpt>
      <trkpt lat="41.624728" lon="-1.940548">
        <ele>1120.4</ele>
        <time>2023-02-11T11:37:32.000Z</time>
      </trkpt>
      <trkpt lat="41.624676" lon="-1.940691">
        <ele>1119.8</ele>
        <time>2023-02-11T11:37:33.000Z</time>
      </trkpt>
      <trkpt lat="41.624612" lon="-1.940835">
        <ele>1118.8</ele>
        <time>2023-02-11T11:37:34.000Z</time>
      </trkpt>
      <trkpt lat="41.624538" lon="-1.940978">
        <ele>1118.4</ele>
        <time>2023-02-11T11:37:35.000Z</time>
      </trkpt>
      <trkpt lat="41.624462" lon="-1.941126">
        <ele>1117.6</ele>
        <time>2023-02-11T11:37:36.000Z</time>
      </trkpt>
      <trkpt lat="41.624388" lon="-1.941271">
        <ele>1117</ele>
        <time>2023-02-11T11:37:37.000Z</time>
      </trkpt>
      <trkpt lat="41.62431" lon="-1.941407">
        <ele>1116.6</ele>
        <time>2023-02-11T11:37:38.000Z</time>
      </trkpt>
      <trkpt lat="41.624218" lon="-1.941528">
        <ele>1116.2</ele>
        <time>2023-02-11T11:37:39.000Z</time>
      </trkpt>
      <trkpt lat="41.624118" lon="-1.941629">
        <ele>1115.4</ele>
        <time>2023-02-11T11:37:40.000Z</time>
      </trkpt>
      <trkpt lat="41.623993" lon="-1.941691">
        <ele>1115.2</ele>
        <time>2023-02-11T11:37:41.000Z</time>
      </trkpt>
      <trkpt lat="41.62387" lon="-1.941744">
        <ele>1114.8</ele>
        <time>2023-02-11T11:37:42.000Z</time>
      </trkpt>
      <trkpt lat="41.623746" lon="-1.941793">
        <ele>1114.2</ele>
        <time>2023-02-11T11:37:43.000Z</time>
      </trkpt>
      <trkpt lat="41.623624" lon="-1.94184">
        <ele>1113.2</ele>
        <time>2023-02-11T11:37:44.000Z</time>
      </trkpt>
      <trkpt lat="41.623507" lon="-1.941891">
        <ele>1112.2</ele>
        <time>2023-02-11T11:37:45.000Z</time>
      </trkpt>
      <trkpt lat="41.62339" lon="-1.941944">
        <ele>1111.8</ele>
        <time>2023-02-11T11:37:46.000Z</time>
      </trkpt>
      <trkpt lat="41.623279" lon="-1.942013">
        <ele>1111</ele>
        <time>2023-02-11T11:37:47.000Z</time>
      </trkpt>
      <trkpt lat="41.623174" lon="-1.942093">
        <ele>1110.8</ele>
        <time>2023-02-11T11:37:48.000Z</time>
      </trkpt>
      <trkpt lat="41.623071" lon="-1.942181">
        <ele>1110</ele>
        <time>2023-02-11T11:37:49.000Z</time>
      </trkpt>
      <trkpt lat="41.622967" lon="-1.942279">
        <ele>1109.4</ele>
        <time>2023-02-11T11:37:50.000Z</time>
      </trkpt>
      <trkpt lat="41.622862" lon="-1.942384">
        <ele>1108.6</ele>
        <time>2023-02-11T11:37:51.000Z</time>
      </trkpt>
      <trkpt lat="41.622756" lon="-1.94249">
        <ele>1108.4</ele>
        <time>2023-02-11T11:37:52.000Z</time>
      </trkpt>
      <trkpt lat="41.62265" lon="-1.9426">
        <ele>1107.6</ele>
        <time>2023-02-11T11:37:53.000Z</time>
      </trkpt>
      <trkpt lat="41.622541" lon="-1.942708">
        <ele>1106.8</ele>
        <time>2023-02-11T11:37:54.000Z</time>
      </trkpt>
      <trkpt lat="41.622431" lon="-1.942817">
        <ele>1106.2</ele>
        <time>2023-02-11T11:37:55.000Z</time>
      </trkpt>
      <trkpt lat="41.622322" lon="-1.942926">
        <ele>1104.4</ele>
        <time>2023-02-11T11:37:56.000Z</time>
      </trkpt>
      <trkpt lat="41.622215" lon="-1.943035">
        <ele>1104</ele>
        <time>2023-02-11T11:37:57.000Z</time>
      </trkpt>
      <trkpt lat="41.622107" lon="-1.943137">
        <ele>1103.4</ele>
        <time>2023-02-11T11:37:58.000Z</time>
      </trkpt>
      <trkpt lat="41.622001" lon="-1.943233">
        <ele>1103</ele>
        <time>2023-02-11T11:37:59.000Z</time>
      </trkpt>
      <trkpt lat="41.62189" lon="-1.943323">
        <ele>1102</ele>
        <time>2023-02-11T11:38:00.000Z</time>
      </trkpt>
      <trkpt lat="41.621774" lon="-1.943409">
        <ele>1101.4</ele>
        <time>2023-02-11T11:38:01.000Z</time>
      </trkpt>
      <trkpt lat="41.621663" lon="-1.943491">
        <ele>1100.6</ele>
        <time>2023-02-11T11:38:02.000Z</time>
      </trkpt>
      <trkpt lat="41.621557" lon="-1.943557">
        <ele>1099.8</ele>
        <time>2023-02-11T11:38:03.000Z</time>
      </trkpt>
      <trkpt lat="41.621448" lon="-1.943611">
        <ele>1099.4</ele>
        <time>2023-02-11T11:38:04.000Z</time>
      </trkpt>
      <trkpt lat="41.621335" lon="-1.94364">
        <ele>1099</ele>
        <time>2023-02-11T11:38:05.000Z</time>
      </trkpt>
      <trkpt lat="41.621227" lon="-1.943637">
        <ele>1099</ele>
        <time>2023-02-11T11:38:06.000Z</time>
      </trkpt>
      <trkpt lat="41.621123" lon="-1.94363">
        <ele>1098.8</ele>
        <time>2023-02-11T11:38:07.000Z</time>
      </trkpt>
      <trkpt lat="41.621025" lon="-1.943639">
        <ele>1098.6</ele>
        <time>2023-02-11T11:38:08.000Z</time>
      </trkpt>
      <trkpt lat="41.620947" lon="-1.943689">
        <ele>1098.4</ele>
        <time>2023-02-11T11:38:09.000Z</time>
      </trkpt>
      <trkpt lat="41.62089" lon="-1.943776">
        <ele>1098.4</ele>
        <time>2023-02-11T11:38:10.000Z</time>
      </trkpt>
      <trkpt lat="41.620842" lon="-1.94389">
        <ele>1097.8</ele>
        <time>2023-02-11T11:38:11.000Z</time>
      </trkpt>
      <trkpt lat="41.620801" lon="-1.944016">
        <ele>1097.6</ele>
        <time>2023-02-11T11:38:12.000Z</time>
      </trkpt>
      <trkpt lat="41.620762" lon="-1.944146">
        <ele>1097</ele>
        <time>2023-02-11T11:38:13.000Z</time>
      </trkpt>
      <trkpt lat="41.620724" lon="-1.944278">
        <ele>1095.8</ele>
        <time>2023-02-11T11:38:14.000Z</time>
      </trkpt>
      <trkpt lat="41.620687" lon="-1.944413">
        <ele>1095.2</ele>
        <time>2023-02-11T11:38:15.000Z</time>
      </trkpt>
      <trkpt lat="41.62067" lon="-1.944556">
        <ele>1094.2</ele>
        <time>2023-02-11T11:38:16.000Z</time>
      </trkpt>
      <trkpt lat="41.620678" lon="-1.944702">
        <ele>1093.8</ele>
        <time>2023-02-11T11:38:17.000Z</time>
      </trkpt>
      <trkpt lat="41.620698" lon="-1.944843">
        <ele>1093</ele>
        <time>2023-02-11T11:38:18.000Z</time>
      </trkpt>
      <trkpt lat="41.620725" lon="-1.944987">
        <ele>1092.4</ele>
        <time>2023-02-11T11:38:19.000Z</time>
      </trkpt>
      <trkpt lat="41.620759" lon="-1.945137">
        <ele>1091.6</ele>
        <time>2023-02-11T11:38:20.000Z</time>
      </trkpt>
      <trkpt lat="41.620802" lon="-1.945281">
        <ele>1091.2</ele>
        <time>2023-02-11T11:38:21.000Z</time>
      </trkpt>
      <trkpt lat="41.620855" lon="-1.945408">
        <ele>1090.6</ele>
        <time>2023-02-11T11:38:22.000Z</time>
      </trkpt>
      <trkpt lat="41.620918" lon="-1.945513">
        <ele>1089.8</ele>
        <time>2023-02-11T11:38:23.000Z</time>
      </trkpt>
      <trkpt lat="41.620989" lon="-1.945593">
        <ele>1089.6</ele>
        <time>2023-02-11T11:38:24.000Z</time>
      </trkpt>
      <trkpt lat="41.62106" lon="-1.945654">
        <ele>1089.2</ele>
        <time>2023-02-11T11:38:25.000Z</time>
      </trkpt>
      <trkpt lat="41.621158" lon="-1.945688">
        <ele>1089</ele>
        <time>2023-02-11T11:38:26.000Z</time>
      </trkpt>
      <trkpt lat="41.621263" lon="-1.945723">
        <ele>1089</ele>
        <time>2023-02-11T11:38:27.000Z</time>
      </trkpt>
      <trkpt lat="41.621374" lon="-1.945783">
        <ele>1088.4</ele>
        <time>2023-02-11T11:38:28.000Z</time>
      </trkpt>
      <trkpt lat="41.621458" lon="-1.945883">
        <ele>1088.2</ele>
        <time>2023-02-11T11:38:29.000Z</time>
      </trkpt>
      <trkpt lat="41.621505" lon="-1.946006">
        <ele>1088</ele>
        <time>2023-02-11T11:38:30.000Z</time>
      </trkpt>
      <trkpt lat="41.621515" lon="-1.946141">
        <ele>1087.4</ele>
        <time>2023-02-11T11:38:31.000Z</time>
      </trkpt>
      <trkpt lat="41.621487" lon="-1.946275">
        <ele>1087.4</ele>
        <time>2023-02-11T11:38:32.000Z</time>
      </trkpt>
      <trkpt lat="41.62144" lon="-1.946397">
        <ele>1087</ele>
        <time>2023-02-11T11:38:33.000Z</time>
      </trkpt>
      <trkpt lat="41.621375" lon="-1.946505">
        <ele>1086.4</ele>
        <time>2023-02-11T11:38:34.000Z</time>
      </trkpt>
      <trkpt lat="41.621295" lon="-1.946599">
        <ele>1086.4</ele>
        <time>2023-02-11T11:38:35.000Z</time>
      </trkpt>
      <trkpt lat="41.621205" lon="-1.946682">
        <ele>1086</ele>
        <time>2023-02-11T11:38:36.000Z</time>
      </trkpt>
      <trkpt lat="41.621108" lon="-1.946761">
        <ele>1085.8</ele>
        <time>2023-02-11T11:38:37.000Z</time>
      </trkpt>
      <trkpt lat="41.621006" lon="-1.946836">
        <ele>1085.6</ele>
        <time>2023-02-11T11:38:38.000Z</time>
      </trkpt>
      <trkpt lat="41.620905" lon="-1.946909">
        <ele>1085.4</ele>
        <time>2023-02-11T11:38:39.000Z</time>
      </trkpt>
      <trkpt lat="41.620801" lon="-1.946991">
        <ele>1085.2</ele>
        <time>2023-02-11T11:38:40.000Z</time>
      </trkpt>
      <trkpt lat="41.620703" lon="-1.947087">
        <ele>1085</ele>
        <time>2023-02-11T11:38:41.000Z</time>
      </trkpt>
      <trkpt lat="41.620612" lon="-1.947197">
        <ele>1084.4</ele>
        <time>2023-02-11T11:38:42.000Z</time>
      </trkpt>
      <trkpt lat="41.620526" lon="-1.94731">
        <ele>1084</ele>
        <time>2023-02-11T11:38:43.000Z</time>
      </trkpt>
      <trkpt lat="41.620448" lon="-1.947425">
        <ele>1084</ele>
        <time>2023-02-11T11:38:44.000Z</time>
      </trkpt>
      <trkpt lat="41.620373" lon="-1.947542">
        <ele>1083.4</ele>
        <time>2023-02-11T11:38:45.000Z</time>
      </trkpt>
      <trkpt lat="41.620292" lon="-1.947652">
        <ele>1083</ele>
        <time>2023-02-11T11:38:46.000Z</time>
      </trkpt>
      <trkpt lat="41.620209" lon="-1.947748">
        <ele>1082.4</ele>
        <time>2023-02-11T11:38:47.000Z</time>
      </trkpt>
      <trkpt lat="41.620115" lon="-1.947831">
        <ele>1082.2</ele>
        <time>2023-02-11T11:38:48.000Z</time>
      </trkpt>
      <trkpt lat="41.620014" lon="-1.947893">
        <ele>1081.6</ele>
        <time>2023-02-11T11:38:49.000Z</time>
      </trkpt>
      <trkpt lat="41.619911" lon="-1.947924">
        <ele>1081.4</ele>
        <time>2023-02-11T11:38:50.000Z</time>
      </trkpt>
      <trkpt lat="41.619808" lon="-1.947907">
        <ele>1081</ele>
        <time>2023-02-11T11:38:51.000Z</time>
      </trkpt>
      <trkpt lat="41.619705" lon="-1.947877">
        <ele>1080.4</ele>
        <time>2023-02-11T11:38:52.000Z</time>
      </trkpt>
      <trkpt lat="41.619614" lon="-1.947877">
        <ele>1080.2</ele>
        <time>2023-02-11T11:38:53.000Z</time>
      </trkpt>
      <trkpt lat="41.619542" lon="-1.947901">
        <ele>1079.8</ele>
        <time>2023-02-11T11:38:54.000Z</time>
      </trkpt>
      <trkpt lat="41.619478" lon="-1.947949">
        <ele>1079.4</ele>
        <time>2023-02-11T11:38:55.000Z</time>
      </trkpt>
      <trkpt lat="41.619431" lon="-1.948033">
        <ele>1079</ele>
        <time>2023-02-11T11:38:56.000Z</time>
      </trkpt>
      <trkpt lat="41.619422" lon="-1.948146">
        <ele>1078.8</ele>
        <time>2023-02-11T11:38:57.000Z</time>
      </trkpt>
      <trkpt lat="41.619462" lon="-1.948268">
        <ele>1078.6</ele>
        <time>2023-02-11T11:38:58.000Z</time>
      </trkpt>
      <trkpt lat="41.619527" lon="-1.948374">
        <ele>1078.4</ele>
        <time>2023-02-11T11:38:59.000Z</time>
      </trkpt>
      <trkpt lat="41.619606" lon="-1.948449">
        <ele>1078</ele>
        <time>2023-02-11T11:39:00.000Z</time>
      </trkpt>
      <trkpt lat="41.619696" lon="-1.948514">
        <ele>1077.8</ele>
        <time>2023-02-11T11:39:01.000Z</time>
      </trkpt>
      <trkpt lat="41.619786" lon="-1.948563">
        <ele>1077.2</ele>
        <time>2023-02-11T11:39:02.000Z</time>
      </trkpt>
      <trkpt lat="41.619879" lon="-1.948614">
        <ele>1076.8</ele>
        <time>2023-02-11T11:39:03.000Z</time>
      </trkpt>
      <trkpt lat="41.619957" lon="-1.948689">
        <ele>1076.6</ele>
        <time>2023-02-11T11:39:04.000Z</time>
      </trkpt>
      <trkpt lat="41.62003" lon="-1.948779">
        <ele>1076.6</ele>
        <time>2023-02-11T11:39:05.000Z</time>
      </trkpt>
      <trkpt lat="41.620089" lon="-1.948889">
        <ele>1076.4</ele>
        <time>2023-02-11T11:39:06.000Z</time>
      </trkpt>
      <trkpt lat="41.620117" lon="-1.949021">
        <ele>1076</ele>
        <time>2023-02-11T11:39:07.000Z</time>
      </trkpt>
      <trkpt lat="41.620119" lon="-1.949161">
        <ele>1075.8</ele>
        <time>2023-02-11T11:39:08.000Z</time>
      </trkpt>
      <trkpt lat="41.620115" lon="-1.949318">
        <ele>1075.6</ele>
        <time>2023-02-11T11:39:09.000Z</time>
      </trkpt>
      <trkpt lat="41.620092" lon="-1.949464">
        <ele>1075.4</ele>
        <time>2023-02-11T11:39:10.000Z</time>
      </trkpt>
      <trkpt lat="41.620039" lon="-1.949577">
        <ele>1075</ele>
        <time>2023-02-11T11:39:11.000Z</time>
      </trkpt>
      <trkpt lat="41.619944" lon="-1.949675">
        <ele>1074.2</ele>
        <time>2023-02-11T11:39:12.000Z</time>
      </trkpt>
      <trkpt lat="41.619846" lon="-1.949759">
        <ele>1073.6</ele>
        <time>2023-02-11T11:39:13.000Z</time>
      </trkpt>
      <trkpt lat="41.619748" lon="-1.949828">
        <ele>1073</ele>
        <time>2023-02-11T11:39:14.000Z</time>
      </trkpt>
      <trkpt lat="41.61964" lon="-1.949879">
        <ele>1072.8</ele>
        <time>2023-02-11T11:39:15.000Z</time>
      </trkpt>
      <trkpt lat="41.619527" lon="-1.949926">
        <ele>1072.2</ele>
        <time>2023-02-11T11:39:16.000Z</time>
      </trkpt>
      <trkpt lat="41.619415" lon="-1.949973">
        <ele>1072</ele>
        <time>2023-02-11T11:39:17.000Z</time>
      </trkpt>
      <trkpt lat="41.619298" lon="-1.950017">
        <ele>1071.2</ele>
        <time>2023-02-11T11:39:18.000Z</time>
      </trkpt>
      <trkpt lat="41.619179" lon="-1.950053">
        <ele>1070.8</ele>
        <time>2023-02-11T11:39:19.000Z</time>
      </trkpt>
      <trkpt lat="41.61906" lon="-1.950082">
        <ele>1070.4</ele>
        <time>2023-02-11T11:39:20.000Z</time>
      </trkpt>
      <trkpt lat="41.618941" lon="-1.950104">
        <ele>1070</ele>
        <time>2023-02-11T11:39:21.000Z</time>
      </trkpt>
      <trkpt lat="41.618826" lon="-1.950123">
        <ele>1070</ele>
        <time>2023-02-11T11:39:22.000Z</time>
      </trkpt>
      <trkpt lat="41.618711" lon="-1.95014">
        <ele>1069.8</ele>
        <time>2023-02-11T11:39:23.000Z</time>
      </trkpt>
      <trkpt lat="41.6186" lon="-1.950157">
        <ele>1069.6</ele>
        <time>2023-02-11T11:39:24.000Z</time>
      </trkpt>
      <trkpt lat="41.618484" lon="-1.950172">
        <ele>1069.2</ele>
        <time>2023-02-11T11:39:25.000Z</time>
      </trkpt>
      <trkpt lat="41.618374" lon="-1.950184">
        <ele>1069</ele>
        <time>2023-02-11T11:39:26.000Z</time>
      </trkpt>
      <trkpt lat="41.618265" lon="-1.950208">
        <ele>1068.8</ele>
        <time>2023-02-11T11:39:27.000Z</time>
      </trkpt>
      <trkpt lat="41.618158" lon="-1.950253">
        <ele>1068.8</ele>
        <time>2023-02-11T11:39:28.000Z</time>
      </trkpt>
      <trkpt lat="41.618061" lon="-1.95032">
        <ele>1068.6</ele>
        <time>2023-02-11T11:39:29.000Z</time>
      </trkpt>
      <trkpt lat="41.617975" lon="-1.95041">
        <ele>1068.4</ele>
        <time>2023-02-11T11:39:30.000Z</time>
      </trkpt>
      <trkpt lat="41.61789" lon="-1.95051">
        <ele>1068.2</ele>
        <time>2023-02-11T11:39:31.000Z</time>
      </trkpt>
      <trkpt lat="41.61781" lon="-1.950621">
        <ele>1068.2</ele>
        <time>2023-02-11T11:39:32.000Z</time>
      </trkpt>
      <trkpt lat="41.617743" lon="-1.950745">
        <ele>1068.2</ele>
        <time>2023-02-11T11:39:33.000Z</time>
      </trkpt>
      <trkpt lat="41.617672" lon="-1.950873">
        <ele>1068</ele>
        <time>2023-02-11T11:39:34.000Z</time>
      </trkpt>
      <trkpt lat="41.617606" lon="-1.950996">
        <ele>1067.8</ele>
        <time>2023-02-11T11:39:35.000Z</time>
      </trkpt>
      <trkpt lat="41.617532" lon="-1.951114">
        <ele>1067.2</ele>
        <time>2023-02-11T11:39:36.000Z</time>
      </trkpt>
      <trkpt lat="41.617454" lon="-1.951214">
        <ele>1066.8</ele>
        <time>2023-02-11T11:39:37.000Z</time>
      </trkpt>
      <trkpt lat="41.617359" lon="-1.951299">
        <ele>1066.2</ele>
        <time>2023-02-11T11:39:38.000Z</time>
      </trkpt>
      <trkpt lat="41.617252" lon="-1.951367">
        <ele>1065.8</ele>
        <time>2023-02-11T11:39:39.000Z</time>
      </trkpt>
      <trkpt lat="41.61714" lon="-1.95142">
        <ele>1065.4</ele>
        <time>2023-02-11T11:39:40.000Z</time>
      </trkpt>
      <trkpt lat="41.617026" lon="-1.951468">
        <ele>1065</ele>
        <time>2023-02-11T11:39:41.000Z</time>
      </trkpt>
      <trkpt lat="41.616912" lon="-1.951511">
        <ele>1065</ele>
        <time>2023-02-11T11:39:42.000Z</time>
      </trkpt>
      <trkpt lat="41.616796" lon="-1.951552">
        <ele>1064.6</ele>
        <time>2023-02-11T11:39:43.000Z</time>
      </trkpt>
      <trkpt lat="41.616682" lon="-1.951593">
        <ele>1064.4</ele>
        <time>2023-02-11T11:39:44.000Z</time>
      </trkpt>
      <trkpt lat="41.616569" lon="-1.951636">
        <ele>1063.8</ele>
        <time>2023-02-11T11:39:45.000Z</time>
      </trkpt>
      <trkpt lat="41.616459" lon="-1.951681">
        <ele>1063.6</ele>
        <time>2023-02-11T11:39:46.000Z</time>
      </trkpt>
      <trkpt lat="41.616347" lon="-1.951724">
        <ele>1063.2</ele>
        <time>2023-02-11T11:39:47.000Z</time>
      </trkpt>
      <trkpt lat="41.616234" lon="-1.951769">
        <ele>1063</ele>
        <time>2023-02-11T11:39:48.000Z</time>
      </trkpt>
      <trkpt lat="41.616121" lon="-1.951809">
        <ele>1062.4</ele>
        <time>2023-02-11T11:39:49.000Z</time>
      </trkpt>
      <trkpt lat="41.616004" lon="-1.95183">
        <ele>1062.2</ele>
        <time>2023-02-11T11:39:50.000Z</time>
      </trkpt>
      <trkpt lat="41.615886" lon="-1.951831">
        <ele>1061.8</ele>
        <time>2023-02-11T11:39:51.000Z</time>
      </trkpt>
      <trkpt lat="41.615771" lon="-1.951816">
        <ele>1061.4</ele>
        <time>2023-02-11T11:39:52.000Z</time>
      </trkpt>
      <trkpt lat="41.615658" lon="-1.951789">
        <ele>1061.2</ele>
        <time>2023-02-11T11:39:53.000Z</time>
      </trkpt>
      <trkpt lat="41.615548" lon="-1.951772">
        <ele>1060.8</ele>
        <time>2023-02-11T11:39:54.000Z</time>
      </trkpt>
      <trkpt lat="41.615435" lon="-1.95178">
        <ele>1060.6</ele>
        <time>2023-02-11T11:39:55.000Z</time>
      </trkpt>
      <trkpt lat="41.615323" lon="-1.951801">
        <ele>1060.4</ele>
        <time>2023-02-11T11:39:56.000Z</time>
      </trkpt>
      <trkpt lat="41.615222" lon="-1.951854">
        <ele>1060.2</ele>
        <time>2023-02-11T11:39:57.000Z</time>
      </trkpt>
      <trkpt lat="41.615133" lon="-1.951927">
        <ele>1059.8</ele>
        <time>2023-02-11T11:39:58.000Z</time>
      </trkpt>
      <trkpt lat="41.615066" lon="-1.952025">
        <ele>1059.4</ele>
        <time>2023-02-11T11:39:59.000Z</time>
      </trkpt>
      <trkpt lat="41.615014" lon="-1.952139">
        <ele>1059.2</ele>
        <time>2023-02-11T11:40:00.000Z</time>
      </trkpt>
      <trkpt lat="41.614974" lon="-1.952259">
        <ele>1059</ele>
        <time>2023-02-11T11:40:01.000Z</time>
      </trkpt>
      <trkpt lat="41.614941" lon="-1.952387">
        <ele>1058.8</ele>
        <time>2023-02-11T11:40:02.000Z</time>
      </trkpt>
      <trkpt lat="41.614908" lon="-1.952519">
        <ele>1058.6</ele>
        <time>2023-02-11T11:40:03.000Z</time>
      </trkpt>
      <trkpt lat="41.614873" lon="-1.952647">
        <ele>1058.4</ele>
        <time>2023-02-11T11:40:04.000Z</time>
      </trkpt>
      <trkpt lat="41.614825" lon="-1.952771">
        <ele>1058</ele>
        <time>2023-02-11T11:40:05.000Z</time>
      </trkpt>
      <trkpt lat="41.614775" lon="-1.952894">
        <ele>1058</ele>
        <time>2023-02-11T11:40:06.000Z</time>
      </trkpt>
      <trkpt lat="41.614724" lon="-1.953013">
        <ele>1057.4</ele>
        <time>2023-02-11T11:40:07.000Z</time>
      </trkpt>
      <trkpt lat="41.614671" lon="-1.953126">
        <ele>1057.2</ele>
        <time>2023-02-11T11:40:08.000Z</time>
      </trkpt>
      <trkpt lat="41.61462" lon="-1.95323">
        <ele>1056.4</ele>
        <time>2023-02-11T11:40:09.000Z</time>
      </trkpt>
      <trkpt lat="41.614581" lon="-1.953332">
        <ele>1055.8</ele>
        <time>2023-02-11T11:40:10.000Z</time>
      </trkpt>
      <trkpt lat="41.614558" lon="-1.953436">
        <ele>1055.4</ele>
        <time>2023-02-11T11:40:11.000Z</time>
      </trkpt>
      <trkpt lat="41.614562" lon="-1.953549">
        <ele>1054.6</ele>
        <time>2023-02-11T11:40:12.000Z</time>
      </trkpt>
      <trkpt lat="41.6146" lon="-1.953659">
        <ele>1054.2</ele>
        <time>2023-02-11T11:40:13.000Z</time>
      </trkpt>
      <trkpt lat="41.614656" lon="-1.953762">
        <ele>1053.6</ele>
        <time>2023-02-11T11:40:14.000Z</time>
      </trkpt>
      <trkpt lat="41.614716" lon="-1.953865">
        <ele>1053.2</ele>
        <time>2023-02-11T11:40:15.000Z</time>
      </trkpt>
      <trkpt lat="41.614779" lon="-1.953972">
        <ele>1053</ele>
        <time>2023-02-11T11:40:16.000Z</time>
      </trkpt>
      <trkpt lat="41.614839" lon="-1.954079">
        <ele>1052.8</ele>
        <time>2023-02-11T11:40:17.000Z</time>
      </trkpt>
      <trkpt lat="41.614897" lon="-1.954194">
        <ele>1052.4</ele>
        <time>2023-02-11T11:40:18.000Z</time>
      </trkpt>
      <trkpt lat="41.614958" lon="-1.954308">
        <ele>1052</ele>
        <time>2023-02-11T11:40:19.000Z</time>
      </trkpt>
      <trkpt lat="41.615018" lon="-1.954422">
        <ele>1052</ele>
        <time>2023-02-11T11:40:20.000Z</time>
      </trkpt>
      <trkpt lat="41.615081" lon="-1.954532">
        <ele>1051.6</ele>
        <time>2023-02-11T11:40:21.000Z</time>
      </trkpt>
      <trkpt lat="41.615145" lon="-1.954641">
        <ele>1051.4</ele>
        <time>2023-02-11T11:40:22.000Z</time>
      </trkpt>
      <trkpt lat="41.61521" lon="-1.954748">
        <ele>1051.2</ele>
        <time>2023-02-11T11:40:23.000Z</time>
      </trkpt>
      <trkpt lat="41.615273" lon="-1.954857">
        <ele>1051</ele>
        <time>2023-02-11T11:40:24.000Z</time>
      </trkpt>
      <trkpt lat="41.615336" lon="-1.954963">
        <ele>1050.8</ele>
        <time>2023-02-11T11:40:25.000Z</time>
      </trkpt>
      <trkpt lat="41.615403" lon="-1.955065">
        <ele>1050.6</ele>
        <time>2023-02-11T11:40:26.000Z</time>
      </trkpt>
      <trkpt lat="41.61547" lon="-1.955169">
        <ele>1050.4</ele>
        <time>2023-02-11T11:40:27.000Z</time>
      </trkpt>
      <trkpt lat="41.615542" lon="-1.955271">
        <ele>1050.2</ele>
        <time>2023-02-11T11:40:28.000Z</time>
      </trkpt>
      <trkpt lat="41.615613" lon="-1.955372">
        <ele>1049.8</ele>
        <time>2023-02-11T11:40:29.000Z</time>
      </trkpt>
      <trkpt lat="41.615686" lon="-1.955475">
        <ele>1049.4</ele>
        <time>2023-02-11T11:40:30.000Z</time>
      </trkpt>
      <trkpt lat="41.615761" lon="-1.955579">
        <ele>1049.2</ele>
        <time>2023-02-11T11:40:31.000Z</time>
      </trkpt>
      <trkpt lat="41.615831" lon="-1.955684">
        <ele>1049</ele>
        <time>2023-02-11T11:40:32.000Z</time>
      </trkpt>
      <trkpt lat="41.615898" lon="-1.955787">
        <ele>1048.8</ele>
        <time>2023-02-11T11:40:33.000Z</time>
      </trkpt>
      <trkpt lat="41.615963" lon="-1.955895">
        <ele>1048.6</ele>
        <time>2023-02-11T11:40:34.000Z</time>
      </trkpt>
      <trkpt lat="41.616026" lon="-1.956007">
        <ele>1048.4</ele>
        <time>2023-02-11T11:40:35.000Z</time>
      </trkpt>
      <trkpt lat="41.616083" lon="-1.956123">
        <ele>1048</ele>
        <time>2023-02-11T11:40:36.000Z</time>
      </trkpt>
      <trkpt lat="41.61614" lon="-1.95624">
        <ele>1047.8</ele>
        <time>2023-02-11T11:40:37.000Z</time>
      </trkpt>
      <trkpt lat="41.616196" lon="-1.95636">
        <ele>1047.2</ele>
        <time>2023-02-11T11:40:38.000Z</time>
      </trkpt>
      <trkpt lat="41.616253" lon="-1.956478">
        <ele>1047</ele>
        <time>2023-02-11T11:40:39.000Z</time>
      </trkpt>
      <trkpt lat="41.61631" lon="-1.956593">
        <ele>1047</ele>
        <time>2023-02-11T11:40:40.000Z</time>
      </trkpt>
      <trkpt lat="41.616369" lon="-1.956711">
        <ele>1046.8</ele>
        <time>2023-02-11T11:40:41.000Z</time>
      </trkpt>
      <trkpt lat="41.616424" lon="-1.956833">
        <ele>1046.8</ele>
        <time>2023-02-11T11:40:42.000Z</time>
      </trkpt>
      <trkpt lat="41.616477" lon="-1.956956">
        <ele>1046.8</ele>
        <time>2023-02-11T11:40:43.000Z</time>
      </trkpt>
      <trkpt lat="41.616528" lon="-1.957082">
        <ele>1046.6</ele>
        <time>2023-02-11T11:40:44.000Z</time>
      </trkpt>
      <trkpt lat="41.616574" lon="-1.957212">
        <ele>1046.6</ele>
        <time>2023-02-11T11:40:45.000Z</time>
      </trkpt>
      <trkpt lat="41.616605" lon="-1.957352">
        <ele>1046.4</ele>
        <time>2023-02-11T11:40:46.000Z</time>
      </trkpt>
      <trkpt lat="41.616625" lon="-1.957491">
        <ele>1046.4</ele>
        <time>2023-02-11T11:40:47.000Z</time>
      </trkpt>
      <trkpt lat="41.616642" lon="-1.957629">
        <ele>1046.4</ele>
        <time>2023-02-11T11:40:48.000Z</time>
      </trkpt>
      <trkpt lat="41.616659" lon="-1.957769">
        <ele>1046</ele>
        <time>2023-02-11T11:40:49.000Z</time>
      </trkpt>
      <trkpt lat="41.616677" lon="-1.957911">
        <ele>1045.8</ele>
        <time>2023-02-11T11:40:50.000Z</time>
      </trkpt>
      <trkpt lat="41.616694" lon="-1.958053">
        <ele>1045.6</ele>
        <time>2023-02-11T11:40:51.000Z</time>
      </trkpt>
      <trkpt lat="41.616714" lon="-1.95819">
        <ele>1045.4</ele>
        <time>2023-02-11T11:40:52.000Z</time>
      </trkpt>
      <trkpt lat="41.616733" lon="-1.958323">
        <ele>1045.4</ele>
        <time>2023-02-11T11:40:53.000Z</time>
      </trkpt>
      <trkpt lat="41.616739" lon="-1.958454">
        <ele>1045.2</ele>
        <time>2023-02-11T11:40:54.000Z</time>
      </trkpt>
      <trkpt lat="41.616732" lon="-1.958586">
        <ele>1045.2</ele>
        <time>2023-02-11T11:40:55.000Z</time>
      </trkpt>
      <trkpt lat="41.616712" lon="-1.958719">
        <ele>1045</ele>
        <time>2023-02-11T11:40:56.000Z</time>
      </trkpt>
      <trkpt lat="41.616678" lon="-1.958841">
        <ele>1044.8</ele>
        <time>2023-02-11T11:40:57.000Z</time>
      </trkpt>
      <trkpt lat="41.616626" lon="-1.958954">
        <ele>1044.6</ele>
        <time>2023-02-11T11:40:58.000Z</time>
      </trkpt>
      <trkpt lat="41.616569" lon="-1.959062">
        <ele>1044.6</ele>
        <time>2023-02-11T11:40:59.000Z</time>
      </trkpt>
      <trkpt lat="41.616506" lon="-1.959167">
        <ele>1044.6</ele>
        <time>2023-02-11T11:41:00.000Z</time>
      </trkpt>
      <trkpt lat="41.616438" lon="-1.959273">
        <ele>1044.4</ele>
        <time>2023-02-11T11:41:01.000Z</time>
      </trkpt>
      <trkpt lat="41.616368" lon="-1.959385">
        <ele>1044.2</ele>
        <time>2023-02-11T11:41:02.000Z</time>
      </trkpt>
      <trkpt lat="41.616299" lon="-1.959497">
        <ele>1044</ele>
        <time>2023-02-11T11:41:03.000Z</time>
      </trkpt>
      <trkpt lat="41.61623" lon="-1.959607">
        <ele>1044</ele>
        <time>2023-02-11T11:41:04.000Z</time>
      </trkpt>
      <trkpt lat="41.616157" lon="-1.959719">
        <ele>1043.4</ele>
        <time>2023-02-11T11:41:05.000Z</time>
      </trkpt>
      <trkpt lat="41.616086" lon="-1.95983">
        <ele>1043.2</ele>
        <time>2023-02-11T11:41:06.000Z</time>
      </trkpt>
      <trkpt lat="41.616012" lon="-1.959938">
        <ele>1042.8</ele>
        <time>2023-02-11T11:41:07.000Z</time>
      </trkpt>
      <trkpt lat="41.615934" lon="-1.960043">
        <ele>1042.4</ele>
        <time>2023-02-11T11:41:08.000Z</time>
      </trkpt>
      <trkpt lat="41.615853" lon="-1.960147">
        <ele>1042.4</ele>
        <time>2023-02-11T11:41:09.000Z</time>
      </trkpt>
      <trkpt lat="41.61577" lon="-1.960257">
        <ele>1041.8</ele>
        <time>2023-02-11T11:41:10.000Z</time>
      </trkpt>
      <trkpt lat="41.615691" lon="-1.960368">
        <ele>1041.6</ele>
        <time>2023-02-11T11:41:11.000Z</time>
      </trkpt>
      <trkpt lat="41.615615" lon="-1.960482">
        <ele>1041.2</ele>
        <time>2023-02-11T11:41:12.000Z</time>
      </trkpt>
      <trkpt lat="41.615538" lon="-1.9606">
        <ele>1041</ele>
        <time>2023-02-11T11:41:13.000Z</time>
      </trkpt>
      <trkpt lat="41.615461" lon="-1.96071">
        <ele>1040.6</ele>
        <time>2023-02-11T11:41:14.000Z</time>
      </trkpt>
      <trkpt lat="41.615385" lon="-1.96082">
        <ele>1040.4</ele>
        <time>2023-02-11T11:41:15.000Z</time>
      </trkpt>
      <trkpt lat="41.61531" lon="-1.96093">
        <ele>1040</ele>
        <time>2023-02-11T11:41:16.000Z</time>
      </trkpt>
      <trkpt lat="41.615241" lon="-1.961036">
        <ele>1039.8</ele>
        <time>2023-02-11T11:41:17.000Z</time>
      </trkpt>
      <trkpt lat="41.615175" lon="-1.961134">
        <ele>1039.4</ele>
        <time>2023-02-11T11:41:18.000Z</time>
      </trkpt>
      <trkpt lat="41.615113" lon="-1.961236">
        <ele>1039.2</ele>
        <time>2023-02-11T11:41:19.000Z</time>
      </trkpt>
      <trkpt lat="41.615055" lon="-1.961356">
        <ele>1039</ele>
        <time>2023-02-11T11:41:20.000Z</time>
      </trkpt>
      <trkpt lat="41.615015" lon="-1.961491">
        <ele>1038.8</ele>
        <time>2023-02-11T11:41:21.000Z</time>
      </trkpt>
      <trkpt lat="41.615003" lon="-1.961637">
        <ele>1038.6</ele>
        <time>2023-02-11T11:41:22.000Z</time>
      </trkpt>
      <trkpt lat="41.615013" lon="-1.961788">
        <ele>1038.4</ele>
        <time>2023-02-11T11:41:23.000Z</time>
      </trkpt>
      <trkpt lat="41.615044" lon="-1.961934">
        <ele>1038.2</ele>
        <time>2023-02-11T11:41:24.000Z</time>
      </trkpt>
      <trkpt lat="41.615096" lon="-1.962073">
        <ele>1038</ele>
        <time>2023-02-11T11:41:25.000Z</time>
      </trkpt>
      <trkpt lat="41.615164" lon="-1.962205">
        <ele>1037.8</ele>
        <time>2023-02-11T11:41:26.000Z</time>
      </trkpt>
      <trkpt lat="41.615231" lon="-1.962333">
        <ele>1037.4</ele>
        <time>2023-02-11T11:41:27.000Z</time>
      </trkpt>
      <trkpt lat="41.615298" lon="-1.962459">
        <ele>1037</ele>
        <time>2023-02-11T11:41:28.000Z</time>
      </trkpt>
      <trkpt lat="41.615369" lon="-1.962584">
        <ele>1036.6</ele>
        <time>2023-02-11T11:41:29.000Z</time>
      </trkpt>
      <trkpt lat="41.615434" lon="-1.962711">
        <ele>1036.2</ele>
        <time>2023-02-11T11:41:30.000Z</time>
      </trkpt>
      <trkpt lat="41.615484" lon="-1.962843">
        <ele>1035.6</ele>
        <time>2023-02-11T11:41:31.000Z</time>
      </trkpt>
      <trkpt lat="41.615516" lon="-1.962987">
        <ele>1034.6</ele>
        <time>2023-02-11T11:41:32.000Z</time>
      </trkpt>
      <trkpt lat="41.615527" lon="-1.963137">
        <ele>1034.4</ele>
        <time>2023-02-11T11:41:33.000Z</time>
      </trkpt>
      <trkpt lat="41.615528" lon="-1.963286">
        <ele>1033.8</ele>
        <time>2023-02-11T11:41:34.000Z</time>
      </trkpt>
      <trkpt lat="41.615542" lon="-1.963438">
        <ele>1033.8</ele>
        <time>2023-02-11T11:41:35.000Z</time>
      </trkpt>
      <trkpt lat="41.615593" lon="-1.963612">
        <ele>1033.2</ele>
        <time>2023-02-11T11:41:36.000Z</time>
      </trkpt>
      <trkpt lat="41.615652" lon="-1.963709">
        <ele>1033.2</ele>
        <time>2023-02-11T11:41:37.000Z</time>
      </trkpt>
      <trkpt lat="41.615735" lon="-1.963814">
        <ele>1032.2</ele>
        <time>2023-02-11T11:41:38.000Z</time>
      </trkpt>
      <trkpt lat="41.615846" lon="-1.963876">
        <ele>1031.4</ele>
        <time>2023-02-11T11:41:39.000Z</time>
      </trkpt>
      <trkpt lat="41.615967" lon="-1.963929">
        <ele>1031</ele>
        <time>2023-02-11T11:41:40.000Z</time>
      </trkpt>
      <trkpt lat="41.616092" lon="-1.963981">
        <ele>1030.4</ele>
        <time>2023-02-11T11:41:41.000Z</time>
      </trkpt>
      <trkpt lat="41.61622" lon="-1.964023">
        <ele>1029.8</ele>
        <time>2023-02-11T11:41:42.000Z</time>
      </trkpt>
      <trkpt lat="41.616348" lon="-1.964068">
        <ele>1029.2</ele>
        <time>2023-02-11T11:41:43.000Z</time>
      </trkpt>
      <trkpt lat="41.616477" lon="-1.964131">
        <ele>1028.8</ele>
        <time>2023-02-11T11:41:44.000Z</time>
      </trkpt>
      <trkpt lat="41.616596" lon="-1.964217">
        <ele>1028.4</ele>
        <time>2023-02-11T11:41:45.000Z</time>
      </trkpt>
      <trkpt lat="41.616714" lon="-1.964306">
        <ele>1027.8</ele>
        <time>2023-02-11T11:41:46.000Z</time>
      </trkpt>
      <trkpt lat="41.616828" lon="-1.964391">
        <ele>1027</ele>
        <time>2023-02-11T11:41:47.000Z</time>
      </trkpt>
      <trkpt lat="41.616935" lon="-1.964467">
        <ele>1026</ele>
        <time>2023-02-11T11:41:48.000Z</time>
      </trkpt>
      <trkpt lat="41.617029" lon="-1.96454">
        <ele>1025.8</ele>
        <time>2023-02-11T11:41:49.000Z</time>
      </trkpt>
      <trkpt lat="41.617116" lon="-1.964618">
        <ele>1025.2</ele>
        <time>2023-02-11T11:41:50.000Z</time>
      </trkpt>
      <trkpt lat="41.61719" lon="-1.964722">
        <ele>1025</ele>
        <time>2023-02-11T11:41:51.000Z</time>
      </trkpt>
      <trkpt lat="41.617234" lon="-1.964855">
        <ele>1024.4</ele>
        <time>2023-02-11T11:41:52.000Z</time>
      </trkpt>
      <trkpt lat="41.617258" lon="-1.965001">
        <ele>1024.2</ele>
        <time>2023-02-11T11:41:53.000Z</time>
      </trkpt>
      <trkpt lat="41.617276" lon="-1.965153">
        <ele>1023.6</ele>
        <time>2023-02-11T11:41:54.000Z</time>
      </trkpt>
      <trkpt lat="41.617294" lon="-1.965306">
        <ele>1023.4</ele>
        <time>2023-02-11T11:41:55.000Z</time>
      </trkpt>
      <trkpt lat="41.617315" lon="-1.965461">
        <ele>1023.2</ele>
        <time>2023-02-11T11:41:56.000Z</time>
      </trkpt>
      <trkpt lat="41.617347" lon="-1.965615">
        <ele>1022.6</ele>
        <time>2023-02-11T11:41:57.000Z</time>
      </trkpt>
      <trkpt lat="41.617385" lon="-1.965772">
        <ele>1022.4</ele>
        <time>2023-02-11T11:41:58.000Z</time>
      </trkpt>
      <trkpt lat="41.617426" lon="-1.965923">
        <ele>1022</ele>
        <time>2023-02-11T11:41:59.000Z</time>
      </trkpt>
      <trkpt lat="41.61747" lon="-1.966069">
        <ele>1021.8</ele>
        <time>2023-02-11T11:42:00.000Z</time>
      </trkpt>
      <trkpt lat="41.617515" lon="-1.966214">
        <ele>1021.2</ele>
        <time>2023-02-11T11:42:01.000Z</time>
      </trkpt>
      <trkpt lat="41.617557" lon="-1.966353">
        <ele>1021</ele>
        <time>2023-02-11T11:42:02.000Z</time>
      </trkpt>
      <trkpt lat="41.617596" lon="-1.966488">
        <ele>1020.8</ele>
        <time>2023-02-11T11:42:03.000Z</time>
      </trkpt>
      <trkpt lat="41.617637" lon="-1.96662">
        <ele>1020.6</ele>
        <time>2023-02-11T11:42:04.000Z</time>
      </trkpt>
      <trkpt lat="41.617676" lon="-1.96675">
        <ele>1020.4</ele>
        <time>2023-02-11T11:42:05.000Z</time>
      </trkpt>
      <trkpt lat="41.617717" lon="-1.966881">
        <ele>1020.4</ele>
        <time>2023-02-11T11:42:06.000Z</time>
      </trkpt>
      <trkpt lat="41.617759" lon="-1.967011">
        <ele>1020.2</ele>
        <time>2023-02-11T11:42:07.000Z</time>
      </trkpt>
      <trkpt lat="41.6178" lon="-1.967141">
        <ele>1020</ele>
        <time>2023-02-11T11:42:08.000Z</time>
      </trkpt>
      <trkpt lat="41.617846" lon="-1.967269">
        <ele>1020</ele>
        <time>2023-02-11T11:42:09.000Z</time>
      </trkpt>
      <trkpt lat="41.617897" lon="-1.967388">
        <ele>1019.8</ele>
        <time>2023-02-11T11:42:10.000Z</time>
      </trkpt>
      <trkpt lat="41.617956" lon="-1.967495">
        <ele>1019.8</ele>
        <time>2023-02-11T11:42:11.000Z</time>
      </trkpt>
      <trkpt lat="41.618031" lon="-1.96758">
        <ele>1019.6</ele>
        <time>2023-02-11T11:42:12.000Z</time>
      </trkpt>
      <trkpt lat="41.618118" lon="-1.967646">
        <ele>1019.6</ele>
        <time>2023-02-11T11:42:13.000Z</time>
      </trkpt>
      <trkpt lat="41.61821" lon="-1.967701">
        <ele>1019.4</ele>
        <time>2023-02-11T11:42:14.000Z</time>
      </trkpt>
      <trkpt lat="41.6183" lon="-1.967747">
        <ele>1019.4</ele>
        <time>2023-02-11T11:42:15.000Z</time>
      </trkpt>
      <trkpt lat="41.618389" lon="-1.967785">
        <ele>1019.4</ele>
        <time>2023-02-11T11:42:16.000Z</time>
      </trkpt>
      <trkpt lat="41.618478" lon="-1.967815">
        <ele>1019.4</ele>
        <time>2023-02-11T11:42:17.000Z</time>
      </trkpt>
      <trkpt lat="41.618569" lon="-1.967835">
        <ele>1019.4</ele>
        <time>2023-02-11T11:42:18.000Z</time>
      </trkpt>
      <trkpt lat="41.618653" lon="-1.967855">
        <ele>1019.4</ele>
        <time>2023-02-11T11:42:19.000Z</time>
      </trkpt>
      <trkpt lat="41.61873" lon="-1.967878">
        <ele>1019.4</ele>
        <time>2023-02-11T11:42:20.000Z</time>
      </trkpt>
      <trkpt lat="41.618804" lon="-1.967909">
        <ele>1019.6</ele>
        <time>2023-02-11T11:42:21.000Z</time>
      </trkpt>
      <trkpt lat="41.618879" lon="-1.967948">
        <ele>1019.6</ele>
        <time>2023-02-11T11:42:22.000Z</time>
      </trkpt>
      <trkpt lat="41.618953" lon="-1.967993">
        <ele>1019.8</ele>
        <time>2023-02-11T11:42:23.000Z</time>
      </trkpt>
      <trkpt lat="41.619025" lon="-1.968039">
        <ele>1020</ele>
        <time>2023-02-11T11:42:24.000Z</time>
      </trkpt>
      <trkpt lat="41.619101" lon="-1.968089">
        <ele>1020.2</ele>
        <time>2023-02-11T11:42:25.000Z</time>
      </trkpt>
      <trkpt lat="41.619177" lon="-1.968141">
        <ele>1020.4</ele>
        <time>2023-02-11T11:42:26.000Z</time>
      </trkpt>
      <trkpt lat="41.619259" lon="-1.96819">
        <ele>1020.6</ele>
        <time>2023-02-11T11:42:27.000Z</time>
      </trkpt>
      <trkpt lat="41.619344" lon="-1.968227">
        <ele>1020.6</ele>
        <time>2023-02-11T11:42:28.000Z</time>
      </trkpt>
      <trkpt lat="41.619432" lon="-1.968238">
        <ele>1020.8</ele>
        <time>2023-02-11T11:42:29.000Z</time>
      </trkpt>
      <trkpt lat="41.619522" lon="-1.968224">
        <ele>1020.8</ele>
        <time>2023-02-11T11:42:30.000Z</time>
      </trkpt>
      <trkpt lat="41.61961" lon="-1.968195">
        <ele>1020.8</ele>
        <time>2023-02-11T11:42:31.000Z</time>
      </trkpt>
      <trkpt lat="41.619697" lon="-1.968161">
        <ele>1020.8</ele>
        <time>2023-02-11T11:42:32.000Z</time>
      </trkpt>
      <trkpt lat="41.619785" lon="-1.96813">
        <ele>1020.8</ele>
        <time>2023-02-11T11:42:33.000Z</time>
      </trkpt>
      <trkpt lat="41.619874" lon="-1.968113">
        <ele>1021</ele>
        <time>2023-02-11T11:42:34.000Z</time>
      </trkpt>
      <trkpt lat="41.619963" lon="-1.968113">
        <ele>1021</ele>
        <time>2023-02-11T11:42:35.000Z</time>
      </trkpt>
      <trkpt lat="41.620048" lon="-1.968133">
        <ele>1021.2</ele>
        <time>2023-02-11T11:42:36.000Z</time>
      </trkpt>
      <trkpt lat="41.620133" lon="-1.96816">
        <ele>1021.2</ele>
        <time>2023-02-11T11:42:37.000Z</time>
      </trkpt>
      <trkpt lat="41.62022" lon="-1.968206">
        <ele>1021.2</ele>
        <time>2023-02-11T11:42:38.000Z</time>
      </trkpt>
      <trkpt lat="41.620306" lon="-1.968284">
        <ele>1021.4</ele>
        <time>2023-02-11T11:42:39.000Z</time>
      </trkpt>
      <trkpt lat="41.620387" lon="-1.968359">
        <ele>1021.4</ele>
        <time>2023-02-11T11:42:40.000Z</time>
      </trkpt>
      <trkpt lat="41.620467" lon="-1.968429">
        <ele>1021.6</ele>
        <time>2023-02-11T11:42:41.000Z</time>
      </trkpt>
      <trkpt lat="41.620547" lon="-1.968501">
        <ele>1021.6</ele>
        <time>2023-02-11T11:42:42.000Z</time>
      </trkpt>
      <trkpt lat="41.620619" lon="-1.968579">
        <ele>1021.8</ele>
        <time>2023-02-11T11:42:43.000Z</time>
      </trkpt>
      <trkpt lat="41.620691" lon="-1.968665">
        <ele>1021.8</ele>
        <time>2023-02-11T11:42:44.000Z</time>
      </trkpt>
      <trkpt lat="41.620755" lon="-1.968754">
        <ele>1022</ele>
        <time>2023-02-11T11:42:45.000Z</time>
      </trkpt>
      <trkpt lat="41.620815" lon="-1.968854">
        <ele>1022.2</ele>
        <time>2023-02-11T11:42:46.000Z</time>
      </trkpt>
      <trkpt lat="41.620874" lon="-1.968956">
        <ele>1022.4</ele>
        <time>2023-02-11T11:42:47.000Z</time>
      </trkpt>
      <trkpt lat="41.620921" lon="-1.969055">
        <ele>1022.6</ele>
        <time>2023-02-11T11:42:48.000Z</time>
      </trkpt>
      <trkpt lat="41.620969" lon="-1.969161">
        <ele>1022.6</ele>
        <time>2023-02-11T11:42:49.000Z</time>
      </trkpt>
      <trkpt lat="41.621016" lon="-1.969266">
        <ele>1022.8</ele>
        <time>2023-02-11T11:42:50.000Z</time>
      </trkpt>
      <trkpt lat="41.621055" lon="-1.969374">
        <ele>1022.8</ele>
        <time>2023-02-11T11:42:51.000Z</time>
      </trkpt>
      <trkpt lat="41.621098" lon="-1.969471">
        <ele>1023</ele>
        <time>2023-02-11T11:42:52.000Z</time>
      </trkpt>
      <trkpt lat="41.621135" lon="-1.969569">
        <ele>1022.8</ele>
        <time>2023-02-11T11:42:53.000Z</time>
      </trkpt>
      <trkpt lat="41.621168" lon="-1.969665">
        <ele>1022.8</ele>
        <time>2023-02-11T11:42:54.000Z</time>
      </trkpt>
      <trkpt lat="41.621212" lon="-1.969759">
        <ele>1023.2</ele>
        <time>2023-02-11T11:42:55.000Z</time>
      </trkpt>
      <trkpt lat="41.621255" lon="-1.969845">
        <ele>1023.2</ele>
        <time>2023-02-11T11:42:56.000Z</time>
      </trkpt>
      <trkpt lat="41.621294" lon="-1.969941">
        <ele>1023.2</ele>
        <time>2023-02-11T11:42:57.000Z</time>
      </trkpt>
      <trkpt lat="41.621335" lon="-1.970026">
        <ele>1023.4</ele>
        <time>2023-02-11T11:42:58.000Z</time>
      </trkpt>
      <trkpt lat="41.621374" lon="-1.970127">
        <ele>1023.6</ele>
        <time>2023-02-11T11:42:59.000Z</time>
      </trkpt>
      <trkpt lat="41.621412" lon="-1.970229">
        <ele>1023.6</ele>
        <time>2023-02-11T11:43:00.000Z</time>
      </trkpt>
      <trkpt lat="41.621451" lon="-1.970331">
        <ele>1023.8</ele>
        <time>2023-02-11T11:43:01.000Z</time>
      </trkpt>
      <trkpt lat="41.621494" lon="-1.970429">
        <ele>1024</ele>
        <time>2023-02-11T11:43:02.000Z</time>
      </trkpt>
      <trkpt lat="41.621534" lon="-1.970531">
        <ele>1024</ele>
        <time>2023-02-11T11:43:03.000Z</time>
      </trkpt>
      <trkpt lat="41.621574" lon="-1.970632">
        <ele>1024.2</ele>
        <time>2023-02-11T11:43:04.000Z</time>
      </trkpt>
      <trkpt lat="41.621616" lon="-1.970732">
        <ele>1024.2</ele>
        <time>2023-02-11T11:43:05.000Z</time>
      </trkpt>
      <trkpt lat="41.62166" lon="-1.970831">
        <ele>1024.4</ele>
        <time>2023-02-11T11:43:06.000Z</time>
      </trkpt>
      <trkpt lat="41.621702" lon="-1.970932">
        <ele>1024.4</ele>
        <time>2023-02-11T11:43:07.000Z</time>
      </trkpt>
      <trkpt lat="41.621739" lon="-1.971033">
        <ele>1024.6</ele>
        <time>2023-02-11T11:43:08.000Z</time>
      </trkpt>
      <trkpt lat="41.621772" lon="-1.971136">
        <ele>1024.6</ele>
        <time>2023-02-11T11:43:09.000Z</time>
      </trkpt>
      <trkpt lat="41.621798" lon="-1.971239">
        <ele>1024.8</ele>
        <time>2023-02-11T11:43:10.000Z</time>
      </trkpt>
      <trkpt lat="41.621815" lon="-1.971345">
        <ele>1025</ele>
        <time>2023-02-11T11:43:11.000Z</time>
      </trkpt>
      <trkpt lat="41.621823" lon="-1.971449">
        <ele>1025</ele>
        <time>2023-02-11T11:43:12.000Z</time>
      </trkpt>
      <trkpt lat="41.62182" lon="-1.971552">
        <ele>1025.2</ele>
        <time>2023-02-11T11:43:13.000Z</time>
      </trkpt>
      <trkpt lat="41.621815" lon="-1.971651">
        <ele>1025.2</ele>
        <time>2023-02-11T11:43:14.000Z</time>
      </trkpt>
      <trkpt lat="41.621801" lon="-1.971759">
        <ele>1025.4</ele>
        <time>2023-02-11T11:43:15.000Z</time>
      </trkpt>
      <trkpt lat="41.621789" lon="-1.971858">
        <ele>1025.4</ele>
        <time>2023-02-11T11:43:16.000Z</time>
      </trkpt>
      <trkpt lat="41.621775" lon="-1.971964">
        <ele>1025.6</ele>
        <time>2023-02-11T11:43:17.000Z</time>
      </trkpt>
      <trkpt lat="41.621759" lon="-1.972069">
        <ele>1025.6</ele>
        <time>2023-02-11T11:43:18.000Z</time>
      </trkpt>
      <trkpt lat="41.621746" lon="-1.972174">
        <ele>1025.8</ele>
        <time>2023-02-11T11:43:19.000Z</time>
      </trkpt>
      <trkpt lat="41.621737" lon="-1.972281">
        <ele>1026</ele>
        <time>2023-02-11T11:43:20.000Z</time>
      </trkpt>
      <trkpt lat="41.621723" lon="-1.972385">
        <ele>1026.2</ele>
        <time>2023-02-11T11:43:21.000Z</time>
      </trkpt>
      <trkpt lat="41.621711" lon="-1.972487">
        <ele>1026.2</ele>
        <time>2023-02-11T11:43:22.000Z</time>
      </trkpt>
      <trkpt lat="41.621696" lon="-1.972583">
        <ele>1026.6</ele>
        <time>2023-02-11T11:43:23.000Z</time>
      </trkpt>
      <trkpt lat="41.621677" lon="-1.972679">
        <ele>1026.8</ele>
        <time>2023-02-11T11:43:24.000Z</time>
      </trkpt>
      <trkpt lat="41.62165" lon="-1.972771">
        <ele>1027</ele>
        <time>2023-02-11T11:43:25.000Z</time>
      </trkpt>
      <trkpt lat="41.621618" lon="-1.972858">
        <ele>1027.2</ele>
        <time>2023-02-11T11:43:26.000Z</time>
      </trkpt>
      <trkpt lat="41.621576" lon="-1.972939">
        <ele>1027.4</ele>
        <time>2023-02-11T11:43:27.000Z</time>
      </trkpt>
      <trkpt lat="41.621528" lon="-1.973016">
        <ele>1027.6</ele>
        <time>2023-02-11T11:43:28.000Z</time>
      </trkpt>
      <trkpt lat="41.621477" lon="-1.973093">
        <ele>1027.8</ele>
        <time>2023-02-11T11:43:29.000Z</time>
      </trkpt>
      <trkpt lat="41.621427" lon="-1.973158">
        <ele>1028</ele>
        <time>2023-02-11T11:43:30.000Z</time>
      </trkpt>
      <trkpt lat="41.621376" lon="-1.973225">
        <ele>1028</ele>
        <time>2023-02-11T11:43:31.000Z</time>
      </trkpt>
      <trkpt lat="41.621322" lon="-1.973288">
        <ele>1028.2</ele>
        <time>2023-02-11T11:43:32.000Z</time>
      </trkpt>
      <trkpt lat="41.621263" lon="-1.973348">
        <ele>1028.2</ele>
        <time>2023-02-11T11:43:33.000Z</time>
      </trkpt>
      <trkpt lat="41.621203" lon="-1.973399">
        <ele>1028.4</ele>
        <time>2023-02-11T11:43:34.000Z</time>
      </trkpt>
      <trkpt lat="41.621144" lon="-1.973448">
        <ele>1028.4</ele>
        <time>2023-02-11T11:43:35.000Z</time>
      </trkpt>
      <trkpt lat="41.621089" lon="-1.973493">
        <ele>1028.4</ele>
        <time>2023-02-11T11:43:36.000Z</time>
      </trkpt>
      <trkpt lat="41.621033" lon="-1.973535">
        <ele>1028.8</ele>
        <time>2023-02-11T11:43:37.000Z</time>
      </trkpt>
      <trkpt lat="41.620976" lon="-1.973574">
        <ele>1028.8</ele>
        <time>2023-02-11T11:43:38.000Z</time>
      </trkpt>
      <trkpt lat="41.620922" lon="-1.97361">
        <ele>1029</ele>
        <time>2023-02-11T11:43:39.000Z</time>
      </trkpt>
      <trkpt lat="41.620867" lon="-1.973645">
        <ele>1029.2</ele>
        <time>2023-02-11T11:43:40.000Z</time>
      </trkpt>
      <trkpt lat="41.620813" lon="-1.973678">
        <ele>1029.8</ele>
        <time>2023-02-11T11:43:41.000Z</time>
      </trkpt>
      <trkpt lat="41.620767" lon="-1.973708">
        <ele>1030</ele>
        <time>2023-02-11T11:43:42.000Z</time>
      </trkpt>
      <trkpt lat="41.620727" lon="-1.973739">
        <ele>1030.2</ele>
        <time>2023-02-11T11:43:43.000Z</time>
      </trkpt>
      <trkpt lat="41.620692" lon="-1.973772">
        <ele>1030.6</ele>
        <time>2023-02-11T11:43:44.000Z</time>
      </trkpt>
      <trkpt lat="41.62066" lon="-1.973808">
        <ele>1031</ele>
        <time>2023-02-11T11:43:45.000Z</time>
      </trkpt>
      <trkpt lat="41.620632" lon="-1.973847">
        <ele>1031.8</ele>
        <time>2023-02-11T11:43:46.000Z</time>
      </trkpt>
      <trkpt lat="41.620605" lon="-1.973888">
        <ele>1032.2</ele>
        <time>2023-02-11T11:43:47.000Z</time>
      </trkpt>
      <trkpt lat="41.62058" lon="-1.973933">
        <ele>1032.8</ele>
        <time>2023-02-11T11:43:48.000Z</time>
      </trkpt>
      <trkpt lat="41.62056" lon="-1.973982">
        <ele>1033</ele>
        <time>2023-02-11T11:43:49.000Z</time>
      </trkpt>
      <trkpt lat="41.620541" lon="-1.97403">
        <ele>1033.4</ele>
        <time>2023-02-11T11:43:50.000Z</time>
      </trkpt>
      <trkpt lat="41.620521" lon="-1.974078">
        <ele>1033.6</ele>
        <time>2023-02-11T11:43:51.000Z</time>
      </trkpt>
      <trkpt lat="41.620503" lon="-1.974128">
        <ele>1033.8</ele>
        <time>2023-02-11T11:43:52.000Z</time>
      </trkpt>
      <trkpt lat="41.620483" lon="-1.97418">
        <ele>1034.2</ele>
        <time>2023-02-11T11:43:53.000Z</time>
      </trkpt>
      <trkpt lat="41.620463" lon="-1.974236">
        <ele>1034.6</ele>
        <time>2023-02-11T11:43:54.000Z</time>
      </trkpt>
      <trkpt lat="41.620448" lon="-1.974295">
        <ele>1035</ele>
        <time>2023-02-11T11:43:55.000Z</time>
      </trkpt>
      <trkpt lat="41.620436" lon="-1.974355">
        <ele>1035.2</ele>
        <time>2023-02-11T11:43:56.000Z</time>
      </trkpt>
      <trkpt lat="41.62043" lon="-1.974418">
        <ele>1035.4</ele>
        <time>2023-02-11T11:43:57.000Z</time>
      </trkpt>
      <trkpt lat="41.620425" lon="-1.974482">
        <ele>1035.8</ele>
        <time>2023-02-11T11:43:58.000Z</time>
      </trkpt>
      <trkpt lat="41.620418" lon="-1.974547">
        <ele>1036.2</ele>
        <time>2023-02-11T11:43:59.000Z</time>
      </trkpt>
      <trkpt lat="41.620411" lon="-1.974612">
        <ele>1036.4</ele>
        <time>2023-02-11T11:44:00.000Z</time>
      </trkpt>
      <trkpt lat="41.620407" lon="-1.974671">
        <ele>1037</ele>
        <time>2023-02-11T11:44:01.000Z</time>
      </trkpt>
      <trkpt lat="41.620403" lon="-1.974733">
        <ele>1037.2</ele>
        <time>2023-02-11T11:44:02.000Z</time>
      </trkpt>
      <trkpt lat="41.620402" lon="-1.974797">
        <ele>1037.6</ele>
        <time>2023-02-11T11:44:03.000Z</time>
      </trkpt>
      <trkpt lat="41.620401" lon="-1.974861">
        <ele>1037.8</ele>
        <time>2023-02-11T11:44:04.000Z</time>
      </trkpt>
      <trkpt lat="41.620401" lon="-1.974928">
        <ele>1038</ele>
        <time>2023-02-11T11:44:05.000Z</time>
      </trkpt>
      <trkpt lat="41.620404" lon="-1.974995">
        <ele>1038.4</ele>
        <time>2023-02-11T11:44:06.000Z</time>
      </trkpt>
      <trkpt lat="41.620409" lon="-1.975062">
        <ele>1038.6</ele>
        <time>2023-02-11T11:44:07.000Z</time>
      </trkpt>
      <trkpt lat="41.620416" lon="-1.975132">
        <ele>1039</ele>
        <time>2023-02-11T11:44:08.000Z</time>
      </trkpt>
      <trkpt lat="41.620425" lon="-1.975204">
        <ele>1039.2</ele>
        <time>2023-02-11T11:44:09.000Z</time>
      </trkpt>
      <trkpt lat="41.620432" lon="-1.97527">
        <ele>1039.6</ele>
        <time>2023-02-11T11:44:10.000Z</time>
      </trkpt>
      <trkpt lat="41.620437" lon="-1.975339">
        <ele>1039.6</ele>
        <time>2023-02-11T11:44:11.000Z</time>
      </trkpt>
      <trkpt lat="41.620442" lon="-1.97541">
        <ele>1039.8</ele>
        <time>2023-02-11T11:44:12.000Z</time>
      </trkpt>
      <trkpt lat="41.620445" lon="-1.975481">
        <ele>1040</ele>
        <time>2023-02-11T11:44:13.000Z</time>
      </trkpt>
      <trkpt lat="41.620445" lon="-1.975552">
        <ele>1040</ele>
        <time>2023-02-11T11:44:14.000Z</time>
      </trkpt>
      <trkpt lat="41.620444" lon="-1.975623">
        <ele>1040.2</ele>
        <time>2023-02-11T11:44:15.000Z</time>
      </trkpt>
      <trkpt lat="41.620441" lon="-1.975694">
        <ele>1040.2</ele>
        <time>2023-02-11T11:44:16.000Z</time>
      </trkpt>
      <trkpt lat="41.620434" lon="-1.975766">
        <ele>1040.4</ele>
        <time>2023-02-11T11:44:17.000Z</time>
      </trkpt>
      <trkpt lat="41.620424" lon="-1.975837">
        <ele>1040.4</ele>
        <time>2023-02-11T11:44:18.000Z</time>
      </trkpt>
      <trkpt lat="41.620414" lon="-1.975909">
        <ele>1040.6</ele>
        <time>2023-02-11T11:44:19.000Z</time>
      </trkpt>
      <trkpt lat="41.620403" lon="-1.975983">
        <ele>1040.6</ele>
        <time>2023-02-11T11:44:20.000Z</time>
      </trkpt>
      <trkpt lat="41.620392" lon="-1.976058">
        <ele>1040.8</ele>
        <time>2023-02-11T11:44:21.000Z</time>
      </trkpt>
      <trkpt lat="41.620378" lon="-1.976133">
        <ele>1040.8</ele>
        <time>2023-02-11T11:44:22.000Z</time>
      </trkpt>
      <trkpt lat="41.620365" lon="-1.976208">
        <ele>1041</ele>
        <time>2023-02-11T11:44:23.000Z</time>
      </trkpt>
      <trkpt lat="41.620351" lon="-1.976281">
        <ele>1041.2</ele>
        <time>2023-02-11T11:44:24.000Z</time>
      </trkpt>
      <trkpt lat="41.620339" lon="-1.976357">
        <ele>1041.4</ele>
        <time>2023-02-11T11:44:25.000Z</time>
      </trkpt>
      <trkpt lat="41.620331" lon="-1.976434">
        <ele>1041.4</ele>
        <time>2023-02-11T11:44:26.000Z</time>
      </trkpt>
      <trkpt lat="41.620325" lon="-1.97651">
        <ele>1041.4</ele>
        <time>2023-02-11T11:44:27.000Z</time>
      </trkpt>
      <trkpt lat="41.620321" lon="-1.976588">
        <ele>1041.6</ele>
        <time>2023-02-11T11:44:28.000Z</time>
      </trkpt>
      <trkpt lat="41.62032" lon="-1.976669">
        <ele>1041.6</ele>
        <time>2023-02-11T11:44:29.000Z</time>
      </trkpt>
      <trkpt lat="41.62032" lon="-1.976751">
        <ele>1041.8</ele>
        <time>2023-02-11T11:44:30.000Z</time>
      </trkpt>
      <trkpt lat="41.620322" lon="-1.976833">
        <ele>1042</ele>
        <time>2023-02-11T11:44:31.000Z</time>
      </trkpt>
      <trkpt lat="41.620325" lon="-1.976917">
        <ele>1042.2</ele>
        <time>2023-02-11T11:44:32.000Z</time>
      </trkpt>
      <trkpt lat="41.620329" lon="-1.977001">
        <ele>1042.4</ele>
        <time>2023-02-11T11:44:33.000Z</time>
      </trkpt>
      <trkpt lat="41.620335" lon="-1.977085">
        <ele>1042.6</ele>
        <time>2023-02-11T11:44:34.000Z</time>
      </trkpt>
      <trkpt lat="41.620339" lon="-1.977168">
        <ele>1042.8</ele>
        <time>2023-02-11T11:44:35.000Z</time>
      </trkpt>
      <trkpt lat="41.620342" lon="-1.977252">
        <ele>1043</ele>
        <time>2023-02-11T11:44:36.000Z</time>
      </trkpt>
      <trkpt lat="41.620343" lon="-1.977336">
        <ele>1043.2</ele>
        <time>2023-02-11T11:44:37.000Z</time>
      </trkpt>
      <trkpt lat="41.620347" lon="-1.977419">
        <ele>1043.4</ele>
        <time>2023-02-11T11:44:38.000Z</time>
      </trkpt>
      <trkpt lat="41.620353" lon="-1.977505">
        <ele>1043.6</ele>
        <time>2023-02-11T11:44:39.000Z</time>
      </trkpt>
      <trkpt lat="41.620358" lon="-1.977589">
        <ele>1043.8</ele>
        <time>2023-02-11T11:44:40.000Z</time>
      </trkpt>
      <trkpt lat="41.620362" lon="-1.977672">
        <ele>1044</ele>
        <time>2023-02-11T11:44:41.000Z</time>
      </trkpt>
      <trkpt lat="41.620365" lon="-1.977756">
        <ele>1044.2</ele>
        <time>2023-02-11T11:44:42.000Z</time>
      </trkpt>
      <trkpt lat="41.620366" lon="-1.977841">
        <ele>1044.4</ele>
        <time>2023-02-11T11:44:43.000Z</time>
      </trkpt>
      <trkpt lat="41.62037" lon="-1.977926">
        <ele>1044.8</ele>
        <time>2023-02-11T11:44:44.000Z</time>
      </trkpt>
      <trkpt lat="41.620373" lon="-1.978011">
        <ele>1045</ele>
        <time>2023-02-11T11:44:45.000Z</time>
      </trkpt>
      <trkpt lat="41.620377" lon="-1.978097">
        <ele>1045.2</ele>
        <time>2023-02-11T11:44:46.000Z</time>
      </trkpt>
      <trkpt lat="41.620379" lon="-1.978183">
        <ele>1045.2</ele>
        <time>2023-02-11T11:44:47.000Z</time>
      </trkpt>
      <trkpt lat="41.62038" lon="-1.97827">
        <ele>1045.4</ele>
        <time>2023-02-11T11:44:48.000Z</time>
      </trkpt>
      <trkpt lat="41.620384" lon="-1.978354">
        <ele>1045.4</ele>
        <time>2023-02-11T11:44:49.000Z</time>
      </trkpt>
      <trkpt lat="41.620387" lon="-1.97844">
        <ele>1045.6</ele>
        <time>2023-02-11T11:44:50.000Z</time>
      </trkpt>
      <trkpt lat="41.620389" lon="-1.978526">
        <ele>1045.8</ele>
        <time>2023-02-11T11:44:51.000Z</time>
      </trkpt>
      <trkpt lat="41.620391" lon="-1.978613">
        <ele>1046</ele>
        <time>2023-02-11T11:44:52.000Z</time>
      </trkpt>
      <trkpt lat="41.620395" lon="-1.978699">
        <ele>1046.2</ele>
        <time>2023-02-11T11:44:53.000Z</time>
      </trkpt>
      <trkpt lat="41.620399" lon="-1.978783">
        <ele>1046.4</ele>
        <time>2023-02-11T11:44:54.000Z</time>
      </trkpt>
      <trkpt lat="41.620403" lon="-1.978867">
        <ele>1046.6</ele>
        <time>2023-02-11T11:44:55.000Z</time>
      </trkpt>
      <trkpt lat="41.620404" lon="-1.978952">
        <ele>1046.8</ele>
        <time>2023-02-11T11:44:56.000Z</time>
      </trkpt>
      <trkpt lat="41.620406" lon="-1.979036">
        <ele>1047</ele>
        <time>2023-02-11T11:44:57.000Z</time>
      </trkpt>
      <trkpt lat="41.620407" lon="-1.97912">
        <ele>1047</ele>
        <time>2023-02-11T11:44:58.000Z</time>
      </trkpt>
      <trkpt lat="41.620407" lon="-1.979206">
        <ele>1047.2</ele>
        <time>2023-02-11T11:44:59.000Z</time>
      </trkpt>
      <trkpt lat="41.620409" lon="-1.979291">
        <ele>1047.4</ele>
        <time>2023-02-11T11:45:00.000Z</time>
      </trkpt>
      <trkpt lat="41.620411" lon="-1.979373">
        <ele>1047.6</ele>
        <time>2023-02-11T11:45:01.000Z</time>
      </trkpt>
      <trkpt lat="41.620414" lon="-1.979458">
        <ele>1047.8</ele>
        <time>2023-02-11T11:45:02.000Z</time>
      </trkpt>
      <trkpt lat="41.620418" lon="-1.979541">
        <ele>1048</ele>
        <time>2023-02-11T11:45:03.000Z</time>
      </trkpt>
      <trkpt lat="41.620419" lon="-1.979627">
        <ele>1048.2</ele>
        <time>2023-02-11T11:45:04.000Z</time>
      </trkpt>
      <trkpt lat="41.620421" lon="-1.979712">
        <ele>1048.2</ele>
        <time>2023-02-11T11:45:05.000Z</time>
      </trkpt>
      <trkpt lat="41.620425" lon="-1.9798">
        <ele>1048.4</ele>
        <time>2023-02-11T11:45:06.000Z</time>
      </trkpt>
      <trkpt lat="41.62043" lon="-1.979886">
        <ele>1048.6</ele>
        <time>2023-02-11T11:45:07.000Z</time>
      </trkpt>
      <trkpt lat="41.620435" lon="-1.979974">
        <ele>1048.8</ele>
        <time>2023-02-11T11:45:08.000Z</time>
      </trkpt>
      <trkpt lat="41.620438" lon="-1.980061">
        <ele>1048.8</ele>
        <time>2023-02-11T11:45:09.000Z</time>
      </trkpt>
      <trkpt lat="41.620443" lon="-1.98015">
        <ele>1049</ele>
        <time>2023-02-11T11:45:10.000Z</time>
      </trkpt>
      <trkpt lat="41.620447" lon="-1.980238">
        <ele>1049</ele>
        <time>2023-02-11T11:45:11.000Z</time>
      </trkpt>
      <trkpt lat="41.620451" lon="-1.980329">
        <ele>1049.2</ele>
        <time>2023-02-11T11:45:12.000Z</time>
      </trkpt>
      <trkpt lat="41.620455" lon="-1.980421">
        <ele>1049.4</ele>
        <time>2023-02-11T11:45:13.000Z</time>
      </trkpt>
      <trkpt lat="41.62046" lon="-1.980515">
        <ele>1049.4</ele>
        <time>2023-02-11T11:45:14.000Z</time>
      </trkpt>
      <trkpt lat="41.620464" lon="-1.980609">
        <ele>1049.6</ele>
        <time>2023-02-11T11:45:15.000Z</time>
      </trkpt>
      <trkpt lat="41.620471" lon="-1.980703">
        <ele>1049.6</ele>
        <time>2023-02-11T11:45:16.000Z</time>
      </trkpt>
      <trkpt lat="41.620477" lon="-1.980798">
        <ele>1049.8</ele>
        <time>2023-02-11T11:45:17.000Z</time>
      </trkpt>
      <trkpt lat="41.620485" lon="-1.980891">
        <ele>1049.8</ele>
        <time>2023-02-11T11:45:18.000Z</time>
      </trkpt>
      <trkpt lat="41.620493" lon="-1.980982">
        <ele>1050</ele>
        <time>2023-02-11T11:45:19.000Z</time>
      </trkpt>
      <trkpt lat="41.620507" lon="-1.98107">
        <ele>1050.2</ele>
        <time>2023-02-11T11:45:20.000Z</time>
      </trkpt>
      <trkpt lat="41.620529" lon="-1.981161">
        <ele>1050.4</ele>
        <time>2023-02-11T11:45:21.000Z</time>
      </trkpt>
      <trkpt lat="41.620555" lon="-1.981253">
        <ele>1050.4</ele>
        <time>2023-02-11T11:45:22.000Z</time>
      </trkpt>
      <trkpt lat="41.620582" lon="-1.981341">
        <ele>1050.6</ele>
        <time>2023-02-11T11:45:23.000Z</time>
      </trkpt>
      <trkpt lat="41.620614" lon="-1.981427">
        <ele>1050.6</ele>
        <time>2023-02-11T11:45:24.000Z</time>
      </trkpt>
      <trkpt lat="41.620648" lon="-1.981511">
        <ele>1050.8</ele>
        <time>2023-02-11T11:45:25.000Z</time>
      </trkpt>
      <trkpt lat="41.620684" lon="-1.981593">
        <ele>1050.8</ele>
        <time>2023-02-11T11:45:26.000Z</time>
      </trkpt>
      <trkpt lat="41.62072" lon="-1.981671">
        <ele>1051</ele>
        <time>2023-02-11T11:45:27.000Z</time>
      </trkpt>
      <trkpt lat="41.62076" lon="-1.981749">
        <ele>1051</ele>
        <time>2023-02-11T11:45:28.000Z</time>
      </trkpt>
      <trkpt lat="41.620798" lon="-1.981825">
        <ele>1051.2</ele>
        <time>2023-02-11T11:45:29.000Z</time>
      </trkpt>
      <trkpt lat="41.620835" lon="-1.981902">
        <ele>1051.4</ele>
        <time>2023-02-11T11:45:30.000Z</time>
      </trkpt>
      <trkpt lat="41.620872" lon="-1.981976">
        <ele>1051.8</ele>
        <time>2023-02-11T11:45:31.000Z</time>
      </trkpt>
      <trkpt lat="41.620908" lon="-1.982048">
        <ele>1052</ele>
        <time>2023-02-11T11:45:32.000Z</time>
      </trkpt>
      <trkpt lat="41.620942" lon="-1.98212">
        <ele>1052.2</ele>
        <time>2023-02-11T11:45:33.000Z</time>
      </trkpt>
      <trkpt lat="41.620976" lon="-1.98219">
        <ele>1052.4</ele>
        <time>2023-02-11T11:45:34.000Z</time>
      </trkpt>
      <trkpt lat="41.621009" lon="-1.98226">
        <ele>1052.6</ele>
        <time>2023-02-11T11:45:35.000Z</time>
      </trkpt>
      <trkpt lat="41.621045" lon="-1.982332">
        <ele>1052.8</ele>
        <time>2023-02-11T11:45:36.000Z</time>
      </trkpt>
      <trkpt lat="41.62108" lon="-1.982399">
        <ele>1053</ele>
        <time>2023-02-11T11:45:37.000Z</time>
      </trkpt>
      <trkpt lat="41.621114" lon="-1.982469">
        <ele>1053.2</ele>
        <time>2023-02-11T11:45:38.000Z</time>
      </trkpt>
      <trkpt lat="41.621147" lon="-1.982541">
        <ele>1053.4</ele>
        <time>2023-02-11T11:45:39.000Z</time>
      </trkpt>
      <trkpt lat="41.62118" lon="-1.982613">
        <ele>1053.4</ele>
        <time>2023-02-11T11:45:40.000Z</time>
      </trkpt>
      <trkpt lat="41.621215" lon="-1.982684">
        <ele>1053.6</ele>
        <time>2023-02-11T11:45:41.000Z</time>
      </trkpt>
      <trkpt lat="41.62125" lon="-1.982754">
        <ele>1053.8</ele>
        <time>2023-02-11T11:45:42.000Z</time>
      </trkpt>
      <trkpt lat="41.621285" lon="-1.982824">
        <ele>1053.8</ele>
        <time>2023-02-11T11:45:43.000Z</time>
      </trkpt>
      <trkpt lat="41.621322" lon="-1.982895">
        <ele>1054.2</ele>
        <time>2023-02-11T11:45:44.000Z</time>
      </trkpt>
      <trkpt lat="41.621357" lon="-1.982969">
        <ele>1054.2</ele>
        <time>2023-02-11T11:45:45.000Z</time>
      </trkpt>
      <trkpt lat="41.621387" lon="-1.983043">
        <ele>1054.4</ele>
        <time>2023-02-11T11:45:46.000Z</time>
      </trkpt>
      <trkpt lat="41.621418" lon="-1.983115">
        <ele>1054.6</ele>
        <time>2023-02-11T11:45:47.000Z</time>
      </trkpt>
      <trkpt lat="41.621451" lon="-1.983185">
        <ele>1055</ele>
        <time>2023-02-11T11:45:48.000Z</time>
      </trkpt>
      <trkpt lat="41.621488" lon="-1.983252">
        <ele>1055</ele>
        <time>2023-02-11T11:45:49.000Z</time>
      </trkpt>
      <trkpt lat="41.621526" lon="-1.983322">
        <ele>1055.4</ele>
        <time>2023-02-11T11:45:50.000Z</time>
      </trkpt>
      <trkpt lat="41.621558" lon="-1.983392">
        <ele>1055.6</ele>
        <time>2023-02-11T11:45:51.000Z</time>
      </trkpt>
      <trkpt lat="41.621591" lon="-1.983464">
        <ele>1055.6</ele>
        <time>2023-02-11T11:45:52.000Z</time>
      </trkpt>
      <trkpt lat="41.621622" lon="-1.983535">
        <ele>1055.8</ele>
        <time>2023-02-11T11:45:53.000Z</time>
      </trkpt>
      <trkpt lat="41.621655" lon="-1.983607">
        <ele>1055.8</ele>
        <time>2023-02-11T11:45:54.000Z</time>
      </trkpt>
      <trkpt lat="41.621685" lon="-1.98368">
        <ele>1056</ele>
        <time>2023-02-11T11:45:55.000Z</time>
      </trkpt>
      <trkpt lat="41.621714" lon="-1.983752">
        <ele>1056.2</ele>
        <time>2023-02-11T11:45:56.000Z</time>
      </trkpt>
      <trkpt lat="41.62174" lon="-1.983826">
        <ele>1056.4</ele>
        <time>2023-02-11T11:45:57.000Z</time>
      </trkpt>
      <trkpt lat="41.621768" lon="-1.9839">
        <ele>1056.4</ele>
        <time>2023-02-11T11:45:58.000Z</time>
      </trkpt>
      <trkpt lat="41.621795" lon="-1.983975">
        <ele>1056.6</ele>
        <time>2023-02-11T11:45:59.000Z</time>
      </trkpt>
      <trkpt lat="41.621821" lon="-1.984052">
        <ele>1056.8</ele>
        <time>2023-02-11T11:46:00.000Z</time>
      </trkpt>
      <trkpt lat="41.621844" lon="-1.984129">
        <ele>1057</ele>
        <time>2023-02-11T11:46:01.000Z</time>
      </trkpt>
      <trkpt lat="41.621867" lon="-1.984207">
        <ele>1057.2</ele>
        <time>2023-02-11T11:46:02.000Z</time>
      </trkpt>
      <trkpt lat="41.621889" lon="-1.984284">
        <ele>1057.4</ele>
        <time>2023-02-11T11:46:03.000Z</time>
      </trkpt>
      <trkpt lat="41.621911" lon="-1.984362">
        <ele>1057.6</ele>
        <time>2023-02-11T11:46:04.000Z</time>
      </trkpt>
      <trkpt lat="41.621933" lon="-1.984442">
        <ele>1057.6</ele>
        <time>2023-02-11T11:46:05.000Z</time>
      </trkpt>
      <trkpt lat="41.621954" lon="-1.984521">
        <ele>1057.8</ele>
        <time>2023-02-11T11:46:06.000Z</time>
      </trkpt>
      <trkpt lat="41.621976" lon="-1.9846">
        <ele>1058</ele>
        <time>2023-02-11T11:46:07.000Z</time>
      </trkpt>
      <trkpt lat="41.621999" lon="-1.984679">
        <ele>1058.2</ele>
        <time>2023-02-11T11:46:08.000Z</time>
      </trkpt>
      <trkpt lat="41.62202" lon="-1.984759">
        <ele>1058.2</ele>
        <time>2023-02-11T11:46:09.000Z</time>
      </trkpt>
      <trkpt lat="41.622042" lon="-1.984836">
        <ele>1058.6</ele>
        <time>2023-02-11T11:46:10.000Z</time>
      </trkpt>
      <trkpt lat="41.622066" lon="-1.984916">
        <ele>1059</ele>
        <time>2023-02-11T11:46:11.000Z</time>
      </trkpt>
      <trkpt lat="41.622087" lon="-1.984995">
        <ele>1059.2</ele>
        <time>2023-02-11T11:46:12.000Z</time>
      </trkpt>
      <trkpt lat="41.622108" lon="-1.985073">
        <ele>1059.4</ele>
        <time>2023-02-11T11:46:13.000Z</time>
      </trkpt>
      <trkpt lat="41.62213" lon="-1.985151">
        <ele>1059.6</ele>
        <time>2023-02-11T11:46:14.000Z</time>
      </trkpt>
      <trkpt lat="41.622151" lon="-1.985227">
        <ele>1059.8</ele>
        <time>2023-02-11T11:46:15.000Z</time>
      </trkpt>
      <trkpt lat="41.62217" lon="-1.985302">
        <ele>1059.8</ele>
        <time>2023-02-11T11:46:16.000Z</time>
      </trkpt>
      <trkpt lat="41.62219" lon="-1.985377">
        <ele>1060.2</ele>
        <time>2023-02-11T11:46:17.000Z</time>
      </trkpt>
      <trkpt lat="41.622213" lon="-1.985454">
        <ele>1060.2</ele>
        <time>2023-02-11T11:46:18.000Z</time>
      </trkpt>
      <trkpt lat="41.622236" lon="-1.985531">
        <ele>1060.4</ele>
        <time>2023-02-11T11:46:19.000Z</time>
      </trkpt>
      <trkpt lat="41.622257" lon="-1.985609">
        <ele>1060.8</ele>
        <time>2023-02-11T11:46:20.000Z</time>
      </trkpt>
      <trkpt lat="41.622279" lon="-1.985686">
        <ele>1061</ele>
        <time>2023-02-11T11:46:21.000Z</time>
      </trkpt>
      <trkpt lat="41.6223" lon="-1.985763">
        <ele>1061.2</ele>
        <time>2023-02-11T11:46:22.000Z</time>
      </trkpt>
      <trkpt lat="41.622324" lon="-1.985838">
        <ele>1061.4</ele>
        <time>2023-02-11T11:46:23.000Z</time>
      </trkpt>
      <trkpt lat="41.622347" lon="-1.985912">
        <ele>1061.4</ele>
        <time>2023-02-11T11:46:24.000Z</time>
      </trkpt>
      <trkpt lat="41.62237" lon="-1.985987">
        <ele>1061.6</ele>
        <time>2023-02-11T11:46:25.000Z</time>
      </trkpt>
      <trkpt lat="41.622392" lon="-1.986061">
        <ele>1061.8</ele>
        <time>2023-02-11T11:46:26.000Z</time>
      </trkpt>
      <trkpt lat="41.622415" lon="-1.986134">
        <ele>1062</ele>
        <time>2023-02-11T11:46:27.000Z</time>
      </trkpt>
      <trkpt lat="41.622439" lon="-1.986208">
        <ele>1062.2</ele>
        <time>2023-02-11T11:46:28.000Z</time>
      </trkpt>
      <trkpt lat="41.622463" lon="-1.986281">
        <ele>1062.4</ele>
        <time>2023-02-11T11:46:29.000Z</time>
      </trkpt>
      <trkpt lat="41.622486" lon="-1.986354">
        <ele>1062.4</ele>
        <time>2023-02-11T11:46:30.000Z</time>
      </trkpt>
      <trkpt lat="41.622508" lon="-1.986428">
        <ele>1062.6</ele>
        <time>2023-02-11T11:46:31.000Z</time>
      </trkpt>
      <trkpt lat="41.622532" lon="-1.986501">
        <ele>1062.8</ele>
        <time>2023-02-11T11:46:32.000Z</time>
      </trkpt>
      <trkpt lat="41.622556" lon="-1.986575">
        <ele>1063.2</ele>
        <time>2023-02-11T11:46:33.000Z</time>
      </trkpt>
      <trkpt lat="41.622578" lon="-1.986649">
        <ele>1063.2</ele>
        <time>2023-02-11T11:46:34.000Z</time>
      </trkpt>
      <trkpt lat="41.622602" lon="-1.986725">
        <ele>1063.6</ele>
        <time>2023-02-11T11:46:35.000Z</time>
      </trkpt>
      <trkpt lat="41.622627" lon="-1.986802">
        <ele>1063.6</ele>
        <time>2023-02-11T11:46:36.000Z</time>
      </trkpt>
      <trkpt lat="41.622652" lon="-1.986875">
        <ele>1064</ele>
        <time>2023-02-11T11:46:37.000Z</time>
      </trkpt>
      <trkpt lat="41.622678" lon="-1.986949">
        <ele>1064</ele>
        <time>2023-02-11T11:46:38.000Z</time>
      </trkpt>
      <trkpt lat="41.622703" lon="-1.987025">
        <ele>1064.2</ele>
        <time>2023-02-11T11:46:39.000Z</time>
      </trkpt>
      <trkpt lat="41.622726" lon="-1.987098">
        <ele>1064.6</ele>
        <time>2023-02-11T11:46:40.000Z</time>
      </trkpt>
      <trkpt lat="41.622748" lon="-1.987174">
        <ele>1064.6</ele>
        <time>2023-02-11T11:46:41.000Z</time>
      </trkpt>
      <trkpt lat="41.622774" lon="-1.987249">
        <ele>1064.8</ele>
        <time>2023-02-11T11:46:42.000Z</time>
      </trkpt>
      <trkpt lat="41.6228" lon="-1.987323">
        <ele>1065</ele>
        <time>2023-02-11T11:46:43.000Z</time>
      </trkpt>
      <trkpt lat="41.622826" lon="-1.987399">
        <ele>1065.2</ele>
        <time>2023-02-11T11:46:44.000Z</time>
      </trkpt>
      <trkpt lat="41.62285" lon="-1.987475">
        <ele>1065.4</ele>
        <time>2023-02-11T11:46:45.000Z</time>
      </trkpt>
      <trkpt lat="41.622875" lon="-1.987552">
        <ele>1065.4</ele>
        <time>2023-02-11T11:46:46.000Z</time>
      </trkpt>
      <trkpt lat="41.6229" lon="-1.987629">
        <ele>1065.6</ele>
        <time>2023-02-11T11:46:47.000Z</time>
      </trkpt>
      <trkpt lat="41.622925" lon="-1.987705">
        <ele>1066</ele>
        <time>2023-02-11T11:46:48.000Z</time>
      </trkpt>
      <trkpt lat="41.62295" lon="-1.987784">
        <ele>1066.2</ele>
        <time>2023-02-11T11:46:49.000Z</time>
      </trkpt>
      <trkpt lat="41.622976" lon="-1.987862">
        <ele>1066.2</ele>
        <time>2023-02-11T11:46:50.000Z</time>
      </trkpt>
      <trkpt lat="41.623003" lon="-1.987941">
        <ele>1066.6</ele>
        <time>2023-02-11T11:46:51.000Z</time>
      </trkpt>
      <trkpt lat="41.62303" lon="-1.988019">
        <ele>1066.6</ele>
        <time>2023-02-11T11:46:52.000Z</time>
      </trkpt>
      <trkpt lat="41.623055" lon="-1.988097">
        <ele>1066.8</ele>
        <time>2023-02-11T11:46:53.000Z</time>
      </trkpt>
      <trkpt lat="41.62308" lon="-1.988176">
        <ele>1067</ele>
        <time>2023-02-11T11:46:54.000Z</time>
      </trkpt>
      <trkpt lat="41.623103" lon="-1.988256">
        <ele>1067.4</ele>
        <time>2023-02-11T11:46:55.000Z</time>
      </trkpt>
      <trkpt lat="41.623129" lon="-1.988336">
        <ele>1067.6</ele>
        <time>2023-02-11T11:46:56.000Z</time>
      </trkpt>
      <trkpt lat="41.623154" lon="-1.988418">
        <ele>1068</ele>
        <time>2023-02-11T11:46:57.000Z</time>
      </trkpt>
      <trkpt lat="41.623179" lon="-1.988501">
        <ele>1068</ele>
        <time>2023-02-11T11:46:58.000Z</time>
      </trkpt>
      <trkpt lat="41.623202" lon="-1.988583">
        <ele>1068.4</ele>
        <time>2023-02-11T11:46:59.000Z</time>
      </trkpt>
      <trkpt lat="41.623222" lon="-1.988664">
        <ele>1068.6</ele>
        <time>2023-02-11T11:47:00.000Z</time>
      </trkpt>
      <trkpt lat="41.623241" lon="-1.988744">
        <ele>1068.8</ele>
        <time>2023-02-11T11:47:01.000Z</time>
      </trkpt>
      <trkpt lat="41.62326" lon="-1.988824">
        <ele>1069</ele>
        <time>2023-02-11T11:47:02.000Z</time>
      </trkpt>
      <trkpt lat="41.623275" lon="-1.988906">
        <ele>1069</ele>
        <time>2023-02-11T11:47:03.000Z</time>
      </trkpt>
      <trkpt lat="41.623291" lon="-1.988989">
        <ele>1069.4</ele>
        <time>2023-02-11T11:47:04.000Z</time>
      </trkpt>
      <trkpt lat="41.623306" lon="-1.989074">
        <ele>1069.4</ele>
        <time>2023-02-11T11:47:05.000Z</time>
      </trkpt>
      <trkpt lat="41.623323" lon="-1.989157">
        <ele>1069.6</ele>
        <time>2023-02-11T11:47:06.000Z</time>
      </trkpt>
      <trkpt lat="41.623339" lon="-1.989239">
        <ele>1069.8</ele>
        <time>2023-02-11T11:47:07.000Z</time>
      </trkpt>
      <trkpt lat="41.623355" lon="-1.989322">
        <ele>1069.8</ele>
        <time>2023-02-11T11:47:08.000Z</time>
      </trkpt>
      <trkpt lat="41.62337" lon="-1.989407">
        <ele>1070.2</ele>
        <time>2023-02-11T11:47:09.000Z</time>
      </trkpt>
      <trkpt lat="41.623383" lon="-1.989491">
        <ele>1070.2</ele>
        <time>2023-02-11T11:47:10.000Z</time>
      </trkpt>
      <trkpt lat="41.623395" lon="-1.989576">
        <ele>1070.4</ele>
        <time>2023-02-11T11:47:11.000Z</time>
      </trkpt>
      <trkpt lat="41.623407" lon="-1.989661">
        <ele>1070.6</ele>
        <time>2023-02-11T11:47:12.000Z</time>
      </trkpt>
      <trkpt lat="41.62342" lon="-1.989742">
        <ele>1070.6</ele>
        <time>2023-02-11T11:47:13.000Z</time>
      </trkpt>
      <trkpt lat="41.623436" lon="-1.989823">
        <ele>1070.8</ele>
        <time>2023-02-11T11:47:14.000Z</time>
      </trkpt>
      <trkpt lat="41.62345" lon="-1.989903">
        <ele>1071.2</ele>
        <time>2023-02-11T11:47:15.000Z</time>
      </trkpt>
      <trkpt lat="41.623466" lon="-1.989986">
        <ele>1071.2</ele>
        <time>2023-02-11T11:47:16.000Z</time>
      </trkpt>
      <trkpt lat="41.623481" lon="-1.990067">
        <ele>1071.6</ele>
        <time>2023-02-11T11:47:17.000Z</time>
      </trkpt>
      <trkpt lat="41.623494" lon="-1.990149">
        <ele>1071.8</ele>
        <time>2023-02-11T11:47:18.000Z</time>
      </trkpt>
      <trkpt lat="41.623508" lon="-1.990232">
        <ele>1072</ele>
        <time>2023-02-11T11:47:19.000Z</time>
      </trkpt>
      <trkpt lat="41.623523" lon="-1.990315">
        <ele>1072.2</ele>
        <time>2023-02-11T11:47:20.000Z</time>
      </trkpt>
      <trkpt lat="41.623537" lon="-1.990398">
        <ele>1072.2</ele>
        <time>2023-02-11T11:47:21.000Z</time>
      </trkpt>
      <trkpt lat="41.623551" lon="-1.990479">
        <ele>1072.4</ele>
        <time>2023-02-11T11:47:22.000Z</time>
      </trkpt>
      <trkpt lat="41.623565" lon="-1.990563">
        <ele>1072.4</ele>
        <time>2023-02-11T11:47:23.000Z</time>
      </trkpt>
      <trkpt lat="41.623578" lon="-1.990644">
        <ele>1072.6</ele>
        <time>2023-02-11T11:47:24.000Z</time>
      </trkpt>
      <trkpt lat="41.623591" lon="-1.990728">
        <ele>1072.8</ele>
        <time>2023-02-11T11:47:25.000Z</time>
      </trkpt>
      <trkpt lat="41.623606" lon="-1.990813">
        <ele>1073</ele>
        <time>2023-02-11T11:47:26.000Z</time>
      </trkpt>
      <trkpt lat="41.623622" lon="-1.990897">
        <ele>1073.2</ele>
        <time>2023-02-11T11:47:27.000Z</time>
      </trkpt>
      <trkpt lat="41.623635" lon="-1.990979">
        <ele>1073.4</ele>
        <time>2023-02-11T11:47:28.000Z</time>
      </trkpt>
      <trkpt lat="41.623647" lon="-1.99106">
        <ele>1073.6</ele>
        <time>2023-02-11T11:47:29.000Z</time>
      </trkpt>
      <trkpt lat="41.623661" lon="-1.991141">
        <ele>1073.8</ele>
        <time>2023-02-11T11:47:30.000Z</time>
      </trkpt>
      <trkpt lat="41.623672" lon="-1.991222">
        <ele>1073.8</ele>
        <time>2023-02-11T11:47:31.000Z</time>
      </trkpt>
      <trkpt lat="41.623686" lon="-1.9913">
        <ele>1073.8</ele>
        <time>2023-02-11T11:47:32.000Z</time>
      </trkpt>
      <trkpt lat="41.623697" lon="-1.991375">
        <ele>1074</ele>
        <time>2023-02-11T11:47:33.000Z</time>
      </trkpt>
      <trkpt lat="41.623709" lon="-1.99145">
        <ele>1074.4</ele>
        <time>2023-02-11T11:47:34.000Z</time>
      </trkpt>
      <trkpt lat="41.62372" lon="-1.991519">
        <ele>1074.8</ele>
        <time>2023-02-11T11:47:35.000Z</time>
      </trkpt>
      <trkpt lat="41.623729" lon="-1.99159">
        <ele>1075</ele>
        <time>2023-02-11T11:47:36.000Z</time>
      </trkpt>
      <trkpt lat="41.623738" lon="-1.991664">
        <ele>1075.4</ele>
        <time>2023-02-11T11:47:37.000Z</time>
      </trkpt>
      <trkpt lat="41.623748" lon="-1.991736">
        <ele>1075.6</ele>
        <time>2023-02-11T11:47:38.000Z</time>
      </trkpt>
      <trkpt lat="41.623756" lon="-1.991804">
        <ele>1075.8</ele>
        <time>2023-02-11T11:47:39.000Z</time>
      </trkpt>
      <trkpt lat="41.623766" lon="-1.991872">
        <ele>1076.2</ele>
        <time>2023-02-11T11:47:40.000Z</time>
      </trkpt>
      <trkpt lat="41.623778" lon="-1.991943">
        <ele>1076.4</ele>
        <time>2023-02-11T11:47:41.000Z</time>
      </trkpt>
      <trkpt lat="41.623789" lon="-1.992015">
        <ele>1076.8</ele>
        <time>2023-02-11T11:47:42.000Z</time>
      </trkpt>
      <trkpt lat="41.6238" lon="-1.992088">
        <ele>1076.8</ele>
        <time>2023-02-11T11:47:43.000Z</time>
      </trkpt>
      <trkpt lat="41.623811" lon="-1.992162">
        <ele>1077</ele>
        <time>2023-02-11T11:47:44.000Z</time>
      </trkpt>
      <trkpt lat="41.623821" lon="-1.992232">
        <ele>1077.2</ele>
        <time>2023-02-11T11:47:45.000Z</time>
      </trkpt>
      <trkpt lat="41.623831" lon="-1.992301">
        <ele>1077.6</ele>
        <time>2023-02-11T11:47:46.000Z</time>
      </trkpt>
      <trkpt lat="41.623845" lon="-1.992371">
        <ele>1078</ele>
        <time>2023-02-11T11:47:47.000Z</time>
      </trkpt>
      <trkpt lat="41.623856" lon="-1.992442">
        <ele>1078.4</ele>
        <time>2023-02-11T11:47:48.000Z</time>
      </trkpt>
      <trkpt lat="41.623865" lon="-1.992512">
        <ele>1078.6</ele>
        <time>2023-02-11T11:47:49.000Z</time>
      </trkpt>
      <trkpt lat="41.623872" lon="-1.992584">
        <ele>1078.8</ele>
        <time>2023-02-11T11:47:50.000Z</time>
      </trkpt>
      <trkpt lat="41.623882" lon="-1.992659">
        <ele>1079.2</ele>
        <time>2023-02-11T11:47:51.000Z</time>
      </trkpt>
      <trkpt lat="41.623896" lon="-1.992735">
        <ele>1079.4</ele>
        <time>2023-02-11T11:47:52.000Z</time>
      </trkpt>
      <trkpt lat="41.623908" lon="-1.992812">
        <ele>1079.8</ele>
        <time>2023-02-11T11:47:53.000Z</time>
      </trkpt>
      <trkpt lat="41.623918" lon="-1.992885">
        <ele>1080</ele>
        <time>2023-02-11T11:47:54.000Z</time>
      </trkpt>
      <trkpt lat="41.623929" lon="-1.992959">
        <ele>1080.2</ele>
        <time>2023-02-11T11:47:55.000Z</time>
      </trkpt>
      <trkpt lat="41.623944" lon="-1.993034">
        <ele>1080.6</ele>
        <time>2023-02-11T11:47:56.000Z</time>
      </trkpt>
      <trkpt lat="41.623958" lon="-1.993112">
        <ele>1081</ele>
        <time>2023-02-11T11:47:57.000Z</time>
      </trkpt>
      <trkpt lat="41.623967" lon="-1.993191">
        <ele>1081.4</ele>
        <time>2023-02-11T11:47:58.000Z</time>
      </trkpt>
      <trkpt lat="41.623977" lon="-1.99327">
        <ele>1081.4</ele>
        <time>2023-02-11T11:47:59.000Z</time>
      </trkpt>
      <trkpt lat="41.623992" lon="-1.993349">
        <ele>1081.6</ele>
        <time>2023-02-11T11:48:00.000Z</time>
      </trkpt>
      <trkpt lat="41.624005" lon="-1.993428">
        <ele>1081.8</ele>
        <time>2023-02-11T11:48:01.000Z</time>
      </trkpt>
      <trkpt lat="41.624013" lon="-1.993505">
        <ele>1082.2</ele>
        <time>2023-02-11T11:48:02.000Z</time>
      </trkpt>
      <trkpt lat="41.624024" lon="-1.993582">
        <ele>1082.4</ele>
        <time>2023-02-11T11:48:03.000Z</time>
      </trkpt>
      <trkpt lat="41.624036" lon="-1.993659">
        <ele>1082.8</ele>
        <time>2023-02-11T11:48:04.000Z</time>
      </trkpt>
      <trkpt lat="41.624048" lon="-1.993737">
        <ele>1083</ele>
        <time>2023-02-11T11:48:05.000Z</time>
      </trkpt>
      <trkpt lat="41.624055" lon="-1.993816">
        <ele>1083.2</ele>
        <time>2023-02-11T11:48:06.000Z</time>
      </trkpt>
      <trkpt lat="41.624063" lon="-1.993893">
        <ele>1083.4</ele>
        <time>2023-02-11T11:48:07.000Z</time>
      </trkpt>
      <trkpt lat="41.624075" lon="-1.993965">
        <ele>1083.6</ele>
        <time>2023-02-11T11:48:08.000Z</time>
      </trkpt>
      <trkpt lat="41.624088" lon="-1.994041">
        <ele>1084</ele>
        <time>2023-02-11T11:48:09.000Z</time>
      </trkpt>
      <trkpt lat="41.624097" lon="-1.994118">
        <ele>1084.2</ele>
        <time>2023-02-11T11:48:10.000Z</time>
      </trkpt>
      <trkpt lat="41.624101" lon="-1.994195">
        <ele>1084.8</ele>
        <time>2023-02-11T11:48:11.000Z</time>
      </trkpt>
      <trkpt lat="41.624113" lon="-1.994269">
        <ele>1085</ele>
        <time>2023-02-11T11:48:12.000Z</time>
      </trkpt>
      <trkpt lat="41.624123" lon="-1.994346">
        <ele>1085.2</ele>
        <time>2023-02-11T11:48:13.000Z</time>
      </trkpt>
      <trkpt lat="41.624134" lon="-1.994425">
        <ele>1085.4</ele>
        <time>2023-02-11T11:48:14.000Z</time>
      </trkpt>
      <trkpt lat="41.624144" lon="-1.994502">
        <ele>1085.8</ele>
        <time>2023-02-11T11:48:15.000Z</time>
      </trkpt>
      <trkpt lat="41.624149" lon="-1.99458">
        <ele>1086</ele>
        <time>2023-02-11T11:48:16.000Z</time>
      </trkpt>
      <trkpt lat="41.624162" lon="-1.994654">
        <ele>1086.2</ele>
        <time>2023-02-11T11:48:17.000Z</time>
      </trkpt>
      <trkpt lat="41.624176" lon="-1.994729">
        <ele>1086.4</ele>
        <time>2023-02-11T11:48:18.000Z</time>
      </trkpt>
      <trkpt lat="41.624189" lon="-1.994806">
        <ele>1086.6</ele>
        <time>2023-02-11T11:48:19.000Z</time>
      </trkpt>
      <trkpt lat="41.624197" lon="-1.994884">
        <ele>1087.2</ele>
        <time>2023-02-11T11:48:20.000Z</time>
      </trkpt>
      <trkpt lat="41.624199" lon="-1.994959">
        <ele>1087.4</ele>
        <time>2023-02-11T11:48:21.000Z</time>
      </trkpt>
      <trkpt lat="41.624203" lon="-1.99503">
        <ele>1087.6</ele>
        <time>2023-02-11T11:48:22.000Z</time>
      </trkpt>
      <trkpt lat="41.624217" lon="-1.995102">
        <ele>1087.6</ele>
        <time>2023-02-11T11:48:23.000Z</time>
      </trkpt>
      <trkpt lat="41.624233" lon="-1.995177">
        <ele>1088</ele>
        <time>2023-02-11T11:48:24.000Z</time>
      </trkpt>
      <trkpt lat="41.624241" lon="-1.995252">
        <ele>1088</ele>
        <time>2023-02-11T11:48:25.000Z</time>
      </trkpt>
      <trkpt lat="41.624251" lon="-1.995326">
        <ele>1088.2</ele>
        <time>2023-02-11T11:48:26.000Z</time>
      </trkpt>
      <trkpt lat="41.62426" lon="-1.995399">
        <ele>1088.4</ele>
        <time>2023-02-11T11:48:27.000Z</time>
      </trkpt>
      <trkpt lat="41.624267" lon="-1.99547">
        <ele>1088.8</ele>
        <time>2023-02-11T11:48:28.000Z</time>
      </trkpt>
      <trkpt lat="41.624276" lon="-1.995543">
        <ele>1089</ele>
        <time>2023-02-11T11:48:29.000Z</time>
      </trkpt>
      <trkpt lat="41.624288" lon="-1.995609">
        <ele>1089.2</ele>
        <time>2023-02-11T11:48:30.000Z</time>
      </trkpt>
      <trkpt lat="41.624303" lon="-1.995677">
        <ele>1089.6</ele>
        <time>2023-02-11T11:48:31.000Z</time>
      </trkpt>
      <trkpt lat="41.62431" lon="-1.995749">
        <ele>1089.8</ele>
        <time>2023-02-11T11:48:32.000Z</time>
      </trkpt>
      <trkpt lat="41.624316" lon="-1.995821">
        <ele>1090.2</ele>
        <time>2023-02-11T11:48:33.000Z</time>
      </trkpt>
      <trkpt lat="41.62432" lon="-1.995892">
        <ele>1090.4</ele>
        <time>2023-02-11T11:48:34.000Z</time>
      </trkpt>
      <trkpt lat="41.624324" lon="-1.995965">
        <ele>1091.2</ele>
        <time>2023-02-11T11:48:35.000Z</time>
      </trkpt>
      <trkpt lat="41.624327" lon="-1.996037">
        <ele>1091.6</ele>
        <time>2023-02-11T11:48:36.000Z</time>
      </trkpt>
      <trkpt lat="41.624328" lon="-1.996109">
        <ele>1091.8</ele>
        <time>2023-02-11T11:48:37.000Z</time>
      </trkpt>
      <trkpt lat="41.624329" lon="-1.996183">
        <ele>1092.2</ele>
        <time>2023-02-11T11:48:38.000Z</time>
      </trkpt>
      <trkpt lat="41.624329" lon="-1.996257">
        <ele>1092.4</ele>
        <time>2023-02-11T11:48:39.000Z</time>
      </trkpt>
      <trkpt lat="41.624328" lon="-1.996329">
        <ele>1092.6</ele>
        <time>2023-02-11T11:48:40.000Z</time>
      </trkpt>
      <trkpt lat="41.62433" lon="-1.996402">
        <ele>1092.8</ele>
        <time>2023-02-11T11:48:41.000Z</time>
      </trkpt>
      <trkpt lat="41.624334" lon="-1.996474">
        <ele>1093.4</ele>
        <time>2023-02-11T11:48:42.000Z</time>
      </trkpt>
      <trkpt lat="41.624337" lon="-1.996542">
        <ele>1093.6</ele>
        <time>2023-02-11T11:48:43.000Z</time>
      </trkpt>
      <trkpt lat="41.624339" lon="-1.996613">
        <ele>1094</ele>
        <time>2023-02-11T11:48:44.000Z</time>
      </trkpt>
      <trkpt lat="41.624341" lon="-1.996686">
        <ele>1094.4</ele>
        <time>2023-02-11T11:48:45.000Z</time>
      </trkpt>
      <trkpt lat="41.624339" lon="-1.99676">
        <ele>1094.6</ele>
        <time>2023-02-11T11:48:46.000Z</time>
      </trkpt>
      <trkpt lat="41.624333" lon="-1.996833">
        <ele>1095.2</ele>
        <time>2023-02-11T11:48:47.000Z</time>
      </trkpt>
      <trkpt lat="41.624331" lon="-1.996905">
        <ele>1095.6</ele>
        <time>2023-02-11T11:48:48.000Z</time>
      </trkpt>
      <trkpt lat="41.624328" lon="-1.996976">
        <ele>1095.8</ele>
        <time>2023-02-11T11:48:49.000Z</time>
      </trkpt>
      <trkpt lat="41.624325" lon="-1.997049">
        <ele>1096</ele>
        <time>2023-02-11T11:48:50.000Z</time>
      </trkpt>
      <trkpt lat="41.624321" lon="-1.997123">
        <ele>1096.4</ele>
        <time>2023-02-11T11:48:51.000Z</time>
      </trkpt>
      <trkpt lat="41.624315" lon="-1.997198">
        <ele>1096.6</ele>
        <time>2023-02-11T11:48:52.000Z</time>
      </trkpt>
      <trkpt lat="41.624306" lon="-1.997277">
        <ele>1097.2</ele>
        <time>2023-02-11T11:48:53.000Z</time>
      </trkpt>
      <trkpt lat="41.624298" lon="-1.997359">
        <ele>1097.4</ele>
        <time>2023-02-11T11:48:54.000Z</time>
      </trkpt>
      <trkpt lat="41.624291" lon="-1.997439">
        <ele>1098</ele>
        <time>2023-02-11T11:48:55.000Z</time>
      </trkpt>
      <trkpt lat="41.624284" lon="-1.997521">
        <ele>1098.2</ele>
        <time>2023-02-11T11:48:56.000Z</time>
      </trkpt>
      <trkpt lat="41.624275" lon="-1.997596">
        <ele>1098.4</ele>
        <time>2023-02-11T11:48:57.000Z</time>
      </trkpt>
      <trkpt lat="41.624265" lon="-1.997675">
        <ele>1098.6</ele>
        <time>2023-02-11T11:48:58.000Z</time>
      </trkpt>
      <trkpt lat="41.624255" lon="-1.997754">
        <ele>1098.8</ele>
        <time>2023-02-11T11:48:59.000Z</time>
      </trkpt>
      <trkpt lat="41.624245" lon="-1.997834">
        <ele>1099.2</ele>
        <time>2023-02-11T11:49:00.000Z</time>
      </trkpt>
      <trkpt lat="41.624234" lon="-1.997916">
        <ele>1099.2</ele>
        <time>2023-02-11T11:49:01.000Z</time>
      </trkpt>
      <trkpt lat="41.624223" lon="-1.998">
        <ele>1099.4</ele>
        <time>2023-02-11T11:49:02.000Z</time>
      </trkpt>
      <trkpt lat="41.624215" lon="-1.998084">
        <ele>1099.6</ele>
        <time>2023-02-11T11:49:03.000Z</time>
      </trkpt>
      <trkpt lat="41.624204" lon="-1.998169">
        <ele>1099.8</ele>
        <time>2023-02-11T11:49:04.000Z</time>
      </trkpt>
      <trkpt lat="41.624193" lon="-1.998256">
        <ele>1100</ele>
        <time>2023-02-11T11:49:05.000Z</time>
      </trkpt>
      <trkpt lat="41.624179" lon="-1.998344">
        <ele>1100.2</ele>
        <time>2023-02-11T11:49:06.000Z</time>
      </trkpt>
      <trkpt lat="41.624167" lon="-1.998433">
        <ele>1100.2</ele>
        <time>2023-02-11T11:49:07.000Z</time>
      </trkpt>
      <trkpt lat="41.624152" lon="-1.998526">
        <ele>1100.4</ele>
        <time>2023-02-11T11:49:08.000Z</time>
      </trkpt>
      <trkpt lat="41.624138" lon="-1.99862">
        <ele>1100.4</ele>
        <time>2023-02-11T11:49:09.000Z</time>
      </trkpt>
      <trkpt lat="41.624125" lon="-1.998719">
        <ele>1100.4</ele>
        <time>2023-02-11T11:49:10.000Z</time>
      </trkpt>
      <trkpt lat="41.624111" lon="-1.998821">
        <ele>1100.4</ele>
        <time>2023-02-11T11:49:11.000Z</time>
      </trkpt>
      <trkpt lat="41.624096" lon="-1.998923">
        <ele>1100.4</ele>
        <time>2023-02-11T11:49:12.000Z</time>
      </trkpt>
      <trkpt lat="41.624081" lon="-1.999025">
        <ele>1100.4</ele>
        <time>2023-02-11T11:49:13.000Z</time>
      </trkpt>
      <trkpt lat="41.624065" lon="-1.999129">
        <ele>1100.4</ele>
        <time>2023-02-11T11:49:14.000Z</time>
      </trkpt>
      <trkpt lat="41.624048" lon="-1.999237">
        <ele>1100.2</ele>
        <time>2023-02-11T11:49:15.000Z</time>
      </trkpt>
      <trkpt lat="41.62403" lon="-1.999349">
        <ele>1100.2</ele>
        <time>2023-02-11T11:49:16.000Z</time>
      </trkpt>
      <trkpt lat="41.624014" lon="-1.999463">
        <ele>1100</ele>
        <time>2023-02-11T11:49:17.000Z</time>
      </trkpt>
      <trkpt lat="41.623998" lon="-1.999578">
        <ele>1099.8</ele>
        <time>2023-02-11T11:49:18.000Z</time>
      </trkpt>
      <trkpt lat="41.623983" lon="-1.999692">
        <ele>1099.8</ele>
        <time>2023-02-11T11:49:19.000Z</time>
      </trkpt>
      <trkpt lat="41.623965" lon="-1.999808">
        <ele>1099.6</ele>
        <time>2023-02-11T11:49:20.000Z</time>
      </trkpt>
      <trkpt lat="41.623948" lon="-1.999924">
        <ele>1099.6</ele>
        <time>2023-02-11T11:49:21.000Z</time>
      </trkpt>
      <trkpt lat="41.623928" lon="-2.000042">
        <ele>1099.2</ele>
        <time>2023-02-11T11:49:22.000Z</time>
      </trkpt>
      <trkpt lat="41.623908" lon="-2.000163">
        <ele>1099.2</ele>
        <time>2023-02-11T11:49:23.000Z</time>
      </trkpt>
      <trkpt lat="41.623891" lon="-2.000288">
        <ele>1099</ele>
        <time>2023-02-11T11:49:24.000Z</time>
      </trkpt>
      <trkpt lat="41.623875" lon="-2.000414">
        <ele>1098.8</ele>
        <time>2023-02-11T11:49:25.000Z</time>
      </trkpt>
      <trkpt lat="41.623858" lon="-2.000539">
        <ele>1098.8</ele>
        <time>2023-02-11T11:49:26.000Z</time>
      </trkpt>
      <trkpt lat="41.62384" lon="-2.000662">
        <ele>1098.6</ele>
        <time>2023-02-11T11:49:27.000Z</time>
      </trkpt>
      <trkpt lat="41.62382" lon="-2.000786">
        <ele>1098.6</ele>
        <time>2023-02-11T11:49:28.000Z</time>
      </trkpt>
      <trkpt lat="41.623799" lon="-2.000914">
        <ele>1098.4</ele>
        <time>2023-02-11T11:49:29.000Z</time>
      </trkpt>
      <trkpt lat="41.623779" lon="-2.001044">
        <ele>1098</ele>
        <time>2023-02-11T11:49:30.000Z</time>
      </trkpt>
      <trkpt lat="41.623759" lon="-2.001175">
        <ele>1097.4</ele>
        <time>2023-02-11T11:49:31.000Z</time>
      </trkpt>
      <trkpt lat="41.623739" lon="-2.001308">
        <ele>1097.2</ele>
        <time>2023-02-11T11:49:32.000Z</time>
      </trkpt>
      <trkpt lat="41.623722" lon="-2.001443">
        <ele>1097</ele>
        <time>2023-02-11T11:49:33.000Z</time>
      </trkpt>
      <trkpt lat="41.623707" lon="-2.001579">
        <ele>1096.6</ele>
        <time>2023-02-11T11:49:34.000Z</time>
      </trkpt>
      <trkpt lat="41.623697" lon="-2.001717">
        <ele>1096.4</ele>
        <time>2023-02-11T11:49:35.000Z</time>
      </trkpt>
      <trkpt lat="41.623694" lon="-2.001856">
        <ele>1095.8</ele>
        <time>2023-02-11T11:49:36.000Z</time>
      </trkpt>
      <trkpt lat="41.623695" lon="-2.001995">
        <ele>1095.6</ele>
        <time>2023-02-11T11:49:37.000Z</time>
      </trkpt>
      <trkpt lat="41.623699" lon="-2.002131">
        <ele>1095.2</ele>
        <time>2023-02-11T11:49:38.000Z</time>
      </trkpt>
      <trkpt lat="41.623707" lon="-2.002267">
        <ele>1094.8</ele>
        <time>2023-02-11T11:49:39.000Z</time>
      </trkpt>
      <trkpt lat="41.623713" lon="-2.002403">
        <ele>1094.6</ele>
        <time>2023-02-11T11:49:40.000Z</time>
      </trkpt>
      <trkpt lat="41.623721" lon="-2.002539">
        <ele>1094.6</ele>
        <time>2023-02-11T11:49:41.000Z</time>
      </trkpt>
      <trkpt lat="41.623728" lon="-2.002675">
        <ele>1094.2</ele>
        <time>2023-02-11T11:49:42.000Z</time>
      </trkpt>
      <trkpt lat="41.623735" lon="-2.002811">
        <ele>1094</ele>
        <time>2023-02-11T11:49:43.000Z</time>
      </trkpt>
      <trkpt lat="41.623741" lon="-2.002948">
        <ele>1093.6</ele>
        <time>2023-02-11T11:49:44.000Z</time>
      </trkpt>
      <trkpt lat="41.623748" lon="-2.003085">
        <ele>1093.4</ele>
        <time>2023-02-11T11:49:45.000Z</time>
      </trkpt>
      <trkpt lat="41.623755" lon="-2.003221">
        <ele>1093.4</ele>
        <time>2023-02-11T11:49:46.000Z</time>
      </trkpt>
      <trkpt lat="41.623762" lon="-2.003359">
        <ele>1092.8</ele>
        <time>2023-02-11T11:49:47.000Z</time>
      </trkpt>
      <trkpt lat="41.623769" lon="-2.003498">
        <ele>1092.6</ele>
        <time>2023-02-11T11:49:48.000Z</time>
      </trkpt>
      <trkpt lat="41.623774" lon="-2.003637">
        <ele>1092.4</ele>
        <time>2023-02-11T11:49:49.000Z</time>
      </trkpt>
      <trkpt lat="41.623775" lon="-2.003775">
        <ele>1092</ele>
        <time>2023-02-11T11:49:50.000Z</time>
      </trkpt>
      <trkpt lat="41.623775" lon="-2.003911">
        <ele>1091.6</ele>
        <time>2023-02-11T11:49:51.000Z</time>
      </trkpt>
      <trkpt lat="41.623772" lon="-2.004051">
        <ele>1091.2</ele>
        <time>2023-02-11T11:49:52.000Z</time>
      </trkpt>
      <trkpt lat="41.623771" lon="-2.004189">
        <ele>1091.2</ele>
        <time>2023-02-11T11:49:53.000Z</time>
      </trkpt>
      <trkpt lat="41.623771" lon="-2.004327">
        <ele>1091</ele>
        <time>2023-02-11T11:49:54.000Z</time>
      </trkpt>
      <trkpt lat="41.62377" lon="-2.004467">
        <ele>1090.8</ele>
        <time>2023-02-11T11:49:55.000Z</time>
      </trkpt>
      <trkpt lat="41.623765" lon="-2.004607">
        <ele>1090.4</ele>
        <time>2023-02-11T11:49:56.000Z</time>
      </trkpt>
      <trkpt lat="41.62376" lon="-2.004748">
        <ele>1090.2</ele>
        <time>2023-02-11T11:49:57.000Z</time>
      </trkpt>
      <trkpt lat="41.623756" lon="-2.004887">
        <ele>1089.6</ele>
        <time>2023-02-11T11:49:58.000Z</time>
      </trkpt>
      <trkpt lat="41.623755" lon="-2.005024">
        <ele>1089.6</ele>
        <time>2023-02-11T11:49:59.000Z</time>
      </trkpt>
      <trkpt lat="41.623754" lon="-2.005162">
        <ele>1089.2</ele>
        <time>2023-02-11T11:50:00.000Z</time>
      </trkpt>
      <trkpt lat="41.623752" lon="-2.0053">
        <ele>1089</ele>
        <time>2023-02-11T11:50:01.000Z</time>
      </trkpt>
      <trkpt lat="41.623749" lon="-2.005438">
        <ele>1089</ele>
        <time>2023-02-11T11:50:02.000Z</time>
      </trkpt>
      <trkpt lat="41.623746" lon="-2.005576">
        <ele>1088.6</ele>
        <time>2023-02-11T11:50:03.000Z</time>
      </trkpt>
      <trkpt lat="41.623743" lon="-2.005713">
        <ele>1088.6</ele>
        <time>2023-02-11T11:50:04.000Z</time>
      </trkpt>
      <trkpt lat="41.623737" lon="-2.005853">
        <ele>1088.4</ele>
        <time>2023-02-11T11:50:05.000Z</time>
      </trkpt>
      <trkpt lat="41.623735" lon="-2.005992">
        <ele>1088.4</ele>
        <time>2023-02-11T11:50:06.000Z</time>
      </trkpt>
      <trkpt lat="41.623733" lon="-2.006134">
        <ele>1088.2</ele>
        <time>2023-02-11T11:50:07.000Z</time>
      </trkpt>
      <trkpt lat="41.623731" lon="-2.006273">
        <ele>1088.2</ele>
        <time>2023-02-11T11:50:08.000Z</time>
      </trkpt>
      <trkpt lat="41.623728" lon="-2.006409">
        <ele>1087.6</ele>
        <time>2023-02-11T11:50:09.000Z</time>
      </trkpt>
      <trkpt lat="41.623724" lon="-2.006547">
        <ele>1087.4</ele>
        <time>2023-02-11T11:50:10.000Z</time>
      </trkpt>
      <trkpt lat="41.623723" lon="-2.006685">
        <ele>1087</ele>
        <time>2023-02-11T11:50:11.000Z</time>
      </trkpt>
      <trkpt lat="41.623716" lon="-2.006831">
        <ele>1086.8</ele>
        <time>2023-02-11T11:50:12.000Z</time>
      </trkpt>
      <trkpt lat="41.623713" lon="-2.006971">
        <ele>1086.8</ele>
        <time>2023-02-11T11:50:13.000Z</time>
      </trkpt>
      <trkpt lat="41.623708" lon="-2.007112">
        <ele>1086.4</ele>
        <time>2023-02-11T11:50:14.000Z</time>
      </trkpt>
      <trkpt lat="41.623704" lon="-2.007254">
        <ele>1086.2</ele>
        <time>2023-02-11T11:50:15.000Z</time>
      </trkpt>
      <trkpt lat="41.6237" lon="-2.007396">
        <ele>1086</ele>
        <time>2023-02-11T11:50:16.000Z</time>
      </trkpt>
      <trkpt lat="41.623694" lon="-2.007537">
        <ele>1086</ele>
        <time>2023-02-11T11:50:17.000Z</time>
      </trkpt>
      <trkpt lat="41.623688" lon="-2.007679">
        <ele>1085.8</ele>
        <time>2023-02-11T11:50:18.000Z</time>
      </trkpt>
      <trkpt lat="41.623684" lon="-2.007819">
        <ele>1085.6</ele>
        <time>2023-02-11T11:50:19.000Z</time>
      </trkpt>
      <trkpt lat="41.62368" lon="-2.007959">
        <ele>1085.4</ele>
        <time>2023-02-11T11:50:20.000Z</time>
      </trkpt>
      <trkpt lat="41.623676" lon="-2.0081">
        <ele>1085.2</ele>
        <time>2023-02-11T11:50:21.000Z</time>
      </trkpt>
      <trkpt lat="41.623672" lon="-2.008242">
        <ele>1085.2</ele>
        <time>2023-02-11T11:50:22.000Z</time>
      </trkpt>
      <trkpt lat="41.623668" lon="-2.008383">
        <ele>1085</ele>
        <time>2023-02-11T11:50:23.000Z</time>
      </trkpt>
      <trkpt lat="41.623661" lon="-2.008523">
        <ele>1084.8</ele>
        <time>2023-02-11T11:50:24.000Z</time>
      </trkpt>
      <trkpt lat="41.623649" lon="-2.008662">
        <ele>1084.4</ele>
        <time>2023-02-11T11:50:25.000Z</time>
      </trkpt>
      <trkpt lat="41.623632" lon="-2.008798">
        <ele>1084.4</ele>
        <time>2023-02-11T11:50:26.000Z</time>
      </trkpt>
      <trkpt lat="41.623612" lon="-2.00893">
        <ele>1084.2</ele>
        <time>2023-02-11T11:50:27.000Z</time>
      </trkpt>
      <trkpt lat="41.623591" lon="-2.009062">
        <ele>1084.2</ele>
        <time>2023-02-11T11:50:28.000Z</time>
      </trkpt>
      <trkpt lat="41.623578" lon="-2.009196">
        <ele>1084</ele>
        <time>2023-02-11T11:50:29.000Z</time>
      </trkpt>
      <trkpt lat="41.623575" lon="-2.009331">
        <ele>1084</ele>
        <time>2023-02-11T11:50:30.000Z</time>
      </trkpt>
      <trkpt lat="41.623585" lon="-2.009464">
        <ele>1083.8</ele>
        <time>2023-02-11T11:50:31.000Z</time>
      </trkpt>
      <trkpt lat="41.623605" lon="-2.009593">
        <ele>1083.6</ele>
        <time>2023-02-11T11:50:32.000Z</time>
      </trkpt>
      <trkpt lat="41.623637" lon="-2.009717">
        <ele>1083.6</ele>
        <time>2023-02-11T11:50:33.000Z</time>
      </trkpt>
      <trkpt lat="41.623675" lon="-2.009834">
        <ele>1083.4</ele>
        <time>2023-02-11T11:50:34.000Z</time>
      </trkpt>
      <trkpt lat="41.623715" lon="-2.009945">
        <ele>1083.4</ele>
        <time>2023-02-11T11:50:35.000Z</time>
      </trkpt>
      <trkpt lat="41.623746" lon="-2.010063">
        <ele>1083.4</ele>
        <time>2023-02-11T11:50:36.000Z</time>
      </trkpt>
      <trkpt lat="41.623769" lon="-2.010186">
        <ele>1083.4</ele>
        <time>2023-02-11T11:50:37.000Z</time>
      </trkpt>
      <trkpt lat="41.623784" lon="-2.01031">
        <ele>1083.4</ele>
        <time>2023-02-11T11:50:38.000Z</time>
      </trkpt>
      <trkpt lat="41.623791" lon="-2.010437">
        <ele>1083.4</ele>
        <time>2023-02-11T11:50:39.000Z</time>
      </trkpt>
      <trkpt lat="41.623792" lon="-2.010562">
        <ele>1083.4</ele>
        <time>2023-02-11T11:50:40.000Z</time>
      </trkpt>
      <trkpt lat="41.623784" lon="-2.010687">
        <ele>1083.4</ele>
        <time>2023-02-11T11:50:41.000Z</time>
      </trkpt>
      <trkpt lat="41.623759" lon="-2.010808">
        <ele>1083.4</ele>
        <time>2023-02-11T11:50:42.000Z</time>
      </trkpt>
      <trkpt lat="41.623719" lon="-2.010922">
        <ele>1083.4</ele>
        <time>2023-02-11T11:50:43.000Z</time>
      </trkpt>
      <trkpt lat="41.623679" lon="-2.011029">
        <ele>1083.4</ele>
        <time>2023-02-11T11:50:44.000Z</time>
      </trkpt>
      <trkpt lat="41.623631" lon="-2.011132">
        <ele>1083.4</ele>
        <time>2023-02-11T11:50:45.000Z</time>
      </trkpt>
      <trkpt lat="41.623583" lon="-2.011231">
        <ele>1083.4</ele>
        <time>2023-02-11T11:50:46.000Z</time>
      </trkpt>
      <trkpt lat="41.623535" lon="-2.01133">
        <ele>1083.8</ele>
        <time>2023-02-11T11:50:47.000Z</time>
      </trkpt>
      <trkpt lat="41.623491" lon="-2.01143">
        <ele>1083.8</ele>
        <time>2023-02-11T11:50:48.000Z</time>
      </trkpt>
      <trkpt lat="41.623453" lon="-2.011539">
        <ele>1084</ele>
        <time>2023-02-11T11:50:49.000Z</time>
      </trkpt>
      <trkpt lat="41.623428" lon="-2.011656">
        <ele>1084.2</ele>
        <time>2023-02-11T11:50:50.000Z</time>
      </trkpt>
      <trkpt lat="41.623414" lon="-2.01178">
        <ele>1084.2</ele>
        <time>2023-02-11T11:50:51.000Z</time>
      </trkpt>
      <trkpt lat="41.623406" lon="-2.011905">
        <ele>1084.2</ele>
        <time>2023-02-11T11:50:52.000Z</time>
      </trkpt>
      <trkpt lat="41.623398" lon="-2.012032">
        <ele>1084.2</ele>
        <time>2023-02-11T11:50:53.000Z</time>
      </trkpt>
      <trkpt lat="41.62339" lon="-2.01216">
        <ele>1084.2</ele>
        <time>2023-02-11T11:50:54.000Z</time>
      </trkpt>
      <trkpt lat="41.623377" lon="-2.012288">
        <ele>1084.2</ele>
        <time>2023-02-11T11:50:55.000Z</time>
      </trkpt>
      <trkpt lat="41.623367" lon="-2.012413">
        <ele>1084.2</ele>
        <time>2023-02-11T11:50:56.000Z</time>
      </trkpt>
      <trkpt lat="41.623353" lon="-2.012538">
        <ele>1084.2</ele>
        <time>2023-02-11T11:50:57.000Z</time>
      </trkpt>
      <trkpt lat="41.623341" lon="-2.012663">
        <ele>1084.2</ele>
        <time>2023-02-11T11:50:58.000Z</time>
      </trkpt>
      <trkpt lat="41.623328" lon="-2.012784">
        <ele>1084.2</ele>
        <time>2023-02-11T11:50:59.000Z</time>
      </trkpt>
      <trkpt lat="41.623314" lon="-2.012907">
        <ele>1084.2</ele>
        <time>2023-02-11T11:51:00.000Z</time>
      </trkpt>
      <trkpt lat="41.623295" lon="-2.013029">
        <ele>1084.2</ele>
        <time>2023-02-11T11:51:01.000Z</time>
      </trkpt>
      <trkpt lat="41.623275" lon="-2.013149">
        <ele>1084.2</ele>
        <time>2023-02-11T11:51:02.000Z</time>
      </trkpt>
      <trkpt lat="41.62325" lon="-2.01327">
        <ele>1084</ele>
        <time>2023-02-11T11:51:03.000Z</time>
      </trkpt>
      <trkpt lat="41.623223" lon="-2.013389">
        <ele>1084</ele>
        <time>2023-02-11T11:51:04.000Z</time>
      </trkpt>
      <trkpt lat="41.623193" lon="-2.013507">
        <ele>1084</ele>
        <time>2023-02-11T11:51:05.000Z</time>
      </trkpt>
      <trkpt lat="41.623165" lon="-2.013619">
        <ele>1084</ele>
        <time>2023-02-11T11:51:06.000Z</time>
      </trkpt>
      <trkpt lat="41.623136" lon="-2.013733">
        <ele>1084</ele>
        <time>2023-02-11T11:51:07.000Z</time>
      </trkpt>
      <trkpt lat="41.623101" lon="-2.01385">
        <ele>1083.8</ele>
        <time>2023-02-11T11:51:08.000Z</time>
      </trkpt>
      <trkpt lat="41.623067" lon="-2.013966">
        <ele>1083.8</ele>
        <time>2023-02-11T11:51:09.000Z</time>
      </trkpt>
      <trkpt lat="41.623033" lon="-2.01408">
        <ele>1083.8</ele>
        <time>2023-02-11T11:51:10.000Z</time>
      </trkpt>
      <trkpt lat="41.622996" lon="-2.014194">
        <ele>1083.6</ele>
        <time>2023-02-11T11:51:11.000Z</time>
      </trkpt>
      <trkpt lat="41.622954" lon="-2.01431">
        <ele>1083.6</ele>
        <time>2023-02-11T11:51:12.000Z</time>
      </trkpt>
      <trkpt lat="41.622911" lon="-2.014425">
        <ele>1083.6</ele>
        <time>2023-02-11T11:51:13.000Z</time>
      </trkpt>
      <trkpt lat="41.622866" lon="-2.014542">
        <ele>1083.4</ele>
        <time>2023-02-11T11:51:14.000Z</time>
      </trkpt>
      <trkpt lat="41.622822" lon="-2.014656">
        <ele>1083.4</ele>
        <time>2023-02-11T11:51:15.000Z</time>
      </trkpt>
      <trkpt lat="41.62278" lon="-2.014772">
        <ele>1083.2</ele>
        <time>2023-02-11T11:51:16.000Z</time>
      </trkpt>
      <trkpt lat="41.62274" lon="-2.014886">
        <ele>1083</ele>
        <time>2023-02-11T11:51:17.000Z</time>
      </trkpt>
      <trkpt lat="41.6227" lon="-2.015005">
        <ele>1082.8</ele>
        <time>2023-02-11T11:51:18.000Z</time>
      </trkpt>
      <trkpt lat="41.622664" lon="-2.01512">
        <ele>1082.6</ele>
        <time>2023-02-11T11:51:19.000Z</time>
      </trkpt>
      <trkpt lat="41.622628" lon="-2.01524">
        <ele>1082.6</ele>
        <time>2023-02-11T11:51:20.000Z</time>
      </trkpt>
      <trkpt lat="41.622589" lon="-2.015362">
        <ele>1082.4</ele>
        <time>2023-02-11T11:51:21.000Z</time>
      </trkpt>
      <trkpt lat="41.622553" lon="-2.015485">
        <ele>1082.4</ele>
        <time>2023-02-11T11:51:22.000Z</time>
      </trkpt>
      <trkpt lat="41.622518" lon="-2.015608">
        <ele>1082.2</ele>
        <time>2023-02-11T11:51:23.000Z</time>
      </trkpt>
      <trkpt lat="41.622485" lon="-2.015733">
        <ele>1082.2</ele>
        <time>2023-02-11T11:51:24.000Z</time>
      </trkpt>
      <trkpt lat="41.622452" lon="-2.01586">
        <ele>1082.2</ele>
        <time>2023-02-11T11:51:25.000Z</time>
      </trkpt>
      <trkpt lat="41.622425" lon="-2.015987">
        <ele>1082</ele>
        <time>2023-02-11T11:51:26.000Z</time>
      </trkpt>
      <trkpt lat="41.622397" lon="-2.016116">
        <ele>1081.8</ele>
        <time>2023-02-11T11:51:27.000Z</time>
      </trkpt>
      <trkpt lat="41.622369" lon="-2.016246">
        <ele>1081.4</ele>
        <time>2023-02-11T11:51:28.000Z</time>
      </trkpt>
      <trkpt lat="41.622345" lon="-2.016377">
        <ele>1081.2</ele>
        <time>2023-02-11T11:51:29.000Z</time>
      </trkpt>
      <trkpt lat="41.622322" lon="-2.016506">
        <ele>1080.8</ele>
        <time>2023-02-11T11:51:30.000Z</time>
      </trkpt>
      <trkpt lat="41.6223" lon="-2.016637">
        <ele>1080.8</ele>
        <time>2023-02-11T11:51:31.000Z</time>
      </trkpt>
      <trkpt lat="41.622286" lon="-2.016772">
        <ele>1080.4</ele>
        <time>2023-02-11T11:51:32.000Z</time>
      </trkpt>
      <trkpt lat="41.622272" lon="-2.016912">
        <ele>1080.4</ele>
        <time>2023-02-11T11:51:33.000Z</time>
      </trkpt>
      <trkpt lat="41.622263" lon="-2.017052">
        <ele>1080</ele>
        <time>2023-02-11T11:51:34.000Z</time>
      </trkpt>
      <trkpt lat="41.622255" lon="-2.017194">
        <ele>1079.8</ele>
        <time>2023-02-11T11:51:35.000Z</time>
      </trkpt>
      <trkpt lat="41.622247" lon="-2.017341">
        <ele>1079.6</ele>
        <time>2023-02-11T11:51:36.000Z</time>
      </trkpt>
      <trkpt lat="41.622243" lon="-2.017487">
        <ele>1079.2</ele>
        <time>2023-02-11T11:51:37.000Z</time>
      </trkpt>
      <trkpt lat="41.62224" lon="-2.017635">
        <ele>1079.2</ele>
        <time>2023-02-11T11:51:38.000Z</time>
      </trkpt>
      <trkpt lat="41.622237" lon="-2.017782">
        <ele>1079</ele>
        <time>2023-02-11T11:51:39.000Z</time>
      </trkpt>
      <trkpt lat="41.622233" lon="-2.01793">
        <ele>1078.6</ele>
        <time>2023-02-11T11:51:40.000Z</time>
      </trkpt>
      <trkpt lat="41.62223" lon="-2.018077">
        <ele>1078.2</ele>
        <time>2023-02-11T11:51:41.000Z</time>
      </trkpt>
      <trkpt lat="41.622233" lon="-2.018222">
        <ele>1077.8</ele>
        <time>2023-02-11T11:51:42.000Z</time>
      </trkpt>
      <trkpt lat="41.622239" lon="-2.018365">
        <ele>1077.4</ele>
        <time>2023-02-11T11:51:43.000Z</time>
      </trkpt>
      <trkpt lat="41.622246" lon="-2.018504">
        <ele>1077.4</ele>
        <time>2023-02-11T11:51:44.000Z</time>
      </trkpt>
      <trkpt lat="41.622253" lon="-2.018645">
        <ele>1077.2</ele>
        <time>2023-02-11T11:51:45.000Z</time>
      </trkpt>
      <trkpt lat="41.622264" lon="-2.018785">
        <ele>1077</ele>
        <time>2023-02-11T11:51:46.000Z</time>
      </trkpt>
      <trkpt lat="41.622275" lon="-2.018925">
        <ele>1076.8</ele>
        <time>2023-02-11T11:51:47.000Z</time>
      </trkpt>
      <trkpt lat="41.62229" lon="-2.01906">
        <ele>1076.6</ele>
        <time>2023-02-11T11:51:48.000Z</time>
      </trkpt>
      <trkpt lat="41.622304" lon="-2.019198">
        <ele>1076.4</ele>
        <time>2023-02-11T11:51:49.000Z</time>
      </trkpt>
      <trkpt lat="41.622322" lon="-2.019335">
        <ele>1076.2</ele>
        <time>2023-02-11T11:51:50.000Z</time>
      </trkpt>
      <trkpt lat="41.622343" lon="-2.019471">
        <ele>1075.8</ele>
        <time>2023-02-11T11:51:51.000Z</time>
      </trkpt>
      <trkpt lat="41.622365" lon="-2.019603">
        <ele>1075.4</ele>
        <time>2023-02-11T11:51:52.000Z</time>
      </trkpt>
      <trkpt lat="41.622388" lon="-2.019735">
        <ele>1075.4</ele>
        <time>2023-02-11T11:51:53.000Z</time>
      </trkpt>
      <trkpt lat="41.622412" lon="-2.019865">
        <ele>1075.2</ele>
        <time>2023-02-11T11:51:54.000Z</time>
      </trkpt>
      <trkpt lat="41.62244" lon="-2.019994">
        <ele>1074.8</ele>
        <time>2023-02-11T11:51:55.000Z</time>
      </trkpt>
      <trkpt lat="41.622467" lon="-2.020127">
        <ele>1074.8</ele>
        <time>2023-02-11T11:51:56.000Z</time>
      </trkpt>
      <trkpt lat="41.622496" lon="-2.020254">
        <ele>1074.4</ele>
        <time>2023-02-11T11:51:57.000Z</time>
      </trkpt>
      <trkpt lat="41.622529" lon="-2.020382">
        <ele>1074.4</ele>
        <time>2023-02-11T11:51:58.000Z</time>
      </trkpt>
      <trkpt lat="41.622561" lon="-2.02051">
        <ele>1074.2</ele>
        <time>2023-02-11T11:51:59.000Z</time>
      </trkpt>
      <trkpt lat="41.622596" lon="-2.020637">
        <ele>1074</ele>
        <time>2023-02-11T11:52:00.000Z</time>
      </trkpt>
      <trkpt lat="41.622633" lon="-2.020767">
        <ele>1073.8</ele>
        <time>2023-02-11T11:52:01.000Z</time>
      </trkpt>
      <trkpt lat="41.62267" lon="-2.020896">
        <ele>1073.8</ele>
        <time>2023-02-11T11:52:02.000Z</time>
      </trkpt>
      <trkpt lat="41.622715" lon="-2.021021">
        <ele>1073.6</ele>
        <time>2023-02-11T11:52:03.000Z</time>
      </trkpt>
      <trkpt lat="41.622761" lon="-2.021147">
        <ele>1073.6</ele>
        <time>2023-02-11T11:52:04.000Z</time>
      </trkpt>
      <trkpt lat="41.622808" lon="-2.021273">
        <ele>1073.4</ele>
        <time>2023-02-11T11:52:05.000Z</time>
      </trkpt>
      <trkpt lat="41.622855" lon="-2.021398">
        <ele>1073.4</ele>
        <time>2023-02-11T11:52:06.000Z</time>
      </trkpt>
      <trkpt lat="41.622902" lon="-2.021522">
        <ele>1073.4</ele>
        <time>2023-02-11T11:52:07.000Z</time>
      </trkpt>
      <trkpt lat="41.622952" lon="-2.021645">
        <ele>1073.2</ele>
        <time>2023-02-11T11:52:08.000Z</time>
      </trkpt>
      <trkpt lat="41.623003" lon="-2.021767">
        <ele>1073.2</ele>
        <time>2023-02-11T11:52:09.000Z</time>
      </trkpt>
      <trkpt lat="41.623053" lon="-2.021888">
        <ele>1073.2</ele>
        <time>2023-02-11T11:52:10.000Z</time>
      </trkpt>
      <trkpt lat="41.6231" lon="-2.022011">
        <ele>1073.2</ele>
        <time>2023-02-11T11:52:11.000Z</time>
      </trkpt>
      <trkpt lat="41.62315" lon="-2.022132">
        <ele>1073</ele>
        <time>2023-02-11T11:52:12.000Z</time>
      </trkpt>
      <trkpt lat="41.6232" lon="-2.022253">
        <ele>1073</ele>
        <time>2023-02-11T11:52:13.000Z</time>
      </trkpt>
      <trkpt lat="41.62325" lon="-2.022376">
        <ele>1073</ele>
        <time>2023-02-11T11:52:14.000Z</time>
      </trkpt>
      <trkpt lat="41.623299" lon="-2.022497">
        <ele>1073</ele>
        <time>2023-02-11T11:52:15.000Z</time>
      </trkpt>
      <trkpt lat="41.62335" lon="-2.022616">
        <ele>1073</ele>
        <time>2023-02-11T11:52:16.000Z</time>
      </trkpt>
      <trkpt lat="41.623401" lon="-2.022735">
        <ele>1072.8</ele>
        <time>2023-02-11T11:52:17.000Z</time>
      </trkpt>
      <trkpt lat="41.62345" lon="-2.022855">
        <ele>1072.8</ele>
        <time>2023-02-11T11:52:18.000Z</time>
      </trkpt>
      <trkpt lat="41.623499" lon="-2.022975">
        <ele>1072.8</ele>
        <time>2023-02-11T11:52:19.000Z</time>
      </trkpt>
      <trkpt lat="41.623547" lon="-2.023096">
        <ele>1072.8</ele>
        <time>2023-02-11T11:52:20.000Z</time>
      </trkpt>
      <trkpt lat="41.623596" lon="-2.023216">
        <ele>1072.8</ele>
        <time>2023-02-11T11:52:21.000Z</time>
      </trkpt>
      <trkpt lat="41.623644" lon="-2.023334">
        <ele>1072.8</ele>
        <time>2023-02-11T11:52:22.000Z</time>
      </trkpt>
      <trkpt lat="41.623693" lon="-2.023454">
        <ele>1072.6</ele>
        <time>2023-02-11T11:52:23.000Z</time>
      </trkpt>
      <trkpt lat="41.623742" lon="-2.023571">
        <ele>1072.6</ele>
        <time>2023-02-11T11:52:24.000Z</time>
      </trkpt>
      <trkpt lat="41.62379" lon="-2.023691">
        <ele>1072.6</ele>
        <time>2023-02-11T11:52:25.000Z</time>
      </trkpt>
      <trkpt lat="41.623839" lon="-2.023809">
        <ele>1072.6</ele>
        <time>2023-02-11T11:52:26.000Z</time>
      </trkpt>
      <trkpt lat="41.623886" lon="-2.023926">
        <ele>1072.6</ele>
        <time>2023-02-11T11:52:27.000Z</time>
      </trkpt>
      <trkpt lat="41.623931" lon="-2.024045">
        <ele>1072.6</ele>
        <time>2023-02-11T11:52:28.000Z</time>
      </trkpt>
      <trkpt lat="41.623977" lon="-2.024163">
        <ele>1072.6</ele>
        <time>2023-02-11T11:52:29.000Z</time>
      </trkpt>
      <trkpt lat="41.624023" lon="-2.024281">
        <ele>1072.4</ele>
        <time>2023-02-11T11:52:30.000Z</time>
      </trkpt>
      <trkpt lat="41.624067" lon="-2.024399">
        <ele>1072.4</ele>
        <time>2023-02-11T11:52:31.000Z</time>
      </trkpt>
      <trkpt lat="41.62411" lon="-2.024518">
        <ele>1072.4</ele>
        <time>2023-02-11T11:52:32.000Z</time>
      </trkpt>
      <trkpt lat="41.624153" lon="-2.024637">
        <ele>1072.4</ele>
        <time>2023-02-11T11:52:33.000Z</time>
      </trkpt>
      <trkpt lat="41.624196" lon="-2.024756">
        <ele>1072.2</ele>
        <time>2023-02-11T11:52:34.000Z</time>
      </trkpt>
      <trkpt lat="41.62424" lon="-2.024873">
        <ele>1072</ele>
        <time>2023-02-11T11:52:35.000Z</time>
      </trkpt>
      <trkpt lat="41.624287" lon="-2.02499">
        <ele>1071.8</ele>
        <time>2023-02-11T11:52:36.000Z</time>
      </trkpt>
      <trkpt lat="41.624336" lon="-2.025102">
        <ele>1071.6</ele>
        <time>2023-02-11T11:52:37.000Z</time>
      </trkpt>
      <trkpt lat="41.624381" lon="-2.025216">
        <ele>1071.4</ele>
        <time>2023-02-11T11:52:38.000Z</time>
      </trkpt>
      <trkpt lat="41.624428" lon="-2.025331">
        <ele>1071.4</ele>
        <time>2023-02-11T11:52:39.000Z</time>
      </trkpt>
      <trkpt lat="41.624476" lon="-2.025444">
        <ele>1071.2</ele>
        <time>2023-02-11T11:52:40.000Z</time>
      </trkpt>
      <trkpt lat="41.624525" lon="-2.025556">
        <ele>1071.2</ele>
        <time>2023-02-11T11:52:41.000Z</time>
      </trkpt>
      <trkpt lat="41.624572" lon="-2.025668">
        <ele>1071.2</ele>
        <time>2023-02-11T11:52:42.000Z</time>
      </trkpt>
      <trkpt lat="41.624619" lon="-2.025781">
        <ele>1071</ele>
        <time>2023-02-11T11:52:43.000Z</time>
      </trkpt>
      <trkpt lat="41.624667" lon="-2.025893">
        <ele>1070.8</ele>
        <time>2023-02-11T11:52:44.000Z</time>
      </trkpt>
      <trkpt lat="41.624713" lon="-2.026007">
        <ele>1070.8</ele>
        <time>2023-02-11T11:52:45.000Z</time>
      </trkpt>
      <trkpt lat="41.624761" lon="-2.02612">
        <ele>1070.8</ele>
        <time>2023-02-11T11:52:46.000Z</time>
      </trkpt>
      <trkpt lat="41.62481" lon="-2.026235">
        <ele>1070.8</ele>
        <time>2023-02-11T11:52:47.000Z</time>
      </trkpt>
      <trkpt lat="41.624857" lon="-2.026351">
        <ele>1070.8</ele>
        <time>2023-02-11T11:52:48.000Z</time>
      </trkpt>
      <trkpt lat="41.624906" lon="-2.026466">
        <ele>1070.6</ele>
        <time>2023-02-11T11:52:49.000Z</time>
      </trkpt>
      <trkpt lat="41.624954" lon="-2.026584">
        <ele>1070.6</ele>
        <time>2023-02-11T11:52:50.000Z</time>
      </trkpt>
      <trkpt lat="41.625001" lon="-2.026701">
        <ele>1070.6</ele>
        <time>2023-02-11T11:52:51.000Z</time>
      </trkpt>
      <trkpt lat="41.625044" lon="-2.026821">
        <ele>1070.6</ele>
        <time>2023-02-11T11:52:52.000Z</time>
      </trkpt>
      <trkpt lat="41.625087" lon="-2.026941">
        <ele>1070.6</ele>
        <time>2023-02-11T11:52:53.000Z</time>
      </trkpt>
      <trkpt lat="41.625133" lon="-2.02706">
        <ele>1070.6</ele>
        <time>2023-02-11T11:52:54.000Z</time>
      </trkpt>
      <trkpt lat="41.62518" lon="-2.02718">
        <ele>1070.4</ele>
        <time>2023-02-11T11:52:55.000Z</time>
      </trkpt>
      <trkpt lat="41.625227" lon="-2.0273">
        <ele>1070.2</ele>
        <time>2023-02-11T11:52:56.000Z</time>
      </trkpt>
      <trkpt lat="41.625275" lon="-2.027419">
        <ele>1070</ele>
        <time>2023-02-11T11:52:57.000Z</time>
      </trkpt>
      <trkpt lat="41.62532" lon="-2.027539">
        <ele>1070</ele>
        <time>2023-02-11T11:52:58.000Z</time>
      </trkpt>
      <trkpt lat="41.625369" lon="-2.027657">
        <ele>1069.8</ele>
        <time>2023-02-11T11:52:59.000Z</time>
      </trkpt>
      <trkpt lat="41.625418" lon="-2.027774">
        <ele>1069.8</ele>
        <time>2023-02-11T11:53:00.000Z</time>
      </trkpt>
      <trkpt lat="41.625466" lon="-2.027892">
        <ele>1069.8</ele>
        <time>2023-02-11T11:53:01.000Z</time>
      </trkpt>
      <trkpt lat="41.625515" lon="-2.02801">
        <ele>1069.8</ele>
        <time>2023-02-11T11:53:02.000Z</time>
      </trkpt>
      <trkpt lat="41.625564" lon="-2.028126">
        <ele>1069.8</ele>
        <time>2023-02-11T11:53:03.000Z</time>
      </trkpt>
      <trkpt lat="41.625609" lon="-2.028247">
        <ele>1069.6</ele>
        <time>2023-02-11T11:53:04.000Z</time>
      </trkpt>
      <trkpt lat="41.625657" lon="-2.028367">
        <ele>1069.6</ele>
        <time>2023-02-11T11:53:05.000Z</time>
      </trkpt>
      <trkpt lat="41.625705" lon="-2.028485">
        <ele>1069.4</ele>
        <time>2023-02-11T11:53:06.000Z</time>
      </trkpt>
      <trkpt lat="41.625755" lon="-2.028602">
        <ele>1069.4</ele>
        <time>2023-02-11T11:53:07.000Z</time>
      </trkpt>
      <trkpt lat="41.625804" lon="-2.028719">
        <ele>1069.2</ele>
        <time>2023-02-11T11:53:08.000Z</time>
      </trkpt>
      <trkpt lat="41.625853" lon="-2.028836">
        <ele>1069.2</ele>
        <time>2023-02-11T11:53:09.000Z</time>
      </trkpt>
      <trkpt lat="41.6259" lon="-2.028956">
        <ele>1069</ele>
        <time>2023-02-11T11:53:10.000Z</time>
      </trkpt>
      <trkpt lat="41.625948" lon="-2.029074">
        <ele>1069</ele>
        <time>2023-02-11T11:53:11.000Z</time>
      </trkpt>
      <trkpt lat="41.625998" lon="-2.02919">
        <ele>1069</ele>
        <time>2023-02-11T11:53:12.000Z</time>
      </trkpt>
      <trkpt lat="41.626043" lon="-2.029312">
        <ele>1069</ele>
        <time>2023-02-11T11:53:13.000Z</time>
      </trkpt>
      <trkpt lat="41.626091" lon="-2.02943">
        <ele>1068.8</ele>
        <time>2023-02-11T11:53:14.000Z</time>
      </trkpt>
      <trkpt lat="41.626139" lon="-2.02955">
        <ele>1068.8</ele>
        <time>2023-02-11T11:53:15.000Z</time>
      </trkpt>
      <trkpt lat="41.626181" lon="-2.029676">
        <ele>1068.6</ele>
        <time>2023-02-11T11:53:16.000Z</time>
      </trkpt>
      <trkpt lat="41.62623" lon="-2.029796">
        <ele>1068.6</ele>
        <time>2023-02-11T11:53:17.000Z</time>
      </trkpt>
      <trkpt lat="41.62628" lon="-2.029916">
        <ele>1068.6</ele>
        <time>2023-02-11T11:53:18.000Z</time>
      </trkpt>
      <trkpt lat="41.626329" lon="-2.030037">
        <ele>1068.6</ele>
        <time>2023-02-11T11:53:19.000Z</time>
      </trkpt>
      <trkpt lat="41.62638" lon="-2.030159">
        <ele>1068.6</ele>
        <time>2023-02-11T11:53:20.000Z</time>
      </trkpt>
      <trkpt lat="41.626431" lon="-2.030281">
        <ele>1068.4</ele>
        <time>2023-02-11T11:53:21.000Z</time>
      </trkpt>
      <trkpt lat="41.626482" lon="-2.030403">
        <ele>1068.4</ele>
        <time>2023-02-11T11:53:22.000Z</time>
      </trkpt>
      <trkpt lat="41.626534" lon="-2.030526">
        <ele>1068.4</ele>
        <time>2023-02-11T11:53:23.000Z</time>
      </trkpt>
      <trkpt lat="41.626585" lon="-2.030648">
        <ele>1068.6</ele>
        <time>2023-02-11T11:53:24.000Z</time>
      </trkpt>
      <trkpt lat="41.626636" lon="-2.030772">
        <ele>1068.4</ele>
        <time>2023-02-11T11:53:25.000Z</time>
      </trkpt>
      <trkpt lat="41.626687" lon="-2.030894">
        <ele>1068.4</ele>
        <time>2023-02-11T11:53:26.000Z</time>
      </trkpt>
      <trkpt lat="41.626736" lon="-2.031023">
        <ele>1068.2</ele>
        <time>2023-02-11T11:53:27.000Z</time>
      </trkpt>
      <trkpt lat="41.626787" lon="-2.031146">
        <ele>1068</ele>
        <time>2023-02-11T11:53:28.000Z</time>
      </trkpt>
      <trkpt lat="41.626835" lon="-2.031272">
        <ele>1068</ele>
        <time>2023-02-11T11:53:29.000Z</time>
      </trkpt>
      <trkpt lat="41.626885" lon="-2.031393">
        <ele>1067.8</ele>
        <time>2023-02-11T11:53:30.000Z</time>
      </trkpt>
      <trkpt lat="41.626935" lon="-2.031514">
        <ele>1067.8</ele>
        <time>2023-02-11T11:53:31.000Z</time>
      </trkpt>
      <trkpt lat="41.626985" lon="-2.031635">
        <ele>1067.8</ele>
        <time>2023-02-11T11:53:32.000Z</time>
      </trkpt>
      <trkpt lat="41.627033" lon="-2.031756">
        <ele>1067.6</ele>
        <time>2023-02-11T11:53:33.000Z</time>
      </trkpt>
      <trkpt lat="41.627083" lon="-2.031874">
        <ele>1067.6</ele>
        <time>2023-02-11T11:53:34.000Z</time>
      </trkpt>
      <trkpt lat="41.627132" lon="-2.031993">
        <ele>1067.2</ele>
        <time>2023-02-11T11:53:35.000Z</time>
      </trkpt>
      <trkpt lat="41.627181" lon="-2.032109">
        <ele>1067.2</ele>
        <time>2023-02-11T11:53:36.000Z</time>
      </trkpt>
      <trkpt lat="41.627231" lon="-2.032224">
        <ele>1067</ele>
        <time>2023-02-11T11:53:37.000Z</time>
      </trkpt>
      <trkpt lat="41.627281" lon="-2.032342">
        <ele>1067</ele>
        <time>2023-02-11T11:53:38.000Z</time>
      </trkpt>
      <trkpt lat="41.627328" lon="-2.03246">
        <ele>1067</ele>
        <time>2023-02-11T11:53:39.000Z</time>
      </trkpt>
      <trkpt lat="41.627377" lon="-2.03258">
        <ele>1066.8</ele>
        <time>2023-02-11T11:53:40.000Z</time>
      </trkpt>
      <trkpt lat="41.627425" lon="-2.032701">
        <ele>1066.8</ele>
        <time>2023-02-11T11:53:41.000Z</time>
      </trkpt>
      <trkpt lat="41.627469" lon="-2.032823">
        <ele>1066.6</ele>
        <time>2023-02-11T11:53:42.000Z</time>
      </trkpt>
      <trkpt lat="41.627518" lon="-2.032941">
        <ele>1066.4</ele>
        <time>2023-02-11T11:53:43.000Z</time>
      </trkpt>
      <trkpt lat="41.627561" lon="-2.033066">
        <ele>1066.2</ele>
        <time>2023-02-11T11:53:44.000Z</time>
      </trkpt>
      <trkpt lat="41.62761" lon="-2.033186">
        <ele>1066.2</ele>
        <time>2023-02-11T11:53:45.000Z</time>
      </trkpt>
      <trkpt lat="41.627659" lon="-2.033306">
        <ele>1066</ele>
        <time>2023-02-11T11:53:46.000Z</time>
      </trkpt>
      <trkpt lat="41.627708" lon="-2.033426">
        <ele>1066</ele>
        <time>2023-02-11T11:53:47.000Z</time>
      </trkpt>
      <trkpt lat="41.627758" lon="-2.033543">
        <ele>1065.8</ele>
        <time>2023-02-11T11:53:48.000Z</time>
      </trkpt>
      <trkpt lat="41.627807" lon="-2.033658">
        <ele>1065.8</ele>
        <time>2023-02-11T11:53:49.000Z</time>
      </trkpt>
      <trkpt lat="41.627858" lon="-2.033771">
        <ele>1065.6</ele>
        <time>2023-02-11T11:53:50.000Z</time>
      </trkpt>
      <trkpt lat="41.627909" lon="-2.033886">
        <ele>1065.4</ele>
        <time>2023-02-11T11:53:51.000Z</time>
      </trkpt>
      <trkpt lat="41.627959" lon="-2.034006">
        <ele>1065.4</ele>
        <time>2023-02-11T11:53:52.000Z</time>
      </trkpt>
      <trkpt lat="41.628009" lon="-2.034121">
        <ele>1065.2</ele>
        <time>2023-02-11T11:53:53.000Z</time>
      </trkpt>
      <trkpt lat="41.628056" lon="-2.034239">
        <ele>1065</ele>
        <time>2023-02-11T11:53:54.000Z</time>
      </trkpt>
      <trkpt lat="41.628105" lon="-2.034354">
        <ele>1065</ele>
        <time>2023-02-11T11:53:55.000Z</time>
      </trkpt>
      <trkpt lat="41.628155" lon="-2.034468">
        <ele>1064.8</ele>
        <time>2023-02-11T11:53:56.000Z</time>
      </trkpt>
      <trkpt lat="41.628204" lon="-2.034583">
        <ele>1064.8</ele>
        <time>2023-02-11T11:53:57.000Z</time>
      </trkpt>
      <trkpt lat="41.628253" lon="-2.034696">
        <ele>1064.6</ele>
        <time>2023-02-11T11:53:58.000Z</time>
      </trkpt>
      <trkpt lat="41.628297" lon="-2.034816">
        <ele>1064.6</ele>
        <time>2023-02-11T11:53:59.000Z</time>
      </trkpt>
      <trkpt lat="41.628346" lon="-2.034933">
        <ele>1064.6</ele>
        <time>2023-02-11T11:54:00.000Z</time>
      </trkpt>
      <trkpt lat="41.628397" lon="-2.03505">
        <ele>1064.4</ele>
        <time>2023-02-11T11:54:01.000Z</time>
      </trkpt>
      <trkpt lat="41.628446" lon="-2.035166">
        <ele>1064.4</ele>
        <time>2023-02-11T11:54:02.000Z</time>
      </trkpt>
      <trkpt lat="41.628494" lon="-2.035282">
        <ele>1064.4</ele>
        <time>2023-02-11T11:54:03.000Z</time>
      </trkpt>
      <trkpt lat="41.628541" lon="-2.035398">
        <ele>1064.4</ele>
        <time>2023-02-11T11:54:04.000Z</time>
      </trkpt>
      <trkpt lat="41.628589" lon="-2.035513">
        <ele>1064.4</ele>
        <time>2023-02-11T11:54:05.000Z</time>
      </trkpt>
      <trkpt lat="41.628636" lon="-2.035627">
        <ele>1064.4</ele>
        <time>2023-02-11T11:54:06.000Z</time>
      </trkpt>
      <trkpt lat="41.628684" lon="-2.03574">
        <ele>1064.4</ele>
        <time>2023-02-11T11:54:07.000Z</time>
      </trkpt>
      <trkpt lat="41.628731" lon="-2.035852">
        <ele>1064.6</ele>
        <time>2023-02-11T11:54:08.000Z</time>
      </trkpt>
      <trkpt lat="41.628778" lon="-2.035963">
        <ele>1064.6</ele>
        <time>2023-02-11T11:54:09.000Z</time>
      </trkpt>
      <trkpt lat="41.628826" lon="-2.036076">
        <ele>1064.8</ele>
        <time>2023-02-11T11:54:10.000Z</time>
      </trkpt>
      <trkpt lat="41.628877" lon="-2.036192">
        <ele>1064.8</ele>
        <time>2023-02-11T11:54:11.000Z</time>
      </trkpt>
      <trkpt lat="41.628926" lon="-2.036311">
        <ele>1064.8</ele>
        <time>2023-02-11T11:54:12.000Z</time>
      </trkpt>
      <trkpt lat="41.628975" lon="-2.03643">
        <ele>1064.8</ele>
        <time>2023-02-11T11:54:13.000Z</time>
      </trkpt>
      <trkpt lat="41.629027" lon="-2.036552">
        <ele>1064.8</ele>
        <time>2023-02-11T11:54:14.000Z</time>
      </trkpt>
      <trkpt lat="41.629079" lon="-2.03666">
        <ele>1064.8</ele>
        <time>2023-02-11T11:54:15.000Z</time>
      </trkpt>
      <trkpt lat="41.629128" lon="-2.036775">
        <ele>1064.8</ele>
        <time>2023-02-11T11:54:16.000Z</time>
      </trkpt>
      <trkpt lat="41.629182" lon="-2.036879">
        <ele>1064.8</ele>
        <time>2023-02-11T11:54:17.000Z</time>
      </trkpt>
      <trkpt lat="41.629234" lon="-2.036983">
        <ele>1064.8</ele>
        <time>2023-02-11T11:54:18.000Z</time>
      </trkpt>
      <trkpt lat="41.629284" lon="-2.037094">
        <ele>1064.8</ele>
        <time>2023-02-11T11:54:19.000Z</time>
      </trkpt>
      <trkpt lat="41.629336" lon="-2.037209">
        <ele>1064.8</ele>
        <time>2023-02-11T11:54:20.000Z</time>
      </trkpt>
      <trkpt lat="41.629385" lon="-2.037324">
        <ele>1064.8</ele>
        <time>2023-02-11T11:54:21.000Z</time>
      </trkpt>
      <trkpt lat="41.629434" lon="-2.037441">
        <ele>1064.8</ele>
        <time>2023-02-11T11:54:22.000Z</time>
      </trkpt>
      <trkpt lat="41.629483" lon="-2.037558">
        <ele>1064.6</ele>
        <time>2023-02-11T11:54:23.000Z</time>
      </trkpt>
      <trkpt lat="41.629532" lon="-2.037675">
        <ele>1064.6</ele>
        <time>2023-02-11T11:54:24.000Z</time>
      </trkpt>
      <trkpt lat="41.629578" lon="-2.037792">
        <ele>1064.6</ele>
        <time>2023-02-11T11:54:25.000Z</time>
      </trkpt>
      <trkpt lat="41.629625" lon="-2.037908">
        <ele>1064.6</ele>
        <time>2023-02-11T11:54:26.000Z</time>
      </trkpt>
      <trkpt lat="41.629679" lon="-2.038016">
        <ele>1064.6</ele>
        <time>2023-02-11T11:54:27.000Z</time>
      </trkpt>
      <trkpt lat="41.62973" lon="-2.038131">
        <ele>1064.6</ele>
        <time>2023-02-11T11:54:28.000Z</time>
      </trkpt>
      <trkpt lat="41.629778" lon="-2.038251">
        <ele>1064.6</ele>
        <time>2023-02-11T11:54:29.000Z</time>
      </trkpt>
      <trkpt lat="41.629825" lon="-2.03837">
        <ele>1064.6</ele>
        <time>2023-02-11T11:54:30.000Z</time>
      </trkpt>
      <trkpt lat="41.629874" lon="-2.038489">
        <ele>1064.6</ele>
        <time>2023-02-11T11:54:31.000Z</time>
      </trkpt>
      <trkpt lat="41.629923" lon="-2.038605">
        <ele>1064.6</ele>
        <time>2023-02-11T11:54:32.000Z</time>
      </trkpt>
      <trkpt lat="41.629971" lon="-2.03872">
        <ele>1064.8</ele>
        <time>2023-02-11T11:54:33.000Z</time>
      </trkpt>
      <trkpt lat="41.630023" lon="-2.038829">
        <ele>1064.8</ele>
        <time>2023-02-11T11:54:34.000Z</time>
      </trkpt>
      <trkpt lat="41.630073" lon="-2.038942">
        <ele>1064.8</ele>
        <time>2023-02-11T11:54:35.000Z</time>
      </trkpt>
      <trkpt lat="41.630124" lon="-2.039054">
        <ele>1064.8</ele>
        <time>2023-02-11T11:54:36.000Z</time>
      </trkpt>
      <trkpt lat="41.630173" lon="-2.039168">
        <ele>1064.8</ele>
        <time>2023-02-11T11:54:37.000Z</time>
      </trkpt>
      <trkpt lat="41.630221" lon="-2.039278">
        <ele>1064.8</ele>
        <time>2023-02-11T11:54:38.000Z</time>
      </trkpt>
      <trkpt lat="41.630266" lon="-2.039389">
        <ele>1064.8</ele>
        <time>2023-02-11T11:54:39.000Z</time>
      </trkpt>
      <trkpt lat="41.630312" lon="-2.0395">
        <ele>1064.8</ele>
        <time>2023-02-11T11:54:40.000Z</time>
      </trkpt>
      <trkpt lat="41.630358" lon="-2.039613">
        <ele>1064.6</ele>
        <time>2023-02-11T11:54:41.000Z</time>
      </trkpt>
      <trkpt lat="41.630406" lon="-2.03973">
        <ele>1064.6</ele>
        <time>2023-02-11T11:54:42.000Z</time>
      </trkpt>
      <trkpt lat="41.630455" lon="-2.039846">
        <ele>1064.6</ele>
        <time>2023-02-11T11:54:43.000Z</time>
      </trkpt>
      <trkpt lat="41.630503" lon="-2.03996">
        <ele>1064.6</ele>
        <time>2023-02-11T11:54:44.000Z</time>
      </trkpt>
      <trkpt lat="41.630551" lon="-2.040078">
        <ele>1064.6</ele>
        <time>2023-02-11T11:54:45.000Z</time>
      </trkpt>
      <trkpt lat="41.630598" lon="-2.040194">
        <ele>1064.6</ele>
        <time>2023-02-11T11:54:46.000Z</time>
      </trkpt>
      <trkpt lat="41.630646" lon="-2.040311">
        <ele>1064.6</ele>
        <time>2023-02-11T11:54:47.000Z</time>
      </trkpt>
      <trkpt lat="41.630693" lon="-2.040426">
        <ele>1064.6</ele>
        <time>2023-02-11T11:54:48.000Z</time>
      </trkpt>
      <trkpt lat="41.630739" lon="-2.040541">
        <ele>1064.6</ele>
        <time>2023-02-11T11:54:49.000Z</time>
      </trkpt>
      <trkpt lat="41.630785" lon="-2.040652">
        <ele>1064.6</ele>
        <time>2023-02-11T11:54:50.000Z</time>
      </trkpt>
      <trkpt lat="41.630832" lon="-2.040757">
        <ele>1064.6</ele>
        <time>2023-02-11T11:54:51.000Z</time>
      </trkpt>
      <trkpt lat="41.630878" lon="-2.040873">
        <ele>1064.6</ele>
        <time>2023-02-11T11:54:52.000Z</time>
      </trkpt>
      <trkpt lat="41.630926" lon="-2.04099">
        <ele>1064.6</ele>
        <time>2023-02-11T11:54:53.000Z</time>
      </trkpt>
      <trkpt lat="41.630974" lon="-2.041105">
        <ele>1064.6</ele>
        <time>2023-02-11T11:54:54.000Z</time>
      </trkpt>
      <trkpt lat="41.631023" lon="-2.04122">
        <ele>1064.6</ele>
        <time>2023-02-11T11:54:55.000Z</time>
      </trkpt>
      <trkpt lat="41.631073" lon="-2.041337">
        <ele>1064.6</ele>
        <time>2023-02-11T11:54:56.000Z</time>
      </trkpt>
      <trkpt lat="41.631122" lon="-2.041455">
        <ele>1064.4</ele>
        <time>2023-02-11T11:54:57.000Z</time>
      </trkpt>
      <trkpt lat="41.63117" lon="-2.041574">
        <ele>1064.4</ele>
        <time>2023-02-11T11:54:58.000Z</time>
      </trkpt>
      <trkpt lat="41.631218" lon="-2.041691">
        <ele>1064.4</ele>
        <time>2023-02-11T11:54:59.000Z</time>
      </trkpt>
      <trkpt lat="41.631266" lon="-2.041808">
        <ele>1064.2</ele>
        <time>2023-02-11T11:55:00.000Z</time>
      </trkpt>
      <trkpt lat="41.631314" lon="-2.041925">
        <ele>1064</ele>
        <time>2023-02-11T11:55:01.000Z</time>
      </trkpt>
      <trkpt lat="41.631362" lon="-2.042044">
        <ele>1063.8</ele>
        <time>2023-02-11T11:55:02.000Z</time>
      </trkpt>
      <trkpt lat="41.631411" lon="-2.042163">
        <ele>1063.6</ele>
        <time>2023-02-11T11:55:03.000Z</time>
      </trkpt>
      <trkpt lat="41.63146" lon="-2.042285">
        <ele>1063.4</ele>
        <time>2023-02-11T11:55:04.000Z</time>
      </trkpt>
      <trkpt lat="41.631511" lon="-2.042412">
        <ele>1063.2</ele>
        <time>2023-02-11T11:55:05.000Z</time>
      </trkpt>
      <trkpt lat="41.631562" lon="-2.042542">
        <ele>1062.8</ele>
        <time>2023-02-11T11:55:06.000Z</time>
      </trkpt>
      <trkpt lat="41.631616" lon="-2.042674">
        <ele>1062.8</ele>
        <time>2023-02-11T11:55:07.000Z</time>
      </trkpt>
      <trkpt lat="41.631671" lon="-2.042807">
        <ele>1062.4</ele>
        <time>2023-02-11T11:55:08.000Z</time>
      </trkpt>
      <trkpt lat="41.631726" lon="-2.042942">
        <ele>1062.2</ele>
        <time>2023-02-11T11:55:09.000Z</time>
      </trkpt>
      <trkpt lat="41.631781" lon="-2.043073">
        <ele>1061.4</ele>
        <time>2023-02-11T11:55:10.000Z</time>
      </trkpt>
      <trkpt lat="41.631832" lon="-2.0432">
        <ele>1060.8</ele>
        <time>2023-02-11T11:55:11.000Z</time>
      </trkpt>
      <trkpt lat="41.631882" lon="-2.043326">
        <ele>1060.6</ele>
        <time>2023-02-11T11:55:12.000Z</time>
      </trkpt>
      <trkpt lat="41.631933" lon="-2.043453">
        <ele>1060.4</ele>
        <time>2023-02-11T11:55:13.000Z</time>
      </trkpt>
      <trkpt lat="41.631982" lon="-2.043579">
        <ele>1060.2</ele>
        <time>2023-02-11T11:55:14.000Z</time>
      </trkpt>
      <trkpt lat="41.632032" lon="-2.043703">
        <ele>1060</ele>
        <time>2023-02-11T11:55:15.000Z</time>
      </trkpt>
      <trkpt lat="41.632078" lon="-2.043826">
        <ele>1060</ele>
        <time>2023-02-11T11:55:16.000Z</time>
      </trkpt>
      <trkpt lat="41.632128" lon="-2.043945">
        <ele>1059.8</ele>
        <time>2023-02-11T11:55:17.000Z</time>
      </trkpt>
      <trkpt lat="41.632175" lon="-2.044065">
        <ele>1059.8</ele>
        <time>2023-02-11T11:55:18.000Z</time>
      </trkpt>
      <trkpt lat="41.632223" lon="-2.044182">
        <ele>1059.8</ele>
        <time>2023-02-11T11:55:19.000Z</time>
      </trkpt>
      <trkpt lat="41.63227" lon="-2.044299">
        <ele>1059.8</ele>
        <time>2023-02-11T11:55:20.000Z</time>
      </trkpt>
      <trkpt lat="41.632314" lon="-2.044418">
        <ele>1059.8</ele>
        <time>2023-02-11T11:55:21.000Z</time>
      </trkpt>
      <trkpt lat="41.632361" lon="-2.044537">
        <ele>1059.6</ele>
        <time>2023-02-11T11:55:22.000Z</time>
      </trkpt>
      <trkpt lat="41.632412" lon="-2.044651">
        <ele>1059.6</ele>
        <time>2023-02-11T11:55:23.000Z</time>
      </trkpt>
      <trkpt lat="41.632461" lon="-2.044769">
        <ele>1059.6</ele>
        <time>2023-02-11T11:55:24.000Z</time>
      </trkpt>
      <trkpt lat="41.632507" lon="-2.04489">
        <ele>1059.6</ele>
        <time>2023-02-11T11:55:25.000Z</time>
      </trkpt>
      <trkpt lat="41.632559" lon="-2.045012">
        <ele>1059.6</ele>
        <time>2023-02-11T11:55:26.000Z</time>
      </trkpt>
      <trkpt lat="41.632605" lon="-2.045136">
        <ele>1059.6</ele>
        <time>2023-02-11T11:55:27.000Z</time>
      </trkpt>
      <trkpt lat="41.63265" lon="-2.04526">
        <ele>1059.6</ele>
        <time>2023-02-11T11:55:28.000Z</time>
      </trkpt>
      <trkpt lat="41.632696" lon="-2.045381">
        <ele>1059.6</ele>
        <time>2023-02-11T11:55:29.000Z</time>
      </trkpt>
      <trkpt lat="41.632745" lon="-2.045501">
        <ele>1059.6</ele>
        <time>2023-02-11T11:55:30.000Z</time>
      </trkpt>
      <trkpt lat="41.632794" lon="-2.045621">
        <ele>1059.6</ele>
        <time>2023-02-11T11:55:31.000Z</time>
      </trkpt>
      <trkpt lat="41.632844" lon="-2.045737">
        <ele>1059.6</ele>
        <time>2023-02-11T11:55:32.000Z</time>
      </trkpt>
      <trkpt lat="41.632892" lon="-2.045854">
        <ele>1059.6</ele>
        <time>2023-02-11T11:55:33.000Z</time>
      </trkpt>
      <trkpt lat="41.632937" lon="-2.045969">
        <ele>1059.6</ele>
        <time>2023-02-11T11:55:34.000Z</time>
      </trkpt>
      <trkpt lat="41.632981" lon="-2.046079">
        <ele>1059.8</ele>
        <time>2023-02-11T11:55:35.000Z</time>
      </trkpt>
      <trkpt lat="41.633027" lon="-2.046188">
        <ele>1059.8</ele>
        <time>2023-02-11T11:55:36.000Z</time>
      </trkpt>
      <trkpt lat="41.633072" lon="-2.046293">
        <ele>1060</ele>
        <time>2023-02-11T11:55:37.000Z</time>
      </trkpt>
      <trkpt lat="41.633117" lon="-2.046399">
        <ele>1060</ele>
        <time>2023-02-11T11:55:38.000Z</time>
      </trkpt>
      <trkpt lat="41.633162" lon="-2.046508">
        <ele>1060.4</ele>
        <time>2023-02-11T11:55:39.000Z</time>
      </trkpt>
      <trkpt lat="41.633203" lon="-2.046607">
        <ele>1060.4</ele>
        <time>2023-02-11T11:55:40.000Z</time>
      </trkpt>
      <trkpt lat="41.633243" lon="-2.046713">
        <ele>1060.6</ele>
        <time>2023-02-11T11:55:41.000Z</time>
      </trkpt>
      <trkpt lat="41.633284" lon="-2.046817">
        <ele>1060.8</ele>
        <time>2023-02-11T11:55:42.000Z</time>
      </trkpt>
      <trkpt lat="41.633326" lon="-2.04692">
        <ele>1060.8</ele>
        <time>2023-02-11T11:55:43.000Z</time>
      </trkpt>
      <trkpt lat="41.633368" lon="-2.047024">
        <ele>1061</ele>
        <time>2023-02-11T11:55:44.000Z</time>
      </trkpt>
      <trkpt lat="41.63341" lon="-2.047125">
        <ele>1061.2</ele>
        <time>2023-02-11T11:55:45.000Z</time>
      </trkpt>
      <trkpt lat="41.633452" lon="-2.047225">
        <ele>1061.6</ele>
        <time>2023-02-11T11:55:46.000Z</time>
      </trkpt>
      <trkpt lat="41.633537" lon="-2.047424">
        <ele>1061.6</ele>
        <time>2023-02-11T11:55:47.000Z</time>
      </trkpt>
      <trkpt lat="41.633578" lon="-2.047525">
        <ele>1062.2</ele>
        <time>2023-02-11T11:55:48.000Z</time>
      </trkpt>
      <trkpt lat="41.633619" lon="-2.047625">
        <ele>1062.6</ele>
        <time>2023-02-11T11:55:49.000Z</time>
      </trkpt>
      <trkpt lat="41.63366" lon="-2.047725">
        <ele>1062.6</ele>
        <time>2023-02-11T11:55:50.000Z</time>
      </trkpt>
      <trkpt lat="41.633703" lon="-2.047823">
        <ele>1062.8</ele>
        <time>2023-02-11T11:55:51.000Z</time>
      </trkpt>
      <trkpt lat="41.633749" lon="-2.04792">
        <ele>1063.2</ele>
        <time>2023-02-11T11:55:52.000Z</time>
      </trkpt>
      <trkpt lat="41.633792" lon="-2.04802">
        <ele>1063.6</ele>
        <time>2023-02-11T11:55:53.000Z</time>
      </trkpt>
      <trkpt lat="41.633833" lon="-2.04812">
        <ele>1063.6</ele>
        <time>2023-02-11T11:55:54.000Z</time>
      </trkpt>
      <trkpt lat="41.633866" lon="-2.048197">
        <ele>1063.8</ele>
        <time>2023-02-11T11:55:55.000Z</time>
      </trkpt>
      <trkpt lat="41.633898" lon="-2.048273">
        <ele>1064</ele>
        <time>2023-02-11T11:55:56.000Z</time>
      </trkpt>
      <trkpt lat="41.633963" lon="-2.048426">
        <ele>1064.2</ele>
        <time>2023-02-11T11:55:57.000Z</time>
      </trkpt>
      <trkpt lat="41.634008" lon="-2.04853">
        <ele>1064.2</ele>
        <time>2023-02-11T11:55:58.000Z</time>
      </trkpt>
      <trkpt lat="41.63404" lon="-2.048607">
        <ele>1064.6</ele>
        <time>2023-02-11T11:55:59.000Z</time>
      </trkpt>
      <trkpt lat="41.634072" lon="-2.048683">
        <ele>1064.8</ele>
        <time>2023-02-11T11:56:00.000Z</time>
      </trkpt>
      <trkpt lat="41.634136" lon="-2.048836">
        <ele>1064.8</ele>
        <time>2023-02-11T11:56:01.000Z</time>
      </trkpt>
      <trkpt lat="41.634179" lon="-2.048941">
        <ele>1065</ele>
        <time>2023-02-11T11:56:02.000Z</time>
      </trkpt>
      <trkpt lat="41.634224" lon="-2.049046">
        <ele>1065</ele>
        <time>2023-02-11T11:56:03.000Z</time>
      </trkpt>
      <trkpt lat="41.634257" lon="-2.049127">
        <ele>1065</ele>
        <time>2023-02-11T11:56:04.000Z</time>
      </trkpt>
      <trkpt lat="41.634291" lon="-2.049208">
        <ele>1065</ele>
        <time>2023-02-11T11:56:05.000Z</time>
      </trkpt>
      <trkpt lat="41.634358" lon="-2.049369">
        <ele>1065</ele>
        <time>2023-02-11T11:56:06.000Z</time>
      </trkpt>
      <trkpt lat="41.634402" lon="-2.049478">
        <ele>1065.2</ele>
        <time>2023-02-11T11:56:07.000Z</time>
      </trkpt>
      <trkpt lat="41.634446" lon="-2.049586">
        <ele>1065.2</ele>
        <time>2023-02-11T11:56:08.000Z</time>
      </trkpt>
      <trkpt lat="41.634493" lon="-2.049694">
        <ele>1065.2</ele>
        <time>2023-02-11T11:56:09.000Z</time>
      </trkpt>
      <trkpt lat="41.634539" lon="-2.049801">
        <ele>1065.2</ele>
        <time>2023-02-11T11:56:10.000Z</time>
      </trkpt>
      <trkpt lat="41.634583" lon="-2.049905">
        <ele>1065.2</ele>
        <time>2023-02-11T11:56:11.000Z</time>
      </trkpt>
      <trkpt lat="41.634627" lon="-2.050008">
        <ele>1065.2</ele>
        <time>2023-02-11T11:56:12.000Z</time>
      </trkpt>
      <trkpt lat="41.63466" lon="-2.050089">
        <ele>1065.4</ele>
        <time>2023-02-11T11:56:13.000Z</time>
      </trkpt>
      <trkpt lat="41.634692" lon="-2.05017">
        <ele>1065.4</ele>
        <time>2023-02-11T11:56:14.000Z</time>
      </trkpt>
      <trkpt lat="41.634757" lon="-2.050332">
        <ele>1065.6</ele>
        <time>2023-02-11T11:56:15.000Z</time>
      </trkpt>
      <trkpt lat="41.634791" lon="-2.050411">
        <ele>1065.6</ele>
        <time>2023-02-11T11:56:16.000Z</time>
      </trkpt>
      <trkpt lat="41.634824" lon="-2.05049">
        <ele>1065.6</ele>
        <time>2023-02-11T11:56:17.000Z</time>
      </trkpt>
      <trkpt lat="41.634891" lon="-2.050648">
        <ele>1065.6</ele>
        <time>2023-02-11T11:56:18.000Z</time>
      </trkpt>
      <trkpt lat="41.634935" lon="-2.050754">
        <ele>1065.8</ele>
        <time>2023-02-11T11:56:19.000Z</time>
      </trkpt>
      <trkpt lat="41.634978" lon="-2.05086">
        <ele>1065.8</ele>
        <time>2023-02-11T11:56:20.000Z</time>
      </trkpt>
      <trkpt lat="41.635021" lon="-2.050965">
        <ele>1065.8</ele>
        <time>2023-02-11T11:56:21.000Z</time>
      </trkpt>
      <trkpt lat="41.635054" lon="-2.051045">
        <ele>1066</ele>
        <time>2023-02-11T11:56:22.000Z</time>
      </trkpt>
      <trkpt lat="41.635086" lon="-2.051125">
        <ele>1066</ele>
        <time>2023-02-11T11:56:23.000Z</time>
      </trkpt>
      <trkpt lat="41.635152" lon="-2.051286">
        <ele>1066.2</ele>
        <time>2023-02-11T11:56:24.000Z</time>
      </trkpt>
      <trkpt lat="41.635195" lon="-2.051394">
        <ele>1066.2</ele>
        <time>2023-02-11T11:56:25.000Z</time>
      </trkpt>
      <trkpt lat="41.635237" lon="-2.051503">
        <ele>1066.4</ele>
        <time>2023-02-11T11:56:26.000Z</time>
      </trkpt>
      <trkpt lat="41.635278" lon="-2.051613">
        <ele>1066.4</ele>
        <time>2023-02-11T11:56:27.000Z</time>
      </trkpt>
      <trkpt lat="41.635322" lon="-2.051722">
        <ele>1066.4</ele>
        <time>2023-02-11T11:56:28.000Z</time>
      </trkpt>
      <trkpt lat="41.635367" lon="-2.051832">
        <ele>1066.4</ele>
        <time>2023-02-11T11:56:29.000Z</time>
      </trkpt>
      <trkpt lat="41.635411" lon="-2.051943">
        <ele>1066.4</ele>
        <time>2023-02-11T11:56:30.000Z</time>
      </trkpt>
      <trkpt lat="41.635444" lon="-2.052024">
        <ele>1066.4</ele>
        <time>2023-02-11T11:56:31.000Z</time>
      </trkpt>
      <trkpt lat="41.635477" lon="-2.052106">
        <ele>1066.4</ele>
        <time>2023-02-11T11:56:32.000Z</time>
      </trkpt>
      <trkpt lat="41.635543" lon="-2.05227">
        <ele>1066.4</ele>
        <time>2023-02-11T11:56:33.000Z</time>
      </trkpt>
      <trkpt lat="41.635578" lon="-2.052354">
        <ele>1066.4</ele>
        <time>2023-02-11T11:56:34.000Z</time>
      </trkpt>
      <trkpt lat="41.635612" lon="-2.052437">
        <ele>1066.4</ele>
        <time>2023-02-11T11:56:35.000Z</time>
      </trkpt>
      <trkpt lat="41.635681" lon="-2.052605">
        <ele>1066.4</ele>
        <time>2023-02-11T11:56:36.000Z</time>
      </trkpt>
      <trkpt lat="41.635729" lon="-2.052716">
        <ele>1066.4</ele>
        <time>2023-02-11T11:56:37.000Z</time>
      </trkpt>
      <trkpt lat="41.635776" lon="-2.052828">
        <ele>1066.4</ele>
        <time>2023-02-11T11:56:38.000Z</time>
      </trkpt>
      <trkpt lat="41.635821" lon="-2.052941">
        <ele>1066.4</ele>
        <time>2023-02-11T11:56:39.000Z</time>
      </trkpt>
      <trkpt lat="41.635845" lon="-2.052999">
        <ele>1066.4</ele>
        <time>2023-02-11T11:56:40.000Z</time>
      </trkpt>
      <trkpt lat="41.635869" lon="-2.053057">
        <ele>1066.4</ele>
        <time>2023-02-11T11:56:41.000Z</time>
      </trkpt>
      <trkpt lat="41.635918" lon="-2.053172">
        <ele>1066.2</ele>
        <time>2023-02-11T11:56:42.000Z</time>
      </trkpt>
      <trkpt lat="41.636002" lon="-2.053379">
        <ele>1066.2</ele>
        <time>2023-02-11T11:56:43.000Z</time>
      </trkpt>
      <trkpt lat="41.636038" lon="-2.053468">
        <ele>1066.2</ele>
        <time>2023-02-11T11:56:44.000Z</time>
      </trkpt>
      <trkpt lat="41.63611" lon="-2.053647">
        <ele>1066.2</ele>
        <time>2023-02-11T11:56:45.000Z</time>
      </trkpt>
      <trkpt lat="41.636156" lon="-2.053767">
        <ele>1066.2</ele>
        <time>2023-02-11T11:56:46.000Z</time>
      </trkpt>
      <trkpt lat="41.636203" lon="-2.053882">
        <ele>1066.2</ele>
        <time>2023-02-11T11:56:47.000Z</time>
      </trkpt>
      <trkpt lat="41.63625" lon="-2.053996">
        <ele>1066.2</ele>
        <time>2023-02-11T11:56:48.000Z</time>
      </trkpt>
      <trkpt lat="41.636286" lon="-2.054084">
        <ele>1066.2</ele>
        <time>2023-02-11T11:56:49.000Z</time>
      </trkpt>
      <trkpt lat="41.636321" lon="-2.054171">
        <ele>1066.2</ele>
        <time>2023-02-11T11:56:50.000Z</time>
      </trkpt>
      <trkpt lat="41.636392" lon="-2.054346">
        <ele>1066</ele>
        <time>2023-02-11T11:56:51.000Z</time>
      </trkpt>
      <trkpt lat="41.636441" lon="-2.054467">
        <ele>1066</ele>
        <time>2023-02-11T11:56:52.000Z</time>
      </trkpt>
      <trkpt lat="41.636489" lon="-2.054588">
        <ele>1066</ele>
        <time>2023-02-11T11:56:53.000Z</time>
      </trkpt>
      <trkpt lat="41.636536" lon="-2.05471">
        <ele>1065.8</ele>
        <time>2023-02-11T11:56:54.000Z</time>
      </trkpt>
      <trkpt lat="41.636587" lon="-2.054832">
        <ele>1065.8</ele>
        <time>2023-02-11T11:56:55.000Z</time>
      </trkpt>
      <trkpt lat="41.636637" lon="-2.054954">
        <ele>1065.8</ele>
        <time>2023-02-11T11:56:56.000Z</time>
      </trkpt>
      <trkpt lat="41.636687" lon="-2.055077">
        <ele>1065.6</ele>
        <time>2023-02-11T11:56:57.000Z</time>
      </trkpt>
      <trkpt lat="41.636723" lon="-2.055168">
        <ele>1065.4</ele>
        <time>2023-02-11T11:56:58.000Z</time>
      </trkpt>
      <trkpt lat="41.63676" lon="-2.055259">
        <ele>1065.4</ele>
        <time>2023-02-11T11:56:59.000Z</time>
      </trkpt>
      <trkpt lat="41.636832" lon="-2.055441">
        <ele>1065.2</ele>
        <time>2023-02-11T11:57:00.000Z</time>
      </trkpt>
      <trkpt lat="41.636881" lon="-2.055563">
        <ele>1065.2</ele>
        <time>2023-02-11T11:57:01.000Z</time>
      </trkpt>
      <trkpt lat="41.636932" lon="-2.055686">
        <ele>1065.2</ele>
        <time>2023-02-11T11:57:02.000Z</time>
      </trkpt>
      <trkpt lat="41.636982" lon="-2.055812">
        <ele>1065.2</ele>
        <time>2023-02-11T11:57:03.000Z</time>
      </trkpt>
      <trkpt lat="41.637036" lon="-2.05594">
        <ele>1065</ele>
        <time>2023-02-11T11:57:04.000Z</time>
      </trkpt>
      <trkpt lat="41.637088" lon="-2.056063">
        <ele>1065</ele>
        <time>2023-02-11T11:57:05.000Z</time>
      </trkpt>
      <trkpt lat="41.637138" lon="-2.056186">
        <ele>1065</ele>
        <time>2023-02-11T11:57:06.000Z</time>
      </trkpt>
      <trkpt lat="41.637176" lon="-2.056279">
        <ele>1064.8</ele>
        <time>2023-02-11T11:57:07.000Z</time>
      </trkpt>
      <trkpt lat="41.637214" lon="-2.056372">
        <ele>1064.8</ele>
        <time>2023-02-11T11:57:08.000Z</time>
      </trkpt>
      <trkpt lat="41.63729" lon="-2.056559">
        <ele>1064.6</ele>
        <time>2023-02-11T11:57:09.000Z</time>
      </trkpt>
      <trkpt lat="41.637343" lon="-2.056684">
        <ele>1064.6</ele>
        <time>2023-02-11T11:57:10.000Z</time>
      </trkpt>
      <trkpt lat="41.637395" lon="-2.056809">
        <ele>1064.4</ele>
        <time>2023-02-11T11:57:11.000Z</time>
      </trkpt>
      <trkpt lat="41.637446" lon="-2.056937">
        <ele>1064.4</ele>
        <time>2023-02-11T11:57:12.000Z</time>
      </trkpt>
      <trkpt lat="41.6375" lon="-2.057061">
        <ele>1064.2</ele>
        <time>2023-02-11T11:57:13.000Z</time>
      </trkpt>
      <trkpt lat="41.637553" lon="-2.057184">
        <ele>1064.2</ele>
        <time>2023-02-11T11:57:14.000Z</time>
      </trkpt>
      <trkpt lat="41.637604" lon="-2.057308">
        <ele>1064</ele>
        <time>2023-02-11T11:57:15.000Z</time>
      </trkpt>
      <trkpt lat="41.637643" lon="-2.057401">
        <ele>1063.8</ele>
        <time>2023-02-11T11:57:16.000Z</time>
      </trkpt>
      <trkpt lat="41.637682" lon="-2.057494">
        <ele>1063.8</ele>
        <time>2023-02-11T11:57:17.000Z</time>
      </trkpt>
      <trkpt lat="41.637761" lon="-2.057681">
        <ele>1063.6</ele>
        <time>2023-02-11T11:57:18.000Z</time>
      </trkpt>
      <trkpt lat="41.637802" lon="-2.057777">
        <ele>1063.6</ele>
        <time>2023-02-11T11:57:19.000Z</time>
      </trkpt>
      <trkpt lat="41.637843" lon="-2.057873">
        <ele>1063.6</ele>
        <time>2023-02-11T11:57:20.000Z</time>
      </trkpt>
      <trkpt lat="41.637925" lon="-2.058065">
        <ele>1063.4</ele>
        <time>2023-02-11T11:57:21.000Z</time>
      </trkpt>
      <trkpt lat="41.637978" lon="-2.058195">
        <ele>1063.4</ele>
        <time>2023-02-11T11:57:22.000Z</time>
      </trkpt>
      <trkpt lat="41.638034" lon="-2.058325">
        <ele>1063.2</ele>
        <time>2023-02-11T11:57:23.000Z</time>
      </trkpt>
      <trkpt lat="41.638089" lon="-2.058452">
        <ele>1063.2</ele>
        <time>2023-02-11T11:57:24.000Z</time>
      </trkpt>
      <trkpt lat="41.63814" lon="-2.058575">
        <ele>1063</ele>
        <time>2023-02-11T11:57:25.000Z</time>
      </trkpt>
      <trkpt lat="41.638191" lon="-2.058699">
        <ele>1063</ele>
        <time>2023-02-11T11:57:26.000Z</time>
      </trkpt>
      <trkpt lat="41.638244" lon="-2.058825">
        <ele>1062.8</ele>
        <time>2023-02-11T11:57:27.000Z</time>
      </trkpt>
      <trkpt lat="41.638294" lon="-2.058949">
        <ele>1062.6</ele>
        <time>2023-02-11T11:57:28.000Z</time>
      </trkpt>
      <trkpt lat="41.638346" lon="-2.059073">
        <ele>1062.6</ele>
        <time>2023-02-11T11:57:29.000Z</time>
      </trkpt>
      <trkpt lat="41.638399" lon="-2.059195">
        <ele>1062.6</ele>
        <time>2023-02-11T11:57:30.000Z</time>
      </trkpt>
      <trkpt lat="41.638449" lon="-2.059322">
        <ele>1062.4</ele>
        <time>2023-02-11T11:57:31.000Z</time>
      </trkpt>
      <trkpt lat="41.638499" lon="-2.05945">
        <ele>1062.4</ele>
        <time>2023-02-11T11:57:32.000Z</time>
      </trkpt>
      <trkpt lat="41.638551" lon="-2.059577">
        <ele>1062.4</ele>
        <time>2023-02-11T11:57:33.000Z</time>
      </trkpt>
      <trkpt lat="41.638604" lon="-2.059705">
        <ele>1062.2</ele>
        <time>2023-02-11T11:57:34.000Z</time>
      </trkpt>
      <trkpt lat="41.638658" lon="-2.059833">
        <ele>1062.2</ele>
        <time>2023-02-11T11:57:35.000Z</time>
      </trkpt>
      <trkpt lat="41.638711" lon="-2.05996">
        <ele>1062</ele>
        <time>2023-02-11T11:57:36.000Z</time>
      </trkpt>
      <trkpt lat="41.638763" lon="-2.060089">
        <ele>1061.8</ele>
        <time>2023-02-11T11:57:37.000Z</time>
      </trkpt>
      <trkpt lat="41.638813" lon="-2.060215">
        <ele>1061.6</ele>
        <time>2023-02-11T11:57:38.000Z</time>
      </trkpt>
      <trkpt lat="41.638863" lon="-2.060341">
        <ele>1061.6</ele>
        <time>2023-02-11T11:57:39.000Z</time>
      </trkpt>
      <trkpt lat="41.638912" lon="-2.060469">
        <ele>1061.4</ele>
        <time>2023-02-11T11:57:40.000Z</time>
      </trkpt>
      <trkpt lat="41.638964" lon="-2.060598">
        <ele>1061.2</ele>
        <time>2023-02-11T11:57:41.000Z</time>
      </trkpt>
      <trkpt lat="41.639015" lon="-2.060726">
        <ele>1061</ele>
        <time>2023-02-11T11:57:42.000Z</time>
      </trkpt>
      <trkpt lat="41.639068" lon="-2.060852">
        <ele>1061</ele>
        <time>2023-02-11T11:57:43.000Z</time>
      </trkpt>
      <trkpt lat="41.639121" lon="-2.060981">
        <ele>1060.6</ele>
        <time>2023-02-11T11:57:44.000Z</time>
      </trkpt>
      <trkpt lat="41.639173" lon="-2.06111">
        <ele>1060.4</ele>
        <time>2023-02-11T11:57:45.000Z</time>
      </trkpt>
      <trkpt lat="41.639224" lon="-2.061237">
        <ele>1060.2</ele>
        <time>2023-02-11T11:57:46.000Z</time>
      </trkpt>
      <trkpt lat="41.639275" lon="-2.061363">
        <ele>1060</ele>
        <time>2023-02-11T11:57:47.000Z</time>
      </trkpt>
      <trkpt lat="41.639326" lon="-2.061487">
        <ele>1060</ele>
        <time>2023-02-11T11:57:48.000Z</time>
      </trkpt>
      <trkpt lat="41.639376" lon="-2.061609">
        <ele>1059.6</ele>
        <time>2023-02-11T11:57:49.000Z</time>
      </trkpt>
      <trkpt lat="41.639426" lon="-2.061728">
        <ele>1059.6</ele>
        <time>2023-02-11T11:57:50.000Z</time>
      </trkpt>
      <trkpt lat="41.639476" lon="-2.061846">
        <ele>1059.4</ele>
        <time>2023-02-11T11:57:51.000Z</time>
      </trkpt>
      <trkpt lat="41.639523" lon="-2.061963">
        <ele>1059.2</ele>
        <time>2023-02-11T11:57:52.000Z</time>
      </trkpt>
      <trkpt lat="41.639568" lon="-2.06208">
        <ele>1059.2</ele>
        <time>2023-02-11T11:57:53.000Z</time>
      </trkpt>
      <trkpt lat="41.639614" lon="-2.062198">
        <ele>1059</ele>
        <time>2023-02-11T11:57:54.000Z</time>
      </trkpt>
      <trkpt lat="41.639661" lon="-2.062309">
        <ele>1059</ele>
        <time>2023-02-11T11:57:55.000Z</time>
      </trkpt>
      <trkpt lat="41.639705" lon="-2.062421">
        <ele>1059</ele>
        <time>2023-02-11T11:57:56.000Z</time>
      </trkpt>
      <trkpt lat="41.639751" lon="-2.062532">
        <ele>1059</ele>
        <time>2023-02-11T11:57:57.000Z</time>
      </trkpt>
      <trkpt lat="41.639797" lon="-2.062642">
        <ele>1059</ele>
        <time>2023-02-11T11:57:58.000Z</time>
      </trkpt>
      <trkpt lat="41.639842" lon="-2.06275">
        <ele>1059</ele>
        <time>2023-02-11T11:57:59.000Z</time>
      </trkpt>
      <trkpt lat="41.639888" lon="-2.062855">
        <ele>1059.2</ele>
        <time>2023-02-11T11:58:00.000Z</time>
      </trkpt>
      <trkpt lat="41.639933" lon="-2.062959">
        <ele>1059.4</ele>
        <time>2023-02-11T11:58:01.000Z</time>
      </trkpt>
      <trkpt lat="41.639977" lon="-2.063061">
        <ele>1059.4</ele>
        <time>2023-02-11T11:58:02.000Z</time>
      </trkpt>
      <trkpt lat="41.640021" lon="-2.063162">
        <ele>1059.6</ele>
        <time>2023-02-11T11:58:03.000Z</time>
      </trkpt>
      <trkpt lat="41.640064" lon="-2.063264">
        <ele>1059.6</ele>
        <time>2023-02-11T11:58:04.000Z</time>
      </trkpt>
      <trkpt lat="41.640108" lon="-2.063364">
        <ele>1059.8</ele>
        <time>2023-02-11T11:58:05.000Z</time>
      </trkpt>
      <trkpt lat="41.640147" lon="-2.063464">
        <ele>1059.8</ele>
        <time>2023-02-11T11:58:06.000Z</time>
      </trkpt>
      <trkpt lat="41.640188" lon="-2.063564">
        <ele>1060</ele>
        <time>2023-02-11T11:58:07.000Z</time>
      </trkpt>
      <trkpt lat="41.64023" lon="-2.063664">
        <ele>1060</ele>
        <time>2023-02-11T11:58:08.000Z</time>
      </trkpt>
      <trkpt lat="41.640273" lon="-2.063766">
        <ele>1060</ele>
        <time>2023-02-11T11:58:09.000Z</time>
      </trkpt>
      <trkpt lat="41.640314" lon="-2.063869">
        <ele>1060.2</ele>
        <time>2023-02-11T11:58:10.000Z</time>
      </trkpt>
      <trkpt lat="41.640355" lon="-2.063973">
        <ele>1060.2</ele>
        <time>2023-02-11T11:58:11.000Z</time>
      </trkpt>
      <trkpt lat="41.640396" lon="-2.064075">
        <ele>1060.2</ele>
        <time>2023-02-11T11:58:12.000Z</time>
      </trkpt>
      <trkpt lat="41.640438" lon="-2.064174">
        <ele>1060.4</ele>
        <time>2023-02-11T11:58:13.000Z</time>
      </trkpt>
      <trkpt lat="41.640479" lon="-2.064271">
        <ele>1060.6</ele>
        <time>2023-02-11T11:58:14.000Z</time>
      </trkpt>
      <trkpt lat="41.640518" lon="-2.06437">
        <ele>1060.6</ele>
        <time>2023-02-11T11:58:15.000Z</time>
      </trkpt>
      <trkpt lat="41.640558" lon="-2.064466">
        <ele>1060.8</ele>
        <time>2023-02-11T11:58:16.000Z</time>
      </trkpt>
      <trkpt lat="41.640598" lon="-2.064562">
        <ele>1061</ele>
        <time>2023-02-11T11:58:17.000Z</time>
      </trkpt>
      <trkpt lat="41.640636" lon="-2.064659">
        <ele>1061</ele>
        <time>2023-02-11T11:58:18.000Z</time>
      </trkpt>
      <trkpt lat="41.640674" lon="-2.064757">
        <ele>1061.2</ele>
        <time>2023-02-11T11:58:19.000Z</time>
      </trkpt>
      <trkpt lat="41.640714" lon="-2.064855">
        <ele>1061.2</ele>
        <time>2023-02-11T11:58:20.000Z</time>
      </trkpt>
      <trkpt lat="41.640755" lon="-2.064953">
        <ele>1061.2</ele>
        <time>2023-02-11T11:58:21.000Z</time>
      </trkpt>
      <trkpt lat="41.640796" lon="-2.065052">
        <ele>1061.4</ele>
        <time>2023-02-11T11:58:22.000Z</time>
      </trkpt>
      <trkpt lat="41.640837" lon="-2.06515">
        <ele>1061.4</ele>
        <time>2023-02-11T11:58:23.000Z</time>
      </trkpt>
      <trkpt lat="41.640876" lon="-2.065249">
        <ele>1061.4</ele>
        <time>2023-02-11T11:58:24.000Z</time>
      </trkpt>
      <trkpt lat="41.640915" lon="-2.065347">
        <ele>1061.6</ele>
        <time>2023-02-11T11:58:25.000Z</time>
      </trkpt>
      <trkpt lat="41.640954" lon="-2.065447">
        <ele>1061.6</ele>
        <time>2023-02-11T11:58:26.000Z</time>
      </trkpt>
      <trkpt lat="41.640996" lon="-2.065547">
        <ele>1061.6</ele>
        <time>2023-02-11T11:58:27.000Z</time>
      </trkpt>
      <trkpt lat="41.641038" lon="-2.065645">
        <ele>1061.6</ele>
        <time>2023-02-11T11:58:28.000Z</time>
      </trkpt>
      <trkpt lat="41.64108" lon="-2.065742">
        <ele>1061.6</ele>
        <time>2023-02-11T11:58:29.000Z</time>
      </trkpt>
      <trkpt lat="41.64112" lon="-2.065842">
        <ele>1061.6</ele>
        <time>2023-02-11T11:58:30.000Z</time>
      </trkpt>
      <trkpt lat="41.641163" lon="-2.065941">
        <ele>1061.6</ele>
        <time>2023-02-11T11:58:31.000Z</time>
      </trkpt>
      <trkpt lat="41.641203" lon="-2.066043">
        <ele>1061.6</ele>
        <time>2023-02-11T11:58:32.000Z</time>
      </trkpt>
      <trkpt lat="41.641243" lon="-2.066144">
        <ele>1061.8</ele>
        <time>2023-02-11T11:58:33.000Z</time>
      </trkpt>
      <trkpt lat="41.641285" lon="-2.066245">
        <ele>1061.8</ele>
        <time>2023-02-11T11:58:34.000Z</time>
      </trkpt>
      <trkpt lat="41.641326" lon="-2.066345">
        <ele>1061.8</ele>
        <time>2023-02-11T11:58:35.000Z</time>
      </trkpt>
      <trkpt lat="41.641367" lon="-2.066448">
        <ele>1062</ele>
        <time>2023-02-11T11:58:36.000Z</time>
      </trkpt>
      <trkpt lat="41.641408" lon="-2.066551">
        <ele>1062</ele>
        <time>2023-02-11T11:58:37.000Z</time>
      </trkpt>
      <trkpt lat="41.641451" lon="-2.066653">
        <ele>1062</ele>
        <time>2023-02-11T11:58:38.000Z</time>
      </trkpt>
      <trkpt lat="41.641495" lon="-2.066758">
        <ele>1062.2</ele>
        <time>2023-02-11T11:58:39.000Z</time>
      </trkpt>
      <trkpt lat="41.641536" lon="-2.066864">
        <ele>1062.2</ele>
        <time>2023-02-11T11:58:40.000Z</time>
      </trkpt>
      <trkpt lat="41.641578" lon="-2.066966">
        <ele>1062.2</ele>
        <time>2023-02-11T11:58:41.000Z</time>
      </trkpt>
      <trkpt lat="41.641622" lon="-2.067069">
        <ele>1062.2</ele>
        <time>2023-02-11T11:58:42.000Z</time>
      </trkpt>
      <trkpt lat="41.641664" lon="-2.067173">
        <ele>1062.2</ele>
        <time>2023-02-11T11:58:43.000Z</time>
      </trkpt>
      <trkpt lat="41.641708" lon="-2.067278">
        <ele>1062.2</ele>
        <time>2023-02-11T11:58:44.000Z</time>
      </trkpt>
      <trkpt lat="41.641752" lon="-2.067385">
        <ele>1062.2</ele>
        <time>2023-02-11T11:58:45.000Z</time>
      </trkpt>
      <trkpt lat="41.641796" lon="-2.067493">
        <ele>1062.2</ele>
        <time>2023-02-11T11:58:46.000Z</time>
      </trkpt>
      <trkpt lat="41.641841" lon="-2.0676">
        <ele>1062.2</ele>
        <time>2023-02-11T11:58:47.000Z</time>
      </trkpt>
      <trkpt lat="41.641888" lon="-2.067708">
        <ele>1062.2</ele>
        <time>2023-02-11T11:58:48.000Z</time>
      </trkpt>
      <trkpt lat="41.641934" lon="-2.067817">
        <ele>1062</ele>
        <time>2023-02-11T11:58:49.000Z</time>
      </trkpt>
      <trkpt lat="41.641982" lon="-2.067928">
        <ele>1062</ele>
        <time>2023-02-11T11:58:50.000Z</time>
      </trkpt>
      <trkpt lat="41.642028" lon="-2.068041">
        <ele>1062</ele>
        <time>2023-02-11T11:58:51.000Z</time>
      </trkpt>
      <trkpt lat="41.642075" lon="-2.068155">
        <ele>1061.8</ele>
        <time>2023-02-11T11:58:52.000Z</time>
      </trkpt>
      <trkpt lat="41.642124" lon="-2.06827">
        <ele>1061.8</ele>
        <time>2023-02-11T11:58:53.000Z</time>
      </trkpt>
      <trkpt lat="41.64217" lon="-2.068387">
        <ele>1061.8</ele>
        <time>2023-02-11T11:58:54.000Z</time>
      </trkpt>
      <trkpt lat="41.642217" lon="-2.068503">
        <ele>1061.8</ele>
        <time>2023-02-11T11:58:55.000Z</time>
      </trkpt>
      <trkpt lat="41.642261" lon="-2.068617">
        <ele>1061.8</ele>
        <time>2023-02-11T11:58:56.000Z</time>
      </trkpt>
      <trkpt lat="41.642308" lon="-2.068733">
        <ele>1061.8</ele>
        <time>2023-02-11T11:58:57.000Z</time>
      </trkpt>
      <trkpt lat="41.642355" lon="-2.068848">
        <ele>1061.8</ele>
        <time>2023-02-11T11:58:58.000Z</time>
      </trkpt>
      <trkpt lat="41.642399" lon="-2.068961">
        <ele>1061.8</ele>
        <time>2023-02-11T11:58:59.000Z</time>
      </trkpt>
      <trkpt lat="41.642443" lon="-2.069072">
        <ele>1061.6</ele>
        <time>2023-02-11T11:59:00.000Z</time>
      </trkpt>
      <trkpt lat="41.64249" lon="-2.069185">
        <ele>1061.6</ele>
        <time>2023-02-11T11:59:01.000Z</time>
      </trkpt>
      <trkpt lat="41.642536" lon="-2.069299">
        <ele>1061.6</ele>
        <time>2023-02-11T11:59:02.000Z</time>
      </trkpt>
      <trkpt lat="41.642581" lon="-2.069408">
        <ele>1061.4</ele>
        <time>2023-02-11T11:59:03.000Z</time>
      </trkpt>
      <trkpt lat="41.642625" lon="-2.069521">
        <ele>1061.4</ele>
        <time>2023-02-11T11:59:04.000Z</time>
      </trkpt>
      <trkpt lat="41.64267" lon="-2.069632">
        <ele>1061.2</ele>
        <time>2023-02-11T11:59:05.000Z</time>
      </trkpt>
      <trkpt lat="41.642717" lon="-2.069744">
        <ele>1061.2</ele>
        <time>2023-02-11T11:59:06.000Z</time>
      </trkpt>
      <trkpt lat="41.642765" lon="-2.069856">
        <ele>1060.8</ele>
        <time>2023-02-11T11:59:07.000Z</time>
      </trkpt>
      <trkpt lat="41.642811" lon="-2.069969">
        <ele>1060.6</ele>
        <time>2023-02-11T11:59:08.000Z</time>
      </trkpt>
      <trkpt lat="41.642859" lon="-2.070081">
        <ele>1060.6</ele>
        <time>2023-02-11T11:59:09.000Z</time>
      </trkpt>
      <trkpt lat="41.642907" lon="-2.070192">
        <ele>1060.4</ele>
        <time>2023-02-11T11:59:10.000Z</time>
      </trkpt>
      <trkpt lat="41.642954" lon="-2.070306">
        <ele>1060.2</ele>
        <time>2023-02-11T11:59:11.000Z</time>
      </trkpt>
      <trkpt lat="41.643003" lon="-2.070419">
        <ele>1060.2</ele>
        <time>2023-02-11T11:59:12.000Z</time>
      </trkpt>
      <trkpt lat="41.64305" lon="-2.070534">
        <ele>1060</ele>
        <time>2023-02-11T11:59:13.000Z</time>
      </trkpt>
      <trkpt lat="41.643095" lon="-2.070649">
        <ele>1060</ele>
        <time>2023-02-11T11:59:14.000Z</time>
      </trkpt>
      <trkpt lat="41.643142" lon="-2.070764">
        <ele>1059.8</ele>
        <time>2023-02-11T11:59:15.000Z</time>
      </trkpt>
      <trkpt lat="41.643188" lon="-2.070878">
        <ele>1059.8</ele>
        <time>2023-02-11T11:59:16.000Z</time>
      </trkpt>
      <trkpt lat="41.643234" lon="-2.070993">
        <ele>1059.8</ele>
        <time>2023-02-11T11:59:17.000Z</time>
      </trkpt>
      <trkpt lat="41.643281" lon="-2.071109">
        <ele>1059.8</ele>
        <time>2023-02-11T11:59:18.000Z</time>
      </trkpt>
      <trkpt lat="41.643327" lon="-2.071224">
        <ele>1059.6</ele>
        <time>2023-02-11T11:59:19.000Z</time>
      </trkpt>
      <trkpt lat="41.643376" lon="-2.071337">
        <ele>1059.2</ele>
        <time>2023-02-11T11:59:20.000Z</time>
      </trkpt>
      <trkpt lat="41.643424" lon="-2.071453">
        <ele>1059</ele>
        <time>2023-02-11T11:59:21.000Z</time>
      </trkpt>
      <trkpt lat="41.643475" lon="-2.071569">
        <ele>1059</ele>
        <time>2023-02-11T11:59:22.000Z</time>
      </trkpt>
      <trkpt lat="41.643526" lon="-2.071686">
        <ele>1058.8</ele>
        <time>2023-02-11T11:59:23.000Z</time>
      </trkpt>
      <trkpt lat="41.643575" lon="-2.071804">
        <ele>1058.8</ele>
        <time>2023-02-11T11:59:24.000Z</time>
      </trkpt>
      <trkpt lat="41.643623" lon="-2.07192">
        <ele>1058.6</ele>
        <time>2023-02-11T11:59:25.000Z</time>
      </trkpt>
      <trkpt lat="41.643671" lon="-2.072035">
        <ele>1058.6</ele>
        <time>2023-02-11T11:59:26.000Z</time>
      </trkpt>
      <trkpt lat="41.643718" lon="-2.072152">
        <ele>1058.4</ele>
        <time>2023-02-11T11:59:27.000Z</time>
      </trkpt>
      <trkpt lat="41.643765" lon="-2.07227">
        <ele>1058.4</ele>
        <time>2023-02-11T11:59:28.000Z</time>
      </trkpt>
      <trkpt lat="41.643812" lon="-2.072385">
        <ele>1058.2</ele>
        <time>2023-02-11T11:59:29.000Z</time>
      </trkpt>
      <trkpt lat="41.643859" lon="-2.072502">
        <ele>1058</ele>
        <time>2023-02-11T11:59:30.000Z</time>
      </trkpt>
      <trkpt lat="41.643906" lon="-2.072619">
        <ele>1058</ele>
        <time>2023-02-11T11:59:31.000Z</time>
      </trkpt>
      <trkpt lat="41.643954" lon="-2.072733">
        <ele>1057.8</ele>
        <time>2023-02-11T11:59:32.000Z</time>
      </trkpt>
      <trkpt lat="41.644002" lon="-2.072847">
        <ele>1057.8</ele>
        <time>2023-02-11T11:59:33.000Z</time>
      </trkpt>
      <trkpt lat="41.644047" lon="-2.072962">
        <ele>1057.6</ele>
        <time>2023-02-11T11:59:34.000Z</time>
      </trkpt>
      <trkpt lat="41.644094" lon="-2.073078">
        <ele>1057.6</ele>
        <time>2023-02-11T11:59:35.000Z</time>
      </trkpt>
      <trkpt lat="41.644139" lon="-2.073195">
        <ele>1057.6</ele>
        <time>2023-02-11T11:59:36.000Z</time>
      </trkpt>
      <trkpt lat="41.644183" lon="-2.073312">
        <ele>1057.4</ele>
        <time>2023-02-11T11:59:37.000Z</time>
      </trkpt>
      <trkpt lat="41.644231" lon="-2.073427">
        <ele>1057</ele>
        <time>2023-02-11T11:59:38.000Z</time>
      </trkpt>
      <trkpt lat="41.644278" lon="-2.073541">
        <ele>1056.8</ele>
        <time>2023-02-11T11:59:39.000Z</time>
      </trkpt>
      <trkpt lat="41.644328" lon="-2.073651">
        <ele>1056.8</ele>
        <time>2023-02-11T11:59:40.000Z</time>
      </trkpt>
      <trkpt lat="41.644376" lon="-2.073765">
        <ele>1056.4</ele>
        <time>2023-02-11T11:59:41.000Z</time>
      </trkpt>
      <trkpt lat="41.644424" lon="-2.073876">
        <ele>1056.4</ele>
        <time>2023-02-11T11:59:42.000Z</time>
      </trkpt>
      <trkpt lat="41.644471" lon="-2.073989">
        <ele>1056.2</ele>
        <time>2023-02-11T11:59:43.000Z</time>
      </trkpt>
      <trkpt lat="41.644517" lon="-2.074103">
        <ele>1056.2</ele>
        <time>2023-02-11T11:59:44.000Z</time>
      </trkpt>
      <trkpt lat="41.644562" lon="-2.074216">
        <ele>1056</ele>
        <time>2023-02-11T11:59:45.000Z</time>
      </trkpt>
      <trkpt lat="41.644609" lon="-2.07433">
        <ele>1056</ele>
        <time>2023-02-11T11:59:46.000Z</time>
      </trkpt>
      <trkpt lat="41.644654" lon="-2.074444">
        <ele>1055.8</ele>
        <time>2023-02-11T11:59:47.000Z</time>
      </trkpt>
      <trkpt lat="41.644699" lon="-2.074558">
        <ele>1055.8</ele>
        <time>2023-02-11T11:59:48.000Z</time>
      </trkpt>
      <trkpt lat="41.644744" lon="-2.07467">
        <ele>1055.8</ele>
        <time>2023-02-11T11:59:49.000Z</time>
      </trkpt>
      <trkpt lat="41.64479" lon="-2.074784">
        <ele>1055.6</ele>
        <time>2023-02-11T11:59:50.000Z</time>
      </trkpt>
      <trkpt lat="41.644835" lon="-2.074898">
        <ele>1055.6</ele>
        <time>2023-02-11T11:59:51.000Z</time>
      </trkpt>
      <trkpt lat="41.644883" lon="-2.075012">
        <ele>1055.6</ele>
        <time>2023-02-11T11:59:52.000Z</time>
      </trkpt>
      <trkpt lat="41.644931" lon="-2.075126">
        <ele>1055.6</ele>
        <time>2023-02-11T11:59:53.000Z</time>
      </trkpt>
      <trkpt lat="41.644967" lon="-2.075215">
        <ele>1055.6</ele>
        <time>2023-02-11T11:59:54.000Z</time>
      </trkpt>
      <trkpt lat="41.645003" lon="-2.075304">
        <ele>1055.6</ele>
        <time>2023-02-11T11:59:55.000Z</time>
      </trkpt>
      <trkpt lat="41.645074" lon="-2.075481">
        <ele>1055.6</ele>
        <time>2023-02-11T11:59:56.000Z</time>
      </trkpt>
      <trkpt lat="41.645126" lon="-2.0756">
        <ele>1055.4</ele>
        <time>2023-02-11T11:59:57.000Z</time>
      </trkpt>
      <trkpt lat="41.645179" lon="-2.075716">
        <ele>1055.2</ele>
        <time>2023-02-11T11:59:58.000Z</time>
      </trkpt>
      <trkpt lat="41.645231" lon="-2.075835">
        <ele>1055</ele>
        <time>2023-02-11T11:59:59.000Z</time>
      </trkpt>
      <trkpt lat="41.645281" lon="-2.075958">
        <ele>1054.8</ele>
        <time>2023-02-11T12:00:00.000Z</time>
      </trkpt>
      <trkpt lat="41.64533" lon="-2.076086">
        <ele>1054.6</ele>
        <time>2023-02-11T12:00:01.000Z</time>
      </trkpt>
      <trkpt lat="41.645382" lon="-2.076212">
        <ele>1054.4</ele>
        <time>2023-02-11T12:00:02.000Z</time>
      </trkpt>
      <trkpt lat="41.645436" lon="-2.076341">
        <ele>1054.2</ele>
        <time>2023-02-11T12:00:03.000Z</time>
      </trkpt>
      <trkpt lat="41.645489" lon="-2.076468">
        <ele>1054</ele>
        <time>2023-02-11T12:00:04.000Z</time>
      </trkpt>
      <trkpt lat="41.645529" lon="-2.076562">
        <ele>1053.6</ele>
        <time>2023-02-11T12:00:05.000Z</time>
      </trkpt>
      <trkpt lat="41.64557" lon="-2.076656">
        <ele>1053.4</ele>
        <time>2023-02-11T12:00:06.000Z</time>
      </trkpt>
      <trkpt lat="41.645651" lon="-2.076845">
        <ele>1053.2</ele>
        <time>2023-02-11T12:00:07.000Z</time>
      </trkpt>
      <trkpt lat="41.645705" lon="-2.076975">
        <ele>1053.2</ele>
        <time>2023-02-11T12:00:08.000Z</time>
      </trkpt>
      <trkpt lat="41.645758" lon="-2.077108">
        <ele>1052.8</ele>
        <time>2023-02-11T12:00:09.000Z</time>
      </trkpt>
      <trkpt lat="41.645812" lon="-2.077242">
        <ele>1052.6</ele>
        <time>2023-02-11T12:00:10.000Z</time>
      </trkpt>
      <trkpt lat="41.645865" lon="-2.077375">
        <ele>1052.6</ele>
        <time>2023-02-11T12:00:11.000Z</time>
      </trkpt>
      <trkpt lat="41.645917" lon="-2.077503">
        <ele>1052.4</ele>
        <time>2023-02-11T12:00:12.000Z</time>
      </trkpt>
      <trkpt lat="41.64597" lon="-2.077628">
        <ele>1052.2</ele>
        <time>2023-02-11T12:00:13.000Z</time>
      </trkpt>
      <trkpt lat="41.646023" lon="-2.077751">
        <ele>1052</ele>
        <time>2023-02-11T12:00:14.000Z</time>
      </trkpt>
      <trkpt lat="41.646074" lon="-2.077876">
        <ele>1052</ele>
        <time>2023-02-11T12:00:15.000Z</time>
      </trkpt>
      <trkpt lat="41.646126" lon="-2.077999">
        <ele>1051.8</ele>
        <time>2023-02-11T12:00:16.000Z</time>
      </trkpt>
      <trkpt lat="41.646177" lon="-2.078122">
        <ele>1051.8</ele>
        <time>2023-02-11T12:00:17.000Z</time>
      </trkpt>
      <trkpt lat="41.646227" lon="-2.078247">
        <ele>1051.8</ele>
        <time>2023-02-11T12:00:18.000Z</time>
      </trkpt>
      <trkpt lat="41.646276" lon="-2.078374">
        <ele>1051.6</ele>
        <time>2023-02-11T12:00:19.000Z</time>
      </trkpt>
      <trkpt lat="41.646314" lon="-2.078469">
        <ele>1051.4</ele>
        <time>2023-02-11T12:00:20.000Z</time>
      </trkpt>
      <trkpt lat="41.646351" lon="-2.078565">
        <ele>1051.2</ele>
        <time>2023-02-11T12:00:21.000Z</time>
      </trkpt>
      <trkpt lat="41.646427" lon="-2.078755">
        <ele>1051.2</ele>
        <time>2023-02-11T12:00:22.000Z</time>
      </trkpt>
      <trkpt lat="41.646474" lon="-2.078883">
        <ele>1051</ele>
        <time>2023-02-11T12:00:23.000Z</time>
      </trkpt>
      <trkpt lat="41.646523" lon="-2.079007">
        <ele>1051</ele>
        <time>2023-02-11T12:00:24.000Z</time>
      </trkpt>
      <trkpt lat="41.646574" lon="-2.07913">
        <ele>1051</ele>
        <time>2023-02-11T12:00:25.000Z</time>
      </trkpt>
      <trkpt lat="41.646622" lon="-2.07925">
        <ele>1051</ele>
        <time>2023-02-11T12:00:26.000Z</time>
      </trkpt>
      <trkpt lat="41.646667" lon="-2.079371">
        <ele>1051</ele>
        <time>2023-02-11T12:00:27.000Z</time>
      </trkpt>
      <trkpt lat="41.64672" lon="-2.07949">
        <ele>1051</ele>
        <time>2023-02-11T12:00:28.000Z</time>
      </trkpt>
      <trkpt lat="41.646773" lon="-2.079613">
        <ele>1051</ele>
        <time>2023-02-11T12:00:29.000Z</time>
      </trkpt>
      <trkpt lat="41.646826" lon="-2.079735">
        <ele>1051</ele>
        <time>2023-02-11T12:00:30.000Z</time>
      </trkpt>
      <trkpt lat="41.646878" lon="-2.07986">
        <ele>1050.8</ele>
        <time>2023-02-11T12:00:31.000Z</time>
      </trkpt>
      <trkpt lat="41.646929" lon="-2.079987">
        <ele>1050.8</ele>
        <time>2023-02-11T12:00:32.000Z</time>
      </trkpt>
      <trkpt lat="41.64698" lon="-2.080112">
        <ele>1050.8</ele>
        <time>2023-02-11T12:00:33.000Z</time>
      </trkpt>
      <trkpt lat="41.647032" lon="-2.080236">
        <ele>1050.6</ele>
        <time>2023-02-11T12:00:34.000Z</time>
      </trkpt>
      <trkpt lat="41.647081" lon="-2.080362">
        <ele>1050.6</ele>
        <time>2023-02-11T12:00:35.000Z</time>
      </trkpt>
      <trkpt lat="41.647132" lon="-2.080486">
        <ele>1050.4</ele>
        <time>2023-02-11T12:00:36.000Z</time>
      </trkpt>
      <trkpt lat="41.647183" lon="-2.08061">
        <ele>1050.2</ele>
        <time>2023-02-11T12:00:37.000Z</time>
      </trkpt>
      <trkpt lat="41.647234" lon="-2.080731">
        <ele>1050.2</ele>
        <time>2023-02-11T12:00:38.000Z</time>
      </trkpt>
      <trkpt lat="41.647283" lon="-2.080853">
        <ele>1050</ele>
        <time>2023-02-11T12:00:39.000Z</time>
      </trkpt>
      <trkpt lat="41.647332" lon="-2.080976">
        <ele>1050</ele>
        <time>2023-02-11T12:00:40.000Z</time>
      </trkpt>
      <trkpt lat="41.647381" lon="-2.081097">
        <ele>1049.8</ele>
        <time>2023-02-11T12:00:41.000Z</time>
      </trkpt>
      <trkpt lat="41.64743" lon="-2.081217">
        <ele>1049.8</ele>
        <time>2023-02-11T12:00:42.000Z</time>
      </trkpt>
      <trkpt lat="41.647478" lon="-2.081337">
        <ele>1049.6</ele>
        <time>2023-02-11T12:00:43.000Z</time>
      </trkpt>
      <trkpt lat="41.647525" lon="-2.081455">
        <ele>1049.6</ele>
        <time>2023-02-11T12:00:44.000Z</time>
      </trkpt>
      <trkpt lat="41.647572" lon="-2.081574">
        <ele>1049.4</ele>
        <time>2023-02-11T12:00:45.000Z</time>
      </trkpt>
      <trkpt lat="41.647621" lon="-2.081691">
        <ele>1049.4</ele>
        <time>2023-02-11T12:00:46.000Z</time>
      </trkpt>
      <trkpt lat="41.64767" lon="-2.08181">
        <ele>1049.4</ele>
        <time>2023-02-11T12:00:47.000Z</time>
      </trkpt>
      <trkpt lat="41.647719" lon="-2.081928">
        <ele>1049.4</ele>
        <time>2023-02-11T12:00:48.000Z</time>
      </trkpt>
      <trkpt lat="41.647768" lon="-2.082045">
        <ele>1049.4</ele>
        <time>2023-02-11T12:00:49.000Z</time>
      </trkpt>
      <trkpt lat="41.647818" lon="-2.082158">
        <ele>1049.2</ele>
        <time>2023-02-11T12:00:50.000Z</time>
      </trkpt>
      <trkpt lat="41.647868" lon="-2.082276">
        <ele>1049.2</ele>
        <time>2023-02-11T12:00:51.000Z</time>
      </trkpt>
      <trkpt lat="41.647917" lon="-2.082394">
        <ele>1049.2</ele>
        <time>2023-02-11T12:00:52.000Z</time>
      </trkpt>
      <trkpt lat="41.647966" lon="-2.082514">
        <ele>1049</ele>
        <time>2023-02-11T12:00:53.000Z</time>
      </trkpt>
      <trkpt lat="41.648014" lon="-2.082635">
        <ele>1049</ele>
        <time>2023-02-11T12:00:54.000Z</time>
      </trkpt>
      <trkpt lat="41.648064" lon="-2.082752">
        <ele>1049</ele>
        <time>2023-02-11T12:00:55.000Z</time>
      </trkpt>
      <trkpt lat="41.648113" lon="-2.08287">
        <ele>1048.8</ele>
        <time>2023-02-11T12:00:56.000Z</time>
      </trkpt>
      <trkpt lat="41.648162" lon="-2.082988">
        <ele>1048.8</ele>
        <time>2023-02-11T12:00:57.000Z</time>
      </trkpt>
      <trkpt lat="41.648208" lon="-2.083105">
        <ele>1048.8</ele>
        <time>2023-02-11T12:00:58.000Z</time>
      </trkpt>
      <trkpt lat="41.648254" lon="-2.083225">
        <ele>1048.6</ele>
        <time>2023-02-11T12:00:59.000Z</time>
      </trkpt>
      <trkpt lat="41.648303" lon="-2.083348">
        <ele>1048.6</ele>
        <time>2023-02-11T12:01:00.000Z</time>
      </trkpt>
      <trkpt lat="41.648354" lon="-2.083469">
        <ele>1048.6</ele>
        <time>2023-02-11T12:01:01.000Z</time>
      </trkpt>
      <trkpt lat="41.648405" lon="-2.083589">
        <ele>1048.6</ele>
        <time>2023-02-11T12:01:02.000Z</time>
      </trkpt>
      <trkpt lat="41.648456" lon="-2.083711">
        <ele>1048.4</ele>
        <time>2023-02-11T12:01:03.000Z</time>
      </trkpt>
      <trkpt lat="41.648504" lon="-2.083832">
        <ele>1048.4</ele>
        <time>2023-02-11T12:01:04.000Z</time>
      </trkpt>
      <trkpt lat="41.648552" lon="-2.083954">
        <ele>1048.4</ele>
        <time>2023-02-11T12:01:05.000Z</time>
      </trkpt>
      <trkpt lat="41.6486" lon="-2.084075">
        <ele>1048.2</ele>
        <time>2023-02-11T12:01:06.000Z</time>
      </trkpt>
      <trkpt lat="41.64865" lon="-2.084195">
        <ele>1048.2</ele>
        <time>2023-02-11T12:01:07.000Z</time>
      </trkpt>
      <trkpt lat="41.648701" lon="-2.084312">
        <ele>1048.2</ele>
        <time>2023-02-11T12:01:08.000Z</time>
      </trkpt>
      <trkpt lat="41.648752" lon="-2.084429">
        <ele>1048.2</ele>
        <time>2023-02-11T12:01:09.000Z</time>
      </trkpt>
      <trkpt lat="41.648801" lon="-2.084545">
        <ele>1048.2</ele>
        <time>2023-02-11T12:01:10.000Z</time>
      </trkpt>
      <trkpt lat="41.648851" lon="-2.08466">
        <ele>1048.2</ele>
        <time>2023-02-11T12:01:11.000Z</time>
      </trkpt>
      <trkpt lat="41.648901" lon="-2.084777">
        <ele>1048.2</ele>
        <time>2023-02-11T12:01:12.000Z</time>
      </trkpt>
      <trkpt lat="41.648948" lon="-2.084894">
        <ele>1048</ele>
        <time>2023-02-11T12:01:13.000Z</time>
      </trkpt>
      <trkpt lat="41.648996" lon="-2.08501">
        <ele>1047.8</ele>
        <time>2023-02-11T12:01:14.000Z</time>
      </trkpt>
      <trkpt lat="41.649042" lon="-2.085128">
        <ele>1047.8</ele>
        <time>2023-02-11T12:01:15.000Z</time>
      </trkpt>
      <trkpt lat="41.649089" lon="-2.085247">
        <ele>1047.6</ele>
        <time>2023-02-11T12:01:16.000Z</time>
      </trkpt>
      <trkpt lat="41.649126" lon="-2.085337">
        <ele>1047.6</ele>
        <time>2023-02-11T12:01:17.000Z</time>
      </trkpt>
      <trkpt lat="41.649163" lon="-2.085427">
        <ele>1047.4</ele>
        <time>2023-02-11T12:01:18.000Z</time>
      </trkpt>
      <trkpt lat="41.649237" lon="-2.085606">
        <ele>1047.4</ele>
        <time>2023-02-11T12:01:19.000Z</time>
      </trkpt>
      <trkpt lat="41.649285" lon="-2.085727">
        <ele>1047.4</ele>
        <time>2023-02-11T12:01:20.000Z</time>
      </trkpt>
      <trkpt lat="41.649334" lon="-2.085848">
        <ele>1047.2</ele>
        <time>2023-02-11T12:01:21.000Z</time>
      </trkpt>
      <trkpt lat="41.649384" lon="-2.085969">
        <ele>1047.2</ele>
        <time>2023-02-11T12:01:22.000Z</time>
      </trkpt>
      <trkpt lat="41.649434" lon="-2.086089">
        <ele>1047</ele>
        <time>2023-02-11T12:01:23.000Z</time>
      </trkpt>
      <trkpt lat="41.649486" lon="-2.086206">
        <ele>1047</ele>
        <time>2023-02-11T12:01:24.000Z</time>
      </trkpt>
      <trkpt lat="41.649539" lon="-2.086327">
        <ele>1046.6</ele>
        <time>2023-02-11T12:01:25.000Z</time>
      </trkpt>
      <trkpt lat="41.64959" lon="-2.086452">
        <ele>1046.4</ele>
        <time>2023-02-11T12:01:26.000Z</time>
      </trkpt>
      <trkpt lat="41.649643" lon="-2.086576">
        <ele>1046.2</ele>
        <time>2023-02-11T12:01:27.000Z</time>
      </trkpt>
      <trkpt lat="41.649696" lon="-2.086696">
        <ele>1046</ele>
        <time>2023-02-11T12:01:28.000Z</time>
      </trkpt>
      <trkpt lat="41.649747" lon="-2.086816">
        <ele>1046</ele>
        <time>2023-02-11T12:01:29.000Z</time>
      </trkpt>
      <trkpt lat="41.649796" lon="-2.086938">
        <ele>1046</ele>
        <time>2023-02-11T12:01:30.000Z</time>
      </trkpt>
      <trkpt lat="41.649843" lon="-2.087063">
        <ele>1046</ele>
        <time>2023-02-11T12:01:31.000Z</time>
      </trkpt>
      <trkpt lat="41.649894" lon="-2.087186">
        <ele>1045.8</ele>
        <time>2023-02-11T12:01:32.000Z</time>
      </trkpt>
      <trkpt lat="41.649945" lon="-2.08731">
        <ele>1045.8</ele>
        <time>2023-02-11T12:01:33.000Z</time>
      </trkpt>
      <trkpt lat="41.649995" lon="-2.087434">
        <ele>1045.8</ele>
        <time>2023-02-11T12:01:34.000Z</time>
      </trkpt>
      <trkpt lat="41.650044" lon="-2.087557">
        <ele>1045.8</ele>
        <time>2023-02-11T12:01:35.000Z</time>
      </trkpt>
      <trkpt lat="41.650093" lon="-2.087679">
        <ele>1045.8</ele>
        <time>2023-02-11T12:01:36.000Z</time>
      </trkpt>
      <trkpt lat="41.650144" lon="-2.087802">
        <ele>1045.8</ele>
        <time>2023-02-11T12:01:37.000Z</time>
      </trkpt>
      <trkpt lat="41.650195" lon="-2.087923">
        <ele>1045.8</ele>
        <time>2023-02-11T12:01:38.000Z</time>
      </trkpt>
      <trkpt lat="41.650246" lon="-2.088044">
        <ele>1045.6</ele>
        <time>2023-02-11T12:01:39.000Z</time>
      </trkpt>
      <trkpt lat="41.650295" lon="-2.088166">
        <ele>1045.6</ele>
        <time>2023-02-11T12:01:40.000Z</time>
      </trkpt>
      <trkpt lat="41.650344" lon="-2.088288">
        <ele>1045.6</ele>
        <time>2023-02-11T12:01:41.000Z</time>
      </trkpt>
      <trkpt lat="41.650395" lon="-2.088409">
        <ele>1045.4</ele>
        <time>2023-02-11T12:01:42.000Z</time>
      </trkpt>
      <trkpt lat="41.650443" lon="-2.088534">
        <ele>1045.4</ele>
        <time>2023-02-11T12:01:43.000Z</time>
      </trkpt>
      <trkpt lat="41.650493" lon="-2.088657">
        <ele>1045.2</ele>
        <time>2023-02-11T12:01:44.000Z</time>
      </trkpt>
      <trkpt lat="41.650542" lon="-2.088781">
        <ele>1045.2</ele>
        <time>2023-02-11T12:01:45.000Z</time>
      </trkpt>
      <trkpt lat="41.65059" lon="-2.088905">
        <ele>1045.2</ele>
        <time>2023-02-11T12:01:46.000Z</time>
      </trkpt>
      <trkpt lat="41.650642" lon="-2.089028">
        <ele>1045</ele>
        <time>2023-02-11T12:01:47.000Z</time>
      </trkpt>
      <trkpt lat="41.650692" lon="-2.08915">
        <ele>1045</ele>
        <time>2023-02-11T12:01:48.000Z</time>
      </trkpt>
      <trkpt lat="41.65074" lon="-2.089273">
        <ele>1044.8</ele>
        <time>2023-02-11T12:01:49.000Z</time>
      </trkpt>
      <trkpt lat="41.650789" lon="-2.089396">
        <ele>1044.8</ele>
        <time>2023-02-11T12:01:50.000Z</time>
      </trkpt>
      <trkpt lat="41.650837" lon="-2.089523">
        <ele>1044.8</ele>
        <time>2023-02-11T12:01:51.000Z</time>
      </trkpt>
      <trkpt lat="41.650888" lon="-2.089648">
        <ele>1044.8</ele>
        <time>2023-02-11T12:01:52.000Z</time>
      </trkpt>
      <trkpt lat="41.650938" lon="-2.089773">
        <ele>1044.8</ele>
        <time>2023-02-11T12:01:53.000Z</time>
      </trkpt>
      <trkpt lat="41.650989" lon="-2.089898">
        <ele>1044.6</ele>
        <time>2023-02-11T12:01:54.000Z</time>
      </trkpt>
      <trkpt lat="41.651042" lon="-2.090022">
        <ele>1044.4</ele>
        <time>2023-02-11T12:01:55.000Z</time>
      </trkpt>
      <trkpt lat="41.651095" lon="-2.090146">
        <ele>1044.2</ele>
        <time>2023-02-11T12:01:56.000Z</time>
      </trkpt>
      <trkpt lat="41.651146" lon="-2.090273">
        <ele>1044</ele>
        <time>2023-02-11T12:01:57.000Z</time>
      </trkpt>
      <trkpt lat="41.651201" lon="-2.090397">
        <ele>1043.8</ele>
        <time>2023-02-11T12:01:58.000Z</time>
      </trkpt>
      <trkpt lat="41.651253" lon="-2.090525">
        <ele>1043.6</ele>
        <time>2023-02-11T12:01:59.000Z</time>
      </trkpt>
      <trkpt lat="41.651304" lon="-2.090653">
        <ele>1043.4</ele>
        <time>2023-02-11T12:02:00.000Z</time>
      </trkpt>
      <trkpt lat="41.651355" lon="-2.090781">
        <ele>1043.4</ele>
        <time>2023-02-11T12:02:01.000Z</time>
      </trkpt>
      <trkpt lat="41.651407" lon="-2.090906">
        <ele>1043.2</ele>
        <time>2023-02-11T12:02:02.000Z</time>
      </trkpt>
      <trkpt lat="41.65146" lon="-2.091028">
        <ele>1043.2</ele>
        <time>2023-02-11T12:02:03.000Z</time>
      </trkpt>
      <trkpt lat="41.651512" lon="-2.091152">
        <ele>1043</ele>
        <time>2023-02-11T12:02:04.000Z</time>
      </trkpt>
      <trkpt lat="41.651563" lon="-2.091275">
        <ele>1043</ele>
        <time>2023-02-11T12:02:05.000Z</time>
      </trkpt>
      <trkpt lat="41.651615" lon="-2.091396">
        <ele>1042.8</ele>
        <time>2023-02-11T12:02:06.000Z</time>
      </trkpt>
      <trkpt lat="41.651665" lon="-2.091519">
        <ele>1042.8</ele>
        <time>2023-02-11T12:02:07.000Z</time>
      </trkpt>
      <trkpt lat="41.651717" lon="-2.09164">
        <ele>1042.6</ele>
        <time>2023-02-11T12:02:08.000Z</time>
      </trkpt>
      <trkpt lat="41.651766" lon="-2.091763">
        <ele>1042.6</ele>
        <time>2023-02-11T12:02:09.000Z</time>
      </trkpt>
      <trkpt lat="41.651817" lon="-2.091884">
        <ele>1042.4</ele>
        <time>2023-02-11T12:02:10.000Z</time>
      </trkpt>
      <trkpt lat="41.651871" lon="-2.092006">
        <ele>1042.4</ele>
        <time>2023-02-11T12:02:11.000Z</time>
      </trkpt>
      <trkpt lat="41.651923" lon="-2.092129">
        <ele>1042.2</ele>
        <time>2023-02-11T12:02:12.000Z</time>
      </trkpt>
      <trkpt lat="41.651973" lon="-2.092252">
        <ele>1042.2</ele>
        <time>2023-02-11T12:02:13.000Z</time>
      </trkpt>
      <trkpt lat="41.652025" lon="-2.092376">
        <ele>1042</ele>
        <time>2023-02-11T12:02:14.000Z</time>
      </trkpt>
      <trkpt lat="41.652081" lon="-2.092497">
        <ele>1042</ele>
        <time>2023-02-11T12:02:15.000Z</time>
      </trkpt>
      <trkpt lat="41.65214" lon="-2.092617">
        <ele>1042</ele>
        <time>2023-02-11T12:02:16.000Z</time>
      </trkpt>
      <trkpt lat="41.652202" lon="-2.092734">
        <ele>1042</ele>
        <time>2023-02-11T12:02:17.000Z</time>
      </trkpt>
      <trkpt lat="41.652268" lon="-2.092847">
        <ele>1042</ele>
        <time>2023-02-11T12:02:18.000Z</time>
      </trkpt>
      <trkpt lat="41.652334" lon="-2.092961">
        <ele>1041.8</ele>
        <time>2023-02-11T12:02:19.000Z</time>
      </trkpt>
      <trkpt lat="41.652402" lon="-2.093073">
        <ele>1041.8</ele>
        <time>2023-02-11T12:02:20.000Z</time>
      </trkpt>
      <trkpt lat="41.652469" lon="-2.093184">
        <ele>1041.8</ele>
        <time>2023-02-11T12:02:21.000Z</time>
      </trkpt>
      <trkpt lat="41.652539" lon="-2.09329">
        <ele>1041.8</ele>
        <time>2023-02-11T12:02:22.000Z</time>
      </trkpt>
      <trkpt lat="41.652613" lon="-2.093393">
        <ele>1041.8</ele>
        <time>2023-02-11T12:02:23.000Z</time>
      </trkpt>
      <trkpt lat="41.652689" lon="-2.093493">
        <ele>1041.8</ele>
        <time>2023-02-11T12:02:24.000Z</time>
      </trkpt>
      <trkpt lat="41.652766" lon="-2.093595">
        <ele>1041.8</ele>
        <time>2023-02-11T12:02:25.000Z</time>
      </trkpt>
      <trkpt lat="41.652846" lon="-2.09369">
        <ele>1041.8</ele>
        <time>2023-02-11T12:02:26.000Z</time>
      </trkpt>
      <trkpt lat="41.652928" lon="-2.093783">
        <ele>1041.6</ele>
        <time>2023-02-11T12:02:27.000Z</time>
      </trkpt>
      <trkpt lat="41.653014" lon="-2.093871">
        <ele>1041.6</ele>
        <time>2023-02-11T12:02:28.000Z</time>
      </trkpt>
      <trkpt lat="41.653101" lon="-2.093957">
        <ele>1041.6</ele>
        <time>2023-02-11T12:02:29.000Z</time>
      </trkpt>
      <trkpt lat="41.653189" lon="-2.094043">
        <ele>1041.6</ele>
        <time>2023-02-11T12:02:30.000Z</time>
      </trkpt>
      <trkpt lat="41.653276" lon="-2.094128">
        <ele>1041.6</ele>
        <time>2023-02-11T12:02:31.000Z</time>
      </trkpt>
      <trkpt lat="41.653362" lon="-2.094214">
        <ele>1041.4</ele>
        <time>2023-02-11T12:02:32.000Z</time>
      </trkpt>
      <trkpt lat="41.653449" lon="-2.094301">
        <ele>1041.4</ele>
        <time>2023-02-11T12:02:33.000Z</time>
      </trkpt>
      <trkpt lat="41.653537" lon="-2.094388">
        <ele>1041.4</ele>
        <time>2023-02-11T12:02:34.000Z</time>
      </trkpt>
      <trkpt lat="41.653629" lon="-2.094469">
        <ele>1041.2</ele>
        <time>2023-02-11T12:02:35.000Z</time>
      </trkpt>
      <trkpt lat="41.653719" lon="-2.094553">
        <ele>1041.2</ele>
        <time>2023-02-11T12:02:36.000Z</time>
      </trkpt>
      <trkpt lat="41.653808" lon="-2.094637">
        <ele>1041.2</ele>
        <time>2023-02-11T12:02:37.000Z</time>
      </trkpt>
      <trkpt lat="41.653896" lon="-2.094721">
        <ele>1041.2</ele>
        <time>2023-02-11T12:02:38.000Z</time>
      </trkpt>
      <trkpt lat="41.653986" lon="-2.094802">
        <ele>1041</ele>
        <time>2023-02-11T12:02:39.000Z</time>
      </trkpt>
      <trkpt lat="41.654073" lon="-2.094882">
        <ele>1041</ele>
        <time>2023-02-11T12:02:40.000Z</time>
      </trkpt>
      <trkpt lat="41.654156" lon="-2.094962">
        <ele>1041</ele>
        <time>2023-02-11T12:02:41.000Z</time>
      </trkpt>
      <trkpt lat="41.654241" lon="-2.095038">
        <ele>1041</ele>
        <time>2023-02-11T12:02:42.000Z</time>
      </trkpt>
      <trkpt lat="41.654323" lon="-2.095113">
        <ele>1041</ele>
        <time>2023-02-11T12:02:43.000Z</time>
      </trkpt>
      <trkpt lat="41.654403" lon="-2.095191">
        <ele>1040.8</ele>
        <time>2023-02-11T12:02:44.000Z</time>
      </trkpt>
      <trkpt lat="41.654484" lon="-2.095268">
        <ele>1040.8</ele>
        <time>2023-02-11T12:02:45.000Z</time>
      </trkpt>
      <trkpt lat="41.654565" lon="-2.095347">
        <ele>1040.8</ele>
        <time>2023-02-11T12:02:46.000Z</time>
      </trkpt>
      <trkpt lat="41.654646" lon="-2.095425">
        <ele>1040.8</ele>
        <time>2023-02-11T12:02:47.000Z</time>
      </trkpt>
      <trkpt lat="41.654726" lon="-2.095504">
        <ele>1040.6</ele>
        <time>2023-02-11T12:02:48.000Z</time>
      </trkpt>
      <trkpt lat="41.654808" lon="-2.095583">
        <ele>1040.6</ele>
        <time>2023-02-11T12:02:49.000Z</time>
      </trkpt>
      <trkpt lat="41.65489" lon="-2.095661">
        <ele>1040.6</ele>
        <time>2023-02-11T12:02:50.000Z</time>
      </trkpt>
      <trkpt lat="41.654969" lon="-2.09574">
        <ele>1040.6</ele>
        <time>2023-02-11T12:02:51.000Z</time>
      </trkpt>
      <trkpt lat="41.655051" lon="-2.095814">
        <ele>1040.6</ele>
        <time>2023-02-11T12:02:52.000Z</time>
      </trkpt>
      <trkpt lat="41.655134" lon="-2.095887">
        <ele>1040.6</ele>
        <time>2023-02-11T12:02:53.000Z</time>
      </trkpt>
      <trkpt lat="41.655216" lon="-2.095963">
        <ele>1040.4</ele>
        <time>2023-02-11T12:02:54.000Z</time>
      </trkpt>
      <trkpt lat="41.655297" lon="-2.096041">
        <ele>1040.4</ele>
        <time>2023-02-11T12:02:55.000Z</time>
      </trkpt>
      <trkpt lat="41.655377" lon="-2.096121">
        <ele>1040.4</ele>
        <time>2023-02-11T12:02:56.000Z</time>
      </trkpt>
      <trkpt lat="41.65546" lon="-2.096201">
        <ele>1040.4</ele>
        <time>2023-02-11T12:02:57.000Z</time>
      </trkpt>
      <trkpt lat="41.655543" lon="-2.096279">
        <ele>1040.4</ele>
        <time>2023-02-11T12:02:58.000Z</time>
      </trkpt>
      <trkpt lat="41.655625" lon="-2.096358">
        <ele>1040.4</ele>
        <time>2023-02-11T12:02:59.000Z</time>
      </trkpt>
      <trkpt lat="41.655707" lon="-2.096437">
        <ele>1040.2</ele>
        <time>2023-02-11T12:03:00.000Z</time>
      </trkpt>
      <trkpt lat="41.655786" lon="-2.096518">
        <ele>1040.2</ele>
        <time>2023-02-11T12:03:01.000Z</time>
      </trkpt>
      <trkpt lat="41.655866" lon="-2.096598">
        <ele>1040.2</ele>
        <time>2023-02-11T12:03:02.000Z</time>
      </trkpt>
      <trkpt lat="41.655945" lon="-2.096677">
        <ele>1040</ele>
        <time>2023-02-11T12:03:03.000Z</time>
      </trkpt>
      <trkpt lat="41.656023" lon="-2.096755">
        <ele>1040</ele>
        <time>2023-02-11T12:03:04.000Z</time>
      </trkpt>
      <trkpt lat="41.656098" lon="-2.096834">
        <ele>1040</ele>
        <time>2023-02-11T12:03:05.000Z</time>
      </trkpt>
      <trkpt lat="41.656174" lon="-2.096914">
        <ele>1040</ele>
        <time>2023-02-11T12:03:06.000Z</time>
      </trkpt>
      <trkpt lat="41.656248" lon="-2.096996">
        <ele>1040</ele>
        <time>2023-02-11T12:03:07.000Z</time>
      </trkpt>
      <trkpt lat="41.656323" lon="-2.097079">
        <ele>1040</ele>
        <time>2023-02-11T12:03:08.000Z</time>
      </trkpt>
      <trkpt lat="41.656394" lon="-2.097165">
        <ele>1039.8</ele>
        <time>2023-02-11T12:03:09.000Z</time>
      </trkpt>
      <trkpt lat="41.656468" lon="-2.097251">
        <ele>1039.8</ele>
        <time>2023-02-11T12:03:10.000Z</time>
      </trkpt>
      <trkpt lat="41.656539" lon="-2.097342">
        <ele>1039.8</ele>
        <time>2023-02-11T12:03:11.000Z</time>
      </trkpt>
      <trkpt lat="41.656608" lon="-2.097434">
        <ele>1039.8</ele>
        <time>2023-02-11T12:03:12.000Z</time>
      </trkpt>
      <trkpt lat="41.656673" lon="-2.097527">
        <ele>1039.8</ele>
        <time>2023-02-11T12:03:13.000Z</time>
      </trkpt>
      <trkpt lat="41.656734" lon="-2.097624">
        <ele>1039.8</ele>
        <time>2023-02-11T12:03:14.000Z</time>
      </trkpt>
      <trkpt lat="41.656794" lon="-2.097725">
        <ele>1039.8</ele>
        <time>2023-02-11T12:03:15.000Z</time>
      </trkpt>
      <trkpt lat="41.65685" lon="-2.097827">
        <ele>1039.8</ele>
        <time>2023-02-11T12:03:16.000Z</time>
      </trkpt>
      <trkpt lat="41.656904" lon="-2.097929">
        <ele>1039.8</ele>
        <time>2023-02-11T12:03:17.000Z</time>
      </trkpt>
      <trkpt lat="41.656961" lon="-2.098031">
        <ele>1039.6</ele>
        <time>2023-02-11T12:03:18.000Z</time>
      </trkpt>
      <trkpt lat="41.657015" lon="-2.098137">
        <ele>1039.6</ele>
        <time>2023-02-11T12:03:19.000Z</time>
      </trkpt>
      <trkpt lat="41.657069" lon="-2.098246">
        <ele>1039.6</ele>
        <time>2023-02-11T12:03:20.000Z</time>
      </trkpt>
      <trkpt lat="41.657122" lon="-2.098357">
        <ele>1039.4</ele>
        <time>2023-02-11T12:03:21.000Z</time>
      </trkpt>
      <trkpt lat="41.657177" lon="-2.098466">
        <ele>1039.2</ele>
        <time>2023-02-11T12:03:22.000Z</time>
      </trkpt>
      <trkpt lat="41.657231" lon="-2.098579">
        <ele>1039.2</ele>
        <time>2023-02-11T12:03:23.000Z</time>
      </trkpt>
      <trkpt lat="41.657283" lon="-2.098691">
        <ele>1039.2</ele>
        <time>2023-02-11T12:03:24.000Z</time>
      </trkpt>
      <trkpt lat="41.657337" lon="-2.098801">
        <ele>1039.2</ele>
        <time>2023-02-11T12:03:25.000Z</time>
      </trkpt>
      <trkpt lat="41.657392" lon="-2.098912">
        <ele>1039.2</ele>
        <time>2023-02-11T12:03:26.000Z</time>
      </trkpt>
      <trkpt lat="41.657445" lon="-2.099025">
        <ele>1039.2</ele>
        <time>2023-02-11T12:03:27.000Z</time>
      </trkpt>
      <trkpt lat="41.657499" lon="-2.099137">
        <ele>1039</ele>
        <time>2023-02-11T12:03:28.000Z</time>
      </trkpt>
      <trkpt lat="41.657552" lon="-2.09925">
        <ele>1039</ele>
        <time>2023-02-11T12:03:29.000Z</time>
      </trkpt>
      <trkpt lat="41.657606" lon="-2.099357">
        <ele>1039</ele>
        <time>2023-02-11T12:03:30.000Z</time>
      </trkpt>
      <trkpt lat="41.657661" lon="-2.09947">
        <ele>1039</ele>
        <time>2023-02-11T12:03:31.000Z</time>
      </trkpt>
      <trkpt lat="41.657717" lon="-2.099575">
        <ele>1039</ele>
        <time>2023-02-11T12:03:32.000Z</time>
      </trkpt>
      <trkpt lat="41.657774" lon="-2.099679">
        <ele>1039.2</ele>
        <time>2023-02-11T12:03:33.000Z</time>
      </trkpt>
      <trkpt lat="41.65783" lon="-2.099783">
        <ele>1039.2</ele>
        <time>2023-02-11T12:03:34.000Z</time>
      </trkpt>
      <trkpt lat="41.65788" lon="-2.099897">
        <ele>1039</ele>
        <time>2023-02-11T12:03:35.000Z</time>
      </trkpt>
      <trkpt lat="41.657932" lon="-2.100013">
        <ele>1039</ele>
        <time>2023-02-11T12:03:36.000Z</time>
      </trkpt>
      <trkpt lat="41.657987" lon="-2.100128">
        <ele>1039.2</ele>
        <time>2023-02-11T12:03:37.000Z</time>
      </trkpt>
      <trkpt lat="41.658043" lon="-2.100244">
        <ele>1039.2</ele>
        <time>2023-02-11T12:03:38.000Z</time>
      </trkpt>
      <trkpt lat="41.658101" lon="-2.100359">
        <ele>1039</ele>
        <time>2023-02-11T12:03:39.000Z</time>
      </trkpt>
      <trkpt lat="41.65816" lon="-2.100473">
        <ele>1039</ele>
        <time>2023-02-11T12:03:40.000Z</time>
      </trkpt>
      <trkpt lat="41.658217" lon="-2.100593">
        <ele>1039</ele>
        <time>2023-02-11T12:03:41.000Z</time>
      </trkpt>
      <trkpt lat="41.658275" lon="-2.100713">
        <ele>1038.8</ele>
        <time>2023-02-11T12:03:42.000Z</time>
      </trkpt>
      <trkpt lat="41.658333" lon="-2.100832">
        <ele>1038.8</ele>
        <time>2023-02-11T12:03:43.000Z</time>
      </trkpt>
      <trkpt lat="41.658391" lon="-2.100952">
        <ele>1038.6</ele>
        <time>2023-02-11T12:03:44.000Z</time>
      </trkpt>
      <trkpt lat="41.658449" lon="-2.101072">
        <ele>1038.4</ele>
        <time>2023-02-11T12:03:45.000Z</time>
      </trkpt>
      <trkpt lat="41.658504" lon="-2.101194">
        <ele>1038.2</ele>
        <time>2023-02-11T12:03:46.000Z</time>
      </trkpt>
      <trkpt lat="41.658561" lon="-2.101313">
        <ele>1038</ele>
        <time>2023-02-11T12:03:47.000Z</time>
      </trkpt>
      <trkpt lat="41.658619" lon="-2.101431">
        <ele>1037.8</ele>
        <time>2023-02-11T12:03:48.000Z</time>
      </trkpt>
      <trkpt lat="41.658677" lon="-2.10155">
        <ele>1037.6</ele>
        <time>2023-02-11T12:03:49.000Z</time>
      </trkpt>
      <trkpt lat="41.658735" lon="-2.10167">
        <ele>1037.6</ele>
        <time>2023-02-11T12:03:50.000Z</time>
      </trkpt>
      <trkpt lat="41.658792" lon="-2.101791">
        <ele>1037.6</ele>
        <time>2023-02-11T12:03:51.000Z</time>
      </trkpt>
      <trkpt lat="41.658847" lon="-2.101913">
        <ele>1037.4</ele>
        <time>2023-02-11T12:03:52.000Z</time>
      </trkpt>
      <trkpt lat="41.658904" lon="-2.102034">
        <ele>1037.4</ele>
        <time>2023-02-11T12:03:53.000Z</time>
      </trkpt>
      <trkpt lat="41.658962" lon="-2.102154">
        <ele>1037.2</ele>
        <time>2023-02-11T12:03:54.000Z</time>
      </trkpt>
      <trkpt lat="41.659017" lon="-2.102275">
        <ele>1037.2</ele>
        <time>2023-02-11T12:03:55.000Z</time>
      </trkpt>
      <trkpt lat="41.659072" lon="-2.102397">
        <ele>1037</ele>
        <time>2023-02-11T12:03:56.000Z</time>
      </trkpt>
      <trkpt lat="41.65913" lon="-2.102518">
        <ele>1037</ele>
        <time>2023-02-11T12:03:57.000Z</time>
      </trkpt>
      <trkpt lat="41.659187" lon="-2.102638">
        <ele>1036.8</ele>
        <time>2023-02-11T12:03:58.000Z</time>
      </trkpt>
      <trkpt lat="41.659245" lon="-2.102758">
        <ele>1036.8</ele>
        <time>2023-02-11T12:03:59.000Z</time>
      </trkpt>
      <trkpt lat="41.659304" lon="-2.102878">
        <ele>1036.6</ele>
        <time>2023-02-11T12:04:00.000Z</time>
      </trkpt>
      <trkpt lat="41.659361" lon="-2.103">
        <ele>1036.6</ele>
        <time>2023-02-11T12:04:01.000Z</time>
      </trkpt>
      <trkpt lat="41.659419" lon="-2.10312">
        <ele>1036.4</ele>
        <time>2023-02-11T12:04:02.000Z</time>
      </trkpt>
      <trkpt lat="41.659476" lon="-2.103242">
        <ele>1036.4</ele>
        <time>2023-02-11T12:04:03.000Z</time>
      </trkpt>
      <trkpt lat="41.659532" lon="-2.103364">
        <ele>1036.4</ele>
        <time>2023-02-11T12:04:04.000Z</time>
      </trkpt>
      <trkpt lat="41.659575" lon="-2.103452">
        <ele>1036.4</ele>
        <time>2023-02-11T12:04:05.000Z</time>
      </trkpt>
      <trkpt lat="41.659619" lon="-2.103541">
        <ele>1036.2</ele>
        <time>2023-02-11T12:04:06.000Z</time>
      </trkpt>
      <trkpt lat="41.659705" lon="-2.103718">
        <ele>1036.2</ele>
        <time>2023-02-11T12:04:07.000Z</time>
      </trkpt>
      <trkpt lat="41.659763" lon="-2.103835">
        <ele>1036.2</ele>
        <time>2023-02-11T12:04:08.000Z</time>
      </trkpt>
      <trkpt lat="41.659822" lon="-2.103947">
        <ele>1036.2</ele>
        <time>2023-02-11T12:04:09.000Z</time>
      </trkpt>
      <trkpt lat="41.659879" lon="-2.104063">
        <ele>1036.2</ele>
        <time>2023-02-11T12:04:10.000Z</time>
      </trkpt>
      <trkpt lat="41.659933" lon="-2.10418">
        <ele>1036.2</ele>
        <time>2023-02-11T12:04:11.000Z</time>
      </trkpt>
      <trkpt lat="41.659988" lon="-2.104296">
        <ele>1036.2</ele>
        <time>2023-02-11T12:04:12.000Z</time>
      </trkpt>
      <trkpt lat="41.660041" lon="-2.104413">
        <ele>1036.2</ele>
        <time>2023-02-11T12:04:13.000Z</time>
      </trkpt>
      <trkpt lat="41.660095" lon="-2.104528">
        <ele>1036.2</ele>
        <time>2023-02-11T12:04:14.000Z</time>
      </trkpt>
      <trkpt lat="41.660147" lon="-2.104642">
        <ele>1036.2</ele>
        <time>2023-02-11T12:04:15.000Z</time>
      </trkpt>
      <trkpt lat="41.660197" lon="-2.104756">
        <ele>1036.2</ele>
        <time>2023-02-11T12:04:16.000Z</time>
      </trkpt>
      <trkpt lat="41.660248" lon="-2.104869">
        <ele>1036.2</ele>
        <time>2023-02-11T12:04:17.000Z</time>
      </trkpt>
      <trkpt lat="41.6603" lon="-2.104981">
        <ele>1036.2</ele>
        <time>2023-02-11T12:04:18.000Z</time>
      </trkpt>
      <trkpt lat="41.660351" lon="-2.105091">
        <ele>1036.2</ele>
        <time>2023-02-11T12:04:19.000Z</time>
      </trkpt>
      <trkpt lat="41.660402" lon="-2.105198">
        <ele>1036.4</ele>
        <time>2023-02-11T12:04:20.000Z</time>
      </trkpt>
      <trkpt lat="41.660454" lon="-2.105303">
        <ele>1036.4</ele>
        <time>2023-02-11T12:04:21.000Z</time>
      </trkpt>
      <trkpt lat="41.660505" lon="-2.105409">
        <ele>1036.6</ele>
        <time>2023-02-11T12:04:22.000Z</time>
      </trkpt>
      <trkpt lat="41.660556" lon="-2.105514">
        <ele>1036.8</ele>
        <time>2023-02-11T12:04:23.000Z</time>
      </trkpt>
      <trkpt lat="41.660605" lon="-2.10562">
        <ele>1036.8</ele>
        <time>2023-02-11T12:04:24.000Z</time>
      </trkpt>
      <trkpt lat="41.660654" lon="-2.105726">
        <ele>1036.8</ele>
        <time>2023-02-11T12:04:25.000Z</time>
      </trkpt>
      <trkpt lat="41.660702" lon="-2.105832">
        <ele>1037</ele>
        <time>2023-02-11T12:04:26.000Z</time>
      </trkpt>
      <trkpt lat="41.66075" lon="-2.105937">
        <ele>1037</ele>
        <time>2023-02-11T12:04:27.000Z</time>
      </trkpt>
      <trkpt lat="41.660798" lon="-2.106042">
        <ele>1037</ele>
        <time>2023-02-11T12:04:28.000Z</time>
      </trkpt>
      <trkpt lat="41.660844" lon="-2.106147">
        <ele>1037</ele>
        <time>2023-02-11T12:04:29.000Z</time>
      </trkpt>
      <trkpt lat="41.66089" lon="-2.106252">
        <ele>1037</ele>
        <time>2023-02-11T12:04:30.000Z</time>
      </trkpt>
      <trkpt lat="41.660938" lon="-2.106357">
        <ele>1037</ele>
        <time>2023-02-11T12:04:31.000Z</time>
      </trkpt>
      <trkpt lat="41.660986" lon="-2.10646">
        <ele>1037</ele>
        <time>2023-02-11T12:04:32.000Z</time>
      </trkpt>
      <trkpt lat="41.661033" lon="-2.106562">
        <ele>1037</ele>
        <time>2023-02-11T12:04:33.000Z</time>
      </trkpt>
      <trkpt lat="41.661076" lon="-2.106665">
        <ele>1037</ele>
        <time>2023-02-11T12:04:34.000Z</time>
      </trkpt>
      <trkpt lat="41.661122" lon="-2.10677">
        <ele>1037</ele>
        <time>2023-02-11T12:04:35.000Z</time>
      </trkpt>
      <trkpt lat="41.661169" lon="-2.106874">
        <ele>1037</ele>
        <time>2023-02-11T12:04:36.000Z</time>
      </trkpt>
      <trkpt lat="41.661215" lon="-2.106979">
        <ele>1037</ele>
        <time>2023-02-11T12:04:37.000Z</time>
      </trkpt>
      <trkpt lat="41.661259" lon="-2.107084">
        <ele>1037</ele>
        <time>2023-02-11T12:04:38.000Z</time>
      </trkpt>
      <trkpt lat="41.661302" lon="-2.107188">
        <ele>1037</ele>
        <time>2023-02-11T12:04:39.000Z</time>
      </trkpt>
      <trkpt lat="41.661352" lon="-2.107277">
        <ele>1037.2</ele>
        <time>2023-02-11T12:04:40.000Z</time>
      </trkpt>
      <trkpt lat="41.661406" lon="-2.107364">
        <ele>1037.2</ele>
        <time>2023-02-11T12:04:41.000Z</time>
      </trkpt>
      <trkpt lat="41.661459" lon="-2.107467">
        <ele>1037.2</ele>
        <time>2023-02-11T12:04:42.000Z</time>
      </trkpt>
      <trkpt lat="41.661509" lon="-2.107573">
        <ele>1037.4</ele>
        <time>2023-02-11T12:04:43.000Z</time>
      </trkpt>
      <trkpt lat="41.661556" lon="-2.10768">
        <ele>1037.4</ele>
        <time>2023-02-11T12:04:44.000Z</time>
      </trkpt>
      <trkpt lat="41.661601" lon="-2.107783">
        <ele>1037.4</ele>
        <time>2023-02-11T12:04:45.000Z</time>
      </trkpt>
      <trkpt lat="41.661646" lon="-2.107883">
        <ele>1037.6</ele>
        <time>2023-02-11T12:04:46.000Z</time>
      </trkpt>
      <trkpt lat="41.661692" lon="-2.107985">
        <ele>1037.6</ele>
        <time>2023-02-11T12:04:47.000Z</time>
      </trkpt>
      <trkpt lat="41.661736" lon="-2.108087">
        <ele>1037.6</ele>
        <time>2023-02-11T12:04:48.000Z</time>
      </trkpt>
      <trkpt lat="41.66178" lon="-2.108188">
        <ele>1037.6</ele>
        <time>2023-02-11T12:04:49.000Z</time>
      </trkpt>
      <trkpt lat="41.661827" lon="-2.108286">
        <ele>1037.6</ele>
        <time>2023-02-11T12:04:50.000Z</time>
      </trkpt>
      <trkpt lat="41.661875" lon="-2.108379">
        <ele>1037.6</ele>
        <time>2023-02-11T12:04:51.000Z</time>
      </trkpt>
      <trkpt lat="41.66192" lon="-2.108476">
        <ele>1037.6</ele>
        <time>2023-02-11T12:04:52.000Z</time>
      </trkpt>
      <trkpt lat="41.661967" lon="-2.108573">
        <ele>1037.6</ele>
        <time>2023-02-11T12:04:53.000Z</time>
      </trkpt>
      <trkpt lat="41.662012" lon="-2.108669">
        <ele>1037.6</ele>
        <time>2023-02-11T12:04:54.000Z</time>
      </trkpt>
      <trkpt lat="41.662044" lon="-2.108741">
        <ele>1037.6</ele>
        <time>2023-02-11T12:04:55.000Z</time>
      </trkpt>
      <trkpt lat="41.662076" lon="-2.108812">
        <ele>1037.6</ele>
        <time>2023-02-11T12:04:56.000Z</time>
      </trkpt>
      <trkpt lat="41.66214" lon="-2.108955">
        <ele>1037.6</ele>
        <time>2023-02-11T12:04:57.000Z</time>
      </trkpt>
      <trkpt lat="41.662185" lon="-2.109048">
        <ele>1037.6</ele>
        <time>2023-02-11T12:04:58.000Z</time>
      </trkpt>
      <trkpt lat="41.662229" lon="-2.10914">
        <ele>1037.8</ele>
        <time>2023-02-11T12:04:59.000Z</time>
      </trkpt>
      <trkpt lat="41.662272" lon="-2.109233">
        <ele>1038</ele>
        <time>2023-02-11T12:05:00.000Z</time>
      </trkpt>
      <trkpt lat="41.662317" lon="-2.109325">
        <ele>1038</ele>
        <time>2023-02-11T12:05:01.000Z</time>
      </trkpt>
      <trkpt lat="41.662358" lon="-2.10942">
        <ele>1038</ele>
        <time>2023-02-11T12:05:02.000Z</time>
      </trkpt>
      <trkpt lat="41.662401" lon="-2.109511">
        <ele>1038.2</ele>
        <time>2023-02-11T12:05:03.000Z</time>
      </trkpt>
      <trkpt lat="41.662447" lon="-2.109589">
        <ele>1038.6</ele>
        <time>2023-02-11T12:05:04.000Z</time>
      </trkpt>
      <trkpt lat="41.662491" lon="-2.109667">
        <ele>1038.6</ele>
        <time>2023-02-11T12:05:05.000Z</time>
      </trkpt>
      <trkpt lat="41.662532" lon="-2.109754">
        <ele>1038.8</ele>
        <time>2023-02-11T12:05:06.000Z</time>
      </trkpt>
      <trkpt lat="41.662572" lon="-2.10984">
        <ele>1038.8</ele>
        <time>2023-02-11T12:05:07.000Z</time>
      </trkpt>
      <trkpt lat="41.662611" lon="-2.109926">
        <ele>1039</ele>
        <time>2023-02-11T12:05:08.000Z</time>
      </trkpt>
      <trkpt lat="41.662648" lon="-2.110011">
        <ele>1039</ele>
        <time>2023-02-11T12:05:09.000Z</time>
      </trkpt>
      <trkpt lat="41.662682" lon="-2.110098">
        <ele>1039.2</ele>
        <time>2023-02-11T12:05:10.000Z</time>
      </trkpt>
      <trkpt lat="41.662713" lon="-2.110187">
        <ele>1039.4</ele>
        <time>2023-02-11T12:05:11.000Z</time>
      </trkpt>
      <trkpt lat="41.662743" lon="-2.110274">
        <ele>1039.4</ele>
        <time>2023-02-11T12:05:12.000Z</time>
      </trkpt>
      <trkpt lat="41.662774" lon="-2.110363">
        <ele>1039.8</ele>
        <time>2023-02-11T12:05:13.000Z</time>
      </trkpt>
      <trkpt lat="41.662799" lon="-2.110455">
        <ele>1040</ele>
        <time>2023-02-11T12:05:14.000Z</time>
      </trkpt>
      <trkpt lat="41.662821" lon="-2.110547">
        <ele>1040.4</ele>
        <time>2023-02-11T12:05:15.000Z</time>
      </trkpt>
      <trkpt lat="41.662847" lon="-2.110637">
        <ele>1040.4</ele>
        <time>2023-02-11T12:05:16.000Z</time>
      </trkpt>
      <trkpt lat="41.662872" lon="-2.110728">
        <ele>1040.6</ele>
        <time>2023-02-11T12:05:17.000Z</time>
      </trkpt>
      <trkpt lat="41.662892" lon="-2.110821">
        <ele>1040.6</ele>
        <time>2023-02-11T12:05:18.000Z</time>
      </trkpt>
      <trkpt lat="41.662912" lon="-2.110914">
        <ele>1040.8</ele>
        <time>2023-02-11T12:05:19.000Z</time>
      </trkpt>
      <trkpt lat="41.662935" lon="-2.111007">
        <ele>1041</ele>
        <time>2023-02-11T12:05:20.000Z</time>
      </trkpt>
      <trkpt lat="41.662959" lon="-2.111099">
        <ele>1041.2</ele>
        <time>2023-02-11T12:05:21.000Z</time>
      </trkpt>
      <trkpt lat="41.662978" lon="-2.11119">
        <ele>1041.4</ele>
        <time>2023-02-11T12:05:22.000Z</time>
      </trkpt>
      <trkpt lat="41.662998" lon="-2.111281">
        <ele>1041.6</ele>
        <time>2023-02-11T12:05:23.000Z</time>
      </trkpt>
      <trkpt lat="41.663023" lon="-2.111371">
        <ele>1041.8</ele>
        <time>2023-02-11T12:05:24.000Z</time>
      </trkpt>
      <trkpt lat="41.663043" lon="-2.111464">
        <ele>1042</ele>
        <time>2023-02-11T12:05:25.000Z</time>
      </trkpt>
      <trkpt lat="41.663064" lon="-2.111557">
        <ele>1042</ele>
        <time>2023-02-11T12:05:26.000Z</time>
      </trkpt>
      <trkpt lat="41.663085" lon="-2.111646">
        <ele>1042.2</ele>
        <time>2023-02-11T12:05:27.000Z</time>
      </trkpt>
      <trkpt lat="41.663108" lon="-2.111733">
        <ele>1042.4</ele>
        <time>2023-02-11T12:05:28.000Z</time>
      </trkpt>
      <trkpt lat="41.663132" lon="-2.111821">
        <ele>1042.6</ele>
        <time>2023-02-11T12:05:29.000Z</time>
      </trkpt>
      <trkpt lat="41.663152" lon="-2.111912">
        <ele>1042.6</ele>
        <time>2023-02-11T12:05:30.000Z</time>
      </trkpt>
      <trkpt lat="41.663168" lon="-2.112002">
        <ele>1043.2</ele>
        <time>2023-02-11T12:05:31.000Z</time>
      </trkpt>
      <trkpt lat="41.663189" lon="-2.112092">
        <ele>1043.4</ele>
        <time>2023-02-11T12:05:32.000Z</time>
      </trkpt>
      <trkpt lat="41.663213" lon="-2.11218">
        <ele>1043.8</ele>
        <time>2023-02-11T12:05:33.000Z</time>
      </trkpt>
      <trkpt lat="41.663236" lon="-2.112271">
        <ele>1043.8</ele>
        <time>2023-02-11T12:05:34.000Z</time>
      </trkpt>
      <trkpt lat="41.66326" lon="-2.11236">
        <ele>1044</ele>
        <time>2023-02-11T12:05:35.000Z</time>
      </trkpt>
      <trkpt lat="41.663283" lon="-2.112452">
        <ele>1044.2</ele>
        <time>2023-02-11T12:05:36.000Z</time>
      </trkpt>
      <trkpt lat="41.663306" lon="-2.112544">
        <ele>1044.6</ele>
        <time>2023-02-11T12:05:37.000Z</time>
      </trkpt>
      <trkpt lat="41.663327" lon="-2.112636">
        <ele>1045.2</ele>
        <time>2023-02-11T12:05:38.000Z</time>
      </trkpt>
      <trkpt lat="41.663348" lon="-2.112729">
        <ele>1045.2</ele>
        <time>2023-02-11T12:05:39.000Z</time>
      </trkpt>
      <trkpt lat="41.663368" lon="-2.112822">
        <ele>1045.6</ele>
        <time>2023-02-11T12:05:40.000Z</time>
      </trkpt>
      <trkpt lat="41.663388" lon="-2.112915">
        <ele>1045.6</ele>
        <time>2023-02-11T12:05:41.000Z</time>
      </trkpt>
      <trkpt lat="41.663406" lon="-2.113008">
        <ele>1045.8</ele>
        <time>2023-02-11T12:05:42.000Z</time>
      </trkpt>
      <trkpt lat="41.663428" lon="-2.1131">
        <ele>1045.8</ele>
        <time>2023-02-11T12:05:43.000Z</time>
      </trkpt>
      <trkpt lat="41.663449" lon="-2.113196">
        <ele>1046</ele>
        <time>2023-02-11T12:05:44.000Z</time>
      </trkpt>
      <trkpt lat="41.663472" lon="-2.113292">
        <ele>1046.2</ele>
        <time>2023-02-11T12:05:45.000Z</time>
      </trkpt>
      <trkpt lat="41.663494" lon="-2.113387">
        <ele>1046.4</ele>
        <time>2023-02-11T12:05:46.000Z</time>
      </trkpt>
      <trkpt lat="41.663517" lon="-2.113485">
        <ele>1046.4</ele>
        <time>2023-02-11T12:05:47.000Z</time>
      </trkpt>
      <trkpt lat="41.663541" lon="-2.113584">
        <ele>1046.8</ele>
        <time>2023-02-11T12:05:48.000Z</time>
      </trkpt>
      <trkpt lat="41.663567" lon="-2.113684">
        <ele>1047</ele>
        <time>2023-02-11T12:05:49.000Z</time>
      </trkpt>
      <trkpt lat="41.66359" lon="-2.113783">
        <ele>1047</ele>
        <time>2023-02-11T12:05:50.000Z</time>
      </trkpt>
      <trkpt lat="41.663614" lon="-2.113884">
        <ele>1047.2</ele>
        <time>2023-02-11T12:05:51.000Z</time>
      </trkpt>
      <trkpt lat="41.66364" lon="-2.113989">
        <ele>1047.2</ele>
        <time>2023-02-11T12:05:52.000Z</time>
      </trkpt>
      <trkpt lat="41.663666" lon="-2.114094">
        <ele>1047.2</ele>
        <time>2023-02-11T12:05:53.000Z</time>
      </trkpt>
      <trkpt lat="41.663685" lon="-2.114173">
        <ele>1047.4</ele>
        <time>2023-02-11T12:05:54.000Z</time>
      </trkpt>
      <trkpt lat="41.663703" lon="-2.114253">
        <ele>1047.4</ele>
        <time>2023-02-11T12:05:55.000Z</time>
      </trkpt>
      <trkpt lat="41.663741" lon="-2.114412">
        <ele>1047.4</ele>
        <time>2023-02-11T12:05:56.000Z</time>
      </trkpt>
      <trkpt lat="41.663767" lon="-2.114517">
        <ele>1047.6</ele>
        <time>2023-02-11T12:05:57.000Z</time>
      </trkpt>
      <trkpt lat="41.663792" lon="-2.114624">
        <ele>1047.6</ele>
        <time>2023-02-11T12:05:58.000Z</time>
      </trkpt>
      <trkpt lat="41.663816" lon="-2.114731">
        <ele>1047.6</ele>
        <time>2023-02-11T12:05:59.000Z</time>
      </trkpt>
      <trkpt lat="41.66384" lon="-2.114842">
        <ele>1047.6</ele>
        <time>2023-02-11T12:06:00.000Z</time>
      </trkpt>
      <trkpt lat="41.663867" lon="-2.114952">
        <ele>1047.8</ele>
        <time>2023-02-11T12:06:01.000Z</time>
      </trkpt>
      <trkpt lat="41.66389" lon="-2.115063">
        <ele>1047.8</ele>
        <time>2023-02-11T12:06:02.000Z</time>
      </trkpt>
      <trkpt lat="41.663911" lon="-2.115175">
        <ele>1047.8</ele>
        <time>2023-02-11T12:06:03.000Z</time>
      </trkpt>
      <trkpt lat="41.663936" lon="-2.115283">
        <ele>1047.8</ele>
        <time>2023-02-11T12:06:04.000Z</time>
      </trkpt>
      <trkpt lat="41.663961" lon="-2.11539">
        <ele>1047.8</ele>
        <time>2023-02-11T12:06:05.000Z</time>
      </trkpt>
      <trkpt lat="41.663987" lon="-2.115497">
        <ele>1047.8</ele>
        <time>2023-02-11T12:06:06.000Z</time>
      </trkpt>
      <trkpt lat="41.664012" lon="-2.115605">
        <ele>1047.6</ele>
        <time>2023-02-11T12:06:07.000Z</time>
      </trkpt>
      <trkpt lat="41.664039" lon="-2.115711">
        <ele>1047.6</ele>
        <time>2023-02-11T12:06:08.000Z</time>
      </trkpt>
      <trkpt lat="41.66406" lon="-2.115817">
        <ele>1047.6</ele>
        <time>2023-02-11T12:06:09.000Z</time>
      </trkpt>
      <trkpt lat="41.664081" lon="-2.115917">
        <ele>1047.6</ele>
        <time>2023-02-11T12:06:10.000Z</time>
      </trkpt>
      <trkpt lat="41.664105" lon="-2.116021">
        <ele>1047.6</ele>
        <time>2023-02-11T12:06:11.000Z</time>
      </trkpt>
      <trkpt lat="41.664131" lon="-2.116127">
        <ele>1047.6</ele>
        <time>2023-02-11T12:06:12.000Z</time>
      </trkpt>
      <trkpt lat="41.66416" lon="-2.11623">
        <ele>1047.6</ele>
        <time>2023-02-11T12:06:13.000Z</time>
      </trkpt>
      <trkpt lat="41.664188" lon="-2.116331">
        <ele>1047.4</ele>
        <time>2023-02-11T12:06:14.000Z</time>
      </trkpt>
      <trkpt lat="41.664215" lon="-2.116434">
        <ele>1047.4</ele>
        <time>2023-02-11T12:06:15.000Z</time>
      </trkpt>
      <trkpt lat="41.664242" lon="-2.116542">
        <ele>1047.4</ele>
        <time>2023-02-11T12:06:16.000Z</time>
      </trkpt>
      <trkpt lat="41.664273" lon="-2.116649">
        <ele>1047.4</ele>
        <time>2023-02-11T12:06:17.000Z</time>
      </trkpt>
      <trkpt lat="41.664306" lon="-2.116758">
        <ele>1047.4</ele>
        <time>2023-02-11T12:06:18.000Z</time>
      </trkpt>
      <trkpt lat="41.664338" lon="-2.116869">
        <ele>1047.4</ele>
        <time>2023-02-11T12:06:19.000Z</time>
      </trkpt>
      <trkpt lat="41.66437" lon="-2.11698">
        <ele>1047.4</ele>
        <time>2023-02-11T12:06:20.000Z</time>
      </trkpt>
      <trkpt lat="41.664399" lon="-2.117092">
        <ele>1047.4</ele>
        <time>2023-02-11T12:06:21.000Z</time>
      </trkpt>
      <trkpt lat="41.664427" lon="-2.117204">
        <ele>1047.4</ele>
        <time>2023-02-11T12:06:22.000Z</time>
      </trkpt>
      <trkpt lat="41.664454" lon="-2.117318">
        <ele>1047.4</ele>
        <time>2023-02-11T12:06:23.000Z</time>
      </trkpt>
      <trkpt lat="41.664481" lon="-2.11743">
        <ele>1047.4</ele>
        <time>2023-02-11T12:06:24.000Z</time>
      </trkpt>
      <trkpt lat="41.66451" lon="-2.117542">
        <ele>1047.4</ele>
        <time>2023-02-11T12:06:25.000Z</time>
      </trkpt>
      <trkpt lat="41.664539" lon="-2.117653">
        <ele>1047.4</ele>
        <time>2023-02-11T12:06:26.000Z</time>
      </trkpt>
      <trkpt lat="41.664568" lon="-2.117765">
        <ele>1047.4</ele>
        <time>2023-02-11T12:06:27.000Z</time>
      </trkpt>
      <trkpt lat="41.664595" lon="-2.117878">
        <ele>1047.4</ele>
        <time>2023-02-11T12:06:28.000Z</time>
      </trkpt>
      <trkpt lat="41.664622" lon="-2.117989">
        <ele>1047.2</ele>
        <time>2023-02-11T12:06:29.000Z</time>
      </trkpt>
      <trkpt lat="41.664646" lon="-2.118096">
        <ele>1047.2</ele>
        <time>2023-02-11T12:06:30.000Z</time>
      </trkpt>
      <trkpt lat="41.664664" lon="-2.118205">
        <ele>1047.2</ele>
        <time>2023-02-11T12:06:31.000Z</time>
      </trkpt>
      <trkpt lat="41.664682" lon="-2.118315">
        <ele>1047.2</ele>
        <time>2023-02-11T12:06:32.000Z</time>
      </trkpt>
      <trkpt lat="41.6647" lon="-2.118428">
        <ele>1047.2</ele>
        <time>2023-02-11T12:06:33.000Z</time>
      </trkpt>
      <trkpt lat="41.664717" lon="-2.118543">
        <ele>1047.2</ele>
        <time>2023-02-11T12:06:34.000Z</time>
      </trkpt>
      <trkpt lat="41.664736" lon="-2.11866">
        <ele>1047.2</ele>
        <time>2023-02-11T12:06:35.000Z</time>
      </trkpt>
      <trkpt lat="41.664757" lon="-2.118779">
        <ele>1047.2</ele>
        <time>2023-02-11T12:06:36.000Z</time>
      </trkpt>
      <trkpt lat="41.664778" lon="-2.118899">
        <ele>1047.2</ele>
        <time>2023-02-11T12:06:37.000Z</time>
      </trkpt>
      <trkpt lat="41.664797" lon="-2.119023">
        <ele>1047.2</ele>
        <time>2023-02-11T12:06:38.000Z</time>
      </trkpt>
      <trkpt lat="41.66482" lon="-2.119147">
        <ele>1047.2</ele>
        <time>2023-02-11T12:06:39.000Z</time>
      </trkpt>
      <trkpt lat="41.664837" lon="-2.119273">
        <ele>1047</ele>
        <time>2023-02-11T12:06:40.000Z</time>
      </trkpt>
      <trkpt lat="41.664855" lon="-2.119399">
        <ele>1047</ele>
        <time>2023-02-11T12:06:41.000Z</time>
      </trkpt>
      <trkpt lat="41.664877" lon="-2.11952">
        <ele>1046.8</ele>
        <time>2023-02-11T12:06:42.000Z</time>
      </trkpt>
      <trkpt lat="41.664897" lon="-2.119646">
        <ele>1046.8</ele>
        <time>2023-02-11T12:06:43.000Z</time>
      </trkpt>
      <trkpt lat="41.664912" lon="-2.119773">
        <ele>1046.6</ele>
        <time>2023-02-11T12:06:44.000Z</time>
      </trkpt>
      <trkpt lat="41.664926" lon="-2.119901">
        <ele>1046.4</ele>
        <time>2023-02-11T12:06:45.000Z</time>
      </trkpt>
      <trkpt lat="41.664936" lon="-2.120029">
        <ele>1046.4</ele>
        <time>2023-02-11T12:06:46.000Z</time>
      </trkpt>
      <trkpt lat="41.664945" lon="-2.120159">
        <ele>1046</ele>
        <time>2023-02-11T12:06:47.000Z</time>
      </trkpt>
      <trkpt lat="41.664952" lon="-2.120291">
        <ele>1046</ele>
        <time>2023-02-11T12:06:48.000Z</time>
      </trkpt>
      <trkpt lat="41.664961" lon="-2.120423">
        <ele>1045.8</ele>
        <time>2023-02-11T12:06:49.000Z</time>
      </trkpt>
      <trkpt lat="41.66497" lon="-2.120555">
        <ele>1045.6</ele>
        <time>2023-02-11T12:06:50.000Z</time>
      </trkpt>
      <trkpt lat="41.664986" lon="-2.120683">
        <ele>1045.2</ele>
        <time>2023-02-11T12:06:51.000Z</time>
      </trkpt>
      <trkpt lat="41.665002" lon="-2.120815">
        <ele>1045</ele>
        <time>2023-02-11T12:06:52.000Z</time>
      </trkpt>
      <trkpt lat="41.665015" lon="-2.120914">
        <ele>1044.8</ele>
        <time>2023-02-11T12:06:53.000Z</time>
      </trkpt>
      <trkpt lat="41.665027" lon="-2.121012">
        <ele>1044.4</ele>
        <time>2023-02-11T12:06:54.000Z</time>
      </trkpt>
      <trkpt lat="41.665052" lon="-2.121208">
        <ele>1044.4</ele>
        <time>2023-02-11T12:06:55.000Z</time>
      </trkpt>
      <trkpt lat="41.665068" lon="-2.121339">
        <ele>1044.2</ele>
        <time>2023-02-11T12:06:56.000Z</time>
      </trkpt>
      <trkpt lat="41.665088" lon="-2.121468">
        <ele>1044.2</ele>
        <time>2023-02-11T12:06:57.000Z</time>
      </trkpt>
      <trkpt lat="41.665108" lon="-2.121593">
        <ele>1044.2</ele>
        <time>2023-02-11T12:06:58.000Z</time>
      </trkpt>
      <trkpt lat="41.665126" lon="-2.121719">
        <ele>1044.2</ele>
        <time>2023-02-11T12:06:59.000Z</time>
      </trkpt>
      <trkpt lat="41.665143" lon="-2.121844">
        <ele>1044.2</ele>
        <time>2023-02-11T12:07:00.000Z</time>
      </trkpt>
      <trkpt lat="41.665161" lon="-2.121968">
        <ele>1044.2</ele>
        <time>2023-02-11T12:07:01.000Z</time>
      </trkpt>
      <trkpt lat="41.665182" lon="-2.12209">
        <ele>1044.2</ele>
        <time>2023-02-11T12:07:02.000Z</time>
      </trkpt>
      <trkpt lat="41.665202" lon="-2.12221">
        <ele>1044.2</ele>
        <time>2023-02-11T12:07:03.000Z</time>
      </trkpt>
      <trkpt lat="41.665224" lon="-2.12233">
        <ele>1044.4</ele>
        <time>2023-02-11T12:07:04.000Z</time>
      </trkpt>
      <trkpt lat="41.665249" lon="-2.122445">
        <ele>1044.6</ele>
        <time>2023-02-11T12:07:05.000Z</time>
      </trkpt>
      <trkpt lat="41.665277" lon="-2.122551">
        <ele>1044.8</ele>
        <time>2023-02-11T12:07:06.000Z</time>
      </trkpt>
      <trkpt lat="41.665303" lon="-2.122664">
        <ele>1045</ele>
        <time>2023-02-11T12:07:07.000Z</time>
      </trkpt>
      <trkpt lat="41.665329" lon="-2.122774">
        <ele>1045.2</ele>
        <time>2023-02-11T12:07:08.000Z</time>
      </trkpt>
      <trkpt lat="41.665359" lon="-2.122884">
        <ele>1045.4</ele>
        <time>2023-02-11T12:07:09.000Z</time>
      </trkpt>
      <trkpt lat="41.665389" lon="-2.122991">
        <ele>1045.4</ele>
        <time>2023-02-11T12:07:10.000Z</time>
      </trkpt>
      <trkpt lat="41.665421" lon="-2.123092">
        <ele>1045.6</ele>
        <time>2023-02-11T12:07:11.000Z</time>
      </trkpt>
      <trkpt lat="41.665455" lon="-2.123194">
        <ele>1045.8</ele>
        <time>2023-02-11T12:07:12.000Z</time>
      </trkpt>
      <trkpt lat="41.665488" lon="-2.123295">
        <ele>1045.8</ele>
        <time>2023-02-11T12:07:13.000Z</time>
      </trkpt>
      <trkpt lat="41.665522" lon="-2.123396">
        <ele>1046</ele>
        <time>2023-02-11T12:07:14.000Z</time>
      </trkpt>
      <trkpt lat="41.665555" lon="-2.123496">
        <ele>1046.2</ele>
        <time>2023-02-11T12:07:15.000Z</time>
      </trkpt>
      <trkpt lat="41.665586" lon="-2.123596">
        <ele>1046.2</ele>
        <time>2023-02-11T12:07:16.000Z</time>
      </trkpt>
      <trkpt lat="41.665621" lon="-2.123696">
        <ele>1046.4</ele>
        <time>2023-02-11T12:07:17.000Z</time>
      </trkpt>
      <trkpt lat="41.665655" lon="-2.123794">
        <ele>1046.6</ele>
        <time>2023-02-11T12:07:18.000Z</time>
      </trkpt>
      <trkpt lat="41.665689" lon="-2.123892">
        <ele>1046.8</ele>
        <time>2023-02-11T12:07:19.000Z</time>
      </trkpt>
      <trkpt lat="41.665722" lon="-2.12399">
        <ele>1047</ele>
        <time>2023-02-11T12:07:20.000Z</time>
      </trkpt>
      <trkpt lat="41.665756" lon="-2.124092">
        <ele>1047.2</ele>
        <time>2023-02-11T12:07:21.000Z</time>
      </trkpt>
      <trkpt lat="41.66579" lon="-2.124195">
        <ele>1047.2</ele>
        <time>2023-02-11T12:07:22.000Z</time>
      </trkpt>
      <trkpt lat="41.665825" lon="-2.124299">
        <ele>1047.4</ele>
        <time>2023-02-11T12:07:23.000Z</time>
      </trkpt>
      <trkpt lat="41.665862" lon="-2.124402">
        <ele>1047.6</ele>
        <time>2023-02-11T12:07:24.000Z</time>
      </trkpt>
      <trkpt lat="41.665899" lon="-2.124509">
        <ele>1047.8</ele>
        <time>2023-02-11T12:07:25.000Z</time>
      </trkpt>
      <trkpt lat="41.665937" lon="-2.124616">
        <ele>1048</ele>
        <time>2023-02-11T12:07:26.000Z</time>
      </trkpt>
      <trkpt lat="41.665972" lon="-2.124723">
        <ele>1048</ele>
        <time>2023-02-11T12:07:27.000Z</time>
      </trkpt>
      <trkpt lat="41.666007" lon="-2.124829">
        <ele>1048.2</ele>
        <time>2023-02-11T12:07:28.000Z</time>
      </trkpt>
      <trkpt lat="41.666043" lon="-2.124936">
        <ele>1048.4</ele>
        <time>2023-02-11T12:07:29.000Z</time>
      </trkpt>
      <trkpt lat="41.666079" lon="-2.125043">
        <ele>1048.6</ele>
        <time>2023-02-11T12:07:30.000Z</time>
      </trkpt>
      <trkpt lat="41.666115" lon="-2.125152">
        <ele>1048.6</ele>
        <time>2023-02-11T12:07:31.000Z</time>
      </trkpt>
      <trkpt lat="41.666152" lon="-2.12526">
        <ele>1048.8</ele>
        <time>2023-02-11T12:07:32.000Z</time>
      </trkpt>
      <trkpt lat="41.666188" lon="-2.125367">
        <ele>1049</ele>
        <time>2023-02-11T12:07:33.000Z</time>
      </trkpt>
      <trkpt lat="41.666224" lon="-2.12548">
        <ele>1049</ele>
        <time>2023-02-11T12:07:34.000Z</time>
      </trkpt>
      <trkpt lat="41.66626" lon="-2.125594">
        <ele>1049.2</ele>
        <time>2023-02-11T12:07:35.000Z</time>
      </trkpt>
      <trkpt lat="41.666297" lon="-2.12571">
        <ele>1049.2</ele>
        <time>2023-02-11T12:07:36.000Z</time>
      </trkpt>
      <trkpt lat="41.666337" lon="-2.125825">
        <ele>1049.4</ele>
        <time>2023-02-11T12:07:37.000Z</time>
      </trkpt>
      <trkpt lat="41.666376" lon="-2.125939">
        <ele>1049.6</ele>
        <time>2023-02-11T12:07:38.000Z</time>
      </trkpt>
      <trkpt lat="41.666416" lon="-2.126055">
        <ele>1049.6</ele>
        <time>2023-02-11T12:07:39.000Z</time>
      </trkpt>
      <trkpt lat="41.666458" lon="-2.126169">
        <ele>1049.8</ele>
        <time>2023-02-11T12:07:40.000Z</time>
      </trkpt>
      <trkpt lat="41.666497" lon="-2.126288">
        <ele>1049.8</ele>
        <time>2023-02-11T12:07:41.000Z</time>
      </trkpt>
      <trkpt lat="41.666537" lon="-2.126405">
        <ele>1050</ele>
        <time>2023-02-11T12:07:42.000Z</time>
      </trkpt>
      <trkpt lat="41.666578" lon="-2.126523">
        <ele>1050</ele>
        <time>2023-02-11T12:07:43.000Z</time>
      </trkpt>
      <trkpt lat="41.666618" lon="-2.126644">
        <ele>1050</ele>
        <time>2023-02-11T12:07:44.000Z</time>
      </trkpt>
      <trkpt lat="41.666656" lon="-2.126767">
        <ele>1050.2</ele>
        <time>2023-02-11T12:07:45.000Z</time>
      </trkpt>
      <trkpt lat="41.666696" lon="-2.126892">
        <ele>1050.2</ele>
        <time>2023-02-11T12:07:46.000Z</time>
      </trkpt>
      <trkpt lat="41.666735" lon="-2.127019">
        <ele>1050.2</ele>
        <time>2023-02-11T12:07:47.000Z</time>
      </trkpt>
      <trkpt lat="41.666775" lon="-2.127145">
        <ele>1050.2</ele>
        <time>2023-02-11T12:07:48.000Z</time>
      </trkpt>
      <trkpt lat="41.666812" lon="-2.127272">
        <ele>1050.2</ele>
        <time>2023-02-11T12:07:49.000Z</time>
      </trkpt>
      <trkpt lat="41.66685" lon="-2.127399">
        <ele>1050</ele>
        <time>2023-02-11T12:07:50.000Z</time>
      </trkpt>
      <trkpt lat="41.666889" lon="-2.127525">
        <ele>1050</ele>
        <time>2023-02-11T12:07:51.000Z</time>
      </trkpt>
      <trkpt lat="41.666919" lon="-2.127619">
        <ele>1050</ele>
        <time>2023-02-11T12:07:52.000Z</time>
      </trkpt>
      <trkpt lat="41.666948" lon="-2.127712">
        <ele>1049.8</ele>
        <time>2023-02-11T12:07:53.000Z</time>
      </trkpt>
      <trkpt lat="41.667008" lon="-2.127899">
        <ele>1049.8</ele>
        <time>2023-02-11T12:07:54.000Z</time>
      </trkpt>
      <trkpt lat="41.667049" lon="-2.128021">
        <ele>1049.8</ele>
        <time>2023-02-11T12:07:55.000Z</time>
      </trkpt>
      <trkpt lat="41.667088" lon="-2.128147">
        <ele>1049.6</ele>
        <time>2023-02-11T12:07:56.000Z</time>
      </trkpt>
      <trkpt lat="41.667131" lon="-2.128274">
        <ele>1049.6</ele>
        <time>2023-02-11T12:07:57.000Z</time>
      </trkpt>
      <trkpt lat="41.667171" lon="-2.128403">
        <ele>1049.4</ele>
        <time>2023-02-11T12:07:58.000Z</time>
      </trkpt>
      <trkpt lat="41.667212" lon="-2.128533">
        <ele>1049.4</ele>
        <time>2023-02-11T12:07:59.000Z</time>
      </trkpt>
      <trkpt lat="41.667254" lon="-2.12866">
        <ele>1049.2</ele>
        <time>2023-02-11T12:08:00.000Z</time>
      </trkpt>
      <trkpt lat="41.667297" lon="-2.128788">
        <ele>1048.8</ele>
        <time>2023-02-11T12:08:01.000Z</time>
      </trkpt>
      <trkpt lat="41.667341" lon="-2.128918">
        <ele>1048.6</ele>
        <time>2023-02-11T12:08:02.000Z</time>
      </trkpt>
      <trkpt lat="41.667385" lon="-2.129048">
        <ele>1048.2</ele>
        <time>2023-02-11T12:08:03.000Z</time>
      </trkpt>
      <trkpt lat="41.667428" lon="-2.129177">
        <ele>1048</ele>
        <time>2023-02-11T12:08:04.000Z</time>
      </trkpt>
      <trkpt lat="41.667473" lon="-2.129305">
        <ele>1047.8</ele>
        <time>2023-02-11T12:08:05.000Z</time>
      </trkpt>
      <trkpt lat="41.667515" lon="-2.129431">
        <ele>1047.8</ele>
        <time>2023-02-11T12:08:06.000Z</time>
      </trkpt>
      <trkpt lat="41.667556" lon="-2.129558">
        <ele>1047.4</ele>
        <time>2023-02-11T12:08:07.000Z</time>
      </trkpt>
      <trkpt lat="41.667594" lon="-2.129683">
        <ele>1047.4</ele>
        <time>2023-02-11T12:08:08.000Z</time>
      </trkpt>
      <trkpt lat="41.667635" lon="-2.129806">
        <ele>1047.2</ele>
        <time>2023-02-11T12:08:09.000Z</time>
      </trkpt>
      <trkpt lat="41.667676" lon="-2.129928">
        <ele>1047</ele>
        <time>2023-02-11T12:08:10.000Z</time>
      </trkpt>
      <trkpt lat="41.667719" lon="-2.130047">
        <ele>1047</ele>
        <time>2023-02-11T12:08:11.000Z</time>
      </trkpt>
      <trkpt lat="41.66776" lon="-2.130171">
        <ele>1047</ele>
        <time>2023-02-11T12:08:12.000Z</time>
      </trkpt>
      <trkpt lat="41.6678" lon="-2.130296">
        <ele>1047</ele>
        <time>2023-02-11T12:08:13.000Z</time>
      </trkpt>
      <trkpt lat="41.667843" lon="-2.13042">
        <ele>1046.8</ele>
        <time>2023-02-11T12:08:14.000Z</time>
      </trkpt>
      <trkpt lat="41.667887" lon="-2.130544">
        <ele>1046.8</ele>
        <time>2023-02-11T12:08:15.000Z</time>
      </trkpt>
      <trkpt lat="41.66793" lon="-2.130671">
        <ele>1046.2</ele>
        <time>2023-02-11T12:08:16.000Z</time>
      </trkpt>
      <trkpt lat="41.667974" lon="-2.130797">
        <ele>1046.2</ele>
        <time>2023-02-11T12:08:17.000Z</time>
      </trkpt>
      <trkpt lat="41.668016" lon="-2.130923">
        <ele>1045.8</ele>
        <time>2023-02-11T12:08:18.000Z</time>
      </trkpt>
      <trkpt lat="41.668059" lon="-2.131047">
        <ele>1045.8</ele>
        <time>2023-02-11T12:08:19.000Z</time>
      </trkpt>
      <trkpt lat="41.668101" lon="-2.131173">
        <ele>1045.8</ele>
        <time>2023-02-11T12:08:20.000Z</time>
      </trkpt>
      <trkpt lat="41.668143" lon="-2.131296">
        <ele>1045.6</ele>
        <time>2023-02-11T12:08:21.000Z</time>
      </trkpt>
      <trkpt lat="41.668185" lon="-2.131417">
        <ele>1045.6</ele>
        <time>2023-02-11T12:08:22.000Z</time>
      </trkpt>
      <trkpt lat="41.668227" lon="-2.131541">
        <ele>1045.6</ele>
        <time>2023-02-11T12:08:23.000Z</time>
      </trkpt>
      <trkpt lat="41.668267" lon="-2.131666">
        <ele>1045.4</ele>
        <time>2023-02-11T12:08:24.000Z</time>
      </trkpt>
      <trkpt lat="41.668307" lon="-2.131793">
        <ele>1045.2</ele>
        <time>2023-02-11T12:08:25.000Z</time>
      </trkpt>
      <trkpt lat="41.668347" lon="-2.131918">
        <ele>1045.2</ele>
        <time>2023-02-11T12:08:26.000Z</time>
      </trkpt>
      <trkpt lat="41.668388" lon="-2.132042">
        <ele>1045</ele>
        <time>2023-02-11T12:08:27.000Z</time>
      </trkpt>
      <trkpt lat="41.668429" lon="-2.132166">
        <ele>1045</ele>
        <time>2023-02-11T12:08:28.000Z</time>
      </trkpt>
      <trkpt lat="41.668471" lon="-2.13229">
        <ele>1044.8</ele>
        <time>2023-02-11T12:08:29.000Z</time>
      </trkpt>
      <trkpt lat="41.668513" lon="-2.132413">
        <ele>1044.6</ele>
        <time>2023-02-11T12:08:30.000Z</time>
      </trkpt>
      <trkpt lat="41.668555" lon="-2.132536">
        <ele>1044.4</ele>
        <time>2023-02-11T12:08:31.000Z</time>
      </trkpt>
      <trkpt lat="41.6686" lon="-2.132659">
        <ele>1044.4</ele>
        <time>2023-02-11T12:08:32.000Z</time>
      </trkpt>
      <trkpt lat="41.668641" lon="-2.132785">
        <ele>1044.4</ele>
        <time>2023-02-11T12:08:33.000Z</time>
      </trkpt>
      <trkpt lat="41.668683" lon="-2.132912">
        <ele>1044</ele>
        <time>2023-02-11T12:08:34.000Z</time>
      </trkpt>
      <trkpt lat="41.668726" lon="-2.133038">
        <ele>1044</ele>
        <time>2023-02-11T12:08:35.000Z</time>
      </trkpt>
      <trkpt lat="41.668768" lon="-2.133164">
        <ele>1043.8</ele>
        <time>2023-02-11T12:08:36.000Z</time>
      </trkpt>
      <trkpt lat="41.668811" lon="-2.133289">
        <ele>1043.8</ele>
        <time>2023-02-11T12:08:37.000Z</time>
      </trkpt>
      <trkpt lat="41.668852" lon="-2.133415">
        <ele>1043.4</ele>
        <time>2023-02-11T12:08:38.000Z</time>
      </trkpt>
      <trkpt lat="41.668896" lon="-2.133539">
        <ele>1043.4</ele>
        <time>2023-02-11T12:08:39.000Z</time>
      </trkpt>
      <trkpt lat="41.668934" lon="-2.133665">
        <ele>1043</ele>
        <time>2023-02-11T12:08:40.000Z</time>
      </trkpt>
      <trkpt lat="41.668977" lon="-2.133787">
        <ele>1042.8</ele>
        <time>2023-02-11T12:08:41.000Z</time>
      </trkpt>
      <trkpt lat="41.669018" lon="-2.133908">
        <ele>1042.6</ele>
        <time>2023-02-11T12:08:42.000Z</time>
      </trkpt>
      <trkpt lat="41.669057" lon="-2.134032">
        <ele>1042.6</ele>
        <time>2023-02-11T12:08:43.000Z</time>
      </trkpt>
      <trkpt lat="41.669096" lon="-2.134155">
        <ele>1042.4</ele>
        <time>2023-02-11T12:08:44.000Z</time>
      </trkpt>
      <trkpt lat="41.669138" lon="-2.134277">
        <ele>1042.4</ele>
        <time>2023-02-11T12:08:45.000Z</time>
      </trkpt>
      <trkpt lat="41.66918" lon="-2.134397">
        <ele>1042.2</ele>
        <time>2023-02-11T12:08:46.000Z</time>
      </trkpt>
      <trkpt lat="41.669222" lon="-2.134518">
        <ele>1042</ele>
        <time>2023-02-11T12:08:47.000Z</time>
      </trkpt>
      <trkpt lat="41.669262" lon="-2.134639">
        <ele>1041.8</ele>
        <time>2023-02-11T12:08:48.000Z</time>
      </trkpt>
      <trkpt lat="41.669299" lon="-2.134762">
        <ele>1041.4</ele>
        <time>2023-02-11T12:08:49.000Z</time>
      </trkpt>
      <trkpt lat="41.669338" lon="-2.134884">
        <ele>1041.2</ele>
        <time>2023-02-11T12:08:50.000Z</time>
      </trkpt>
      <trkpt lat="41.669379" lon="-2.135005">
        <ele>1041</ele>
        <time>2023-02-11T12:08:51.000Z</time>
      </trkpt>
      <trkpt lat="41.66942" lon="-2.135125">
        <ele>1040.8</ele>
        <time>2023-02-11T12:08:52.000Z</time>
      </trkpt>
      <trkpt lat="41.669459" lon="-2.135246">
        <ele>1040.8</ele>
        <time>2023-02-11T12:08:53.000Z</time>
      </trkpt>
      <trkpt lat="41.6695" lon="-2.135368">
        <ele>1040.6</ele>
        <time>2023-02-11T12:08:54.000Z</time>
      </trkpt>
      <trkpt lat="41.669541" lon="-2.135491">
        <ele>1040.6</ele>
        <time>2023-02-11T12:08:55.000Z</time>
      </trkpt>
      <trkpt lat="41.669584" lon="-2.135615">
        <ele>1040.4</ele>
        <time>2023-02-11T12:08:56.000Z</time>
      </trkpt>
      <trkpt lat="41.669627" lon="-2.135737">
        <ele>1040.2</ele>
        <time>2023-02-11T12:08:57.000Z</time>
      </trkpt>
      <trkpt lat="41.669669" lon="-2.135861">
        <ele>1040</ele>
        <time>2023-02-11T12:08:58.000Z</time>
      </trkpt>
      <trkpt lat="41.669711" lon="-2.135988">
        <ele>1039.6</ele>
        <time>2023-02-11T12:08:59.000Z</time>
      </trkpt>
      <trkpt lat="41.669755" lon="-2.136113">
        <ele>1039.4</ele>
        <time>2023-02-11T12:09:00.000Z</time>
      </trkpt>
      <trkpt lat="41.6698" lon="-2.13624">
        <ele>1039</ele>
        <time>2023-02-11T12:09:01.000Z</time>
      </trkpt>
      <trkpt lat="41.669844" lon="-2.136367">
        <ele>1038.8</ele>
        <time>2023-02-11T12:09:02.000Z</time>
      </trkpt>
      <trkpt lat="41.669887" lon="-2.136494">
        <ele>1038.2</ele>
        <time>2023-02-11T12:09:03.000Z</time>
      </trkpt>
      <trkpt lat="41.669931" lon="-2.136618">
        <ele>1038.2</ele>
        <time>2023-02-11T12:09:04.000Z</time>
      </trkpt>
      <trkpt lat="41.669975" lon="-2.136742">
        <ele>1037.6</ele>
        <time>2023-02-11T12:09:05.000Z</time>
      </trkpt>
      <trkpt lat="41.670015" lon="-2.136865">
        <ele>1037.4</ele>
        <time>2023-02-11T12:09:06.000Z</time>
      </trkpt>
      <trkpt lat="41.67005" lon="-2.136989">
        <ele>1036.8</ele>
        <time>2023-02-11T12:09:07.000Z</time>
      </trkpt>
      <trkpt lat="41.670081" lon="-2.137115">
        <ele>1036.2</ele>
        <time>2023-02-11T12:09:08.000Z</time>
      </trkpt>
      <trkpt lat="41.670116" lon="-2.137241">
        <ele>1036</ele>
        <time>2023-02-11T12:09:09.000Z</time>
      </trkpt>
      <trkpt lat="41.670157" lon="-2.137363">
        <ele>1035.6</ele>
        <time>2023-02-11T12:09:10.000Z</time>
      </trkpt>
      <trkpt lat="41.6702" lon="-2.137487">
        <ele>1035.4</ele>
        <time>2023-02-11T12:09:11.000Z</time>
      </trkpt>
      <trkpt lat="41.670244" lon="-2.13761">
        <ele>1035.2</ele>
        <time>2023-02-11T12:09:12.000Z</time>
      </trkpt>
      <trkpt lat="41.67029" lon="-2.137733">
        <ele>1035</ele>
        <time>2023-02-11T12:09:13.000Z</time>
      </trkpt>
      <trkpt lat="41.670338" lon="-2.137855">
        <ele>1034.4</ele>
        <time>2023-02-11T12:09:14.000Z</time>
      </trkpt>
      <trkpt lat="41.670387" lon="-2.137977">
        <ele>1034</ele>
        <time>2023-02-11T12:09:15.000Z</time>
      </trkpt>
      <trkpt lat="41.670433" lon="-2.138103">
        <ele>1033.6</ele>
        <time>2023-02-11T12:09:16.000Z</time>
      </trkpt>
      <trkpt lat="41.670482" lon="-2.138226">
        <ele>1033.4</ele>
        <time>2023-02-11T12:09:17.000Z</time>
      </trkpt>
      <trkpt lat="41.670531" lon="-2.138351">
        <ele>1033</ele>
        <time>2023-02-11T12:09:18.000Z</time>
      </trkpt>
      <trkpt lat="41.670575" lon="-2.13848">
        <ele>1032.4</ele>
        <time>2023-02-11T12:09:19.000Z</time>
      </trkpt>
      <trkpt lat="41.670624" lon="-2.138605">
        <ele>1032.2</ele>
        <time>2023-02-11T12:09:20.000Z</time>
      </trkpt>
      <trkpt lat="41.670673" lon="-2.13873">
        <ele>1031.6</ele>
        <time>2023-02-11T12:09:21.000Z</time>
      </trkpt>
      <trkpt lat="41.670723" lon="-2.138849">
        <ele>1031.4</ele>
        <time>2023-02-11T12:09:22.000Z</time>
      </trkpt>
      <trkpt lat="41.670769" lon="-2.138973">
        <ele>1030.8</ele>
        <time>2023-02-11T12:09:23.000Z</time>
      </trkpt>
      <trkpt lat="41.670814" lon="-2.139093">
        <ele>1030.4</ele>
        <time>2023-02-11T12:09:24.000Z</time>
      </trkpt>
      <trkpt lat="41.670855" lon="-2.139213">
        <ele>1030</ele>
        <time>2023-02-11T12:09:25.000Z</time>
      </trkpt>
      <trkpt lat="41.670892" lon="-2.139336">
        <ele>1029.6</ele>
        <time>2023-02-11T12:09:26.000Z</time>
      </trkpt>
      <trkpt lat="41.670931" lon="-2.139455">
        <ele>1029.2</ele>
        <time>2023-02-11T12:09:27.000Z</time>
      </trkpt>
      <trkpt lat="41.67097" lon="-2.139573">
        <ele>1028.6</ele>
        <time>2023-02-11T12:09:28.000Z</time>
      </trkpt>
      <trkpt lat="41.671007" lon="-2.139691">
        <ele>1028.4</ele>
        <time>2023-02-11T12:09:29.000Z</time>
      </trkpt>
      <trkpt lat="41.671042" lon="-2.139809">
        <ele>1028</ele>
        <time>2023-02-11T12:09:30.000Z</time>
      </trkpt>
      <trkpt lat="41.671073" lon="-2.139927">
        <ele>1027.8</ele>
        <time>2023-02-11T12:09:31.000Z</time>
      </trkpt>
      <trkpt lat="41.671104" lon="-2.14005">
        <ele>1027.2</ele>
        <time>2023-02-11T12:09:32.000Z</time>
      </trkpt>
      <trkpt lat="41.671136" lon="-2.140175">
        <ele>1027</ele>
        <time>2023-02-11T12:09:33.000Z</time>
      </trkpt>
      <trkpt lat="41.67117" lon="-2.140301">
        <ele>1026.6</ele>
        <time>2023-02-11T12:09:34.000Z</time>
      </trkpt>
      <trkpt lat="41.671202" lon="-2.140426">
        <ele>1026.4</ele>
        <time>2023-02-11T12:09:35.000Z</time>
      </trkpt>
      <trkpt lat="41.671232" lon="-2.140551">
        <ele>1026.4</ele>
        <time>2023-02-11T12:09:36.000Z</time>
      </trkpt>
      <trkpt lat="41.671261" lon="-2.140679">
        <ele>1026</ele>
        <time>2023-02-11T12:09:37.000Z</time>
      </trkpt>
      <trkpt lat="41.671291" lon="-2.140806">
        <ele>1025.8</ele>
        <time>2023-02-11T12:09:38.000Z</time>
      </trkpt>
      <trkpt lat="41.671321" lon="-2.140934">
        <ele>1025.4</ele>
        <time>2023-02-11T12:09:39.000Z</time>
      </trkpt>
      <trkpt lat="41.671348" lon="-2.141062">
        <ele>1025.4</ele>
        <time>2023-02-11T12:09:40.000Z</time>
      </trkpt>
      <trkpt lat="41.671372" lon="-2.141192">
        <ele>1025.2</ele>
        <time>2023-02-11T12:09:41.000Z</time>
      </trkpt>
      <trkpt lat="41.671396" lon="-2.141318">
        <ele>1025.2</ele>
        <time>2023-02-11T12:09:42.000Z</time>
      </trkpt>
      <trkpt lat="41.671417" lon="-2.141451">
        <ele>1024.8</ele>
        <time>2023-02-11T12:09:43.000Z</time>
      </trkpt>
      <trkpt lat="41.671439" lon="-2.141586">
        <ele>1024.6</ele>
        <time>2023-02-11T12:09:44.000Z</time>
      </trkpt>
      <trkpt lat="41.671462" lon="-2.141722">
        <ele>1024</ele>
        <time>2023-02-11T12:09:45.000Z</time>
      </trkpt>
      <trkpt lat="41.671483" lon="-2.14186">
        <ele>1023.6</ele>
        <time>2023-02-11T12:09:46.000Z</time>
      </trkpt>
      <trkpt lat="41.671505" lon="-2.141997">
        <ele>1023.4</ele>
        <time>2023-02-11T12:09:47.000Z</time>
      </trkpt>
      <trkpt lat="41.671529" lon="-2.142133">
        <ele>1023</ele>
        <time>2023-02-11T12:09:48.000Z</time>
      </trkpt>
      <trkpt lat="41.671552" lon="-2.142271">
        <ele>1022.8</ele>
        <time>2023-02-11T12:09:49.000Z</time>
      </trkpt>
      <trkpt lat="41.671573" lon="-2.14241">
        <ele>1022.6</ele>
        <time>2023-02-11T12:09:50.000Z</time>
      </trkpt>
      <trkpt lat="41.671594" lon="-2.14255">
        <ele>1022.6</ele>
        <time>2023-02-11T12:09:51.000Z</time>
      </trkpt>
      <trkpt lat="41.671617" lon="-2.14269">
        <ele>1022.2</ele>
        <time>2023-02-11T12:09:52.000Z</time>
      </trkpt>
      <trkpt lat="41.671637" lon="-2.14283">
        <ele>1022</ele>
        <time>2023-02-11T12:09:53.000Z</time>
      </trkpt>
      <trkpt lat="41.671659" lon="-2.142966">
        <ele>1021.6</ele>
        <time>2023-02-11T12:09:54.000Z</time>
      </trkpt>
      <trkpt lat="41.671679" lon="-2.143102">
        <ele>1021</ele>
        <time>2023-02-11T12:09:55.000Z</time>
      </trkpt>
      <trkpt lat="41.6717" lon="-2.14324">
        <ele>1020.8</ele>
        <time>2023-02-11T12:09:56.000Z</time>
      </trkpt>
      <trkpt lat="41.671723" lon="-2.14338">
        <ele>1020.2</ele>
        <time>2023-02-11T12:09:57.000Z</time>
      </trkpt>
      <trkpt lat="41.671746" lon="-2.143519">
        <ele>1020</ele>
        <time>2023-02-11T12:09:58.000Z</time>
      </trkpt>
      <trkpt lat="41.671769" lon="-2.143658">
        <ele>1019.6</ele>
        <time>2023-02-11T12:09:59.000Z</time>
      </trkpt>
      <trkpt lat="41.67179" lon="-2.143796">
        <ele>1019.4</ele>
        <time>2023-02-11T12:10:00.000Z</time>
      </trkpt>
      <trkpt lat="41.671812" lon="-2.143934">
        <ele>1019</ele>
        <time>2023-02-11T12:10:01.000Z</time>
      </trkpt>
      <trkpt lat="41.671834" lon="-2.144071">
        <ele>1019</ele>
        <time>2023-02-11T12:10:02.000Z</time>
      </trkpt>
      <trkpt lat="41.671857" lon="-2.144209">
        <ele>1018.8</ele>
        <time>2023-02-11T12:10:03.000Z</time>
      </trkpt>
      <trkpt lat="41.671878" lon="-2.144346">
        <ele>1018.6</ele>
        <time>2023-02-11T12:10:04.000Z</time>
      </trkpt>
      <trkpt lat="41.671899" lon="-2.144485">
        <ele>1018.6</ele>
        <time>2023-02-11T12:10:05.000Z</time>
      </trkpt>
      <trkpt lat="41.671921" lon="-2.14462">
        <ele>1018.4</ele>
        <time>2023-02-11T12:10:06.000Z</time>
      </trkpt>
      <trkpt lat="41.671942" lon="-2.144756">
        <ele>1018.4</ele>
        <time>2023-02-11T12:10:07.000Z</time>
      </trkpt>
      <trkpt lat="41.671964" lon="-2.144891">
        <ele>1018.4</ele>
        <time>2023-02-11T12:10:08.000Z</time>
      </trkpt>
      <trkpt lat="41.671987" lon="-2.145023">
        <ele>1018.4</ele>
        <time>2023-02-11T12:10:09.000Z</time>
      </trkpt>
      <trkpt lat="41.67201" lon="-2.145156">
        <ele>1018.4</ele>
        <time>2023-02-11T12:10:10.000Z</time>
      </trkpt>
      <trkpt lat="41.672033" lon="-2.145288">
        <ele>1018.4</ele>
        <time>2023-02-11T12:10:11.000Z</time>
      </trkpt>
      <trkpt lat="41.672058" lon="-2.145419">
        <ele>1018.2</ele>
        <time>2023-02-11T12:10:12.000Z</time>
      </trkpt>
      <trkpt lat="41.672083" lon="-2.145551">
        <ele>1018.4</ele>
        <time>2023-02-11T12:10:13.000Z</time>
      </trkpt>
      <trkpt lat="41.672106" lon="-2.145685">
        <ele>1018.4</ele>
        <time>2023-02-11T12:10:14.000Z</time>
      </trkpt>
      <trkpt lat="41.672127" lon="-2.145819">
        <ele>1018.4</ele>
        <time>2023-02-11T12:10:15.000Z</time>
      </trkpt>
      <trkpt lat="41.672147" lon="-2.145956">
        <ele>1018.4</ele>
        <time>2023-02-11T12:10:16.000Z</time>
      </trkpt>
      <trkpt lat="41.672168" lon="-2.14609">
        <ele>1018.4</ele>
        <time>2023-02-11T12:10:17.000Z</time>
      </trkpt>
      <trkpt lat="41.672189" lon="-2.146224">
        <ele>1018.4</ele>
        <time>2023-02-11T12:10:18.000Z</time>
      </trkpt>
      <trkpt lat="41.672208" lon="-2.146358">
        <ele>1018.4</ele>
        <time>2023-02-11T12:10:19.000Z</time>
      </trkpt>
      <trkpt lat="41.672228" lon="-2.146492">
        <ele>1018.4</ele>
        <time>2023-02-11T12:10:20.000Z</time>
      </trkpt>
      <trkpt lat="41.672249" lon="-2.146624">
        <ele>1018.2</ele>
        <time>2023-02-11T12:10:21.000Z</time>
      </trkpt>
      <trkpt lat="41.672271" lon="-2.146756">
        <ele>1018.2</ele>
        <time>2023-02-11T12:10:22.000Z</time>
      </trkpt>
      <trkpt lat="41.672293" lon="-2.146884">
        <ele>1018.2</ele>
        <time>2023-02-11T12:10:23.000Z</time>
      </trkpt>
      <trkpt lat="41.672318" lon="-2.147015">
        <ele>1018.2</ele>
        <time>2023-02-11T12:10:24.000Z</time>
      </trkpt>
      <trkpt lat="41.672338" lon="-2.147148">
        <ele>1018.2</ele>
        <time>2023-02-11T12:10:25.000Z</time>
      </trkpt>
      <trkpt lat="41.672361" lon="-2.147281">
        <ele>1018.2</ele>
        <time>2023-02-11T12:10:26.000Z</time>
      </trkpt>
      <trkpt lat="41.672384" lon="-2.147413">
        <ele>1018.2</ele>
        <time>2023-02-11T12:10:27.000Z</time>
      </trkpt>
      <trkpt lat="41.672407" lon="-2.147544">
        <ele>1018.2</ele>
        <time>2023-02-11T12:10:28.000Z</time>
      </trkpt>
      <trkpt lat="41.672429" lon="-2.147674">
        <ele>1018.2</ele>
        <time>2023-02-11T12:10:29.000Z</time>
      </trkpt>
      <trkpt lat="41.67245" lon="-2.147801">
        <ele>1018.2</ele>
        <time>2023-02-11T12:10:30.000Z</time>
      </trkpt>
      <trkpt lat="41.67247" lon="-2.147929">
        <ele>1018.2</ele>
        <time>2023-02-11T12:10:31.000Z</time>
      </trkpt>
      <trkpt lat="41.672489" lon="-2.148053">
        <ele>1018.2</ele>
        <time>2023-02-11T12:10:32.000Z</time>
      </trkpt>
      <trkpt lat="41.672512" lon="-2.148175">
        <ele>1018.2</ele>
        <time>2023-02-11T12:10:33.000Z</time>
      </trkpt>
      <trkpt lat="41.672535" lon="-2.148294">
        <ele>1018.2</ele>
        <time>2023-02-11T12:10:34.000Z</time>
      </trkpt>
      <trkpt lat="41.672556" lon="-2.148415">
        <ele>1018.2</ele>
        <time>2023-02-11T12:10:35.000Z</time>
      </trkpt>
      <trkpt lat="41.672576" lon="-2.148536">
        <ele>1018.2</ele>
        <time>2023-02-11T12:10:36.000Z</time>
      </trkpt>
      <trkpt lat="41.672594" lon="-2.148659">
        <ele>1018</ele>
        <time>2023-02-11T12:10:37.000Z</time>
      </trkpt>
      <trkpt lat="41.672612" lon="-2.148782">
        <ele>1018</ele>
        <time>2023-02-11T12:10:38.000Z</time>
      </trkpt>
      <trkpt lat="41.672631" lon="-2.148904">
        <ele>1018.2</ele>
        <time>2023-02-11T12:10:39.000Z</time>
      </trkpt>
      <trkpt lat="41.67265" lon="-2.149024">
        <ele>1018.2</ele>
        <time>2023-02-11T12:10:40.000Z</time>
      </trkpt>
      <trkpt lat="41.672668" lon="-2.149146">
        <ele>1018.2</ele>
        <time>2023-02-11T12:10:41.000Z</time>
      </trkpt>
      <trkpt lat="41.672686" lon="-2.149267">
        <ele>1018.2</ele>
        <time>2023-02-11T12:10:42.000Z</time>
      </trkpt>
      <trkpt lat="41.672702" lon="-2.14939">
        <ele>1018.2</ele>
        <time>2023-02-11T12:10:43.000Z</time>
      </trkpt>
      <trkpt lat="41.672716" lon="-2.149512">
        <ele>1018.2</ele>
        <time>2023-02-11T12:10:44.000Z</time>
      </trkpt>
      <trkpt lat="41.672733" lon="-2.149633">
        <ele>1018.2</ele>
        <time>2023-02-11T12:10:45.000Z</time>
      </trkpt>
      <trkpt lat="41.672753" lon="-2.149754">
        <ele>1018.2</ele>
        <time>2023-02-11T12:10:46.000Z</time>
      </trkpt>
      <trkpt lat="41.672772" lon="-2.149875">
        <ele>1018.2</ele>
        <time>2023-02-11T12:10:47.000Z</time>
      </trkpt>
      <trkpt lat="41.672792" lon="-2.149994">
        <ele>1018.2</ele>
        <time>2023-02-11T12:10:48.000Z</time>
      </trkpt>
      <trkpt lat="41.67281" lon="-2.150115">
        <ele>1018.2</ele>
        <time>2023-02-11T12:10:49.000Z</time>
      </trkpt>
      <trkpt lat="41.672828" lon="-2.150234">
        <ele>1018.2</ele>
        <time>2023-02-11T12:10:50.000Z</time>
      </trkpt>
      <trkpt lat="41.672845" lon="-2.150353">
        <ele>1018</ele>
        <time>2023-02-11T12:10:51.000Z</time>
      </trkpt>
      <trkpt lat="41.672863" lon="-2.150472">
        <ele>1018</ele>
        <time>2023-02-11T12:10:52.000Z</time>
      </trkpt>
      <trkpt lat="41.672882" lon="-2.150588">
        <ele>1018</ele>
        <time>2023-02-11T12:10:53.000Z</time>
      </trkpt>
      <trkpt lat="41.672901" lon="-2.150705">
        <ele>1018</ele>
        <time>2023-02-11T12:10:54.000Z</time>
      </trkpt>
      <trkpt lat="41.672919" lon="-2.150823">
        <ele>1018</ele>
        <time>2023-02-11T12:10:55.000Z</time>
      </trkpt>
      <trkpt lat="41.672935" lon="-2.15094">
        <ele>1018</ele>
        <time>2023-02-11T12:10:56.000Z</time>
      </trkpt>
      <trkpt lat="41.672952" lon="-2.151056">
        <ele>1018</ele>
        <time>2023-02-11T12:10:57.000Z</time>
      </trkpt>
      <trkpt lat="41.672971" lon="-2.151167">
        <ele>1018.2</ele>
        <time>2023-02-11T12:10:58.000Z</time>
      </trkpt>
      <trkpt lat="41.672991" lon="-2.151278">
        <ele>1018.2</ele>
        <time>2023-02-11T12:10:59.000Z</time>
      </trkpt>
      <trkpt lat="41.673008" lon="-2.151388">
        <ele>1018.2</ele>
        <time>2023-02-11T12:11:00.000Z</time>
      </trkpt>
      <trkpt lat="41.673028" lon="-2.151494">
        <ele>1018.2</ele>
        <time>2023-02-11T12:11:01.000Z</time>
      </trkpt>
      <trkpt lat="41.673046" lon="-2.151598">
        <ele>1018.2</ele>
        <time>2023-02-11T12:11:02.000Z</time>
      </trkpt>
      <trkpt lat="41.673063" lon="-2.151704">
        <ele>1018.2</ele>
        <time>2023-02-11T12:11:03.000Z</time>
      </trkpt>
      <trkpt lat="41.673082" lon="-2.151809">
        <ele>1018.4</ele>
        <time>2023-02-11T12:11:04.000Z</time>
      </trkpt>
      <trkpt lat="41.6731" lon="-2.151914">
        <ele>1018.4</ele>
        <time>2023-02-11T12:11:05.000Z</time>
      </trkpt>
      <trkpt lat="41.673118" lon="-2.152019">
        <ele>1018.4</ele>
        <time>2023-02-11T12:11:06.000Z</time>
      </trkpt>
      <trkpt lat="41.673136" lon="-2.152125">
        <ele>1018.4</ele>
        <time>2023-02-11T12:11:07.000Z</time>
      </trkpt>
      <trkpt lat="41.673152" lon="-2.152232">
        <ele>1018.4</ele>
        <time>2023-02-11T12:11:08.000Z</time>
      </trkpt>
      <trkpt lat="41.673167" lon="-2.15234">
        <ele>1018.4</ele>
        <time>2023-02-11T12:11:09.000Z</time>
      </trkpt>
      <trkpt lat="41.673183" lon="-2.152446">
        <ele>1018.6</ele>
        <time>2023-02-11T12:11:10.000Z</time>
      </trkpt>
      <trkpt lat="41.6732" lon="-2.152551">
        <ele>1018.8</ele>
        <time>2023-02-11T12:11:11.000Z</time>
      </trkpt>
      <trkpt lat="41.673217" lon="-2.152657">
        <ele>1018.8</ele>
        <time>2023-02-11T12:11:12.000Z</time>
      </trkpt>
      <trkpt lat="41.673234" lon="-2.152762">
        <ele>1019</ele>
        <time>2023-02-11T12:11:13.000Z</time>
      </trkpt>
      <trkpt lat="41.673252" lon="-2.152865">
        <ele>1019</ele>
        <time>2023-02-11T12:11:14.000Z</time>
      </trkpt>
      <trkpt lat="41.67327" lon="-2.15297">
        <ele>1019.2</ele>
        <time>2023-02-11T12:11:15.000Z</time>
      </trkpt>
      <trkpt lat="41.673288" lon="-2.153073">
        <ele>1019.4</ele>
        <time>2023-02-11T12:11:16.000Z</time>
      </trkpt>
      <trkpt lat="41.673308" lon="-2.153172">
        <ele>1019.6</ele>
        <time>2023-02-11T12:11:17.000Z</time>
      </trkpt>
      <trkpt lat="41.673327" lon="-2.153271">
        <ele>1019.6</ele>
        <time>2023-02-11T12:11:18.000Z</time>
      </trkpt>
      <trkpt lat="41.673346" lon="-2.153372">
        <ele>1019.8</ele>
        <time>2023-02-11T12:11:19.000Z</time>
      </trkpt>
      <trkpt lat="41.673362" lon="-2.153474">
        <ele>1020</ele>
        <time>2023-02-11T12:11:20.000Z</time>
      </trkpt>
      <trkpt lat="41.673379" lon="-2.153577">
        <ele>1020</ele>
        <time>2023-02-11T12:11:21.000Z</time>
      </trkpt>
      <trkpt lat="41.673396" lon="-2.153678">
        <ele>1020.2</ele>
        <time>2023-02-11T12:11:22.000Z</time>
      </trkpt>
      <trkpt lat="41.673414" lon="-2.153778">
        <ele>1020.4</ele>
        <time>2023-02-11T12:11:23.000Z</time>
      </trkpt>
      <trkpt lat="41.673431" lon="-2.153879">
        <ele>1020.4</ele>
        <time>2023-02-11T12:11:24.000Z</time>
      </trkpt>
      <trkpt lat="41.673446" lon="-2.153981">
        <ele>1020.6</ele>
        <time>2023-02-11T12:11:25.000Z</time>
      </trkpt>
      <trkpt lat="41.67346" lon="-2.154084">
        <ele>1020.8</ele>
        <time>2023-02-11T12:11:26.000Z</time>
      </trkpt>
      <trkpt lat="41.673475" lon="-2.154186">
        <ele>1020.8</ele>
        <time>2023-02-11T12:11:27.000Z</time>
      </trkpt>
      <trkpt lat="41.673488" lon="-2.154289">
        <ele>1021.2</ele>
        <time>2023-02-11T12:11:28.000Z</time>
      </trkpt>
      <trkpt lat="41.673503" lon="-2.154392">
        <ele>1021.2</ele>
        <time>2023-02-11T12:11:29.000Z</time>
      </trkpt>
      <trkpt lat="41.673518" lon="-2.154495">
        <ele>1021.2</ele>
        <time>2023-02-11T12:11:30.000Z</time>
      </trkpt>
      <trkpt lat="41.673535" lon="-2.154596">
        <ele>1021.4</ele>
        <time>2023-02-11T12:11:31.000Z</time>
      </trkpt>
      <trkpt lat="41.673553" lon="-2.154699">
        <ele>1021.4</ele>
        <time>2023-02-11T12:11:32.000Z</time>
      </trkpt>
      <trkpt lat="41.67357" lon="-2.154802">
        <ele>1021.4</ele>
        <time>2023-02-11T12:11:33.000Z</time>
      </trkpt>
      <trkpt lat="41.673587" lon="-2.154906">
        <ele>1021.4</ele>
        <time>2023-02-11T12:11:34.000Z</time>
      </trkpt>
      <trkpt lat="41.673604" lon="-2.155009">
        <ele>1021.4</ele>
        <time>2023-02-11T12:11:35.000Z</time>
      </trkpt>
      <trkpt lat="41.67362" lon="-2.155112">
        <ele>1021.4</ele>
        <time>2023-02-11T12:11:36.000Z</time>
      </trkpt>
      <trkpt lat="41.673637" lon="-2.155215">
        <ele>1021.4</ele>
        <time>2023-02-11T12:11:37.000Z</time>
      </trkpt>
      <trkpt lat="41.673654" lon="-2.155319">
        <ele>1021.4</ele>
        <time>2023-02-11T12:11:38.000Z</time>
      </trkpt>
      <trkpt lat="41.673667" lon="-2.155397">
        <ele>1021.4</ele>
        <time>2023-02-11T12:11:39.000Z</time>
      </trkpt>
      <trkpt lat="41.673681" lon="-2.155475">
        <ele>1021.6</ele>
        <time>2023-02-11T12:11:40.000Z</time>
      </trkpt>
      <trkpt lat="41.673709" lon="-2.15563">
        <ele>1021.6</ele>
        <time>2023-02-11T12:11:41.000Z</time>
      </trkpt>
      <trkpt lat="41.673727" lon="-2.155733">
        <ele>1021.6</ele>
        <time>2023-02-11T12:11:42.000Z</time>
      </trkpt>
      <trkpt lat="41.673747" lon="-2.155836">
        <ele>1021.6</ele>
        <time>2023-02-11T12:11:43.000Z</time>
      </trkpt>
      <trkpt lat="41.673767" lon="-2.155936">
        <ele>1021.8</ele>
        <time>2023-02-11T12:11:44.000Z</time>
      </trkpt>
      <trkpt lat="41.673784" lon="-2.156042">
        <ele>1021.8</ele>
        <time>2023-02-11T12:11:45.000Z</time>
      </trkpt>
      <trkpt lat="41.6738" lon="-2.156149">
        <ele>1021.8</ele>
        <time>2023-02-11T12:11:46.000Z</time>
      </trkpt>
      <trkpt lat="41.67382" lon="-2.156254">
        <ele>1021.8</ele>
        <time>2023-02-11T12:11:47.000Z</time>
      </trkpt>
      <trkpt lat="41.67384" lon="-2.156361">
        <ele>1022</ele>
        <time>2023-02-11T12:11:48.000Z</time>
      </trkpt>
      <trkpt lat="41.673857" lon="-2.156468">
        <ele>1022</ele>
        <time>2023-02-11T12:11:49.000Z</time>
      </trkpt>
      <trkpt lat="41.673876" lon="-2.156577">
        <ele>1022</ele>
        <time>2023-02-11T12:11:50.000Z</time>
      </trkpt>
      <trkpt lat="41.673894" lon="-2.156685">
        <ele>1022.2</ele>
        <time>2023-02-11T12:11:51.000Z</time>
      </trkpt>
      <trkpt lat="41.673911" lon="-2.156796">
        <ele>1022.2</ele>
        <time>2023-02-11T12:11:52.000Z</time>
      </trkpt>
      <trkpt lat="41.673929" lon="-2.156908">
        <ele>1022.2</ele>
        <time>2023-02-11T12:11:53.000Z</time>
      </trkpt>
      <trkpt lat="41.673948" lon="-2.15702">
        <ele>1022.4</ele>
        <time>2023-02-11T12:11:54.000Z</time>
      </trkpt>
      <trkpt lat="41.673967" lon="-2.157132">
        <ele>1022.4</ele>
        <time>2023-02-11T12:11:55.000Z</time>
      </trkpt>
      <trkpt lat="41.673986" lon="-2.157246">
        <ele>1022.6</ele>
        <time>2023-02-11T12:11:56.000Z</time>
      </trkpt>
      <trkpt lat="41.674006" lon="-2.157359">
        <ele>1022.4</ele>
        <time>2023-02-11T12:11:57.000Z</time>
      </trkpt>
      <trkpt lat="41.674025" lon="-2.157475">
        <ele>1022.4</ele>
        <time>2023-02-11T12:11:58.000Z</time>
      </trkpt>
      <trkpt lat="41.674045" lon="-2.157593">
        <ele>1022.6</ele>
        <time>2023-02-11T12:11:59.000Z</time>
      </trkpt>
      <trkpt lat="41.674065" lon="-2.157711">
        <ele>1022.8</ele>
        <time>2023-02-11T12:12:00.000Z</time>
      </trkpt>
      <trkpt lat="41.674085" lon="-2.15783">
        <ele>1022.8</ele>
        <time>2023-02-11T12:12:01.000Z</time>
      </trkpt>
      <trkpt lat="41.674105" lon="-2.157943">
        <ele>1022.4</ele>
        <time>2023-02-11T12:12:02.000Z</time>
      </trkpt>
      <trkpt lat="41.674124" lon="-2.158067">
        <ele>1022.4</ele>
        <time>2023-02-11T12:12:03.000Z</time>
      </trkpt>
      <trkpt lat="41.674144" lon="-2.158192">
        <ele>1022.4</ele>
        <time>2023-02-11T12:12:04.000Z</time>
      </trkpt>
      <trkpt lat="41.674167" lon="-2.158319">
        <ele>1022.4</ele>
        <time>2023-02-11T12:12:05.000Z</time>
      </trkpt>
      <trkpt lat="41.674187" lon="-2.158448">
        <ele>1022.2</ele>
        <time>2023-02-11T12:12:06.000Z</time>
      </trkpt>
      <trkpt lat="41.674207" lon="-2.158579">
        <ele>1022.2</ele>
        <time>2023-02-11T12:12:07.000Z</time>
      </trkpt>
      <trkpt lat="41.674227" lon="-2.158714">
        <ele>1022</ele>
        <time>2023-02-11T12:12:08.000Z</time>
      </trkpt>
      <trkpt lat="41.67425" lon="-2.158846">
        <ele>1022</ele>
        <time>2023-02-11T12:12:09.000Z</time>
      </trkpt>
      <trkpt lat="41.674271" lon="-2.158981">
        <ele>1021.8</ele>
        <time>2023-02-11T12:12:10.000Z</time>
      </trkpt>
      <trkpt lat="41.674297" lon="-2.159146">
        <ele>1021.6</ele>
        <time>2023-02-11T12:12:11.000Z</time>
      </trkpt>
      <trkpt lat="41.674316" lon="-2.159257">
        <ele>1021.6</ele>
        <time>2023-02-11T12:12:12.000Z</time>
      </trkpt>
      <trkpt lat="41.67434" lon="-2.159397">
        <ele>1021.4</ele>
        <time>2023-02-11T12:12:13.000Z</time>
      </trkpt>
      <trkpt lat="41.674363" lon="-2.159538">
        <ele>1021</ele>
        <time>2023-02-11T12:12:14.000Z</time>
      </trkpt>
      <trkpt lat="41.674387" lon="-2.159679">
        <ele>1020.8</ele>
        <time>2023-02-11T12:12:15.000Z</time>
      </trkpt>
      <trkpt lat="41.674413" lon="-2.159823">
        <ele>1020.4</ele>
        <time>2023-02-11T12:12:16.000Z</time>
      </trkpt>
      <trkpt lat="41.67444" lon="-2.159974">
        <ele>1020.2</ele>
        <time>2023-02-11T12:12:17.000Z</time>
      </trkpt>
      <trkpt lat="41.674464" lon="-2.16013">
        <ele>1019.8</ele>
        <time>2023-02-11T12:12:18.000Z</time>
      </trkpt>
      <trkpt lat="41.674486" lon="-2.16029">
        <ele>1019.4</ele>
        <time>2023-02-11T12:12:19.000Z</time>
      </trkpt>
      <trkpt lat="41.674508" lon="-2.160457">
        <ele>1019</ele>
        <time>2023-02-11T12:12:20.000Z</time>
      </trkpt>
      <trkpt lat="41.674533" lon="-2.160628">
        <ele>1019</ele>
        <time>2023-02-11T12:12:21.000Z</time>
      </trkpt>
      <trkpt lat="41.674557" lon="-2.160801">
        <ele>1018.8</ele>
        <time>2023-02-11T12:12:22.000Z</time>
      </trkpt>
      <trkpt lat="41.674583" lon="-2.160976">
        <ele>1018.6</ele>
        <time>2023-02-11T12:12:23.000Z</time>
      </trkpt>
      <trkpt lat="41.674612" lon="-2.161152">
        <ele>1018.4</ele>
        <time>2023-02-11T12:12:24.000Z</time>
      </trkpt>
      <trkpt lat="41.674644" lon="-2.161328">
        <ele>1018.4</ele>
        <time>2023-02-11T12:12:25.000Z</time>
      </trkpt>
      <trkpt lat="41.674674" lon="-2.161506">
        <ele>1018.2</ele>
        <time>2023-02-11T12:12:26.000Z</time>
      </trkpt>
      <trkpt lat="41.674702" lon="-2.161687">
        <ele>1018</ele>
        <time>2023-02-11T12:12:27.000Z</time>
      </trkpt>
      <trkpt lat="41.67473" lon="-2.161869">
        <ele>1018</ele>
        <time>2023-02-11T12:12:28.000Z</time>
      </trkpt>
      <trkpt lat="41.67476" lon="-2.162049">
        <ele>1017.8</ele>
        <time>2023-02-11T12:12:29.000Z</time>
      </trkpt>
      <trkpt lat="41.674792" lon="-2.162232">
        <ele>1017.8</ele>
        <time>2023-02-11T12:12:30.000Z</time>
      </trkpt>
      <trkpt lat="41.674822" lon="-2.162417">
        <ele>1017.8</ele>
        <time>2023-02-11T12:12:31.000Z</time>
      </trkpt>
      <trkpt lat="41.674848" lon="-2.162602">
        <ele>1017.8</ele>
        <time>2023-02-11T12:12:32.000Z</time>
      </trkpt>
      <trkpt lat="41.67488" lon="-2.162787">
        <ele>1017.6</ele>
        <time>2023-02-11T12:12:33.000Z</time>
      </trkpt>
      <trkpt lat="41.674913" lon="-2.162963">
        <ele>1017.6</ele>
        <time>2023-02-11T12:12:34.000Z</time>
      </trkpt>
      <trkpt lat="41.674945" lon="-2.163147">
        <ele>1017.6</ele>
        <time>2023-02-11T12:12:35.000Z</time>
      </trkpt>
      <trkpt lat="41.674975" lon="-2.163334">
        <ele>1017.6</ele>
        <time>2023-02-11T12:12:36.000Z</time>
      </trkpt>
      <trkpt lat="41.675006" lon="-2.163518">
        <ele>1017.4</ele>
        <time>2023-02-11T12:12:37.000Z</time>
      </trkpt>
      <trkpt lat="41.675038" lon="-2.163703">
        <ele>1017.4</ele>
        <time>2023-02-11T12:12:38.000Z</time>
      </trkpt>
      <trkpt lat="41.675068" lon="-2.16389">
        <ele>1017.4</ele>
        <time>2023-02-11T12:12:39.000Z</time>
      </trkpt>
      <trkpt lat="41.675097" lon="-2.164075">
        <ele>1017.4</ele>
        <time>2023-02-11T12:12:40.000Z</time>
      </trkpt>
      <trkpt lat="41.675126" lon="-2.164261">
        <ele>1017.2</ele>
        <time>2023-02-11T12:12:41.000Z</time>
      </trkpt>
      <trkpt lat="41.675155" lon="-2.164444">
        <ele>1017.2</ele>
        <time>2023-02-11T12:12:42.000Z</time>
      </trkpt>
      <trkpt lat="41.675185" lon="-2.164624">
        <ele>1017.2</ele>
        <time>2023-02-11T12:12:43.000Z</time>
      </trkpt>
      <trkpt lat="41.675216" lon="-2.164801">
        <ele>1017.2</ele>
        <time>2023-02-11T12:12:44.000Z</time>
      </trkpt>
      <trkpt lat="41.675246" lon="-2.164979">
        <ele>1017.4</ele>
        <time>2023-02-11T12:12:45.000Z</time>
      </trkpt>
      <trkpt lat="41.675273" lon="-2.165158">
        <ele>1017.4</ele>
        <time>2023-02-11T12:12:46.000Z</time>
      </trkpt>
      <trkpt lat="41.675299" lon="-2.16534">
        <ele>1017.2</ele>
        <time>2023-02-11T12:12:47.000Z</time>
      </trkpt>
      <trkpt lat="41.675328" lon="-2.165521">
        <ele>1017.2</ele>
        <time>2023-02-11T12:12:48.000Z</time>
      </trkpt>
      <trkpt lat="41.675358" lon="-2.165702">
        <ele>1017.2</ele>
        <time>2023-02-11T12:12:49.000Z</time>
      </trkpt>
      <trkpt lat="41.675389" lon="-2.165882">
        <ele>1017.2</ele>
        <time>2023-02-11T12:12:50.000Z</time>
      </trkpt>
      <trkpt lat="41.675418" lon="-2.166065">
        <ele>1017.2</ele>
        <time>2023-02-11T12:12:51.000Z</time>
      </trkpt>
      <trkpt lat="41.675448" lon="-2.166247">
        <ele>1017.2</ele>
        <time>2023-02-11T12:12:52.000Z</time>
      </trkpt>
      <trkpt lat="41.675478" lon="-2.166429">
        <ele>1017.4</ele>
        <time>2023-02-11T12:12:53.000Z</time>
      </trkpt>
      <trkpt lat="41.675507" lon="-2.166611">
        <ele>1017.4</ele>
        <time>2023-02-11T12:12:54.000Z</time>
      </trkpt>
      <trkpt lat="41.675535" lon="-2.166793">
        <ele>1017.4</ele>
        <time>2023-02-11T12:12:55.000Z</time>
      </trkpt>
      <trkpt lat="41.675562" lon="-2.166975">
        <ele>1017.4</ele>
        <time>2023-02-11T12:12:56.000Z</time>
      </trkpt>
      <trkpt lat="41.67559" lon="-2.167156">
        <ele>1017.4</ele>
        <time>2023-02-11T12:12:57.000Z</time>
      </trkpt>
      <trkpt lat="41.675616" lon="-2.167339">
        <ele>1017.6</ele>
        <time>2023-02-11T12:12:58.000Z</time>
      </trkpt>
      <trkpt lat="41.675641" lon="-2.167521">
        <ele>1017.6</ele>
        <time>2023-02-11T12:12:59.000Z</time>
      </trkpt>
      <trkpt lat="41.675666" lon="-2.167704">
        <ele>1017.6</ele>
        <time>2023-02-11T12:13:00.000Z</time>
      </trkpt>
      <trkpt lat="41.675692" lon="-2.167887">
        <ele>1017.6</ele>
        <time>2023-02-11T12:13:01.000Z</time>
      </trkpt>
      <trkpt lat="41.675719" lon="-2.168068">
        <ele>1017.8</ele>
        <time>2023-02-11T12:13:02.000Z</time>
      </trkpt>
      <trkpt lat="41.67575" lon="-2.168246">
        <ele>1017.8</ele>
        <time>2023-02-11T12:13:03.000Z</time>
      </trkpt>
      <trkpt lat="41.675784" lon="-2.168421">
        <ele>1017.8</ele>
        <time>2023-02-11T12:13:04.000Z</time>
      </trkpt>
      <trkpt lat="41.675815" lon="-2.168601">
        <ele>1018</ele>
        <time>2023-02-11T12:13:05.000Z</time>
      </trkpt>
      <trkpt lat="41.675846" lon="-2.16878">
        <ele>1018</ele>
        <time>2023-02-11T12:13:06.000Z</time>
      </trkpt>
      <trkpt lat="41.675873" lon="-2.168961">
        <ele>1018.2</ele>
        <time>2023-02-11T12:13:07.000Z</time>
      </trkpt>
      <trkpt lat="41.675901" lon="-2.169143">
        <ele>1018.2</ele>
        <time>2023-02-11T12:13:08.000Z</time>
      </trkpt>
      <trkpt lat="41.675928" lon="-2.169321">
        <ele>1018.4</ele>
        <time>2023-02-11T12:13:09.000Z</time>
      </trkpt>
      <trkpt lat="41.675955" lon="-2.169496">
        <ele>1018.6</ele>
        <time>2023-02-11T12:13:10.000Z</time>
      </trkpt>
      <trkpt lat="41.67598" lon="-2.169673">
        <ele>1018.6</ele>
        <time>2023-02-11T12:13:11.000Z</time>
      </trkpt>
      <trkpt lat="41.676007" lon="-2.169849">
        <ele>1018.8</ele>
        <time>2023-02-11T12:13:12.000Z</time>
      </trkpt>
      <trkpt lat="41.676038" lon="-2.170022">
        <ele>1019</ele>
        <time>2023-02-11T12:13:13.000Z</time>
      </trkpt>
      <trkpt lat="41.676069" lon="-2.170195">
        <ele>1019.2</ele>
        <time>2023-02-11T12:13:14.000Z</time>
      </trkpt>
      <trkpt lat="41.676099" lon="-2.170372">
        <ele>1019.4</ele>
        <time>2023-02-11T12:13:15.000Z</time>
      </trkpt>
      <trkpt lat="41.67613" lon="-2.170549">
        <ele>1019.8</ele>
        <time>2023-02-11T12:13:16.000Z</time>
      </trkpt>
      <trkpt lat="41.676162" lon="-2.170726">
        <ele>1019.8</ele>
        <time>2023-02-11T12:13:17.000Z</time>
      </trkpt>
      <trkpt lat="41.676194" lon="-2.170903">
        <ele>1020.2</ele>
        <time>2023-02-11T12:13:18.000Z</time>
      </trkpt>
      <trkpt lat="41.676225" lon="-2.171081">
        <ele>1020.4</ele>
        <time>2023-02-11T12:13:19.000Z</time>
      </trkpt>
      <trkpt lat="41.676256" lon="-2.171259">
        <ele>1021</ele>
        <time>2023-02-11T12:13:20.000Z</time>
      </trkpt>
      <trkpt lat="41.676284" lon="-2.171437">
        <ele>1021.2</ele>
        <time>2023-02-11T12:13:21.000Z</time>
      </trkpt>
      <trkpt lat="41.676312" lon="-2.171617">
        <ele>1021.4</ele>
        <time>2023-02-11T12:13:22.000Z</time>
      </trkpt>
      <trkpt lat="41.676342" lon="-2.171796">
        <ele>1021.6</ele>
        <time>2023-02-11T12:13:23.000Z</time>
      </trkpt>
      <trkpt lat="41.676371" lon="-2.171975">
        <ele>1022.2</ele>
        <time>2023-02-11T12:13:24.000Z</time>
      </trkpt>
      <trkpt lat="41.6764" lon="-2.172154">
        <ele>1022.2</ele>
        <time>2023-02-11T12:13:25.000Z</time>
      </trkpt>
      <trkpt lat="41.676428" lon="-2.172334">
        <ele>1022.4</ele>
        <time>2023-02-11T12:13:26.000Z</time>
      </trkpt>
      <trkpt lat="41.676456" lon="-2.172514">
        <ele>1022.8</ele>
        <time>2023-02-11T12:13:27.000Z</time>
      </trkpt>
      <trkpt lat="41.676486" lon="-2.172692">
        <ele>1023.2</ele>
        <time>2023-02-11T12:13:28.000Z</time>
      </trkpt>
      <trkpt lat="41.676515" lon="-2.172872">
        <ele>1023.6</ele>
        <time>2023-02-11T12:13:29.000Z</time>
      </trkpt>
      <trkpt lat="41.676545" lon="-2.173051">
        <ele>1023.8</ele>
        <time>2023-02-11T12:13:30.000Z</time>
      </trkpt>
      <trkpt lat="41.676576" lon="-2.173228">
        <ele>1024</ele>
        <time>2023-02-11T12:13:31.000Z</time>
      </trkpt>
      <trkpt lat="41.676605" lon="-2.173409">
        <ele>1024.2</ele>
        <time>2023-02-11T12:13:32.000Z</time>
      </trkpt>
      <trkpt lat="41.676633" lon="-2.173589">
        <ele>1024.2</ele>
        <time>2023-02-11T12:13:33.000Z</time>
      </trkpt>
      <trkpt lat="41.676662" lon="-2.173768">
        <ele>1024.4</ele>
        <time>2023-02-11T12:13:34.000Z</time>
      </trkpt>
      <trkpt lat="41.676693" lon="-2.173946">
        <ele>1024.4</ele>
        <time>2023-02-11T12:13:35.000Z</time>
      </trkpt>
      <trkpt lat="41.676724" lon="-2.174122">
        <ele>1024.6</ele>
        <time>2023-02-11T12:13:36.000Z</time>
      </trkpt>
      <trkpt lat="41.676754" lon="-2.174297">
        <ele>1024.6</ele>
        <time>2023-02-11T12:13:37.000Z</time>
      </trkpt>
      <trkpt lat="41.676782" lon="-2.174476">
        <ele>1024.8</ele>
        <time>2023-02-11T12:13:38.000Z</time>
      </trkpt>
      <trkpt lat="41.676808" lon="-2.174656">
        <ele>1024.8</ele>
        <time>2023-02-11T12:13:39.000Z</time>
      </trkpt>
      <trkpt lat="41.676835" lon="-2.174835">
        <ele>1024.8</ele>
        <time>2023-02-11T12:13:40.000Z</time>
      </trkpt>
      <trkpt lat="41.676864" lon="-2.175012">
        <ele>1024.8</ele>
        <time>2023-02-11T12:13:41.000Z</time>
      </trkpt>
      <trkpt lat="41.676892" lon="-2.17519">
        <ele>1024.8</ele>
        <time>2023-02-11T12:13:42.000Z</time>
      </trkpt>
      <trkpt lat="41.67692" lon="-2.175369">
        <ele>1024.8</ele>
        <time>2023-02-11T12:13:43.000Z</time>
      </trkpt>
      <trkpt lat="41.67695" lon="-2.17554">
        <ele>1024.8</ele>
        <time>2023-02-11T12:13:44.000Z</time>
      </trkpt>
      <trkpt lat="41.676978" lon="-2.175718">
        <ele>1024.8</ele>
        <time>2023-02-11T12:13:45.000Z</time>
      </trkpt>
      <trkpt lat="41.677007" lon="-2.175898">
        <ele>1024.8</ele>
        <time>2023-02-11T12:13:46.000Z</time>
      </trkpt>
      <trkpt lat="41.677037" lon="-2.176077">
        <ele>1024.8</ele>
        <time>2023-02-11T12:13:47.000Z</time>
      </trkpt>
      <trkpt lat="41.677067" lon="-2.176256">
        <ele>1024.8</ele>
        <time>2023-02-11T12:13:48.000Z</time>
      </trkpt>
      <trkpt lat="41.677099" lon="-2.176434">
        <ele>1024.8</ele>
        <time>2023-02-11T12:13:49.000Z</time>
      </trkpt>
      <trkpt lat="41.67713" lon="-2.176612">
        <ele>1024.8</ele>
        <time>2023-02-11T12:13:50.000Z</time>
      </trkpt>
      <trkpt lat="41.67716" lon="-2.17679">
        <ele>1025</ele>
        <time>2023-02-11T12:13:51.000Z</time>
      </trkpt>
      <trkpt lat="41.677191" lon="-2.176967">
        <ele>1025</ele>
        <time>2023-02-11T12:13:52.000Z</time>
      </trkpt>
      <trkpt lat="41.677221" lon="-2.177147">
        <ele>1025.2</ele>
        <time>2023-02-11T12:13:53.000Z</time>
      </trkpt>
      <trkpt lat="41.677251" lon="-2.177325">
        <ele>1025.4</ele>
        <time>2023-02-11T12:13:54.000Z</time>
      </trkpt>
      <trkpt lat="41.677283" lon="-2.177498">
        <ele>1025.4</ele>
        <time>2023-02-11T12:13:55.000Z</time>
      </trkpt>
      <trkpt lat="41.677314" lon="-2.177674">
        <ele>1025.6</ele>
        <time>2023-02-11T12:13:56.000Z</time>
      </trkpt>
      <trkpt lat="41.677343" lon="-2.177852">
        <ele>1025.6</ele>
        <time>2023-02-11T12:13:57.000Z</time>
      </trkpt>
      <trkpt lat="41.677373" lon="-2.178029">
        <ele>1025.8</ele>
        <time>2023-02-11T12:13:58.000Z</time>
      </trkpt>
      <trkpt lat="41.677401" lon="-2.178207">
        <ele>1026</ele>
        <time>2023-02-11T12:13:59.000Z</time>
      </trkpt>
      <trkpt lat="41.677431" lon="-2.178385">
        <ele>1026.2</ele>
        <time>2023-02-11T12:14:00.000Z</time>
      </trkpt>
      <trkpt lat="41.677459" lon="-2.178563">
        <ele>1026.2</ele>
        <time>2023-02-11T12:14:01.000Z</time>
      </trkpt>
      <trkpt lat="41.677488" lon="-2.178742">
        <ele>1026.4</ele>
        <time>2023-02-11T12:14:02.000Z</time>
      </trkpt>
      <trkpt lat="41.677516" lon="-2.17892">
        <ele>1026.6</ele>
        <time>2023-02-11T12:14:03.000Z</time>
      </trkpt>
      <trkpt lat="41.677545" lon="-2.179097">
        <ele>1026.8</ele>
        <time>2023-02-11T12:14:04.000Z</time>
      </trkpt>
      <trkpt lat="41.67757" lon="-2.179271">
        <ele>1027.2</ele>
        <time>2023-02-11T12:14:05.000Z</time>
      </trkpt>
      <trkpt lat="41.677598" lon="-2.179448">
        <ele>1027.4</ele>
        <time>2023-02-11T12:14:06.000Z</time>
      </trkpt>
      <trkpt lat="41.677627" lon="-2.179623">
        <ele>1027.8</ele>
        <time>2023-02-11T12:14:07.000Z</time>
      </trkpt>
      <trkpt lat="41.677656" lon="-2.179802">
        <ele>1028</ele>
        <time>2023-02-11T12:14:08.000Z</time>
      </trkpt>
      <trkpt lat="41.677686" lon="-2.17998">
        <ele>1028.4</ele>
        <time>2023-02-11T12:14:09.000Z</time>
      </trkpt>
      <trkpt lat="41.677717" lon="-2.180158">
        <ele>1028.6</ele>
        <time>2023-02-11T12:14:10.000Z</time>
      </trkpt>
      <trkpt lat="41.677747" lon="-2.180338">
        <ele>1028.8</ele>
        <time>2023-02-11T12:14:11.000Z</time>
      </trkpt>
      <trkpt lat="41.677778" lon="-2.180517">
        <ele>1029</ele>
        <time>2023-02-11T12:14:12.000Z</time>
      </trkpt>
      <trkpt lat="41.677809" lon="-2.180691">
        <ele>1029.6</ele>
        <time>2023-02-11T12:14:13.000Z</time>
      </trkpt>
      <trkpt lat="41.677838" lon="-2.180866">
        <ele>1030</ele>
        <time>2023-02-11T12:14:14.000Z</time>
      </trkpt>
      <trkpt lat="41.677865" lon="-2.181042">
        <ele>1030</ele>
        <time>2023-02-11T12:14:15.000Z</time>
      </trkpt>
      <trkpt lat="41.677895" lon="-2.181214">
        <ele>1030.2</ele>
        <time>2023-02-11T12:14:16.000Z</time>
      </trkpt>
      <trkpt lat="41.677924" lon="-2.181391">
        <ele>1030.4</ele>
        <time>2023-02-11T12:14:17.000Z</time>
      </trkpt>
      <trkpt lat="41.677954" lon="-2.181569">
        <ele>1030.8</ele>
        <time>2023-02-11T12:14:18.000Z</time>
      </trkpt>
      <trkpt lat="41.677984" lon="-2.181748">
        <ele>1031</ele>
        <time>2023-02-11T12:14:19.000Z</time>
      </trkpt>
      <trkpt lat="41.678017" lon="-2.181924">
        <ele>1031.4</ele>
        <time>2023-02-11T12:14:20.000Z</time>
      </trkpt>
      <trkpt lat="41.678057" lon="-2.182098">
        <ele>1031.6</ele>
        <time>2023-02-11T12:14:21.000Z</time>
      </trkpt>
      <trkpt lat="41.678106" lon="-2.18227">
        <ele>1031.8</ele>
        <time>2023-02-11T12:14:22.000Z</time>
      </trkpt>
      <trkpt lat="41.678162" lon="-2.182437">
        <ele>1032</ele>
        <time>2023-02-11T12:14:23.000Z</time>
      </trkpt>
      <trkpt lat="41.678223" lon="-2.182602">
        <ele>1032</ele>
        <time>2023-02-11T12:14:24.000Z</time>
      </trkpt>
      <trkpt lat="41.678283" lon="-2.182766">
        <ele>1032.2</ele>
        <time>2023-02-11T12:14:25.000Z</time>
      </trkpt>
      <trkpt lat="41.678341" lon="-2.18293">
        <ele>1032.4</ele>
        <time>2023-02-11T12:14:26.000Z</time>
      </trkpt>
      <trkpt lat="41.678396" lon="-2.183096">
        <ele>1032.4</ele>
        <time>2023-02-11T12:14:27.000Z</time>
      </trkpt>
      <trkpt lat="41.678452" lon="-2.183262">
        <ele>1032.6</ele>
        <time>2023-02-11T12:14:28.000Z</time>
      </trkpt>
      <trkpt lat="41.678509" lon="-2.183429">
        <ele>1032.6</ele>
        <time>2023-02-11T12:14:29.000Z</time>
      </trkpt>
      <trkpt lat="41.678566" lon="-2.183594">
        <ele>1032.6</ele>
        <time>2023-02-11T12:14:30.000Z</time>
      </trkpt>
      <trkpt lat="41.678624" lon="-2.183759">
        <ele>1032.6</ele>
        <time>2023-02-11T12:14:31.000Z</time>
      </trkpt>
      <trkpt lat="41.678683" lon="-2.183922">
        <ele>1032.8</ele>
        <time>2023-02-11T12:14:32.000Z</time>
      </trkpt>
      <trkpt lat="41.678741" lon="-2.184087">
        <ele>1032.8</ele>
        <time>2023-02-11T12:14:33.000Z</time>
      </trkpt>
      <trkpt lat="41.678799" lon="-2.184254">
        <ele>1032.8</ele>
        <time>2023-02-11T12:14:34.000Z</time>
      </trkpt>
      <trkpt lat="41.678857" lon="-2.18442">
        <ele>1032.8</ele>
        <time>2023-02-11T12:14:35.000Z</time>
      </trkpt>
      <trkpt lat="41.678914" lon="-2.184583">
        <ele>1033</ele>
        <time>2023-02-11T12:14:36.000Z</time>
      </trkpt>
      <trkpt lat="41.678971" lon="-2.184747">
        <ele>1033</ele>
        <time>2023-02-11T12:14:37.000Z</time>
      </trkpt>
      <trkpt lat="41.67903" lon="-2.184911">
        <ele>1033.2</ele>
        <time>2023-02-11T12:14:38.000Z</time>
      </trkpt>
      <trkpt lat="41.679085" lon="-2.185077">
        <ele>1033.2</ele>
        <time>2023-02-11T12:14:39.000Z</time>
      </trkpt>
      <trkpt lat="41.679142" lon="-2.185242">
        <ele>1033.4</ele>
        <time>2023-02-11T12:14:40.000Z</time>
      </trkpt>
      <trkpt lat="41.6792" lon="-2.185404">
        <ele>1033.6</ele>
        <time>2023-02-11T12:14:41.000Z</time>
      </trkpt>
      <trkpt lat="41.679259" lon="-2.185567">
        <ele>1033.8</ele>
        <time>2023-02-11T12:14:42.000Z</time>
      </trkpt>
      <trkpt lat="41.679318" lon="-2.185731">
        <ele>1034</ele>
        <time>2023-02-11T12:14:43.000Z</time>
      </trkpt>
      <trkpt lat="41.679376" lon="-2.185893">
        <ele>1034</ele>
        <time>2023-02-11T12:14:44.000Z</time>
      </trkpt>
      <trkpt lat="41.679434" lon="-2.186055">
        <ele>1034.2</ele>
        <time>2023-02-11T12:14:45.000Z</time>
      </trkpt>
      <trkpt lat="41.679491" lon="-2.186214">
        <ele>1034.4</ele>
        <time>2023-02-11T12:14:46.000Z</time>
      </trkpt>
      <trkpt lat="41.679545" lon="-2.186373">
        <ele>1034.4</ele>
        <time>2023-02-11T12:14:47.000Z</time>
      </trkpt>
      <trkpt lat="41.679598" lon="-2.186534">
        <ele>1034.6</ele>
        <time>2023-02-11T12:14:48.000Z</time>
      </trkpt>
      <trkpt lat="41.679652" lon="-2.186694">
        <ele>1034.6</ele>
        <time>2023-02-11T12:14:49.000Z</time>
      </trkpt>
      <trkpt lat="41.679704" lon="-2.186853">
        <ele>1034.6</ele>
        <time>2023-02-11T12:14:50.000Z</time>
      </trkpt>
      <trkpt lat="41.679758" lon="-2.187012">
        <ele>1034.6</ele>
        <time>2023-02-11T12:14:51.000Z</time>
      </trkpt>
      <trkpt lat="41.679811" lon="-2.187172">
        <ele>1034.6</ele>
        <time>2023-02-11T12:14:52.000Z</time>
      </trkpt>
      <trkpt lat="41.679865" lon="-2.187325">
        <ele>1034.6</ele>
        <time>2023-02-11T12:14:53.000Z</time>
      </trkpt>
      <trkpt lat="41.679921" lon="-2.187481">
        <ele>1034.4</ele>
        <time>2023-02-11T12:14:54.000Z</time>
      </trkpt>
      <trkpt lat="41.679976" lon="-2.187639">
        <ele>1034.4</ele>
        <time>2023-02-11T12:14:55.000Z</time>
      </trkpt>
      <trkpt lat="41.68003" lon="-2.187798">
        <ele>1034.2</ele>
        <time>2023-02-11T12:14:56.000Z</time>
      </trkpt>
      <trkpt lat="41.680085" lon="-2.187957">
        <ele>1034.2</ele>
        <time>2023-02-11T12:14:57.000Z</time>
      </trkpt>
      <trkpt lat="41.680142" lon="-2.188113">
        <ele>1034</ele>
        <time>2023-02-11T12:14:58.000Z</time>
      </trkpt>
      <trkpt lat="41.680198" lon="-2.188268">
        <ele>1033.8</ele>
        <time>2023-02-11T12:14:59.000Z</time>
      </trkpt>
      <trkpt lat="41.680256" lon="-2.188423">
        <ele>1033.4</ele>
        <time>2023-02-11T12:15:00.000Z</time>
      </trkpt>
      <trkpt lat="41.680314" lon="-2.188581">
        <ele>1033.2</ele>
        <time>2023-02-11T12:15:01.000Z</time>
      </trkpt>
      <trkpt lat="41.680374" lon="-2.18874">
        <ele>1033</ele>
        <time>2023-02-11T12:15:02.000Z</time>
      </trkpt>
      <trkpt lat="41.680434" lon="-2.188899">
        <ele>1032.8</ele>
        <time>2023-02-11T12:15:03.000Z</time>
      </trkpt>
      <trkpt lat="41.680491" lon="-2.189057">
        <ele>1032.8</ele>
        <time>2023-02-11T12:15:04.000Z</time>
      </trkpt>
      <trkpt lat="41.680546" lon="-2.189212">
        <ele>1032.8</ele>
        <time>2023-02-11T12:15:05.000Z</time>
      </trkpt>
      <trkpt lat="41.680601" lon="-2.189365">
        <ele>1032.8</ele>
        <time>2023-02-11T12:15:06.000Z</time>
      </trkpt>
      <trkpt lat="41.680659" lon="-2.189515">
        <ele>1032.6</ele>
        <time>2023-02-11T12:15:07.000Z</time>
      </trkpt>
      <trkpt lat="41.680716" lon="-2.189665">
        <ele>1032.6</ele>
        <time>2023-02-11T12:15:08.000Z</time>
      </trkpt>
      <trkpt lat="41.68077" lon="-2.189816">
        <ele>1032.6</ele>
        <time>2023-02-11T12:15:09.000Z</time>
      </trkpt>
      <trkpt lat="41.680823" lon="-2.189966">
        <ele>1032.6</ele>
        <time>2023-02-11T12:15:10.000Z</time>
      </trkpt>
      <trkpt lat="41.680876" lon="-2.190113">
        <ele>1032.6</ele>
        <time>2023-02-11T12:15:11.000Z</time>
      </trkpt>
      <trkpt lat="41.680927" lon="-2.19026">
        <ele>1032.6</ele>
        <time>2023-02-11T12:15:12.000Z</time>
      </trkpt>
      <trkpt lat="41.680976" lon="-2.190407">
        <ele>1032.6</ele>
        <time>2023-02-11T12:15:13.000Z</time>
      </trkpt>
      <trkpt lat="41.681026" lon="-2.190553">
        <ele>1032.6</ele>
        <time>2023-02-11T12:15:14.000Z</time>
      </trkpt>
      <trkpt lat="41.681077" lon="-2.190694">
        <ele>1032.6</ele>
        <time>2023-02-11T12:15:15.000Z</time>
      </trkpt>
      <trkpt lat="41.681125" lon="-2.190834">
        <ele>1032.4</ele>
        <time>2023-02-11T12:15:16.000Z</time>
      </trkpt>
      <trkpt lat="41.681169" lon="-2.190972">
        <ele>1032.4</ele>
        <time>2023-02-11T12:15:17.000Z</time>
      </trkpt>
      <trkpt lat="41.681208" lon="-2.191111">
        <ele>1032.2</ele>
        <time>2023-02-11T12:15:18.000Z</time>
      </trkpt>
      <trkpt lat="41.681249" lon="-2.191248">
        <ele>1032.2</ele>
        <time>2023-02-11T12:15:19.000Z</time>
      </trkpt>
      <trkpt lat="41.681293" lon="-2.191382">
        <ele>1032</ele>
        <time>2023-02-11T12:15:20.000Z</time>
      </trkpt>
      <trkpt lat="41.681336" lon="-2.191516">
        <ele>1032</ele>
        <time>2023-02-11T12:15:21.000Z</time>
      </trkpt>
      <trkpt lat="41.68138" lon="-2.191648">
        <ele>1032</ele>
        <time>2023-02-11T12:15:22.000Z</time>
      </trkpt>
      <trkpt lat="41.681422" lon="-2.191777">
        <ele>1031.4</ele>
        <time>2023-02-11T12:15:23.000Z</time>
      </trkpt>
      <trkpt lat="41.681466" lon="-2.191904">
        <ele>1031</ele>
        <time>2023-02-11T12:15:24.000Z</time>
      </trkpt>
      <trkpt lat="41.681509" lon="-2.192031">
        <ele>1030.4</ele>
        <time>2023-02-11T12:15:25.000Z</time>
      </trkpt>
      <trkpt lat="41.681552" lon="-2.19216">
        <ele>1030.2</ele>
        <time>2023-02-11T12:15:26.000Z</time>
      </trkpt>
      <trkpt lat="41.681589" lon="-2.192289">
        <ele>1029.6</ele>
        <time>2023-02-11T12:15:27.000Z</time>
      </trkpt>
      <trkpt lat="41.681619" lon="-2.192425">
        <ele>1029.4</ele>
        <time>2023-02-11T12:15:28.000Z</time>
      </trkpt>
      <trkpt lat="41.681641" lon="-2.192566">
        <ele>1028.8</ele>
        <time>2023-02-11T12:15:29.000Z</time>
      </trkpt>
      <trkpt lat="41.681659" lon="-2.19271">
        <ele>1028.2</ele>
        <time>2023-02-11T12:15:30.000Z</time>
      </trkpt>
      <trkpt lat="41.68167" lon="-2.192859">
        <ele>1028</ele>
        <time>2023-02-11T12:15:31.000Z</time>
      </trkpt>
      <trkpt lat="41.681679" lon="-2.193012">
        <ele>1027.6</ele>
        <time>2023-02-11T12:15:32.000Z</time>
      </trkpt>
      <trkpt lat="41.681694" lon="-2.193159">
        <ele>1027.4</ele>
        <time>2023-02-11T12:15:33.000Z</time>
      </trkpt>
      <trkpt lat="41.681707" lon="-2.193301">
        <ele>1027.2</ele>
        <time>2023-02-11T12:15:34.000Z</time>
      </trkpt>
      <trkpt lat="41.68172" lon="-2.193444">
        <ele>1026.8</ele>
        <time>2023-02-11T12:15:35.000Z</time>
      </trkpt>
      <trkpt lat="41.681732" lon="-2.193584">
        <ele>1026.2</ele>
        <time>2023-02-11T12:15:36.000Z</time>
      </trkpt>
      <trkpt lat="41.681748" lon="-2.193713">
        <ele>1025.8</ele>
        <time>2023-02-11T12:15:37.000Z</time>
      </trkpt>
      <trkpt lat="41.681757" lon="-2.193867">
        <ele>1025.2</ele>
        <time>2023-02-11T12:15:38.000Z</time>
      </trkpt>
      <trkpt lat="41.681765" lon="-2.194023">
        <ele>1025</ele>
        <time>2023-02-11T12:15:39.000Z</time>
      </trkpt>
      <trkpt lat="41.681776" lon="-2.194175">
        <ele>1024.4</ele>
        <time>2023-02-11T12:15:40.000Z</time>
      </trkpt>
      <trkpt lat="41.681789" lon="-2.194321">
        <ele>1024</ele>
        <time>2023-02-11T12:15:41.000Z</time>
      </trkpt>
      <trkpt lat="41.681802" lon="-2.194466">
        <ele>1023.8</ele>
        <time>2023-02-11T12:15:42.000Z</time>
      </trkpt>
      <trkpt lat="41.681814" lon="-2.19461">
        <ele>1023.4</ele>
        <time>2023-02-11T12:15:43.000Z</time>
      </trkpt>
      <trkpt lat="41.681823" lon="-2.194754">
        <ele>1023</ele>
        <time>2023-02-11T12:15:44.000Z</time>
      </trkpt>
      <trkpt lat="41.681835" lon="-2.194897">
        <ele>1022.6</ele>
        <time>2023-02-11T12:15:45.000Z</time>
      </trkpt>
      <trkpt lat="41.681846" lon="-2.195039">
        <ele>1022.4</ele>
        <time>2023-02-11T12:15:46.000Z</time>
      </trkpt>
      <trkpt lat="41.681857" lon="-2.195179">
        <ele>1022.2</ele>
        <time>2023-02-11T12:15:47.000Z</time>
      </trkpt>
      <trkpt lat="41.681872" lon="-2.195313">
        <ele>1022.2</ele>
        <time>2023-02-11T12:15:48.000Z</time>
      </trkpt>
      <trkpt lat="41.681888" lon="-2.195445">
        <ele>1022.2</ele>
        <time>2023-02-11T12:15:49.000Z</time>
      </trkpt>
      <trkpt lat="41.681903" lon="-2.195585">
        <ele>1022</ele>
        <time>2023-02-11T12:15:50.000Z</time>
      </trkpt>
      <trkpt lat="41.681917" lon="-2.195726">
        <ele>1021.8</ele>
        <time>2023-02-11T12:15:51.000Z</time>
      </trkpt>
      <trkpt lat="41.681933" lon="-2.195867">
        <ele>1021.8</ele>
        <time>2023-02-11T12:15:52.000Z</time>
      </trkpt>
      <trkpt lat="41.681946" lon="-2.196005">
        <ele>1021.6</ele>
        <time>2023-02-11T12:15:53.000Z</time>
      </trkpt>
      <trkpt lat="41.681961" lon="-2.19614">
        <ele>1021.4</ele>
        <time>2023-02-11T12:15:54.000Z</time>
      </trkpt>
      <trkpt lat="41.681974" lon="-2.196279">
        <ele>1021.4</ele>
        <time>2023-02-11T12:15:55.000Z</time>
      </trkpt>
      <trkpt lat="41.681986" lon="-2.196416">
        <ele>1021.4</ele>
        <time>2023-02-11T12:15:56.000Z</time>
      </trkpt>
      <trkpt lat="41.681997" lon="-2.196552">
        <ele>1021.2</ele>
        <time>2023-02-11T12:15:57.000Z</time>
      </trkpt>
      <trkpt lat="41.682006" lon="-2.196686">
        <ele>1021</ele>
        <time>2023-02-11T12:15:58.000Z</time>
      </trkpt>
      <trkpt lat="41.68202" lon="-2.196811">
        <ele>1021</ele>
        <time>2023-02-11T12:15:59.000Z</time>
      </trkpt>
      <trkpt lat="41.682032" lon="-2.196934">
        <ele>1021</ele>
        <time>2023-02-11T12:16:00.000Z</time>
      </trkpt>
      <trkpt lat="41.682041" lon="-2.19706">
        <ele>1021</ele>
        <time>2023-02-11T12:16:01.000Z</time>
      </trkpt>
      <trkpt lat="41.68205" lon="-2.197184">
        <ele>1021</ele>
        <time>2023-02-11T12:16:02.000Z</time>
      </trkpt>
      <trkpt lat="41.682058" lon="-2.197304">
        <ele>1021</ele>
        <time>2023-02-11T12:16:03.000Z</time>
      </trkpt>
      <trkpt lat="41.682064" lon="-2.197421">
        <ele>1021</ele>
        <time>2023-02-11T12:16:04.000Z</time>
      </trkpt>
      <trkpt lat="41.682071" lon="-2.197533">
        <ele>1021</ele>
        <time>2023-02-11T12:16:05.000Z</time>
      </trkpt>
      <trkpt lat="41.68208" lon="-2.197634">
        <ele>1021</ele>
        <time>2023-02-11T12:16:06.000Z</time>
      </trkpt>
      <trkpt lat="41.682083" lon="-2.197734">
        <ele>1021.2</ele>
        <time>2023-02-11T12:16:07.000Z</time>
      </trkpt>
      <trkpt lat="41.682082" lon="-2.197831">
        <ele>1021.4</ele>
        <time>2023-02-11T12:16:08.000Z</time>
      </trkpt>
      <trkpt lat="41.682077" lon="-2.197925">
        <ele>1021.6</ele>
        <time>2023-02-11T12:16:09.000Z</time>
      </trkpt>
      <trkpt lat="41.682073" lon="-2.198016">
        <ele>1022.2</ele>
        <time>2023-02-11T12:16:10.000Z</time>
      </trkpt>
      <trkpt lat="41.682068" lon="-2.198098">
        <ele>1022.4</ele>
        <time>2023-02-11T12:16:11.000Z</time>
      </trkpt>
      <trkpt lat="41.682066" lon="-2.198173">
        <ele>1022.6</ele>
        <time>2023-02-11T12:16:12.000Z</time>
      </trkpt>
      <trkpt lat="41.682065" lon="-2.198246">
        <ele>1022.6</ele>
        <time>2023-02-11T12:16:13.000Z</time>
      </trkpt>
      <trkpt lat="41.682066" lon="-2.198315">
        <ele>1022.8</ele>
        <time>2023-02-11T12:16:14.000Z</time>
      </trkpt>
      <trkpt lat="41.68207" lon="-2.198381">
        <ele>1023.2</ele>
        <time>2023-02-11T12:16:15.000Z</time>
      </trkpt>
      <trkpt lat="41.682075" lon="-2.198446">
        <ele>1023.6</ele>
        <time>2023-02-11T12:16:16.000Z</time>
      </trkpt>
      <trkpt lat="41.682082" lon="-2.198516">
        <ele>1023.6</ele>
        <time>2023-02-11T12:16:17.000Z</time>
      </trkpt>
      <trkpt lat="41.68209" lon="-2.198585">
        <ele>1023.8</ele>
        <time>2023-02-11T12:16:18.000Z</time>
      </trkpt>
      <trkpt lat="41.682098" lon="-2.198656">
        <ele>1024</ele>
        <time>2023-02-11T12:16:19.000Z</time>
      </trkpt>
      <trkpt lat="41.682101" lon="-2.198728">
        <ele>1024.4</ele>
        <time>2023-02-11T12:16:20.000Z</time>
      </trkpt>
      <trkpt lat="41.682106" lon="-2.198802">
        <ele>1024.6</ele>
        <time>2023-02-11T12:16:21.000Z</time>
      </trkpt>
      <trkpt lat="41.682107" lon="-2.198875">
        <ele>1024.6</ele>
        <time>2023-02-11T12:16:22.000Z</time>
      </trkpt>
      <trkpt lat="41.682107" lon="-2.198948">
        <ele>1024.8</ele>
        <time>2023-02-11T12:16:23.000Z</time>
      </trkpt>
      <trkpt lat="41.682108" lon="-2.19902">
        <ele>1024.8</ele>
        <time>2023-02-11T12:16:24.000Z</time>
      </trkpt>
      <trkpt lat="41.682111" lon="-2.199089">
        <ele>1025.2</ele>
        <time>2023-02-11T12:16:25.000Z</time>
      </trkpt>
      <trkpt lat="41.682113" lon="-2.199157">
        <ele>1025.2</ele>
        <time>2023-02-11T12:16:26.000Z</time>
      </trkpt>
      <trkpt lat="41.682111" lon="-2.199226">
        <ele>1025.6</ele>
        <time>2023-02-11T12:16:27.000Z</time>
      </trkpt>
      <trkpt lat="41.682109" lon="-2.199289">
        <ele>1025.8</ele>
        <time>2023-02-11T12:16:28.000Z</time>
      </trkpt>
      <trkpt lat="41.682109" lon="-2.199346">
        <ele>1026</ele>
        <time>2023-02-11T12:16:29.000Z</time>
      </trkpt>
      <trkpt lat="41.682108" lon="-2.199402">
        <ele>1026.4</ele>
        <time>2023-02-11T12:16:30.000Z</time>
      </trkpt>
      <trkpt lat="41.68211" lon="-2.199458">
        <ele>1026.4</ele>
        <time>2023-02-11T12:16:31.000Z</time>
      </trkpt>
      <trkpt lat="41.682119" lon="-2.19951">
        <ele>1026.8</ele>
        <time>2023-02-11T12:16:32.000Z</time>
      </trkpt>
      <trkpt lat="41.68213" lon="-2.19956">
        <ele>1026.8</ele>
        <time>2023-02-11T12:16:33.000Z</time>
      </trkpt>
      <trkpt lat="41.682135" lon="-2.199607">
        <ele>1027.2</ele>
        <time>2023-02-11T12:16:34.000Z</time>
      </trkpt>
      <trkpt lat="41.682142" lon="-2.199651">
        <ele>1027.4</ele>
        <time>2023-02-11T12:16:35.000Z</time>
      </trkpt>
      <trkpt lat="41.68215" lon="-2.199705">
        <ele>1027.8</ele>
        <time>2023-02-11T12:16:36.000Z</time>
      </trkpt>
      <trkpt lat="41.682152" lon="-2.199766">
        <ele>1028</ele>
        <time>2023-02-11T12:16:37.000Z</time>
      </trkpt>
      <trkpt lat="41.682159" lon="-2.199826">
        <ele>1028.4</ele>
        <time>2023-02-11T12:16:38.000Z</time>
      </trkpt>
      <trkpt lat="41.682172" lon="-2.199882">
        <ele>1028.6</ele>
        <time>2023-02-11T12:16:39.000Z</time>
      </trkpt>
      <trkpt lat="41.682187" lon="-2.199937">
        <ele>1028.8</ele>
        <time>2023-02-11T12:16:40.000Z</time>
      </trkpt>
      <trkpt lat="41.682205" lon="-2.19999">
        <ele>1029</ele>
        <time>2023-02-11T12:16:41.000Z</time>
      </trkpt>
      <trkpt lat="41.682223" lon="-2.200046">
        <ele>1029.2</ele>
        <time>2023-02-11T12:16:42.000Z</time>
      </trkpt>
      <trkpt lat="41.682245" lon="-2.200106">
        <ele>1029.4</ele>
        <time>2023-02-11T12:16:43.000Z</time>
      </trkpt>
      <trkpt lat="41.682268" lon="-2.200165">
        <ele>1029.4</ele>
        <time>2023-02-11T12:16:44.000Z</time>
      </trkpt>
      <trkpt lat="41.682288" lon="-2.200214">
        <ele>1029.8</ele>
        <time>2023-02-11T12:16:45.000Z</time>
      </trkpt>
      <trkpt lat="41.682306" lon="-2.200267">
        <ele>1029.8</ele>
        <time>2023-02-11T12:16:46.000Z</time>
      </trkpt>
      <trkpt lat="41.682325" lon="-2.20032">
        <ele>1030</ele>
        <time>2023-02-11T12:16:47.000Z</time>
      </trkpt>
      <trkpt lat="41.682343" lon="-2.200377">
        <ele>1030</ele>
        <time>2023-02-11T12:16:48.000Z</time>
      </trkpt>
      <trkpt lat="41.68235" lon="-2.200444">
        <ele>1030.2</ele>
        <time>2023-02-11T12:16:49.000Z</time>
      </trkpt>
      <trkpt lat="41.682367" lon="-2.200502">
        <ele>1030.4</ele>
        <time>2023-02-11T12:16:50.000Z</time>
      </trkpt>
      <trkpt lat="41.682394" lon="-2.200563">
        <ele>1030.4</ele>
        <time>2023-02-11T12:16:51.000Z</time>
      </trkpt>
      <trkpt lat="41.682422" lon="-2.200627">
        <ele>1030.6</ele>
        <time>2023-02-11T12:16:52.000Z</time>
      </trkpt>
      <trkpt lat="41.682435" lon="-2.200698">
        <ele>1030.6</ele>
        <time>2023-02-11T12:16:53.000Z</time>
      </trkpt>
      <trkpt lat="41.682449" lon="-2.200754">
        <ele>1030.8</ele>
        <time>2023-02-11T12:16:54.000Z</time>
      </trkpt>
      <trkpt lat="41.682471" lon="-2.200807">
        <ele>1031</ele>
        <time>2023-02-11T12:16:55.000Z</time>
      </trkpt>
      <trkpt lat="41.682498" lon="-2.200854">
        <ele>1031</ele>
        <time>2023-02-11T12:16:56.000Z</time>
      </trkpt>
      <trkpt lat="41.682522" lon="-2.200908">
        <ele>1031</ele>
        <time>2023-02-11T12:16:57.000Z</time>
      </trkpt>
      <trkpt lat="41.68255" lon="-2.200953">
        <ele>1031.2</ele>
        <time>2023-02-11T12:16:58.000Z</time>
      </trkpt>
      <trkpt lat="41.682579" lon="-2.201008">
        <ele>1031.2</ele>
        <time>2023-02-11T12:16:59.000Z</time>
      </trkpt>
      <trkpt lat="41.682601" lon="-2.201069">
        <ele>1031.2</ele>
        <time>2023-02-11T12:17:00.000Z</time>
      </trkpt>
      <trkpt lat="41.682624" lon="-2.201127">
        <ele>1031.2</ele>
        <time>2023-02-11T12:17:01.000Z</time>
      </trkpt>
      <trkpt lat="41.682649" lon="-2.20118">
        <ele>1031.4</ele>
        <time>2023-02-11T12:17:02.000Z</time>
      </trkpt>
      <trkpt lat="41.682677" lon="-2.201237">
        <ele>1031.4</ele>
        <time>2023-02-11T12:17:03.000Z</time>
      </trkpt>
      <trkpt lat="41.682703" lon="-2.201293">
        <ele>1031.4</ele>
        <time>2023-02-11T12:17:04.000Z</time>
      </trkpt>
      <trkpt lat="41.682729" lon="-2.201347">
        <ele>1031.4</ele>
        <time>2023-02-11T12:17:05.000Z</time>
      </trkpt>
      <trkpt lat="41.682752" lon="-2.201406">
        <ele>1031.4</ele>
        <time>2023-02-11T12:17:06.000Z</time>
      </trkpt>
      <trkpt lat="41.682773" lon="-2.201464">
        <ele>1031.4</ele>
        <time>2023-02-11T12:17:07.000Z</time>
      </trkpt>
      <trkpt lat="41.682795" lon="-2.201525">
        <ele>1031.6</ele>
        <time>2023-02-11T12:17:08.000Z</time>
      </trkpt>
      <trkpt lat="41.682811" lon="-2.201585">
        <ele>1031.6</ele>
        <time>2023-02-11T12:17:09.000Z</time>
      </trkpt>
      <trkpt lat="41.682826" lon="-2.201646">
        <ele>1031.6</ele>
        <time>2023-02-11T12:17:10.000Z</time>
      </trkpt>
      <trkpt lat="41.682847" lon="-2.201702">
        <ele>1031.6</ele>
        <time>2023-02-11T12:17:11.000Z</time>
      </trkpt>
      <trkpt lat="41.682873" lon="-2.201755">
        <ele>1031.6</ele>
        <time>2023-02-11T12:17:12.000Z</time>
      </trkpt>
      <trkpt lat="41.682899" lon="-2.20181">
        <ele>1031.6</ele>
        <time>2023-02-11T12:17:13.000Z</time>
      </trkpt>
      <trkpt lat="41.682923" lon="-2.201859">
        <ele>1031.4</ele>
        <time>2023-02-11T12:17:14.000Z</time>
      </trkpt>
      <trkpt lat="41.682945" lon="-2.201899">
        <ele>1031.4</ele>
        <time>2023-02-11T12:17:15.000Z</time>
      </trkpt>
      <trkpt lat="41.682964" lon="-2.201938">
        <ele>1031.4</ele>
        <time>2023-02-11T12:17:16.000Z</time>
      </trkpt>
      <trkpt lat="41.682981" lon="-2.201971">
        <ele>1031.2</ele>
        <time>2023-02-11T12:17:17.000Z</time>
      </trkpt>
      <trkpt lat="41.682999" lon="-2.201995">
        <ele>1031.2</ele>
        <time>2023-02-11T12:17:18.000Z</time>
      </trkpt>
      <trkpt lat="41.683015" lon="-2.202003">
        <ele>1031.2</ele>
        <time>2023-02-11T12:17:19.000Z</time>
      </trkpt>
      <trkpt lat="41.683018" lon="-2.202008">
        <ele>1031.2</ele>
        <time>2023-02-11T12:17:20.000Z</time>
      </trkpt>
      <trkpt lat="41.683018" lon="-2.202008">
        <ele>1031.2</ele>
        <time>2023-02-11T12:17:21.000Z</time>
      </trkpt>
      <trkpt lat="41.683018" lon="-2.202008">
        <ele>1031.2</ele>
        <time>2023-02-11T12:17:22.000Z</time>
      </trkpt>
      <trkpt lat="41.683031" lon="-2.202028">
        <ele>1029.8</ele>
        <time>2023-02-11T12:18:45.000Z</time>
      </trkpt>
      <trkpt lat="41.683042" lon="-2.202055">
        <ele>1030.2</ele>
        <time>2023-02-11T12:18:46.000Z</time>
      </trkpt>
      <trkpt lat="41.683057" lon="-2.202089">
        <ele>1030.2</ele>
        <time>2023-02-11T12:18:47.000Z</time>
      </trkpt>
      <trkpt lat="41.683079" lon="-2.202129">
        <ele>1030.2</ele>
        <time>2023-02-11T12:18:48.000Z</time>
      </trkpt>
      <trkpt lat="41.683103" lon="-2.202179">
        <ele>1030.2</ele>
        <time>2023-02-11T12:18:49.000Z</time>
      </trkpt>
      <trkpt lat="41.683131" lon="-2.202237">
        <ele>1030.2</ele>
        <time>2023-02-11T12:18:50.000Z</time>
      </trkpt>
      <trkpt lat="41.683164" lon="-2.2023">
        <ele>1030.2</ele>
        <time>2023-02-11T12:18:51.000Z</time>
      </trkpt>
      <trkpt lat="41.683198" lon="-2.202371">
        <ele>1030.4</ele>
        <time>2023-02-11T12:18:52.000Z</time>
      </trkpt>
      <trkpt lat="41.683234" lon="-2.202448">
        <ele>1030.2</ele>
        <time>2023-02-11T12:18:53.000Z</time>
      </trkpt>
      <trkpt lat="41.683272" lon="-2.202525">
        <ele>1030.4</ele>
        <time>2023-02-11T12:18:54.000Z</time>
      </trkpt>
      <trkpt lat="41.683309" lon="-2.202606">
        <ele>1030.4</ele>
        <time>2023-02-11T12:18:55.000Z</time>
      </trkpt>
      <trkpt lat="41.683344" lon="-2.202694">
        <ele>1030.6</ele>
        <time>2023-02-11T12:18:56.000Z</time>
      </trkpt>
      <trkpt lat="41.683378" lon="-2.202786">
        <ele>1030.6</ele>
        <time>2023-02-11T12:18:57.000Z</time>
      </trkpt>
      <trkpt lat="41.683421" lon="-2.202873">
        <ele>1030.6</ele>
        <time>2023-02-11T12:18:58.000Z</time>
      </trkpt>
      <trkpt lat="41.683463" lon="-2.202962">
        <ele>1030.8</ele>
        <time>2023-02-11T12:18:59.000Z</time>
      </trkpt>
      <trkpt lat="41.683498" lon="-2.203057">
        <ele>1030.8</ele>
        <time>2023-02-11T12:19:00.000Z</time>
      </trkpt>
      <trkpt lat="41.683538" lon="-2.203155">
        <ele>1030.8</ele>
        <time>2023-02-11T12:19:01.000Z</time>
      </trkpt>
      <trkpt lat="41.683579" lon="-2.203255">
        <ele>1030.8</ele>
        <time>2023-02-11T12:19:02.000Z</time>
      </trkpt>
      <trkpt lat="41.683622" lon="-2.203358">
        <ele>1030.6</ele>
        <time>2023-02-11T12:19:03.000Z</time>
      </trkpt>
      <trkpt lat="41.683671" lon="-2.203462">
        <ele>1030.6</ele>
        <time>2023-02-11T12:19:04.000Z</time>
      </trkpt>
      <trkpt lat="41.683718" lon="-2.203571">
        <ele>1030.6</ele>
        <time>2023-02-11T12:19:05.000Z</time>
      </trkpt>
      <trkpt lat="41.683766" lon="-2.203674">
        <ele>1030.8</ele>
        <time>2023-02-11T12:19:06.000Z</time>
      </trkpt>
      <trkpt lat="41.683815" lon="-2.20378">
        <ele>1030.6</ele>
        <time>2023-02-11T12:19:07.000Z</time>
      </trkpt>
      <trkpt lat="41.683865" lon="-2.203893">
        <ele>1030.6</ele>
        <time>2023-02-11T12:19:08.000Z</time>
      </trkpt>
      <trkpt lat="41.683915" lon="-2.204014">
        <ele>1030.6</ele>
        <time>2023-02-11T12:19:09.000Z</time>
      </trkpt>
      <trkpt lat="41.683966" lon="-2.204139">
        <ele>1030.4</ele>
        <time>2023-02-11T12:19:10.000Z</time>
      </trkpt>
      <trkpt lat="41.68402" lon="-2.204263">
        <ele>1030.4</ele>
        <time>2023-02-11T12:19:11.000Z</time>
      </trkpt>
      <trkpt lat="41.684074" lon="-2.204389">
        <ele>1030</ele>
        <time>2023-02-11T12:19:12.000Z</time>
      </trkpt>
      <trkpt lat="41.684129" lon="-2.204519">
        <ele>1029.8</ele>
        <time>2023-02-11T12:19:13.000Z</time>
      </trkpt>
      <trkpt lat="41.684188" lon="-2.20465">
        <ele>1029.2</ele>
        <time>2023-02-11T12:19:14.000Z</time>
      </trkpt>
      <trkpt lat="41.684247" lon="-2.204783">
        <ele>1029</ele>
        <time>2023-02-11T12:19:15.000Z</time>
      </trkpt>
      <trkpt lat="41.684303" lon="-2.204921">
        <ele>1028.8</ele>
        <time>2023-02-11T12:19:16.000Z</time>
      </trkpt>
      <trkpt lat="41.684361" lon="-2.205061">
        <ele>1028.6</ele>
        <time>2023-02-11T12:19:17.000Z</time>
      </trkpt>
      <trkpt lat="41.684421" lon="-2.205198">
        <ele>1028.2</ele>
        <time>2023-02-11T12:19:18.000Z</time>
      </trkpt>
      <trkpt lat="41.68448" lon="-2.205335">
        <ele>1027.2</ele>
        <time>2023-02-11T12:19:19.000Z</time>
      </trkpt>
      <trkpt lat="41.684538" lon="-2.20547">
        <ele>1026.8</ele>
        <time>2023-02-11T12:19:20.000Z</time>
      </trkpt>
      <trkpt lat="41.684591" lon="-2.205599">
        <ele>1025.8</ele>
        <time>2023-02-11T12:19:21.000Z</time>
      </trkpt>
      <trkpt lat="41.684639" lon="-2.205722">
        <ele>1025.4</ele>
        <time>2023-02-11T12:19:22.000Z</time>
      </trkpt>
      <trkpt lat="41.684689" lon="-2.205839">
        <ele>1024.8</ele>
        <time>2023-02-11T12:19:23.000Z</time>
      </trkpt>
      <trkpt lat="41.684738" lon="-2.20595">
        <ele>1024.2</ele>
        <time>2023-02-11T12:19:24.000Z</time>
      </trkpt>
      <trkpt lat="41.684785" lon="-2.206056">
        <ele>1024.2</ele>
        <time>2023-02-11T12:19:25.000Z</time>
      </trkpt>
      <trkpt lat="41.684833" lon="-2.206153">
        <ele>1024</ele>
        <time>2023-02-11T12:19:26.000Z</time>
      </trkpt>
      <trkpt lat="41.684879" lon="-2.206252">
        <ele>1024</ele>
        <time>2023-02-11T12:19:27.000Z</time>
      </trkpt>
      <trkpt lat="41.68492" lon="-2.206354">
        <ele>1023.8</ele>
        <time>2023-02-11T12:19:28.000Z</time>
      </trkpt>
      <trkpt lat="41.684961" lon="-2.206457">
        <ele>1023.8</ele>
        <time>2023-02-11T12:19:29.000Z</time>
      </trkpt>
      <trkpt lat="41.685002" lon="-2.206557">
        <ele>1023.8</ele>
        <time>2023-02-11T12:19:30.000Z</time>
      </trkpt>
      <trkpt lat="41.685046" lon="-2.206657">
        <ele>1023.8</ele>
        <time>2023-02-11T12:19:31.000Z</time>
      </trkpt>
      <trkpt lat="41.68509" lon="-2.20676">
        <ele>1023.8</ele>
        <time>2023-02-11T12:19:32.000Z</time>
      </trkpt>
      <trkpt lat="41.685132" lon="-2.206865">
        <ele>1024</ele>
        <time>2023-02-11T12:19:33.000Z</time>
      </trkpt>
      <trkpt lat="41.685175" lon="-2.206969">
        <ele>1024</ele>
        <time>2023-02-11T12:19:34.000Z</time>
      </trkpt>
      <trkpt lat="41.685218" lon="-2.207073">
        <ele>1024</ele>
        <time>2023-02-11T12:19:35.000Z</time>
      </trkpt>
      <trkpt lat="41.685263" lon="-2.207175">
        <ele>1024.2</ele>
        <time>2023-02-11T12:19:36.000Z</time>
      </trkpt>
      <trkpt lat="41.68531" lon="-2.207275">
        <ele>1024.4</ele>
        <time>2023-02-11T12:19:37.000Z</time>
      </trkpt>
      <trkpt lat="41.685355" lon="-2.207378">
        <ele>1024.4</ele>
        <time>2023-02-11T12:19:38.000Z</time>
      </trkpt>
      <trkpt lat="41.685401" lon="-2.207482">
        <ele>1024.6</ele>
        <time>2023-02-11T12:19:39.000Z</time>
      </trkpt>
      <trkpt lat="41.685445" lon="-2.207586">
        <ele>1024.8</ele>
        <time>2023-02-11T12:19:40.000Z</time>
      </trkpt>
      <trkpt lat="41.685489" lon="-2.207689">
        <ele>1025</ele>
        <time>2023-02-11T12:19:41.000Z</time>
      </trkpt>
      <trkpt lat="41.685534" lon="-2.207789">
        <ele>1025</ele>
        <time>2023-02-11T12:19:42.000Z</time>
      </trkpt>
      <trkpt lat="41.685579" lon="-2.20789">
        <ele>1025</ele>
        <time>2023-02-11T12:19:43.000Z</time>
      </trkpt>
      <trkpt lat="41.685626" lon="-2.207989">
        <ele>1025</ele>
        <time>2023-02-11T12:19:44.000Z</time>
      </trkpt>
      <trkpt lat="41.685673" lon="-2.208088">
        <ele>1025</ele>
        <time>2023-02-11T12:19:45.000Z</time>
      </trkpt>
      <trkpt lat="41.685716" lon="-2.208187">
        <ele>1025.2</ele>
        <time>2023-02-11T12:19:46.000Z</time>
      </trkpt>
      <trkpt lat="41.685757" lon="-2.208288">
        <ele>1025.2</ele>
        <time>2023-02-11T12:19:47.000Z</time>
      </trkpt>
      <trkpt lat="41.6858" lon="-2.208388">
        <ele>1025</ele>
        <time>2023-02-11T12:19:48.000Z</time>
      </trkpt>
      <trkpt lat="41.685843" lon="-2.208488">
        <ele>1025</ele>
        <time>2023-02-11T12:19:49.000Z</time>
      </trkpt>
      <trkpt lat="41.685884" lon="-2.208589">
        <ele>1025</ele>
        <time>2023-02-11T12:19:50.000Z</time>
      </trkpt>
      <trkpt lat="41.685926" lon="-2.208689">
        <ele>1025</ele>
        <time>2023-02-11T12:19:51.000Z</time>
      </trkpt>
      <trkpt lat="41.685966" lon="-2.208788">
        <ele>1025</ele>
        <time>2023-02-11T12:19:52.000Z</time>
      </trkpt>
      <trkpt lat="41.686006" lon="-2.208884">
        <ele>1025</ele>
        <time>2023-02-11T12:19:53.000Z</time>
      </trkpt>
      <trkpt lat="41.686047" lon="-2.208977">
        <ele>1025</ele>
        <time>2023-02-11T12:19:54.000Z</time>
      </trkpt>
      <trkpt lat="41.686085" lon="-2.20907">
        <ele>1025</ele>
        <time>2023-02-11T12:19:55.000Z</time>
      </trkpt>
      <trkpt lat="41.686125" lon="-2.209161">
        <ele>1024.8</ele>
        <time>2023-02-11T12:19:56.000Z</time>
      </trkpt>
      <trkpt lat="41.686165" lon="-2.209252">
        <ele>1024.8</ele>
        <time>2023-02-11T12:19:57.000Z</time>
      </trkpt>
      <trkpt lat="41.686206" lon="-2.20934">
        <ele>1024.6</ele>
        <time>2023-02-11T12:19:58.000Z</time>
      </trkpt>
      <trkpt lat="41.686247" lon="-2.209427">
        <ele>1024.6</ele>
        <time>2023-02-11T12:19:59.000Z</time>
      </trkpt>
      <trkpt lat="41.686288" lon="-2.209514">
        <ele>1024.6</ele>
        <time>2023-02-11T12:20:00.000Z</time>
      </trkpt>
      <trkpt lat="41.686327" lon="-2.209603">
        <ele>1024.4</ele>
        <time>2023-02-11T12:20:01.000Z</time>
      </trkpt>
      <trkpt lat="41.686368" lon="-2.209689">
        <ele>1024.4</ele>
        <time>2023-02-11T12:20:02.000Z</time>
      </trkpt>
      <trkpt lat="41.686408" lon="-2.209779">
        <ele>1024.2</ele>
        <time>2023-02-11T12:20:03.000Z</time>
      </trkpt>
      <trkpt lat="41.686446" lon="-2.20987">
        <ele>1024.2</ele>
        <time>2023-02-11T12:20:04.000Z</time>
      </trkpt>
      <trkpt lat="41.686485" lon="-2.209961">
        <ele>1024.4</ele>
        <time>2023-02-11T12:20:05.000Z</time>
      </trkpt>
      <trkpt lat="41.686523" lon="-2.210053">
        <ele>1024.6</ele>
        <time>2023-02-11T12:20:06.000Z</time>
      </trkpt>
      <trkpt lat="41.686561" lon="-2.210143">
        <ele>1024.6</ele>
        <time>2023-02-11T12:20:07.000Z</time>
      </trkpt>
      <trkpt lat="41.686601" lon="-2.210236">
        <ele>1024.8</ele>
        <time>2023-02-11T12:20:08.000Z</time>
      </trkpt>
      <trkpt lat="41.686643" lon="-2.210324">
        <ele>1024.8</ele>
        <time>2023-02-11T12:20:09.000Z</time>
      </trkpt>
      <trkpt lat="41.686684" lon="-2.210416">
        <ele>1025</ele>
        <time>2023-02-11T12:20:10.000Z</time>
      </trkpt>
      <trkpt lat="41.686725" lon="-2.210511">
        <ele>1025</ele>
        <time>2023-02-11T12:20:11.000Z</time>
      </trkpt>
      <trkpt lat="41.686767" lon="-2.210607">
        <ele>1024.8</ele>
        <time>2023-02-11T12:20:12.000Z</time>
      </trkpt>
      <trkpt lat="41.686809" lon="-2.210704">
        <ele>1024.6</ele>
        <time>2023-02-11T12:20:13.000Z</time>
      </trkpt>
      <trkpt lat="41.686854" lon="-2.210804">
        <ele>1024.4</ele>
        <time>2023-02-11T12:20:14.000Z</time>
      </trkpt>
      <trkpt lat="41.686898" lon="-2.210906">
        <ele>1024.6</ele>
        <time>2023-02-11T12:20:15.000Z</time>
      </trkpt>
      <trkpt lat="41.686943" lon="-2.211011">
        <ele>1024.6</ele>
        <time>2023-02-11T12:20:16.000Z</time>
      </trkpt>
      <trkpt lat="41.686988" lon="-2.211117">
        <ele>1024.4</ele>
        <time>2023-02-11T12:20:17.000Z</time>
      </trkpt>
      <trkpt lat="41.687036" lon="-2.211225">
        <ele>1024.4</ele>
        <time>2023-02-11T12:20:18.000Z</time>
      </trkpt>
      <trkpt lat="41.687085" lon="-2.211329">
        <ele>1024.4</ele>
        <time>2023-02-11T12:20:19.000Z</time>
      </trkpt>
      <trkpt lat="41.687134" lon="-2.211429">
        <ele>1024.4</ele>
        <time>2023-02-11T12:20:20.000Z</time>
      </trkpt>
      <trkpt lat="41.687181" lon="-2.211535">
        <ele>1024.2</ele>
        <time>2023-02-11T12:20:21.000Z</time>
      </trkpt>
      <trkpt lat="41.687225" lon="-2.21164">
        <ele>1024</ele>
        <time>2023-02-11T12:20:22.000Z</time>
      </trkpt>
      <trkpt lat="41.687267" lon="-2.211744">
        <ele>1024</ele>
        <time>2023-02-11T12:20:23.000Z</time>
      </trkpt>
      <trkpt lat="41.687308" lon="-2.211845">
        <ele>1024</ele>
        <time>2023-02-11T12:20:24.000Z</time>
      </trkpt>
      <trkpt lat="41.687351" lon="-2.211943">
        <ele>1024</ele>
        <time>2023-02-11T12:20:25.000Z</time>
      </trkpt>
      <trkpt lat="41.687391" lon="-2.212041">
        <ele>1024</ele>
        <time>2023-02-11T12:20:26.000Z</time>
      </trkpt>
      <trkpt lat="41.68743" lon="-2.212135">
        <ele>1024</ele>
        <time>2023-02-11T12:20:27.000Z</time>
      </trkpt>
      <trkpt lat="41.687471" lon="-2.212225">
        <ele>1024</ele>
        <time>2023-02-11T12:20:28.000Z</time>
      </trkpt>
      <trkpt lat="41.687508" lon="-2.212313">
        <ele>1024</ele>
        <time>2023-02-11T12:20:29.000Z</time>
      </trkpt>
      <trkpt lat="41.687545" lon="-2.212398">
        <ele>1024.4</ele>
        <time>2023-02-11T12:20:30.000Z</time>
      </trkpt>
      <trkpt lat="41.687578" lon="-2.212481">
        <ele>1024.6</ele>
        <time>2023-02-11T12:20:31.000Z</time>
      </trkpt>
      <trkpt lat="41.687614" lon="-2.21256">
        <ele>1024.8</ele>
        <time>2023-02-11T12:20:32.000Z</time>
      </trkpt>
      <trkpt lat="41.68765" lon="-2.212636">
        <ele>1025</ele>
        <time>2023-02-11T12:20:33.000Z</time>
      </trkpt>
      <trkpt lat="41.687685" lon="-2.212712">
        <ele>1025.2</ele>
        <time>2023-02-11T12:20:34.000Z</time>
      </trkpt>
      <trkpt lat="41.68772" lon="-2.212786">
        <ele>1025.4</ele>
        <time>2023-02-11T12:20:35.000Z</time>
      </trkpt>
      <trkpt lat="41.687753" lon="-2.212856">
        <ele>1025.6</ele>
        <time>2023-02-11T12:20:36.000Z</time>
      </trkpt>
      <trkpt lat="41.687783" lon="-2.212929">
        <ele>1026</ele>
        <time>2023-02-11T12:20:37.000Z</time>
      </trkpt>
      <trkpt lat="41.687811" lon="-2.213006">
        <ele>1026.2</ele>
        <time>2023-02-11T12:20:38.000Z</time>
      </trkpt>
      <trkpt lat="41.687843" lon="-2.213084">
        <ele>1026.8</ele>
        <time>2023-02-11T12:20:39.000Z</time>
      </trkpt>
      <trkpt lat="41.687875" lon="-2.213161">
        <ele>1027</ele>
        <time>2023-02-11T12:20:40.000Z</time>
      </trkpt>
      <trkpt lat="41.687906" lon="-2.213234">
        <ele>1027.6</ele>
        <time>2023-02-11T12:20:41.000Z</time>
      </trkpt>
      <trkpt lat="41.687938" lon="-2.213309">
        <ele>1028.2</ele>
        <time>2023-02-11T12:20:42.000Z</time>
      </trkpt>
      <trkpt lat="41.687971" lon="-2.213382">
        <ele>1028.4</ele>
        <time>2023-02-11T12:20:43.000Z</time>
      </trkpt>
      <trkpt lat="41.688002" lon="-2.213448">
        <ele>1028.8</ele>
        <time>2023-02-11T12:20:44.000Z</time>
      </trkpt>
      <trkpt lat="41.688035" lon="-2.213514">
        <ele>1028.8</ele>
        <time>2023-02-11T12:20:45.000Z</time>
      </trkpt>
      <trkpt lat="41.688066" lon="-2.213584">
        <ele>1029.2</ele>
        <time>2023-02-11T12:20:46.000Z</time>
      </trkpt>
      <trkpt lat="41.688095" lon="-2.213655">
        <ele>1029.6</ele>
        <time>2023-02-11T12:20:47.000Z</time>
      </trkpt>
      <trkpt lat="41.688124" lon="-2.213726">
        <ele>1030.2</ele>
        <time>2023-02-11T12:20:48.000Z</time>
      </trkpt>
      <trkpt lat="41.688155" lon="-2.213794">
        <ele>1030.4</ele>
        <time>2023-02-11T12:20:49.000Z</time>
      </trkpt>
      <trkpt lat="41.688182" lon="-2.213862">
        <ele>1030.6</ele>
        <time>2023-02-11T12:20:50.000Z</time>
      </trkpt>
      <trkpt lat="41.688209" lon="-2.213928">
        <ele>1031.2</ele>
        <time>2023-02-11T12:20:51.000Z</time>
      </trkpt>
      <trkpt lat="41.688241" lon="-2.213988">
        <ele>1031.4</ele>
        <time>2023-02-11T12:20:52.000Z</time>
      </trkpt>
      <trkpt lat="41.688272" lon="-2.214047">
        <ele>1031.8</ele>
        <time>2023-02-11T12:20:53.000Z</time>
      </trkpt>
      <trkpt lat="41.688298" lon="-2.21411">
        <ele>1032</ele>
        <time>2023-02-11T12:20:54.000Z</time>
      </trkpt>
      <trkpt lat="41.688323" lon="-2.214174">
        <ele>1032.2</ele>
        <time>2023-02-11T12:20:55.000Z</time>
      </trkpt>
      <trkpt lat="41.688348" lon="-2.214237">
        <ele>1032.4</ele>
        <time>2023-02-11T12:20:56.000Z</time>
      </trkpt>
      <trkpt lat="41.688376" lon="-2.214301">
        <ele>1033</ele>
        <time>2023-02-11T12:20:57.000Z</time>
      </trkpt>
      <trkpt lat="41.688402" lon="-2.214364">
        <ele>1033.2</ele>
        <time>2023-02-11T12:20:58.000Z</time>
      </trkpt>
      <trkpt lat="41.688429" lon="-2.214428">
        <ele>1033.6</ele>
        <time>2023-02-11T12:20:59.000Z</time>
      </trkpt>
      <trkpt lat="41.688456" lon="-2.214494">
        <ele>1034.2</ele>
        <time>2023-02-11T12:21:00.000Z</time>
      </trkpt>
      <trkpt lat="41.688479" lon="-2.21456">
        <ele>1034.4</ele>
        <time>2023-02-11T12:21:01.000Z</time>
      </trkpt>
      <trkpt lat="41.6885" lon="-2.214626">
        <ele>1034.6</ele>
        <time>2023-02-11T12:21:02.000Z</time>
      </trkpt>
      <trkpt lat="41.688524" lon="-2.214692">
        <ele>1034.6</ele>
        <time>2023-02-11T12:21:03.000Z</time>
      </trkpt>
      <trkpt lat="41.688551" lon="-2.214757">
        <ele>1035</ele>
        <time>2023-02-11T12:21:04.000Z</time>
      </trkpt>
      <trkpt lat="41.688579" lon="-2.214824">
        <ele>1035.2</ele>
        <time>2023-02-11T12:21:05.000Z</time>
      </trkpt>
      <trkpt lat="41.688606" lon="-2.214891">
        <ele>1035.6</ele>
        <time>2023-02-11T12:21:06.000Z</time>
      </trkpt>
      <trkpt lat="41.688632" lon="-2.214956">
        <ele>1035.8</ele>
        <time>2023-02-11T12:21:07.000Z</time>
      </trkpt>
      <trkpt lat="41.688661" lon="-2.215022">
        <ele>1036.2</ele>
        <time>2023-02-11T12:21:08.000Z</time>
      </trkpt>
      <trkpt lat="41.68869" lon="-2.215091">
        <ele>1036.4</ele>
        <time>2023-02-11T12:21:09.000Z</time>
      </trkpt>
      <trkpt lat="41.688713" lon="-2.215164">
        <ele>1036.4</ele>
        <time>2023-02-11T12:21:10.000Z</time>
      </trkpt>
      <trkpt lat="41.688744" lon="-2.215232">
        <ele>1036.4</ele>
        <time>2023-02-11T12:21:11.000Z</time>
      </trkpt>
      <trkpt lat="41.688773" lon="-2.2153">
        <ele>1036.6</ele>
        <time>2023-02-11T12:21:12.000Z</time>
      </trkpt>
      <trkpt lat="41.688803" lon="-2.215369">
        <ele>1036.8</ele>
        <time>2023-02-11T12:21:13.000Z</time>
      </trkpt>
      <trkpt lat="41.688835" lon="-2.21544">
        <ele>1037</ele>
        <time>2023-02-11T12:21:14.000Z</time>
      </trkpt>
      <trkpt lat="41.688864" lon="-2.21551">
        <ele>1037.4</ele>
        <time>2023-02-11T12:21:15.000Z</time>
      </trkpt>
      <trkpt lat="41.688896" lon="-2.215576">
        <ele>1037.4</ele>
        <time>2023-02-11T12:21:16.000Z</time>
      </trkpt>
      <trkpt lat="41.688927" lon="-2.21564">
        <ele>1037.6</ele>
        <time>2023-02-11T12:21:17.000Z</time>
      </trkpt>
      <trkpt lat="41.688959" lon="-2.215708">
        <ele>1037.8</ele>
        <time>2023-02-11T12:21:18.000Z</time>
      </trkpt>
      <trkpt lat="41.688991" lon="-2.215779">
        <ele>1038</ele>
        <time>2023-02-11T12:21:19.000Z</time>
      </trkpt>
      <trkpt lat="41.689022" lon="-2.215849">
        <ele>1038.2</ele>
        <time>2023-02-11T12:21:20.000Z</time>
      </trkpt>
      <trkpt lat="41.689053" lon="-2.21592">
        <ele>1038.2</ele>
        <time>2023-02-11T12:21:21.000Z</time>
      </trkpt>
      <trkpt lat="41.689083" lon="-2.21599">
        <ele>1038.4</ele>
        <time>2023-02-11T12:21:22.000Z</time>
      </trkpt>
      <trkpt lat="41.689113" lon="-2.216063">
        <ele>1038.4</ele>
        <time>2023-02-11T12:21:23.000Z</time>
      </trkpt>
      <trkpt lat="41.689142" lon="-2.216137">
        <ele>1038.4</ele>
        <time>2023-02-11T12:21:24.000Z</time>
      </trkpt>
      <trkpt lat="41.689174" lon="-2.21621">
        <ele>1038.4</ele>
        <time>2023-02-11T12:21:25.000Z</time>
      </trkpt>
      <trkpt lat="41.689208" lon="-2.216279">
        <ele>1038.6</ele>
        <time>2023-02-11T12:21:26.000Z</time>
      </trkpt>
      <trkpt lat="41.689241" lon="-2.216353">
        <ele>1038.6</ele>
        <time>2023-02-11T12:21:27.000Z</time>
      </trkpt>
      <trkpt lat="41.689274" lon="-2.216428">
        <ele>1038.6</ele>
        <time>2023-02-11T12:21:28.000Z</time>
      </trkpt>
      <trkpt lat="41.689306" lon="-2.216505">
        <ele>1038.8</ele>
        <time>2023-02-11T12:21:29.000Z</time>
      </trkpt>
      <trkpt lat="41.689339" lon="-2.216584">
        <ele>1038.8</ele>
        <time>2023-02-11T12:21:30.000Z</time>
      </trkpt>
      <trkpt lat="41.689366" lon="-2.216665">
        <ele>1039</ele>
        <time>2023-02-11T12:21:31.000Z</time>
      </trkpt>
      <trkpt lat="41.689399" lon="-2.216748">
        <ele>1039</ele>
        <time>2023-02-11T12:21:32.000Z</time>
      </trkpt>
      <trkpt lat="41.689433" lon="-2.216831">
        <ele>1039</ele>
        <time>2023-02-11T12:21:33.000Z</time>
      </trkpt>
      <trkpt lat="41.689468" lon="-2.216915">
        <ele>1039.2</ele>
        <time>2023-02-11T12:21:34.000Z</time>
      </trkpt>
      <trkpt lat="41.689505" lon="-2.217">
        <ele>1039.4</ele>
        <time>2023-02-11T12:21:35.000Z</time>
      </trkpt>
      <trkpt lat="41.689543" lon="-2.217086">
        <ele>1039.4</ele>
        <time>2023-02-11T12:21:36.000Z</time>
      </trkpt>
      <trkpt lat="41.689581" lon="-2.217172">
        <ele>1039.4</ele>
        <time>2023-02-11T12:21:37.000Z</time>
      </trkpt>
      <trkpt lat="41.689622" lon="-2.217254">
        <ele>1039.4</ele>
        <time>2023-02-11T12:21:38.000Z</time>
      </trkpt>
      <trkpt lat="41.689659" lon="-2.217344">
        <ele>1039.4</ele>
        <time>2023-02-11T12:21:39.000Z</time>
      </trkpt>
      <trkpt lat="41.689698" lon="-2.217434">
        <ele>1039.4</ele>
        <time>2023-02-11T12:21:40.000Z</time>
      </trkpt>
      <trkpt lat="41.689737" lon="-2.217526">
        <ele>1039.2</ele>
        <time>2023-02-11T12:21:41.000Z</time>
      </trkpt>
      <trkpt lat="41.689774" lon="-2.217621">
        <ele>1039.2</ele>
        <time>2023-02-11T12:21:42.000Z</time>
      </trkpt>
      <trkpt lat="41.689814" lon="-2.217715">
        <ele>1039.2</ele>
        <time>2023-02-11T12:21:43.000Z</time>
      </trkpt>
      <trkpt lat="41.689854" lon="-2.217813">
        <ele>1039.2</ele>
        <time>2023-02-11T12:21:44.000Z</time>
      </trkpt>
      <trkpt lat="41.689895" lon="-2.217913">
        <ele>1039.2</ele>
        <time>2023-02-11T12:21:45.000Z</time>
      </trkpt>
      <trkpt lat="41.689937" lon="-2.218014">
        <ele>1038.8</ele>
        <time>2023-02-11T12:21:46.000Z</time>
      </trkpt>
      <trkpt lat="41.689983" lon="-2.218114">
        <ele>1038.6</ele>
        <time>2023-02-11T12:21:47.000Z</time>
      </trkpt>
      <trkpt lat="41.69003" lon="-2.218218">
        <ele>1038.4</ele>
        <time>2023-02-11T12:21:48.000Z</time>
      </trkpt>
      <trkpt lat="41.690077" lon="-2.218323">
        <ele>1038.2</ele>
        <time>2023-02-11T12:21:49.000Z</time>
      </trkpt>
      <trkpt lat="41.690125" lon="-2.218429">
        <ele>1038</ele>
        <time>2023-02-11T12:21:50.000Z</time>
      </trkpt>
      <trkpt lat="41.690174" lon="-2.21854">
        <ele>1037.6</ele>
        <time>2023-02-11T12:21:51.000Z</time>
      </trkpt>
      <trkpt lat="41.690225" lon="-2.218654">
        <ele>1037.6</ele>
        <time>2023-02-11T12:21:52.000Z</time>
      </trkpt>
      <trkpt lat="41.690275" lon="-2.21877">
        <ele>1037.2</ele>
        <time>2023-02-11T12:21:53.000Z</time>
      </trkpt>
      <trkpt lat="41.690327" lon="-2.218888">
        <ele>1037.2</ele>
        <time>2023-02-11T12:21:54.000Z</time>
      </trkpt>
      <trkpt lat="41.69038" lon="-2.21901">
        <ele>1036.8</ele>
        <time>2023-02-11T12:21:55.000Z</time>
      </trkpt>
      <trkpt lat="41.690433" lon="-2.219133">
        <ele>1036.8</ele>
        <time>2023-02-11T12:21:56.000Z</time>
      </trkpt>
      <trkpt lat="41.690487" lon="-2.219258">
        <ele>1036.6</ele>
        <time>2023-02-11T12:21:57.000Z</time>
      </trkpt>
      <trkpt lat="41.690539" lon="-2.219386">
        <ele>1036</ele>
        <time>2023-02-11T12:21:58.000Z</time>
      </trkpt>
      <trkpt lat="41.690593" lon="-2.219516">
        <ele>1035.6</ele>
        <time>2023-02-11T12:21:59.000Z</time>
      </trkpt>
      <trkpt lat="41.690647" lon="-2.219648">
        <ele>1035.2</ele>
        <time>2023-02-11T12:22:00.000Z</time>
      </trkpt>
      <trkpt lat="41.690703" lon="-2.219781">
        <ele>1034.8</ele>
        <time>2023-02-11T12:22:01.000Z</time>
      </trkpt>
      <trkpt lat="41.690761" lon="-2.219914">
        <ele>1034.2</ele>
        <time>2023-02-11T12:22:02.000Z</time>
      </trkpt>
      <trkpt lat="41.690819" lon="-2.220047">
        <ele>1034</ele>
        <time>2023-02-11T12:22:03.000Z</time>
      </trkpt>
      <trkpt lat="41.690877" lon="-2.220178">
        <ele>1033.6</ele>
        <time>2023-02-11T12:22:04.000Z</time>
      </trkpt>
      <trkpt lat="41.690931" lon="-2.220312">
        <ele>1033.4</ele>
        <time>2023-02-11T12:22:05.000Z</time>
      </trkpt>
      <trkpt lat="41.690988" lon="-2.220448">
        <ele>1033</ele>
        <time>2023-02-11T12:22:06.000Z</time>
      </trkpt>
      <trkpt lat="41.691042" lon="-2.220587">
        <ele>1032.8</ele>
        <time>2023-02-11T12:22:07.000Z</time>
      </trkpt>
      <trkpt lat="41.691099" lon="-2.220724">
        <ele>1032.4</ele>
        <time>2023-02-11T12:22:08.000Z</time>
      </trkpt>
      <trkpt lat="41.691159" lon="-2.220859">
        <ele>1032</ele>
        <time>2023-02-11T12:22:09.000Z</time>
      </trkpt>
      <trkpt lat="41.691216" lon="-2.220996">
        <ele>1031.8</ele>
        <time>2023-02-11T12:22:10.000Z</time>
      </trkpt>
      <trkpt lat="41.691275" lon="-2.22113">
        <ele>1031.4</ele>
        <time>2023-02-11T12:22:11.000Z</time>
      </trkpt>
      <trkpt lat="41.691333" lon="-2.221266">
        <ele>1031</ele>
        <time>2023-02-11T12:22:12.000Z</time>
      </trkpt>
      <trkpt lat="41.691391" lon="-2.221404">
        <ele>1030.4</ele>
        <time>2023-02-11T12:22:13.000Z</time>
      </trkpt>
      <trkpt lat="41.69145" lon="-2.22154">
        <ele>1030.4</ele>
        <time>2023-02-11T12:22:14.000Z</time>
      </trkpt>
      <trkpt lat="41.691507" lon="-2.221675">
        <ele>1030.2</ele>
        <time>2023-02-11T12:22:15.000Z</time>
      </trkpt>
      <trkpt lat="41.691568" lon="-2.221808">
        <ele>1030</ele>
        <time>2023-02-11T12:22:16.000Z</time>
      </trkpt>
      <trkpt lat="41.691628" lon="-2.22194">
        <ele>1030</ele>
        <time>2023-02-11T12:22:17.000Z</time>
      </trkpt>
      <trkpt lat="41.691685" lon="-2.222072">
        <ele>1029.6</ele>
        <time>2023-02-11T12:22:18.000Z</time>
      </trkpt>
      <trkpt lat="41.691742" lon="-2.222205">
        <ele>1029.4</ele>
        <time>2023-02-11T12:22:19.000Z</time>
      </trkpt>
      <trkpt lat="41.691799" lon="-2.222337">
        <ele>1029.2</ele>
        <time>2023-02-11T12:22:20.000Z</time>
      </trkpt>
      <trkpt lat="41.691858" lon="-2.222468">
        <ele>1029.2</ele>
        <time>2023-02-11T12:22:21.000Z</time>
      </trkpt>
      <trkpt lat="41.691915" lon="-2.222598">
        <ele>1028.8</ele>
        <time>2023-02-11T12:22:22.000Z</time>
      </trkpt>
      <trkpt lat="41.691971" lon="-2.222727">
        <ele>1028.4</ele>
        <time>2023-02-11T12:22:23.000Z</time>
      </trkpt>
      <trkpt lat="41.692026" lon="-2.222856">
        <ele>1028.2</ele>
        <time>2023-02-11T12:22:24.000Z</time>
      </trkpt>
      <trkpt lat="41.69208" lon="-2.222985">
        <ele>1028</ele>
        <time>2023-02-11T12:22:25.000Z</time>
      </trkpt>
      <trkpt lat="41.692137" lon="-2.22311">
        <ele>1027.8</ele>
        <time>2023-02-11T12:22:26.000Z</time>
      </trkpt>
      <trkpt lat="41.692194" lon="-2.223237">
        <ele>1027.8</ele>
        <time>2023-02-11T12:22:27.000Z</time>
      </trkpt>
      <trkpt lat="41.692249" lon="-2.223363">
        <ele>1027.4</ele>
        <time>2023-02-11T12:22:28.000Z</time>
      </trkpt>
      <trkpt lat="41.692302" lon="-2.223488">
        <ele>1027</ele>
        <time>2023-02-11T12:22:29.000Z</time>
      </trkpt>
      <trkpt lat="41.692357" lon="-2.223614">
        <ele>1026.8</ele>
        <time>2023-02-11T12:22:30.000Z</time>
      </trkpt>
      <trkpt lat="41.692414" lon="-2.223739">
        <ele>1026.4</ele>
        <time>2023-02-11T12:22:31.000Z</time>
      </trkpt>
      <trkpt lat="41.692474" lon="-2.223863">
        <ele>1026.4</ele>
        <time>2023-02-11T12:22:32.000Z</time>
      </trkpt>
      <trkpt lat="41.692534" lon="-2.223989">
        <ele>1026.2</ele>
        <time>2023-02-11T12:22:33.000Z</time>
      </trkpt>
      <trkpt lat="41.692591" lon="-2.224116">
        <ele>1026</ele>
        <time>2023-02-11T12:22:34.000Z</time>
      </trkpt>
      <trkpt lat="41.692646" lon="-2.224241">
        <ele>1025.8</ele>
        <time>2023-02-11T12:22:35.000Z</time>
      </trkpt>
      <trkpt lat="41.692702" lon="-2.224365">
        <ele>1025.8</ele>
        <time>2023-02-11T12:22:36.000Z</time>
      </trkpt>
      <trkpt lat="41.692757" lon="-2.22449">
        <ele>1025.6</ele>
        <time>2023-02-11T12:22:37.000Z</time>
      </trkpt>
      <trkpt lat="41.692814" lon="-2.224615">
        <ele>1025.6</ele>
        <time>2023-02-11T12:22:38.000Z</time>
      </trkpt>
      <trkpt lat="41.692867" lon="-2.22474">
        <ele>1025.4</ele>
        <time>2023-02-11T12:22:39.000Z</time>
      </trkpt>
      <trkpt lat="41.692919" lon="-2.224862">
        <ele>1025.2</ele>
        <time>2023-02-11T12:22:40.000Z</time>
      </trkpt>
      <trkpt lat="41.69297" lon="-2.224985">
        <ele>1025</ele>
        <time>2023-02-11T12:22:41.000Z</time>
      </trkpt>
      <trkpt lat="41.693025" lon="-2.225106">
        <ele>1024.8</ele>
        <time>2023-02-11T12:22:42.000Z</time>
      </trkpt>
      <trkpt lat="41.693077" lon="-2.225225">
        <ele>1024.8</ele>
        <time>2023-02-11T12:22:43.000Z</time>
      </trkpt>
      <trkpt lat="41.693128" lon="-2.225344">
        <ele>1024.6</ele>
        <time>2023-02-11T12:22:44.000Z</time>
      </trkpt>
      <trkpt lat="41.693178" lon="-2.225464">
        <ele>1024.6</ele>
        <time>2023-02-11T12:22:45.000Z</time>
      </trkpt>
      <trkpt lat="41.693229" lon="-2.225585">
        <ele>1024.6</ele>
        <time>2023-02-11T12:22:46.000Z</time>
      </trkpt>
      <trkpt lat="41.693282" lon="-2.225707">
        <ele>1024.6</ele>
        <time>2023-02-11T12:22:47.000Z</time>
      </trkpt>
      <trkpt lat="41.693335" lon="-2.225829">
        <ele>1024.6</ele>
        <time>2023-02-11T12:22:48.000Z</time>
      </trkpt>
      <trkpt lat="41.693386" lon="-2.225952">
        <ele>1024.6</ele>
        <time>2023-02-11T12:22:49.000Z</time>
      </trkpt>
      <trkpt lat="41.693436" lon="-2.226077">
        <ele>1024.6</ele>
        <time>2023-02-11T12:22:50.000Z</time>
      </trkpt>
      <trkpt lat="41.693491" lon="-2.226198">
        <ele>1024.4</ele>
        <time>2023-02-11T12:22:51.000Z</time>
      </trkpt>
      <trkpt lat="41.693544" lon="-2.226323">
        <ele>1024.4</ele>
        <time>2023-02-11T12:22:52.000Z</time>
      </trkpt>
      <trkpt lat="41.693597" lon="-2.226448">
        <ele>1024.4</ele>
        <time>2023-02-11T12:22:53.000Z</time>
      </trkpt>
      <trkpt lat="41.693651" lon="-2.226573">
        <ele>1024.4</ele>
        <time>2023-02-11T12:22:54.000Z</time>
      </trkpt>
      <trkpt lat="41.693703" lon="-2.226698">
        <ele>1024.2</ele>
        <time>2023-02-11T12:22:55.000Z</time>
      </trkpt>
      <trkpt lat="41.693755" lon="-2.226822">
        <ele>1024.2</ele>
        <time>2023-02-11T12:22:56.000Z</time>
      </trkpt>
      <trkpt lat="41.693805" lon="-2.226944">
        <ele>1024.2</ele>
        <time>2023-02-11T12:22:57.000Z</time>
      </trkpt>
      <trkpt lat="41.693857" lon="-2.227064">
        <ele>1024</ele>
        <time>2023-02-11T12:22:58.000Z</time>
      </trkpt>
      <trkpt lat="41.69391" lon="-2.227181">
        <ele>1024</ele>
        <time>2023-02-11T12:22:59.000Z</time>
      </trkpt>
      <trkpt lat="41.693961" lon="-2.227296">
        <ele>1024</ele>
        <time>2023-02-11T12:23:00.000Z</time>
      </trkpt>
      <trkpt lat="41.694011" lon="-2.227413">
        <ele>1024</ele>
        <time>2023-02-11T12:23:01.000Z</time>
      </trkpt>
      <trkpt lat="41.694059" lon="-2.227531">
        <ele>1024</ele>
        <time>2023-02-11T12:23:02.000Z</time>
      </trkpt>
      <trkpt lat="41.694108" lon="-2.227648">
        <ele>1024</ele>
        <time>2023-02-11T12:23:03.000Z</time>
      </trkpt>
      <trkpt lat="41.694158" lon="-2.227764">
        <ele>1024</ele>
        <time>2023-02-11T12:23:04.000Z</time>
      </trkpt>
      <trkpt lat="41.694209" lon="-2.227877">
        <ele>1024</ele>
        <time>2023-02-11T12:23:05.000Z</time>
      </trkpt>
      <trkpt lat="41.69426" lon="-2.227989">
        <ele>1024</ele>
        <time>2023-02-11T12:23:06.000Z</time>
      </trkpt>
      <trkpt lat="41.694312" lon="-2.228099">
        <ele>1024</ele>
        <time>2023-02-11T12:23:07.000Z</time>
      </trkpt>
      <trkpt lat="41.694361" lon="-2.22821">
        <ele>1024</ele>
        <time>2023-02-11T12:23:08.000Z</time>
      </trkpt>
      <trkpt lat="41.694409" lon="-2.22832">
        <ele>1024</ele>
        <time>2023-02-11T12:23:09.000Z</time>
      </trkpt>
      <trkpt lat="41.694457" lon="-2.228429">
        <ele>1024</ele>
        <time>2023-02-11T12:23:10.000Z</time>
      </trkpt>
      <trkpt lat="41.694505" lon="-2.228536">
        <ele>1024.2</ele>
        <time>2023-02-11T12:23:11.000Z</time>
      </trkpt>
      <trkpt lat="41.694555" lon="-2.228642">
        <ele>1024.2</ele>
        <time>2023-02-11T12:23:12.000Z</time>
      </trkpt>
      <trkpt lat="41.694604" lon="-2.228745">
        <ele>1024.2</ele>
        <time>2023-02-11T12:23:13.000Z</time>
      </trkpt>
      <trkpt lat="41.694649" lon="-2.228847">
        <ele>1024.2</ele>
        <time>2023-02-11T12:23:14.000Z</time>
      </trkpt>
      <trkpt lat="41.694694" lon="-2.228948">
        <ele>1024.4</ele>
        <time>2023-02-11T12:23:15.000Z</time>
      </trkpt>
      <trkpt lat="41.694739" lon="-2.229048">
        <ele>1024.6</ele>
        <time>2023-02-11T12:23:16.000Z</time>
      </trkpt>
      <trkpt lat="41.694782" lon="-2.229148">
        <ele>1024.6</ele>
        <time>2023-02-11T12:23:17.000Z</time>
      </trkpt>
      <trkpt lat="41.694823" lon="-2.229248">
        <ele>1024.8</ele>
        <time>2023-02-11T12:23:18.000Z</time>
      </trkpt>
      <trkpt lat="41.694868" lon="-2.229343">
        <ele>1025</ele>
        <time>2023-02-11T12:23:19.000Z</time>
      </trkpt>
      <trkpt lat="41.694907" lon="-2.229442">
        <ele>1025.4</ele>
        <time>2023-02-11T12:23:20.000Z</time>
      </trkpt>
      <trkpt lat="41.694948" lon="-2.229541">
        <ele>1025.6</ele>
        <time>2023-02-11T12:23:21.000Z</time>
      </trkpt>
      <trkpt lat="41.694992" lon="-2.229638">
        <ele>1026</ele>
        <time>2023-02-11T12:23:22.000Z</time>
      </trkpt>
      <trkpt lat="41.695035" lon="-2.229734">
        <ele>1026</ele>
        <time>2023-02-11T12:23:23.000Z</time>
      </trkpt>
      <trkpt lat="41.695078" lon="-2.229832">
        <ele>1026.4</ele>
        <time>2023-02-11T12:23:24.000Z</time>
      </trkpt>
      <trkpt lat="41.695121" lon="-2.229932">
        <ele>1026.6</ele>
        <time>2023-02-11T12:23:25.000Z</time>
      </trkpt>
      <trkpt lat="41.695165" lon="-2.23003">
        <ele>1026.6</ele>
        <time>2023-02-11T12:23:26.000Z</time>
      </trkpt>
      <trkpt lat="41.695205" lon="-2.230132">
        <ele>1026.8</ele>
        <time>2023-02-11T12:23:27.000Z</time>
      </trkpt>
      <trkpt lat="41.695248" lon="-2.230235">
        <ele>1026.8</ele>
        <time>2023-02-11T12:23:28.000Z</time>
      </trkpt>
      <trkpt lat="41.695294" lon="-2.230339">
        <ele>1026.8</ele>
        <time>2023-02-11T12:23:29.000Z</time>
      </trkpt>
      <trkpt lat="41.695338" lon="-2.230446">
        <ele>1026.8</ele>
        <time>2023-02-11T12:23:30.000Z</time>
      </trkpt>
      <trkpt lat="41.695383" lon="-2.230555">
        <ele>1026.8</ele>
        <time>2023-02-11T12:23:31.000Z</time>
      </trkpt>
      <trkpt lat="41.695431" lon="-2.23066">
        <ele>1026.8</ele>
        <time>2023-02-11T12:23:32.000Z</time>
      </trkpt>
      <trkpt lat="41.695472" lon="-2.230773">
        <ele>1026.8</ele>
        <time>2023-02-11T12:23:33.000Z</time>
      </trkpt>
      <trkpt lat="41.695518" lon="-2.230888">
        <ele>1026.8</ele>
        <time>2023-02-11T12:23:34.000Z</time>
      </trkpt>
      <trkpt lat="41.695564" lon="-2.231006">
        <ele>1026.8</ele>
        <time>2023-02-11T12:23:35.000Z</time>
      </trkpt>
      <trkpt lat="41.695613" lon="-2.231126">
        <ele>1026.8</ele>
        <time>2023-02-11T12:23:36.000Z</time>
      </trkpt>
      <trkpt lat="41.695665" lon="-2.231248">
        <ele>1026.6</ele>
        <time>2023-02-11T12:23:37.000Z</time>
      </trkpt>
      <trkpt lat="41.695719" lon="-2.231375">
        <ele>1026.4</ele>
        <time>2023-02-11T12:23:38.000Z</time>
      </trkpt>
      <trkpt lat="41.695774" lon="-2.231503">
        <ele>1026.4</ele>
        <time>2023-02-11T12:23:39.000Z</time>
      </trkpt>
      <trkpt lat="41.695832" lon="-2.231634">
        <ele>1026</ele>
        <time>2023-02-11T12:23:40.000Z</time>
      </trkpt>
      <trkpt lat="41.69589" lon="-2.23177">
        <ele>1026</ele>
        <time>2023-02-11T12:23:41.000Z</time>
      </trkpt>
      <trkpt lat="41.695948" lon="-2.231907">
        <ele>1025.4</ele>
        <time>2023-02-11T12:23:42.000Z</time>
      </trkpt>
      <trkpt lat="41.696006" lon="-2.232043">
        <ele>1025.2</ele>
        <time>2023-02-11T12:23:43.000Z</time>
      </trkpt>
      <trkpt lat="41.696063" lon="-2.232179">
        <ele>1024.8</ele>
        <time>2023-02-11T12:23:44.000Z</time>
      </trkpt>
      <trkpt lat="41.696119" lon="-2.232315">
        <ele>1024.2</ele>
        <time>2023-02-11T12:23:45.000Z</time>
      </trkpt>
      <trkpt lat="41.696178" lon="-2.232447">
        <ele>1024</ele>
        <time>2023-02-11T12:23:46.000Z</time>
      </trkpt>
      <trkpt lat="41.696238" lon="-2.232576">
        <ele>1023.6</ele>
        <time>2023-02-11T12:23:47.000Z</time>
      </trkpt>
      <trkpt lat="41.696296" lon="-2.232705">
        <ele>1023.4</ele>
        <time>2023-02-11T12:23:48.000Z</time>
      </trkpt>
      <trkpt lat="41.696354" lon="-2.232835">
        <ele>1023</ele>
        <time>2023-02-11T12:23:49.000Z</time>
      </trkpt>
      <trkpt lat="41.696411" lon="-2.232964">
        <ele>1022.8</ele>
        <time>2023-02-11T12:23:50.000Z</time>
      </trkpt>
      <trkpt lat="41.696467" lon="-2.233091">
        <ele>1022.6</ele>
        <time>2023-02-11T12:23:51.000Z</time>
      </trkpt>
      <trkpt lat="41.696521" lon="-2.233215">
        <ele>1022.4</ele>
        <time>2023-02-11T12:23:52.000Z</time>
      </trkpt>
      <trkpt lat="41.696573" lon="-2.233338">
        <ele>1022.4</ele>
        <time>2023-02-11T12:23:53.000Z</time>
      </trkpt>
      <trkpt lat="41.696624" lon="-2.23346">
        <ele>1022.2</ele>
        <time>2023-02-11T12:23:54.000Z</time>
      </trkpt>
      <trkpt lat="41.696677" lon="-2.233581">
        <ele>1022.2</ele>
        <time>2023-02-11T12:23:55.000Z</time>
      </trkpt>
      <trkpt lat="41.696729" lon="-2.233703">
        <ele>1022.2</ele>
        <time>2023-02-11T12:23:56.000Z</time>
      </trkpt>
      <trkpt lat="41.696782" lon="-2.233823">
        <ele>1022</ele>
        <time>2023-02-11T12:23:57.000Z</time>
      </trkpt>
      <trkpt lat="41.696837" lon="-2.233941">
        <ele>1022</ele>
        <time>2023-02-11T12:23:58.000Z</time>
      </trkpt>
      <trkpt lat="41.696888" lon="-2.234061">
        <ele>1022</ele>
        <time>2023-02-11T12:23:59.000Z</time>
      </trkpt>
      <trkpt lat="41.696939" lon="-2.234178">
        <ele>1022</ele>
        <time>2023-02-11T12:24:00.000Z</time>
      </trkpt>
      <trkpt lat="41.696991" lon="-2.23429">
        <ele>1022</ele>
        <time>2023-02-11T12:24:01.000Z</time>
      </trkpt>
      <trkpt lat="41.697045" lon="-2.234404">
        <ele>1022</ele>
        <time>2023-02-11T12:24:02.000Z</time>
      </trkpt>
      <trkpt lat="41.697098" lon="-2.234517">
        <ele>1022</ele>
        <time>2023-02-11T12:24:03.000Z</time>
      </trkpt>
      <trkpt lat="41.697147" lon="-2.234631">
        <ele>1022</ele>
        <time>2023-02-11T12:24:04.000Z</time>
      </trkpt>
      <trkpt lat="41.697195" lon="-2.234744">
        <ele>1022</ele>
        <time>2023-02-11T12:24:05.000Z</time>
      </trkpt>
      <trkpt lat="41.69724" lon="-2.234856">
        <ele>1022</ele>
        <time>2023-02-11T12:24:06.000Z</time>
      </trkpt>
      <trkpt lat="41.697288" lon="-2.234964">
        <ele>1022</ele>
        <time>2023-02-11T12:24:07.000Z</time>
      </trkpt>
      <trkpt lat="41.697336" lon="-2.235073">
        <ele>1022</ele>
        <time>2023-02-11T12:24:08.000Z</time>
      </trkpt>
      <trkpt lat="41.69738" lon="-2.235181">
        <ele>1022</ele>
        <time>2023-02-11T12:24:09.000Z</time>
      </trkpt>
      <trkpt lat="41.697426" lon="-2.235288">
        <ele>1022</ele>
        <time>2023-02-11T12:24:10.000Z</time>
      </trkpt>
      <trkpt lat="41.697474" lon="-2.23539">
        <ele>1022</ele>
        <time>2023-02-11T12:24:11.000Z</time>
      </trkpt>
      <trkpt lat="41.697518" lon="-2.235495">
        <ele>1022</ele>
        <time>2023-02-11T12:24:12.000Z</time>
      </trkpt>
      <trkpt lat="41.697557" lon="-2.235599">
        <ele>1022</ele>
        <time>2023-02-11T12:24:13.000Z</time>
      </trkpt>
      <trkpt lat="41.697601" lon="-2.235701">
        <ele>1022</ele>
        <time>2023-02-11T12:24:14.000Z</time>
      </trkpt>
      <trkpt lat="41.697647" lon="-2.235804">
        <ele>1022.2</ele>
        <time>2023-02-11T12:24:15.000Z</time>
      </trkpt>
      <trkpt lat="41.697692" lon="-2.235906">
        <ele>1022.2</ele>
        <time>2023-02-11T12:24:16.000Z</time>
      </trkpt>
      <trkpt lat="41.697736" lon="-2.236008">
        <ele>1022.2</ele>
        <time>2023-02-11T12:24:17.000Z</time>
      </trkpt>
      <trkpt lat="41.697779" lon="-2.236109">
        <ele>1022.4</ele>
        <time>2023-02-11T12:24:18.000Z</time>
      </trkpt>
      <trkpt lat="41.697825" lon="-2.236207">
        <ele>1022.4</ele>
        <time>2023-02-11T12:24:19.000Z</time>
      </trkpt>
      <trkpt lat="41.697869" lon="-2.236306">
        <ele>1022.8</ele>
        <time>2023-02-11T12:24:20.000Z</time>
      </trkpt>
      <trkpt lat="41.697913" lon="-2.236402">
        <ele>1023</ele>
        <time>2023-02-11T12:24:21.000Z</time>
      </trkpt>
      <trkpt lat="41.697958" lon="-2.236496">
        <ele>1023</ele>
        <time>2023-02-11T12:24:22.000Z</time>
      </trkpt>
      <trkpt lat="41.698" lon="-2.236594">
        <ele>1023.2</ele>
        <time>2023-02-11T12:24:23.000Z</time>
      </trkpt>
      <trkpt lat="41.698043" lon="-2.236692">
        <ele>1023.2</ele>
        <time>2023-02-11T12:24:24.000Z</time>
      </trkpt>
      <trkpt lat="41.698086" lon="-2.236791">
        <ele>1023.2</ele>
        <time>2023-02-11T12:24:25.000Z</time>
      </trkpt>
      <trkpt lat="41.698129" lon="-2.236886">
        <ele>1023.2</ele>
        <time>2023-02-11T12:24:26.000Z</time>
      </trkpt>
      <trkpt lat="41.69817" lon="-2.236982">
        <ele>1023.4</ele>
        <time>2023-02-11T12:24:27.000Z</time>
      </trkpt>
      <trkpt lat="41.698212" lon="-2.237079">
        <ele>1023.4</ele>
        <time>2023-02-11T12:24:28.000Z</time>
      </trkpt>
      <trkpt lat="41.698252" lon="-2.237176">
        <ele>1023.4</ele>
        <time>2023-02-11T12:24:29.000Z</time>
      </trkpt>
      <trkpt lat="41.698293" lon="-2.237273">
        <ele>1023.4</ele>
        <time>2023-02-11T12:24:30.000Z</time>
      </trkpt>
      <trkpt lat="41.698331" lon="-2.237371">
        <ele>1023.4</ele>
        <time>2023-02-11T12:24:31.000Z</time>
      </trkpt>
      <trkpt lat="41.698372" lon="-2.237466">
        <ele>1023.4</ele>
        <time>2023-02-11T12:24:32.000Z</time>
      </trkpt>
      <trkpt lat="41.698415" lon="-2.237561">
        <ele>1023.4</ele>
        <time>2023-02-11T12:24:33.000Z</time>
      </trkpt>
      <trkpt lat="41.698459" lon="-2.237649">
        <ele>1023.4</ele>
        <time>2023-02-11T12:24:34.000Z</time>
      </trkpt>
      <trkpt lat="41.698502" lon="-2.237737">
        <ele>1023.6</ele>
        <time>2023-02-11T12:24:35.000Z</time>
      </trkpt>
      <trkpt lat="41.698545" lon="-2.237825">
        <ele>1023.6</ele>
        <time>2023-02-11T12:24:36.000Z</time>
      </trkpt>
      <trkpt lat="41.698585" lon="-2.237916">
        <ele>1023.6</ele>
        <time>2023-02-11T12:24:37.000Z</time>
      </trkpt>
      <trkpt lat="41.698624" lon="-2.23801">
        <ele>1023.8</ele>
        <time>2023-02-11T12:24:38.000Z</time>
      </trkpt>
      <trkpt lat="41.698661" lon="-2.238101">
        <ele>1023.8</ele>
        <time>2023-02-11T12:24:39.000Z</time>
      </trkpt>
      <trkpt lat="41.698698" lon="-2.238193">
        <ele>1024</ele>
        <time>2023-02-11T12:24:40.000Z</time>
      </trkpt>
      <trkpt lat="41.698737" lon="-2.238282">
        <ele>1024</ele>
        <time>2023-02-11T12:24:41.000Z</time>
      </trkpt>
      <trkpt lat="41.698776" lon="-2.238371">
        <ele>1024.2</ele>
        <time>2023-02-11T12:24:42.000Z</time>
      </trkpt>
      <trkpt lat="41.698813" lon="-2.238458">
        <ele>1024.4</ele>
        <time>2023-02-11T12:24:43.000Z</time>
      </trkpt>
      <trkpt lat="41.69885" lon="-2.238545">
        <ele>1024.4</ele>
        <time>2023-02-11T12:24:44.000Z</time>
      </trkpt>
      <trkpt lat="41.698887" lon="-2.238633">
        <ele>1024.4</ele>
        <time>2023-02-11T12:24:45.000Z</time>
      </trkpt>
      <trkpt lat="41.698923" lon="-2.238721">
        <ele>1024.6</ele>
        <time>2023-02-11T12:24:46.000Z</time>
      </trkpt>
      <trkpt lat="41.698959" lon="-2.238809">
        <ele>1024.6</ele>
        <time>2023-02-11T12:24:47.000Z</time>
      </trkpt>
      <trkpt lat="41.698996" lon="-2.238893">
        <ele>1024.6</ele>
        <time>2023-02-11T12:24:48.000Z</time>
      </trkpt>
      <trkpt lat="41.699034" lon="-2.238977">
        <ele>1024.8</ele>
        <time>2023-02-11T12:24:49.000Z</time>
      </trkpt>
      <trkpt lat="41.699067" lon="-2.239062">
        <ele>1025</ele>
        <time>2023-02-11T12:24:50.000Z</time>
      </trkpt>
      <trkpt lat="41.699102" lon="-2.239146">
        <ele>1025.2</ele>
        <time>2023-02-11T12:24:51.000Z</time>
      </trkpt>
      <trkpt lat="41.699138" lon="-2.239224">
        <ele>1025.4</ele>
        <time>2023-02-11T12:24:52.000Z</time>
      </trkpt>
      <trkpt lat="41.699175" lon="-2.239308">
        <ele>1025.6</ele>
        <time>2023-02-11T12:24:53.000Z</time>
      </trkpt>
      <trkpt lat="41.699212" lon="-2.239391">
        <ele>1025.6</ele>
        <time>2023-02-11T12:24:54.000Z</time>
      </trkpt>
      <trkpt lat="41.699249" lon="-2.239471">
        <ele>1025.8</ele>
        <time>2023-02-11T12:24:55.000Z</time>
      </trkpt>
      <trkpt lat="41.699286" lon="-2.239547">
        <ele>1026</ele>
        <time>2023-02-11T12:24:56.000Z</time>
      </trkpt>
      <trkpt lat="41.69932" lon="-2.239627">
        <ele>1026</ele>
        <time>2023-02-11T12:24:57.000Z</time>
      </trkpt>
      <trkpt lat="41.699354" lon="-2.239704">
        <ele>1026.2</ele>
        <time>2023-02-11T12:24:58.000Z</time>
      </trkpt>
      <trkpt lat="41.699388" lon="-2.239783">
        <ele>1026.2</ele>
        <time>2023-02-11T12:24:59.000Z</time>
      </trkpt>
      <trkpt lat="41.699423" lon="-2.239862">
        <ele>1026.6</ele>
        <time>2023-02-11T12:25:00.000Z</time>
      </trkpt>
      <trkpt lat="41.699459" lon="-2.239939">
        <ele>1026.8</ele>
        <time>2023-02-11T12:25:01.000Z</time>
      </trkpt>
      <trkpt lat="41.699488" lon="-2.24002">
        <ele>1027</ele>
        <time>2023-02-11T12:25:02.000Z</time>
      </trkpt>
      <trkpt lat="41.699523" lon="-2.240098">
        <ele>1027.4</ele>
        <time>2023-02-11T12:25:03.000Z</time>
      </trkpt>
      <trkpt lat="41.69956" lon="-2.240174">
        <ele>1027.4</ele>
        <time>2023-02-11T12:25:04.000Z</time>
      </trkpt>
      <trkpt lat="41.699594" lon="-2.240253">
        <ele>1027.6</ele>
        <time>2023-02-11T12:25:05.000Z</time>
      </trkpt>
      <trkpt lat="41.699629" lon="-2.240333">
        <ele>1027.8</ele>
        <time>2023-02-11T12:25:06.000Z</time>
      </trkpt>
      <trkpt lat="41.699663" lon="-2.240412">
        <ele>1028</ele>
        <time>2023-02-11T12:25:07.000Z</time>
      </trkpt>
      <trkpt lat="41.699697" lon="-2.240493">
        <ele>1028.2</ele>
        <time>2023-02-11T12:25:08.000Z</time>
      </trkpt>
      <trkpt lat="41.699731" lon="-2.240574">
        <ele>1028.4</ele>
        <time>2023-02-11T12:25:09.000Z</time>
      </trkpt>
      <trkpt lat="41.699766" lon="-2.240655">
        <ele>1028.4</ele>
        <time>2023-02-11T12:25:10.000Z</time>
      </trkpt>
      <trkpt lat="41.699802" lon="-2.240734">
        <ele>1028.6</ele>
        <time>2023-02-11T12:25:11.000Z</time>
      </trkpt>
      <trkpt lat="41.699838" lon="-2.240813">
        <ele>1028.8</ele>
        <time>2023-02-11T12:25:12.000Z</time>
      </trkpt>
      <trkpt lat="41.699872" lon="-2.240895">
        <ele>1029</ele>
        <time>2023-02-11T12:25:13.000Z</time>
      </trkpt>
      <trkpt lat="41.699904" lon="-2.240977">
        <ele>1029.2</ele>
        <time>2023-02-11T12:25:14.000Z</time>
      </trkpt>
      <trkpt lat="41.699936" lon="-2.241061">
        <ele>1029.4</ele>
        <time>2023-02-11T12:25:15.000Z</time>
      </trkpt>
      <trkpt lat="41.69997" lon="-2.241144">
        <ele>1029.6</ele>
        <time>2023-02-11T12:25:16.000Z</time>
      </trkpt>
      <trkpt lat="41.700007" lon="-2.241225">
        <ele>1029.8</ele>
        <time>2023-02-11T12:25:17.000Z</time>
      </trkpt>
      <trkpt lat="41.700045" lon="-2.241303">
        <ele>1030</ele>
        <time>2023-02-11T12:25:18.000Z</time>
      </trkpt>
      <trkpt lat="41.700081" lon="-2.241384">
        <ele>1030.2</ele>
        <time>2023-02-11T12:25:19.000Z</time>
      </trkpt>
      <trkpt lat="41.700117" lon="-2.241464">
        <ele>1030.4</ele>
        <time>2023-02-11T12:25:20.000Z</time>
      </trkpt>
      <trkpt lat="41.700148" lon="-2.24154">
        <ele>1030.4</ele>
        <time>2023-02-11T12:25:21.000Z</time>
      </trkpt>
      <trkpt lat="41.700182" lon="-2.241622">
        <ele>1030.8</ele>
        <time>2023-02-11T12:25:22.000Z</time>
      </trkpt>
      <trkpt lat="41.700218" lon="-2.241703">
        <ele>1031</ele>
        <time>2023-02-11T12:25:23.000Z</time>
      </trkpt>
      <trkpt lat="41.700254" lon="-2.241784">
        <ele>1031.2</ele>
        <time>2023-02-11T12:25:24.000Z</time>
      </trkpt>
      <trkpt lat="41.70029" lon="-2.241867">
        <ele>1031.2</ele>
        <time>2023-02-11T12:25:25.000Z</time>
      </trkpt>
      <trkpt lat="41.700324" lon="-2.241952">
        <ele>1031.4</ele>
        <time>2023-02-11T12:25:26.000Z</time>
      </trkpt>
      <trkpt lat="41.700362" lon="-2.242038">
        <ele>1031.4</ele>
        <time>2023-02-11T12:25:27.000Z</time>
      </trkpt>
      <trkpt lat="41.7004" lon="-2.242125">
        <ele>1031.6</ele>
        <time>2023-02-11T12:25:28.000Z</time>
      </trkpt>
      <trkpt lat="41.700436" lon="-2.242212">
        <ele>1031.6</ele>
        <time>2023-02-11T12:25:29.000Z</time>
      </trkpt>
      <trkpt lat="41.700474" lon="-2.2423">
        <ele>1031.6</ele>
        <time>2023-02-11T12:25:30.000Z</time>
      </trkpt>
      <trkpt lat="41.700513" lon="-2.242388">
        <ele>1031.6</ele>
        <time>2023-02-11T12:25:31.000Z</time>
      </trkpt>
      <trkpt lat="41.70055" lon="-2.242477">
        <ele>1031.6</ele>
        <time>2023-02-11T12:25:32.000Z</time>
      </trkpt>
      <trkpt lat="41.700589" lon="-2.242567">
        <ele>1031.6</ele>
        <time>2023-02-11T12:25:33.000Z</time>
      </trkpt>
      <trkpt lat="41.70063" lon="-2.242659">
        <ele>1031.6</ele>
        <time>2023-02-11T12:25:34.000Z</time>
      </trkpt>
      <trkpt lat="41.700674" lon="-2.242749">
        <ele>1031.6</ele>
        <time>2023-02-11T12:25:35.000Z</time>
      </trkpt>
      <trkpt lat="41.700707" lon="-2.242846">
        <ele>1031.6</ele>
        <time>2023-02-11T12:25:36.000Z</time>
      </trkpt>
      <trkpt lat="41.700746" lon="-2.242941">
        <ele>1031.6</ele>
        <time>2023-02-11T12:25:37.000Z</time>
      </trkpt>
      <trkpt lat="41.700787" lon="-2.243036">
        <ele>1031.6</ele>
        <time>2023-02-11T12:25:38.000Z</time>
      </trkpt>
      <trkpt lat="41.700829" lon="-2.243132">
        <ele>1031.4</ele>
        <time>2023-02-11T12:25:39.000Z</time>
      </trkpt>
      <trkpt lat="41.70087" lon="-2.243226">
        <ele>1031.4</ele>
        <time>2023-02-11T12:25:40.000Z</time>
      </trkpt>
      <trkpt lat="41.700912" lon="-2.243323">
        <ele>1031.2</ele>
        <time>2023-02-11T12:25:41.000Z</time>
      </trkpt>
      <trkpt lat="41.700954" lon="-2.243421">
        <ele>1031.2</ele>
        <time>2023-02-11T12:25:42.000Z</time>
      </trkpt>
      <trkpt lat="41.700993" lon="-2.24352">
        <ele>1031.2</ele>
        <time>2023-02-11T12:25:43.000Z</time>
      </trkpt>
      <trkpt lat="41.701038" lon="-2.243618">
        <ele>1031.2</ele>
        <time>2023-02-11T12:25:44.000Z</time>
      </trkpt>
      <trkpt lat="41.701082" lon="-2.243719">
        <ele>1031</ele>
        <time>2023-02-11T12:25:45.000Z</time>
      </trkpt>
      <trkpt lat="41.701127" lon="-2.24382">
        <ele>1031</ele>
        <time>2023-02-11T12:25:46.000Z</time>
      </trkpt>
      <trkpt lat="41.701169" lon="-2.243921">
        <ele>1031</ele>
        <time>2023-02-11T12:25:47.000Z</time>
      </trkpt>
      <trkpt lat="41.701206" lon="-2.244024">
        <ele>1031</ele>
        <time>2023-02-11T12:25:48.000Z</time>
      </trkpt>
      <trkpt lat="41.70125" lon="-2.244124">
        <ele>1030.8</ele>
        <time>2023-02-11T12:25:49.000Z</time>
      </trkpt>
      <trkpt lat="41.701295" lon="-2.244223">
        <ele>1030.8</ele>
        <time>2023-02-11T12:25:50.000Z</time>
      </trkpt>
      <trkpt lat="41.701339" lon="-2.244323">
        <ele>1030.8</ele>
        <time>2023-02-11T12:25:51.000Z</time>
      </trkpt>
      <trkpt lat="41.701383" lon="-2.244423">
        <ele>1030.8</ele>
        <time>2023-02-11T12:25:52.000Z</time>
      </trkpt>
      <trkpt lat="41.701426" lon="-2.244522">
        <ele>1030.6</ele>
        <time>2023-02-11T12:25:53.000Z</time>
      </trkpt>
      <trkpt lat="41.701469" lon="-2.244621">
        <ele>1030.6</ele>
        <time>2023-02-11T12:25:54.000Z</time>
      </trkpt>
      <trkpt lat="41.701511" lon="-2.244719">
        <ele>1030.6</ele>
        <time>2023-02-11T12:25:55.000Z</time>
      </trkpt>
      <trkpt lat="41.701552" lon="-2.244814">
        <ele>1030.8</ele>
        <time>2023-02-11T12:25:56.000Z</time>
      </trkpt>
      <trkpt lat="41.701592" lon="-2.244908">
        <ele>1030.8</ele>
        <time>2023-02-11T12:25:57.000Z</time>
      </trkpt>
      <trkpt lat="41.701633" lon="-2.244998">
        <ele>1031</ele>
        <time>2023-02-11T12:25:58.000Z</time>
      </trkpt>
      <trkpt lat="41.701674" lon="-2.245091">
        <ele>1031</ele>
        <time>2023-02-11T12:25:59.000Z</time>
      </trkpt>
      <trkpt lat="41.701715" lon="-2.245182">
        <ele>1031.2</ele>
        <time>2023-02-11T12:26:00.000Z</time>
      </trkpt>
      <trkpt lat="41.701753" lon="-2.245271">
        <ele>1031.4</ele>
        <time>2023-02-11T12:26:01.000Z</time>
      </trkpt>
      <trkpt lat="41.701792" lon="-2.245359">
        <ele>1031.4</ele>
        <time>2023-02-11T12:26:02.000Z</time>
      </trkpt>
      <trkpt lat="41.701832" lon="-2.245447">
        <ele>1031.6</ele>
        <time>2023-02-11T12:26:03.000Z</time>
      </trkpt>
      <trkpt lat="41.70187" lon="-2.245534">
        <ele>1031.8</ele>
        <time>2023-02-11T12:26:04.000Z</time>
      </trkpt>
      <trkpt lat="41.701909" lon="-2.245622">
        <ele>1032</ele>
        <time>2023-02-11T12:26:05.000Z</time>
      </trkpt>
      <trkpt lat="41.701947" lon="-2.24571">
        <ele>1032</ele>
        <time>2023-02-11T12:26:06.000Z</time>
      </trkpt>
      <trkpt lat="41.701985" lon="-2.245799">
        <ele>1032.2</ele>
        <time>2023-02-11T12:26:07.000Z</time>
      </trkpt>
      <trkpt lat="41.702024" lon="-2.245887">
        <ele>1032.2</ele>
        <time>2023-02-11T12:26:08.000Z</time>
      </trkpt>
      <trkpt lat="41.702063" lon="-2.245974">
        <ele>1032.8</ele>
        <time>2023-02-11T12:26:09.000Z</time>
      </trkpt>
      <trkpt lat="41.702104" lon="-2.24606">
        <ele>1032.8</ele>
        <time>2023-02-11T12:26:10.000Z</time>
      </trkpt>
      <trkpt lat="41.702141" lon="-2.24615">
        <ele>1033</ele>
        <time>2023-02-11T12:26:11.000Z</time>
      </trkpt>
      <trkpt lat="41.70218" lon="-2.246241">
        <ele>1033.2</ele>
        <time>2023-02-11T12:26:12.000Z</time>
      </trkpt>
      <trkpt lat="41.702218" lon="-2.246332">
        <ele>1033.2</ele>
        <time>2023-02-11T12:26:13.000Z</time>
      </trkpt>
      <trkpt lat="41.702253" lon="-2.246424">
        <ele>1033.2</ele>
        <time>2023-02-11T12:26:14.000Z</time>
      </trkpt>
      <trkpt lat="41.702294" lon="-2.246514">
        <ele>1033.4</ele>
        <time>2023-02-11T12:26:15.000Z</time>
      </trkpt>
      <trkpt lat="41.70233" lon="-2.246607">
        <ele>1033.6</ele>
        <time>2023-02-11T12:26:16.000Z</time>
      </trkpt>
      <trkpt lat="41.702363" lon="-2.246702">
        <ele>1033.6</ele>
        <time>2023-02-11T12:26:17.000Z</time>
      </trkpt>
      <trkpt lat="41.702404" lon="-2.246798">
        <ele>1033.6</ele>
        <time>2023-02-11T12:26:18.000Z</time>
      </trkpt>
      <trkpt lat="41.702445" lon="-2.246895">
        <ele>1033.6</ele>
        <time>2023-02-11T12:26:19.000Z</time>
      </trkpt>
      <trkpt lat="41.702486" lon="-2.246993">
        <ele>1033.6</ele>
        <time>2023-02-11T12:26:20.000Z</time>
      </trkpt>
      <trkpt lat="41.702525" lon="-2.247094">
        <ele>1033.6</ele>
        <time>2023-02-11T12:26:21.000Z</time>
      </trkpt>
      <trkpt lat="41.702571" lon="-2.247193">
        <ele>1033.6</ele>
        <time>2023-02-11T12:26:22.000Z</time>
      </trkpt>
      <trkpt lat="41.702615" lon="-2.247293">
        <ele>1033.8</ele>
        <time>2023-02-11T12:26:23.000Z</time>
      </trkpt>
      <trkpt lat="41.702661" lon="-2.247395">
        <ele>1033.6</ele>
        <time>2023-02-11T12:26:24.000Z</time>
      </trkpt>
      <trkpt lat="41.702707" lon="-2.247501">
        <ele>1033.6</ele>
        <time>2023-02-11T12:26:25.000Z</time>
      </trkpt>
      <trkpt lat="41.702755" lon="-2.247607">
        <ele>1033.6</ele>
        <time>2023-02-11T12:26:26.000Z</time>
      </trkpt>
      <trkpt lat="41.702802" lon="-2.247716">
        <ele>1033.4</ele>
        <time>2023-02-11T12:26:27.000Z</time>
      </trkpt>
      <trkpt lat="41.70285" lon="-2.247829">
        <ele>1033.4</ele>
        <time>2023-02-11T12:26:28.000Z</time>
      </trkpt>
      <trkpt lat="41.702898" lon="-2.247946">
        <ele>1033.2</ele>
        <time>2023-02-11T12:26:29.000Z</time>
      </trkpt>
      <trkpt lat="41.70295" lon="-2.248064">
        <ele>1033.2</ele>
        <time>2023-02-11T12:26:30.000Z</time>
      </trkpt>
      <trkpt lat="41.703" lon="-2.248182">
        <ele>1033</ele>
        <time>2023-02-11T12:26:31.000Z</time>
      </trkpt>
      <trkpt lat="41.70305" lon="-2.248304">
        <ele>1032.8</ele>
        <time>2023-02-11T12:26:32.000Z</time>
      </trkpt>
      <trkpt lat="41.703102" lon="-2.248424">
        <ele>1032.8</ele>
        <time>2023-02-11T12:26:33.000Z</time>
      </trkpt>
      <trkpt lat="41.703154" lon="-2.248546">
        <ele>1032.2</ele>
        <time>2023-02-11T12:26:34.000Z</time>
      </trkpt>
      <trkpt lat="41.703208" lon="-2.248669">
        <ele>1032.2</ele>
        <time>2023-02-11T12:26:35.000Z</time>
      </trkpt>
      <trkpt lat="41.703262" lon="-2.248793">
        <ele>1031.6</ele>
        <time>2023-02-11T12:26:36.000Z</time>
      </trkpt>
      <trkpt lat="41.703317" lon="-2.248917">
        <ele>1031.4</ele>
        <time>2023-02-11T12:26:37.000Z</time>
      </trkpt>
      <trkpt lat="41.703373" lon="-2.249039">
        <ele>1031</ele>
        <time>2023-02-11T12:26:38.000Z</time>
      </trkpt>
      <trkpt lat="41.703427" lon="-2.249162">
        <ele>1030.8</ele>
        <time>2023-02-11T12:26:39.000Z</time>
      </trkpt>
      <trkpt lat="41.703482" lon="-2.249284">
        <ele>1030.2</ele>
        <time>2023-02-11T12:26:40.000Z</time>
      </trkpt>
      <trkpt lat="41.703535" lon="-2.249405">
        <ele>1029.8</ele>
        <time>2023-02-11T12:26:41.000Z</time>
      </trkpt>
      <trkpt lat="41.703589" lon="-2.249527">
        <ele>1029.6</ele>
        <time>2023-02-11T12:26:42.000Z</time>
      </trkpt>
      <trkpt lat="41.703642" lon="-2.249648">
        <ele>1029.4</ele>
        <time>2023-02-11T12:26:43.000Z</time>
      </trkpt>
      <trkpt lat="41.703694" lon="-2.249767">
        <ele>1029.4</ele>
        <time>2023-02-11T12:26:44.000Z</time>
      </trkpt>
      <trkpt lat="41.703747" lon="-2.249887">
        <ele>1029.2</ele>
        <time>2023-02-11T12:26:45.000Z</time>
      </trkpt>
      <trkpt lat="41.703796" lon="-2.250008">
        <ele>1029.2</ele>
        <time>2023-02-11T12:26:46.000Z</time>
      </trkpt>
      <trkpt lat="41.703847" lon="-2.25013">
        <ele>1029</ele>
        <time>2023-02-11T12:26:47.000Z</time>
      </trkpt>
      <trkpt lat="41.703899" lon="-2.250253">
        <ele>1029</ele>
        <time>2023-02-11T12:26:48.000Z</time>
      </trkpt>
      <trkpt lat="41.703952" lon="-2.250373">
        <ele>1029</ele>
        <time>2023-02-11T12:26:49.000Z</time>
      </trkpt>
      <trkpt lat="41.704005" lon="-2.250492">
        <ele>1028.8</ele>
        <time>2023-02-11T12:26:50.000Z</time>
      </trkpt>
      <trkpt lat="41.704059" lon="-2.25061">
        <ele>1028.8</ele>
        <time>2023-02-11T12:26:51.000Z</time>
      </trkpt>
      <trkpt lat="41.704111" lon="-2.250729">
        <ele>1028.8</ele>
        <time>2023-02-11T12:26:52.000Z</time>
      </trkpt>
      <trkpt lat="41.704161" lon="-2.250848">
        <ele>1028.8</ele>
        <time>2023-02-11T12:26:53.000Z</time>
      </trkpt>
      <trkpt lat="41.704213" lon="-2.250961">
        <ele>1028.8</ele>
        <time>2023-02-11T12:26:54.000Z</time>
      </trkpt>
      <trkpt lat="41.704264" lon="-2.251075">
        <ele>1028.8</ele>
        <time>2023-02-11T12:26:55.000Z</time>
      </trkpt>
      <trkpt lat="41.704315" lon="-2.251188">
        <ele>1028.8</ele>
        <time>2023-02-11T12:26:56.000Z</time>
      </trkpt>
      <trkpt lat="41.704364" lon="-2.251299">
        <ele>1028.8</ele>
        <time>2023-02-11T12:26:57.000Z</time>
      </trkpt>
      <trkpt lat="41.704413" lon="-2.251411">
        <ele>1028.8</ele>
        <time>2023-02-11T12:26:58.000Z</time>
      </trkpt>
      <trkpt lat="41.704462" lon="-2.251521">
        <ele>1028.8</ele>
        <time>2023-02-11T12:26:59.000Z</time>
      </trkpt>
      <trkpt lat="41.704509" lon="-2.251627">
        <ele>1029</ele>
        <time>2023-02-11T12:27:00.000Z</time>
      </trkpt>
      <trkpt lat="41.704548" lon="-2.251733">
        <ele>1029.4</ele>
        <time>2023-02-11T12:27:01.000Z</time>
      </trkpt>
      <trkpt lat="41.704592" lon="-2.251839">
        <ele>1029.4</ele>
        <time>2023-02-11T12:27:02.000Z</time>
      </trkpt>
      <trkpt lat="41.704635" lon="-2.251943">
        <ele>1029.6</ele>
        <time>2023-02-11T12:27:03.000Z</time>
      </trkpt>
      <trkpt lat="41.704679" lon="-2.25204">
        <ele>1029.8</ele>
        <time>2023-02-11T12:27:04.000Z</time>
      </trkpt>
      <trkpt lat="41.704725" lon="-2.252136">
        <ele>1030</ele>
        <time>2023-02-11T12:27:05.000Z</time>
      </trkpt>
      <trkpt lat="41.704767" lon="-2.252234">
        <ele>1030</ele>
        <time>2023-02-11T12:27:06.000Z</time>
      </trkpt>
      <trkpt lat="41.704807" lon="-2.252332">
        <ele>1030.6</ele>
        <time>2023-02-11T12:27:07.000Z</time>
      </trkpt>
      <trkpt lat="41.704847" lon="-2.25243">
        <ele>1030.8</ele>
        <time>2023-02-11T12:27:08.000Z</time>
      </trkpt>
      <trkpt lat="41.704888" lon="-2.252525">
        <ele>1031.2</ele>
        <time>2023-02-11T12:27:09.000Z</time>
      </trkpt>
      <trkpt lat="41.704927" lon="-2.252621">
        <ele>1031.4</ele>
        <time>2023-02-11T12:27:10.000Z</time>
      </trkpt>
      <trkpt lat="41.704968" lon="-2.252717">
        <ele>1031.4</ele>
        <time>2023-02-11T12:27:11.000Z</time>
      </trkpt>
      <trkpt lat="41.705009" lon="-2.252811">
        <ele>1031.6</ele>
        <time>2023-02-11T12:27:12.000Z</time>
      </trkpt>
      <trkpt lat="41.705051" lon="-2.252905">
        <ele>1031.8</ele>
        <time>2023-02-11T12:27:13.000Z</time>
      </trkpt>
      <trkpt lat="41.705089" lon="-2.253002">
        <ele>1032</ele>
        <time>2023-02-11T12:27:14.000Z</time>
      </trkpt>
      <trkpt lat="41.705131" lon="-2.253096">
        <ele>1032</ele>
        <time>2023-02-11T12:27:15.000Z</time>
      </trkpt>
      <trkpt lat="41.705175" lon="-2.253189">
        <ele>1032.2</ele>
        <time>2023-02-11T12:27:16.000Z</time>
      </trkpt>
      <trkpt lat="41.705218" lon="-2.253285">
        <ele>1032.2</ele>
        <time>2023-02-11T12:27:17.000Z</time>
      </trkpt>
      <trkpt lat="41.705256" lon="-2.25338">
        <ele>1032.2</ele>
        <time>2023-02-11T12:27:18.000Z</time>
      </trkpt>
      <trkpt lat="41.705296" lon="-2.253477">
        <ele>1032.4</ele>
        <time>2023-02-11T12:27:19.000Z</time>
      </trkpt>
      <trkpt lat="41.705339" lon="-2.253575">
        <ele>1032.6</ele>
        <time>2023-02-11T12:27:20.000Z</time>
      </trkpt>
      <trkpt lat="41.70538" lon="-2.253676">
        <ele>1032.6</ele>
        <time>2023-02-11T12:27:21.000Z</time>
      </trkpt>
      <trkpt lat="41.705425" lon="-2.253776">
        <ele>1032.6</ele>
        <time>2023-02-11T12:27:22.000Z</time>
      </trkpt>
      <trkpt lat="41.70547" lon="-2.253879">
        <ele>1032.6</ele>
        <time>2023-02-11T12:27:23.000Z</time>
      </trkpt>
      <trkpt lat="41.705514" lon="-2.253982">
        <ele>1032.6</ele>
        <time>2023-02-11T12:27:24.000Z</time>
      </trkpt>
      <trkpt lat="41.705549" lon="-2.254088">
        <ele>1032.6</ele>
        <time>2023-02-11T12:27:25.000Z</time>
      </trkpt>
      <trkpt lat="41.705594" lon="-2.25419">
        <ele>1032.6</ele>
        <time>2023-02-11T12:27:26.000Z</time>
      </trkpt>
      <trkpt lat="41.705639" lon="-2.254294">
        <ele>1032.6</ele>
        <time>2023-02-11T12:27:27.000Z</time>
      </trkpt>
      <trkpt lat="41.705681" lon="-2.254403">
        <ele>1032.6</ele>
        <time>2023-02-11T12:27:28.000Z</time>
      </trkpt>
      <trkpt lat="41.705728" lon="-2.254507">
        <ele>1032.6</ele>
        <time>2023-02-11T12:27:29.000Z</time>
      </trkpt>
      <trkpt lat="41.705775" lon="-2.254615">
        <ele>1032.4</ele>
        <time>2023-02-11T12:27:30.000Z</time>
      </trkpt>
      <trkpt lat="41.705821" lon="-2.254721">
        <ele>1032.4</ele>
        <time>2023-02-11T12:27:31.000Z</time>
      </trkpt>
      <trkpt lat="41.705862" lon="-2.254828">
        <ele>1032.2</ele>
        <time>2023-02-11T12:27:32.000Z</time>
      </trkpt>
      <trkpt lat="41.70591" lon="-2.254935">
        <ele>1032.2</ele>
        <time>2023-02-11T12:27:33.000Z</time>
      </trkpt>
      <trkpt lat="41.705957" lon="-2.255041">
        <ele>1032</ele>
        <time>2023-02-11T12:27:34.000Z</time>
      </trkpt>
      <trkpt lat="41.706002" lon="-2.255149">
        <ele>1032</ele>
        <time>2023-02-11T12:27:35.000Z</time>
      </trkpt>
      <trkpt lat="41.706048" lon="-2.255256">
        <ele>1032</ele>
        <time>2023-02-11T12:27:36.000Z</time>
      </trkpt>
      <trkpt lat="41.706094" lon="-2.255362">
        <ele>1032</ele>
        <time>2023-02-11T12:27:37.000Z</time>
      </trkpt>
      <trkpt lat="41.706139" lon="-2.255467">
        <ele>1032</ele>
        <time>2023-02-11T12:27:38.000Z</time>
      </trkpt>
      <trkpt lat="41.706185" lon="-2.25557">
        <ele>1032.2</ele>
        <time>2023-02-11T12:27:39.000Z</time>
      </trkpt>
      <trkpt lat="41.70623" lon="-2.255673">
        <ele>1032</ele>
        <time>2023-02-11T12:27:40.000Z</time>
      </trkpt>
      <trkpt lat="41.706274" lon="-2.255776">
        <ele>1032.2</ele>
        <time>2023-02-11T12:27:41.000Z</time>
      </trkpt>
      <trkpt lat="41.706319" lon="-2.255875">
        <ele>1032</ele>
        <time>2023-02-11T12:27:42.000Z</time>
      </trkpt>
      <trkpt lat="41.706363" lon="-2.255975">
        <ele>1032</ele>
        <time>2023-02-11T12:27:43.000Z</time>
      </trkpt>
      <trkpt lat="41.706406" lon="-2.256074">
        <ele>1032.2</ele>
        <time>2023-02-11T12:27:44.000Z</time>
      </trkpt>
      <trkpt lat="41.706451" lon="-2.256173">
        <ele>1032.4</ele>
        <time>2023-02-11T12:27:45.000Z</time>
      </trkpt>
      <trkpt lat="41.706494" lon="-2.256273">
        <ele>1032.4</ele>
        <time>2023-02-11T12:27:46.000Z</time>
      </trkpt>
      <trkpt lat="41.706537" lon="-2.256375">
        <ele>1032.6</ele>
        <time>2023-02-11T12:27:47.000Z</time>
      </trkpt>
      <trkpt lat="41.706579" lon="-2.256476">
        <ele>1032.6</ele>
        <time>2023-02-11T12:27:48.000Z</time>
      </trkpt>
      <trkpt lat="41.706623" lon="-2.256576">
        <ele>1032.6</ele>
        <time>2023-02-11T12:27:49.000Z</time>
      </trkpt>
      <trkpt lat="41.706667" lon="-2.256677">
        <ele>1032.6</ele>
        <time>2023-02-11T12:27:50.000Z</time>
      </trkpt>
      <trkpt lat="41.70671" lon="-2.256778">
        <ele>1032.6</ele>
        <time>2023-02-11T12:27:51.000Z</time>
      </trkpt>
      <trkpt lat="41.706756" lon="-2.256877">
        <ele>1032.6</ele>
        <time>2023-02-11T12:27:52.000Z</time>
      </trkpt>
      <trkpt lat="41.706803" lon="-2.256978">
        <ele>1032.6</ele>
        <time>2023-02-11T12:27:53.000Z</time>
      </trkpt>
      <trkpt lat="41.706851" lon="-2.257081">
        <ele>1032.6</ele>
        <time>2023-02-11T12:27:54.000Z</time>
      </trkpt>
      <trkpt lat="41.706896" lon="-2.257184">
        <ele>1032.6</ele>
        <time>2023-02-11T12:27:55.000Z</time>
      </trkpt>
      <trkpt lat="41.70694" lon="-2.257286">
        <ele>1032.8</ele>
        <time>2023-02-11T12:27:56.000Z</time>
      </trkpt>
      <trkpt lat="41.706985" lon="-2.257387">
        <ele>1032.8</ele>
        <time>2023-02-11T12:27:57.000Z</time>
      </trkpt>
      <trkpt lat="41.70703" lon="-2.257487">
        <ele>1032.8</ele>
        <time>2023-02-11T12:27:58.000Z</time>
      </trkpt>
      <trkpt lat="41.707072" lon="-2.257587">
        <ele>1032.6</ele>
        <time>2023-02-11T12:27:59.000Z</time>
      </trkpt>
      <trkpt lat="41.707114" lon="-2.257687">
        <ele>1032.6</ele>
        <time>2023-02-11T12:28:00.000Z</time>
      </trkpt>
      <trkpt lat="41.707157" lon="-2.257786">
        <ele>1032.8</ele>
        <time>2023-02-11T12:28:01.000Z</time>
      </trkpt>
      <trkpt lat="41.707201" lon="-2.257883">
        <ele>1032.8</ele>
        <time>2023-02-11T12:28:02.000Z</time>
      </trkpt>
      <trkpt lat="41.707247" lon="-2.257979">
        <ele>1032.8</ele>
        <time>2023-02-11T12:28:03.000Z</time>
      </trkpt>
      <trkpt lat="41.707293" lon="-2.258077">
        <ele>1032.8</ele>
        <time>2023-02-11T12:28:04.000Z</time>
      </trkpt>
      <trkpt lat="41.707337" lon="-2.258177">
        <ele>1032.8</ele>
        <time>2023-02-11T12:28:05.000Z</time>
      </trkpt>
      <trkpt lat="41.70738" lon="-2.258279">
        <ele>1032.8</ele>
        <time>2023-02-11T12:28:06.000Z</time>
      </trkpt>
      <trkpt lat="41.707424" lon="-2.258382">
        <ele>1032.8</ele>
        <time>2023-02-11T12:28:07.000Z</time>
      </trkpt>
      <trkpt lat="41.707469" lon="-2.258485">
        <ele>1032.8</ele>
        <time>2023-02-11T12:28:08.000Z</time>
      </trkpt>
      <trkpt lat="41.707516" lon="-2.258586">
        <ele>1032.8</ele>
        <time>2023-02-11T12:28:09.000Z</time>
      </trkpt>
      <trkpt lat="41.707565" lon="-2.258685">
        <ele>1032.8</ele>
        <time>2023-02-11T12:28:10.000Z</time>
      </trkpt>
      <trkpt lat="41.707612" lon="-2.258789">
        <ele>1033</ele>
        <time>2023-02-11T12:28:11.000Z</time>
      </trkpt>
      <trkpt lat="41.707659" lon="-2.258895">
        <ele>1033</ele>
        <time>2023-02-11T12:28:12.000Z</time>
      </trkpt>
      <trkpt lat="41.707707" lon="-2.259002">
        <ele>1033</ele>
        <time>2023-02-11T12:28:13.000Z</time>
      </trkpt>
      <trkpt lat="41.707753" lon="-2.25911">
        <ele>1033</ele>
        <time>2023-02-11T12:28:14.000Z</time>
      </trkpt>
      <trkpt lat="41.707796" lon="-2.259218">
        <ele>1033</ele>
        <time>2023-02-11T12:28:15.000Z</time>
      </trkpt>
      <trkpt lat="41.707841" lon="-2.259327">
        <ele>1033</ele>
        <time>2023-02-11T12:28:16.000Z</time>
      </trkpt>
      <trkpt lat="41.707885" lon="-2.259434">
        <ele>1033</ele>
        <time>2023-02-11T12:28:17.000Z</time>
      </trkpt>
      <trkpt lat="41.707929" lon="-2.259539">
        <ele>1033.2</ele>
        <time>2023-02-11T12:28:18.000Z</time>
      </trkpt>
      <trkpt lat="41.707975" lon="-2.259643">
        <ele>1033.2</ele>
        <time>2023-02-11T12:28:19.000Z</time>
      </trkpt>
      <trkpt lat="41.708021" lon="-2.259747">
        <ele>1033.2</ele>
        <time>2023-02-11T12:28:20.000Z</time>
      </trkpt>
      <trkpt lat="41.708066" lon="-2.259853">
        <ele>1033.2</ele>
        <time>2023-02-11T12:28:21.000Z</time>
      </trkpt>
      <trkpt lat="41.708112" lon="-2.259957">
        <ele>1033.2</ele>
        <time>2023-02-11T12:28:22.000Z</time>
      </trkpt>
      <trkpt lat="41.708158" lon="-2.260061">
        <ele>1033.2</ele>
        <time>2023-02-11T12:28:23.000Z</time>
      </trkpt>
      <trkpt lat="41.708204" lon="-2.260164">
        <ele>1033.2</ele>
        <time>2023-02-11T12:28:24.000Z</time>
      </trkpt>
      <trkpt lat="41.708252" lon="-2.260266">
        <ele>1033.2</ele>
        <time>2023-02-11T12:28:25.000Z</time>
      </trkpt>
      <trkpt lat="41.708298" lon="-2.26037">
        <ele>1033.2</ele>
        <time>2023-02-11T12:28:26.000Z</time>
      </trkpt>
      <trkpt lat="41.708341" lon="-2.260473">
        <ele>1033.2</ele>
        <time>2023-02-11T12:28:27.000Z</time>
      </trkpt>
      <trkpt lat="41.708383" lon="-2.260577">
        <ele>1033.2</ele>
        <time>2023-02-11T12:28:28.000Z</time>
      </trkpt>
      <trkpt lat="41.708426" lon="-2.260681">
        <ele>1033.2</ele>
        <time>2023-02-11T12:28:29.000Z</time>
      </trkpt>
      <trkpt lat="41.708468" lon="-2.260784">
        <ele>1033.2</ele>
        <time>2023-02-11T12:28:30.000Z</time>
      </trkpt>
      <trkpt lat="41.708513" lon="-2.260888">
        <ele>1033.2</ele>
        <time>2023-02-11T12:28:31.000Z</time>
      </trkpt>
      <trkpt lat="41.708559" lon="-2.260994">
        <ele>1033.4</ele>
        <time>2023-02-11T12:28:32.000Z</time>
      </trkpt>
      <trkpt lat="41.708608" lon="-2.261098">
        <ele>1033.4</ele>
        <time>2023-02-11T12:28:33.000Z</time>
      </trkpt>
      <trkpt lat="41.708655" lon="-2.261204">
        <ele>1033.4</ele>
        <time>2023-02-11T12:28:34.000Z</time>
      </trkpt>
      <trkpt lat="41.708702" lon="-2.261311">
        <ele>1033.4</ele>
        <time>2023-02-11T12:28:35.000Z</time>
      </trkpt>
      <trkpt lat="41.708751" lon="-2.26142">
        <ele>1033.4</ele>
        <time>2023-02-11T12:28:36.000Z</time>
      </trkpt>
      <trkpt lat="41.708798" lon="-2.261533">
        <ele>1033.4</ele>
        <time>2023-02-11T12:28:37.000Z</time>
      </trkpt>
      <trkpt lat="41.708846" lon="-2.261647">
        <ele>1033.4</ele>
        <time>2023-02-11T12:28:38.000Z</time>
      </trkpt>
      <trkpt lat="41.708893" lon="-2.261759">
        <ele>1033.4</ele>
        <time>2023-02-11T12:28:39.000Z</time>
      </trkpt>
      <trkpt lat="41.708941" lon="-2.261871">
        <ele>1033.2</ele>
        <time>2023-02-11T12:28:40.000Z</time>
      </trkpt>
      <trkpt lat="41.708987" lon="-2.261982">
        <ele>1033</ele>
        <time>2023-02-11T12:28:41.000Z</time>
      </trkpt>
      <trkpt lat="41.709029" lon="-2.262092">
        <ele>1033</ele>
        <time>2023-02-11T12:28:42.000Z</time>
      </trkpt>
      <trkpt lat="41.709074" lon="-2.2622">
        <ele>1033</ele>
        <time>2023-02-11T12:28:43.000Z</time>
      </trkpt>
      <trkpt lat="41.70912" lon="-2.262304">
        <ele>1033</ele>
        <time>2023-02-11T12:28:44.000Z</time>
      </trkpt>
      <trkpt lat="41.709165" lon="-2.262409">
        <ele>1033</ele>
        <time>2023-02-11T12:28:45.000Z</time>
      </trkpt>
      <trkpt lat="41.709209" lon="-2.262511">
        <ele>1033</ele>
        <time>2023-02-11T12:28:46.000Z</time>
      </trkpt>
      <trkpt lat="41.709255" lon="-2.26261">
        <ele>1033</ele>
        <time>2023-02-11T12:28:47.000Z</time>
      </trkpt>
      <trkpt lat="41.7093" lon="-2.26271">
        <ele>1033.4</ele>
        <time>2023-02-11T12:28:48.000Z</time>
      </trkpt>
      <trkpt lat="41.709345" lon="-2.262808">
        <ele>1033.4</ele>
        <time>2023-02-11T12:28:49.000Z</time>
      </trkpt>
      <trkpt lat="41.709386" lon="-2.262907">
        <ele>1033.6</ele>
        <time>2023-02-11T12:28:50.000Z</time>
      </trkpt>
      <trkpt lat="41.70943" lon="-2.263005">
        <ele>1033.6</ele>
        <time>2023-02-11T12:28:51.000Z</time>
      </trkpt>
      <trkpt lat="41.709473" lon="-2.263103">
        <ele>1033.6</ele>
        <time>2023-02-11T12:28:52.000Z</time>
      </trkpt>
      <trkpt lat="41.709514" lon="-2.2632">
        <ele>1033.8</ele>
        <time>2023-02-11T12:28:53.000Z</time>
      </trkpt>
      <trkpt lat="41.709555" lon="-2.263297">
        <ele>1033.8</ele>
        <time>2023-02-11T12:28:54.000Z</time>
      </trkpt>
      <trkpt lat="41.709597" lon="-2.263392">
        <ele>1033.8</ele>
        <time>2023-02-11T12:28:55.000Z</time>
      </trkpt>
      <trkpt lat="41.709639" lon="-2.263487">
        <ele>1033.8</ele>
        <time>2023-02-11T12:28:56.000Z</time>
      </trkpt>
      <trkpt lat="41.709679" lon="-2.263584">
        <ele>1033.8</ele>
        <time>2023-02-11T12:28:57.000Z</time>
      </trkpt>
      <trkpt lat="41.709719" lon="-2.263679">
        <ele>1033.8</ele>
        <time>2023-02-11T12:28:58.000Z</time>
      </trkpt>
      <trkpt lat="41.709759" lon="-2.263771">
        <ele>1034</ele>
        <time>2023-02-11T12:28:59.000Z</time>
      </trkpt>
      <trkpt lat="41.709798" lon="-2.263864">
        <ele>1034</ele>
        <time>2023-02-11T12:29:00.000Z</time>
      </trkpt>
      <trkpt lat="41.709838" lon="-2.263954">
        <ele>1034</ele>
        <time>2023-02-11T12:29:01.000Z</time>
      </trkpt>
      <trkpt lat="41.709877" lon="-2.264044">
        <ele>1034</ele>
        <time>2023-02-11T12:29:02.000Z</time>
      </trkpt>
      <trkpt lat="41.709915" lon="-2.264134">
        <ele>1034</ele>
        <time>2023-02-11T12:29:03.000Z</time>
      </trkpt>
      <trkpt lat="41.709953" lon="-2.26422">
        <ele>1034.2</ele>
        <time>2023-02-11T12:29:04.000Z</time>
      </trkpt>
      <trkpt lat="41.709989" lon="-2.264305">
        <ele>1034.2</ele>
        <time>2023-02-11T12:29:05.000Z</time>
      </trkpt>
      <trkpt lat="41.710027" lon="-2.264389">
        <ele>1034.4</ele>
        <time>2023-02-11T12:29:06.000Z</time>
      </trkpt>
      <trkpt lat="41.710067" lon="-2.264474">
        <ele>1034.4</ele>
        <time>2023-02-11T12:29:07.000Z</time>
      </trkpt>
      <trkpt lat="41.710106" lon="-2.264559">
        <ele>1034.4</ele>
        <time>2023-02-11T12:29:08.000Z</time>
      </trkpt>
      <trkpt lat="41.710145" lon="-2.264642">
        <ele>1034.6</ele>
        <time>2023-02-11T12:29:09.000Z</time>
      </trkpt>
      <trkpt lat="41.710185" lon="-2.264729">
        <ele>1034.8</ele>
        <time>2023-02-11T12:29:10.000Z</time>
      </trkpt>
      <trkpt lat="41.710226" lon="-2.264822">
        <ele>1034.8</ele>
        <time>2023-02-11T12:29:11.000Z</time>
      </trkpt>
      <trkpt lat="41.710264" lon="-2.264915">
        <ele>1035</ele>
        <time>2023-02-11T12:29:12.000Z</time>
      </trkpt>
      <trkpt lat="41.710299" lon="-2.265003">
        <ele>1035.2</ele>
        <time>2023-02-11T12:29:13.000Z</time>
      </trkpt>
      <trkpt lat="41.710335" lon="-2.265088">
        <ele>1035.4</ele>
        <time>2023-02-11T12:29:14.000Z</time>
      </trkpt>
      <trkpt lat="41.710373" lon="-2.26517">
        <ele>1035.4</ele>
        <time>2023-02-11T12:29:15.000Z</time>
      </trkpt>
      <trkpt lat="41.71041" lon="-2.26525">
        <ele>1035.8</ele>
        <time>2023-02-11T12:29:16.000Z</time>
      </trkpt>
      <trkpt lat="41.710447" lon="-2.265333">
        <ele>1036</ele>
        <time>2023-02-11T12:29:17.000Z</time>
      </trkpt>
      <trkpt lat="41.710483" lon="-2.265416">
        <ele>1036.2</ele>
        <time>2023-02-11T12:29:18.000Z</time>
      </trkpt>
      <trkpt lat="41.710518" lon="-2.2655">
        <ele>1036.2</ele>
        <time>2023-02-11T12:29:19.000Z</time>
      </trkpt>
      <trkpt lat="41.710553" lon="-2.265585">
        <ele>1036.4</ele>
        <time>2023-02-11T12:29:20.000Z</time>
      </trkpt>
      <trkpt lat="41.710593" lon="-2.265666">
        <ele>1036.4</ele>
        <time>2023-02-11T12:29:21.000Z</time>
      </trkpt>
      <trkpt lat="41.710632" lon="-2.265748">
        <ele>1036.6</ele>
        <time>2023-02-11T12:29:22.000Z</time>
      </trkpt>
      <trkpt lat="41.710671" lon="-2.265834">
        <ele>1036.6</ele>
        <time>2023-02-11T12:29:23.000Z</time>
      </trkpt>
      <trkpt lat="41.710711" lon="-2.26592">
        <ele>1036.8</ele>
        <time>2023-02-11T12:29:24.000Z</time>
      </trkpt>
      <trkpt lat="41.710753" lon="-2.266007">
        <ele>1037</ele>
        <time>2023-02-11T12:29:25.000Z</time>
      </trkpt>
      <trkpt lat="41.710797" lon="-2.266094">
        <ele>1037</ele>
        <time>2023-02-11T12:29:26.000Z</time>
      </trkpt>
      <trkpt lat="41.710841" lon="-2.266182">
        <ele>1037</ele>
        <time>2023-02-11T12:29:27.000Z</time>
      </trkpt>
      <trkpt lat="41.710885" lon="-2.266274">
        <ele>1037.2</ele>
        <time>2023-02-11T12:29:28.000Z</time>
      </trkpt>
      <trkpt lat="41.710931" lon="-2.26636">
        <ele>1037.2</ele>
        <time>2023-02-11T12:29:29.000Z</time>
      </trkpt>
      <trkpt lat="41.710979" lon="-2.266444">
        <ele>1037.2</ele>
        <time>2023-02-11T12:29:30.000Z</time>
      </trkpt>
      <trkpt lat="41.711024" lon="-2.266536">
        <ele>1037.2</ele>
        <time>2023-02-11T12:29:31.000Z</time>
      </trkpt>
      <trkpt lat="41.711071" lon="-2.266627">
        <ele>1037.2</ele>
        <time>2023-02-11T12:29:32.000Z</time>
      </trkpt>
      <trkpt lat="41.711116" lon="-2.266719">
        <ele>1037</ele>
        <time>2023-02-11T12:29:33.000Z</time>
      </trkpt>
      <trkpt lat="41.71116" lon="-2.266812">
        <ele>1037</ele>
        <time>2023-02-11T12:29:34.000Z</time>
      </trkpt>
      <trkpt lat="41.711206" lon="-2.266904">
        <ele>1037</ele>
        <time>2023-02-11T12:29:35.000Z</time>
      </trkpt>
      <trkpt lat="41.711252" lon="-2.266995">
        <ele>1037</ele>
        <time>2023-02-11T12:29:36.000Z</time>
      </trkpt>
      <trkpt lat="41.711297" lon="-2.267085">
        <ele>1036.8</ele>
        <time>2023-02-11T12:29:37.000Z</time>
      </trkpt>
      <trkpt lat="41.711341" lon="-2.267177">
        <ele>1036.8</ele>
        <time>2023-02-11T12:29:38.000Z</time>
      </trkpt>
      <trkpt lat="41.711383" lon="-2.26727">
        <ele>1036.6</ele>
        <time>2023-02-11T12:29:39.000Z</time>
      </trkpt>
      <trkpt lat="41.711428" lon="-2.267362">
        <ele>1036.6</ele>
        <time>2023-02-11T12:29:40.000Z</time>
      </trkpt>
      <trkpt lat="41.711473" lon="-2.267453">
        <ele>1036.6</ele>
        <time>2023-02-11T12:29:41.000Z</time>
      </trkpt>
      <trkpt lat="41.711517" lon="-2.267543">
        <ele>1036.6</ele>
        <time>2023-02-11T12:29:42.000Z</time>
      </trkpt>
      <trkpt lat="41.711562" lon="-2.267633">
        <ele>1036.4</ele>
        <time>2023-02-11T12:29:43.000Z</time>
      </trkpt>
      <trkpt lat="41.711606" lon="-2.267722">
        <ele>1036.4</ele>
        <time>2023-02-11T12:29:44.000Z</time>
      </trkpt>
      <trkpt lat="41.71165" lon="-2.26781">
        <ele>1036.4</ele>
        <time>2023-02-11T12:29:45.000Z</time>
      </trkpt>
      <trkpt lat="41.711693" lon="-2.267898">
        <ele>1036.4</ele>
        <time>2023-02-11T12:29:46.000Z</time>
      </trkpt>
      <trkpt lat="41.711736" lon="-2.267987">
        <ele>1036.4</ele>
        <time>2023-02-11T12:29:47.000Z</time>
      </trkpt>
      <trkpt lat="41.711778" lon="-2.268073">
        <ele>1036.6</ele>
        <time>2023-02-11T12:29:48.000Z</time>
      </trkpt>
      <trkpt lat="41.711819" lon="-2.268157">
        <ele>1036.6</ele>
        <time>2023-02-11T12:29:49.000Z</time>
      </trkpt>
      <trkpt lat="41.71186" lon="-2.268239">
        <ele>1036.8</ele>
        <time>2023-02-11T12:29:50.000Z</time>
      </trkpt>
      <trkpt lat="41.711902" lon="-2.26832">
        <ele>1036.8</ele>
        <time>2023-02-11T12:29:51.000Z</time>
      </trkpt>
      <trkpt lat="41.711941" lon="-2.268402">
        <ele>1037</ele>
        <time>2023-02-11T12:29:52.000Z</time>
      </trkpt>
      <trkpt lat="41.71198" lon="-2.268483">
        <ele>1037</ele>
        <time>2023-02-11T12:29:53.000Z</time>
      </trkpt>
      <trkpt lat="41.712019" lon="-2.268563">
        <ele>1037.2</ele>
        <time>2023-02-11T12:29:54.000Z</time>
      </trkpt>
      <trkpt lat="41.712057" lon="-2.268643">
        <ele>1037.4</ele>
        <time>2023-02-11T12:29:55.000Z</time>
      </trkpt>
      <trkpt lat="41.712095" lon="-2.268723">
        <ele>1037.4</ele>
        <time>2023-02-11T12:29:56.000Z</time>
      </trkpt>
      <trkpt lat="41.712132" lon="-2.268804">
        <ele>1037.8</ele>
        <time>2023-02-11T12:29:57.000Z</time>
      </trkpt>
      <trkpt lat="41.712172" lon="-2.26888">
        <ele>1038</ele>
        <time>2023-02-11T12:29:58.000Z</time>
      </trkpt>
      <trkpt lat="41.71221" lon="-2.268959">
        <ele>1038.4</ele>
        <time>2023-02-11T12:29:59.000Z</time>
      </trkpt>
      <trkpt lat="41.712249" lon="-2.26904">
        <ele>1038.4</ele>
        <time>2023-02-11T12:30:00.000Z</time>
      </trkpt>
      <trkpt lat="41.71229" lon="-2.269121">
        <ele>1038.6</ele>
        <time>2023-02-11T12:30:01.000Z</time>
      </trkpt>
      <trkpt lat="41.712331" lon="-2.269204">
        <ele>1038.6</ele>
        <time>2023-02-11T12:30:02.000Z</time>
      </trkpt>
      <trkpt lat="41.712372" lon="-2.269287">
        <ele>1038.8</ele>
        <time>2023-02-11T12:30:03.000Z</time>
      </trkpt>
      <trkpt lat="41.712415" lon="-2.269371">
        <ele>1038.8</ele>
        <time>2023-02-11T12:30:04.000Z</time>
      </trkpt>
      <trkpt lat="41.712457" lon="-2.269456">
        <ele>1039</ele>
        <time>2023-02-11T12:30:05.000Z</time>
      </trkpt>
      <trkpt lat="41.712499" lon="-2.269542">
        <ele>1039</ele>
        <time>2023-02-11T12:30:06.000Z</time>
      </trkpt>
      <trkpt lat="41.712542" lon="-2.269627">
        <ele>1039</ele>
        <time>2023-02-11T12:30:07.000Z</time>
      </trkpt>
      <trkpt lat="41.712585" lon="-2.269711">
        <ele>1039</ele>
        <time>2023-02-11T12:30:08.000Z</time>
      </trkpt>
      <trkpt lat="41.712627" lon="-2.269797">
        <ele>1039.2</ele>
        <time>2023-02-11T12:30:09.000Z</time>
      </trkpt>
      <trkpt lat="41.712669" lon="-2.269883">
        <ele>1039.2</ele>
        <time>2023-02-11T12:30:10.000Z</time>
      </trkpt>
      <trkpt lat="41.712711" lon="-2.269967">
        <ele>1039.2</ele>
        <time>2023-02-11T12:30:11.000Z</time>
      </trkpt>
      <trkpt lat="41.712753" lon="-2.270052">
        <ele>1039.2</ele>
        <time>2023-02-11T12:30:12.000Z</time>
      </trkpt>
      <trkpt lat="41.712795" lon="-2.270138">
        <ele>1039.2</ele>
        <time>2023-02-11T12:30:13.000Z</time>
      </trkpt>
      <trkpt lat="41.712836" lon="-2.270221">
        <ele>1039.4</ele>
        <time>2023-02-11T12:30:14.000Z</time>
      </trkpt>
      <trkpt lat="41.712874" lon="-2.270306">
        <ele>1039.6</ele>
        <time>2023-02-11T12:30:15.000Z</time>
      </trkpt>
      <trkpt lat="41.712915" lon="-2.270388">
        <ele>1039.6</ele>
        <time>2023-02-11T12:30:16.000Z</time>
      </trkpt>
      <trkpt lat="41.712957" lon="-2.27047">
        <ele>1039.8</ele>
        <time>2023-02-11T12:30:17.000Z</time>
      </trkpt>
      <trkpt lat="41.712995" lon="-2.270551">
        <ele>1039.8</ele>
        <time>2023-02-11T12:30:18.000Z</time>
      </trkpt>
      <trkpt lat="41.713035" lon="-2.270633">
        <ele>1040</ele>
        <time>2023-02-11T12:30:19.000Z</time>
      </trkpt>
      <trkpt lat="41.713076" lon="-2.270714">
        <ele>1040</ele>
        <time>2023-02-11T12:30:20.000Z</time>
      </trkpt>
      <trkpt lat="41.713117" lon="-2.270795">
        <ele>1040.2</ele>
        <time>2023-02-11T12:30:21.000Z</time>
      </trkpt>
      <trkpt lat="41.713158" lon="-2.270874">
        <ele>1040.2</ele>
        <time>2023-02-11T12:30:22.000Z</time>
      </trkpt>
      <trkpt lat="41.713198" lon="-2.270955">
        <ele>1040.2</ele>
        <time>2023-02-11T12:30:23.000Z</time>
      </trkpt>
      <trkpt lat="41.713239" lon="-2.271033">
        <ele>1040.2</ele>
        <time>2023-02-11T12:30:24.000Z</time>
      </trkpt>
      <trkpt lat="41.713281" lon="-2.271114">
        <ele>1040.4</ele>
        <time>2023-02-11T12:30:25.000Z</time>
      </trkpt>
      <trkpt lat="41.713321" lon="-2.271194">
        <ele>1040.6</ele>
        <time>2023-02-11T12:30:26.000Z</time>
      </trkpt>
      <trkpt lat="41.713362" lon="-2.271276">
        <ele>1040.6</ele>
        <time>2023-02-11T12:30:27.000Z</time>
      </trkpt>
      <trkpt lat="41.713402" lon="-2.271356">
        <ele>1040.8</ele>
        <time>2023-02-11T12:30:28.000Z</time>
      </trkpt>
      <trkpt lat="41.713442" lon="-2.271436">
        <ele>1040.8</ele>
        <time>2023-02-11T12:30:29.000Z</time>
      </trkpt>
      <trkpt lat="41.713481" lon="-2.271515">
        <ele>1041</ele>
        <time>2023-02-11T12:30:30.000Z</time>
      </trkpt>
      <trkpt lat="41.713523" lon="-2.271593">
        <ele>1041</ele>
        <time>2023-02-11T12:30:31.000Z</time>
      </trkpt>
      <trkpt lat="41.713563" lon="-2.271672">
        <ele>1041.2</ele>
        <time>2023-02-11T12:30:32.000Z</time>
      </trkpt>
      <trkpt lat="41.713599" lon="-2.271752">
        <ele>1041.4</ele>
        <time>2023-02-11T12:30:33.000Z</time>
      </trkpt>
      <trkpt lat="41.713635" lon="-2.271831">
        <ele>1041.4</ele>
        <time>2023-02-11T12:30:34.000Z</time>
      </trkpt>
      <trkpt lat="41.713674" lon="-2.271909">
        <ele>1041.4</ele>
        <time>2023-02-11T12:30:35.000Z</time>
      </trkpt>
      <trkpt lat="41.713714" lon="-2.271985">
        <ele>1041.8</ele>
        <time>2023-02-11T12:30:36.000Z</time>
      </trkpt>
      <trkpt lat="41.713754" lon="-2.272063">
        <ele>1042</ele>
        <time>2023-02-11T12:30:37.000Z</time>
      </trkpt>
      <trkpt lat="41.71379" lon="-2.272145">
        <ele>1042.2</ele>
        <time>2023-02-11T12:30:38.000Z</time>
      </trkpt>
      <trkpt lat="41.713826" lon="-2.272225">
        <ele>1042.4</ele>
        <time>2023-02-11T12:30:39.000Z</time>
      </trkpt>
      <trkpt lat="41.713866" lon="-2.272301">
        <ele>1042.6</ele>
        <time>2023-02-11T12:30:40.000Z</time>
      </trkpt>
      <trkpt lat="41.713906" lon="-2.272378">
        <ele>1042.8</ele>
        <time>2023-02-11T12:30:41.000Z</time>
      </trkpt>
      <trkpt lat="41.713944" lon="-2.272458">
        <ele>1042.8</ele>
        <time>2023-02-11T12:30:42.000Z</time>
      </trkpt>
      <trkpt lat="41.713985" lon="-2.272536">
        <ele>1043</ele>
        <time>2023-02-11T12:30:43.000Z</time>
      </trkpt>
      <trkpt lat="41.714028" lon="-2.272616">
        <ele>1043</ele>
        <time>2023-02-11T12:30:44.000Z</time>
      </trkpt>
      <trkpt lat="41.714071" lon="-2.272698">
        <ele>1043</ele>
        <time>2023-02-11T12:30:45.000Z</time>
      </trkpt>
      <trkpt lat="41.714113" lon="-2.272782">
        <ele>1043.2</ele>
        <time>2023-02-11T12:30:46.000Z</time>
      </trkpt>
      <trkpt lat="41.714153" lon="-2.272868">
        <ele>1043.2</ele>
        <time>2023-02-11T12:30:47.000Z</time>
      </trkpt>
      <trkpt lat="41.714193" lon="-2.272956">
        <ele>1043.2</ele>
        <time>2023-02-11T12:30:48.000Z</time>
      </trkpt>
      <trkpt lat="41.714235" lon="-2.273045">
        <ele>1043.2</ele>
        <time>2023-02-11T12:30:49.000Z</time>
      </trkpt>
      <trkpt lat="41.714277" lon="-2.273133">
        <ele>1043.2</ele>
        <time>2023-02-11T12:30:50.000Z</time>
      </trkpt>
      <trkpt lat="41.71432" lon="-2.273222">
        <ele>1043.2</ele>
        <time>2023-02-11T12:30:51.000Z</time>
      </trkpt>
      <trkpt lat="41.714364" lon="-2.273314">
        <ele>1043.2</ele>
        <time>2023-02-11T12:30:52.000Z</time>
      </trkpt>
      <trkpt lat="41.71441" lon="-2.273405">
        <ele>1043.2</ele>
        <time>2023-02-11T12:30:53.000Z</time>
      </trkpt>
      <trkpt lat="41.714455" lon="-2.2735">
        <ele>1043.2</ele>
        <time>2023-02-11T12:30:54.000Z</time>
      </trkpt>
      <trkpt lat="41.7145" lon="-2.273595">
        <ele>1043.2</ele>
        <time>2023-02-11T12:30:55.000Z</time>
      </trkpt>
      <trkpt lat="41.714546" lon="-2.27369">
        <ele>1043.2</ele>
        <time>2023-02-11T12:30:56.000Z</time>
      </trkpt>
      <trkpt lat="41.714592" lon="-2.273785">
        <ele>1043</ele>
        <time>2023-02-11T12:30:57.000Z</time>
      </trkpt>
      <trkpt lat="41.714637" lon="-2.273879">
        <ele>1043</ele>
        <time>2023-02-11T12:30:58.000Z</time>
      </trkpt>
      <trkpt lat="41.714684" lon="-2.273971">
        <ele>1042.8</ele>
        <time>2023-02-11T12:30:59.000Z</time>
      </trkpt>
      <trkpt lat="41.714731" lon="-2.274064">
        <ele>1042.8</ele>
        <time>2023-02-11T12:31:00.000Z</time>
      </trkpt>
      <trkpt lat="41.714778" lon="-2.274158">
        <ele>1042.8</ele>
        <time>2023-02-11T12:31:01.000Z</time>
      </trkpt>
      <trkpt lat="41.714822" lon="-2.274255">
        <ele>1042.6</ele>
        <time>2023-02-11T12:31:02.000Z</time>
      </trkpt>
      <trkpt lat="41.714867" lon="-2.274353">
        <ele>1042.6</ele>
        <time>2023-02-11T12:31:03.000Z</time>
      </trkpt>
      <trkpt lat="41.714912" lon="-2.274452">
        <ele>1042.4</ele>
        <time>2023-02-11T12:31:04.000Z</time>
      </trkpt>
      <trkpt lat="41.714956" lon="-2.274553">
        <ele>1042.4</ele>
        <time>2023-02-11T12:31:05.000Z</time>
      </trkpt>
      <trkpt lat="41.715002" lon="-2.274651">
        <ele>1042.4</ele>
        <time>2023-02-11T12:31:06.000Z</time>
      </trkpt>
      <trkpt lat="41.715043" lon="-2.274751">
        <ele>1042.2</ele>
        <time>2023-02-11T12:31:07.000Z</time>
      </trkpt>
      <trkpt lat="41.715086" lon="-2.274852">
        <ele>1042.2</ele>
        <time>2023-02-11T12:31:08.000Z</time>
      </trkpt>
      <trkpt lat="41.715128" lon="-2.274951">
        <ele>1042.2</ele>
        <time>2023-02-11T12:31:09.000Z</time>
      </trkpt>
      <trkpt lat="41.715169" lon="-2.27505">
        <ele>1042.2</ele>
        <time>2023-02-11T12:31:10.000Z</time>
      </trkpt>
      <trkpt lat="41.71521" lon="-2.275148">
        <ele>1042</ele>
        <time>2023-02-11T12:31:11.000Z</time>
      </trkpt>
      <trkpt lat="41.715252" lon="-2.275245">
        <ele>1042</ele>
        <time>2023-02-11T12:31:12.000Z</time>
      </trkpt>
      <trkpt lat="41.715293" lon="-2.275343">
        <ele>1042</ele>
        <time>2023-02-11T12:31:13.000Z</time>
      </trkpt>
      <trkpt lat="41.715331" lon="-2.275441">
        <ele>1042</ele>
        <time>2023-02-11T12:31:14.000Z</time>
      </trkpt>
      <trkpt lat="41.715373" lon="-2.275539">
        <ele>1042</ele>
        <time>2023-02-11T12:31:15.000Z</time>
      </trkpt>
      <trkpt lat="41.715413" lon="-2.275639">
        <ele>1041.8</ele>
        <time>2023-02-11T12:31:16.000Z</time>
      </trkpt>
      <trkpt lat="41.715451" lon="-2.27574">
        <ele>1041.8</ele>
        <time>2023-02-11T12:31:17.000Z</time>
      </trkpt>
      <trkpt lat="41.715492" lon="-2.275839">
        <ele>1041.8</ele>
        <time>2023-02-11T12:31:18.000Z</time>
      </trkpt>
      <trkpt lat="41.715535" lon="-2.275931">
        <ele>1041.8</ele>
        <time>2023-02-11T12:31:19.000Z</time>
      </trkpt>
      <trkpt lat="41.715577" lon="-2.276027">
        <ele>1041.8</ele>
        <time>2023-02-11T12:31:20.000Z</time>
      </trkpt>
      <trkpt lat="41.715621" lon="-2.276123">
        <ele>1041.8</ele>
        <time>2023-02-11T12:31:21.000Z</time>
      </trkpt>
      <trkpt lat="41.715667" lon="-2.276217">
        <ele>1041.8</ele>
        <time>2023-02-11T12:31:22.000Z</time>
      </trkpt>
      <trkpt lat="41.715714" lon="-2.276309">
        <ele>1041.8</ele>
        <time>2023-02-11T12:31:23.000Z</time>
      </trkpt>
      <trkpt lat="41.715764" lon="-2.276392">
        <ele>1041.8</ele>
        <time>2023-02-11T12:31:24.000Z</time>
      </trkpt>
      <trkpt lat="41.715814" lon="-2.276476">
        <ele>1041.8</ele>
        <time>2023-02-11T12:31:25.000Z</time>
      </trkpt>
      <trkpt lat="41.715865" lon="-2.276559">
        <ele>1041.8</ele>
        <time>2023-02-11T12:31:26.000Z</time>
      </trkpt>
      <trkpt lat="41.715917" lon="-2.276641">
        <ele>1041.8</ele>
        <time>2023-02-11T12:31:27.000Z</time>
      </trkpt>
      <trkpt lat="41.715968" lon="-2.276724">
        <ele>1041.8</ele>
        <time>2023-02-11T12:31:28.000Z</time>
      </trkpt>
      <trkpt lat="41.716019" lon="-2.27681">
        <ele>1042</ele>
        <time>2023-02-11T12:31:29.000Z</time>
      </trkpt>
      <trkpt lat="41.716071" lon="-2.276898">
        <ele>1042</ele>
        <time>2023-02-11T12:31:30.000Z</time>
      </trkpt>
      <trkpt lat="41.716122" lon="-2.276987">
        <ele>1042</ele>
        <time>2023-02-11T12:31:31.000Z</time>
      </trkpt>
      <trkpt lat="41.716172" lon="-2.27708">
        <ele>1042.2</ele>
        <time>2023-02-11T12:31:32.000Z</time>
      </trkpt>
      <trkpt lat="41.716221" lon="-2.277178">
        <ele>1042.6</ele>
        <time>2023-02-11T12:31:33.000Z</time>
      </trkpt>
      <trkpt lat="41.716268" lon="-2.27728">
        <ele>1042.6</ele>
        <time>2023-02-11T12:31:34.000Z</time>
      </trkpt>
      <trkpt lat="41.716312" lon="-2.277388">
        <ele>1042.8</ele>
        <time>2023-02-11T12:31:35.000Z</time>
      </trkpt>
      <trkpt lat="41.716355" lon="-2.277499">
        <ele>1042.8</ele>
        <time>2023-02-11T12:31:36.000Z</time>
      </trkpt>
      <trkpt lat="41.716402" lon="-2.277613">
        <ele>1042.8</ele>
        <time>2023-02-11T12:31:37.000Z</time>
      </trkpt>
      <trkpt lat="41.716449" lon="-2.277728">
        <ele>1042.8</ele>
        <time>2023-02-11T12:31:38.000Z</time>
      </trkpt>
      <trkpt lat="41.716498" lon="-2.277846">
        <ele>1042.8</ele>
        <time>2023-02-11T12:31:39.000Z</time>
      </trkpt>
      <trkpt lat="41.716548" lon="-2.277966">
        <ele>1042.8</ele>
        <time>2023-02-11T12:31:40.000Z</time>
      </trkpt>
      <trkpt lat="41.716599" lon="-2.278091">
        <ele>1042.8</ele>
        <time>2023-02-11T12:31:41.000Z</time>
      </trkpt>
      <trkpt lat="41.71665" lon="-2.278219">
        <ele>1042.8</ele>
        <time>2023-02-11T12:31:42.000Z</time>
      </trkpt>
      <trkpt lat="41.716701" lon="-2.278346">
        <ele>1042.6</ele>
        <time>2023-02-11T12:31:43.000Z</time>
      </trkpt>
      <trkpt lat="41.716753" lon="-2.278472">
        <ele>1042.2</ele>
        <time>2023-02-11T12:31:44.000Z</time>
      </trkpt>
      <trkpt lat="41.716806" lon="-2.278597">
        <ele>1042.2</ele>
        <time>2023-02-11T12:31:45.000Z</time>
      </trkpt>
      <trkpt lat="41.716862" lon="-2.27872">
        <ele>1042</ele>
        <time>2023-02-11T12:31:46.000Z</time>
      </trkpt>
      <trkpt lat="41.716919" lon="-2.278839">
        <ele>1041.8</ele>
        <time>2023-02-11T12:31:47.000Z</time>
      </trkpt>
      <trkpt lat="41.716975" lon="-2.278963">
        <ele>1041.4</ele>
        <time>2023-02-11T12:31:48.000Z</time>
      </trkpt>
      <trkpt lat="41.717028" lon="-2.279088">
        <ele>1041</ele>
        <time>2023-02-11T12:31:49.000Z</time>
      </trkpt>
      <trkpt lat="41.717082" lon="-2.279208">
        <ele>1040.4</ele>
        <time>2023-02-11T12:31:50.000Z</time>
      </trkpt>
      <trkpt lat="41.717134" lon="-2.279329">
        <ele>1040.2</ele>
        <time>2023-02-11T12:31:51.000Z</time>
      </trkpt>
      <trkpt lat="41.717186" lon="-2.279447">
        <ele>1039.8</ele>
        <time>2023-02-11T12:31:52.000Z</time>
      </trkpt>
      <trkpt lat="41.717237" lon="-2.279563">
        <ele>1039.6</ele>
        <time>2023-02-11T12:31:53.000Z</time>
      </trkpt>
      <trkpt lat="41.717287" lon="-2.27968">
        <ele>1039.6</ele>
        <time>2023-02-11T12:31:54.000Z</time>
      </trkpt>
      <trkpt lat="41.717333" lon="-2.279797">
        <ele>1039.4</ele>
        <time>2023-02-11T12:31:55.000Z</time>
      </trkpt>
      <trkpt lat="41.717381" lon="-2.279914">
        <ele>1039.4</ele>
        <time>2023-02-11T12:31:56.000Z</time>
      </trkpt>
      <trkpt lat="41.71743" lon="-2.280029">
        <ele>1039.2</ele>
        <time>2023-02-11T12:31:57.000Z</time>
      </trkpt>
      <trkpt lat="41.717477" lon="-2.280142">
        <ele>1039.2</ele>
        <time>2023-02-11T12:31:58.000Z</time>
      </trkpt>
      <trkpt lat="41.717526" lon="-2.280255">
        <ele>1039.2</ele>
        <time>2023-02-11T12:31:59.000Z</time>
      </trkpt>
      <trkpt lat="41.717576" lon="-2.280359">
        <ele>1039.2</ele>
        <time>2023-02-11T12:32:00.000Z</time>
      </trkpt>
      <trkpt lat="41.717623" lon="-2.280471">
        <ele>1039.2</ele>
        <time>2023-02-11T12:32:01.000Z</time>
      </trkpt>
      <trkpt lat="41.717674" lon="-2.280577">
        <ele>1039.2</ele>
        <time>2023-02-11T12:32:02.000Z</time>
      </trkpt>
      <trkpt lat="41.717719" lon="-2.280689">
        <ele>1039.2</ele>
        <time>2023-02-11T12:32:03.000Z</time>
      </trkpt>
      <trkpt lat="41.717765" lon="-2.280798">
        <ele>1039.2</ele>
        <time>2023-02-11T12:32:04.000Z</time>
      </trkpt>
      <trkpt lat="41.717809" lon="-2.280908">
        <ele>1039.2</ele>
        <time>2023-02-11T12:32:05.000Z</time>
      </trkpt>
      <trkpt lat="41.717854" lon="-2.281016">
        <ele>1039.2</ele>
        <time>2023-02-11T12:32:06.000Z</time>
      </trkpt>
      <trkpt lat="41.717901" lon="-2.281124">
        <ele>1039.2</ele>
        <time>2023-02-11T12:32:07.000Z</time>
      </trkpt>
      <trkpt lat="41.717947" lon="-2.28123">
        <ele>1039.2</ele>
        <time>2023-02-11T12:32:08.000Z</time>
      </trkpt>
      <trkpt lat="41.717995" lon="-2.281337">
        <ele>1039.2</ele>
        <time>2023-02-11T12:32:09.000Z</time>
      </trkpt>
      <trkpt lat="41.718043" lon="-2.281443">
        <ele>1039.4</ele>
        <time>2023-02-11T12:32:10.000Z</time>
      </trkpt>
      <trkpt lat="41.71809" lon="-2.281551">
        <ele>1039.4</ele>
        <time>2023-02-11T12:32:11.000Z</time>
      </trkpt>
      <trkpt lat="41.718134" lon="-2.28166">
        <ele>1039.4</ele>
        <time>2023-02-11T12:32:12.000Z</time>
      </trkpt>
      <trkpt lat="41.718174" lon="-2.281769">
        <ele>1039.4</ele>
        <time>2023-02-11T12:32:13.000Z</time>
      </trkpt>
      <trkpt lat="41.718217" lon="-2.281875">
        <ele>1039.4</ele>
        <time>2023-02-11T12:32:14.000Z</time>
      </trkpt>
      <trkpt lat="41.71826" lon="-2.281977">
        <ele>1039.4</ele>
        <time>2023-02-11T12:32:15.000Z</time>
      </trkpt>
      <trkpt lat="41.718303" lon="-2.28208">
        <ele>1039.4</ele>
        <time>2023-02-11T12:32:16.000Z</time>
      </trkpt>
      <trkpt lat="41.718346" lon="-2.282182">
        <ele>1039.6</ele>
        <time>2023-02-11T12:32:17.000Z</time>
      </trkpt>
      <trkpt lat="41.718388" lon="-2.282282">
        <ele>1039.6</ele>
        <time>2023-02-11T12:32:18.000Z</time>
      </trkpt>
      <trkpt lat="41.718429" lon="-2.282385">
        <ele>1039.8</ele>
        <time>2023-02-11T12:32:19.000Z</time>
      </trkpt>
      <trkpt lat="41.718467" lon="-2.282487">
        <ele>1039.8</ele>
        <time>2023-02-11T12:32:20.000Z</time>
      </trkpt>
      <trkpt lat="41.718506" lon="-2.28259">
        <ele>1040.2</ele>
        <time>2023-02-11T12:32:21.000Z</time>
      </trkpt>
      <trkpt lat="41.718545" lon="-2.282692">
        <ele>1040.8</ele>
        <time>2023-02-11T12:32:22.000Z</time>
      </trkpt>
      <trkpt lat="41.718584" lon="-2.282795">
        <ele>1040.6</ele>
        <time>2023-02-11T12:32:23.000Z</time>
      </trkpt>
      <trkpt lat="41.718623" lon="-2.282899">
        <ele>1040.8</ele>
        <time>2023-02-11T12:32:24.000Z</time>
      </trkpt>
      <trkpt lat="41.718665" lon="-2.283003">
        <ele>1041</ele>
        <time>2023-02-11T12:32:25.000Z</time>
      </trkpt>
      <trkpt lat="41.718705" lon="-2.283106">
        <ele>1041.2</ele>
        <time>2023-02-11T12:32:26.000Z</time>
      </trkpt>
      <trkpt lat="41.718746" lon="-2.283209">
        <ele>1041.2</ele>
        <time>2023-02-11T12:32:27.000Z</time>
      </trkpt>
      <trkpt lat="41.718788" lon="-2.283311">
        <ele>1041.2</ele>
        <time>2023-02-11T12:32:28.000Z</time>
      </trkpt>
      <trkpt lat="41.718828" lon="-2.283413">
        <ele>1041.4</ele>
        <time>2023-02-11T12:32:29.000Z</time>
      </trkpt>
      <trkpt lat="41.718869" lon="-2.283513">
        <ele>1041.4</ele>
        <time>2023-02-11T12:32:30.000Z</time>
      </trkpt>
      <trkpt lat="41.718909" lon="-2.283611">
        <ele>1041.4</ele>
        <time>2023-02-11T12:32:31.000Z</time>
      </trkpt>
      <trkpt lat="41.718949" lon="-2.283709">
        <ele>1041.4</ele>
        <time>2023-02-11T12:32:32.000Z</time>
      </trkpt>
      <trkpt lat="41.718985" lon="-2.283806">
        <ele>1041.4</ele>
        <time>2023-02-11T12:32:33.000Z</time>
      </trkpt>
      <trkpt lat="41.719025" lon="-2.283903">
        <ele>1041.4</ele>
        <time>2023-02-11T12:32:34.000Z</time>
      </trkpt>
      <trkpt lat="41.719065" lon="-2.284">
        <ele>1041.6</ele>
        <time>2023-02-11T12:32:35.000Z</time>
      </trkpt>
      <trkpt lat="41.719105" lon="-2.284098">
        <ele>1041.6</ele>
        <time>2023-02-11T12:32:36.000Z</time>
      </trkpt>
      <trkpt lat="41.719143" lon="-2.284196">
        <ele>1042</ele>
        <time>2023-02-11T12:32:37.000Z</time>
      </trkpt>
      <trkpt lat="41.719182" lon="-2.284293">
        <ele>1042.2</ele>
        <time>2023-02-11T12:32:38.000Z</time>
      </trkpt>
      <trkpt lat="41.719221" lon="-2.284391">
        <ele>1042.2</ele>
        <time>2023-02-11T12:32:39.000Z</time>
      </trkpt>
      <trkpt lat="41.71926" lon="-2.28449">
        <ele>1042.4</ele>
        <time>2023-02-11T12:32:40.000Z</time>
      </trkpt>
      <trkpt lat="41.719301" lon="-2.284588">
        <ele>1042.4</ele>
        <time>2023-02-11T12:32:41.000Z</time>
      </trkpt>
      <trkpt lat="41.719342" lon="-2.284688">
        <ele>1042.6</ele>
        <time>2023-02-11T12:32:42.000Z</time>
      </trkpt>
      <trkpt lat="41.719383" lon="-2.284789">
        <ele>1042.6</ele>
        <time>2023-02-11T12:32:43.000Z</time>
      </trkpt>
      <trkpt lat="41.719424" lon="-2.284893">
        <ele>1042.6</ele>
        <time>2023-02-11T12:32:44.000Z</time>
      </trkpt>
      <trkpt lat="41.719465" lon="-2.284999">
        <ele>1042.6</ele>
        <time>2023-02-11T12:32:45.000Z</time>
      </trkpt>
      <trkpt lat="41.719507" lon="-2.285106">
        <ele>1042.6</ele>
        <time>2023-02-11T12:32:46.000Z</time>
      </trkpt>
      <trkpt lat="41.71955" lon="-2.285215">
        <ele>1042.6</ele>
        <time>2023-02-11T12:32:47.000Z</time>
      </trkpt>
      <trkpt lat="41.719594" lon="-2.285327">
        <ele>1042.6</ele>
        <time>2023-02-11T12:32:48.000Z</time>
      </trkpt>
      <trkpt lat="41.719639" lon="-2.285441">
        <ele>1042.6</ele>
        <time>2023-02-11T12:32:49.000Z</time>
      </trkpt>
      <trkpt lat="41.719683" lon="-2.285556">
        <ele>1042.4</ele>
        <time>2023-02-11T12:32:50.000Z</time>
      </trkpt>
      <trkpt lat="41.71973" lon="-2.285674">
        <ele>1042.4</ele>
        <time>2023-02-11T12:32:51.000Z</time>
      </trkpt>
      <trkpt lat="41.719777" lon="-2.285794">
        <ele>1042.4</ele>
        <time>2023-02-11T12:32:52.000Z</time>
      </trkpt>
      <trkpt lat="41.719826" lon="-2.285917">
        <ele>1042.2</ele>
        <time>2023-02-11T12:32:53.000Z</time>
      </trkpt>
      <trkpt lat="41.719874" lon="-2.286042">
        <ele>1042.2</ele>
        <time>2023-02-11T12:32:54.000Z</time>
      </trkpt>
      <trkpt lat="41.719925" lon="-2.286174">
        <ele>1042</ele>
        <time>2023-02-11T12:32:55.000Z</time>
      </trkpt>
      <trkpt lat="41.719975" lon="-2.286303">
        <ele>1041.8</ele>
        <time>2023-02-11T12:32:56.000Z</time>
      </trkpt>
      <trkpt lat="41.720025" lon="-2.286433">
        <ele>1041.4</ele>
        <time>2023-02-11T12:32:57.000Z</time>
      </trkpt>
      <trkpt lat="41.720074" lon="-2.286564">
        <ele>1041.2</ele>
        <time>2023-02-11T12:32:58.000Z</time>
      </trkpt>
      <trkpt lat="41.720129" lon="-2.286693">
        <ele>1041</ele>
        <time>2023-02-11T12:32:59.000Z</time>
      </trkpt>
      <trkpt lat="41.720181" lon="-2.286827">
        <ele>1040.6</ele>
        <time>2023-02-11T12:33:00.000Z</time>
      </trkpt>
      <trkpt lat="41.720229" lon="-2.286957">
        <ele>1040.2</ele>
        <time>2023-02-11T12:33:01.000Z</time>
      </trkpt>
      <trkpt lat="41.720279" lon="-2.287087">
        <ele>1039.6</ele>
        <time>2023-02-11T12:33:02.000Z</time>
      </trkpt>
      <trkpt lat="41.72033" lon="-2.287217">
        <ele>1039.4</ele>
        <time>2023-02-11T12:33:03.000Z</time>
      </trkpt>
      <trkpt lat="41.720376" lon="-2.28734">
        <ele>1039</ele>
        <time>2023-02-11T12:33:04.000Z</time>
      </trkpt>
      <trkpt lat="41.720421" lon="-2.287463">
        <ele>1038.8</ele>
        <time>2023-02-11T12:33:05.000Z</time>
      </trkpt>
      <trkpt lat="41.72047" lon="-2.287581">
        <ele>1038.8</ele>
        <time>2023-02-11T12:33:06.000Z</time>
      </trkpt>
      <trkpt lat="41.720509" lon="-2.287695">
        <ele>1038.6</ele>
        <time>2023-02-11T12:33:07.000Z</time>
      </trkpt>
      <trkpt lat="41.720545" lon="-2.28781">
        <ele>1038.6</ele>
        <time>2023-02-11T12:33:08.000Z</time>
      </trkpt>
      <trkpt lat="41.72059" lon="-2.287916">
        <ele>1038.6</ele>
        <time>2023-02-11T12:33:09.000Z</time>
      </trkpt>
      <trkpt lat="41.720634" lon="-2.288015">
        <ele>1038.6</ele>
        <time>2023-02-11T12:33:10.000Z</time>
      </trkpt>
      <trkpt lat="41.720675" lon="-2.288111">
        <ele>1038.6</ele>
        <time>2023-02-11T12:33:11.000Z</time>
      </trkpt>
      <trkpt lat="41.720714" lon="-2.2882">
        <ele>1038.6</ele>
        <time>2023-02-11T12:33:12.000Z</time>
      </trkpt>
      <trkpt lat="41.720751" lon="-2.288289">
        <ele>1038.6</ele>
        <time>2023-02-11T12:33:13.000Z</time>
      </trkpt>
      <trkpt lat="41.720788" lon="-2.288375">
        <ele>1038.6</ele>
        <time>2023-02-11T12:33:14.000Z</time>
      </trkpt>
      <trkpt lat="41.720825" lon="-2.288454">
        <ele>1039</ele>
        <time>2023-02-11T12:33:15.000Z</time>
      </trkpt>
      <trkpt lat="41.720858" lon="-2.288534">
        <ele>1039.4</ele>
        <time>2023-02-11T12:33:16.000Z</time>
      </trkpt>
      <trkpt lat="41.720888" lon="-2.288616">
        <ele>1040.2</ele>
        <time>2023-02-11T12:33:17.000Z</time>
      </trkpt>
      <trkpt lat="41.720917" lon="-2.288697">
        <ele>1040.4</ele>
        <time>2023-02-11T12:33:18.000Z</time>
      </trkpt>
      <trkpt lat="41.720949" lon="-2.288773">
        <ele>1040.8</ele>
        <time>2023-02-11T12:33:19.000Z</time>
      </trkpt>
      <trkpt lat="41.720982" lon="-2.288847">
        <ele>1041</ele>
        <time>2023-02-11T12:33:20.000Z</time>
      </trkpt>
      <trkpt lat="41.721014" lon="-2.288923">
        <ele>1041.2</ele>
        <time>2023-02-11T12:33:21.000Z</time>
      </trkpt>
      <trkpt lat="41.721042" lon="-2.288998">
        <ele>1041.4</ele>
        <time>2023-02-11T12:33:22.000Z</time>
      </trkpt>
      <trkpt lat="41.721074" lon="-2.289072">
        <ele>1041.4</ele>
        <time>2023-02-11T12:33:23.000Z</time>
      </trkpt>
      <trkpt lat="41.721107" lon="-2.289141">
        <ele>1041.6</ele>
        <time>2023-02-11T12:33:24.000Z</time>
      </trkpt>
      <trkpt lat="41.721142" lon="-2.289206">
        <ele>1042</ele>
        <time>2023-02-11T12:33:25.000Z</time>
      </trkpt>
      <trkpt lat="41.721173" lon="-2.289276">
        <ele>1042.4</ele>
        <time>2023-02-11T12:33:26.000Z</time>
      </trkpt>
      <trkpt lat="41.721201" lon="-2.28935">
        <ele>1042.6</ele>
        <time>2023-02-11T12:33:27.000Z</time>
      </trkpt>
      <trkpt lat="41.721233" lon="-2.289421">
        <ele>1042.8</ele>
        <time>2023-02-11T12:33:28.000Z</time>
      </trkpt>
      <trkpt lat="41.721264" lon="-2.289494">
        <ele>1043.2</ele>
        <time>2023-02-11T12:33:29.000Z</time>
      </trkpt>
      <trkpt lat="41.721292" lon="-2.28957">
        <ele>1043.4</ele>
        <time>2023-02-11T12:33:30.000Z</time>
      </trkpt>
      <trkpt lat="41.721321" lon="-2.289645">
        <ele>1043.8</ele>
        <time>2023-02-11T12:33:31.000Z</time>
      </trkpt>
      <trkpt lat="41.721355" lon="-2.289715">
        <ele>1044</ele>
        <time>2023-02-11T12:33:32.000Z</time>
      </trkpt>
      <trkpt lat="41.721388" lon="-2.289786">
        <ele>1044.4</ele>
        <time>2023-02-11T12:33:33.000Z</time>
      </trkpt>
      <trkpt lat="41.721418" lon="-2.28986">
        <ele>1044.8</ele>
        <time>2023-02-11T12:33:34.000Z</time>
      </trkpt>
      <trkpt lat="41.721446" lon="-2.289934">
        <ele>1045.2</ele>
        <time>2023-02-11T12:33:35.000Z</time>
      </trkpt>
      <trkpt lat="41.721473" lon="-2.290014">
        <ele>1045.2</ele>
        <time>2023-02-11T12:33:36.000Z</time>
      </trkpt>
      <trkpt lat="41.721504" lon="-2.290094">
        <ele>1045.4</ele>
        <time>2023-02-11T12:33:37.000Z</time>
      </trkpt>
      <trkpt lat="41.721536" lon="-2.290178">
        <ele>1045.8</ele>
        <time>2023-02-11T12:33:38.000Z</time>
      </trkpt>
      <trkpt lat="41.721568" lon="-2.290264">
        <ele>1046</ele>
        <time>2023-02-11T12:33:39.000Z</time>
      </trkpt>
      <trkpt lat="41.7216" lon="-2.290351">
        <ele>1046.2</ele>
        <time>2023-02-11T12:33:40.000Z</time>
      </trkpt>
      <trkpt lat="41.721633" lon="-2.290437">
        <ele>1046.2</ele>
        <time>2023-02-11T12:33:41.000Z</time>
      </trkpt>
      <trkpt lat="41.721667" lon="-2.290524">
        <ele>1046.4</ele>
        <time>2023-02-11T12:33:42.000Z</time>
      </trkpt>
      <trkpt lat="41.7217" lon="-2.290614">
        <ele>1046.6</ele>
        <time>2023-02-11T12:33:43.000Z</time>
      </trkpt>
      <trkpt lat="41.721733" lon="-2.290707">
        <ele>1046.6</ele>
        <time>2023-02-11T12:33:44.000Z</time>
      </trkpt>
      <trkpt lat="41.721764" lon="-2.2908">
        <ele>1046.6</ele>
        <time>2023-02-11T12:33:45.000Z</time>
      </trkpt>
      <trkpt lat="41.7218" lon="-2.290897">
        <ele>1046.8</ele>
        <time>2023-02-11T12:33:46.000Z</time>
      </trkpt>
      <trkpt lat="41.721837" lon="-2.290993">
        <ele>1046.8</ele>
        <time>2023-02-11T12:33:47.000Z</time>
      </trkpt>
      <trkpt lat="41.721876" lon="-2.291093">
        <ele>1046.8</ele>
        <time>2023-02-11T12:33:48.000Z</time>
      </trkpt>
      <trkpt lat="41.721916" lon="-2.291194">
        <ele>1046.8</ele>
        <time>2023-02-11T12:33:49.000Z</time>
      </trkpt>
      <trkpt lat="41.721952" lon="-2.291297">
        <ele>1046.8</ele>
        <time>2023-02-11T12:33:50.000Z</time>
      </trkpt>
      <trkpt lat="41.721989" lon="-2.2914">
        <ele>1046.8</ele>
        <time>2023-02-11T12:33:51.000Z</time>
      </trkpt>
      <trkpt lat="41.72203" lon="-2.291509">
        <ele>1046.8</ele>
        <time>2023-02-11T12:33:52.000Z</time>
      </trkpt>
      <trkpt lat="41.722069" lon="-2.291619">
        <ele>1046.8</ele>
        <time>2023-02-11T12:33:53.000Z</time>
      </trkpt>
      <trkpt lat="41.722106" lon="-2.291728">
        <ele>1046.6</ele>
        <time>2023-02-11T12:33:54.000Z</time>
      </trkpt>
      <trkpt lat="41.722145" lon="-2.291836">
        <ele>1046.6</ele>
        <time>2023-02-11T12:33:55.000Z</time>
      </trkpt>
      <trkpt lat="41.722185" lon="-2.291943">
        <ele>1046.4</ele>
        <time>2023-02-11T12:33:56.000Z</time>
      </trkpt>
      <trkpt lat="41.722225" lon="-2.29205">
        <ele>1046.4</ele>
        <time>2023-02-11T12:33:57.000Z</time>
      </trkpt>
      <trkpt lat="41.722263" lon="-2.292158">
        <ele>1046</ele>
        <time>2023-02-11T12:33:58.000Z</time>
      </trkpt>
      <trkpt lat="41.722303" lon="-2.292266">
        <ele>1046</ele>
        <time>2023-02-11T12:33:59.000Z</time>
      </trkpt>
      <trkpt lat="41.722342" lon="-2.292374">
        <ele>1045.8</ele>
        <time>2023-02-11T12:34:00.000Z</time>
      </trkpt>
      <trkpt lat="41.72238" lon="-2.292483">
        <ele>1045.6</ele>
        <time>2023-02-11T12:34:01.000Z</time>
      </trkpt>
      <trkpt lat="41.722418" lon="-2.292596">
        <ele>1045.4</ele>
        <time>2023-02-11T12:34:02.000Z</time>
      </trkpt>
      <trkpt lat="41.722458" lon="-2.292706">
        <ele>1045.4</ele>
        <time>2023-02-11T12:34:03.000Z</time>
      </trkpt>
      <trkpt lat="41.7225" lon="-2.292818">
        <ele>1045.2</ele>
        <time>2023-02-11T12:34:04.000Z</time>
      </trkpt>
      <trkpt lat="41.722538" lon="-2.292928">
        <ele>1045.2</ele>
        <time>2023-02-11T12:34:05.000Z</time>
      </trkpt>
      <trkpt lat="41.722581" lon="-2.293038">
        <ele>1045</ele>
        <time>2023-02-11T12:34:06.000Z</time>
      </trkpt>
      <trkpt lat="41.722621" lon="-2.293147">
        <ele>1044.6</ele>
        <time>2023-02-11T12:34:07.000Z</time>
      </trkpt>
      <trkpt lat="41.722662" lon="-2.29326">
        <ele>1044.6</ele>
        <time>2023-02-11T12:34:08.000Z</time>
      </trkpt>
      <trkpt lat="41.722701" lon="-2.293372">
        <ele>1044.4</ele>
        <time>2023-02-11T12:34:09.000Z</time>
      </trkpt>
      <trkpt lat="41.72274" lon="-2.293486">
        <ele>1044.2</ele>
        <time>2023-02-11T12:34:10.000Z</time>
      </trkpt>
      <trkpt lat="41.722781" lon="-2.293598">
        <ele>1044</ele>
        <time>2023-02-11T12:34:11.000Z</time>
      </trkpt>
      <trkpt lat="41.72282" lon="-2.293712">
        <ele>1044</ele>
        <time>2023-02-11T12:34:12.000Z</time>
      </trkpt>
      <trkpt lat="41.722863" lon="-2.293825">
        <ele>1043.8</ele>
        <time>2023-02-11T12:34:13.000Z</time>
      </trkpt>
      <trkpt lat="41.722905" lon="-2.29394">
        <ele>1043.6</ele>
        <time>2023-02-11T12:34:14.000Z</time>
      </trkpt>
      <trkpt lat="41.722948" lon="-2.294058">
        <ele>1043.4</ele>
        <time>2023-02-11T12:34:15.000Z</time>
      </trkpt>
      <trkpt lat="41.722988" lon="-2.294176">
        <ele>1043.2</ele>
        <time>2023-02-11T12:34:16.000Z</time>
      </trkpt>
      <trkpt lat="41.723029" lon="-2.294291">
        <ele>1042.8</ele>
        <time>2023-02-11T12:34:17.000Z</time>
      </trkpt>
      <trkpt lat="41.723071" lon="-2.294407">
        <ele>1042.6</ele>
        <time>2023-02-11T12:34:18.000Z</time>
      </trkpt>
      <trkpt lat="41.723115" lon="-2.294524">
        <ele>1042.6</ele>
        <time>2023-02-11T12:34:19.000Z</time>
      </trkpt>
      <trkpt lat="41.72316" lon="-2.294641">
        <ele>1042.4</ele>
        <time>2023-02-11T12:34:20.000Z</time>
      </trkpt>
      <trkpt lat="41.723204" lon="-2.29476">
        <ele>1042.2</ele>
        <time>2023-02-11T12:34:21.000Z</time>
      </trkpt>
      <trkpt lat="41.723249" lon="-2.294883">
        <ele>1042</ele>
        <time>2023-02-11T12:34:22.000Z</time>
      </trkpt>
      <trkpt lat="41.723296" lon="-2.295012">
        <ele>1041.8</ele>
        <time>2023-02-11T12:34:23.000Z</time>
      </trkpt>
      <trkpt lat="41.723342" lon="-2.29514">
        <ele>1041.6</ele>
        <time>2023-02-11T12:34:24.000Z</time>
      </trkpt>
      <trkpt lat="41.723388" lon="-2.295267">
        <ele>1041.4</ele>
        <time>2023-02-11T12:34:25.000Z</time>
      </trkpt>
      <trkpt lat="41.723434" lon="-2.295393">
        <ele>1041</ele>
        <time>2023-02-11T12:34:26.000Z</time>
      </trkpt>
      <trkpt lat="41.723481" lon="-2.295519">
        <ele>1040.6</ele>
        <time>2023-02-11T12:34:27.000Z</time>
      </trkpt>
      <trkpt lat="41.723528" lon="-2.295646">
        <ele>1040.4</ele>
        <time>2023-02-11T12:34:28.000Z</time>
      </trkpt>
      <trkpt lat="41.723574" lon="-2.295773">
        <ele>1040.2</ele>
        <time>2023-02-11T12:34:29.000Z</time>
      </trkpt>
      <trkpt lat="41.723622" lon="-2.295899">
        <ele>1040</ele>
        <time>2023-02-11T12:34:30.000Z</time>
      </trkpt>
      <trkpt lat="41.723668" lon="-2.296027">
        <ele>1039.6</ele>
        <time>2023-02-11T12:34:31.000Z</time>
      </trkpt>
      <trkpt lat="41.723714" lon="-2.296156">
        <ele>1039.6</ele>
        <time>2023-02-11T12:34:32.000Z</time>
      </trkpt>
      <trkpt lat="41.723761" lon="-2.296285">
        <ele>1039.2</ele>
        <time>2023-02-11T12:34:33.000Z</time>
      </trkpt>
      <trkpt lat="41.723805" lon="-2.296412">
        <ele>1039.2</ele>
        <time>2023-02-11T12:34:34.000Z</time>
      </trkpt>
      <trkpt lat="41.723848" lon="-2.296535">
        <ele>1038.6</ele>
        <time>2023-02-11T12:34:35.000Z</time>
      </trkpt>
      <trkpt lat="41.723895" lon="-2.296657">
        <ele>1038.2</ele>
        <time>2023-02-11T12:34:36.000Z</time>
      </trkpt>
      <trkpt lat="41.723941" lon="-2.29678">
        <ele>1038.2</ele>
        <time>2023-02-11T12:34:37.000Z</time>
      </trkpt>
      <trkpt lat="41.723988" lon="-2.296903">
        <ele>1037.6</ele>
        <time>2023-02-11T12:34:38.000Z</time>
      </trkpt>
      <trkpt lat="41.724034" lon="-2.297029">
        <ele>1037.6</ele>
        <time>2023-02-11T12:34:39.000Z</time>
      </trkpt>
      <trkpt lat="41.724081" lon="-2.297153">
        <ele>1037.2</ele>
        <time>2023-02-11T12:34:40.000Z</time>
      </trkpt>
      <trkpt lat="41.724129" lon="-2.297278">
        <ele>1037.2</ele>
        <time>2023-02-11T12:34:41.000Z</time>
      </trkpt>
      <trkpt lat="41.724175" lon="-2.297404">
        <ele>1036.8</ele>
        <time>2023-02-11T12:34:42.000Z</time>
      </trkpt>
      <trkpt lat="41.724219" lon="-2.297533">
        <ele>1036.8</ele>
        <time>2023-02-11T12:34:43.000Z</time>
      </trkpt>
      <trkpt lat="41.724263" lon="-2.297661">
        <ele>1036.4</ele>
        <time>2023-02-11T12:34:44.000Z</time>
      </trkpt>
      <trkpt lat="41.724309" lon="-2.29779">
        <ele>1036.2</ele>
        <time>2023-02-11T12:34:45.000Z</time>
      </trkpt>
      <trkpt lat="41.724355" lon="-2.297917">
        <ele>1036.2</ele>
        <time>2023-02-11T12:34:46.000Z</time>
      </trkpt>
      <trkpt lat="41.7244" lon="-2.298042">
        <ele>1036.2</ele>
        <time>2023-02-11T12:34:47.000Z</time>
      </trkpt>
      <trkpt lat="41.724446" lon="-2.298166">
        <ele>1036.2</ele>
        <time>2023-02-11T12:34:48.000Z</time>
      </trkpt>
      <trkpt lat="41.724488" lon="-2.298288">
        <ele>1036</ele>
        <time>2023-02-11T12:34:49.000Z</time>
      </trkpt>
      <trkpt lat="41.724532" lon="-2.29841">
        <ele>1035.8</ele>
        <time>2023-02-11T12:34:50.000Z</time>
      </trkpt>
      <trkpt lat="41.724575" lon="-2.298533">
        <ele>1035.6</ele>
        <time>2023-02-11T12:34:51.000Z</time>
      </trkpt>
      <trkpt lat="41.724618" lon="-2.298657">
        <ele>1035.6</ele>
        <time>2023-02-11T12:34:52.000Z</time>
      </trkpt>
      <trkpt lat="41.724663" lon="-2.29878">
        <ele>1035.4</ele>
        <time>2023-02-11T12:34:53.000Z</time>
      </trkpt>
      <trkpt lat="41.724707" lon="-2.298904">
        <ele>1035.4</ele>
        <time>2023-02-11T12:34:54.000Z</time>
      </trkpt>
      <trkpt lat="41.72475" lon="-2.299027">
        <ele>1035.4</ele>
        <time>2023-02-11T12:34:55.000Z</time>
      </trkpt>
      <trkpt lat="41.724795" lon="-2.29915">
        <ele>1035.2</ele>
        <time>2023-02-11T12:34:56.000Z</time>
      </trkpt>
      <trkpt lat="41.72484" lon="-2.299272">
        <ele>1035.2</ele>
        <time>2023-02-11T12:34:57.000Z</time>
      </trkpt>
      <trkpt lat="41.724883" lon="-2.299394">
        <ele>1035.2</ele>
        <time>2023-02-11T12:34:58.000Z</time>
      </trkpt>
      <trkpt lat="41.724925" lon="-2.299514">
        <ele>1035.2</ele>
        <time>2023-02-11T12:34:59.000Z</time>
      </trkpt>
      <trkpt lat="41.724964" lon="-2.299634">
        <ele>1035</ele>
        <time>2023-02-11T12:35:00.000Z</time>
      </trkpt>
      <trkpt lat="41.725004" lon="-2.299751">
        <ele>1035</ele>
        <time>2023-02-11T12:35:01.000Z</time>
      </trkpt>
      <trkpt lat="41.725045" lon="-2.299865">
        <ele>1035</ele>
        <time>2023-02-11T12:35:02.000Z</time>
      </trkpt>
      <trkpt lat="41.725087" lon="-2.29998">
        <ele>1035</ele>
        <time>2023-02-11T12:35:03.000Z</time>
      </trkpt>
      <trkpt lat="41.72513" lon="-2.300091">
        <ele>1034.8</ele>
        <time>2023-02-11T12:35:04.000Z</time>
      </trkpt>
      <trkpt lat="41.725173" lon="-2.300203">
        <ele>1034.8</ele>
        <time>2023-02-11T12:35:05.000Z</time>
      </trkpt>
      <trkpt lat="41.725215" lon="-2.300315">
        <ele>1034.8</ele>
        <time>2023-02-11T12:35:06.000Z</time>
      </trkpt>
      <trkpt lat="41.725256" lon="-2.300425">
        <ele>1034.8</ele>
        <time>2023-02-11T12:35:07.000Z</time>
      </trkpt>
      <trkpt lat="41.725296" lon="-2.300537">
        <ele>1034.8</ele>
        <time>2023-02-11T12:35:08.000Z</time>
      </trkpt>
      <trkpt lat="41.725333" lon="-2.300647">
        <ele>1035</ele>
        <time>2023-02-11T12:35:09.000Z</time>
      </trkpt>
      <trkpt lat="41.725372" lon="-2.300755">
        <ele>1035</ele>
        <time>2023-02-11T12:35:10.000Z</time>
      </trkpt>
      <trkpt lat="41.725413" lon="-2.300863">
        <ele>1035.2</ele>
        <time>2023-02-11T12:35:11.000Z</time>
      </trkpt>
      <trkpt lat="41.725451" lon="-2.300969">
        <ele>1035.2</ele>
        <time>2023-02-11T12:35:12.000Z</time>
      </trkpt>
      <trkpt lat="41.725487" lon="-2.301075">
        <ele>1035.4</ele>
        <time>2023-02-11T12:35:13.000Z</time>
      </trkpt>
      <trkpt lat="41.725525" lon="-2.30118">
        <ele>1035.4</ele>
        <time>2023-02-11T12:35:14.000Z</time>
      </trkpt>
      <trkpt lat="41.725563" lon="-2.301284">
        <ele>1035.6</ele>
        <time>2023-02-11T12:35:15.000Z</time>
      </trkpt>
      <trkpt lat="41.725601" lon="-2.301388">
        <ele>1035.6</ele>
        <time>2023-02-11T12:35:16.000Z</time>
      </trkpt>
      <trkpt lat="41.725637" lon="-2.30149">
        <ele>1035.6</ele>
        <time>2023-02-11T12:35:17.000Z</time>
      </trkpt>
      <trkpt lat="41.725672" lon="-2.301592">
        <ele>1035.8</ele>
        <time>2023-02-11T12:35:18.000Z</time>
      </trkpt>
      <trkpt lat="41.72571" lon="-2.301694">
        <ele>1035.8</ele>
        <time>2023-02-11T12:35:19.000Z</time>
      </trkpt>
      <trkpt lat="41.72575" lon="-2.301796">
        <ele>1036</ele>
        <time>2023-02-11T12:35:20.000Z</time>
      </trkpt>
      <trkpt lat="41.725788" lon="-2.3019">
        <ele>1036</ele>
        <time>2023-02-11T12:35:21.000Z</time>
      </trkpt>
      <trkpt lat="41.725824" lon="-2.302003">
        <ele>1036</ele>
        <time>2023-02-11T12:35:22.000Z</time>
      </trkpt>
      <trkpt lat="41.725862" lon="-2.302106">
        <ele>1036</ele>
        <time>2023-02-11T12:35:23.000Z</time>
      </trkpt>
      <trkpt lat="41.725897" lon="-2.30221">
        <ele>1036.2</ele>
        <time>2023-02-11T12:35:24.000Z</time>
      </trkpt>
      <trkpt lat="41.725931" lon="-2.302312">
        <ele>1036.2</ele>
        <time>2023-02-11T12:35:25.000Z</time>
      </trkpt>
      <trkpt lat="41.725971" lon="-2.302412">
        <ele>1036.2</ele>
        <time>2023-02-11T12:35:26.000Z</time>
      </trkpt>
      <trkpt lat="41.726008" lon="-2.302514">
        <ele>1036.2</ele>
        <time>2023-02-11T12:35:27.000Z</time>
      </trkpt>
      <trkpt lat="41.726044" lon="-2.302613">
        <ele>1036.2</ele>
        <time>2023-02-11T12:35:28.000Z</time>
      </trkpt>
      <trkpt lat="41.726079" lon="-2.302711">
        <ele>1036.2</ele>
        <time>2023-02-11T12:35:29.000Z</time>
      </trkpt>
      <trkpt lat="41.726117" lon="-2.302809">
        <ele>1036.4</ele>
        <time>2023-02-11T12:35:30.000Z</time>
      </trkpt>
      <trkpt lat="41.726153" lon="-2.302907">
        <ele>1036.4</ele>
        <time>2023-02-11T12:35:31.000Z</time>
      </trkpt>
      <trkpt lat="41.72619" lon="-2.303006">
        <ele>1036.4</ele>
        <time>2023-02-11T12:35:32.000Z</time>
      </trkpt>
      <trkpt lat="41.726227" lon="-2.303103">
        <ele>1036.6</ele>
        <time>2023-02-11T12:35:33.000Z</time>
      </trkpt>
      <trkpt lat="41.726263" lon="-2.3032">
        <ele>1036.8</ele>
        <time>2023-02-11T12:35:34.000Z</time>
      </trkpt>
      <trkpt lat="41.726298" lon="-2.303299">
        <ele>1036.8</ele>
        <time>2023-02-11T12:35:35.000Z</time>
      </trkpt>
      <trkpt lat="41.726335" lon="-2.303396">
        <ele>1036.8</ele>
        <time>2023-02-11T12:35:36.000Z</time>
      </trkpt>
      <trkpt lat="41.726372" lon="-2.303495">
        <ele>1036.6</ele>
        <time>2023-02-11T12:35:37.000Z</time>
      </trkpt>
      <trkpt lat="41.726409" lon="-2.303596">
        <ele>1036.8</ele>
        <time>2023-02-11T12:35:38.000Z</time>
      </trkpt>
      <trkpt lat="41.726444" lon="-2.303695">
        <ele>1037</ele>
        <time>2023-02-11T12:35:39.000Z</time>
      </trkpt>
      <trkpt lat="41.726481" lon="-2.303794">
        <ele>1037</ele>
        <time>2023-02-11T12:35:40.000Z</time>
      </trkpt>
      <trkpt lat="41.726518" lon="-2.303893">
        <ele>1037</ele>
        <time>2023-02-11T12:35:41.000Z</time>
      </trkpt>
      <trkpt lat="41.726552" lon="-2.303993">
        <ele>1037</ele>
        <time>2023-02-11T12:35:42.000Z</time>
      </trkpt>
      <trkpt lat="41.726588" lon="-2.304092">
        <ele>1037</ele>
        <time>2023-02-11T12:35:43.000Z</time>
      </trkpt>
      <trkpt lat="41.726625" lon="-2.304193">
        <ele>1037</ele>
        <time>2023-02-11T12:35:44.000Z</time>
      </trkpt>
      <trkpt lat="41.726663" lon="-2.304294">
        <ele>1037.2</ele>
        <time>2023-02-11T12:35:45.000Z</time>
      </trkpt>
      <trkpt lat="41.7267" lon="-2.304398">
        <ele>1037.2</ele>
        <time>2023-02-11T12:35:46.000Z</time>
      </trkpt>
      <trkpt lat="41.726734" lon="-2.304504">
        <ele>1037.2</ele>
        <time>2023-02-11T12:35:47.000Z</time>
      </trkpt>
      <trkpt lat="41.726771" lon="-2.30461">
        <ele>1037.2</ele>
        <time>2023-02-11T12:35:48.000Z</time>
      </trkpt>
      <trkpt lat="41.726809" lon="-2.304717">
        <ele>1037.2</ele>
        <time>2023-02-11T12:35:49.000Z</time>
      </trkpt>
      <trkpt lat="41.726849" lon="-2.304826">
        <ele>1037</ele>
        <time>2023-02-11T12:35:50.000Z</time>
      </trkpt>
      <trkpt lat="41.72689" lon="-2.304935">
        <ele>1037</ele>
        <time>2023-02-11T12:35:51.000Z</time>
      </trkpt>
      <trkpt lat="41.726931" lon="-2.305045">
        <ele>1037</ele>
        <time>2023-02-11T12:35:52.000Z</time>
      </trkpt>
      <trkpt lat="41.726971" lon="-2.305155">
        <ele>1036.8</ele>
        <time>2023-02-11T12:35:53.000Z</time>
      </trkpt>
      <trkpt lat="41.727012" lon="-2.305265">
        <ele>1036.8</ele>
        <time>2023-02-11T12:35:54.000Z</time>
      </trkpt>
      <trkpt lat="41.727052" lon="-2.305374">
        <ele>1036.6</ele>
        <time>2023-02-11T12:35:55.000Z</time>
      </trkpt>
      <trkpt lat="41.727091" lon="-2.305484">
        <ele>1036.4</ele>
        <time>2023-02-11T12:35:56.000Z</time>
      </trkpt>
      <trkpt lat="41.727131" lon="-2.305593">
        <ele>1036.2</ele>
        <time>2023-02-11T12:35:57.000Z</time>
      </trkpt>
      <trkpt lat="41.727171" lon="-2.3057">
        <ele>1036</ele>
        <time>2023-02-11T12:35:58.000Z</time>
      </trkpt>
      <trkpt lat="41.72721" lon="-2.305805">
        <ele>1036</ele>
        <time>2023-02-11T12:35:59.000Z</time>
      </trkpt>
      <trkpt lat="41.72725" lon="-2.305911">
        <ele>1035.6</ele>
        <time>2023-02-11T12:36:00.000Z</time>
      </trkpt>
      <trkpt lat="41.727289" lon="-2.306015">
        <ele>1035.6</ele>
        <time>2023-02-11T12:36:01.000Z</time>
      </trkpt>
      <trkpt lat="41.727324" lon="-2.306115">
        <ele>1035.6</ele>
        <time>2023-02-11T12:36:02.000Z</time>
      </trkpt>
      <trkpt lat="41.727358" lon="-2.306214">
        <ele>1035.4</ele>
        <time>2023-02-11T12:36:03.000Z</time>
      </trkpt>
      <trkpt lat="41.727386" lon="-2.306314">
        <ele>1035.4</ele>
        <time>2023-02-11T12:36:04.000Z</time>
      </trkpt>
      <trkpt lat="41.727418" lon="-2.306413">
        <ele>1035.4</ele>
        <time>2023-02-11T12:36:05.000Z</time>
      </trkpt>
      <trkpt lat="41.727452" lon="-2.306513">
        <ele>1035.4</ele>
        <time>2023-02-11T12:36:06.000Z</time>
      </trkpt>
      <trkpt lat="41.727485" lon="-2.306609">
        <ele>1035.4</ele>
        <time>2023-02-11T12:36:07.000Z</time>
      </trkpt>
      <trkpt lat="41.727521" lon="-2.306708">
        <ele>1035.4</ele>
        <time>2023-02-11T12:36:08.000Z</time>
      </trkpt>
      <trkpt lat="41.727557" lon="-2.306805">
        <ele>1035.6</ele>
        <time>2023-02-11T12:36:09.000Z</time>
      </trkpt>
      <trkpt lat="41.727591" lon="-2.306902">
        <ele>1035.6</ele>
        <time>2023-02-11T12:36:10.000Z</time>
      </trkpt>
      <trkpt lat="41.727625" lon="-2.306997">
        <ele>1035.6</ele>
        <time>2023-02-11T12:36:11.000Z</time>
      </trkpt>
      <trkpt lat="41.727659" lon="-2.307089">
        <ele>1035.6</ele>
        <time>2023-02-11T12:36:12.000Z</time>
      </trkpt>
      <trkpt lat="41.72769" lon="-2.307179">
        <ele>1035.6</ele>
        <time>2023-02-11T12:36:13.000Z</time>
      </trkpt>
      <trkpt lat="41.727724" lon="-2.307271">
        <ele>1035.6</ele>
        <time>2023-02-11T12:36:14.000Z</time>
      </trkpt>
      <trkpt lat="41.727758" lon="-2.307362">
        <ele>1035.6</ele>
        <time>2023-02-11T12:36:15.000Z</time>
      </trkpt>
      <trkpt lat="41.727791" lon="-2.307453">
        <ele>1035.8</ele>
        <time>2023-02-11T12:36:16.000Z</time>
      </trkpt>
      <trkpt lat="41.727825" lon="-2.307544">
        <ele>1035.8</ele>
        <time>2023-02-11T12:36:17.000Z</time>
      </trkpt>
      <trkpt lat="41.72786" lon="-2.307634">
        <ele>1036</ele>
        <time>2023-02-11T12:36:18.000Z</time>
      </trkpt>
      <trkpt lat="41.727895" lon="-2.307724">
        <ele>1036</ele>
        <time>2023-02-11T12:36:19.000Z</time>
      </trkpt>
      <trkpt lat="41.72793" lon="-2.307814">
        <ele>1036</ele>
        <time>2023-02-11T12:36:20.000Z</time>
      </trkpt>
      <trkpt lat="41.727964" lon="-2.307903">
        <ele>1036.2</ele>
        <time>2023-02-11T12:36:21.000Z</time>
      </trkpt>
      <trkpt lat="41.727997" lon="-2.307993">
        <ele>1036.4</ele>
        <time>2023-02-11T12:36:22.000Z</time>
      </trkpt>
      <trkpt lat="41.72803" lon="-2.308083">
        <ele>1036.4</ele>
        <time>2023-02-11T12:36:23.000Z</time>
      </trkpt>
      <trkpt lat="41.728065" lon="-2.308171">
        <ele>1036.4</ele>
        <time>2023-02-11T12:36:24.000Z</time>
      </trkpt>
      <trkpt lat="41.7281" lon="-2.308261">
        <ele>1036.6</ele>
        <time>2023-02-11T12:36:25.000Z</time>
      </trkpt>
      <trkpt lat="41.72813" lon="-2.308348">
        <ele>1036.6</ele>
        <time>2023-02-11T12:36:26.000Z</time>
      </trkpt>
      <trkpt lat="41.728164" lon="-2.308438">
        <ele>1036.6</ele>
        <time>2023-02-11T12:36:27.000Z</time>
      </trkpt>
      <trkpt lat="41.728197" lon="-2.308528">
        <ele>1036.6</ele>
        <time>2023-02-11T12:36:28.000Z</time>
      </trkpt>
      <trkpt lat="41.728228" lon="-2.308616">
        <ele>1036.8</ele>
        <time>2023-02-11T12:36:29.000Z</time>
      </trkpt>
      <trkpt lat="41.72826" lon="-2.308704">
        <ele>1037</ele>
        <time>2023-02-11T12:36:30.000Z</time>
      </trkpt>
      <trkpt lat="41.728293" lon="-2.30879">
        <ele>1037</ele>
        <time>2023-02-11T12:36:31.000Z</time>
      </trkpt>
      <trkpt lat="41.728323" lon="-2.308877">
        <ele>1037</ele>
        <time>2023-02-11T12:36:32.000Z</time>
      </trkpt>
      <trkpt lat="41.728355" lon="-2.308963">
        <ele>1037.2</ele>
        <time>2023-02-11T12:36:33.000Z</time>
      </trkpt>
      <trkpt lat="41.728387" lon="-2.309049">
        <ele>1037.2</ele>
        <time>2023-02-11T12:36:34.000Z</time>
      </trkpt>
      <trkpt lat="41.72842" lon="-2.309135">
        <ele>1037.2</ele>
        <time>2023-02-11T12:36:35.000Z</time>
      </trkpt>
      <trkpt lat="41.728454" lon="-2.309221">
        <ele>1037.4</ele>
        <time>2023-02-11T12:36:36.000Z</time>
      </trkpt>
      <trkpt lat="41.728489" lon="-2.309304">
        <ele>1037.4</ele>
        <time>2023-02-11T12:36:37.000Z</time>
      </trkpt>
      <trkpt lat="41.728519" lon="-2.30939">
        <ele>1037.6</ele>
        <time>2023-02-11T12:36:38.000Z</time>
      </trkpt>
      <trkpt lat="41.728548" lon="-2.309475">
        <ele>1037.6</ele>
        <time>2023-02-11T12:36:39.000Z</time>
      </trkpt>
      <trkpt lat="41.728579" lon="-2.30956">
        <ele>1037.8</ele>
        <time>2023-02-11T12:36:40.000Z</time>
      </trkpt>
      <trkpt lat="41.72861" lon="-2.309646">
        <ele>1038</ele>
        <time>2023-02-11T12:36:41.000Z</time>
      </trkpt>
      <trkpt lat="41.72864" lon="-2.309732">
        <ele>1038.2</ele>
        <time>2023-02-11T12:36:42.000Z</time>
      </trkpt>
      <trkpt lat="41.728671" lon="-2.309817">
        <ele>1038.4</ele>
        <time>2023-02-11T12:36:43.000Z</time>
      </trkpt>
      <trkpt lat="41.728704" lon="-2.309901">
        <ele>1038.4</ele>
        <time>2023-02-11T12:36:44.000Z</time>
      </trkpt>
      <trkpt lat="41.728738" lon="-2.309986">
        <ele>1038.6</ele>
        <time>2023-02-11T12:36:45.000Z</time>
      </trkpt>
      <trkpt lat="41.728769" lon="-2.310072">
        <ele>1038.8</ele>
        <time>2023-02-11T12:36:46.000Z</time>
      </trkpt>
      <trkpt lat="41.728801" lon="-2.310158">
        <ele>1038.8</ele>
        <time>2023-02-11T12:36:47.000Z</time>
      </trkpt>
      <trkpt lat="41.728834" lon="-2.310243">
        <ele>1039</ele>
        <time>2023-02-11T12:36:48.000Z</time>
      </trkpt>
      <trkpt lat="41.728865" lon="-2.310328">
        <ele>1039</ele>
        <time>2023-02-11T12:36:49.000Z</time>
      </trkpt>
      <trkpt lat="41.728896" lon="-2.310414">
        <ele>1039</ele>
        <time>2023-02-11T12:36:50.000Z</time>
      </trkpt>
      <trkpt lat="41.728928" lon="-2.310499">
        <ele>1039.4</ele>
        <time>2023-02-11T12:36:51.000Z</time>
      </trkpt>
      <trkpt lat="41.728961" lon="-2.310584">
        <ele>1039.4</ele>
        <time>2023-02-11T12:36:52.000Z</time>
      </trkpt>
      <trkpt lat="41.728992" lon="-2.310668">
        <ele>1039.4</ele>
        <time>2023-02-11T12:36:53.000Z</time>
      </trkpt>
      <trkpt lat="41.729022" lon="-2.310755">
        <ele>1039.6</ele>
        <time>2023-02-11T12:36:54.000Z</time>
      </trkpt>
      <trkpt lat="41.729053" lon="-2.310838">
        <ele>1039.6</ele>
        <time>2023-02-11T12:36:55.000Z</time>
      </trkpt>
      <trkpt lat="41.729083" lon="-2.310922">
        <ele>1039.8</ele>
        <time>2023-02-11T12:36:56.000Z</time>
      </trkpt>
      <trkpt lat="41.729116" lon="-2.311008">
        <ele>1039.8</ele>
        <time>2023-02-11T12:36:57.000Z</time>
      </trkpt>
      <trkpt lat="41.729148" lon="-2.311093">
        <ele>1040</ele>
        <time>2023-02-11T12:36:58.000Z</time>
      </trkpt>
      <trkpt lat="41.72918" lon="-2.311176">
        <ele>1040.2</ele>
        <time>2023-02-11T12:36:59.000Z</time>
      </trkpt>
      <trkpt lat="41.72921" lon="-2.311262">
        <ele>1040.4</ele>
        <time>2023-02-11T12:37:00.000Z</time>
      </trkpt>
      <trkpt lat="41.729237" lon="-2.311347">
        <ele>1040.4</ele>
        <time>2023-02-11T12:37:01.000Z</time>
      </trkpt>
      <trkpt lat="41.729267" lon="-2.311433">
        <ele>1040.4</ele>
        <time>2023-02-11T12:37:02.000Z</time>
      </trkpt>
      <trkpt lat="41.729299" lon="-2.311514">
        <ele>1040.6</ele>
        <time>2023-02-11T12:37:03.000Z</time>
      </trkpt>
      <trkpt lat="41.72933" lon="-2.311596">
        <ele>1040.6</ele>
        <time>2023-02-11T12:37:04.000Z</time>
      </trkpt>
      <trkpt lat="41.729361" lon="-2.311677">
        <ele>1040.8</ele>
        <time>2023-02-11T12:37:05.000Z</time>
      </trkpt>
      <trkpt lat="41.729391" lon="-2.311756">
        <ele>1041</ele>
        <time>2023-02-11T12:37:06.000Z</time>
      </trkpt>
      <trkpt lat="41.729419" lon="-2.311836">
        <ele>1041</ele>
        <time>2023-02-11T12:37:07.000Z</time>
      </trkpt>
      <trkpt lat="41.729447" lon="-2.311914">
        <ele>1041.2</ele>
        <time>2023-02-11T12:37:08.000Z</time>
      </trkpt>
      <trkpt lat="41.729476" lon="-2.311989">
        <ele>1041.4</ele>
        <time>2023-02-11T12:37:09.000Z</time>
      </trkpt>
      <trkpt lat="41.729505" lon="-2.312062">
        <ele>1041.4</ele>
        <time>2023-02-11T12:37:10.000Z</time>
      </trkpt>
      <trkpt lat="41.729531" lon="-2.312137">
        <ele>1041.6</ele>
        <time>2023-02-11T12:37:11.000Z</time>
      </trkpt>
      <trkpt lat="41.729557" lon="-2.312211">
        <ele>1042</ele>
        <time>2023-02-11T12:37:12.000Z</time>
      </trkpt>
      <trkpt lat="41.729584" lon="-2.312284">
        <ele>1042</ele>
        <time>2023-02-11T12:37:13.000Z</time>
      </trkpt>
      <trkpt lat="41.729612" lon="-2.312354">
        <ele>1042.6</ele>
        <time>2023-02-11T12:37:14.000Z</time>
      </trkpt>
      <trkpt lat="41.72964" lon="-2.312426">
        <ele>1042.8</ele>
        <time>2023-02-11T12:37:15.000Z</time>
      </trkpt>
      <trkpt lat="41.729666" lon="-2.312498">
        <ele>1043.2</ele>
        <time>2023-02-11T12:37:16.000Z</time>
      </trkpt>
      <trkpt lat="41.729692" lon="-2.31257">
        <ele>1043.4</ele>
        <time>2023-02-11T12:37:17.000Z</time>
      </trkpt>
      <trkpt lat="41.729719" lon="-2.312641">
        <ele>1043.6</ele>
        <time>2023-02-11T12:37:18.000Z</time>
      </trkpt>
      <trkpt lat="41.729746" lon="-2.312712">
        <ele>1043.8</ele>
        <time>2023-02-11T12:37:19.000Z</time>
      </trkpt>
      <trkpt lat="41.729774" lon="-2.312781">
        <ele>1044.2</ele>
        <time>2023-02-11T12:37:20.000Z</time>
      </trkpt>
      <trkpt lat="41.7298" lon="-2.312848">
        <ele>1044.6</ele>
        <time>2023-02-11T12:37:21.000Z</time>
      </trkpt>
      <trkpt lat="41.729825" lon="-2.312914">
        <ele>1044.6</ele>
        <time>2023-02-11T12:37:22.000Z</time>
      </trkpt>
      <trkpt lat="41.72985" lon="-2.312983">
        <ele>1044.8</ele>
        <time>2023-02-11T12:37:23.000Z</time>
      </trkpt>
      <trkpt lat="41.729875" lon="-2.313051">
        <ele>1045</ele>
        <time>2023-02-11T12:37:24.000Z</time>
      </trkpt>
      <trkpt lat="41.729901" lon="-2.31312">
        <ele>1045.2</ele>
        <time>2023-02-11T12:37:25.000Z</time>
      </trkpt>
      <trkpt lat="41.729925" lon="-2.313187">
        <ele>1045.4</ele>
        <time>2023-02-11T12:37:26.000Z</time>
      </trkpt>
      <trkpt lat="41.72995" lon="-2.313254">
        <ele>1045.6</ele>
        <time>2023-02-11T12:37:27.000Z</time>
      </trkpt>
      <trkpt lat="41.729975" lon="-2.31332">
        <ele>1045.8</ele>
        <time>2023-02-11T12:37:28.000Z</time>
      </trkpt>
      <trkpt lat="41.729999" lon="-2.313387">
        <ele>1046.2</ele>
        <time>2023-02-11T12:37:29.000Z</time>
      </trkpt>
      <trkpt lat="41.730023" lon="-2.313453">
        <ele>1046.4</ele>
        <time>2023-02-11T12:37:30.000Z</time>
      </trkpt>
      <trkpt lat="41.730048" lon="-2.313521">
        <ele>1046.6</ele>
        <time>2023-02-11T12:37:31.000Z</time>
      </trkpt>
      <trkpt lat="41.730072" lon="-2.313587">
        <ele>1046.8</ele>
        <time>2023-02-11T12:37:32.000Z</time>
      </trkpt>
      <trkpt lat="41.730097" lon="-2.313654">
        <ele>1047</ele>
        <time>2023-02-11T12:37:33.000Z</time>
      </trkpt>
      <trkpt lat="41.73012" lon="-2.313721">
        <ele>1047.2</ele>
        <time>2023-02-11T12:37:34.000Z</time>
      </trkpt>
      <trkpt lat="41.730144" lon="-2.313788">
        <ele>1047.4</ele>
        <time>2023-02-11T12:37:35.000Z</time>
      </trkpt>
      <trkpt lat="41.730166" lon="-2.313854">
        <ele>1047.6</ele>
        <time>2023-02-11T12:37:36.000Z</time>
      </trkpt>
      <trkpt lat="41.730189" lon="-2.313921">
        <ele>1048</ele>
        <time>2023-02-11T12:37:37.000Z</time>
      </trkpt>
      <trkpt lat="41.730214" lon="-2.313987">
        <ele>1048.2</ele>
        <time>2023-02-11T12:37:38.000Z</time>
      </trkpt>
      <trkpt lat="41.730238" lon="-2.314051">
        <ele>1048.4</ele>
        <time>2023-02-11T12:37:39.000Z</time>
      </trkpt>
      <trkpt lat="41.730261" lon="-2.314116">
        <ele>1048.8</ele>
        <time>2023-02-11T12:37:40.000Z</time>
      </trkpt>
      <trkpt lat="41.730286" lon="-2.314182">
        <ele>1049</ele>
        <time>2023-02-11T12:37:41.000Z</time>
      </trkpt>
      <trkpt lat="41.730309" lon="-2.314248">
        <ele>1049.2</ele>
        <time>2023-02-11T12:37:42.000Z</time>
      </trkpt>
      <trkpt lat="41.730331" lon="-2.314314">
        <ele>1049.4</ele>
        <time>2023-02-11T12:37:43.000Z</time>
      </trkpt>
      <trkpt lat="41.730355" lon="-2.31438">
        <ele>1049.6</ele>
        <time>2023-02-11T12:37:44.000Z</time>
      </trkpt>
      <trkpt lat="41.730378" lon="-2.314449">
        <ele>1050</ele>
        <time>2023-02-11T12:37:45.000Z</time>
      </trkpt>
      <trkpt lat="41.7304" lon="-2.314517">
        <ele>1050.2</ele>
        <time>2023-02-11T12:37:46.000Z</time>
      </trkpt>
      <trkpt lat="41.730423" lon="-2.314585">
        <ele>1050.8</ele>
        <time>2023-02-11T12:37:47.000Z</time>
      </trkpt>
      <trkpt lat="41.730446" lon="-2.314654">
        <ele>1051</ele>
        <time>2023-02-11T12:37:48.000Z</time>
      </trkpt>
      <trkpt lat="41.730469" lon="-2.314723">
        <ele>1051.2</ele>
        <time>2023-02-11T12:37:49.000Z</time>
      </trkpt>
      <trkpt lat="41.730492" lon="-2.314792">
        <ele>1051.4</ele>
        <time>2023-02-11T12:37:50.000Z</time>
      </trkpt>
      <trkpt lat="41.730515" lon="-2.314862">
        <ele>1051.6</ele>
        <time>2023-02-11T12:37:51.000Z</time>
      </trkpt>
      <trkpt lat="41.730538" lon="-2.314928">
        <ele>1051.8</ele>
        <time>2023-02-11T12:37:52.000Z</time>
      </trkpt>
      <trkpt lat="41.730563" lon="-2.314994">
        <ele>1052</ele>
        <time>2023-02-11T12:37:53.000Z</time>
      </trkpt>
      <trkpt lat="41.730584" lon="-2.31506">
        <ele>1052.4</ele>
        <time>2023-02-11T12:37:54.000Z</time>
      </trkpt>
      <trkpt lat="41.730606" lon="-2.315127">
        <ele>1052.6</ele>
        <time>2023-02-11T12:37:55.000Z</time>
      </trkpt>
      <trkpt lat="41.73063" lon="-2.315193">
        <ele>1053</ele>
        <time>2023-02-11T12:37:56.000Z</time>
      </trkpt>
      <trkpt lat="41.730655" lon="-2.315259">
        <ele>1053.2</ele>
        <time>2023-02-11T12:37:57.000Z</time>
      </trkpt>
      <trkpt lat="41.730679" lon="-2.315325">
        <ele>1053.4</ele>
        <time>2023-02-11T12:37:58.000Z</time>
      </trkpt>
      <trkpt lat="41.730705" lon="-2.315391">
        <ele>1053.8</ele>
        <time>2023-02-11T12:37:59.000Z</time>
      </trkpt>
      <trkpt lat="41.73073" lon="-2.315458">
        <ele>1053.8</ele>
        <time>2023-02-11T12:38:00.000Z</time>
      </trkpt>
      <trkpt lat="41.730755" lon="-2.315524">
        <ele>1054</ele>
        <time>2023-02-11T12:38:01.000Z</time>
      </trkpt>
      <trkpt lat="41.73078" lon="-2.315589">
        <ele>1054.2</ele>
        <time>2023-02-11T12:38:02.000Z</time>
      </trkpt>
      <trkpt lat="41.730803" lon="-2.315657">
        <ele>1054.4</ele>
        <time>2023-02-11T12:38:03.000Z</time>
      </trkpt>
      <trkpt lat="41.730823" lon="-2.315725">
        <ele>1054.4</ele>
        <time>2023-02-11T12:38:04.000Z</time>
      </trkpt>
      <trkpt lat="41.730848" lon="-2.315794">
        <ele>1054.8</ele>
        <time>2023-02-11T12:38:05.000Z</time>
      </trkpt>
      <trkpt lat="41.730873" lon="-2.315865">
        <ele>1054.8</ele>
        <time>2023-02-11T12:38:06.000Z</time>
      </trkpt>
      <trkpt lat="41.730895" lon="-2.315937">
        <ele>1055.2</ele>
        <time>2023-02-11T12:38:07.000Z</time>
      </trkpt>
      <trkpt lat="41.730922" lon="-2.316011">
        <ele>1055.2</ele>
        <time>2023-02-11T12:38:08.000Z</time>
      </trkpt>
      <trkpt lat="41.730949" lon="-2.316083">
        <ele>1055.4</ele>
        <time>2023-02-11T12:38:09.000Z</time>
      </trkpt>
      <trkpt lat="41.730977" lon="-2.316156">
        <ele>1055.6</ele>
        <time>2023-02-11T12:38:10.000Z</time>
      </trkpt>
      <trkpt lat="41.731004" lon="-2.316231">
        <ele>1055.8</ele>
        <time>2023-02-11T12:38:11.000Z</time>
      </trkpt>
      <trkpt lat="41.731033" lon="-2.316306">
        <ele>1055.8</ele>
        <time>2023-02-11T12:38:12.000Z</time>
      </trkpt>
      <trkpt lat="41.731062" lon="-2.316384">
        <ele>1056</ele>
        <time>2023-02-11T12:38:13.000Z</time>
      </trkpt>
      <trkpt lat="41.731089" lon="-2.316458">
        <ele>1056.2</ele>
        <time>2023-02-11T12:38:14.000Z</time>
      </trkpt>
      <trkpt lat="41.731119" lon="-2.316534">
        <ele>1056.4</ele>
        <time>2023-02-11T12:38:15.000Z</time>
      </trkpt>
      <trkpt lat="41.731145" lon="-2.316613">
        <ele>1056.4</ele>
        <time>2023-02-11T12:38:16.000Z</time>
      </trkpt>
      <trkpt lat="41.731174" lon="-2.316692">
        <ele>1056.4</ele>
        <time>2023-02-11T12:38:17.000Z</time>
      </trkpt>
      <trkpt lat="41.731205" lon="-2.316777">
        <ele>1056.6</ele>
        <time>2023-02-11T12:38:18.000Z</time>
      </trkpt>
      <trkpt lat="41.731235" lon="-2.31686">
        <ele>1056.8</ele>
        <time>2023-02-11T12:38:19.000Z</time>
      </trkpt>
      <trkpt lat="41.731267" lon="-2.316942">
        <ele>1056.8</ele>
        <time>2023-02-11T12:38:20.000Z</time>
      </trkpt>
      <trkpt lat="41.731298" lon="-2.317027">
        <ele>1057</ele>
        <time>2023-02-11T12:38:21.000Z</time>
      </trkpt>
      <trkpt lat="41.73133" lon="-2.317111">
        <ele>1057</ele>
        <time>2023-02-11T12:38:22.000Z</time>
      </trkpt>
      <trkpt lat="41.73136" lon="-2.317196">
        <ele>1057</ele>
        <time>2023-02-11T12:38:23.000Z</time>
      </trkpt>
      <trkpt lat="41.731391" lon="-2.317281">
        <ele>1057.2</ele>
        <time>2023-02-11T12:38:24.000Z</time>
      </trkpt>
      <trkpt lat="41.731424" lon="-2.317365">
        <ele>1057.2</ele>
        <time>2023-02-11T12:38:25.000Z</time>
      </trkpt>
      <trkpt lat="41.731456" lon="-2.317453">
        <ele>1057.2</ele>
        <time>2023-02-11T12:38:26.000Z</time>
      </trkpt>
      <trkpt lat="41.731489" lon="-2.317539">
        <ele>1057.4</ele>
        <time>2023-02-11T12:38:27.000Z</time>
      </trkpt>
      <trkpt lat="41.73152" lon="-2.317628">
        <ele>1057.6</ele>
        <time>2023-02-11T12:38:28.000Z</time>
      </trkpt>
      <trkpt lat="41.73155" lon="-2.317717">
        <ele>1057.6</ele>
        <time>2023-02-11T12:38:29.000Z</time>
      </trkpt>
      <trkpt lat="41.731582" lon="-2.317808">
        <ele>1057.8</ele>
        <time>2023-02-11T12:38:30.000Z</time>
      </trkpt>
      <trkpt lat="41.731614" lon="-2.317897">
        <ele>1058</ele>
        <time>2023-02-11T12:38:31.000Z</time>
      </trkpt>
      <trkpt lat="41.731646" lon="-2.317987">
        <ele>1058</ele>
        <time>2023-02-11T12:38:32.000Z</time>
      </trkpt>
      <trkpt lat="41.731676" lon="-2.318078">
        <ele>1058</ele>
        <time>2023-02-11T12:38:33.000Z</time>
      </trkpt>
      <trkpt lat="41.731707" lon="-2.318169">
        <ele>1058.2</ele>
        <time>2023-02-11T12:38:34.000Z</time>
      </trkpt>
      <trkpt lat="41.731738" lon="-2.318261">
        <ele>1058.2</ele>
        <time>2023-02-11T12:38:35.000Z</time>
      </trkpt>
      <trkpt lat="41.73177" lon="-2.318352">
        <ele>1058.2</ele>
        <time>2023-02-11T12:38:36.000Z</time>
      </trkpt>
      <trkpt lat="41.731804" lon="-2.318444">
        <ele>1058.4</ele>
        <time>2023-02-11T12:38:37.000Z</time>
      </trkpt>
      <trkpt lat="41.731838" lon="-2.318534">
        <ele>1058.4</ele>
        <time>2023-02-11T12:38:38.000Z</time>
      </trkpt>
      <trkpt lat="41.731872" lon="-2.318623">
        <ele>1058.4</ele>
        <time>2023-02-11T12:38:39.000Z</time>
      </trkpt>
      <trkpt lat="41.731905" lon="-2.318713">
        <ele>1058.4</ele>
        <time>2023-02-11T12:38:40.000Z</time>
      </trkpt>
      <trkpt lat="41.731934" lon="-2.318802">
        <ele>1058.8</ele>
        <time>2023-02-11T12:38:41.000Z</time>
      </trkpt>
      <trkpt lat="41.731967" lon="-2.31889">
        <ele>1058.8</ele>
        <time>2023-02-11T12:38:42.000Z</time>
      </trkpt>
      <trkpt lat="41.732001" lon="-2.318979">
        <ele>1059.2</ele>
        <time>2023-02-11T12:38:43.000Z</time>
      </trkpt>
      <trkpt lat="41.732033" lon="-2.319068">
        <ele>1059.4</ele>
        <time>2023-02-11T12:38:44.000Z</time>
      </trkpt>
      <trkpt lat="41.732065" lon="-2.319156">
        <ele>1059.6</ele>
        <time>2023-02-11T12:38:45.000Z</time>
      </trkpt>
      <trkpt lat="41.732098" lon="-2.319243">
        <ele>1060</ele>
        <time>2023-02-11T12:38:46.000Z</time>
      </trkpt>
      <trkpt lat="41.732131" lon="-2.319329">
        <ele>1060</ele>
        <time>2023-02-11T12:38:47.000Z</time>
      </trkpt>
      <trkpt lat="41.732165" lon="-2.319415">
        <ele>1060.2</ele>
        <time>2023-02-11T12:38:48.000Z</time>
      </trkpt>
      <trkpt lat="41.732197" lon="-2.3195">
        <ele>1060.2</ele>
        <time>2023-02-11T12:38:49.000Z</time>
      </trkpt>
      <trkpt lat="41.732229" lon="-2.319585">
        <ele>1060.4</ele>
        <time>2023-02-11T12:38:50.000Z</time>
      </trkpt>
      <trkpt lat="41.732261" lon="-2.319671">
        <ele>1060.4</ele>
        <time>2023-02-11T12:38:51.000Z</time>
      </trkpt>
      <trkpt lat="41.732294" lon="-2.31976">
        <ele>1060.4</ele>
        <time>2023-02-11T12:38:52.000Z</time>
      </trkpt>
      <trkpt lat="41.732327" lon="-2.319848">
        <ele>1060.4</ele>
        <time>2023-02-11T12:38:53.000Z</time>
      </trkpt>
      <trkpt lat="41.732361" lon="-2.319935">
        <ele>1060.4</ele>
        <time>2023-02-11T12:38:54.000Z</time>
      </trkpt>
      <trkpt lat="41.732394" lon="-2.320021">
        <ele>1060.4</ele>
        <time>2023-02-11T12:38:55.000Z</time>
      </trkpt>
      <trkpt lat="41.732427" lon="-2.320108">
        <ele>1060.4</ele>
        <time>2023-02-11T12:38:56.000Z</time>
      </trkpt>
      <trkpt lat="41.732455" lon="-2.320195">
        <ele>1060.6</ele>
        <time>2023-02-11T12:38:57.000Z</time>
      </trkpt>
      <trkpt lat="41.732487" lon="-2.320285">
        <ele>1060.6</ele>
        <time>2023-02-11T12:38:58.000Z</time>
      </trkpt>
      <trkpt lat="41.73252" lon="-2.320374">
        <ele>1060.8</ele>
        <time>2023-02-11T12:38:59.000Z</time>
      </trkpt>
      <trkpt lat="41.732552" lon="-2.320463">
        <ele>1060.8</ele>
        <time>2023-02-11T12:39:00.000Z</time>
      </trkpt>
      <trkpt lat="41.732586" lon="-2.320551">
        <ele>1061</ele>
        <time>2023-02-11T12:39:01.000Z</time>
      </trkpt>
      <trkpt lat="41.732618" lon="-2.320638">
        <ele>1061</ele>
        <time>2023-02-11T12:39:02.000Z</time>
      </trkpt>
      <trkpt lat="41.732652" lon="-2.320724">
        <ele>1061.2</ele>
        <time>2023-02-11T12:39:03.000Z</time>
      </trkpt>
      <trkpt lat="41.732686" lon="-2.320813">
        <ele>1061.4</ele>
        <time>2023-02-11T12:39:04.000Z</time>
      </trkpt>
      <trkpt lat="41.73272" lon="-2.320901">
        <ele>1061.6</ele>
        <time>2023-02-11T12:39:05.000Z</time>
      </trkpt>
      <trkpt lat="41.732753" lon="-2.32099">
        <ele>1061.8</ele>
        <time>2023-02-11T12:39:06.000Z</time>
      </trkpt>
      <trkpt lat="41.732787" lon="-2.321079">
        <ele>1062</ele>
        <time>2023-02-11T12:39:07.000Z</time>
      </trkpt>
      <trkpt lat="41.73282" lon="-2.321166">
        <ele>1062</ele>
        <time>2023-02-11T12:39:08.000Z</time>
      </trkpt>
      <trkpt lat="41.73285" lon="-2.321253">
        <ele>1062.2</ele>
        <time>2023-02-11T12:39:09.000Z</time>
      </trkpt>
      <trkpt lat="41.73288" lon="-2.321341">
        <ele>1062.2</ele>
        <time>2023-02-11T12:39:10.000Z</time>
      </trkpt>
      <trkpt lat="41.732912" lon="-2.321429">
        <ele>1062.2</ele>
        <time>2023-02-11T12:39:11.000Z</time>
      </trkpt>
      <trkpt lat="41.732943" lon="-2.321517">
        <ele>1062.4</ele>
        <time>2023-02-11T12:39:12.000Z</time>
      </trkpt>
      <trkpt lat="41.732976" lon="-2.321605">
        <ele>1062.4</ele>
        <time>2023-02-11T12:39:13.000Z</time>
      </trkpt>
      <trkpt lat="41.733009" lon="-2.321691">
        <ele>1062.6</ele>
        <time>2023-02-11T12:39:14.000Z</time>
      </trkpt>
      <trkpt lat="41.733043" lon="-2.321781">
        <ele>1062.8</ele>
        <time>2023-02-11T12:39:15.000Z</time>
      </trkpt>
      <trkpt lat="41.733077" lon="-2.321871">
        <ele>1063</ele>
        <time>2023-02-11T12:39:16.000Z</time>
      </trkpt>
      <trkpt lat="41.733117" lon="-2.321981">
        <ele>1063.2</ele>
        <time>2023-02-11T12:39:17.000Z</time>
      </trkpt>
      <trkpt lat="41.733145" lon="-2.322054">
        <ele>1063.4</ele>
        <time>2023-02-11T12:39:18.000Z</time>
      </trkpt>
      <trkpt lat="41.733179" lon="-2.322149">
        <ele>1063.4</ele>
        <time>2023-02-11T12:39:19.000Z</time>
      </trkpt>
      <trkpt lat="41.733213" lon="-2.322242">
        <ele>1063.6</ele>
        <time>2023-02-11T12:39:20.000Z</time>
      </trkpt>
      <trkpt lat="41.733246" lon="-2.322337">
        <ele>1063.6</ele>
        <time>2023-02-11T12:39:21.000Z</time>
      </trkpt>
      <trkpt lat="41.733281" lon="-2.322432">
        <ele>1063.8</ele>
        <time>2023-02-11T12:39:22.000Z</time>
      </trkpt>
      <trkpt lat="41.733317" lon="-2.322532">
        <ele>1063.6</ele>
        <time>2023-02-11T12:39:23.000Z</time>
      </trkpt>
      <trkpt lat="41.733354" lon="-2.322635">
        <ele>1063.6</ele>
        <time>2023-02-11T12:39:24.000Z</time>
      </trkpt>
      <trkpt lat="41.733391" lon="-2.322739">
        <ele>1063.6</ele>
        <time>2023-02-11T12:39:25.000Z</time>
      </trkpt>
      <trkpt lat="41.733429" lon="-2.322844">
        <ele>1063.6</ele>
        <time>2023-02-11T12:39:26.000Z</time>
      </trkpt>
      <trkpt lat="41.733469" lon="-2.32295">
        <ele>1063.6</ele>
        <time>2023-02-11T12:39:27.000Z</time>
      </trkpt>
      <trkpt lat="41.733508" lon="-2.323058">
        <ele>1063.4</ele>
        <time>2023-02-11T12:39:28.000Z</time>
      </trkpt>
      <trkpt lat="41.733546" lon="-2.323166">
        <ele>1063.4</ele>
        <time>2023-02-11T12:39:29.000Z</time>
      </trkpt>
      <trkpt lat="41.733585" lon="-2.323276">
        <ele>1063.4</ele>
        <time>2023-02-11T12:39:30.000Z</time>
      </trkpt>
      <trkpt lat="41.733627" lon="-2.323388">
        <ele>1063.2</ele>
        <time>2023-02-11T12:39:31.000Z</time>
      </trkpt>
      <trkpt lat="41.733669" lon="-2.323502">
        <ele>1063</ele>
        <time>2023-02-11T12:39:32.000Z</time>
      </trkpt>
      <trkpt lat="41.733711" lon="-2.323615">
        <ele>1062.6</ele>
        <time>2023-02-11T12:39:33.000Z</time>
      </trkpt>
      <trkpt lat="41.733755" lon="-2.323731">
        <ele>1062.4</ele>
        <time>2023-02-11T12:39:34.000Z</time>
      </trkpt>
      <trkpt lat="41.733797" lon="-2.323849">
        <ele>1062.2</ele>
        <time>2023-02-11T12:39:35.000Z</time>
      </trkpt>
      <trkpt lat="41.733841" lon="-2.323966">
        <ele>1062.2</ele>
        <time>2023-02-11T12:39:36.000Z</time>
      </trkpt>
      <trkpt lat="41.733884" lon="-2.324084">
        <ele>1062</ele>
        <time>2023-02-11T12:39:37.000Z</time>
      </trkpt>
      <trkpt lat="41.733927" lon="-2.324204">
        <ele>1061.8</ele>
        <time>2023-02-11T12:39:38.000Z</time>
      </trkpt>
      <trkpt lat="41.733969" lon="-2.324321">
        <ele>1061.4</ele>
        <time>2023-02-11T12:39:39.000Z</time>
      </trkpt>
      <trkpt lat="41.734013" lon="-2.324439">
        <ele>1061.2</ele>
        <time>2023-02-11T12:39:40.000Z</time>
      </trkpt>
      <trkpt lat="41.734052" lon="-2.324558">
        <ele>1061.2</ele>
        <time>2023-02-11T12:39:41.000Z</time>
      </trkpt>
      <trkpt lat="41.734094" lon="-2.324674">
        <ele>1061</ele>
        <time>2023-02-11T12:39:42.000Z</time>
      </trkpt>
      <trkpt lat="41.734136" lon="-2.32479">
        <ele>1060.8</ele>
        <time>2023-02-11T12:39:43.000Z</time>
      </trkpt>
      <trkpt lat="41.734175" lon="-2.324907">
        <ele>1060.6</ele>
        <time>2023-02-11T12:39:44.000Z</time>
      </trkpt>
      <trkpt lat="41.734216" lon="-2.325025">
        <ele>1060.4</ele>
        <time>2023-02-11T12:39:45.000Z</time>
      </trkpt>
      <trkpt lat="41.73426" lon="-2.325141">
        <ele>1060.2</ele>
        <time>2023-02-11T12:39:46.000Z</time>
      </trkpt>
      <trkpt lat="41.734303" lon="-2.325257">
        <ele>1060.2</ele>
        <time>2023-02-11T12:39:47.000Z</time>
      </trkpt>
      <trkpt lat="41.734345" lon="-2.325373">
        <ele>1060</ele>
        <time>2023-02-11T12:39:48.000Z</time>
      </trkpt>
      <trkpt lat="41.734388" lon="-2.325486">
        <ele>1059.8</ele>
        <time>2023-02-11T12:39:49.000Z</time>
      </trkpt>
      <trkpt lat="41.734426" lon="-2.325597">
        <ele>1059.4</ele>
        <time>2023-02-11T12:39:50.000Z</time>
      </trkpt>
      <trkpt lat="41.73447" lon="-2.325711">
        <ele>1059.4</ele>
        <time>2023-02-11T12:39:51.000Z</time>
      </trkpt>
      <trkpt lat="41.734515" lon="-2.325823">
        <ele>1059.2</ele>
        <time>2023-02-11T12:39:52.000Z</time>
      </trkpt>
      <trkpt lat="41.734556" lon="-2.325934">
        <ele>1059</ele>
        <time>2023-02-11T12:39:53.000Z</time>
      </trkpt>
      <trkpt lat="41.734596" lon="-2.326046">
        <ele>1059</ele>
        <time>2023-02-11T12:39:54.000Z</time>
      </trkpt>
      <trkpt lat="41.734638" lon="-2.326158">
        <ele>1059</ele>
        <time>2023-02-11T12:39:55.000Z</time>
      </trkpt>
      <trkpt lat="41.73468" lon="-2.326273">
        <ele>1058.8</ele>
        <time>2023-02-11T12:39:56.000Z</time>
      </trkpt>
      <trkpt lat="41.734722" lon="-2.326386">
        <ele>1058.8</ele>
        <time>2023-02-11T12:39:57.000Z</time>
      </trkpt>
      <trkpt lat="41.734764" lon="-2.326494">
        <ele>1058.6</ele>
        <time>2023-02-11T12:39:58.000Z</time>
      </trkpt>
      <trkpt lat="41.734804" lon="-2.326598">
        <ele>1058.6</ele>
        <time>2023-02-11T12:39:59.000Z</time>
      </trkpt>
      <trkpt lat="41.734843" lon="-2.326704">
        <ele>1058.4</ele>
        <time>2023-02-11T12:40:00.000Z</time>
      </trkpt>
      <trkpt lat="41.734879" lon="-2.326807">
        <ele>1058.2</ele>
        <time>2023-02-11T12:40:01.000Z</time>
      </trkpt>
      <trkpt lat="41.734918" lon="-2.326906">
        <ele>1058</ele>
        <time>2023-02-11T12:40:02.000Z</time>
      </trkpt>
      <trkpt lat="41.734955" lon="-2.327006">
        <ele>1058</ele>
        <time>2023-02-11T12:40:03.000Z</time>
      </trkpt>
      <trkpt lat="41.734992" lon="-2.327108">
        <ele>1057.8</ele>
        <time>2023-02-11T12:40:04.000Z</time>
      </trkpt>
      <trkpt lat="41.735029" lon="-2.32721">
        <ele>1057.6</ele>
        <time>2023-02-11T12:40:05.000Z</time>
      </trkpt>
      <trkpt lat="41.735067" lon="-2.327313">
        <ele>1057.4</ele>
        <time>2023-02-11T12:40:06.000Z</time>
      </trkpt>
      <trkpt lat="41.735105" lon="-2.327418">
        <ele>1057.2</ele>
        <time>2023-02-11T12:40:07.000Z</time>
      </trkpt>
      <trkpt lat="41.735146" lon="-2.32752">
        <ele>1057.2</ele>
        <time>2023-02-11T12:40:08.000Z</time>
      </trkpt>
      <trkpt lat="41.735186" lon="-2.327623">
        <ele>1057</ele>
        <time>2023-02-11T12:40:09.000Z</time>
      </trkpt>
      <trkpt lat="41.735225" lon="-2.327729">
        <ele>1057</ele>
        <time>2023-02-11T12:40:10.000Z</time>
      </trkpt>
      <trkpt lat="41.735264" lon="-2.327836">
        <ele>1056.8</ele>
        <time>2023-02-11T12:40:11.000Z</time>
      </trkpt>
      <trkpt lat="41.735304" lon="-2.327946">
        <ele>1056.8</ele>
        <time>2023-02-11T12:40:12.000Z</time>
      </trkpt>
      <trkpt lat="41.735345" lon="-2.328056">
        <ele>1056.6</ele>
        <time>2023-02-11T12:40:13.000Z</time>
      </trkpt>
      <trkpt lat="41.735388" lon="-2.328169">
        <ele>1056.6</ele>
        <time>2023-02-11T12:40:14.000Z</time>
      </trkpt>
      <trkpt lat="41.735431" lon="-2.328286">
        <ele>1056.4</ele>
        <time>2023-02-11T12:40:15.000Z</time>
      </trkpt>
      <trkpt lat="41.735475" lon="-2.328402">
        <ele>1056.4</ele>
        <time>2023-02-11T12:40:16.000Z</time>
      </trkpt>
      <trkpt lat="41.735519" lon="-2.328522">
        <ele>1056</ele>
        <time>2023-02-11T12:40:17.000Z</time>
      </trkpt>
      <trkpt lat="41.735558" lon="-2.328642">
        <ele>1055.8</ele>
        <time>2023-02-11T12:40:18.000Z</time>
      </trkpt>
      <trkpt lat="41.735603" lon="-2.328767">
        <ele>1055.6</ele>
        <time>2023-02-11T12:40:19.000Z</time>
      </trkpt>
      <trkpt lat="41.73565" lon="-2.328892">
        <ele>1055.2</ele>
        <time>2023-02-11T12:40:20.000Z</time>
      </trkpt>
      <trkpt lat="41.735695" lon="-2.329019">
        <ele>1055.2</ele>
        <time>2023-02-11T12:40:21.000Z</time>
      </trkpt>
      <trkpt lat="41.735741" lon="-2.329145">
        <ele>1055</ele>
        <time>2023-02-11T12:40:22.000Z</time>
      </trkpt>
      <trkpt lat="41.735788" lon="-2.329272">
        <ele>1054.8</ele>
        <time>2023-02-11T12:40:23.000Z</time>
      </trkpt>
      <trkpt lat="41.735833" lon="-2.329399">
        <ele>1054.4</ele>
        <time>2023-02-11T12:40:24.000Z</time>
      </trkpt>
      <trkpt lat="41.735879" lon="-2.329527">
        <ele>1054.4</ele>
        <time>2023-02-11T12:40:25.000Z</time>
      </trkpt>
      <trkpt lat="41.735927" lon="-2.329659">
        <ele>1054</ele>
        <time>2023-02-11T12:40:26.000Z</time>
      </trkpt>
      <trkpt lat="41.735974" lon="-2.32979">
        <ele>1054</ele>
        <time>2023-02-11T12:40:27.000Z</time>
      </trkpt>
      <trkpt lat="41.736019" lon="-2.329919">
        <ele>1053.6</ele>
        <time>2023-02-11T12:40:28.000Z</time>
      </trkpt>
      <trkpt lat="41.736068" lon="-2.330047">
        <ele>1053.2</ele>
        <time>2023-02-11T12:40:29.000Z</time>
      </trkpt>
      <trkpt lat="41.736115" lon="-2.330174">
        <ele>1052.8</ele>
        <time>2023-02-11T12:40:30.000Z</time>
      </trkpt>
      <trkpt lat="41.736162" lon="-2.330302">
        <ele>1052.2</ele>
        <time>2023-02-11T12:40:31.000Z</time>
      </trkpt>
      <trkpt lat="41.736209" lon="-2.33043">
        <ele>1052</ele>
        <time>2023-02-11T12:40:32.000Z</time>
      </trkpt>
      <trkpt lat="41.736257" lon="-2.330559">
        <ele>1051.2</ele>
        <time>2023-02-11T12:40:33.000Z</time>
      </trkpt>
      <trkpt lat="41.736303" lon="-2.330684">
        <ele>1051</ele>
        <time>2023-02-11T12:40:34.000Z</time>
      </trkpt>
      <trkpt lat="41.736348" lon="-2.330807">
        <ele>1050.4</ele>
        <time>2023-02-11T12:40:35.000Z</time>
      </trkpt>
      <trkpt lat="41.736393" lon="-2.330928">
        <ele>1050</ele>
        <time>2023-02-11T12:40:36.000Z</time>
      </trkpt>
      <trkpt lat="41.736437" lon="-2.331048">
        <ele>1049.8</ele>
        <time>2023-02-11T12:40:37.000Z</time>
      </trkpt>
      <trkpt lat="41.736482" lon="-2.331166">
        <ele>1049.6</ele>
        <time>2023-02-11T12:40:38.000Z</time>
      </trkpt>
      <trkpt lat="41.736528" lon="-2.331282">
        <ele>1049.2</ele>
        <time>2023-02-11T12:40:39.000Z</time>
      </trkpt>
      <trkpt lat="41.736576" lon="-2.331396">
        <ele>1049</ele>
        <time>2023-02-11T12:40:40.000Z</time>
      </trkpt>
      <trkpt lat="41.736621" lon="-2.331512">
        <ele>1048.8</ele>
        <time>2023-02-11T12:40:41.000Z</time>
      </trkpt>
      <trkpt lat="41.736665" lon="-2.331631">
        <ele>1048.6</ele>
        <time>2023-02-11T12:40:42.000Z</time>
      </trkpt>
      <trkpt lat="41.736708" lon="-2.33175">
        <ele>1048.6</ele>
        <time>2023-02-11T12:40:43.000Z</time>
      </trkpt>
      <trkpt lat="41.736753" lon="-2.331874">
        <ele>1048.4</ele>
        <time>2023-02-11T12:40:44.000Z</time>
      </trkpt>
      <trkpt lat="41.736797" lon="-2.331998">
        <ele>1048.2</ele>
        <time>2023-02-11T12:40:45.000Z</time>
      </trkpt>
      <trkpt lat="41.736845" lon="-2.332123">
        <ele>1048</ele>
        <time>2023-02-11T12:40:46.000Z</time>
      </trkpt>
      <trkpt lat="41.736894" lon="-2.332254">
        <ele>1048</ele>
        <time>2023-02-11T12:40:47.000Z</time>
      </trkpt>
      <trkpt lat="41.736943" lon="-2.33239">
        <ele>1047.8</ele>
        <time>2023-02-11T12:40:48.000Z</time>
      </trkpt>
      <trkpt lat="41.736993" lon="-2.332529">
        <ele>1047.6</ele>
        <time>2023-02-11T12:40:49.000Z</time>
      </trkpt>
      <trkpt lat="41.737044" lon="-2.33267">
        <ele>1047.2</ele>
        <time>2023-02-11T12:40:50.000Z</time>
      </trkpt>
      <trkpt lat="41.737096" lon="-2.332808">
        <ele>1046.6</ele>
        <time>2023-02-11T12:40:51.000Z</time>
      </trkpt>
      <trkpt lat="41.737148" lon="-2.332948">
        <ele>1046.6</ele>
        <time>2023-02-11T12:40:52.000Z</time>
      </trkpt>
      <trkpt lat="41.737198" lon="-2.333085">
        <ele>1046.2</ele>
        <time>2023-02-11T12:40:53.000Z</time>
      </trkpt>
      <trkpt lat="41.737249" lon="-2.333218">
        <ele>1046.2</ele>
        <time>2023-02-11T12:40:54.000Z</time>
      </trkpt>
      <trkpt lat="41.737297" lon="-2.333349">
        <ele>1046</ele>
        <time>2023-02-11T12:40:55.000Z</time>
      </trkpt>
      <trkpt lat="41.737345" lon="-2.333477">
        <ele>1046</ele>
        <time>2023-02-11T12:40:56.000Z</time>
      </trkpt>
      <trkpt lat="41.737391" lon="-2.333604">
        <ele>1046</ele>
        <time>2023-02-11T12:40:57.000Z</time>
      </trkpt>
      <trkpt lat="41.737437" lon="-2.333729">
        <ele>1045.8</ele>
        <time>2023-02-11T12:40:58.000Z</time>
      </trkpt>
      <trkpt lat="41.737485" lon="-2.333853">
        <ele>1045.8</ele>
        <time>2023-02-11T12:40:59.000Z</time>
      </trkpt>
      <trkpt lat="41.737531" lon="-2.333979">
        <ele>1045.6</ele>
        <time>2023-02-11T12:41:00.000Z</time>
      </trkpt>
      <trkpt lat="41.737576" lon="-2.334106">
        <ele>1045.6</ele>
        <time>2023-02-11T12:41:01.000Z</time>
      </trkpt>
      <trkpt lat="41.737622" lon="-2.334237">
        <ele>1045.6</ele>
        <time>2023-02-11T12:41:02.000Z</time>
      </trkpt>
      <trkpt lat="41.737667" lon="-2.334367">
        <ele>1045.6</ele>
        <time>2023-02-11T12:41:03.000Z</time>
      </trkpt>
      <trkpt lat="41.737711" lon="-2.334494">
        <ele>1045.6</ele>
        <time>2023-02-11T12:41:04.000Z</time>
      </trkpt>
      <trkpt lat="41.737757" lon="-2.33462">
        <ele>1045.4</ele>
        <time>2023-02-11T12:41:05.000Z</time>
      </trkpt>
      <trkpt lat="41.737803" lon="-2.334744">
        <ele>1045.2</ele>
        <time>2023-02-11T12:41:06.000Z</time>
      </trkpt>
      <trkpt lat="41.737848" lon="-2.334867">
        <ele>1045.2</ele>
        <time>2023-02-11T12:41:07.000Z</time>
      </trkpt>
      <trkpt lat="41.73789" lon="-2.334989">
        <ele>1045.2</ele>
        <time>2023-02-11T12:41:08.000Z</time>
      </trkpt>
      <trkpt lat="41.737932" lon="-2.33511">
        <ele>1045</ele>
        <time>2023-02-11T12:41:09.000Z</time>
      </trkpt>
      <trkpt lat="41.737976" lon="-2.33523">
        <ele>1045</ele>
        <time>2023-02-11T12:41:10.000Z</time>
      </trkpt>
      <trkpt lat="41.738021" lon="-2.335348">
        <ele>1045</ele>
        <time>2023-02-11T12:41:11.000Z</time>
      </trkpt>
      <trkpt lat="41.738066" lon="-2.335465">
        <ele>1045</ele>
        <time>2023-02-11T12:41:12.000Z</time>
      </trkpt>
      <trkpt lat="41.738111" lon="-2.33558">
        <ele>1045</ele>
        <time>2023-02-11T12:41:13.000Z</time>
      </trkpt>
      <trkpt lat="41.738152" lon="-2.335694">
        <ele>1045</ele>
        <time>2023-02-11T12:41:14.000Z</time>
      </trkpt>
      <trkpt lat="41.738191" lon="-2.335806">
        <ele>1045</ele>
        <time>2023-02-11T12:41:15.000Z</time>
      </trkpt>
      <trkpt lat="41.73823" lon="-2.335918">
        <ele>1045.2</ele>
        <time>2023-02-11T12:41:16.000Z</time>
      </trkpt>
      <trkpt lat="41.73827" lon="-2.336031">
        <ele>1045.2</ele>
        <time>2023-02-11T12:41:17.000Z</time>
      </trkpt>
      <trkpt lat="41.738312" lon="-2.336143">
        <ele>1045.4</ele>
        <time>2023-02-11T12:41:18.000Z</time>
      </trkpt>
      <trkpt lat="41.738353" lon="-2.336253">
        <ele>1045.4</ele>
        <time>2023-02-11T12:41:19.000Z</time>
      </trkpt>
      <trkpt lat="41.738393" lon="-2.336364">
        <ele>1045.6</ele>
        <time>2023-02-11T12:41:20.000Z</time>
      </trkpt>
      <trkpt lat="41.738434" lon="-2.336474">
        <ele>1045.8</ele>
        <time>2023-02-11T12:41:21.000Z</time>
      </trkpt>
      <trkpt lat="41.738475" lon="-2.336584">
        <ele>1046.2</ele>
        <time>2023-02-11T12:41:22.000Z</time>
      </trkpt>
      <trkpt lat="41.738517" lon="-2.336694">
        <ele>1046.2</ele>
        <time>2023-02-11T12:41:23.000Z</time>
      </trkpt>
      <trkpt lat="41.73856" lon="-2.336805">
        <ele>1046.4</ele>
        <time>2023-02-11T12:41:24.000Z</time>
      </trkpt>
      <trkpt lat="41.738598" lon="-2.336911">
        <ele>1046.4</ele>
        <time>2023-02-11T12:41:25.000Z</time>
      </trkpt>
      <trkpt lat="41.738637" lon="-2.33702">
        <ele>1046.4</ele>
        <time>2023-02-11T12:41:26.000Z</time>
      </trkpt>
      <trkpt lat="41.738677" lon="-2.33713">
        <ele>1046.4</ele>
        <time>2023-02-11T12:41:27.000Z</time>
      </trkpt>
      <trkpt lat="41.738718" lon="-2.337239">
        <ele>1046.4</ele>
        <time>2023-02-11T12:41:28.000Z</time>
      </trkpt>
      <trkpt lat="41.738759" lon="-2.337348">
        <ele>1046.6</ele>
        <time>2023-02-11T12:41:29.000Z</time>
      </trkpt>
      <trkpt lat="41.7388" lon="-2.337455">
        <ele>1046.8</ele>
        <time>2023-02-11T12:41:30.000Z</time>
      </trkpt>
      <trkpt lat="41.738841" lon="-2.337563">
        <ele>1046.8</ele>
        <time>2023-02-11T12:41:31.000Z</time>
      </trkpt>
      <trkpt lat="41.738882" lon="-2.337671">
        <ele>1046.8</ele>
        <time>2023-02-11T12:41:32.000Z</time>
      </trkpt>
      <trkpt lat="41.73892" lon="-2.337783">
        <ele>1046.8</ele>
        <time>2023-02-11T12:41:33.000Z</time>
      </trkpt>
      <trkpt lat="41.738958" lon="-2.337896">
        <ele>1046.8</ele>
        <time>2023-02-11T12:41:34.000Z</time>
      </trkpt>
      <trkpt lat="41.738998" lon="-2.338008">
        <ele>1046.8</ele>
        <time>2023-02-11T12:41:35.000Z</time>
      </trkpt>
      <trkpt lat="41.73904" lon="-2.33812">
        <ele>1046.8</ele>
        <time>2023-02-11T12:41:36.000Z</time>
      </trkpt>
      <trkpt lat="41.739081" lon="-2.338232">
        <ele>1046.8</ele>
        <time>2023-02-11T12:41:37.000Z</time>
      </trkpt>
      <trkpt lat="41.739121" lon="-2.338346">
        <ele>1046.8</ele>
        <time>2023-02-11T12:41:38.000Z</time>
      </trkpt>
      <trkpt lat="41.739162" lon="-2.33846">
        <ele>1046.8</ele>
        <time>2023-02-11T12:41:39.000Z</time>
      </trkpt>
      <trkpt lat="41.739201" lon="-2.338573">
        <ele>1046.8</ele>
        <time>2023-02-11T12:41:40.000Z</time>
      </trkpt>
      <trkpt lat="41.739242" lon="-2.338685">
        <ele>1046.8</ele>
        <time>2023-02-11T12:41:41.000Z</time>
      </trkpt>
      <trkpt lat="41.739282" lon="-2.338798">
        <ele>1047</ele>
        <time>2023-02-11T12:41:42.000Z</time>
      </trkpt>
      <trkpt lat="41.739323" lon="-2.338912">
        <ele>1047</ele>
        <time>2023-02-11T12:41:43.000Z</time>
      </trkpt>
      <trkpt lat="41.739364" lon="-2.339025">
        <ele>1047</ele>
        <time>2023-02-11T12:41:44.000Z</time>
      </trkpt>
      <trkpt lat="41.739404" lon="-2.339138">
        <ele>1047</ele>
        <time>2023-02-11T12:41:45.000Z</time>
      </trkpt>
      <trkpt lat="41.739443" lon="-2.33925">
        <ele>1047</ele>
        <time>2023-02-11T12:41:46.000Z</time>
      </trkpt>
      <trkpt lat="41.739482" lon="-2.339361">
        <ele>1047</ele>
        <time>2023-02-11T12:41:47.000Z</time>
      </trkpt>
      <trkpt lat="41.739523" lon="-2.339469">
        <ele>1047.2</ele>
        <time>2023-02-11T12:41:48.000Z</time>
      </trkpt>
      <trkpt lat="41.739564" lon="-2.33958">
        <ele>1047.2</ele>
        <time>2023-02-11T12:41:49.000Z</time>
      </trkpt>
      <trkpt lat="41.739604" lon="-2.339689">
        <ele>1047.2</ele>
        <time>2023-02-11T12:41:50.000Z</time>
      </trkpt>
      <trkpt lat="41.739644" lon="-2.339798">
        <ele>1047.4</ele>
        <time>2023-02-11T12:41:51.000Z</time>
      </trkpt>
      <trkpt lat="41.739685" lon="-2.339907">
        <ele>1047.4</ele>
        <time>2023-02-11T12:41:52.000Z</time>
      </trkpt>
      <trkpt lat="41.739727" lon="-2.340017">
        <ele>1047.4</ele>
        <time>2023-02-11T12:41:53.000Z</time>
      </trkpt>
      <trkpt lat="41.73977" lon="-2.340126">
        <ele>1047.4</ele>
        <time>2023-02-11T12:41:54.000Z</time>
      </trkpt>
      <trkpt lat="41.73981" lon="-2.340236">
        <ele>1047.6</ele>
        <time>2023-02-11T12:41:55.000Z</time>
      </trkpt>
      <trkpt lat="41.739852" lon="-2.340347">
        <ele>1047.6</ele>
        <time>2023-02-11T12:41:56.000Z</time>
      </trkpt>
      <trkpt lat="41.739896" lon="-2.340458">
        <ele>1047.6</ele>
        <time>2023-02-11T12:41:57.000Z</time>
      </trkpt>
      <trkpt lat="41.739934" lon="-2.340568">
        <ele>1047.6</ele>
        <time>2023-02-11T12:41:58.000Z</time>
      </trkpt>
      <trkpt lat="41.739974" lon="-2.340677">
        <ele>1047.6</ele>
        <time>2023-02-11T12:41:59.000Z</time>
      </trkpt>
      <trkpt lat="41.740014" lon="-2.340786">
        <ele>1047.6</ele>
        <time>2023-02-11T12:42:00.000Z</time>
      </trkpt>
      <trkpt lat="41.740053" lon="-2.340892">
        <ele>1047.6</ele>
        <time>2023-02-11T12:42:01.000Z</time>
      </trkpt>
      <trkpt lat="41.740093" lon="-2.340996">
        <ele>1047.6</ele>
        <time>2023-02-11T12:42:02.000Z</time>
      </trkpt>
      <trkpt lat="41.740131" lon="-2.341099">
        <ele>1047.6</ele>
        <time>2023-02-11T12:42:03.000Z</time>
      </trkpt>
      <trkpt lat="41.740165" lon="-2.341199">
        <ele>1047.6</ele>
        <time>2023-02-11T12:42:04.000Z</time>
      </trkpt>
      <trkpt lat="41.740199" lon="-2.341299">
        <ele>1047.6</ele>
        <time>2023-02-11T12:42:05.000Z</time>
      </trkpt>
      <trkpt lat="41.740234" lon="-2.3414">
        <ele>1048</ele>
        <time>2023-02-11T12:42:06.000Z</time>
      </trkpt>
      <trkpt lat="41.740269" lon="-2.341498">
        <ele>1048.2</ele>
        <time>2023-02-11T12:42:07.000Z</time>
      </trkpt>
      <trkpt lat="41.740304" lon="-2.341594">
        <ele>1048.2</ele>
        <time>2023-02-11T12:42:08.000Z</time>
      </trkpt>
      <trkpt lat="41.740339" lon="-2.34169">
        <ele>1048.4</ele>
        <time>2023-02-11T12:42:09.000Z</time>
      </trkpt>
      <trkpt lat="41.740373" lon="-2.341785">
        <ele>1048.4</ele>
        <time>2023-02-11T12:42:10.000Z</time>
      </trkpt>
      <trkpt lat="41.740407" lon="-2.341879">
        <ele>1048.6</ele>
        <time>2023-02-11T12:42:11.000Z</time>
      </trkpt>
      <trkpt lat="41.740441" lon="-2.341973">
        <ele>1048.6</ele>
        <time>2023-02-11T12:42:12.000Z</time>
      </trkpt>
      <trkpt lat="41.740475" lon="-2.342066">
        <ele>1048.8</ele>
        <time>2023-02-11T12:42:13.000Z</time>
      </trkpt>
      <trkpt lat="41.740508" lon="-2.342159">
        <ele>1048.8</ele>
        <time>2023-02-11T12:42:14.000Z</time>
      </trkpt>
      <trkpt lat="41.740542" lon="-2.342251">
        <ele>1048.8</ele>
        <time>2023-02-11T12:42:15.000Z</time>
      </trkpt>
      <trkpt lat="41.740575" lon="-2.342343">
        <ele>1048.8</ele>
        <time>2023-02-11T12:42:16.000Z</time>
      </trkpt>
      <trkpt lat="41.74061" lon="-2.342433">
        <ele>1049</ele>
        <time>2023-02-11T12:42:17.000Z</time>
      </trkpt>
      <trkpt lat="41.740645" lon="-2.342524">
        <ele>1049</ele>
        <time>2023-02-11T12:42:18.000Z</time>
      </trkpt>
      <trkpt lat="41.740679" lon="-2.342614">
        <ele>1049</ele>
        <time>2023-02-11T12:42:19.000Z</time>
      </trkpt>
      <trkpt lat="41.740712" lon="-2.342705">
        <ele>1049.2</ele>
        <time>2023-02-11T12:42:20.000Z</time>
      </trkpt>
      <trkpt lat="41.740745" lon="-2.342797">
        <ele>1049.2</ele>
        <time>2023-02-11T12:42:21.000Z</time>
      </trkpt>
      <trkpt lat="41.740778" lon="-2.342887">
        <ele>1049.4</ele>
        <time>2023-02-11T12:42:22.000Z</time>
      </trkpt>
      <trkpt lat="41.74081" lon="-2.342977">
        <ele>1049.8</ele>
        <time>2023-02-11T12:42:23.000Z</time>
      </trkpt>
      <trkpt lat="41.740844" lon="-2.343067">
        <ele>1050</ele>
        <time>2023-02-11T12:42:24.000Z</time>
      </trkpt>
      <trkpt lat="41.740878" lon="-2.343158">
        <ele>1050</ele>
        <time>2023-02-11T12:42:25.000Z</time>
      </trkpt>
      <trkpt lat="41.740912" lon="-2.343248">
        <ele>1050.2</ele>
        <time>2023-02-11T12:42:26.000Z</time>
      </trkpt>
      <trkpt lat="41.740945" lon="-2.343338">
        <ele>1050.4</ele>
        <time>2023-02-11T12:42:27.000Z</time>
      </trkpt>
      <trkpt lat="41.740976" lon="-2.343428">
        <ele>1050.6</ele>
        <time>2023-02-11T12:42:28.000Z</time>
      </trkpt>
      <trkpt lat="41.741008" lon="-2.343519">
        <ele>1050.8</ele>
        <time>2023-02-11T12:42:29.000Z</time>
      </trkpt>
      <trkpt lat="41.74104" lon="-2.343609">
        <ele>1051</ele>
        <time>2023-02-11T12:42:30.000Z</time>
      </trkpt>
      <trkpt lat="41.741071" lon="-2.343698">
        <ele>1051.2</ele>
        <time>2023-02-11T12:42:31.000Z</time>
      </trkpt>
      <trkpt lat="41.741104" lon="-2.343788">
        <ele>1051.2</ele>
        <time>2023-02-11T12:42:32.000Z</time>
      </trkpt>
      <trkpt lat="41.741135" lon="-2.343876">
        <ele>1051.4</ele>
        <time>2023-02-11T12:42:33.000Z</time>
      </trkpt>
      <trkpt lat="41.741167" lon="-2.343966">
        <ele>1051.4</ele>
        <time>2023-02-11T12:42:34.000Z</time>
      </trkpt>
      <trkpt lat="41.7412" lon="-2.344057">
        <ele>1051.8</ele>
        <time>2023-02-11T12:42:35.000Z</time>
      </trkpt>
      <trkpt lat="41.741233" lon="-2.344146">
        <ele>1052</ele>
        <time>2023-02-11T12:42:36.000Z</time>
      </trkpt>
      <trkpt lat="41.741267" lon="-2.344235">
        <ele>1052</ele>
        <time>2023-02-11T12:42:37.000Z</time>
      </trkpt>
      <trkpt lat="41.741299" lon="-2.344325">
        <ele>1052.2</ele>
        <time>2023-02-11T12:42:38.000Z</time>
      </trkpt>
      <trkpt lat="41.741332" lon="-2.344413">
        <ele>1052.4</ele>
        <time>2023-02-11T12:42:39.000Z</time>
      </trkpt>
      <trkpt lat="41.741362" lon="-2.344502">
        <ele>1052.4</ele>
        <time>2023-02-11T12:42:40.000Z</time>
      </trkpt>
      <trkpt lat="41.741396" lon="-2.344589">
        <ele>1052.6</ele>
        <time>2023-02-11T12:42:41.000Z</time>
      </trkpt>
      <trkpt lat="41.74143" lon="-2.344677">
        <ele>1052.6</ele>
        <time>2023-02-11T12:42:42.000Z</time>
      </trkpt>
      <trkpt lat="41.741465" lon="-2.344766">
        <ele>1052.8</ele>
        <time>2023-02-11T12:42:43.000Z</time>
      </trkpt>
      <trkpt lat="41.741498" lon="-2.344858">
        <ele>1053.2</ele>
        <time>2023-02-11T12:42:44.000Z</time>
      </trkpt>
      <trkpt lat="41.741533" lon="-2.344948">
        <ele>1053.4</ele>
        <time>2023-02-11T12:42:45.000Z</time>
      </trkpt>
      <trkpt lat="41.741566" lon="-2.34504">
        <ele>1053.6</ele>
        <time>2023-02-11T12:42:46.000Z</time>
      </trkpt>
      <trkpt lat="41.741599" lon="-2.345133">
        <ele>1053.8</ele>
        <time>2023-02-11T12:42:47.000Z</time>
      </trkpt>
      <trkpt lat="41.741632" lon="-2.345228">
        <ele>1053.8</ele>
        <time>2023-02-11T12:42:48.000Z</time>
      </trkpt>
      <trkpt lat="41.741666" lon="-2.345323">
        <ele>1054</ele>
        <time>2023-02-11T12:42:49.000Z</time>
      </trkpt>
      <trkpt lat="41.741701" lon="-2.345418">
        <ele>1054</ele>
        <time>2023-02-11T12:42:50.000Z</time>
      </trkpt>
      <trkpt lat="41.741737" lon="-2.345513">
        <ele>1054</ele>
        <time>2023-02-11T12:42:51.000Z</time>
      </trkpt>
      <trkpt lat="41.741774" lon="-2.34561">
        <ele>1054.2</ele>
        <time>2023-02-11T12:42:52.000Z</time>
      </trkpt>
      <trkpt lat="41.741807" lon="-2.345708">
        <ele>1054.4</ele>
        <time>2023-02-11T12:42:53.000Z</time>
      </trkpt>
      <trkpt lat="41.741843" lon="-2.345804">
        <ele>1054.6</ele>
        <time>2023-02-11T12:42:54.000Z</time>
      </trkpt>
      <trkpt lat="41.741879" lon="-2.345902">
        <ele>1054.6</ele>
        <time>2023-02-11T12:42:55.000Z</time>
      </trkpt>
      <trkpt lat="41.741916" lon="-2.346001">
        <ele>1054.8</ele>
        <time>2023-02-11T12:42:56.000Z</time>
      </trkpt>
      <trkpt lat="41.741954" lon="-2.346102">
        <ele>1054.8</ele>
        <time>2023-02-11T12:42:57.000Z</time>
      </trkpt>
      <trkpt lat="41.741989" lon="-2.346205">
        <ele>1054.8</ele>
        <time>2023-02-11T12:42:58.000Z</time>
      </trkpt>
      <trkpt lat="41.742026" lon="-2.346307">
        <ele>1054.8</ele>
        <time>2023-02-11T12:42:59.000Z</time>
      </trkpt>
      <trkpt lat="41.742066" lon="-2.346409">
        <ele>1055</ele>
        <time>2023-02-11T12:43:00.000Z</time>
      </trkpt>
      <trkpt lat="41.742104" lon="-2.346512">
        <ele>1055</ele>
        <time>2023-02-11T12:43:01.000Z</time>
      </trkpt>
      <trkpt lat="41.742143" lon="-2.346616">
        <ele>1055.2</ele>
        <time>2023-02-11T12:43:02.000Z</time>
      </trkpt>
      <trkpt lat="41.742182" lon="-2.346722">
        <ele>1055.2</ele>
        <time>2023-02-11T12:43:03.000Z</time>
      </trkpt>
      <trkpt lat="41.742221" lon="-2.346831">
        <ele>1055.2</ele>
        <time>2023-02-11T12:43:04.000Z</time>
      </trkpt>
      <trkpt lat="41.742261" lon="-2.34694">
        <ele>1055.4</ele>
        <time>2023-02-11T12:43:05.000Z</time>
      </trkpt>
      <trkpt lat="41.742302" lon="-2.347051">
        <ele>1055.4</ele>
        <time>2023-02-11T12:43:06.000Z</time>
      </trkpt>
      <trkpt lat="41.742344" lon="-2.347166">
        <ele>1055.2</ele>
        <time>2023-02-11T12:43:07.000Z</time>
      </trkpt>
      <trkpt lat="41.742385" lon="-2.347281">
        <ele>1055.2</ele>
        <time>2023-02-11T12:43:08.000Z</time>
      </trkpt>
      <trkpt lat="41.742429" lon="-2.347394">
        <ele>1055.2</ele>
        <time>2023-02-11T12:43:09.000Z</time>
      </trkpt>
      <trkpt lat="41.742471" lon="-2.347509">
        <ele>1055.2</ele>
        <time>2023-02-11T12:43:10.000Z</time>
      </trkpt>
      <trkpt lat="41.742514" lon="-2.347626">
        <ele>1055</ele>
        <time>2023-02-11T12:43:11.000Z</time>
      </trkpt>
      <trkpt lat="41.742556" lon="-2.347745">
        <ele>1054.8</ele>
        <time>2023-02-11T12:43:12.000Z</time>
      </trkpt>
      <trkpt lat="41.7426" lon="-2.347863">
        <ele>1054.6</ele>
        <time>2023-02-11T12:43:13.000Z</time>
      </trkpt>
      <trkpt lat="41.742644" lon="-2.347982">
        <ele>1054.2</ele>
        <time>2023-02-11T12:43:14.000Z</time>
      </trkpt>
      <trkpt lat="41.742686" lon="-2.348101">
        <ele>1054.2</ele>
        <time>2023-02-11T12:43:15.000Z</time>
      </trkpt>
      <trkpt lat="41.74273" lon="-2.34822">
        <ele>1053.8</ele>
        <time>2023-02-11T12:43:16.000Z</time>
      </trkpt>
      <trkpt lat="41.742775" lon="-2.348341">
        <ele>1053.8</ele>
        <time>2023-02-11T12:43:17.000Z</time>
      </trkpt>
      <trkpt lat="41.742818" lon="-2.34846">
        <ele>1053.4</ele>
        <time>2023-02-11T12:43:18.000Z</time>
      </trkpt>
      <trkpt lat="41.742861" lon="-2.348582">
        <ele>1053.2</ele>
        <time>2023-02-11T12:43:19.000Z</time>
      </trkpt>
      <trkpt lat="41.742905" lon="-2.348703">
        <ele>1053</ele>
        <time>2023-02-11T12:43:20.000Z</time>
      </trkpt>
      <trkpt lat="41.742948" lon="-2.348823">
        <ele>1053</ele>
        <time>2023-02-11T12:43:21.000Z</time>
      </trkpt>
      <trkpt lat="41.742992" lon="-2.348942">
        <ele>1052.4</ele>
        <time>2023-02-11T12:43:22.000Z</time>
      </trkpt>
      <trkpt lat="41.743037" lon="-2.349058">
        <ele>1052</ele>
        <time>2023-02-11T12:43:23.000Z</time>
      </trkpt>
      <trkpt lat="41.74308" lon="-2.349173">
        <ele>1051.8</ele>
        <time>2023-02-11T12:43:24.000Z</time>
      </trkpt>
      <trkpt lat="41.743123" lon="-2.34929">
        <ele>1051.6</ele>
        <time>2023-02-11T12:43:25.000Z</time>
      </trkpt>
      <trkpt lat="41.743164" lon="-2.349406">
        <ele>1051.4</ele>
        <time>2023-02-11T12:43:26.000Z</time>
      </trkpt>
      <trkpt lat="41.743207" lon="-2.349522">
        <ele>1051.2</ele>
        <time>2023-02-11T12:43:27.000Z</time>
      </trkpt>
      <trkpt lat="41.743249" lon="-2.349637">
        <ele>1051.2</ele>
        <time>2023-02-11T12:43:28.000Z</time>
      </trkpt>
      <trkpt lat="41.743291" lon="-2.349752">
        <ele>1051</ele>
        <time>2023-02-11T12:43:29.000Z</time>
      </trkpt>
      <trkpt lat="41.743332" lon="-2.349866">
        <ele>1051</ele>
        <time>2023-02-11T12:43:30.000Z</time>
      </trkpt>
      <trkpt lat="41.743372" lon="-2.349978">
        <ele>1051</ele>
        <time>2023-02-11T12:43:31.000Z</time>
      </trkpt>
      <trkpt lat="41.743412" lon="-2.350088">
        <ele>1051</ele>
        <time>2023-02-11T12:43:32.000Z</time>
      </trkpt>
      <trkpt lat="41.743451" lon="-2.350197">
        <ele>1051</ele>
        <time>2023-02-11T12:43:33.000Z</time>
      </trkpt>
      <trkpt lat="41.743489" lon="-2.350304">
        <ele>1051</ele>
        <time>2023-02-11T12:43:34.000Z</time>
      </trkpt>
      <trkpt lat="41.743526" lon="-2.350409">
        <ele>1051.2</ele>
        <time>2023-02-11T12:43:35.000Z</time>
      </trkpt>
      <trkpt lat="41.743563" lon="-2.350511">
        <ele>1051.2</ele>
        <time>2023-02-11T12:43:36.000Z</time>
      </trkpt>
      <trkpt lat="41.743601" lon="-2.350615">
        <ele>1051.2</ele>
        <time>2023-02-11T12:43:37.000Z</time>
      </trkpt>
      <trkpt lat="41.743634" lon="-2.350718">
        <ele>1051.4</ele>
        <time>2023-02-11T12:43:38.000Z</time>
      </trkpt>
      <trkpt lat="41.743671" lon="-2.350819">
        <ele>1051.4</ele>
        <time>2023-02-11T12:43:39.000Z</time>
      </trkpt>
      <trkpt lat="41.743709" lon="-2.35092">
        <ele>1051.6</ele>
        <time>2023-02-11T12:43:40.000Z</time>
      </trkpt>
      <trkpt lat="41.743749" lon="-2.35102">
        <ele>1051.6</ele>
        <time>2023-02-11T12:43:41.000Z</time>
      </trkpt>
      <trkpt lat="41.743787" lon="-2.351119">
        <ele>1052</ele>
        <time>2023-02-11T12:43:42.000Z</time>
      </trkpt>
      <trkpt lat="41.743823" lon="-2.351218">
        <ele>1052.2</ele>
        <time>2023-02-11T12:43:43.000Z</time>
      </trkpt>
      <trkpt lat="41.743858" lon="-2.351316">
        <ele>1052.2</ele>
        <time>2023-02-11T12:43:44.000Z</time>
      </trkpt>
      <trkpt lat="41.743892" lon="-2.351414">
        <ele>1052.4</ele>
        <time>2023-02-11T12:43:45.000Z</time>
      </trkpt>
      <trkpt lat="41.743926" lon="-2.351512">
        <ele>1052.4</ele>
        <time>2023-02-11T12:43:46.000Z</time>
      </trkpt>
      <trkpt lat="41.743962" lon="-2.35161">
        <ele>1052.4</ele>
        <time>2023-02-11T12:43:47.000Z</time>
      </trkpt>
      <trkpt lat="41.743998" lon="-2.35171">
        <ele>1052.4</ele>
        <time>2023-02-11T12:43:48.000Z</time>
      </trkpt>
      <trkpt lat="41.74403" lon="-2.351812">
        <ele>1052.6</ele>
        <time>2023-02-11T12:43:49.000Z</time>
      </trkpt>
      <trkpt lat="41.744067" lon="-2.351911">
        <ele>1052.6</ele>
        <time>2023-02-11T12:43:50.000Z</time>
      </trkpt>
      <trkpt lat="41.744105" lon="-2.352012">
        <ele>1052.6</ele>
        <time>2023-02-11T12:43:51.000Z</time>
      </trkpt>
      <trkpt lat="41.744141" lon="-2.352114">
        <ele>1052.6</ele>
        <time>2023-02-11T12:43:52.000Z</time>
      </trkpt>
      <trkpt lat="41.744177" lon="-2.352215">
        <ele>1052.8</ele>
        <time>2023-02-11T12:43:53.000Z</time>
      </trkpt>
      <trkpt lat="41.744214" lon="-2.352314">
        <ele>1052.8</ele>
        <time>2023-02-11T12:43:54.000Z</time>
      </trkpt>
      <trkpt lat="41.744249" lon="-2.35241">
        <ele>1052.8</ele>
        <time>2023-02-11T12:43:55.000Z</time>
      </trkpt>
      <trkpt lat="41.744285" lon="-2.352506">
        <ele>1053</ele>
        <time>2023-02-11T12:43:56.000Z</time>
      </trkpt>
      <trkpt lat="41.74432" lon="-2.352601">
        <ele>1053</ele>
        <time>2023-02-11T12:43:57.000Z</time>
      </trkpt>
      <trkpt lat="41.744357" lon="-2.352696">
        <ele>1053.2</ele>
        <time>2023-02-11T12:43:58.000Z</time>
      </trkpt>
      <trkpt lat="41.744396" lon="-2.352793">
        <ele>1053.4</ele>
        <time>2023-02-11T12:43:59.000Z</time>
      </trkpt>
      <trkpt lat="41.744436" lon="-2.352891">
        <ele>1053.6</ele>
        <time>2023-02-11T12:44:00.000Z</time>
      </trkpt>
      <trkpt lat="41.744475" lon="-2.35299">
        <ele>1053.8</ele>
        <time>2023-02-11T12:44:01.000Z</time>
      </trkpt>
      <trkpt lat="41.744515" lon="-2.353092">
        <ele>1053.8</ele>
        <time>2023-02-11T12:44:02.000Z</time>
      </trkpt>
      <trkpt lat="41.744554" lon="-2.353195">
        <ele>1053.8</ele>
        <time>2023-02-11T12:44:03.000Z</time>
      </trkpt>
      <trkpt lat="41.744594" lon="-2.353301">
        <ele>1054</ele>
        <time>2023-02-11T12:44:04.000Z</time>
      </trkpt>
      <trkpt lat="41.744633" lon="-2.353409">
        <ele>1053.8</ele>
        <time>2023-02-11T12:44:05.000Z</time>
      </trkpt>
      <trkpt lat="41.744675" lon="-2.353514">
        <ele>1053.8</ele>
        <time>2023-02-11T12:44:06.000Z</time>
      </trkpt>
      <trkpt lat="41.744714" lon="-2.35362">
        <ele>1053.8</ele>
        <time>2023-02-11T12:44:07.000Z</time>
      </trkpt>
      <trkpt lat="41.744754" lon="-2.353729">
        <ele>1053.8</ele>
        <time>2023-02-11T12:44:08.000Z</time>
      </trkpt>
      <trkpt lat="41.744794" lon="-2.353837">
        <ele>1053.6</ele>
        <time>2023-02-11T12:44:09.000Z</time>
      </trkpt>
      <trkpt lat="41.744832" lon="-2.353943">
        <ele>1053.6</ele>
        <time>2023-02-11T12:44:10.000Z</time>
      </trkpt>
      <trkpt lat="41.744868" lon="-2.354048">
        <ele>1053.6</ele>
        <time>2023-02-11T12:44:11.000Z</time>
      </trkpt>
      <trkpt lat="41.744907" lon="-2.354152">
        <ele>1053.6</ele>
        <time>2023-02-11T12:44:12.000Z</time>
      </trkpt>
      <trkpt lat="41.744945" lon="-2.354253">
        <ele>1053.6</ele>
        <time>2023-02-11T12:44:13.000Z</time>
      </trkpt>
      <trkpt lat="41.744984" lon="-2.35435">
        <ele>1053.6</ele>
        <time>2023-02-11T12:44:14.000Z</time>
      </trkpt>
      <trkpt lat="41.745023" lon="-2.354446">
        <ele>1053.6</ele>
        <time>2023-02-11T12:44:15.000Z</time>
      </trkpt>
      <trkpt lat="41.745059" lon="-2.354536">
        <ele>1053.4</ele>
        <time>2023-02-11T12:44:16.000Z</time>
      </trkpt>
      <trkpt lat="41.745096" lon="-2.354625">
        <ele>1053.4</ele>
        <time>2023-02-11T12:44:17.000Z</time>
      </trkpt>
      <trkpt lat="41.745136" lon="-2.354713">
        <ele>1053.4</ele>
        <time>2023-02-11T12:44:18.000Z</time>
      </trkpt>
      <trkpt lat="41.745175" lon="-2.354805">
        <ele>1053.4</ele>
        <time>2023-02-11T12:44:19.000Z</time>
      </trkpt>
      <trkpt lat="41.745208" lon="-2.354898">
        <ele>1053.4</ele>
        <time>2023-02-11T12:44:20.000Z</time>
      </trkpt>
      <trkpt lat="41.745243" lon="-2.35499">
        <ele>1053.4</ele>
        <time>2023-02-11T12:44:21.000Z</time>
      </trkpt>
      <trkpt lat="41.745284" lon="-2.355085">
        <ele>1053.4</ele>
        <time>2023-02-11T12:44:22.000Z</time>
      </trkpt>
      <trkpt lat="41.745324" lon="-2.355177">
        <ele>1053.2</ele>
        <time>2023-02-11T12:44:23.000Z</time>
      </trkpt>
      <trkpt lat="41.745362" lon="-2.355271">
        <ele>1053.2</ele>
        <time>2023-02-11T12:44:24.000Z</time>
      </trkpt>
      <trkpt lat="41.745396" lon="-2.355366">
        <ele>1053.2</ele>
        <time>2023-02-11T12:44:25.000Z</time>
      </trkpt>
      <trkpt lat="41.745431" lon="-2.355462">
        <ele>1053.2</ele>
        <time>2023-02-11T12:44:26.000Z</time>
      </trkpt>
      <trkpt lat="41.745468" lon="-2.355557">
        <ele>1053.2</ele>
        <time>2023-02-11T12:44:27.000Z</time>
      </trkpt>
      <trkpt lat="41.745505" lon="-2.355651">
        <ele>1053.2</ele>
        <time>2023-02-11T12:44:28.000Z</time>
      </trkpt>
      <trkpt lat="41.74554" lon="-2.355743">
        <ele>1053.2</ele>
        <time>2023-02-11T12:44:29.000Z</time>
      </trkpt>
      <trkpt lat="41.745583" lon="-2.355853">
        <ele>1053.2</ele>
        <time>2023-02-11T12:44:30.000Z</time>
      </trkpt>
      <trkpt lat="41.745614" lon="-2.355924">
        <ele>1053.2</ele>
        <time>2023-02-11T12:44:31.000Z</time>
      </trkpt>
      <trkpt lat="41.745651" lon="-2.356015">
        <ele>1053.4</ele>
        <time>2023-02-11T12:44:32.000Z</time>
      </trkpt>
      <trkpt lat="41.745689" lon="-2.356104">
        <ele>1053.4</ele>
        <time>2023-02-11T12:44:33.000Z</time>
      </trkpt>
      <trkpt lat="41.745727" lon="-2.356194">
        <ele>1053.4</ele>
        <time>2023-02-11T12:44:34.000Z</time>
      </trkpt>
      <trkpt lat="41.745761" lon="-2.356284">
        <ele>1053.4</ele>
        <time>2023-02-11T12:44:35.000Z</time>
      </trkpt>
      <trkpt lat="41.745793" lon="-2.356376">
        <ele>1053.4</ele>
        <time>2023-02-11T12:44:36.000Z</time>
      </trkpt>
      <trkpt lat="41.745826" lon="-2.356463">
        <ele>1053.4</ele>
        <time>2023-02-11T12:44:37.000Z</time>
      </trkpt>
      <trkpt lat="41.745862" lon="-2.356547">
        <ele>1053.4</ele>
        <time>2023-02-11T12:44:38.000Z</time>
      </trkpt>
      <trkpt lat="41.745895" lon="-2.356632">
        <ele>1053.6</ele>
        <time>2023-02-11T12:44:39.000Z</time>
      </trkpt>
      <trkpt lat="41.745927" lon="-2.356717">
        <ele>1053.6</ele>
        <time>2023-02-11T12:44:40.000Z</time>
      </trkpt>
      <trkpt lat="41.745959" lon="-2.356799">
        <ele>1053.6</ele>
        <time>2023-02-11T12:44:41.000Z</time>
      </trkpt>
      <trkpt lat="41.745988" lon="-2.356877">
        <ele>1053.8</ele>
        <time>2023-02-11T12:44:42.000Z</time>
      </trkpt>
      <trkpt lat="41.746018" lon="-2.356953">
        <ele>1053.8</ele>
        <time>2023-02-11T12:44:43.000Z</time>
      </trkpt>
      <trkpt lat="41.74605" lon="-2.357031">
        <ele>1053.8</ele>
        <time>2023-02-11T12:44:44.000Z</time>
      </trkpt>
      <trkpt lat="41.746082" lon="-2.357109">
        <ele>1054</ele>
        <time>2023-02-11T12:44:45.000Z</time>
      </trkpt>
      <trkpt lat="41.746113" lon="-2.357187">
        <ele>1054.2</ele>
        <time>2023-02-11T12:44:46.000Z</time>
      </trkpt>
      <trkpt lat="41.746143" lon="-2.357265">
        <ele>1054.4</ele>
        <time>2023-02-11T12:44:47.000Z</time>
      </trkpt>
      <trkpt lat="41.746173" lon="-2.357347">
        <ele>1054.4</ele>
        <time>2023-02-11T12:44:48.000Z</time>
      </trkpt>
      <trkpt lat="41.746202" lon="-2.357429">
        <ele>1054.6</ele>
        <time>2023-02-11T12:44:49.000Z</time>
      </trkpt>
      <trkpt lat="41.746231" lon="-2.35751">
        <ele>1054.8</ele>
        <time>2023-02-11T12:44:50.000Z</time>
      </trkpt>
      <trkpt lat="41.74626" lon="-2.357593">
        <ele>1054.8</ele>
        <time>2023-02-11T12:44:51.000Z</time>
      </trkpt>
      <trkpt lat="41.746289" lon="-2.357675">
        <ele>1054.8</ele>
        <time>2023-02-11T12:44:52.000Z</time>
      </trkpt>
      <trkpt lat="41.746317" lon="-2.357754">
        <ele>1054.8</ele>
        <time>2023-02-11T12:44:53.000Z</time>
      </trkpt>
      <trkpt lat="41.746347" lon="-2.357831">
        <ele>1055</ele>
        <time>2023-02-11T12:44:54.000Z</time>
      </trkpt>
      <trkpt lat="41.746376" lon="-2.357906">
        <ele>1055</ele>
        <time>2023-02-11T12:44:55.000Z</time>
      </trkpt>
      <trkpt lat="41.746402" lon="-2.357978">
        <ele>1055</ele>
        <time>2023-02-11T12:44:56.000Z</time>
      </trkpt>
      <trkpt lat="41.746431" lon="-2.358052">
        <ele>1055</ele>
        <time>2023-02-11T12:44:57.000Z</time>
      </trkpt>
      <trkpt lat="41.746459" lon="-2.358126">
        <ele>1055</ele>
        <time>2023-02-11T12:44:58.000Z</time>
      </trkpt>
      <trkpt lat="41.746489" lon="-2.358203">
        <ele>1055</ele>
        <time>2023-02-11T12:44:59.000Z</time>
      </trkpt>
      <trkpt lat="41.746518" lon="-2.358278">
        <ele>1055.2</ele>
        <time>2023-02-11T12:45:00.000Z</time>
      </trkpt>
      <trkpt lat="41.746551" lon="-2.358349">
        <ele>1055.2</ele>
        <time>2023-02-11T12:45:01.000Z</time>
      </trkpt>
      <trkpt lat="41.746581" lon="-2.358423">
        <ele>1055.4</ele>
        <time>2023-02-11T12:45:02.000Z</time>
      </trkpt>
      <trkpt lat="41.746605" lon="-2.358498">
        <ele>1055.6</ele>
        <time>2023-02-11T12:45:03.000Z</time>
      </trkpt>
      <trkpt lat="41.746627" lon="-2.358569">
        <ele>1055.6</ele>
        <time>2023-02-11T12:45:04.000Z</time>
      </trkpt>
      <trkpt lat="41.746648" lon="-2.358638">
        <ele>1055.8</ele>
        <time>2023-02-11T12:45:05.000Z</time>
      </trkpt>
      <trkpt lat="41.746672" lon="-2.358701">
        <ele>1055.8</ele>
        <time>2023-02-11T12:45:06.000Z</time>
      </trkpt>
      <trkpt lat="41.746694" lon="-2.358761">
        <ele>1056</ele>
        <time>2023-02-11T12:45:07.000Z</time>
      </trkpt>
      <trkpt lat="41.746718" lon="-2.358816">
        <ele>1056.2</ele>
        <time>2023-02-11T12:45:08.000Z</time>
      </trkpt>
      <trkpt lat="41.746739" lon="-2.358867">
        <ele>1056.2</ele>
        <time>2023-02-11T12:45:09.000Z</time>
      </trkpt>
      <trkpt lat="41.746763" lon="-2.358921">
        <ele>1056.4</ele>
        <time>2023-02-11T12:45:10.000Z</time>
      </trkpt>
      <trkpt lat="41.746787" lon="-2.358978">
        <ele>1056.6</ele>
        <time>2023-02-11T12:45:11.000Z</time>
      </trkpt>
      <trkpt lat="41.746807" lon="-2.359038">
        <ele>1056.8</ele>
        <time>2023-02-11T12:45:12.000Z</time>
      </trkpt>
      <trkpt lat="41.746827" lon="-2.359099">
        <ele>1056.8</ele>
        <time>2023-02-11T12:45:13.000Z</time>
      </trkpt>
      <trkpt lat="41.74685" lon="-2.359163">
        <ele>1057</ele>
        <time>2023-02-11T12:45:14.000Z</time>
      </trkpt>
      <trkpt lat="41.746875" lon="-2.359228">
        <ele>1057</ele>
        <time>2023-02-11T12:45:15.000Z</time>
      </trkpt>
      <trkpt lat="41.7469" lon="-2.359295">
        <ele>1057.2</ele>
        <time>2023-02-11T12:45:16.000Z</time>
      </trkpt>
      <trkpt lat="41.746925" lon="-2.359364">
        <ele>1057.2</ele>
        <time>2023-02-11T12:45:17.000Z</time>
      </trkpt>
      <trkpt lat="41.746951" lon="-2.359434">
        <ele>1057.2</ele>
        <time>2023-02-11T12:45:18.000Z</time>
      </trkpt>
      <trkpt lat="41.74698" lon="-2.359501">
        <ele>1057.4</ele>
        <time>2023-02-11T12:45:19.000Z</time>
      </trkpt>
      <trkpt lat="41.747007" lon="-2.359568">
        <ele>1057.4</ele>
        <time>2023-02-11T12:45:20.000Z</time>
      </trkpt>
      <trkpt lat="41.747033" lon="-2.359631">
        <ele>1057.6</ele>
        <time>2023-02-11T12:45:21.000Z</time>
      </trkpt>
      <trkpt lat="41.74706" lon="-2.359696">
        <ele>1057.6</ele>
        <time>2023-02-11T12:45:22.000Z</time>
      </trkpt>
      <trkpt lat="41.747087" lon="-2.359763">
        <ele>1057.6</ele>
        <time>2023-02-11T12:45:23.000Z</time>
      </trkpt>
      <trkpt lat="41.747112" lon="-2.359832">
        <ele>1057.6</ele>
        <time>2023-02-11T12:45:24.000Z</time>
      </trkpt>
      <trkpt lat="41.74714" lon="-2.359901">
        <ele>1057.8</ele>
        <time>2023-02-11T12:45:25.000Z</time>
      </trkpt>
      <trkpt lat="41.747165" lon="-2.35997">
        <ele>1057.8</ele>
        <time>2023-02-11T12:45:26.000Z</time>
      </trkpt>
      <trkpt lat="41.747193" lon="-2.36004">
        <ele>1057.8</ele>
        <time>2023-02-11T12:45:27.000Z</time>
      </trkpt>
      <trkpt lat="41.747224" lon="-2.360106">
        <ele>1058</ele>
        <time>2023-02-11T12:45:28.000Z</time>
      </trkpt>
      <trkpt lat="41.747252" lon="-2.360176">
        <ele>1058</ele>
        <time>2023-02-11T12:45:29.000Z</time>
      </trkpt>
      <trkpt lat="41.747282" lon="-2.360249">
        <ele>1058.2</ele>
        <time>2023-02-11T12:45:30.000Z</time>
      </trkpt>
      <trkpt lat="41.747311" lon="-2.360322">
        <ele>1058.4</ele>
        <time>2023-02-11T12:45:31.000Z</time>
      </trkpt>
      <trkpt lat="41.747345" lon="-2.360395">
        <ele>1058.6</ele>
        <time>2023-02-11T12:45:32.000Z</time>
      </trkpt>
      <trkpt lat="41.747377" lon="-2.360471">
        <ele>1058.6</ele>
        <time>2023-02-11T12:45:33.000Z</time>
      </trkpt>
      <trkpt lat="41.747407" lon="-2.360549">
        <ele>1058.8</ele>
        <time>2023-02-11T12:45:34.000Z</time>
      </trkpt>
      <trkpt lat="41.747437" lon="-2.360629">
        <ele>1058.8</ele>
        <time>2023-02-11T12:45:35.000Z</time>
      </trkpt>
      <trkpt lat="41.747468" lon="-2.36071">
        <ele>1059</ele>
        <time>2023-02-11T12:45:36.000Z</time>
      </trkpt>
      <trkpt lat="41.747498" lon="-2.360792">
        <ele>1059</ele>
        <time>2023-02-11T12:45:37.000Z</time>
      </trkpt>
      <trkpt lat="41.747529" lon="-2.360873">
        <ele>1059</ele>
        <time>2023-02-11T12:45:38.000Z</time>
      </trkpt>
      <trkpt lat="41.74756" lon="-2.360953">
        <ele>1059.4</ele>
        <time>2023-02-11T12:45:39.000Z</time>
      </trkpt>
      <trkpt lat="41.747591" lon="-2.361032">
        <ele>1059.4</ele>
        <time>2023-02-11T12:45:40.000Z</time>
      </trkpt>
      <trkpt lat="41.747622" lon="-2.36111">
        <ele>1059.6</ele>
        <time>2023-02-11T12:45:41.000Z</time>
      </trkpt>
      <trkpt lat="41.747653" lon="-2.361188">
        <ele>1059.8</ele>
        <time>2023-02-11T12:45:42.000Z</time>
      </trkpt>
      <trkpt lat="41.747682" lon="-2.361265">
        <ele>1060</ele>
        <time>2023-02-11T12:45:43.000Z</time>
      </trkpt>
      <trkpt lat="41.74771" lon="-2.361345">
        <ele>1060.2</ele>
        <time>2023-02-11T12:45:44.000Z</time>
      </trkpt>
      <trkpt lat="41.747741" lon="-2.361423">
        <ele>1060.4</ele>
        <time>2023-02-11T12:45:45.000Z</time>
      </trkpt>
      <trkpt lat="41.74777" lon="-2.3615">
        <ele>1060.6</ele>
        <time>2023-02-11T12:45:46.000Z</time>
      </trkpt>
      <trkpt lat="41.7478" lon="-2.361579">
        <ele>1060.8</ele>
        <time>2023-02-11T12:45:47.000Z</time>
      </trkpt>
      <trkpt lat="41.747829" lon="-2.361657">
        <ele>1060.8</ele>
        <time>2023-02-11T12:45:48.000Z</time>
      </trkpt>
      <trkpt lat="41.747859" lon="-2.361737">
        <ele>1061</ele>
        <time>2023-02-11T12:45:49.000Z</time>
      </trkpt>
      <trkpt lat="41.747891" lon="-2.361817">
        <ele>1061.2</ele>
        <time>2023-02-11T12:45:50.000Z</time>
      </trkpt>
      <trkpt lat="41.74792" lon="-2.361898">
        <ele>1061.2</ele>
        <time>2023-02-11T12:45:51.000Z</time>
      </trkpt>
      <trkpt lat="41.74795" lon="-2.361978">
        <ele>1061.4</ele>
        <time>2023-02-11T12:45:52.000Z</time>
      </trkpt>
      <trkpt lat="41.747983" lon="-2.362061">
        <ele>1061.4</ele>
        <time>2023-02-11T12:45:53.000Z</time>
      </trkpt>
      <trkpt lat="41.748016" lon="-2.362145">
        <ele>1061.6</ele>
        <time>2023-02-11T12:45:54.000Z</time>
      </trkpt>
      <trkpt lat="41.748048" lon="-2.362229">
        <ele>1061.8</ele>
        <time>2023-02-11T12:45:55.000Z</time>
      </trkpt>
      <trkpt lat="41.748081" lon="-2.362316">
        <ele>1061.8</ele>
        <time>2023-02-11T12:45:56.000Z</time>
      </trkpt>
      <trkpt lat="41.748114" lon="-2.362404">
        <ele>1062</ele>
        <time>2023-02-11T12:45:57.000Z</time>
      </trkpt>
      <trkpt lat="41.748148" lon="-2.362491">
        <ele>1062</ele>
        <time>2023-02-11T12:45:58.000Z</time>
      </trkpt>
      <trkpt lat="41.748183" lon="-2.362575">
        <ele>1062.2</ele>
        <time>2023-02-11T12:45:59.000Z</time>
      </trkpt>
      <trkpt lat="41.748217" lon="-2.362664">
        <ele>1062.2</ele>
        <time>2023-02-11T12:46:00.000Z</time>
      </trkpt>
      <trkpt lat="41.748251" lon="-2.362754">
        <ele>1062.4</ele>
        <time>2023-02-11T12:46:01.000Z</time>
      </trkpt>
      <trkpt lat="41.748286" lon="-2.362846">
        <ele>1062.4</ele>
        <time>2023-02-11T12:46:02.000Z</time>
      </trkpt>
      <trkpt lat="41.748322" lon="-2.36294">
        <ele>1062.4</ele>
        <time>2023-02-11T12:46:03.000Z</time>
      </trkpt>
      <trkpt lat="41.748359" lon="-2.363038">
        <ele>1062.4</ele>
        <time>2023-02-11T12:46:04.000Z</time>
      </trkpt>
      <trkpt lat="41.748397" lon="-2.363136">
        <ele>1062.4</ele>
        <time>2023-02-11T12:46:05.000Z</time>
      </trkpt>
      <trkpt lat="41.748435" lon="-2.363234">
        <ele>1062.2</ele>
        <time>2023-02-11T12:46:06.000Z</time>
      </trkpt>
      <trkpt lat="41.748473" lon="-2.363331">
        <ele>1062.2</ele>
        <time>2023-02-11T12:46:07.000Z</time>
      </trkpt>
      <trkpt lat="41.748511" lon="-2.36343">
        <ele>1062.2</ele>
        <time>2023-02-11T12:46:08.000Z</time>
      </trkpt>
      <trkpt lat="41.74855" lon="-2.36353">
        <ele>1062.2</ele>
        <time>2023-02-11T12:46:09.000Z</time>
      </trkpt>
      <trkpt lat="41.748588" lon="-2.363632">
        <ele>1062</ele>
        <time>2023-02-11T12:46:10.000Z</time>
      </trkpt>
      <trkpt lat="41.748626" lon="-2.363733">
        <ele>1061.8</ele>
        <time>2023-02-11T12:46:11.000Z</time>
      </trkpt>
      <trkpt lat="41.748666" lon="-2.363833">
        <ele>1061.4</ele>
        <time>2023-02-11T12:46:12.000Z</time>
      </trkpt>
      <trkpt lat="41.748705" lon="-2.363937">
        <ele>1061.2</ele>
        <time>2023-02-11T12:46:13.000Z</time>
      </trkpt>
      <trkpt lat="41.748747" lon="-2.364041">
        <ele>1061.2</ele>
        <time>2023-02-11T12:46:14.000Z</time>
      </trkpt>
      <trkpt lat="41.74879" lon="-2.364148">
        <ele>1061</ele>
        <time>2023-02-11T12:46:15.000Z</time>
      </trkpt>
      <trkpt lat="41.748831" lon="-2.364254">
        <ele>1060.8</ele>
        <time>2023-02-11T12:46:16.000Z</time>
      </trkpt>
      <trkpt lat="41.748874" lon="-2.364362">
        <ele>1060.4</ele>
        <time>2023-02-11T12:46:17.000Z</time>
      </trkpt>
      <trkpt lat="41.748916" lon="-2.364471">
        <ele>1060.4</ele>
        <time>2023-02-11T12:46:18.000Z</time>
      </trkpt>
      <trkpt lat="41.748959" lon="-2.36458">
        <ele>1059.8</ele>
        <time>2023-02-11T12:46:19.000Z</time>
      </trkpt>
      <trkpt lat="41.749002" lon="-2.36469">
        <ele>1059.6</ele>
        <time>2023-02-11T12:46:20.000Z</time>
      </trkpt>
      <trkpt lat="41.749044" lon="-2.3648">
        <ele>1059.2</ele>
        <time>2023-02-11T12:46:21.000Z</time>
      </trkpt>
      <trkpt lat="41.749086" lon="-2.364909">
        <ele>1059</ele>
        <time>2023-02-11T12:46:22.000Z</time>
      </trkpt>
      <trkpt lat="41.749127" lon="-2.365017">
        <ele>1058.8</ele>
        <time>2023-02-11T12:46:23.000Z</time>
      </trkpt>
      <trkpt lat="41.749169" lon="-2.365123">
        <ele>1058.8</ele>
        <time>2023-02-11T12:46:24.000Z</time>
      </trkpt>
      <trkpt lat="41.749209" lon="-2.365224">
        <ele>1058.6</ele>
        <time>2023-02-11T12:46:25.000Z</time>
      </trkpt>
      <trkpt lat="41.749249" lon="-2.36533">
        <ele>1058.6</ele>
        <time>2023-02-11T12:46:26.000Z</time>
      </trkpt>
      <trkpt lat="41.74929" lon="-2.365434">
        <ele>1058.4</ele>
        <time>2023-02-11T12:46:27.000Z</time>
      </trkpt>
      <trkpt lat="41.74933" lon="-2.365535">
        <ele>1058.2</ele>
        <time>2023-02-11T12:46:28.000Z</time>
      </trkpt>
      <trkpt lat="41.749367" lon="-2.365636">
        <ele>1058.2</ele>
        <time>2023-02-11T12:46:29.000Z</time>
      </trkpt>
      <trkpt lat="41.749404" lon="-2.365737">
        <ele>1058.2</ele>
        <time>2023-02-11T12:46:30.000Z</time>
      </trkpt>
      <trkpt lat="41.749442" lon="-2.365835">
        <ele>1058</ele>
        <time>2023-02-11T12:46:31.000Z</time>
      </trkpt>
      <trkpt lat="41.749478" lon="-2.365932">
        <ele>1058</ele>
        <time>2023-02-11T12:46:32.000Z</time>
      </trkpt>
      <trkpt lat="41.749513" lon="-2.36603">
        <ele>1058</ele>
        <time>2023-02-11T12:46:33.000Z</time>
      </trkpt>
      <trkpt lat="41.749549" lon="-2.366125">
        <ele>1058</ele>
        <time>2023-02-11T12:46:34.000Z</time>
      </trkpt>
      <trkpt lat="41.749583" lon="-2.366221">
        <ele>1058</ele>
        <time>2023-02-11T12:46:35.000Z</time>
      </trkpt>
      <trkpt lat="41.749616" lon="-2.366314">
        <ele>1057.8</ele>
        <time>2023-02-11T12:46:36.000Z</time>
      </trkpt>
      <trkpt lat="41.749653" lon="-2.366405">
        <ele>1057.8</ele>
        <time>2023-02-11T12:46:37.000Z</time>
      </trkpt>
      <trkpt lat="41.749689" lon="-2.366499">
        <ele>1057.8</ele>
        <time>2023-02-11T12:46:38.000Z</time>
      </trkpt>
      <trkpt lat="41.749722" lon="-2.366593">
        <ele>1057.8</ele>
        <time>2023-02-11T12:46:39.000Z</time>
      </trkpt>
      <trkpt lat="41.749756" lon="-2.366685">
        <ele>1057.8</ele>
        <time>2023-02-11T12:46:40.000Z</time>
      </trkpt>
      <trkpt lat="41.749791" lon="-2.366775">
        <ele>1058</ele>
        <time>2023-02-11T12:46:41.000Z</time>
      </trkpt>
      <trkpt lat="41.749825" lon="-2.366864">
        <ele>1058</ele>
        <time>2023-02-11T12:46:42.000Z</time>
      </trkpt>
      <trkpt lat="41.749859" lon="-2.366948">
        <ele>1058</ele>
        <time>2023-02-11T12:46:43.000Z</time>
      </trkpt>
      <trkpt lat="41.749893" lon="-2.367036">
        <ele>1058</ele>
        <time>2023-02-11T12:46:44.000Z</time>
      </trkpt>
      <trkpt lat="41.749928" lon="-2.367124">
        <ele>1058.2</ele>
        <time>2023-02-11T12:46:45.000Z</time>
      </trkpt>
      <trkpt lat="41.749963" lon="-2.367213">
        <ele>1058.2</ele>
        <time>2023-02-11T12:46:46.000Z</time>
      </trkpt>
      <trkpt lat="41.749998" lon="-2.3673">
        <ele>1058.2</ele>
        <time>2023-02-11T12:46:47.000Z</time>
      </trkpt>
      <trkpt lat="41.750034" lon="-2.367389">
        <ele>1058.4</ele>
        <time>2023-02-11T12:46:48.000Z</time>
      </trkpt>
      <trkpt lat="41.750071" lon="-2.367479">
        <ele>1058.4</ele>
        <time>2023-02-11T12:46:49.000Z</time>
      </trkpt>
      <trkpt lat="41.750107" lon="-2.367571">
        <ele>1058.4</ele>
        <time>2023-02-11T12:46:50.000Z</time>
      </trkpt>
      <trkpt lat="41.750144" lon="-2.367662">
        <ele>1058.6</ele>
        <time>2023-02-11T12:46:51.000Z</time>
      </trkpt>
      <trkpt lat="41.750182" lon="-2.367755">
        <ele>1058.6</ele>
        <time>2023-02-11T12:46:52.000Z</time>
      </trkpt>
      <trkpt lat="41.750219" lon="-2.367847">
        <ele>1058.8</ele>
        <time>2023-02-11T12:46:53.000Z</time>
      </trkpt>
      <trkpt lat="41.750255" lon="-2.367938">
        <ele>1058.8</ele>
        <time>2023-02-11T12:46:54.000Z</time>
      </trkpt>
      <trkpt lat="41.750291" lon="-2.368031">
        <ele>1058.8</ele>
        <time>2023-02-11T12:46:55.000Z</time>
      </trkpt>
      <trkpt lat="41.750328" lon="-2.368122">
        <ele>1058.8</ele>
        <time>2023-02-11T12:46:56.000Z</time>
      </trkpt>
      <trkpt lat="41.750363" lon="-2.368213">
        <ele>1058.8</ele>
        <time>2023-02-11T12:46:57.000Z</time>
      </trkpt>
      <trkpt lat="41.7504" lon="-2.368302">
        <ele>1058.8</ele>
        <time>2023-02-11T12:46:58.000Z</time>
      </trkpt>
      <trkpt lat="41.750435" lon="-2.368391">
        <ele>1058.8</ele>
        <time>2023-02-11T12:46:59.000Z</time>
      </trkpt>
      <trkpt lat="41.75047" lon="-2.368481">
        <ele>1058.8</ele>
        <time>2023-02-11T12:47:00.000Z</time>
      </trkpt>
      <trkpt lat="41.750505" lon="-2.368571">
        <ele>1058.8</ele>
        <time>2023-02-11T12:47:01.000Z</time>
      </trkpt>
      <trkpt lat="41.75054" lon="-2.368659">
        <ele>1059</ele>
        <time>2023-02-11T12:47:02.000Z</time>
      </trkpt>
      <trkpt lat="41.750574" lon="-2.368748">
        <ele>1059.2</ele>
        <time>2023-02-11T12:47:03.000Z</time>
      </trkpt>
      <trkpt lat="41.750607" lon="-2.368835">
        <ele>1059.4</ele>
        <time>2023-02-11T12:47:04.000Z</time>
      </trkpt>
      <trkpt lat="41.750641" lon="-2.368922">
        <ele>1059.4</ele>
        <time>2023-02-11T12:47:05.000Z</time>
      </trkpt>
      <trkpt lat="41.750672" lon="-2.369008">
        <ele>1059.4</ele>
        <time>2023-02-11T12:47:06.000Z</time>
      </trkpt>
      <trkpt lat="41.750703" lon="-2.369093">
        <ele>1059.6</ele>
        <time>2023-02-11T12:47:07.000Z</time>
      </trkpt>
      <trkpt lat="41.750736" lon="-2.369176">
        <ele>1059.8</ele>
        <time>2023-02-11T12:47:08.000Z</time>
      </trkpt>
      <trkpt lat="41.750769" lon="-2.369257">
        <ele>1060</ele>
        <time>2023-02-11T12:47:09.000Z</time>
      </trkpt>
      <trkpt lat="41.7508" lon="-2.369337">
        <ele>1060.2</ele>
        <time>2023-02-11T12:47:10.000Z</time>
      </trkpt>
      <trkpt lat="41.750831" lon="-2.369419">
        <ele>1060.4</ele>
        <time>2023-02-11T12:47:11.000Z</time>
      </trkpt>
      <trkpt lat="41.750861" lon="-2.369501">
        <ele>1060.6</ele>
        <time>2023-02-11T12:47:12.000Z</time>
      </trkpt>
      <trkpt lat="41.75089" lon="-2.36958">
        <ele>1060.8</ele>
        <time>2023-02-11T12:47:13.000Z</time>
      </trkpt>
      <trkpt lat="41.750919" lon="-2.369656">
        <ele>1061.2</ele>
        <time>2023-02-11T12:47:14.000Z</time>
      </trkpt>
      <trkpt lat="41.75095" lon="-2.369731">
        <ele>1061.4</ele>
        <time>2023-02-11T12:47:15.000Z</time>
      </trkpt>
      <trkpt lat="41.750979" lon="-2.369806">
        <ele>1061.6</ele>
        <time>2023-02-11T12:47:16.000Z</time>
      </trkpt>
      <trkpt lat="41.751009" lon="-2.369881">
        <ele>1062</ele>
        <time>2023-02-11T12:47:17.000Z</time>
      </trkpt>
      <trkpt lat="41.751038" lon="-2.369955">
        <ele>1062.2</ele>
        <time>2023-02-11T12:47:18.000Z</time>
      </trkpt>
      <trkpt lat="41.751066" lon="-2.370028">
        <ele>1062.2</ele>
        <time>2023-02-11T12:47:19.000Z</time>
      </trkpt>
      <trkpt lat="41.751093" lon="-2.3701">
        <ele>1062.4</ele>
        <time>2023-02-11T12:47:20.000Z</time>
      </trkpt>
      <trkpt lat="41.75112" lon="-2.370171">
        <ele>1062.4</ele>
        <time>2023-02-11T12:47:21.000Z</time>
      </trkpt>
      <trkpt lat="41.751149" lon="-2.370244">
        <ele>1063</ele>
        <time>2023-02-11T12:47:22.000Z</time>
      </trkpt>
      <trkpt lat="41.751176" lon="-2.370315">
        <ele>1063</ele>
        <time>2023-02-11T12:47:23.000Z</time>
      </trkpt>
      <trkpt lat="41.751202" lon="-2.370386">
        <ele>1063.2</ele>
        <time>2023-02-11T12:47:24.000Z</time>
      </trkpt>
      <trkpt lat="41.751229" lon="-2.370457">
        <ele>1063.4</ele>
        <time>2023-02-11T12:47:25.000Z</time>
      </trkpt>
      <trkpt lat="41.751256" lon="-2.370526">
        <ele>1063.6</ele>
        <time>2023-02-11T12:47:26.000Z</time>
      </trkpt>
      <trkpt lat="41.751283" lon="-2.370594">
        <ele>1063.6</ele>
        <time>2023-02-11T12:47:27.000Z</time>
      </trkpt>
      <trkpt lat="41.751311" lon="-2.370662">
        <ele>1063.8</ele>
        <time>2023-02-11T12:47:28.000Z</time>
      </trkpt>
      <trkpt lat="41.751337" lon="-2.370731">
        <ele>1064</ele>
        <time>2023-02-11T12:47:29.000Z</time>
      </trkpt>
      <trkpt lat="41.751363" lon="-2.370798">
        <ele>1064.2</ele>
        <time>2023-02-11T12:47:30.000Z</time>
      </trkpt>
      <trkpt lat="41.751387" lon="-2.370863">
        <ele>1064.4</ele>
        <time>2023-02-11T12:47:31.000Z</time>
      </trkpt>
      <trkpt lat="41.751412" lon="-2.370928">
        <ele>1064.6</ele>
        <time>2023-02-11T12:47:32.000Z</time>
      </trkpt>
      <trkpt lat="41.751437" lon="-2.370992">
        <ele>1064.8</ele>
        <time>2023-02-11T12:47:33.000Z</time>
      </trkpt>
      <trkpt lat="41.751462" lon="-2.371056">
        <ele>1064.8</ele>
        <time>2023-02-11T12:47:34.000Z</time>
      </trkpt>
      <trkpt lat="41.751486" lon="-2.371122">
        <ele>1065.2</ele>
        <time>2023-02-11T12:47:35.000Z</time>
      </trkpt>
      <trkpt lat="41.751509" lon="-2.371185">
        <ele>1065.4</ele>
        <time>2023-02-11T12:47:36.000Z</time>
      </trkpt>
      <trkpt lat="41.751535" lon="-2.371247">
        <ele>1065.8</ele>
        <time>2023-02-11T12:47:37.000Z</time>
      </trkpt>
      <trkpt lat="41.751561" lon="-2.371311">
        <ele>1066</ele>
        <time>2023-02-11T12:47:38.000Z</time>
      </trkpt>
      <trkpt lat="41.751587" lon="-2.371375">
        <ele>1066.2</ele>
        <time>2023-02-11T12:47:39.000Z</time>
      </trkpt>
      <trkpt lat="41.751613" lon="-2.371439">
        <ele>1066.6</ele>
        <time>2023-02-11T12:47:40.000Z</time>
      </trkpt>
      <trkpt lat="41.751638" lon="-2.371502">
        <ele>1066.8</ele>
        <time>2023-02-11T12:47:41.000Z</time>
      </trkpt>
      <trkpt lat="41.751663" lon="-2.371563">
        <ele>1066.8</ele>
        <time>2023-02-11T12:47:42.000Z</time>
      </trkpt>
      <trkpt lat="41.751689" lon="-2.371625">
        <ele>1067</ele>
        <time>2023-02-11T12:47:43.000Z</time>
      </trkpt>
      <trkpt lat="41.751714" lon="-2.37169">
        <ele>1067.4</ele>
        <time>2023-02-11T12:47:44.000Z</time>
      </trkpt>
      <trkpt lat="41.751739" lon="-2.371753">
        <ele>1067.6</ele>
        <time>2023-02-11T12:47:45.000Z</time>
      </trkpt>
      <trkpt lat="41.751764" lon="-2.371817">
        <ele>1068</ele>
        <time>2023-02-11T12:47:46.000Z</time>
      </trkpt>
      <trkpt lat="41.75179" lon="-2.371883">
        <ele>1068.2</ele>
        <time>2023-02-11T12:47:47.000Z</time>
      </trkpt>
      <trkpt lat="41.751814" lon="-2.371949">
        <ele>1068.4</ele>
        <time>2023-02-11T12:47:48.000Z</time>
      </trkpt>
      <trkpt lat="41.751839" lon="-2.372015">
        <ele>1068.8</ele>
        <time>2023-02-11T12:47:49.000Z</time>
      </trkpt>
      <trkpt lat="41.751865" lon="-2.372078">
        <ele>1068.8</ele>
        <time>2023-02-11T12:47:50.000Z</time>
      </trkpt>
      <trkpt lat="41.751892" lon="-2.372144">
        <ele>1069</ele>
        <time>2023-02-11T12:47:51.000Z</time>
      </trkpt>
      <trkpt lat="41.751918" lon="-2.372211">
        <ele>1069.2</ele>
        <time>2023-02-11T12:47:52.000Z</time>
      </trkpt>
      <trkpt lat="41.751944" lon="-2.372278">
        <ele>1069.6</ele>
        <time>2023-02-11T12:47:53.000Z</time>
      </trkpt>
      <trkpt lat="41.75197" lon="-2.372345">
        <ele>1069.6</ele>
        <time>2023-02-11T12:47:54.000Z</time>
      </trkpt>
      <trkpt lat="41.751997" lon="-2.372417">
        <ele>1069.8</ele>
        <time>2023-02-11T12:47:55.000Z</time>
      </trkpt>
      <trkpt lat="41.752028" lon="-2.372488">
        <ele>1069.8</ele>
        <time>2023-02-11T12:47:56.000Z</time>
      </trkpt>
      <trkpt lat="41.752059" lon="-2.372566">
        <ele>1069.8</ele>
        <time>2023-02-11T12:47:57.000Z</time>
      </trkpt>
      <trkpt lat="41.752089" lon="-2.372649">
        <ele>1069.8</ele>
        <time>2023-02-11T12:47:58.000Z</time>
      </trkpt>
      <trkpt lat="41.75212" lon="-2.372734">
        <ele>1070</ele>
        <time>2023-02-11T12:47:59.000Z</time>
      </trkpt>
      <trkpt lat="41.752152" lon="-2.372819">
        <ele>1070</ele>
        <time>2023-02-11T12:48:00.000Z</time>
      </trkpt>
      <trkpt lat="41.752183" lon="-2.372906">
        <ele>1070</ele>
        <time>2023-02-11T12:48:01.000Z</time>
      </trkpt>
      <trkpt lat="41.752213" lon="-2.372996">
        <ele>1070.2</ele>
        <time>2023-02-11T12:48:02.000Z</time>
      </trkpt>
      <trkpt lat="41.752244" lon="-2.373089">
        <ele>1070.2</ele>
        <time>2023-02-11T12:48:03.000Z</time>
      </trkpt>
      <trkpt lat="41.752274" lon="-2.373183">
        <ele>1070.2</ele>
        <time>2023-02-11T12:48:04.000Z</time>
      </trkpt>
      <trkpt lat="41.752304" lon="-2.373282">
        <ele>1070.2</ele>
        <time>2023-02-11T12:48:05.000Z</time>
      </trkpt>
      <trkpt lat="41.752334" lon="-2.373384">
        <ele>1070.2</ele>
        <time>2023-02-11T12:48:06.000Z</time>
      </trkpt>
      <trkpt lat="41.752366" lon="-2.37349">
        <ele>1070.2</ele>
        <time>2023-02-11T12:48:07.000Z</time>
      </trkpt>
      <trkpt lat="41.752398" lon="-2.373598">
        <ele>1070.2</ele>
        <time>2023-02-11T12:48:08.000Z</time>
      </trkpt>
      <trkpt lat="41.752429" lon="-2.373707">
        <ele>1070</ele>
        <time>2023-02-11T12:48:09.000Z</time>
      </trkpt>
      <trkpt lat="41.752459" lon="-2.373819">
        <ele>1070</ele>
        <time>2023-02-11T12:48:10.000Z</time>
      </trkpt>
      <trkpt lat="41.752491" lon="-2.373933">
        <ele>1069.8</ele>
        <time>2023-02-11T12:48:11.000Z</time>
      </trkpt>
      <trkpt lat="41.752524" lon="-2.374048">
        <ele>1069.8</ele>
        <time>2023-02-11T12:48:12.000Z</time>
      </trkpt>
      <trkpt lat="41.752558" lon="-2.374162">
        <ele>1069.8</ele>
        <time>2023-02-11T12:48:13.000Z</time>
      </trkpt>
      <trkpt lat="41.752591" lon="-2.374277">
        <ele>1069.8</ele>
        <time>2023-02-11T12:48:14.000Z</time>
      </trkpt>
      <trkpt lat="41.752624" lon="-2.374391">
        <ele>1069.6</ele>
        <time>2023-02-11T12:48:15.000Z</time>
      </trkpt>
      <trkpt lat="41.752659" lon="-2.374503">
        <ele>1069.6</ele>
        <time>2023-02-11T12:48:16.000Z</time>
      </trkpt>
      <trkpt lat="41.752693" lon="-2.374614">
        <ele>1069.4</ele>
        <time>2023-02-11T12:48:17.000Z</time>
      </trkpt>
      <trkpt lat="41.752726" lon="-2.374725">
        <ele>1069.2</ele>
        <time>2023-02-11T12:48:18.000Z</time>
      </trkpt>
      <trkpt lat="41.752759" lon="-2.374835">
        <ele>1069</ele>
        <time>2023-02-11T12:48:19.000Z</time>
      </trkpt>
      <trkpt lat="41.75279" lon="-2.374947">
        <ele>1069</ele>
        <time>2023-02-11T12:48:20.000Z</time>
      </trkpt>
      <trkpt lat="41.752821" lon="-2.37506">
        <ele>1068.8</ele>
        <time>2023-02-11T12:48:21.000Z</time>
      </trkpt>
      <trkpt lat="41.752853" lon="-2.375172">
        <ele>1068.6</ele>
        <time>2023-02-11T12:48:22.000Z</time>
      </trkpt>
      <trkpt lat="41.752887" lon="-2.375284">
        <ele>1068.6</ele>
        <time>2023-02-11T12:48:23.000Z</time>
      </trkpt>
      <trkpt lat="41.752922" lon="-2.375398">
        <ele>1068.4</ele>
        <time>2023-02-11T12:48:24.000Z</time>
      </trkpt>
      <trkpt lat="41.752958" lon="-2.37551">
        <ele>1068.4</ele>
        <time>2023-02-11T12:48:25.000Z</time>
      </trkpt>
      <trkpt lat="41.752993" lon="-2.375623">
        <ele>1068.4</ele>
        <time>2023-02-11T12:48:26.000Z</time>
      </trkpt>
      <trkpt lat="41.753027" lon="-2.375737">
        <ele>1068.4</ele>
        <time>2023-02-11T12:48:27.000Z</time>
      </trkpt>
      <trkpt lat="41.75306" lon="-2.375851">
        <ele>1068.2</ele>
        <time>2023-02-11T12:48:28.000Z</time>
      </trkpt>
      <trkpt lat="41.753094" lon="-2.375963">
        <ele>1068</ele>
        <time>2023-02-11T12:48:29.000Z</time>
      </trkpt>
      <trkpt lat="41.753126" lon="-2.376074">
        <ele>1067.8</ele>
        <time>2023-02-11T12:48:30.000Z</time>
      </trkpt>
      <trkpt lat="41.753159" lon="-2.376185">
        <ele>1067.6</ele>
        <time>2023-02-11T12:48:31.000Z</time>
      </trkpt>
      <trkpt lat="41.753194" lon="-2.376293">
        <ele>1067.6</ele>
        <time>2023-02-11T12:48:32.000Z</time>
      </trkpt>
      <trkpt lat="41.753228" lon="-2.376399">
        <ele>1067.6</ele>
        <time>2023-02-11T12:48:33.000Z</time>
      </trkpt>
      <trkpt lat="41.75326" lon="-2.376504">
        <ele>1067.6</ele>
        <time>2023-02-11T12:48:34.000Z</time>
      </trkpt>
      <trkpt lat="41.753291" lon="-2.376607">
        <ele>1067.4</ele>
        <time>2023-02-11T12:48:35.000Z</time>
      </trkpt>
      <trkpt lat="41.753318" lon="-2.376705">
        <ele>1067.4</ele>
        <time>2023-02-11T12:48:36.000Z</time>
      </trkpt>
      <trkpt lat="41.753347" lon="-2.376805">
        <ele>1067.2</ele>
        <time>2023-02-11T12:48:37.000Z</time>
      </trkpt>
      <trkpt lat="41.753378" lon="-2.376901">
        <ele>1067.2</ele>
        <time>2023-02-11T12:48:38.000Z</time>
      </trkpt>
      <trkpt lat="41.753408" lon="-2.376998">
        <ele>1067.2</ele>
        <time>2023-02-11T12:48:39.000Z</time>
      </trkpt>
      <trkpt lat="41.753438" lon="-2.377096">
        <ele>1067.4</ele>
        <time>2023-02-11T12:48:40.000Z</time>
      </trkpt>
      <trkpt lat="41.753467" lon="-2.377193">
        <ele>1067.6</ele>
        <time>2023-02-11T12:48:41.000Z</time>
      </trkpt>
      <trkpt lat="41.753493" lon="-2.377291">
        <ele>1067.8</ele>
        <time>2023-02-11T12:48:42.000Z</time>
      </trkpt>
      <trkpt lat="41.753521" lon="-2.377388">
        <ele>1067.8</ele>
        <time>2023-02-11T12:48:43.000Z</time>
      </trkpt>
      <trkpt lat="41.753549" lon="-2.377485">
        <ele>1067.8</ele>
        <time>2023-02-11T12:48:44.000Z</time>
      </trkpt>
      <trkpt lat="41.753575" lon="-2.377581">
        <ele>1067.8</ele>
        <time>2023-02-11T12:48:45.000Z</time>
      </trkpt>
      <trkpt lat="41.7536" lon="-2.377674">
        <ele>1067.8</ele>
        <time>2023-02-11T12:48:46.000Z</time>
      </trkpt>
      <trkpt lat="41.753626" lon="-2.377764">
        <ele>1067.8</ele>
        <time>2023-02-11T12:48:47.000Z</time>
      </trkpt>
      <trkpt lat="41.753652" lon="-2.377853">
        <ele>1067.8</ele>
        <time>2023-02-11T12:48:48.000Z</time>
      </trkpt>
      <trkpt lat="41.753677" lon="-2.377942">
        <ele>1068</ele>
        <time>2023-02-11T12:48:49.000Z</time>
      </trkpt>
      <trkpt lat="41.753701" lon="-2.378031">
        <ele>1068.2</ele>
        <time>2023-02-11T12:48:50.000Z</time>
      </trkpt>
      <trkpt lat="41.753725" lon="-2.378118">
        <ele>1068.4</ele>
        <time>2023-02-11T12:48:51.000Z</time>
      </trkpt>
      <trkpt lat="41.753751" lon="-2.378202">
        <ele>1068.6</ele>
        <time>2023-02-11T12:48:52.000Z</time>
      </trkpt>
      <trkpt lat="41.753777" lon="-2.378286">
        <ele>1068.6</ele>
        <time>2023-02-11T12:48:53.000Z</time>
      </trkpt>
      <trkpt lat="41.753801" lon="-2.378371">
        <ele>1068.8</ele>
        <time>2023-02-11T12:48:54.000Z</time>
      </trkpt>
      <trkpt lat="41.753823" lon="-2.378453">
        <ele>1069</ele>
        <time>2023-02-11T12:48:55.000Z</time>
      </trkpt>
      <trkpt lat="41.753848" lon="-2.378536">
        <ele>1069.2</ele>
        <time>2023-02-11T12:48:56.000Z</time>
      </trkpt>
      <trkpt lat="41.753871" lon="-2.378617">
        <ele>1069.4</ele>
        <time>2023-02-11T12:48:57.000Z</time>
      </trkpt>
      <trkpt lat="41.753893" lon="-2.378697">
        <ele>1069.6</ele>
        <time>2023-02-11T12:48:58.000Z</time>
      </trkpt>
      <trkpt lat="41.753915" lon="-2.37878">
        <ele>1069.6</ele>
        <time>2023-02-11T12:48:59.000Z</time>
      </trkpt>
      <trkpt lat="41.753937" lon="-2.37886">
        <ele>1069.8</ele>
        <time>2023-02-11T12:49:00.000Z</time>
      </trkpt>
      <trkpt lat="41.753958" lon="-2.378939">
        <ele>1069.8</ele>
        <time>2023-02-11T12:49:01.000Z</time>
      </trkpt>
      <trkpt lat="41.75398" lon="-2.379016">
        <ele>1069.8</ele>
        <time>2023-02-11T12:49:02.000Z</time>
      </trkpt>
      <trkpt lat="41.754002" lon="-2.379093">
        <ele>1070</ele>
        <time>2023-02-11T12:49:03.000Z</time>
      </trkpt>
      <trkpt lat="41.754024" lon="-2.379171">
        <ele>1070.2</ele>
        <time>2023-02-11T12:49:04.000Z</time>
      </trkpt>
      <trkpt lat="41.754049" lon="-2.379249">
        <ele>1070.2</ele>
        <time>2023-02-11T12:49:05.000Z</time>
      </trkpt>
      <trkpt lat="41.754072" lon="-2.379327">
        <ele>1070.4</ele>
        <time>2023-02-11T12:49:06.000Z</time>
      </trkpt>
      <trkpt lat="41.754097" lon="-2.379402">
        <ele>1070.6</ele>
        <time>2023-02-11T12:49:07.000Z</time>
      </trkpt>
      <trkpt lat="41.754119" lon="-2.379477">
        <ele>1070.6</ele>
        <time>2023-02-11T12:49:08.000Z</time>
      </trkpt>
      <trkpt lat="41.754141" lon="-2.379553">
        <ele>1070.8</ele>
        <time>2023-02-11T12:49:09.000Z</time>
      </trkpt>
      <trkpt lat="41.754166" lon="-2.379629">
        <ele>1070.8</ele>
        <time>2023-02-11T12:49:10.000Z</time>
      </trkpt>
      <trkpt lat="41.75419" lon="-2.379706">
        <ele>1071</ele>
        <time>2023-02-11T12:49:11.000Z</time>
      </trkpt>
      <trkpt lat="41.754211" lon="-2.379784">
        <ele>1071</ele>
        <time>2023-02-11T12:49:12.000Z</time>
      </trkpt>
      <trkpt lat="41.754231" lon="-2.379861">
        <ele>1071.6</ele>
        <time>2023-02-11T12:49:13.000Z</time>
      </trkpt>
      <trkpt lat="41.754251" lon="-2.379937">
        <ele>1071.6</ele>
        <time>2023-02-11T12:49:14.000Z</time>
      </trkpt>
      <trkpt lat="41.754272" lon="-2.380014">
        <ele>1071.8</ele>
        <time>2023-02-11T12:49:15.000Z</time>
      </trkpt>
      <trkpt lat="41.754293" lon="-2.380094">
        <ele>1072.2</ele>
        <time>2023-02-11T12:49:16.000Z</time>
      </trkpt>
      <trkpt lat="41.754316" lon="-2.380174">
        <ele>1072.2</ele>
        <time>2023-02-11T12:49:17.000Z</time>
      </trkpt>
      <trkpt lat="41.754341" lon="-2.380253">
        <ele>1072.4</ele>
        <time>2023-02-11T12:49:18.000Z</time>
      </trkpt>
      <trkpt lat="41.754368" lon="-2.380329">
        <ele>1072.6</ele>
        <time>2023-02-11T12:49:19.000Z</time>
      </trkpt>
      <trkpt lat="41.754393" lon="-2.380405">
        <ele>1072.6</ele>
        <time>2023-02-11T12:49:20.000Z</time>
      </trkpt>
      <trkpt lat="41.754418" lon="-2.380482">
        <ele>1072.6</ele>
        <time>2023-02-11T12:49:21.000Z</time>
      </trkpt>
      <trkpt lat="41.754445" lon="-2.380562">
        <ele>1072.6</ele>
        <time>2023-02-11T12:49:22.000Z</time>
      </trkpt>
      <trkpt lat="41.754469" lon="-2.380642">
        <ele>1072.6</ele>
        <time>2023-02-11T12:49:23.000Z</time>
      </trkpt>
      <trkpt lat="41.754492" lon="-2.380722">
        <ele>1072.8</ele>
        <time>2023-02-11T12:49:24.000Z</time>
      </trkpt>
      <trkpt lat="41.754514" lon="-2.380798">
        <ele>1073</ele>
        <time>2023-02-11T12:49:25.000Z</time>
      </trkpt>
      <trkpt lat="41.754536" lon="-2.380874">
        <ele>1073.2</ele>
        <time>2023-02-11T12:49:26.000Z</time>
      </trkpt>
      <trkpt lat="41.754557" lon="-2.380953">
        <ele>1073.4</ele>
        <time>2023-02-11T12:49:27.000Z</time>
      </trkpt>
      <trkpt lat="41.754579" lon="-2.381032">
        <ele>1073.6</ele>
        <time>2023-02-11T12:49:28.000Z</time>
      </trkpt>
      <trkpt lat="41.754603" lon="-2.381111">
        <ele>1073.8</ele>
        <time>2023-02-11T12:49:29.000Z</time>
      </trkpt>
      <trkpt lat="41.754627" lon="-2.38119">
        <ele>1074</ele>
        <time>2023-02-11T12:49:30.000Z</time>
      </trkpt>
      <trkpt lat="41.75465" lon="-2.381266">
        <ele>1074.2</ele>
        <time>2023-02-11T12:49:31.000Z</time>
      </trkpt>
      <trkpt lat="41.754674" lon="-2.381341">
        <ele>1074.2</ele>
        <time>2023-02-11T12:49:32.000Z</time>
      </trkpt>
      <trkpt lat="41.754697" lon="-2.381416">
        <ele>1074.4</ele>
        <time>2023-02-11T12:49:33.000Z</time>
      </trkpt>
      <trkpt lat="41.754721" lon="-2.381495">
        <ele>1074.4</ele>
        <time>2023-02-11T12:49:34.000Z</time>
      </trkpt>
      <trkpt lat="41.754743" lon="-2.381576">
        <ele>1074.8</ele>
        <time>2023-02-11T12:49:35.000Z</time>
      </trkpt>
      <trkpt lat="41.754762" lon="-2.381656">
        <ele>1075.2</ele>
        <time>2023-02-11T12:49:36.000Z</time>
      </trkpt>
      <trkpt lat="41.754784" lon="-2.381733">
        <ele>1075.2</ele>
        <time>2023-02-11T12:49:37.000Z</time>
      </trkpt>
      <trkpt lat="41.754804" lon="-2.38181">
        <ele>1075.6</ele>
        <time>2023-02-11T12:49:38.000Z</time>
      </trkpt>
      <trkpt lat="41.754823" lon="-2.381887">
        <ele>1075.6</ele>
        <time>2023-02-11T12:49:39.000Z</time>
      </trkpt>
      <trkpt lat="41.754841" lon="-2.381964">
        <ele>1075.8</ele>
        <time>2023-02-11T12:49:40.000Z</time>
      </trkpt>
      <trkpt lat="41.754861" lon="-2.38204">
        <ele>1075.8</ele>
        <time>2023-02-11T12:49:41.000Z</time>
      </trkpt>
      <trkpt lat="41.754882" lon="-2.382116">
        <ele>1075.8</ele>
        <time>2023-02-11T12:49:42.000Z</time>
      </trkpt>
      <trkpt lat="41.754905" lon="-2.382191">
        <ele>1076</ele>
        <time>2023-02-11T12:49:43.000Z</time>
      </trkpt>
      <trkpt lat="41.754928" lon="-2.382265">
        <ele>1076</ele>
        <time>2023-02-11T12:49:44.000Z</time>
      </trkpt>
      <trkpt lat="41.754952" lon="-2.382341">
        <ele>1076.2</ele>
        <time>2023-02-11T12:49:45.000Z</time>
      </trkpt>
      <trkpt lat="41.754976" lon="-2.382416">
        <ele>1076.2</ele>
        <time>2023-02-11T12:49:46.000Z</time>
      </trkpt>
      <trkpt lat="41.754999" lon="-2.38249">
        <ele>1076.6</ele>
        <time>2023-02-11T12:49:47.000Z</time>
      </trkpt>
      <trkpt lat="41.755022" lon="-2.382565">
        <ele>1076.8</ele>
        <time>2023-02-11T12:49:48.000Z</time>
      </trkpt>
      <trkpt lat="41.755046" lon="-2.382638">
        <ele>1077.2</ele>
        <time>2023-02-11T12:49:49.000Z</time>
      </trkpt>
      <trkpt lat="41.755068" lon="-2.382711">
        <ele>1077.4</ele>
        <time>2023-02-11T12:49:50.000Z</time>
      </trkpt>
      <trkpt lat="41.755087" lon="-2.382783">
        <ele>1077.6</ele>
        <time>2023-02-11T12:49:51.000Z</time>
      </trkpt>
      <trkpt lat="41.755106" lon="-2.382855">
        <ele>1077.6</ele>
        <time>2023-02-11T12:49:52.000Z</time>
      </trkpt>
      <trkpt lat="41.755127" lon="-2.382928">
        <ele>1077.8</ele>
        <time>2023-02-11T12:49:53.000Z</time>
      </trkpt>
      <trkpt lat="41.755151" lon="-2.383">
        <ele>1078</ele>
        <time>2023-02-11T12:49:54.000Z</time>
      </trkpt>
      <trkpt lat="41.755176" lon="-2.383073">
        <ele>1078.2</ele>
        <time>2023-02-11T12:49:55.000Z</time>
      </trkpt>
      <trkpt lat="41.7552" lon="-2.383146">
        <ele>1078.4</ele>
        <time>2023-02-11T12:49:56.000Z</time>
      </trkpt>
      <trkpt lat="41.755223" lon="-2.383217">
        <ele>1078.6</ele>
        <time>2023-02-11T12:49:57.000Z</time>
      </trkpt>
      <trkpt lat="41.755243" lon="-2.38329">
        <ele>1078.8</ele>
        <time>2023-02-11T12:49:58.000Z</time>
      </trkpt>
      <trkpt lat="41.755266" lon="-2.383366">
        <ele>1079</ele>
        <time>2023-02-11T12:49:59.000Z</time>
      </trkpt>
      <trkpt lat="41.755284" lon="-2.383442">
        <ele>1079</ele>
        <time>2023-02-11T12:50:00.000Z</time>
      </trkpt>
      <trkpt lat="41.755303" lon="-2.383518">
        <ele>1079.2</ele>
        <time>2023-02-11T12:50:01.000Z</time>
      </trkpt>
      <trkpt lat="41.755323" lon="-2.383594">
        <ele>1079.2</ele>
        <time>2023-02-11T12:50:02.000Z</time>
      </trkpt>
      <trkpt lat="41.75534" lon="-2.38367">
        <ele>1079.2</ele>
        <time>2023-02-11T12:50:03.000Z</time>
      </trkpt>
      <trkpt lat="41.75536" lon="-2.383744">
        <ele>1079.6</ele>
        <time>2023-02-11T12:50:04.000Z</time>
      </trkpt>
      <trkpt lat="41.755376" lon="-2.383819">
        <ele>1079.8</ele>
        <time>2023-02-11T12:50:05.000Z</time>
      </trkpt>
      <trkpt lat="41.755395" lon="-2.383897">
        <ele>1080</ele>
        <time>2023-02-11T12:50:06.000Z</time>
      </trkpt>
      <trkpt lat="41.755413" lon="-2.383974">
        <ele>1080.4</ele>
        <time>2023-02-11T12:50:07.000Z</time>
      </trkpt>
      <trkpt lat="41.755436" lon="-2.384049">
        <ele>1080.4</ele>
        <time>2023-02-11T12:50:08.000Z</time>
      </trkpt>
      <trkpt lat="41.755456" lon="-2.384122">
        <ele>1080.8</ele>
        <time>2023-02-11T12:50:09.000Z</time>
      </trkpt>
      <trkpt lat="41.755473" lon="-2.384198">
        <ele>1081</ele>
        <time>2023-02-11T12:50:10.000Z</time>
      </trkpt>
      <trkpt lat="41.755485" lon="-2.384274">
        <ele>1081.2</ele>
        <time>2023-02-11T12:50:11.000Z</time>
      </trkpt>
      <trkpt lat="41.755503" lon="-2.384346">
        <ele>1081.2</ele>
        <time>2023-02-11T12:50:12.000Z</time>
      </trkpt>
      <trkpt lat="41.75552" lon="-2.384419">
        <ele>1081.4</ele>
        <time>2023-02-11T12:50:13.000Z</time>
      </trkpt>
      <trkpt lat="41.755541" lon="-2.384489">
        <ele>1081.6</ele>
        <time>2023-02-11T12:50:14.000Z</time>
      </trkpt>
      <trkpt lat="41.755563" lon="-2.38456">
        <ele>1081.6</ele>
        <time>2023-02-11T12:50:15.000Z</time>
      </trkpt>
      <trkpt lat="41.755582" lon="-2.384633">
        <ele>1081.8</ele>
        <time>2023-02-11T12:50:16.000Z</time>
      </trkpt>
      <trkpt lat="41.755603" lon="-2.384706">
        <ele>1082</ele>
        <time>2023-02-11T12:50:17.000Z</time>
      </trkpt>
      <trkpt lat="41.755623" lon="-2.38478">
        <ele>1082.6</ele>
        <time>2023-02-11T12:50:18.000Z</time>
      </trkpt>
      <trkpt lat="41.755645" lon="-2.384852">
        <ele>1082.6</ele>
        <time>2023-02-11T12:50:19.000Z</time>
      </trkpt>
      <trkpt lat="41.755666" lon="-2.384923">
        <ele>1083</ele>
        <time>2023-02-11T12:50:20.000Z</time>
      </trkpt>
      <trkpt lat="41.755686" lon="-2.384994">
        <ele>1083.2</ele>
        <time>2023-02-11T12:50:21.000Z</time>
      </trkpt>
      <trkpt lat="41.755705" lon="-2.385062">
        <ele>1083.4</ele>
        <time>2023-02-11T12:50:22.000Z</time>
      </trkpt>
      <trkpt lat="41.755725" lon="-2.385129">
        <ele>1083.8</ele>
        <time>2023-02-11T12:50:23.000Z</time>
      </trkpt>
      <trkpt lat="41.755744" lon="-2.385194">
        <ele>1084</ele>
        <time>2023-02-11T12:50:24.000Z</time>
      </trkpt>
      <trkpt lat="41.755763" lon="-2.385259">
        <ele>1084.2</ele>
        <time>2023-02-11T12:50:25.000Z</time>
      </trkpt>
      <trkpt lat="41.755781" lon="-2.385326">
        <ele>1084.4</ele>
        <time>2023-02-11T12:50:26.000Z</time>
      </trkpt>
      <trkpt lat="41.7558" lon="-2.38539">
        <ele>1084.6</ele>
        <time>2023-02-11T12:50:27.000Z</time>
      </trkpt>
      <trkpt lat="41.755819" lon="-2.385455">
        <ele>1084.6</ele>
        <time>2023-02-11T12:50:28.000Z</time>
      </trkpt>
      <trkpt lat="41.755835" lon="-2.38552">
        <ele>1084.8</ele>
        <time>2023-02-11T12:50:29.000Z</time>
      </trkpt>
      <trkpt lat="41.755855" lon="-2.385585">
        <ele>1085</ele>
        <time>2023-02-11T12:50:30.000Z</time>
      </trkpt>
      <trkpt lat="41.755876" lon="-2.385649">
        <ele>1085.2</ele>
        <time>2023-02-11T12:50:31.000Z</time>
      </trkpt>
      <trkpt lat="41.755896" lon="-2.385716">
        <ele>1085.4</ele>
        <time>2023-02-11T12:50:32.000Z</time>
      </trkpt>
      <trkpt lat="41.755917" lon="-2.385786">
        <ele>1085.6</ele>
        <time>2023-02-11T12:50:33.000Z</time>
      </trkpt>
      <trkpt lat="41.755938" lon="-2.385854">
        <ele>1085.8</ele>
        <time>2023-02-11T12:50:34.000Z</time>
      </trkpt>
      <trkpt lat="41.755958" lon="-2.385925">
        <ele>1086</ele>
        <time>2023-02-11T12:50:35.000Z</time>
      </trkpt>
      <trkpt lat="41.755977" lon="-2.385996">
        <ele>1086</ele>
        <time>2023-02-11T12:50:36.000Z</time>
      </trkpt>
      <trkpt lat="41.756" lon="-2.386067">
        <ele>1086.2</ele>
        <time>2023-02-11T12:50:37.000Z</time>
      </trkpt>
      <trkpt lat="41.756021" lon="-2.386139">
        <ele>1086.4</ele>
        <time>2023-02-11T12:50:38.000Z</time>
      </trkpt>
      <trkpt lat="41.756041" lon="-2.38621">
        <ele>1086.6</ele>
        <time>2023-02-11T12:50:39.000Z</time>
      </trkpt>
      <trkpt lat="41.756059" lon="-2.386281">
        <ele>1086.8</ele>
        <time>2023-02-11T12:50:40.000Z</time>
      </trkpt>
      <trkpt lat="41.75608" lon="-2.386353">
        <ele>1086.8</ele>
        <time>2023-02-11T12:50:41.000Z</time>
      </trkpt>
      <trkpt lat="41.756104" lon="-2.386424">
        <ele>1087</ele>
        <time>2023-02-11T12:50:42.000Z</time>
      </trkpt>
      <trkpt lat="41.756124" lon="-2.386498">
        <ele>1087.4</ele>
        <time>2023-02-11T12:50:43.000Z</time>
      </trkpt>
      <trkpt lat="41.756145" lon="-2.386574">
        <ele>1087.6</ele>
        <time>2023-02-11T12:50:44.000Z</time>
      </trkpt>
      <trkpt lat="41.756168" lon="-2.38665">
        <ele>1088</ele>
        <time>2023-02-11T12:50:45.000Z</time>
      </trkpt>
      <trkpt lat="41.75619" lon="-2.386727">
        <ele>1088</ele>
        <time>2023-02-11T12:50:46.000Z</time>
      </trkpt>
      <trkpt lat="41.756212" lon="-2.386807">
        <ele>1088.2</ele>
        <time>2023-02-11T12:50:47.000Z</time>
      </trkpt>
      <trkpt lat="41.756233" lon="-2.386889">
        <ele>1088.2</ele>
        <time>2023-02-11T12:50:48.000Z</time>
      </trkpt>
      <trkpt lat="41.756257" lon="-2.386969">
        <ele>1088.4</ele>
        <time>2023-02-11T12:50:49.000Z</time>
      </trkpt>
      <trkpt lat="41.756283" lon="-2.38705">
        <ele>1088.4</ele>
        <time>2023-02-11T12:50:50.000Z</time>
      </trkpt>
      <trkpt lat="41.756307" lon="-2.387134">
        <ele>1088.6</ele>
        <time>2023-02-11T12:50:51.000Z</time>
      </trkpt>
      <trkpt lat="41.75633" lon="-2.38722">
        <ele>1088.6</ele>
        <time>2023-02-11T12:50:52.000Z</time>
      </trkpt>
      <trkpt lat="41.756353" lon="-2.387307">
        <ele>1088.6</ele>
        <time>2023-02-11T12:50:53.000Z</time>
      </trkpt>
      <trkpt lat="41.756378" lon="-2.387393">
        <ele>1088.6</ele>
        <time>2023-02-11T12:50:54.000Z</time>
      </trkpt>
      <trkpt lat="41.756406" lon="-2.387478">
        <ele>1088.6</ele>
        <time>2023-02-11T12:50:55.000Z</time>
      </trkpt>
      <trkpt lat="41.756433" lon="-2.387567">
        <ele>1088.8</ele>
        <time>2023-02-11T12:50:56.000Z</time>
      </trkpt>
      <trkpt lat="41.756461" lon="-2.387659">
        <ele>1088.8</ele>
        <time>2023-02-11T12:50:57.000Z</time>
      </trkpt>
      <trkpt lat="41.756488" lon="-2.387751">
        <ele>1088.8</ele>
        <time>2023-02-11T12:50:58.000Z</time>
      </trkpt>
      <trkpt lat="41.756514" lon="-2.387844">
        <ele>1088.8</ele>
        <time>2023-02-11T12:50:59.000Z</time>
      </trkpt>
      <trkpt lat="41.75654" lon="-2.387935">
        <ele>1088.8</ele>
        <time>2023-02-11T12:51:00.000Z</time>
      </trkpt>
      <trkpt lat="41.756565" lon="-2.388026">
        <ele>1088.8</ele>
        <time>2023-02-11T12:51:01.000Z</time>
      </trkpt>
      <trkpt lat="41.75659" lon="-2.388117">
        <ele>1088.8</ele>
        <time>2023-02-11T12:51:02.000Z</time>
      </trkpt>
      <trkpt lat="41.756618" lon="-2.388205">
        <ele>1089</ele>
        <time>2023-02-11T12:51:03.000Z</time>
      </trkpt>
      <trkpt lat="41.756645" lon="-2.388294">
        <ele>1089</ele>
        <time>2023-02-11T12:51:04.000Z</time>
      </trkpt>
      <trkpt lat="41.756669" lon="-2.388384">
        <ele>1089</ele>
        <time>2023-02-11T12:51:05.000Z</time>
      </trkpt>
      <trkpt lat="41.756696" lon="-2.38847">
        <ele>1089</ele>
        <time>2023-02-11T12:51:06.000Z</time>
      </trkpt>
      <trkpt lat="41.756718" lon="-2.388557">
        <ele>1089.2</ele>
        <time>2023-02-11T12:51:07.000Z</time>
      </trkpt>
      <trkpt lat="41.756742" lon="-2.388641">
        <ele>1089.2</ele>
        <time>2023-02-11T12:51:08.000Z</time>
      </trkpt>
      <trkpt lat="41.756765" lon="-2.388725">
        <ele>1089.4</ele>
        <time>2023-02-11T12:51:09.000Z</time>
      </trkpt>
      <trkpt lat="41.75679" lon="-2.388805">
        <ele>1089.4</ele>
        <time>2023-02-11T12:51:10.000Z</time>
      </trkpt>
      <trkpt lat="41.756812" lon="-2.388885">
        <ele>1089.6</ele>
        <time>2023-02-11T12:51:11.000Z</time>
      </trkpt>
      <trkpt lat="41.756837" lon="-2.388963">
        <ele>1089.8</ele>
        <time>2023-02-11T12:51:12.000Z</time>
      </trkpt>
      <trkpt lat="41.756861" lon="-2.38904">
        <ele>1090</ele>
        <time>2023-02-11T12:51:13.000Z</time>
      </trkpt>
      <trkpt lat="41.756884" lon="-2.389116">
        <ele>1090.2</ele>
        <time>2023-02-11T12:51:14.000Z</time>
      </trkpt>
      <trkpt lat="41.756903" lon="-2.389194">
        <ele>1090.4</ele>
        <time>2023-02-11T12:51:15.000Z</time>
      </trkpt>
      <trkpt lat="41.756925" lon="-2.38927">
        <ele>1090.6</ele>
        <time>2023-02-11T12:51:16.000Z</time>
      </trkpt>
      <trkpt lat="41.756947" lon="-2.389345">
        <ele>1090.8</ele>
        <time>2023-02-11T12:51:17.000Z</time>
      </trkpt>
      <trkpt lat="41.756967" lon="-2.389418">
        <ele>1091</ele>
        <time>2023-02-11T12:51:18.000Z</time>
      </trkpt>
      <trkpt lat="41.756986" lon="-2.389492">
        <ele>1091.2</ele>
        <time>2023-02-11T12:51:19.000Z</time>
      </trkpt>
      <trkpt lat="41.757006" lon="-2.389564">
        <ele>1091.8</ele>
        <time>2023-02-11T12:51:20.000Z</time>
      </trkpt>
      <trkpt lat="41.757027" lon="-2.389636">
        <ele>1092.2</ele>
        <time>2023-02-11T12:51:21.000Z</time>
      </trkpt>
      <trkpt lat="41.757049" lon="-2.389709">
        <ele>1092.4</ele>
        <time>2023-02-11T12:51:22.000Z</time>
      </trkpt>
      <trkpt lat="41.757072" lon="-2.389784">
        <ele>1092.8</ele>
        <time>2023-02-11T12:51:23.000Z</time>
      </trkpt>
      <trkpt lat="41.757095" lon="-2.389858">
        <ele>1093</ele>
        <time>2023-02-11T12:51:24.000Z</time>
      </trkpt>
      <trkpt lat="41.757116" lon="-2.389934">
        <ele>1093.2</ele>
        <time>2023-02-11T12:51:25.000Z</time>
      </trkpt>
      <trkpt lat="41.757136" lon="-2.39001">
        <ele>1093.2</ele>
        <time>2023-02-11T12:51:26.000Z</time>
      </trkpt>
      <trkpt lat="41.757156" lon="-2.390085">
        <ele>1093.6</ele>
        <time>2023-02-11T12:51:27.000Z</time>
      </trkpt>
      <trkpt lat="41.757177" lon="-2.390161">
        <ele>1093.8</ele>
        <time>2023-02-11T12:51:28.000Z</time>
      </trkpt>
      <trkpt lat="41.757201" lon="-2.39024">
        <ele>1094</ele>
        <time>2023-02-11T12:51:29.000Z</time>
      </trkpt>
      <trkpt lat="41.757228" lon="-2.390316">
        <ele>1094.2</ele>
        <time>2023-02-11T12:51:30.000Z</time>
      </trkpt>
      <trkpt lat="41.757252" lon="-2.390395">
        <ele>1094.4</ele>
        <time>2023-02-11T12:51:31.000Z</time>
      </trkpt>
      <trkpt lat="41.757274" lon="-2.390475">
        <ele>1094.8</ele>
        <time>2023-02-11T12:51:32.000Z</time>
      </trkpt>
      <trkpt lat="41.757294" lon="-2.390554">
        <ele>1094.8</ele>
        <time>2023-02-11T12:51:33.000Z</time>
      </trkpt>
      <trkpt lat="41.757316" lon="-2.390634">
        <ele>1095</ele>
        <time>2023-02-11T12:51:34.000Z</time>
      </trkpt>
      <trkpt lat="41.75734" lon="-2.390715">
        <ele>1095.2</ele>
        <time>2023-02-11T12:51:35.000Z</time>
      </trkpt>
      <trkpt lat="41.757364" lon="-2.390798">
        <ele>1095.6</ele>
        <time>2023-02-11T12:51:36.000Z</time>
      </trkpt>
      <trkpt lat="41.757386" lon="-2.39088">
        <ele>1095.6</ele>
        <time>2023-02-11T12:51:37.000Z</time>
      </trkpt>
      <trkpt lat="41.75741" lon="-2.390963">
        <ele>1095.8</ele>
        <time>2023-02-11T12:51:38.000Z</time>
      </trkpt>
      <trkpt lat="41.757435" lon="-2.391043">
        <ele>1095.8</ele>
        <time>2023-02-11T12:51:39.000Z</time>
      </trkpt>
      <trkpt lat="41.75746" lon="-2.391123">
        <ele>1096.2</ele>
        <time>2023-02-11T12:51:40.000Z</time>
      </trkpt>
      <trkpt lat="41.757483" lon="-2.391205">
        <ele>1096.4</ele>
        <time>2023-02-11T12:51:41.000Z</time>
      </trkpt>
      <trkpt lat="41.757508" lon="-2.391287">
        <ele>1096.6</ele>
        <time>2023-02-11T12:51:42.000Z</time>
      </trkpt>
      <trkpt lat="41.757531" lon="-2.391369">
        <ele>1096.6</ele>
        <time>2023-02-11T12:51:43.000Z</time>
      </trkpt>
      <trkpt lat="41.757554" lon="-2.391451">
        <ele>1096.8</ele>
        <time>2023-02-11T12:51:44.000Z</time>
      </trkpt>
      <trkpt lat="41.757575" lon="-2.391534">
        <ele>1097</ele>
        <time>2023-02-11T12:51:45.000Z</time>
      </trkpt>
      <trkpt lat="41.757598" lon="-2.391619">
        <ele>1097.2</ele>
        <time>2023-02-11T12:51:46.000Z</time>
      </trkpt>
      <trkpt lat="41.757621" lon="-2.391703">
        <ele>1097.6</ele>
        <time>2023-02-11T12:51:47.000Z</time>
      </trkpt>
      <trkpt lat="41.757644" lon="-2.391786">
        <ele>1097.6</ele>
        <time>2023-02-11T12:51:48.000Z</time>
      </trkpt>
      <trkpt lat="41.757669" lon="-2.391867">
        <ele>1098.2</ele>
        <time>2023-02-11T12:51:49.000Z</time>
      </trkpt>
      <trkpt lat="41.757693" lon="-2.39195">
        <ele>1098.4</ele>
        <time>2023-02-11T12:51:50.000Z</time>
      </trkpt>
      <trkpt lat="41.757716" lon="-2.392031">
        <ele>1098.6</ele>
        <time>2023-02-11T12:51:51.000Z</time>
      </trkpt>
      <trkpt lat="41.757742" lon="-2.392111">
        <ele>1098.8</ele>
        <time>2023-02-11T12:51:52.000Z</time>
      </trkpt>
      <trkpt lat="41.757767" lon="-2.392196">
        <ele>1098.8</ele>
        <time>2023-02-11T12:51:53.000Z</time>
      </trkpt>
      <trkpt lat="41.757792" lon="-2.392279">
        <ele>1099</ele>
        <time>2023-02-11T12:51:54.000Z</time>
      </trkpt>
      <trkpt lat="41.757815" lon="-2.392364">
        <ele>1099</ele>
        <time>2023-02-11T12:51:55.000Z</time>
      </trkpt>
      <trkpt lat="41.757839" lon="-2.392449">
        <ele>1099.2</ele>
        <time>2023-02-11T12:51:56.000Z</time>
      </trkpt>
      <trkpt lat="41.757864" lon="-2.392536">
        <ele>1099.2</ele>
        <time>2023-02-11T12:51:57.000Z</time>
      </trkpt>
      <trkpt lat="41.75789" lon="-2.392622">
        <ele>1099.4</ele>
        <time>2023-02-11T12:51:58.000Z</time>
      </trkpt>
      <trkpt lat="41.757917" lon="-2.392711">
        <ele>1099.6</ele>
        <time>2023-02-11T12:51:59.000Z</time>
      </trkpt>
      <trkpt lat="41.75794" lon="-2.3928">
        <ele>1099.6</ele>
        <time>2023-02-11T12:52:00.000Z</time>
      </trkpt>
      <trkpt lat="41.757967" lon="-2.392892">
        <ele>1099.8</ele>
        <time>2023-02-11T12:52:01.000Z</time>
      </trkpt>
      <trkpt lat="41.757994" lon="-2.392987">
        <ele>1099.8</ele>
        <time>2023-02-11T12:52:02.000Z</time>
      </trkpt>
      <trkpt lat="41.758023" lon="-2.393082">
        <ele>1100</ele>
        <time>2023-02-11T12:52:03.000Z</time>
      </trkpt>
      <trkpt lat="41.758052" lon="-2.393178">
        <ele>1100</ele>
        <time>2023-02-11T12:52:04.000Z</time>
      </trkpt>
      <trkpt lat="41.758081" lon="-2.393274">
        <ele>1100</ele>
        <time>2023-02-11T12:52:05.000Z</time>
      </trkpt>
      <trkpt lat="41.758109" lon="-2.393371">
        <ele>1100</ele>
        <time>2023-02-11T12:52:06.000Z</time>
      </trkpt>
      <trkpt lat="41.758136" lon="-2.393469">
        <ele>1100</ele>
        <time>2023-02-11T12:52:07.000Z</time>
      </trkpt>
      <trkpt lat="41.758163" lon="-2.393564">
        <ele>1100</ele>
        <time>2023-02-11T12:52:08.000Z</time>
      </trkpt>
      <trkpt lat="41.758192" lon="-2.393658">
        <ele>1100</ele>
        <time>2023-02-11T12:52:09.000Z</time>
      </trkpt>
      <trkpt lat="41.758221" lon="-2.393754">
        <ele>1100</ele>
        <time>2023-02-11T12:52:10.000Z</time>
      </trkpt>
      <trkpt lat="41.758248" lon="-2.393851">
        <ele>1100</ele>
        <time>2023-02-11T12:52:11.000Z</time>
      </trkpt>
      <trkpt lat="41.758275" lon="-2.393946">
        <ele>1100</ele>
        <time>2023-02-11T12:52:12.000Z</time>
      </trkpt>
      <trkpt lat="41.758304" lon="-2.394044">
        <ele>1100</ele>
        <time>2023-02-11T12:52:13.000Z</time>
      </trkpt>
      <trkpt lat="41.758333" lon="-2.394144">
        <ele>1100</ele>
        <time>2023-02-11T12:52:14.000Z</time>
      </trkpt>
      <trkpt lat="41.758363" lon="-2.394246">
        <ele>1100</ele>
        <time>2023-02-11T12:52:15.000Z</time>
      </trkpt>
      <trkpt lat="41.758394" lon="-2.394346">
        <ele>1100</ele>
        <time>2023-02-11T12:52:16.000Z</time>
      </trkpt>
      <trkpt lat="41.758423" lon="-2.394448">
        <ele>1100</ele>
        <time>2023-02-11T12:52:17.000Z</time>
      </trkpt>
      <trkpt lat="41.758451" lon="-2.394552">
        <ele>1100</ele>
        <time>2023-02-11T12:52:18.000Z</time>
      </trkpt>
      <trkpt lat="41.75848" lon="-2.394656">
        <ele>1100</ele>
        <time>2023-02-11T12:52:19.000Z</time>
      </trkpt>
      <trkpt lat="41.75851" lon="-2.39476">
        <ele>1100</ele>
        <time>2023-02-11T12:52:20.000Z</time>
      </trkpt>
      <trkpt lat="41.75854" lon="-2.394864">
        <ele>1100</ele>
        <time>2023-02-11T12:52:21.000Z</time>
      </trkpt>
      <trkpt lat="41.758572" lon="-2.39497">
        <ele>1099.8</ele>
        <time>2023-02-11T12:52:22.000Z</time>
      </trkpt>
      <trkpt lat="41.758603" lon="-2.395077">
        <ele>1099.8</ele>
        <time>2023-02-11T12:52:23.000Z</time>
      </trkpt>
      <trkpt lat="41.758635" lon="-2.395184">
        <ele>1099.8</ele>
        <time>2023-02-11T12:52:24.000Z</time>
      </trkpt>
      <trkpt lat="41.758666" lon="-2.395292">
        <ele>1099.8</ele>
        <time>2023-02-11T12:52:25.000Z</time>
      </trkpt>
      <trkpt lat="41.758698" lon="-2.3954">
        <ele>1099.8</ele>
        <time>2023-02-11T12:52:26.000Z</time>
      </trkpt>
      <trkpt lat="41.75873" lon="-2.395509">
        <ele>1099.6</ele>
        <time>2023-02-11T12:52:27.000Z</time>
      </trkpt>
      <trkpt lat="41.758761" lon="-2.395617">
        <ele>1099.4</ele>
        <time>2023-02-11T12:52:28.000Z</time>
      </trkpt>
      <trkpt lat="41.758793" lon="-2.395724">
        <ele>1099.4</ele>
        <time>2023-02-11T12:52:29.000Z</time>
      </trkpt>
      <trkpt lat="41.758825" lon="-2.395832">
        <ele>1099.2</ele>
        <time>2023-02-11T12:52:30.000Z</time>
      </trkpt>
      <trkpt lat="41.758856" lon="-2.395942">
        <ele>1099.2</ele>
        <time>2023-02-11T12:52:31.000Z</time>
      </trkpt>
      <trkpt lat="41.758887" lon="-2.396052">
        <ele>1099</ele>
        <time>2023-02-11T12:52:32.000Z</time>
      </trkpt>
      <trkpt lat="41.758919" lon="-2.396164">
        <ele>1098.8</ele>
        <time>2023-02-11T12:52:33.000Z</time>
      </trkpt>
      <trkpt lat="41.758953" lon="-2.396275">
        <ele>1098.6</ele>
        <time>2023-02-11T12:52:34.000Z</time>
      </trkpt>
      <trkpt lat="41.758988" lon="-2.396387">
        <ele>1098.6</ele>
        <time>2023-02-11T12:52:35.000Z</time>
      </trkpt>
      <trkpt lat="41.759022" lon="-2.396503">
        <ele>1098.4</ele>
        <time>2023-02-11T12:52:36.000Z</time>
      </trkpt>
      <trkpt lat="41.759054" lon="-2.396619">
        <ele>1098.4</ele>
        <time>2023-02-11T12:52:37.000Z</time>
      </trkpt>
      <trkpt lat="41.759087" lon="-2.396733">
        <ele>1098.2</ele>
        <time>2023-02-11T12:52:38.000Z</time>
      </trkpt>
      <trkpt lat="41.759117" lon="-2.396846">
        <ele>1097.8</ele>
        <time>2023-02-11T12:52:39.000Z</time>
      </trkpt>
      <trkpt lat="41.759148" lon="-2.396959">
        <ele>1097.8</ele>
        <time>2023-02-11T12:52:40.000Z</time>
      </trkpt>
      <trkpt lat="41.759182" lon="-2.397072">
        <ele>1097.6</ele>
        <time>2023-02-11T12:52:41.000Z</time>
      </trkpt>
      <trkpt lat="41.759215" lon="-2.397183">
        <ele>1097.4</ele>
        <time>2023-02-11T12:52:42.000Z</time>
      </trkpt>
      <trkpt lat="41.759248" lon="-2.397296">
        <ele>1097.2</ele>
        <time>2023-02-11T12:52:43.000Z</time>
      </trkpt>
      <trkpt lat="41.759282" lon="-2.397407">
        <ele>1097.2</ele>
        <time>2023-02-11T12:52:44.000Z</time>
      </trkpt>
      <trkpt lat="41.759316" lon="-2.397519">
        <ele>1096.8</ele>
        <time>2023-02-11T12:52:45.000Z</time>
      </trkpt>
      <trkpt lat="41.759349" lon="-2.397633">
        <ele>1096.6</ele>
        <time>2023-02-11T12:52:46.000Z</time>
      </trkpt>
      <trkpt lat="41.759382" lon="-2.397748">
        <ele>1096.6</ele>
        <time>2023-02-11T12:52:47.000Z</time>
      </trkpt>
      <trkpt lat="41.759415" lon="-2.397862">
        <ele>1096.4</ele>
        <time>2023-02-11T12:52:48.000Z</time>
      </trkpt>
      <trkpt lat="41.759448" lon="-2.397976">
        <ele>1096.4</ele>
        <time>2023-02-11T12:52:49.000Z</time>
      </trkpt>
      <trkpt lat="41.759478" lon="-2.39809">
        <ele>1096.2</ele>
        <time>2023-02-11T12:52:50.000Z</time>
      </trkpt>
      <trkpt lat="41.759511" lon="-2.398203">
        <ele>1096.2</ele>
        <time>2023-02-11T12:52:51.000Z</time>
      </trkpt>
      <trkpt lat="41.759542" lon="-2.398315">
        <ele>1096.2</ele>
        <time>2023-02-11T12:52:52.000Z</time>
      </trkpt>
      <trkpt lat="41.759576" lon="-2.398423">
        <ele>1096.2</ele>
        <time>2023-02-11T12:52:53.000Z</time>
      </trkpt>
      <trkpt lat="41.759607" lon="-2.398533">
        <ele>1096</ele>
        <time>2023-02-11T12:52:54.000Z</time>
      </trkpt>
      <trkpt lat="41.75964" lon="-2.398642">
        <ele>1095.8</ele>
        <time>2023-02-11T12:52:55.000Z</time>
      </trkpt>
      <trkpt lat="41.759672" lon="-2.398753">
        <ele>1095.8</ele>
        <time>2023-02-11T12:52:56.000Z</time>
      </trkpt>
      <trkpt lat="41.759704" lon="-2.398863">
        <ele>1095.8</ele>
        <time>2023-02-11T12:52:57.000Z</time>
      </trkpt>
      <trkpt lat="41.759736" lon="-2.398973">
        <ele>1095.8</ele>
        <time>2023-02-11T12:52:58.000Z</time>
      </trkpt>
      <trkpt lat="41.759766" lon="-2.39908">
        <ele>1095.8</ele>
        <time>2023-02-11T12:52:59.000Z</time>
      </trkpt>
      <trkpt lat="41.759794" lon="-2.399186">
        <ele>1095.8</ele>
        <time>2023-02-11T12:53:00.000Z</time>
      </trkpt>
      <trkpt lat="41.759824" lon="-2.399293">
        <ele>1095.8</ele>
        <time>2023-02-11T12:53:01.000Z</time>
      </trkpt>
      <trkpt lat="41.759854" lon="-2.399399">
        <ele>1095.8</ele>
        <time>2023-02-11T12:53:02.000Z</time>
      </trkpt>
      <trkpt lat="41.759885" lon="-2.399504">
        <ele>1096</ele>
        <time>2023-02-11T12:53:03.000Z</time>
      </trkpt>
      <trkpt lat="41.759916" lon="-2.39961">
        <ele>1096</ele>
        <time>2023-02-11T12:53:04.000Z</time>
      </trkpt>
      <trkpt lat="41.759947" lon="-2.399714">
        <ele>1096.2</ele>
        <time>2023-02-11T12:53:05.000Z</time>
      </trkpt>
      <trkpt lat="41.759977" lon="-2.39982">
        <ele>1096.4</ele>
        <time>2023-02-11T12:53:06.000Z</time>
      </trkpt>
      <trkpt lat="41.760008" lon="-2.399924">
        <ele>1096.4</ele>
        <time>2023-02-11T12:53:07.000Z</time>
      </trkpt>
      <trkpt lat="41.760038" lon="-2.400029">
        <ele>1096.4</ele>
        <time>2023-02-11T12:53:08.000Z</time>
      </trkpt>
      <trkpt lat="41.760069" lon="-2.400135">
        <ele>1096.4</ele>
        <time>2023-02-11T12:53:09.000Z</time>
      </trkpt>
      <trkpt lat="41.760099" lon="-2.400239">
        <ele>1096.4</ele>
        <time>2023-02-11T12:53:10.000Z</time>
      </trkpt>
      <trkpt lat="41.760126" lon="-2.400343">
        <ele>1096.4</ele>
        <time>2023-02-11T12:53:11.000Z</time>
      </trkpt>
      <trkpt lat="41.760155" lon="-2.400447">
        <ele>1096.6</ele>
        <time>2023-02-11T12:53:12.000Z</time>
      </trkpt>
      <trkpt lat="41.760187" lon="-2.400547">
        <ele>1096.6</ele>
        <time>2023-02-11T12:53:13.000Z</time>
      </trkpt>
      <trkpt lat="41.760219" lon="-2.400648">
        <ele>1096.6</ele>
        <time>2023-02-11T12:53:14.000Z</time>
      </trkpt>
      <trkpt lat="41.760248" lon="-2.400754">
        <ele>1096.6</ele>
        <time>2023-02-11T12:53:15.000Z</time>
      </trkpt>
      <trkpt lat="41.760276" lon="-2.40086">
        <ele>1096.6</ele>
        <time>2023-02-11T12:53:16.000Z</time>
      </trkpt>
      <trkpt lat="41.760306" lon="-2.400962">
        <ele>1096.8</ele>
        <time>2023-02-11T12:53:17.000Z</time>
      </trkpt>
      <trkpt lat="41.760336" lon="-2.401064">
        <ele>1096.8</ele>
        <time>2023-02-11T12:53:18.000Z</time>
      </trkpt>
      <trkpt lat="41.760368" lon="-2.401159">
        <ele>1096.6</ele>
        <time>2023-02-11T12:53:19.000Z</time>
      </trkpt>
      <trkpt lat="41.760397" lon="-2.401259">
        <ele>1096.6</ele>
        <time>2023-02-11T12:53:20.000Z</time>
      </trkpt>
      <trkpt lat="41.760427" lon="-2.401357">
        <ele>1096.6</ele>
        <time>2023-02-11T12:53:21.000Z</time>
      </trkpt>
      <trkpt lat="41.760457" lon="-2.401454">
        <ele>1096.6</ele>
        <time>2023-02-11T12:53:22.000Z</time>
      </trkpt>
      <trkpt lat="41.760487" lon="-2.401555">
        <ele>1096.6</ele>
        <time>2023-02-11T12:53:23.000Z</time>
      </trkpt>
      <trkpt lat="41.760515" lon="-2.401658">
        <ele>1096.6</ele>
        <time>2023-02-11T12:53:24.000Z</time>
      </trkpt>
      <trkpt lat="41.760544" lon="-2.401763">
        <ele>1096.4</ele>
        <time>2023-02-11T12:53:25.000Z</time>
      </trkpt>
      <trkpt lat="41.760575" lon="-2.40187">
        <ele>1096.4</ele>
        <time>2023-02-11T12:53:26.000Z</time>
      </trkpt>
      <trkpt lat="41.760606" lon="-2.401973">
        <ele>1096.2</ele>
        <time>2023-02-11T12:53:27.000Z</time>
      </trkpt>
      <trkpt lat="41.760634" lon="-2.402081">
        <ele>1096</ele>
        <time>2023-02-11T12:53:28.000Z</time>
      </trkpt>
      <trkpt lat="41.760665" lon="-2.40219">
        <ele>1096</ele>
        <time>2023-02-11T12:53:29.000Z</time>
      </trkpt>
      <trkpt lat="41.760696" lon="-2.402299">
        <ele>1095.6</ele>
        <time>2023-02-11T12:53:30.000Z</time>
      </trkpt>
      <trkpt lat="41.760727" lon="-2.402409">
        <ele>1095.4</ele>
        <time>2023-02-11T12:53:31.000Z</time>
      </trkpt>
      <trkpt lat="41.760759" lon="-2.40252">
        <ele>1094.8</ele>
        <time>2023-02-11T12:53:32.000Z</time>
      </trkpt>
      <trkpt lat="41.76079" lon="-2.402629">
        <ele>1094.6</ele>
        <time>2023-02-11T12:53:33.000Z</time>
      </trkpt>
      <trkpt lat="41.760824" lon="-2.402737">
        <ele>1094.4</ele>
        <time>2023-02-11T12:53:34.000Z</time>
      </trkpt>
      <trkpt lat="41.76086" lon="-2.402842">
        <ele>1094.2</ele>
        <time>2023-02-11T12:53:35.000Z</time>
      </trkpt>
      <trkpt lat="41.760908" lon="-2.402944">
        <ele>1094.2</ele>
        <time>2023-02-11T12:53:36.000Z</time>
      </trkpt>
      <trkpt lat="41.760974" lon="-2.403033">
        <ele>1093.8</ele>
        <time>2023-02-11T12:53:37.000Z</time>
      </trkpt>
      <trkpt lat="41.761052" lon="-2.403097">
        <ele>1093.6</ele>
        <time>2023-02-11T12:53:38.000Z</time>
      </trkpt>
      <trkpt lat="41.761132" lon="-2.403126">
        <ele>1093.4</ele>
        <time>2023-02-11T12:53:39.000Z</time>
      </trkpt>
      <trkpt lat="41.761213" lon="-2.403134">
        <ele>1093</ele>
        <time>2023-02-11T12:53:40.000Z</time>
      </trkpt>
      <trkpt lat="41.761293" lon="-2.403129">
        <ele>1092.8</ele>
        <time>2023-02-11T12:53:41.000Z</time>
      </trkpt>
      <trkpt lat="41.761369" lon="-2.403115">
        <ele>1092.8</ele>
        <time>2023-02-11T12:53:42.000Z</time>
      </trkpt>
      <trkpt lat="41.761441" lon="-2.403097">
        <ele>1092.6</ele>
        <time>2023-02-11T12:53:43.000Z</time>
      </trkpt>
      <trkpt lat="41.76151" lon="-2.403077">
        <ele>1092.6</ele>
        <time>2023-02-11T12:53:44.000Z</time>
      </trkpt>
      <trkpt lat="41.761573" lon="-2.403056">
        <ele>1092.6</ele>
        <time>2023-02-11T12:53:45.000Z</time>
      </trkpt>
      <trkpt lat="41.761632" lon="-2.403036">
        <ele>1092.6</ele>
        <time>2023-02-11T12:53:46.000Z</time>
      </trkpt>
      <trkpt lat="41.761691" lon="-2.403017">
        <ele>1092.8</ele>
        <time>2023-02-11T12:53:47.000Z</time>
      </trkpt>
      <trkpt lat="41.761747" lon="-2.402998">
        <ele>1093.2</ele>
        <time>2023-02-11T12:53:48.000Z</time>
      </trkpt>
      <trkpt lat="41.761797" lon="-2.402979">
        <ele>1093.4</ele>
        <time>2023-02-11T12:53:49.000Z</time>
      </trkpt>
      <trkpt lat="41.76185" lon="-2.402968">
        <ele>1093.8</ele>
        <time>2023-02-11T12:53:50.000Z</time>
      </trkpt>
      <trkpt lat="41.761903" lon="-2.402966">
        <ele>1094</ele>
        <time>2023-02-11T12:53:51.000Z</time>
      </trkpt>
      <trkpt lat="41.761947" lon="-2.402973">
        <ele>1094.6</ele>
        <time>2023-02-11T12:53:52.000Z</time>
      </trkpt>
      <trkpt lat="41.761986" lon="-2.402987">
        <ele>1095</ele>
        <time>2023-02-11T12:53:53.000Z</time>
      </trkpt>
      <trkpt lat="41.762017" lon="-2.403006">
        <ele>1095</ele>
        <time>2023-02-11T12:53:54.000Z</time>
      </trkpt>
      <trkpt lat="41.762045" lon="-2.403038">
        <ele>1095.2</ele>
        <time>2023-02-11T12:53:55.000Z</time>
      </trkpt>
      <trkpt lat="41.76207" lon="-2.403082">
        <ele>1095.4</ele>
        <time>2023-02-11T12:53:56.000Z</time>
      </trkpt>
      <trkpt lat="41.762094" lon="-2.403136">
        <ele>1095.4</ele>
        <time>2023-02-11T12:53:57.000Z</time>
      </trkpt>
      <trkpt lat="41.762117" lon="-2.403201">
        <ele>1095.8</ele>
        <time>2023-02-11T12:53:58.000Z</time>
      </trkpt>
      <trkpt lat="41.762142" lon="-2.403273">
        <ele>1095.8</ele>
        <time>2023-02-11T12:53:59.000Z</time>
      </trkpt>
      <trkpt lat="41.762167" lon="-2.403354">
        <ele>1095.8</ele>
        <time>2023-02-11T12:54:00.000Z</time>
      </trkpt>
      <trkpt lat="41.762192" lon="-2.403441">
        <ele>1095.8</ele>
        <time>2023-02-11T12:54:01.000Z</time>
      </trkpt>
      <trkpt lat="41.762213" lon="-2.403542">
        <ele>1095.8</ele>
        <time>2023-02-11T12:54:02.000Z</time>
      </trkpt>
      <trkpt lat="41.762229" lon="-2.403651">
        <ele>1095.8</ele>
        <time>2023-02-11T12:54:03.000Z</time>
      </trkpt>
      <trkpt lat="41.762247" lon="-2.403764">
        <ele>1095.6</ele>
        <time>2023-02-11T12:54:04.000Z</time>
      </trkpt>
      <trkpt lat="41.762266" lon="-2.403881">
        <ele>1095.6</ele>
        <time>2023-02-11T12:54:05.000Z</time>
      </trkpt>
      <trkpt lat="41.762284" lon="-2.404">
        <ele>1095.4</ele>
        <time>2023-02-11T12:54:06.000Z</time>
      </trkpt>
      <trkpt lat="41.762304" lon="-2.404122">
        <ele>1095.4</ele>
        <time>2023-02-11T12:54:07.000Z</time>
      </trkpt>
      <trkpt lat="41.762323" lon="-2.404245">
        <ele>1095.4</ele>
        <time>2023-02-11T12:54:08.000Z</time>
      </trkpt>
      <trkpt lat="41.762341" lon="-2.40437">
        <ele>1095.2</ele>
        <time>2023-02-11T12:54:09.000Z</time>
      </trkpt>
      <trkpt lat="41.762359" lon="-2.404496">
        <ele>1094.8</ele>
        <time>2023-02-11T12:54:10.000Z</time>
      </trkpt>
      <trkpt lat="41.762375" lon="-2.404625">
        <ele>1095</ele>
        <time>2023-02-11T12:54:11.000Z</time>
      </trkpt>
      <trkpt lat="41.762391" lon="-2.404756">
        <ele>1094.8</ele>
        <time>2023-02-11T12:54:12.000Z</time>
      </trkpt>
      <trkpt lat="41.762407" lon="-2.404888">
        <ele>1094.6</ele>
        <time>2023-02-11T12:54:13.000Z</time>
      </trkpt>
      <trkpt lat="41.762421" lon="-2.405022">
        <ele>1094.4</ele>
        <time>2023-02-11T12:54:14.000Z</time>
      </trkpt>
      <trkpt lat="41.762433" lon="-2.405158">
        <ele>1094.4</ele>
        <time>2023-02-11T12:54:15.000Z</time>
      </trkpt>
      <trkpt lat="41.762446" lon="-2.405294">
        <ele>1094.2</ele>
        <time>2023-02-11T12:54:16.000Z</time>
      </trkpt>
      <trkpt lat="41.762456" lon="-2.40543">
        <ele>1093.6</ele>
        <time>2023-02-11T12:54:17.000Z</time>
      </trkpt>
      <trkpt lat="41.762464" lon="-2.405568">
        <ele>1093.4</ele>
        <time>2023-02-11T12:54:18.000Z</time>
      </trkpt>
      <trkpt lat="41.762471" lon="-2.405709">
        <ele>1093</ele>
        <time>2023-02-11T12:54:19.000Z</time>
      </trkpt>
      <trkpt lat="41.762477" lon="-2.405851">
        <ele>1092.6</ele>
        <time>2023-02-11T12:54:20.000Z</time>
      </trkpt>
      <trkpt lat="41.762484" lon="-2.405994">
        <ele>1092</ele>
        <time>2023-02-11T12:54:21.000Z</time>
      </trkpt>
      <trkpt lat="41.762492" lon="-2.406137">
        <ele>1091.6</ele>
        <time>2023-02-11T12:54:22.000Z</time>
      </trkpt>
      <trkpt lat="41.762498" lon="-2.406282">
        <ele>1091</ele>
        <time>2023-02-11T12:54:23.000Z</time>
      </trkpt>
      <trkpt lat="41.762505" lon="-2.406429">
        <ele>1090.4</ele>
        <time>2023-02-11T12:54:24.000Z</time>
      </trkpt>
      <trkpt lat="41.762509" lon="-2.406576">
        <ele>1090.2</ele>
        <time>2023-02-11T12:54:25.000Z</time>
      </trkpt>
      <trkpt lat="41.76251" lon="-2.406724">
        <ele>1089.8</ele>
        <time>2023-02-11T12:54:26.000Z</time>
      </trkpt>
      <trkpt lat="41.762511" lon="-2.406875">
        <ele>1089.6</ele>
        <time>2023-02-11T12:54:27.000Z</time>
      </trkpt>
      <trkpt lat="41.762511" lon="-2.407027">
        <ele>1088.8</ele>
        <time>2023-02-11T12:54:28.000Z</time>
      </trkpt>
      <trkpt lat="41.762512" lon="-2.407181">
        <ele>1088.6</ele>
        <time>2023-02-11T12:54:29.000Z</time>
      </trkpt>
      <trkpt lat="41.762515" lon="-2.407336">
        <ele>1088.4</ele>
        <time>2023-02-11T12:54:30.000Z</time>
      </trkpt>
      <trkpt lat="41.762517" lon="-2.407492">
        <ele>1088.2</ele>
        <time>2023-02-11T12:54:31.000Z</time>
      </trkpt>
      <trkpt lat="41.76252" lon="-2.407647">
        <ele>1087.8</ele>
        <time>2023-02-11T12:54:32.000Z</time>
      </trkpt>
      <trkpt lat="41.762525" lon="-2.407801">
        <ele>1087.4</ele>
        <time>2023-02-11T12:54:33.000Z</time>
      </trkpt>
      <trkpt lat="41.762528" lon="-2.407956">
        <ele>1087.2</ele>
        <time>2023-02-11T12:54:34.000Z</time>
      </trkpt>
      <trkpt lat="41.762533" lon="-2.40811">
        <ele>1086.8</ele>
        <time>2023-02-11T12:54:35.000Z</time>
      </trkpt>
      <trkpt lat="41.762537" lon="-2.408265">
        <ele>1086.6</ele>
        <time>2023-02-11T12:54:36.000Z</time>
      </trkpt>
      <trkpt lat="41.76254" lon="-2.408423">
        <ele>1086.4</ele>
        <time>2023-02-11T12:54:37.000Z</time>
      </trkpt>
      <trkpt lat="41.762541" lon="-2.408584">
        <ele>1086.2</ele>
        <time>2023-02-11T12:54:38.000Z</time>
      </trkpt>
      <trkpt lat="41.762544" lon="-2.408748">
        <ele>1086</ele>
        <time>2023-02-11T12:54:39.000Z</time>
      </trkpt>
      <trkpt lat="41.762548" lon="-2.408913">
        <ele>1086</ele>
        <time>2023-02-11T12:54:40.000Z</time>
      </trkpt>
      <trkpt lat="41.762553" lon="-2.409075">
        <ele>1085.6</ele>
        <time>2023-02-11T12:54:41.000Z</time>
      </trkpt>
      <trkpt lat="41.762558" lon="-2.409235">
        <ele>1085.6</ele>
        <time>2023-02-11T12:54:42.000Z</time>
      </trkpt>
      <trkpt lat="41.762563" lon="-2.409394">
        <ele>1085.4</ele>
        <time>2023-02-11T12:54:43.000Z</time>
      </trkpt>
      <trkpt lat="41.762565" lon="-2.409553">
        <ele>1085.2</ele>
        <time>2023-02-11T12:54:44.000Z</time>
      </trkpt>
      <trkpt lat="41.762568" lon="-2.409711">
        <ele>1085</ele>
        <time>2023-02-11T12:54:45.000Z</time>
      </trkpt>
      <trkpt lat="41.762572" lon="-2.409866">
        <ele>1084.6</ele>
        <time>2023-02-11T12:54:46.000Z</time>
      </trkpt>
      <trkpt lat="41.762576" lon="-2.41002">
        <ele>1084.4</ele>
        <time>2023-02-11T12:54:47.000Z</time>
      </trkpt>
      <trkpt lat="41.76258" lon="-2.410172">
        <ele>1084</ele>
        <time>2023-02-11T12:54:48.000Z</time>
      </trkpt>
      <trkpt lat="41.762583" lon="-2.410325">
        <ele>1083.8</ele>
        <time>2023-02-11T12:54:49.000Z</time>
      </trkpt>
      <trkpt lat="41.762586" lon="-2.410477">
        <ele>1083.2</ele>
        <time>2023-02-11T12:54:50.000Z</time>
      </trkpt>
      <trkpt lat="41.762588" lon="-2.410633">
        <ele>1083</ele>
        <time>2023-02-11T12:54:51.000Z</time>
      </trkpt>
      <trkpt lat="41.76259" lon="-2.410791">
        <ele>1082.6</ele>
        <time>2023-02-11T12:54:52.000Z</time>
      </trkpt>
      <trkpt lat="41.762591" lon="-2.41095">
        <ele>1082.4</ele>
        <time>2023-02-11T12:54:53.000Z</time>
      </trkpt>
      <trkpt lat="41.762593" lon="-2.411109">
        <ele>1082.2</ele>
        <time>2023-02-11T12:54:54.000Z</time>
      </trkpt>
      <trkpt lat="41.762596" lon="-2.41127">
        <ele>1081.8</ele>
        <time>2023-02-11T12:54:55.000Z</time>
      </trkpt>
      <trkpt lat="41.762598" lon="-2.41143">
        <ele>1081.6</ele>
        <time>2023-02-11T12:54:56.000Z</time>
      </trkpt>
      <trkpt lat="41.7626" lon="-2.411587">
        <ele>1081.4</ele>
        <time>2023-02-11T12:54:57.000Z</time>
      </trkpt>
      <trkpt lat="41.762602" lon="-2.411745">
        <ele>1081.2</ele>
        <time>2023-02-11T12:54:58.000Z</time>
      </trkpt>
      <trkpt lat="41.762607" lon="-2.411897">
        <ele>1080.8</ele>
        <time>2023-02-11T12:54:59.000Z</time>
      </trkpt>
      <trkpt lat="41.762612" lon="-2.412048">
        <ele>1080.6</ele>
        <time>2023-02-11T12:55:00.000Z</time>
      </trkpt>
      <trkpt lat="41.762616" lon="-2.412197">
        <ele>1080.4</ele>
        <time>2023-02-11T12:55:01.000Z</time>
      </trkpt>
      <trkpt lat="41.762615" lon="-2.412345">
        <ele>1080.2</ele>
        <time>2023-02-11T12:55:02.000Z</time>
      </trkpt>
      <trkpt lat="41.762615" lon="-2.412491">
        <ele>1080.2</ele>
        <time>2023-02-11T12:55:03.000Z</time>
      </trkpt>
      <trkpt lat="41.762618" lon="-2.412635">
        <ele>1079.8</ele>
        <time>2023-02-11T12:55:04.000Z</time>
      </trkpt>
      <trkpt lat="41.762622" lon="-2.412781">
        <ele>1079.6</ele>
        <time>2023-02-11T12:55:05.000Z</time>
      </trkpt>
      <trkpt lat="41.762628" lon="-2.412927">
        <ele>1079.4</ele>
        <time>2023-02-11T12:55:06.000Z</time>
      </trkpt>
      <trkpt lat="41.762635" lon="-2.413075">
        <ele>1079.4</ele>
        <time>2023-02-11T12:55:07.000Z</time>
      </trkpt>
      <trkpt lat="41.762647" lon="-2.413225">
        <ele>1079.2</ele>
        <time>2023-02-11T12:55:08.000Z</time>
      </trkpt>
      <trkpt lat="41.762661" lon="-2.413373">
        <ele>1079.2</ele>
        <time>2023-02-11T12:55:09.000Z</time>
      </trkpt>
      <trkpt lat="41.762677" lon="-2.413515">
        <ele>1079.2</ele>
        <time>2023-02-11T12:55:10.000Z</time>
      </trkpt>
      <trkpt lat="41.762692" lon="-2.413657">
        <ele>1079.2</ele>
        <time>2023-02-11T12:55:11.000Z</time>
      </trkpt>
      <trkpt lat="41.762706" lon="-2.413799">
        <ele>1079.2</ele>
        <time>2023-02-11T12:55:12.000Z</time>
      </trkpt>
      <trkpt lat="41.76272" lon="-2.413941">
        <ele>1079</ele>
        <time>2023-02-11T12:55:13.000Z</time>
      </trkpt>
      <trkpt lat="41.762741" lon="-2.414081">
        <ele>1079</ele>
        <time>2023-02-11T12:55:14.000Z</time>
      </trkpt>
      <trkpt lat="41.762777" lon="-2.414215">
        <ele>1079</ele>
        <time>2023-02-11T12:55:15.000Z</time>
      </trkpt>
      <trkpt lat="41.762832" lon="-2.414338">
        <ele>1079</ele>
        <time>2023-02-11T12:55:16.000Z</time>
      </trkpt>
      <trkpt lat="41.762893" lon="-2.414453">
        <ele>1078.8</ele>
        <time>2023-02-11T12:55:17.000Z</time>
      </trkpt>
      <trkpt lat="41.762962" lon="-2.414565">
        <ele>1078.8</ele>
        <time>2023-02-11T12:55:18.000Z</time>
      </trkpt>
      <trkpt lat="41.763037" lon="-2.414666">
        <ele>1078.8</ele>
        <time>2023-02-11T12:55:19.000Z</time>
      </trkpt>
      <trkpt lat="41.763117" lon="-2.414755">
        <ele>1078.8</ele>
        <time>2023-02-11T12:55:20.000Z</time>
      </trkpt>
      <trkpt lat="41.7632" lon="-2.414835">
        <ele>1078.8</ele>
        <time>2023-02-11T12:55:21.000Z</time>
      </trkpt>
      <trkpt lat="41.763283" lon="-2.414912">
        <ele>1078.8</ele>
        <time>2023-02-11T12:55:22.000Z</time>
      </trkpt>
      <trkpt lat="41.763365" lon="-2.414987">
        <ele>1079</ele>
        <time>2023-02-11T12:55:23.000Z</time>
      </trkpt>
      <trkpt lat="41.763443" lon="-2.415065">
        <ele>1079</ele>
        <time>2023-02-11T12:55:24.000Z</time>
      </trkpt>
      <trkpt lat="41.763513" lon="-2.415152">
        <ele>1079</ele>
        <time>2023-02-11T12:55:25.000Z</time>
      </trkpt>
      <trkpt lat="41.763575" lon="-2.415244">
        <ele>1079.4</ele>
        <time>2023-02-11T12:55:26.000Z</time>
      </trkpt>
      <trkpt lat="41.763631" lon="-2.415338">
        <ele>1079.8</ele>
        <time>2023-02-11T12:55:27.000Z</time>
      </trkpt>
      <trkpt lat="41.763678" lon="-2.415434">
        <ele>1080.2</ele>
        <time>2023-02-11T12:55:28.000Z</time>
      </trkpt>
      <trkpt lat="41.763715" lon="-2.415533">
        <ele>1080.4</ele>
        <time>2023-02-11T12:55:29.000Z</time>
      </trkpt>
      <trkpt lat="41.763743" lon="-2.415629">
        <ele>1080.6</ele>
        <time>2023-02-11T12:55:30.000Z</time>
      </trkpt>
      <trkpt lat="41.763764" lon="-2.415723">
        <ele>1080.8</ele>
        <time>2023-02-11T12:55:31.000Z</time>
      </trkpt>
      <trkpt lat="41.763777" lon="-2.415819">
        <ele>1081</ele>
        <time>2023-02-11T12:55:32.000Z</time>
      </trkpt>
      <trkpt lat="41.763783" lon="-2.415916">
        <ele>1081.2</ele>
        <time>2023-02-11T12:55:33.000Z</time>
      </trkpt>
      <trkpt lat="41.763782" lon="-2.416011">
        <ele>1081.4</ele>
        <time>2023-02-11T12:55:34.000Z</time>
      </trkpt>
      <trkpt lat="41.763776" lon="-2.416102">
        <ele>1082</ele>
        <time>2023-02-11T12:55:35.000Z</time>
      </trkpt>
      <trkpt lat="41.763763" lon="-2.41619">
        <ele>1082.2</ele>
        <time>2023-02-11T12:55:36.000Z</time>
      </trkpt>
      <trkpt lat="41.763744" lon="-2.416275">
        <ele>1082.6</ele>
        <time>2023-02-11T12:55:37.000Z</time>
      </trkpt>
      <trkpt lat="41.763719" lon="-2.416353">
        <ele>1082.8</ele>
        <time>2023-02-11T12:55:38.000Z</time>
      </trkpt>
      <trkpt lat="41.763689" lon="-2.416421">
        <ele>1083.4</ele>
        <time>2023-02-11T12:55:39.000Z</time>
      </trkpt>
      <trkpt lat="41.763657" lon="-2.416488">
        <ele>1083.6</ele>
        <time>2023-02-11T12:55:40.000Z</time>
      </trkpt>
      <trkpt lat="41.763621" lon="-2.416552">
        <ele>1084</ele>
        <time>2023-02-11T12:55:41.000Z</time>
      </trkpt>
      <trkpt lat="41.763581" lon="-2.416614">
        <ele>1084.6</ele>
        <time>2023-02-11T12:55:42.000Z</time>
      </trkpt>
      <trkpt lat="41.763539" lon="-2.416669">
        <ele>1085</ele>
        <time>2023-02-11T12:55:43.000Z</time>
      </trkpt>
      <trkpt lat="41.763492" lon="-2.416725">
        <ele>1085.4</ele>
        <time>2023-02-11T12:55:44.000Z</time>
      </trkpt>
      <trkpt lat="41.763444" lon="-2.416782">
        <ele>1085.8</ele>
        <time>2023-02-11T12:55:45.000Z</time>
      </trkpt>
      <trkpt lat="41.763397" lon="-2.41684">
        <ele>1086.2</ele>
        <time>2023-02-11T12:55:46.000Z</time>
      </trkpt>
      <trkpt lat="41.763349" lon="-2.416898">
        <ele>1086.4</ele>
        <time>2023-02-11T12:55:47.000Z</time>
      </trkpt>
      <trkpt lat="41.763301" lon="-2.416951">
        <ele>1086.6</ele>
        <time>2023-02-11T12:55:48.000Z</time>
      </trkpt>
      <trkpt lat="41.763252" lon="-2.417007">
        <ele>1086.6</ele>
        <time>2023-02-11T12:55:49.000Z</time>
      </trkpt>
      <trkpt lat="41.763202" lon="-2.417064">
        <ele>1086.8</ele>
        <time>2023-02-11T12:55:50.000Z</time>
      </trkpt>
      <trkpt lat="41.763151" lon="-2.417123">
        <ele>1087</ele>
        <time>2023-02-11T12:55:51.000Z</time>
      </trkpt>
      <trkpt lat="41.763098" lon="-2.417182">
        <ele>1087</ele>
        <time>2023-02-11T12:55:52.000Z</time>
      </trkpt>
      <trkpt lat="41.763043" lon="-2.41724">
        <ele>1087.2</ele>
        <time>2023-02-11T12:55:53.000Z</time>
      </trkpt>
      <trkpt lat="41.762986" lon="-2.417301">
        <ele>1087.2</ele>
        <time>2023-02-11T12:55:54.000Z</time>
      </trkpt>
      <trkpt lat="41.76293" lon="-2.417366">
        <ele>1087.2</ele>
        <time>2023-02-11T12:55:55.000Z</time>
      </trkpt>
      <trkpt lat="41.762883" lon="-2.417443">
        <ele>1087.2</ele>
        <time>2023-02-11T12:55:56.000Z</time>
      </trkpt>
      <trkpt lat="41.762852" lon="-2.417536">
        <ele>1087.2</ele>
        <time>2023-02-11T12:55:57.000Z</time>
      </trkpt>
      <trkpt lat="41.762834" lon="-2.417644">
        <ele>1087</ele>
        <time>2023-02-11T12:55:58.000Z</time>
      </trkpt>
      <trkpt lat="41.762812" lon="-2.417759">
        <ele>1087</ele>
        <time>2023-02-11T12:55:59.000Z</time>
      </trkpt>
      <trkpt lat="41.762773" lon="-2.417868">
        <ele>1087</ele>
        <time>2023-02-11T12:56:00.000Z</time>
      </trkpt>
      <trkpt lat="41.762714" lon="-2.417967">
        <ele>1087</ele>
        <time>2023-02-11T12:56:01.000Z</time>
      </trkpt>
      <trkpt lat="41.762643" lon="-2.418056">
        <ele>1086.2</ele>
        <time>2023-02-11T12:56:02.000Z</time>
      </trkpt>
      <trkpt lat="41.762574" lon="-2.418147">
        <ele>1085.8</ele>
        <time>2023-02-11T12:56:03.000Z</time>
      </trkpt>
      <trkpt lat="41.762519" lon="-2.418247">
        <ele>1085.2</ele>
        <time>2023-02-11T12:56:04.000Z</time>
      </trkpt>
      <trkpt lat="41.762483" lon="-2.418365">
        <ele>1085</ele>
        <time>2023-02-11T12:56:05.000Z</time>
      </trkpt>
      <trkpt lat="41.762455" lon="-2.418497">
        <ele>1084.4</ele>
        <time>2023-02-11T12:56:06.000Z</time>
      </trkpt>
      <trkpt lat="41.762431" lon="-2.418633">
        <ele>1084.2</ele>
        <time>2023-02-11T12:56:07.000Z</time>
      </trkpt>
      <trkpt lat="41.762408" lon="-2.418769">
        <ele>1083.8</ele>
        <time>2023-02-11T12:56:08.000Z</time>
      </trkpt>
      <trkpt lat="41.762385" lon="-2.418905">
        <ele>1083.2</ele>
        <time>2023-02-11T12:56:09.000Z</time>
      </trkpt>
      <trkpt lat="41.762364" lon="-2.41904">
        <ele>1082.4</ele>
        <time>2023-02-11T12:56:10.000Z</time>
      </trkpt>
      <trkpt lat="41.762344" lon="-2.419172">
        <ele>1082</ele>
        <time>2023-02-11T12:56:11.000Z</time>
      </trkpt>
      <trkpt lat="41.762325" lon="-2.419304">
        <ele>1081.4</ele>
        <time>2023-02-11T12:56:12.000Z</time>
      </trkpt>
      <trkpt lat="41.762311" lon="-2.419434">
        <ele>1081</ele>
        <time>2023-02-11T12:56:13.000Z</time>
      </trkpt>
      <trkpt lat="41.762297" lon="-2.419566">
        <ele>1080.8</ele>
        <time>2023-02-11T12:56:14.000Z</time>
      </trkpt>
      <trkpt lat="41.762287" lon="-2.419697">
        <ele>1080.2</ele>
        <time>2023-02-11T12:56:15.000Z</time>
      </trkpt>
      <trkpt lat="41.762283" lon="-2.41983">
        <ele>1080.2</ele>
        <time>2023-02-11T12:56:16.000Z</time>
      </trkpt>
      <trkpt lat="41.762281" lon="-2.419968">
        <ele>1079.8</ele>
        <time>2023-02-11T12:56:17.000Z</time>
      </trkpt>
      <trkpt lat="41.762282" lon="-2.420112">
        <ele>1079.4</ele>
        <time>2023-02-11T12:56:18.000Z</time>
      </trkpt>
      <trkpt lat="41.762286" lon="-2.420261">
        <ele>1079</ele>
        <time>2023-02-11T12:56:19.000Z</time>
      </trkpt>
      <trkpt lat="41.762291" lon="-2.420413">
        <ele>1078.8</ele>
        <time>2023-02-11T12:56:20.000Z</time>
      </trkpt>
      <trkpt lat="41.762295" lon="-2.420568">
        <ele>1078.4</ele>
        <time>2023-02-11T12:56:21.000Z</time>
      </trkpt>
      <trkpt lat="41.762299" lon="-2.420726">
        <ele>1078.2</ele>
        <time>2023-02-11T12:56:22.000Z</time>
      </trkpt>
      <trkpt lat="41.762302" lon="-2.420884">
        <ele>1077.8</ele>
        <time>2023-02-11T12:56:23.000Z</time>
      </trkpt>
      <trkpt lat="41.762307" lon="-2.421042">
        <ele>1077.4</ele>
        <time>2023-02-11T12:56:24.000Z</time>
      </trkpt>
      <trkpt lat="41.762312" lon="-2.421203">
        <ele>1077.4</ele>
        <time>2023-02-11T12:56:25.000Z</time>
      </trkpt>
      <trkpt lat="41.762316" lon="-2.421366">
        <ele>1077.2</ele>
        <time>2023-02-11T12:56:26.000Z</time>
      </trkpt>
      <trkpt lat="41.762318" lon="-2.421531">
        <ele>1076.8</ele>
        <time>2023-02-11T12:56:27.000Z</time>
      </trkpt>
      <trkpt lat="41.762319" lon="-2.421697">
        <ele>1076.2</ele>
        <time>2023-02-11T12:56:28.000Z</time>
      </trkpt>
      <trkpt lat="41.762316" lon="-2.421863">
        <ele>1076</ele>
        <time>2023-02-11T12:56:29.000Z</time>
      </trkpt>
      <trkpt lat="41.762311" lon="-2.422028">
        <ele>1074.8</ele>
        <time>2023-02-11T12:56:30.000Z</time>
      </trkpt>
      <trkpt lat="41.762302" lon="-2.422189">
        <ele>1074.8</ele>
        <time>2023-02-11T12:56:31.000Z</time>
      </trkpt>
      <trkpt lat="41.762292" lon="-2.422348">
        <ele>1074</ele>
        <time>2023-02-11T12:56:32.000Z</time>
      </trkpt>
      <trkpt lat="41.76228" lon="-2.422508">
        <ele>1073.6</ele>
        <time>2023-02-11T12:56:33.000Z</time>
      </trkpt>
      <trkpt lat="41.762264" lon="-2.422667">
        <ele>1073.2</ele>
        <time>2023-02-11T12:56:34.000Z</time>
      </trkpt>
      <trkpt lat="41.762246" lon="-2.422825">
        <ele>1073</ele>
        <time>2023-02-11T12:56:35.000Z</time>
      </trkpt>
      <trkpt lat="41.762224" lon="-2.422983">
        <ele>1072.6</ele>
        <time>2023-02-11T12:56:36.000Z</time>
      </trkpt>
      <trkpt lat="41.762198" lon="-2.42314">
        <ele>1071.8</ele>
        <time>2023-02-11T12:56:37.000Z</time>
      </trkpt>
      <trkpt lat="41.76217" lon="-2.423297">
        <ele>1071.6</ele>
        <time>2023-02-11T12:56:38.000Z</time>
      </trkpt>
      <trkpt lat="41.76214" lon="-2.423453">
        <ele>1070.8</ele>
        <time>2023-02-11T12:56:39.000Z</time>
      </trkpt>
      <trkpt lat="41.76211" lon="-2.423605">
        <ele>1070.4</ele>
        <time>2023-02-11T12:56:40.000Z</time>
      </trkpt>
      <trkpt lat="41.762083" lon="-2.423758">
        <ele>1070</ele>
        <time>2023-02-11T12:56:41.000Z</time>
      </trkpt>
      <trkpt lat="41.762055" lon="-2.423911">
        <ele>1069.4</ele>
        <time>2023-02-11T12:56:42.000Z</time>
      </trkpt>
      <trkpt lat="41.762026" lon="-2.424064">
        <ele>1069.2</ele>
        <time>2023-02-11T12:56:43.000Z</time>
      </trkpt>
      <trkpt lat="41.762" lon="-2.424217">
        <ele>1068.6</ele>
        <time>2023-02-11T12:56:44.000Z</time>
      </trkpt>
      <trkpt lat="41.761981" lon="-2.424369">
        <ele>1068.2</ele>
        <time>2023-02-11T12:56:45.000Z</time>
      </trkpt>
      <trkpt lat="41.761966" lon="-2.424519">
        <ele>1067.6</ele>
        <time>2023-02-11T12:56:46.000Z</time>
      </trkpt>
      <trkpt lat="41.761954" lon="-2.424667">
        <ele>1067.2</ele>
        <time>2023-02-11T12:56:47.000Z</time>
      </trkpt>
      <trkpt lat="41.761945" lon="-2.424817">
        <ele>1067</ele>
        <time>2023-02-11T12:56:48.000Z</time>
      </trkpt>
      <trkpt lat="41.761938" lon="-2.424965">
        <ele>1067</ele>
        <time>2023-02-11T12:56:49.000Z</time>
      </trkpt>
      <trkpt lat="41.761935" lon="-2.425112">
        <ele>1066.6</ele>
        <time>2023-02-11T12:56:50.000Z</time>
      </trkpt>
      <trkpt lat="41.761937" lon="-2.425259">
        <ele>1066.4</ele>
        <time>2023-02-11T12:56:51.000Z</time>
      </trkpt>
      <trkpt lat="41.761942" lon="-2.425406">
        <ele>1066.2</ele>
        <time>2023-02-11T12:56:52.000Z</time>
      </trkpt>
      <trkpt lat="41.761951" lon="-2.425553">
        <ele>1066</ele>
        <time>2023-02-11T12:56:53.000Z</time>
      </trkpt>
      <trkpt lat="41.761964" lon="-2.425701">
        <ele>1066</ele>
        <time>2023-02-11T12:56:54.000Z</time>
      </trkpt>
      <trkpt lat="41.761983" lon="-2.425849">
        <ele>1065.8</ele>
        <time>2023-02-11T12:56:55.000Z</time>
      </trkpt>
      <trkpt lat="41.762005" lon="-2.425996">
        <ele>1065.4</ele>
        <time>2023-02-11T12:56:56.000Z</time>
      </trkpt>
      <trkpt lat="41.762026" lon="-2.426143">
        <ele>1065.2</ele>
        <time>2023-02-11T12:56:57.000Z</time>
      </trkpt>
      <trkpt lat="41.762046" lon="-2.426288">
        <ele>1065</ele>
        <time>2023-02-11T12:56:58.000Z</time>
      </trkpt>
      <trkpt lat="41.762065" lon="-2.426433">
        <ele>1064.6</ele>
        <time>2023-02-11T12:56:59.000Z</time>
      </trkpt>
      <trkpt lat="41.762085" lon="-2.426577">
        <ele>1064.6</ele>
        <time>2023-02-11T12:57:00.000Z</time>
      </trkpt>
      <trkpt lat="41.762105" lon="-2.426724">
        <ele>1064.2</ele>
        <time>2023-02-11T12:57:01.000Z</time>
      </trkpt>
      <trkpt lat="41.762125" lon="-2.42687">
        <ele>1064</ele>
        <time>2023-02-11T12:57:02.000Z</time>
      </trkpt>
      <trkpt lat="41.762141" lon="-2.427018">
        <ele>1063.8</ele>
        <time>2023-02-11T12:57:03.000Z</time>
      </trkpt>
      <trkpt lat="41.762155" lon="-2.427164">
        <ele>1063.6</ele>
        <time>2023-02-11T12:57:04.000Z</time>
      </trkpt>
      <trkpt lat="41.762166" lon="-2.427313">
        <ele>1063.6</ele>
        <time>2023-02-11T12:57:05.000Z</time>
      </trkpt>
      <trkpt lat="41.762175" lon="-2.427459">
        <ele>1063.4</ele>
        <time>2023-02-11T12:57:06.000Z</time>
      </trkpt>
      <trkpt lat="41.76218" lon="-2.427604">
        <ele>1063</ele>
        <time>2023-02-11T12:57:07.000Z</time>
      </trkpt>
      <trkpt lat="41.762179" lon="-2.42775">
        <ele>1062.6</ele>
        <time>2023-02-11T12:57:08.000Z</time>
      </trkpt>
      <trkpt lat="41.762172" lon="-2.427899">
        <ele>1062.6</ele>
        <time>2023-02-11T12:57:09.000Z</time>
      </trkpt>
      <trkpt lat="41.762164" lon="-2.428046">
        <ele>1062.2</ele>
        <time>2023-02-11T12:57:10.000Z</time>
      </trkpt>
      <trkpt lat="41.762153" lon="-2.428193">
        <ele>1062</ele>
        <time>2023-02-11T12:57:11.000Z</time>
      </trkpt>
      <trkpt lat="41.762139" lon="-2.428344">
        <ele>1061.8</ele>
        <time>2023-02-11T12:57:12.000Z</time>
      </trkpt>
      <trkpt lat="41.762124" lon="-2.428494">
        <ele>1061.8</ele>
        <time>2023-02-11T12:57:13.000Z</time>
      </trkpt>
      <trkpt lat="41.762106" lon="-2.428645">
        <ele>1061.6</ele>
        <time>2023-02-11T12:57:14.000Z</time>
      </trkpt>
      <trkpt lat="41.762086" lon="-2.428798">
        <ele>1061.4</ele>
        <time>2023-02-11T12:57:15.000Z</time>
      </trkpt>
      <trkpt lat="41.762066" lon="-2.428945">
        <ele>1061.4</ele>
        <time>2023-02-11T12:57:16.000Z</time>
      </trkpt>
      <trkpt lat="41.762046" lon="-2.429095">
        <ele>1061.2</ele>
        <time>2023-02-11T12:57:17.000Z</time>
      </trkpt>
      <trkpt lat="41.762024" lon="-2.429248">
        <ele>1061.2</ele>
        <time>2023-02-11T12:57:18.000Z</time>
      </trkpt>
      <trkpt lat="41.761999" lon="-2.429401">
        <ele>1061</ele>
        <time>2023-02-11T12:57:19.000Z</time>
      </trkpt>
      <trkpt lat="41.761974" lon="-2.429555">
        <ele>1060.8</ele>
        <time>2023-02-11T12:57:20.000Z</time>
      </trkpt>
      <trkpt lat="41.76195" lon="-2.429711">
        <ele>1060.8</ele>
        <time>2023-02-11T12:57:21.000Z</time>
      </trkpt>
      <trkpt lat="41.761926" lon="-2.429864">
        <ele>1060.6</ele>
        <time>2023-02-11T12:57:22.000Z</time>
      </trkpt>
      <trkpt lat="41.761902" lon="-2.430019">
        <ele>1060.6</ele>
        <time>2023-02-11T12:57:23.000Z</time>
      </trkpt>
      <trkpt lat="41.761877" lon="-2.430176">
        <ele>1060.4</ele>
        <time>2023-02-11T12:57:24.000Z</time>
      </trkpt>
      <trkpt lat="41.761855" lon="-2.43033">
        <ele>1060.2</ele>
        <time>2023-02-11T12:57:25.000Z</time>
      </trkpt>
      <trkpt lat="41.761831" lon="-2.430482">
        <ele>1059.8</ele>
        <time>2023-02-11T12:57:26.000Z</time>
      </trkpt>
      <trkpt lat="41.761806" lon="-2.430633">
        <ele>1059.6</ele>
        <time>2023-02-11T12:57:27.000Z</time>
      </trkpt>
      <trkpt lat="41.761781" lon="-2.430782">
        <ele>1059.2</ele>
        <time>2023-02-11T12:57:28.000Z</time>
      </trkpt>
      <trkpt lat="41.761758" lon="-2.430933">
        <ele>1059</ele>
        <time>2023-02-11T12:57:29.000Z</time>
      </trkpt>
      <trkpt lat="41.761734" lon="-2.431084">
        <ele>1058.6</ele>
        <time>2023-02-11T12:57:30.000Z</time>
      </trkpt>
      <trkpt lat="41.761707" lon="-2.431238">
        <ele>1058.4</ele>
        <time>2023-02-11T12:57:31.000Z</time>
      </trkpt>
      <trkpt lat="41.76168" lon="-2.431392">
        <ele>1058.4</ele>
        <time>2023-02-11T12:57:32.000Z</time>
      </trkpt>
      <trkpt lat="41.761656" lon="-2.431548">
        <ele>1058</ele>
        <time>2023-02-11T12:57:33.000Z</time>
      </trkpt>
      <trkpt lat="41.761631" lon="-2.431705">
        <ele>1057.8</ele>
        <time>2023-02-11T12:57:34.000Z</time>
      </trkpt>
      <trkpt lat="41.761606" lon="-2.431864">
        <ele>1057.4</ele>
        <time>2023-02-11T12:57:35.000Z</time>
      </trkpt>
      <trkpt lat="41.761582" lon="-2.432025">
        <ele>1057.4</ele>
        <time>2023-02-11T12:57:36.000Z</time>
      </trkpt>
      <trkpt lat="41.761561" lon="-2.432188">
        <ele>1057.2</ele>
        <time>2023-02-11T12:57:37.000Z</time>
      </trkpt>
      <trkpt lat="41.761542" lon="-2.432353">
        <ele>1057.2</ele>
        <time>2023-02-11T12:57:38.000Z</time>
      </trkpt>
      <trkpt lat="41.761525" lon="-2.432519">
        <ele>1057.2</ele>
        <time>2023-02-11T12:57:39.000Z</time>
      </trkpt>
      <trkpt lat="41.76151" lon="-2.432687">
        <ele>1057</ele>
        <time>2023-02-11T12:57:40.000Z</time>
      </trkpt>
      <trkpt lat="41.761499" lon="-2.432853">
        <ele>1056.8</ele>
        <time>2023-02-11T12:57:41.000Z</time>
      </trkpt>
      <trkpt lat="41.761494" lon="-2.433018">
        <ele>1056.6</ele>
        <time>2023-02-11T12:57:42.000Z</time>
      </trkpt>
      <trkpt lat="41.761495" lon="-2.433182">
        <ele>1056.6</ele>
        <time>2023-02-11T12:57:43.000Z</time>
      </trkpt>
      <trkpt lat="41.761499" lon="-2.433344">
        <ele>1056.2</ele>
        <time>2023-02-11T12:57:44.000Z</time>
      </trkpt>
      <trkpt lat="41.761509" lon="-2.433507">
        <ele>1056.2</ele>
        <time>2023-02-11T12:57:45.000Z</time>
      </trkpt>
      <trkpt lat="41.761521" lon="-2.433669">
        <ele>1056</ele>
        <time>2023-02-11T12:57:46.000Z</time>
      </trkpt>
      <trkpt lat="41.761534" lon="-2.43383">
        <ele>1056</ele>
        <time>2023-02-11T12:57:47.000Z</time>
      </trkpt>
      <trkpt lat="41.76155" lon="-2.433992">
        <ele>1055.6</ele>
        <time>2023-02-11T12:57:48.000Z</time>
      </trkpt>
      <trkpt lat="41.761568" lon="-2.434151">
        <ele>1055.4</ele>
        <time>2023-02-11T12:57:49.000Z</time>
      </trkpt>
      <trkpt lat="41.761587" lon="-2.434312">
        <ele>1055</ele>
        <time>2023-02-11T12:57:50.000Z</time>
      </trkpt>
      <trkpt lat="41.761606" lon="-2.434473">
        <ele>1054.6</ele>
        <time>2023-02-11T12:57:51.000Z</time>
      </trkpt>
      <trkpt lat="41.761627" lon="-2.434635">
        <ele>1054.6</ele>
        <time>2023-02-11T12:57:52.000Z</time>
      </trkpt>
      <trkpt lat="41.761651" lon="-2.434797">
        <ele>1054.4</ele>
        <time>2023-02-11T12:57:53.000Z</time>
      </trkpt>
      <trkpt lat="41.761676" lon="-2.434956">
        <ele>1054.2</ele>
        <time>2023-02-11T12:57:54.000Z</time>
      </trkpt>
      <trkpt lat="41.761703" lon="-2.435117">
        <ele>1054</ele>
        <time>2023-02-11T12:57:55.000Z</time>
      </trkpt>
      <trkpt lat="41.76173" lon="-2.435278">
        <ele>1054</ele>
        <time>2023-02-11T12:57:56.000Z</time>
      </trkpt>
      <trkpt lat="41.761757" lon="-2.435444">
        <ele>1053.8</ele>
        <time>2023-02-11T12:57:57.000Z</time>
      </trkpt>
      <trkpt lat="41.761784" lon="-2.43561">
        <ele>1053.8</ele>
        <time>2023-02-11T12:57:58.000Z</time>
      </trkpt>
      <trkpt lat="41.761807" lon="-2.435778">
        <ele>1053.6</ele>
        <time>2023-02-11T12:57:59.000Z</time>
      </trkpt>
      <trkpt lat="41.761826" lon="-2.435946">
        <ele>1053.4</ele>
        <time>2023-02-11T12:58:00.000Z</time>
      </trkpt>
      <trkpt lat="41.761837" lon="-2.436117">
        <ele>1052.8</ele>
        <time>2023-02-11T12:58:01.000Z</time>
      </trkpt>
      <trkpt lat="41.761848" lon="-2.436289">
        <ele>1052.4</ele>
        <time>2023-02-11T12:58:02.000Z</time>
      </trkpt>
      <trkpt lat="41.761856" lon="-2.43646">
        <ele>1052.2</ele>
        <time>2023-02-11T12:58:03.000Z</time>
      </trkpt>
      <trkpt lat="41.76186" lon="-2.43663">
        <ele>1051.8</ele>
        <time>2023-02-11T12:58:04.000Z</time>
      </trkpt>
      <trkpt lat="41.761855" lon="-2.436802">
        <ele>1051.6</ele>
        <time>2023-02-11T12:58:05.000Z</time>
      </trkpt>
      <trkpt lat="41.761848" lon="-2.436969">
        <ele>1051.4</ele>
        <time>2023-02-11T12:58:06.000Z</time>
      </trkpt>
      <trkpt lat="41.761838" lon="-2.437139">
        <ele>1051.2</ele>
        <time>2023-02-11T12:58:07.000Z</time>
      </trkpt>
      <trkpt lat="41.761829" lon="-2.437307">
        <ele>1050.8</ele>
        <time>2023-02-11T12:58:08.000Z</time>
      </trkpt>
      <trkpt lat="41.761819" lon="-2.437474">
        <ele>1050.4</ele>
        <time>2023-02-11T12:58:09.000Z</time>
      </trkpt>
      <trkpt lat="41.761808" lon="-2.437641">
        <ele>1050</ele>
        <time>2023-02-11T12:58:10.000Z</time>
      </trkpt>
      <trkpt lat="41.761796" lon="-2.43781">
        <ele>1049.8</ele>
        <time>2023-02-11T12:58:11.000Z</time>
      </trkpt>
      <trkpt lat="41.761782" lon="-2.43798">
        <ele>1049.6</ele>
        <time>2023-02-11T12:58:12.000Z</time>
      </trkpt>
      <trkpt lat="41.761768" lon="-2.438149">
        <ele>1049.2</ele>
        <time>2023-02-11T12:58:13.000Z</time>
      </trkpt>
      <trkpt lat="41.761753" lon="-2.438319">
        <ele>1049</ele>
        <time>2023-02-11T12:58:14.000Z</time>
      </trkpt>
      <trkpt lat="41.761737" lon="-2.438489">
        <ele>1048.6</ele>
        <time>2023-02-11T12:58:15.000Z</time>
      </trkpt>
      <trkpt lat="41.761722" lon="-2.438656">
        <ele>1048.6</ele>
        <time>2023-02-11T12:58:16.000Z</time>
      </trkpt>
      <trkpt lat="41.761709" lon="-2.438821">
        <ele>1048.2</ele>
        <time>2023-02-11T12:58:17.000Z</time>
      </trkpt>
      <trkpt lat="41.761695" lon="-2.438986">
        <ele>1048</ele>
        <time>2023-02-11T12:58:18.000Z</time>
      </trkpt>
      <trkpt lat="41.761681" lon="-2.439151">
        <ele>1047.6</ele>
        <time>2023-02-11T12:58:19.000Z</time>
      </trkpt>
      <trkpt lat="41.761668" lon="-2.439316">
        <ele>1047</ele>
        <time>2023-02-11T12:58:20.000Z</time>
      </trkpt>
      <trkpt lat="41.761654" lon="-2.439482">
        <ele>1046.8</ele>
        <time>2023-02-11T12:58:21.000Z</time>
      </trkpt>
      <trkpt lat="41.761638" lon="-2.439649">
        <ele>1046.4</ele>
        <time>2023-02-11T12:58:22.000Z</time>
      </trkpt>
      <trkpt lat="41.761626" lon="-2.439815">
        <ele>1046</ele>
        <time>2023-02-11T12:58:23.000Z</time>
      </trkpt>
      <trkpt lat="41.761612" lon="-2.439977">
        <ele>1045.6</ele>
        <time>2023-02-11T12:58:24.000Z</time>
      </trkpt>
      <trkpt lat="41.761599" lon="-2.440138">
        <ele>1045.4</ele>
        <time>2023-02-11T12:58:25.000Z</time>
      </trkpt>
      <trkpt lat="41.761588" lon="-2.440298">
        <ele>1045</ele>
        <time>2023-02-11T12:58:26.000Z</time>
      </trkpt>
      <trkpt lat="41.76158" lon="-2.440455">
        <ele>1045</ele>
        <time>2023-02-11T12:58:27.000Z</time>
      </trkpt>
      <trkpt lat="41.761576" lon="-2.440616">
        <ele>1044.6</ele>
        <time>2023-02-11T12:58:28.000Z</time>
      </trkpt>
      <trkpt lat="41.761573" lon="-2.440779">
        <ele>1044.6</ele>
        <time>2023-02-11T12:58:29.000Z</time>
      </trkpt>
      <trkpt lat="41.761576" lon="-2.440944">
        <ele>1044.4</ele>
        <time>2023-02-11T12:58:30.000Z</time>
      </trkpt>
      <trkpt lat="41.761585" lon="-2.44111">
        <ele>1044.2</ele>
        <time>2023-02-11T12:58:31.000Z</time>
      </trkpt>
      <trkpt lat="41.761599" lon="-2.441275">
        <ele>1044.2</ele>
        <time>2023-02-11T12:58:32.000Z</time>
      </trkpt>
      <trkpt lat="41.761618" lon="-2.441444">
        <ele>1044</ele>
        <time>2023-02-11T12:58:33.000Z</time>
      </trkpt>
      <trkpt lat="41.761639" lon="-2.441616">
        <ele>1044</ele>
        <time>2023-02-11T12:58:34.000Z</time>
      </trkpt>
      <trkpt lat="41.761667" lon="-2.441787">
        <ele>1044</ele>
        <time>2023-02-11T12:58:35.000Z</time>
      </trkpt>
      <trkpt lat="41.761699" lon="-2.441958">
        <ele>1043.8</ele>
        <time>2023-02-11T12:58:36.000Z</time>
      </trkpt>
      <trkpt lat="41.761731" lon="-2.442131">
        <ele>1043.8</ele>
        <time>2023-02-11T12:58:37.000Z</time>
      </trkpt>
      <trkpt lat="41.761766" lon="-2.442305">
        <ele>1043.8</ele>
        <time>2023-02-11T12:58:38.000Z</time>
      </trkpt>
      <trkpt lat="41.761803" lon="-2.442477">
        <ele>1043.6</ele>
        <time>2023-02-11T12:58:39.000Z</time>
      </trkpt>
      <trkpt lat="41.761843" lon="-2.442649">
        <ele>1043.4</ele>
        <time>2023-02-11T12:58:40.000Z</time>
      </trkpt>
      <trkpt lat="41.761881" lon="-2.442822">
        <ele>1043.2</ele>
        <time>2023-02-11T12:58:41.000Z</time>
      </trkpt>
      <trkpt lat="41.761918" lon="-2.442997">
        <ele>1042.8</ele>
        <time>2023-02-11T12:58:42.000Z</time>
      </trkpt>
      <trkpt lat="41.761952" lon="-2.443171">
        <ele>1042.8</ele>
        <time>2023-02-11T12:58:43.000Z</time>
      </trkpt>
      <trkpt lat="41.761984" lon="-2.443345">
        <ele>1042.4</ele>
        <time>2023-02-11T12:58:44.000Z</time>
      </trkpt>
      <trkpt lat="41.762014" lon="-2.443518">
        <ele>1042.4</ele>
        <time>2023-02-11T12:58:45.000Z</time>
      </trkpt>
      <trkpt lat="41.762042" lon="-2.443695">
        <ele>1041.6</ele>
        <time>2023-02-11T12:58:46.000Z</time>
      </trkpt>
      <trkpt lat="41.762064" lon="-2.443873">
        <ele>1041.4</ele>
        <time>2023-02-11T12:58:47.000Z</time>
      </trkpt>
      <trkpt lat="41.76208" lon="-2.444052">
        <ele>1041</ele>
        <time>2023-02-11T12:58:48.000Z</time>
      </trkpt>
      <trkpt lat="41.762094" lon="-2.444233">
        <ele>1040.4</ele>
        <time>2023-02-11T12:58:49.000Z</time>
      </trkpt>
      <trkpt lat="41.762107" lon="-2.444412">
        <ele>1040</ele>
        <time>2023-02-11T12:58:50.000Z</time>
      </trkpt>
      <trkpt lat="41.762115" lon="-2.444591">
        <ele>1039.4</ele>
        <time>2023-02-11T12:58:51.000Z</time>
      </trkpt>
      <trkpt lat="41.762123" lon="-2.444765">
        <ele>1039.4</ele>
        <time>2023-02-11T12:58:52.000Z</time>
      </trkpt>
      <trkpt lat="41.762129" lon="-2.444934">
        <ele>1038.6</ele>
        <time>2023-02-11T12:58:53.000Z</time>
      </trkpt>
      <trkpt lat="41.762132" lon="-2.445105">
        <ele>1038.2</ele>
        <time>2023-02-11T12:58:54.000Z</time>
      </trkpt>
      <trkpt lat="41.762134" lon="-2.445275">
        <ele>1038</ele>
        <time>2023-02-11T12:58:55.000Z</time>
      </trkpt>
      <trkpt lat="41.762137" lon="-2.445444">
        <ele>1037.8</ele>
        <time>2023-02-11T12:58:56.000Z</time>
      </trkpt>
      <trkpt lat="41.762143" lon="-2.445613">
        <ele>1037.2</ele>
        <time>2023-02-11T12:58:57.000Z</time>
      </trkpt>
      <trkpt lat="41.762145" lon="-2.445785">
        <ele>1037</ele>
        <time>2023-02-11T12:58:58.000Z</time>
      </trkpt>
      <trkpt lat="41.76214" lon="-2.44596">
        <ele>1036.6</ele>
        <time>2023-02-11T12:58:59.000Z</time>
      </trkpt>
      <trkpt lat="41.762132" lon="-2.446135">
        <ele>1036.2</ele>
        <time>2023-02-11T12:59:00.000Z</time>
      </trkpt>
      <trkpt lat="41.762125" lon="-2.446312">
        <ele>1036.2</ele>
        <time>2023-02-11T12:59:01.000Z</time>
      </trkpt>
      <trkpt lat="41.762117" lon="-2.446489">
        <ele>1036</ele>
        <time>2023-02-11T12:59:02.000Z</time>
      </trkpt>
      <trkpt lat="41.762106" lon="-2.446666">
        <ele>1035.8</ele>
        <time>2023-02-11T12:59:03.000Z</time>
      </trkpt>
      <trkpt lat="41.762095" lon="-2.446836">
        <ele>1035.8</ele>
        <time>2023-02-11T12:59:04.000Z</time>
      </trkpt>
      <trkpt lat="41.762088" lon="-2.447006">
        <ele>1035.6</ele>
        <time>2023-02-11T12:59:05.000Z</time>
      </trkpt>
      <trkpt lat="41.762085" lon="-2.447173">
        <ele>1035.2</ele>
        <time>2023-02-11T12:59:06.000Z</time>
      </trkpt>
      <trkpt lat="41.762089" lon="-2.447336">
        <ele>1035</ele>
        <time>2023-02-11T12:59:07.000Z</time>
      </trkpt>
      <trkpt lat="41.762099" lon="-2.447494">
        <ele>1034.8</ele>
        <time>2023-02-11T12:59:08.000Z</time>
      </trkpt>
      <trkpt lat="41.762112" lon="-2.44765">
        <ele>1034.4</ele>
        <time>2023-02-11T12:59:09.000Z</time>
      </trkpt>
      <trkpt lat="41.762127" lon="-2.447803">
        <ele>1034.4</ele>
        <time>2023-02-11T12:59:10.000Z</time>
      </trkpt>
      <trkpt lat="41.762143" lon="-2.447954">
        <ele>1034.4</ele>
        <time>2023-02-11T12:59:11.000Z</time>
      </trkpt>
      <trkpt lat="41.762157" lon="-2.448103">
        <ele>1034.2</ele>
        <time>2023-02-11T12:59:12.000Z</time>
      </trkpt>
      <trkpt lat="41.762171" lon="-2.448251">
        <ele>1034</ele>
        <time>2023-02-11T12:59:13.000Z</time>
      </trkpt>
      <trkpt lat="41.762185" lon="-2.448398">
        <ele>1033.6</ele>
        <time>2023-02-11T12:59:14.000Z</time>
      </trkpt>
      <trkpt lat="41.762202" lon="-2.448545">
        <ele>1033</ele>
        <time>2023-02-11T12:59:15.000Z</time>
      </trkpt>
      <trkpt lat="41.762221" lon="-2.448693">
        <ele>1033</ele>
        <time>2023-02-11T12:59:16.000Z</time>
      </trkpt>
      <trkpt lat="41.762245" lon="-2.44884">
        <ele>1032.8</ele>
        <time>2023-02-11T12:59:17.000Z</time>
      </trkpt>
      <trkpt lat="41.762273" lon="-2.448988">
        <ele>1032.8</ele>
        <time>2023-02-11T12:59:18.000Z</time>
      </trkpt>
      <trkpt lat="41.762301" lon="-2.449134">
        <ele>1032.6</ele>
        <time>2023-02-11T12:59:19.000Z</time>
      </trkpt>
      <trkpt lat="41.762328" lon="-2.449279">
        <ele>1032.4</ele>
        <time>2023-02-11T12:59:20.000Z</time>
      </trkpt>
      <trkpt lat="41.762358" lon="-2.449425">
        <ele>1032.2</ele>
        <time>2023-02-11T12:59:21.000Z</time>
      </trkpt>
      <trkpt lat="41.762388" lon="-2.449571">
        <ele>1032</ele>
        <time>2023-02-11T12:59:22.000Z</time>
      </trkpt>
      <trkpt lat="41.762423" lon="-2.449716">
        <ele>1032</ele>
        <time>2023-02-11T12:59:23.000Z</time>
      </trkpt>
      <trkpt lat="41.762464" lon="-2.44986">
        <ele>1031.8</ele>
        <time>2023-02-11T12:59:24.000Z</time>
      </trkpt>
      <trkpt lat="41.762511" lon="-2.449997">
        <ele>1031.8</ele>
        <time>2023-02-11T12:59:25.000Z</time>
      </trkpt>
      <trkpt lat="41.762564" lon="-2.450128">
        <ele>1031.8</ele>
        <time>2023-02-11T12:59:26.000Z</time>
      </trkpt>
      <trkpt lat="41.762619" lon="-2.450256">
        <ele>1031.8</ele>
        <time>2023-02-11T12:59:27.000Z</time>
      </trkpt>
      <trkpt lat="41.762675" lon="-2.450379">
        <ele>1031.6</ele>
        <time>2023-02-11T12:59:28.000Z</time>
      </trkpt>
      <trkpt lat="41.762732" lon="-2.450503">
        <ele>1031.6</ele>
        <time>2023-02-11T12:59:29.000Z</time>
      </trkpt>
      <trkpt lat="41.762794" lon="-2.450626">
        <ele>1031.4</ele>
        <time>2023-02-11T12:59:30.000Z</time>
      </trkpt>
      <trkpt lat="41.762859" lon="-2.450749">
        <ele>1031.2</ele>
        <time>2023-02-11T12:59:31.000Z</time>
      </trkpt>
      <trkpt lat="41.762925" lon="-2.450873">
        <ele>1031.2</ele>
        <time>2023-02-11T12:59:32.000Z</time>
      </trkpt>
      <trkpt lat="41.762989" lon="-2.450996">
        <ele>1031.2</ele>
        <time>2023-02-11T12:59:33.000Z</time>
      </trkpt>
      <trkpt lat="41.763053" lon="-2.451123">
        <ele>1031.2</ele>
        <time>2023-02-11T12:59:34.000Z</time>
      </trkpt>
      <trkpt lat="41.763111" lon="-2.451252">
        <ele>1030.8</ele>
        <time>2023-02-11T12:59:35.000Z</time>
      </trkpt>
      <trkpt lat="41.763164" lon="-2.451387">
        <ele>1030.6</ele>
        <time>2023-02-11T12:59:36.000Z</time>
      </trkpt>
      <trkpt lat="41.763213" lon="-2.451525">
        <ele>1030.4</ele>
        <time>2023-02-11T12:59:37.000Z</time>
      </trkpt>
      <trkpt lat="41.763259" lon="-2.451664">
        <ele>1030.2</ele>
        <time>2023-02-11T12:59:38.000Z</time>
      </trkpt>
      <trkpt lat="41.763303" lon="-2.451802">
        <ele>1030</ele>
        <time>2023-02-11T12:59:39.000Z</time>
      </trkpt>
      <trkpt lat="41.763346" lon="-2.451938">
        <ele>1029.6</ele>
        <time>2023-02-11T12:59:40.000Z</time>
      </trkpt>
      <trkpt lat="41.763392" lon="-2.452071">
        <ele>1029.6</ele>
        <time>2023-02-11T12:59:41.000Z</time>
      </trkpt>
      <trkpt lat="41.763439" lon="-2.452201">
        <ele>1028.8</ele>
        <time>2023-02-11T12:59:42.000Z</time>
      </trkpt>
      <trkpt lat="41.763488" lon="-2.452325">
        <ele>1028.6</ele>
        <time>2023-02-11T12:59:43.000Z</time>
      </trkpt>
      <trkpt lat="41.763546" lon="-2.452439">
        <ele>1028</ele>
        <time>2023-02-11T12:59:44.000Z</time>
      </trkpt>
      <trkpt lat="41.763612" lon="-2.452548">
        <ele>1027.8</ele>
        <time>2023-02-11T12:59:45.000Z</time>
      </trkpt>
      <trkpt lat="41.763682" lon="-2.452651">
        <ele>1027.4</ele>
        <time>2023-02-11T12:59:46.000Z</time>
      </trkpt>
      <trkpt lat="41.763758" lon="-2.452746">
        <ele>1027.4</ele>
        <time>2023-02-11T12:59:47.000Z</time>
      </trkpt>
      <trkpt lat="41.763844" lon="-2.452821">
        <ele>1027.2</ele>
        <time>2023-02-11T12:59:48.000Z</time>
      </trkpt>
      <trkpt lat="41.763937" lon="-2.452878">
        <ele>1027</ele>
        <time>2023-02-11T12:59:49.000Z</time>
      </trkpt>
      <trkpt lat="41.76403" lon="-2.452919">
        <ele>1026.8</ele>
        <time>2023-02-11T12:59:50.000Z</time>
      </trkpt>
      <trkpt lat="41.764126" lon="-2.452951">
        <ele>1026.6</ele>
        <time>2023-02-11T12:59:51.000Z</time>
      </trkpt>
      <trkpt lat="41.764222" lon="-2.452977">
        <ele>1026.6</ele>
        <time>2023-02-11T12:59:52.000Z</time>
      </trkpt>
      <trkpt lat="41.764319" lon="-2.452992">
        <ele>1026.4</ele>
        <time>2023-02-11T12:59:53.000Z</time>
      </trkpt>
      <trkpt lat="41.764416" lon="-2.453002">
        <ele>1026.4</ele>
        <time>2023-02-11T12:59:54.000Z</time>
      </trkpt>
      <trkpt lat="41.764512" lon="-2.453014">
        <ele>1026.4</ele>
        <time>2023-02-11T12:59:55.000Z</time>
      </trkpt>
      <trkpt lat="41.764608" lon="-2.453022">
        <ele>1026.4</ele>
        <time>2023-02-11T12:59:56.000Z</time>
      </trkpt>
      <trkpt lat="41.764702" lon="-2.453029">
        <ele>1026.4</ele>
        <time>2023-02-11T12:59:57.000Z</time>
      </trkpt>
      <trkpt lat="41.764793" lon="-2.453035">
        <ele>1026.4</ele>
        <time>2023-02-11T12:59:58.000Z</time>
      </trkpt>
      <trkpt lat="41.764882" lon="-2.453038">
        <ele>1026.4</ele>
        <time>2023-02-11T12:59:59.000Z</time>
      </trkpt>
      <trkpt lat="41.764975" lon="-2.45304">
        <ele>1026.4</ele>
        <time>2023-02-11T13:00:00.000Z</time>
      </trkpt>
      <trkpt lat="41.765067" lon="-2.453041">
        <ele>1026.4</ele>
        <time>2023-02-11T13:00:01.000Z</time>
      </trkpt>
      <trkpt lat="41.765159" lon="-2.453039">
        <ele>1026.4</ele>
        <time>2023-02-11T13:00:02.000Z</time>
      </trkpt>
      <trkpt lat="41.765248" lon="-2.453031">
        <ele>1026.4</ele>
        <time>2023-02-11T13:00:03.000Z</time>
      </trkpt>
      <trkpt lat="41.765338" lon="-2.453018">
        <ele>1026.4</ele>
        <time>2023-02-11T13:00:04.000Z</time>
      </trkpt>
      <trkpt lat="41.765427" lon="-2.453005">
        <ele>1026.4</ele>
        <time>2023-02-11T13:00:05.000Z</time>
      </trkpt>
      <trkpt lat="41.765518" lon="-2.452987">
        <ele>1026.8</ele>
        <time>2023-02-11T13:00:06.000Z</time>
      </trkpt>
      <trkpt lat="41.765605" lon="-2.45297">
        <ele>1026.6</ele>
        <time>2023-02-11T13:00:07.000Z</time>
      </trkpt>
      <trkpt lat="41.765692" lon="-2.452955">
        <ele>1026.4</ele>
        <time>2023-02-11T13:00:08.000Z</time>
      </trkpt>
      <trkpt lat="41.765778" lon="-2.452945">
        <ele>1026.6</ele>
        <time>2023-02-11T13:00:09.000Z</time>
      </trkpt>
      <trkpt lat="41.765861" lon="-2.452938">
        <ele>1026.8</ele>
        <time>2023-02-11T13:00:10.000Z</time>
      </trkpt>
      <trkpt lat="41.765939" lon="-2.452932">
        <ele>1026.8</ele>
        <time>2023-02-11T13:00:11.000Z</time>
      </trkpt>
      <trkpt lat="41.766014" lon="-2.452928">
        <ele>1026.8</ele>
        <time>2023-02-11T13:00:12.000Z</time>
      </trkpt>
      <trkpt lat="41.766087" lon="-2.452927">
        <ele>1027</ele>
        <time>2023-02-11T13:00:13.000Z</time>
      </trkpt>
      <trkpt lat="41.766159" lon="-2.452928">
        <ele>1027</ele>
        <time>2023-02-11T13:00:14.000Z</time>
      </trkpt>
      <trkpt lat="41.766234" lon="-2.452927">
        <ele>1027</ele>
        <time>2023-02-11T13:00:15.000Z</time>
      </trkpt>
      <trkpt lat="41.766307" lon="-2.452925">
        <ele>1027</ele>
        <time>2023-02-11T13:00:16.000Z</time>
      </trkpt>
      <trkpt lat="41.76638" lon="-2.452923">
        <ele>1027.2</ele>
        <time>2023-02-11T13:00:17.000Z</time>
      </trkpt>
      <trkpt lat="41.766451" lon="-2.452922">
        <ele>1027.2</ele>
        <time>2023-02-11T13:00:18.000Z</time>
      </trkpt>
      <trkpt lat="41.766525" lon="-2.452922">
        <ele>1027.2</ele>
        <time>2023-02-11T13:00:19.000Z</time>
      </trkpt>
      <trkpt lat="41.766598" lon="-2.452929">
        <ele>1027.2</ele>
        <time>2023-02-11T13:00:20.000Z</time>
      </trkpt>
      <trkpt lat="41.76667" lon="-2.452943">
        <ele>1027.2</ele>
        <time>2023-02-11T13:00:21.000Z</time>
      </trkpt>
      <trkpt lat="41.766735" lon="-2.452969">
        <ele>1027</ele>
        <time>2023-02-11T13:00:22.000Z</time>
      </trkpt>
      <trkpt lat="41.766797" lon="-2.453013">
        <ele>1027</ele>
        <time>2023-02-11T13:00:23.000Z</time>
      </trkpt>
      <trkpt lat="41.766854" lon="-2.453074">
        <ele>1026.8</ele>
        <time>2023-02-11T13:00:24.000Z</time>
      </trkpt>
      <trkpt lat="41.766898" lon="-2.453154">
        <ele>1026.8</ele>
        <time>2023-02-11T13:00:25.000Z</time>
      </trkpt>
      <trkpt lat="41.766927" lon="-2.453251">
        <ele>1026.8</ele>
        <time>2023-02-11T13:00:26.000Z</time>
      </trkpt>
      <trkpt lat="41.766947" lon="-2.453353">
        <ele>1026.8</ele>
        <time>2023-02-11T13:00:27.000Z</time>
      </trkpt>
      <trkpt lat="41.76696" lon="-2.453463">
        <ele>1026.4</ele>
        <time>2023-02-11T13:00:28.000Z</time>
      </trkpt>
      <trkpt lat="41.766975" lon="-2.453576">
        <ele>1026.4</ele>
        <time>2023-02-11T13:00:29.000Z</time>
      </trkpt>
      <trkpt lat="41.766989" lon="-2.453688">
        <ele>1026.4</ele>
        <time>2023-02-11T13:00:30.000Z</time>
      </trkpt>
      <trkpt lat="41.767003" lon="-2.4538">
        <ele>1026.2</ele>
        <time>2023-02-11T13:00:31.000Z</time>
      </trkpt>
      <trkpt lat="41.767016" lon="-2.453912">
        <ele>1026.2</ele>
        <time>2023-02-11T13:00:32.000Z</time>
      </trkpt>
      <trkpt lat="41.767032" lon="-2.454019">
        <ele>1026</ele>
        <time>2023-02-11T13:00:33.000Z</time>
      </trkpt>
      <trkpt lat="41.767044" lon="-2.454121">
        <ele>1026</ele>
        <time>2023-02-11T13:00:34.000Z</time>
      </trkpt>
      <trkpt lat="41.767054" lon="-2.454215">
        <ele>1025.6</ele>
        <time>2023-02-11T13:00:35.000Z</time>
      </trkpt>
      <trkpt lat="41.767062" lon="-2.454299">
        <ele>1025.6</ele>
        <time>2023-02-11T13:00:36.000Z</time>
      </trkpt>
      <trkpt lat="41.767064" lon="-2.454379">
        <ele>1025.2</ele>
        <time>2023-02-11T13:00:37.000Z</time>
      </trkpt>
      <trkpt lat="41.767058" lon="-2.454462">
        <ele>1025.2</ele>
        <time>2023-02-11T13:00:38.000Z</time>
      </trkpt>
      <trkpt lat="41.767048" lon="-2.454545">
        <ele>1025</ele>
        <time>2023-02-11T13:00:39.000Z</time>
      </trkpt>
      <trkpt lat="41.767037" lon="-2.454625">
        <ele>1025</ele>
        <time>2023-02-11T13:00:40.000Z</time>
      </trkpt>
      <trkpt lat="41.767027" lon="-2.454697">
        <ele>1025</ele>
        <time>2023-02-11T13:00:41.000Z</time>
      </trkpt>
      <trkpt lat="41.767015" lon="-2.454763">
        <ele>1025</ele>
        <time>2023-02-11T13:00:42.000Z</time>
      </trkpt>
      <trkpt lat="41.767003" lon="-2.45483">
        <ele>1025</ele>
        <time>2023-02-11T13:00:43.000Z</time>
      </trkpt>
      <trkpt lat="41.766995" lon="-2.454893">
        <ele>1025</ele>
        <time>2023-02-11T13:00:44.000Z</time>
      </trkpt>
      <trkpt lat="41.766988" lon="-2.454948">
        <ele>1025</ele>
        <time>2023-02-11T13:00:45.000Z</time>
      </trkpt>
      <trkpt lat="41.766982" lon="-2.454996">
        <ele>1025</ele>
        <time>2023-02-11T13:00:46.000Z</time>
      </trkpt>
      <trkpt lat="41.766976" lon="-2.455033">
        <ele>1025</ele>
        <time>2023-02-11T13:00:47.000Z</time>
      </trkpt>
      <trkpt lat="41.766973" lon="-2.455059">
        <ele>1025.4</ele>
        <time>2023-02-11T13:00:48.000Z</time>
      </trkpt>
      <trkpt lat="41.766967" lon="-2.455084">
        <ele>1025.8</ele>
        <time>2023-02-11T13:00:49.000Z</time>
      </trkpt>
      <trkpt lat="41.766962" lon="-2.455104">
        <ele>1026</ele>
        <time>2023-02-11T13:00:50.000Z</time>
      </trkpt>
      <trkpt lat="41.766957" lon="-2.455123">
        <ele>1026.2</ele>
        <time>2023-02-11T13:00:51.000Z</time>
      </trkpt>
      <trkpt lat="41.766954" lon="-2.455138">
        <ele>1026.2</ele>
        <time>2023-02-11T13:00:52.000Z</time>
      </trkpt>
      <trkpt lat="41.766952" lon="-2.455153">
        <ele>1026.4</ele>
        <time>2023-02-11T13:00:53.000Z</time>
      </trkpt>
      <trkpt lat="41.76695" lon="-2.45517">
        <ele>1026.4</ele>
        <time>2023-02-11T13:00:54.000Z</time>
      </trkpt>
      <trkpt lat="41.766943" lon="-2.455199">
        <ele>1026.4</ele>
        <time>2023-02-11T13:00:55.000Z</time>
      </trkpt>
      <trkpt lat="41.766935" lon="-2.45524">
        <ele>1026.4</ele>
        <time>2023-02-11T13:00:56.000Z</time>
      </trkpt>
      <trkpt lat="41.766932" lon="-2.455286">
        <ele>1026.4</ele>
        <time>2023-02-11T13:00:57.000Z</time>
      </trkpt>
      <trkpt lat="41.766927" lon="-2.455339">
        <ele>1026.4</ele>
        <time>2023-02-11T13:00:58.000Z</time>
      </trkpt>
      <trkpt lat="41.766916" lon="-2.455393">
        <ele>1026.4</ele>
        <time>2023-02-11T13:00:59.000Z</time>
      </trkpt>
      <trkpt lat="41.766904" lon="-2.455455">
        <ele>1026.4</ele>
        <time>2023-02-11T13:01:00.000Z</time>
      </trkpt>
      <trkpt lat="41.766898" lon="-2.455516">
        <ele>1026.4</ele>
        <time>2023-02-11T13:01:01.000Z</time>
      </trkpt>
      <trkpt lat="41.766889" lon="-2.455589">
        <ele>1026.4</ele>
        <time>2023-02-11T13:01:02.000Z</time>
      </trkpt>
      <trkpt lat="41.76688" lon="-2.455661">
        <ele>1026.2</ele>
        <time>2023-02-11T13:01:03.000Z</time>
      </trkpt>
      <trkpt lat="41.766868" lon="-2.455731">
        <ele>1026.2</ele>
        <time>2023-02-11T13:01:04.000Z</time>
      </trkpt>
      <trkpt lat="41.766857" lon="-2.455804">
        <ele>1026</ele>
        <time>2023-02-11T13:01:05.000Z</time>
      </trkpt>
      <trkpt lat="41.766843" lon="-2.455893">
        <ele>1025.8</ele>
        <time>2023-02-11T13:01:06.000Z</time>
      </trkpt>
      <trkpt lat="41.766828" lon="-2.455983">
        <ele>1025.6</ele>
        <time>2023-02-11T13:01:07.000Z</time>
      </trkpt>
      <trkpt lat="41.766808" lon="-2.456076">
        <ele>1025.6</ele>
        <time>2023-02-11T13:01:08.000Z</time>
      </trkpt>
      <trkpt lat="41.766799" lon="-2.456166">
        <ele>1025.4</ele>
        <time>2023-02-11T13:01:09.000Z</time>
      </trkpt>
      <trkpt lat="41.766787" lon="-2.45626">
        <ele>1025.4</ele>
        <time>2023-02-11T13:01:10.000Z</time>
      </trkpt>
      <trkpt lat="41.766771" lon="-2.456348">
        <ele>1025.4</ele>
        <time>2023-02-11T13:01:11.000Z</time>
      </trkpt>
      <trkpt lat="41.766753" lon="-2.456428">
        <ele>1025.4</ele>
        <time>2023-02-11T13:01:12.000Z</time>
      </trkpt>
      <trkpt lat="41.766732" lon="-2.456507">
        <ele>1025.4</ele>
        <time>2023-02-11T13:01:13.000Z</time>
      </trkpt>
      <trkpt lat="41.766718" lon="-2.456576">
        <ele>1025.4</ele>
        <time>2023-02-11T13:01:14.000Z</time>
      </trkpt>
      <trkpt lat="41.766708" lon="-2.45664">
        <ele>1025.6</ele>
        <time>2023-02-11T13:01:15.000Z</time>
      </trkpt>
      <trkpt lat="41.766696" lon="-2.456702">
        <ele>1025.8</ele>
        <time>2023-02-11T13:01:16.000Z</time>
      </trkpt>
      <trkpt lat="41.766681" lon="-2.456761">
        <ele>1025.8</ele>
        <time>2023-02-11T13:01:17.000Z</time>
      </trkpt>
      <trkpt lat="41.766668" lon="-2.456819">
        <ele>1026</ele>
        <time>2023-02-11T13:01:18.000Z</time>
      </trkpt>
      <trkpt lat="41.766654" lon="-2.456875">
        <ele>1026.2</ele>
        <time>2023-02-11T13:01:19.000Z</time>
      </trkpt>
      <trkpt lat="41.766639" lon="-2.456932">
        <ele>1026.4</ele>
        <time>2023-02-11T13:01:20.000Z</time>
      </trkpt>
      <trkpt lat="41.766623" lon="-2.456993">
        <ele>1026.4</ele>
        <time>2023-02-11T13:01:21.000Z</time>
      </trkpt>
      <trkpt lat="41.766604" lon="-2.457053">
        <ele>1026.6</ele>
        <time>2023-02-11T13:01:22.000Z</time>
      </trkpt>
      <trkpt lat="41.766582" lon="-2.457111">
        <ele>1026.6</ele>
        <time>2023-02-11T13:01:23.000Z</time>
      </trkpt>
      <trkpt lat="41.766561" lon="-2.457169">
        <ele>1026.8</ele>
        <time>2023-02-11T13:01:24.000Z</time>
      </trkpt>
      <trkpt lat="41.766544" lon="-2.457225">
        <ele>1027</ele>
        <time>2023-02-11T13:01:25.000Z</time>
      </trkpt>
      <trkpt lat="41.766528" lon="-2.457282">
        <ele>1027.4</ele>
        <time>2023-02-11T13:01:26.000Z</time>
      </trkpt>
      <trkpt lat="41.766512" lon="-2.457336">
        <ele>1027.8</ele>
        <time>2023-02-11T13:01:27.000Z</time>
      </trkpt>
      <trkpt lat="41.766495" lon="-2.457387">
        <ele>1027.8</ele>
        <time>2023-02-11T13:01:28.000Z</time>
      </trkpt>
      <trkpt lat="41.766478" lon="-2.45744">
        <ele>1028.2</ele>
        <time>2023-02-11T13:01:29.000Z</time>
      </trkpt>
      <trkpt lat="41.766461" lon="-2.457493">
        <ele>1028.4</ele>
        <time>2023-02-11T13:01:30.000Z</time>
      </trkpt>
      <trkpt lat="41.766446" lon="-2.457542">
        <ele>1028.6</ele>
        <time>2023-02-11T13:01:31.000Z</time>
      </trkpt>
      <trkpt lat="41.76643" lon="-2.457592">
        <ele>1028.8</ele>
        <time>2023-02-11T13:01:32.000Z</time>
      </trkpt>
      <trkpt lat="41.766414" lon="-2.45764">
        <ele>1029</ele>
        <time>2023-02-11T13:01:33.000Z</time>
      </trkpt>
      <trkpt lat="41.766397" lon="-2.457688">
        <ele>1029.2</ele>
        <time>2023-02-11T13:01:34.000Z</time>
      </trkpt>
      <trkpt lat="41.76638" lon="-2.457736">
        <ele>1029.6</ele>
        <time>2023-02-11T13:01:35.000Z</time>
      </trkpt>
      <trkpt lat="41.766363" lon="-2.457781">
        <ele>1029.8</ele>
        <time>2023-02-11T13:01:36.000Z</time>
      </trkpt>
      <trkpt lat="41.766345" lon="-2.457826">
        <ele>1030</ele>
        <time>2023-02-11T13:01:37.000Z</time>
      </trkpt>
      <trkpt lat="41.766326" lon="-2.457869">
        <ele>1030.6</ele>
        <time>2023-02-11T13:01:38.000Z</time>
      </trkpt>
      <trkpt lat="41.76631" lon="-2.457909">
        <ele>1030.6</ele>
        <time>2023-02-11T13:01:39.000Z</time>
      </trkpt>
      <trkpt lat="41.766295" lon="-2.457953">
        <ele>1031</ele>
        <time>2023-02-11T13:01:40.000Z</time>
      </trkpt>
      <trkpt lat="41.766278" lon="-2.457998">
        <ele>1031.2</ele>
        <time>2023-02-11T13:01:41.000Z</time>
      </trkpt>
      <trkpt lat="41.76626" lon="-2.458041">
        <ele>1031.4</ele>
        <time>2023-02-11T13:01:42.000Z</time>
      </trkpt>
      <trkpt lat="41.76624" lon="-2.458085">
        <ele>1031.6</ele>
        <time>2023-02-11T13:01:43.000Z</time>
      </trkpt>
      <trkpt lat="41.76622" lon="-2.458128">
        <ele>1032</ele>
        <time>2023-02-11T13:01:44.000Z</time>
      </trkpt>
      <trkpt lat="41.7662" lon="-2.458169">
        <ele>1032.2</ele>
        <time>2023-02-11T13:01:45.000Z</time>
      </trkpt>
      <trkpt lat="41.766181" lon="-2.458208">
        <ele>1032.4</ele>
        <time>2023-02-11T13:01:46.000Z</time>
      </trkpt>
      <trkpt lat="41.766161" lon="-2.45825">
        <ele>1032.8</ele>
        <time>2023-02-11T13:01:47.000Z</time>
      </trkpt>
      <trkpt lat="41.766142" lon="-2.458293">
        <ele>1033</ele>
        <time>2023-02-11T13:01:48.000Z</time>
      </trkpt>
      <trkpt lat="41.766121" lon="-2.458339">
        <ele>1033.2</ele>
        <time>2023-02-11T13:01:49.000Z</time>
      </trkpt>
      <trkpt lat="41.766103" lon="-2.458386">
        <ele>1033.4</ele>
        <time>2023-02-11T13:01:50.000Z</time>
      </trkpt>
      <trkpt lat="41.766087" lon="-2.458432">
        <ele>1033.8</ele>
        <time>2023-02-11T13:01:51.000Z</time>
      </trkpt>
      <trkpt lat="41.766071" lon="-2.458479">
        <ele>1034</ele>
        <time>2023-02-11T13:01:52.000Z</time>
      </trkpt>
      <trkpt lat="41.766056" lon="-2.458523">
        <ele>1034.2</ele>
        <time>2023-02-11T13:01:53.000Z</time>
      </trkpt>
      <trkpt lat="41.76604" lon="-2.458566">
        <ele>1034.4</ele>
        <time>2023-02-11T13:01:54.000Z</time>
      </trkpt>
      <trkpt lat="41.766023" lon="-2.458608">
        <ele>1034.6</ele>
        <time>2023-02-11T13:01:55.000Z</time>
      </trkpt>
      <trkpt lat="41.766006" lon="-2.45865">
        <ele>1035</ele>
        <time>2023-02-11T13:01:56.000Z</time>
      </trkpt>
      <trkpt lat="41.765989" lon="-2.45869">
        <ele>1035</ele>
        <time>2023-02-11T13:01:57.000Z</time>
      </trkpt>
      <trkpt lat="41.765968" lon="-2.458732">
        <ele>1035.6</ele>
        <time>2023-02-11T13:01:58.000Z</time>
      </trkpt>
      <trkpt lat="41.765946" lon="-2.458773">
        <ele>1035.6</ele>
        <time>2023-02-11T13:01:59.000Z</time>
      </trkpt>
      <trkpt lat="41.765926" lon="-2.458813">
        <ele>1035.8</ele>
        <time>2023-02-11T13:02:00.000Z</time>
      </trkpt>
      <trkpt lat="41.765905" lon="-2.458856">
        <ele>1036.2</ele>
        <time>2023-02-11T13:02:01.000Z</time>
      </trkpt>
      <trkpt lat="41.765885" lon="-2.458898">
        <ele>1036.4</ele>
        <time>2023-02-11T13:02:02.000Z</time>
      </trkpt>
      <trkpt lat="41.765866" lon="-2.45894">
        <ele>1036.4</ele>
        <time>2023-02-11T13:02:03.000Z</time>
      </trkpt>
      <trkpt lat="41.765846" lon="-2.45898">
        <ele>1037</ele>
        <time>2023-02-11T13:02:04.000Z</time>
      </trkpt>
      <trkpt lat="41.765826" lon="-2.459019">
        <ele>1037.4</ele>
        <time>2023-02-11T13:02:05.000Z</time>
      </trkpt>
      <trkpt lat="41.765806" lon="-2.45906">
        <ele>1037.6</ele>
        <time>2023-02-11T13:02:06.000Z</time>
      </trkpt>
      <trkpt lat="41.765784" lon="-2.459102">
        <ele>1038.2</ele>
        <time>2023-02-11T13:02:07.000Z</time>
      </trkpt>
      <trkpt lat="41.765763" lon="-2.459143">
        <ele>1038.2</ele>
        <time>2023-02-11T13:02:08.000Z</time>
      </trkpt>
      <trkpt lat="41.765744" lon="-2.459186">
        <ele>1038.6</ele>
        <time>2023-02-11T13:02:09.000Z</time>
      </trkpt>
      <trkpt lat="41.765726" lon="-2.45923">
        <ele>1038.8</ele>
        <time>2023-02-11T13:02:10.000Z</time>
      </trkpt>
      <trkpt lat="41.76571" lon="-2.459276">
        <ele>1039</ele>
        <time>2023-02-11T13:02:11.000Z</time>
      </trkpt>
      <trkpt lat="41.765694" lon="-2.459323">
        <ele>1039.2</ele>
        <time>2023-02-11T13:02:12.000Z</time>
      </trkpt>
      <trkpt lat="41.765676" lon="-2.459373">
        <ele>1039.4</ele>
        <time>2023-02-11T13:02:13.000Z</time>
      </trkpt>
      <trkpt lat="41.765655" lon="-2.459423">
        <ele>1039.6</ele>
        <time>2023-02-11T13:02:14.000Z</time>
      </trkpt>
      <trkpt lat="41.765634" lon="-2.45947">
        <ele>1040</ele>
        <time>2023-02-11T13:02:15.000Z</time>
      </trkpt>
      <trkpt lat="41.765614" lon="-2.459517">
        <ele>1040.4</ele>
        <time>2023-02-11T13:02:16.000Z</time>
      </trkpt>
      <trkpt lat="41.765593" lon="-2.459565">
        <ele>1040.6</ele>
        <time>2023-02-11T13:02:17.000Z</time>
      </trkpt>
      <trkpt lat="41.765572" lon="-2.459615">
        <ele>1041</ele>
        <time>2023-02-11T13:02:18.000Z</time>
      </trkpt>
      <trkpt lat="41.765555" lon="-2.45967">
        <ele>1041</ele>
        <time>2023-02-11T13:02:19.000Z</time>
      </trkpt>
      <trkpt lat="41.765537" lon="-2.459724">
        <ele>1041.6</ele>
        <time>2023-02-11T13:02:20.000Z</time>
      </trkpt>
      <trkpt lat="41.765518" lon="-2.45978">
        <ele>1041.6</ele>
        <time>2023-02-11T13:02:21.000Z</time>
      </trkpt>
      <trkpt lat="41.765501" lon="-2.459833">
        <ele>1042</ele>
        <time>2023-02-11T13:02:22.000Z</time>
      </trkpt>
      <trkpt lat="41.765484" lon="-2.459883">
        <ele>1042.2</ele>
        <time>2023-02-11T13:02:23.000Z</time>
      </trkpt>
      <trkpt lat="41.765469" lon="-2.459937">
        <ele>1042.4</ele>
        <time>2023-02-11T13:02:24.000Z</time>
      </trkpt>
      <trkpt lat="41.765451" lon="-2.459988">
        <ele>1042.8</ele>
        <time>2023-02-11T13:02:25.000Z</time>
      </trkpt>
      <trkpt lat="41.765434" lon="-2.460035">
        <ele>1043</ele>
        <time>2023-02-11T13:02:26.000Z</time>
      </trkpt>
      <trkpt lat="41.765417" lon="-2.460086">
        <ele>1043.2</ele>
        <time>2023-02-11T13:02:27.000Z</time>
      </trkpt>
      <trkpt lat="41.765396" lon="-2.460136">
        <ele>1043.4</ele>
        <time>2023-02-11T13:02:28.000Z</time>
      </trkpt>
      <trkpt lat="41.76538" lon="-2.460188">
        <ele>1043.8</ele>
        <time>2023-02-11T13:02:29.000Z</time>
      </trkpt>
      <trkpt lat="41.765358" lon="-2.46024">
        <ele>1044</ele>
        <time>2023-02-11T13:02:30.000Z</time>
      </trkpt>
      <trkpt lat="41.765341" lon="-2.460293">
        <ele>1044.4</ele>
        <time>2023-02-11T13:02:31.000Z</time>
      </trkpt>
      <trkpt lat="41.76532" lon="-2.460346">
        <ele>1044.8</ele>
        <time>2023-02-11T13:02:32.000Z</time>
      </trkpt>
      <trkpt lat="41.7653" lon="-2.460399">
        <ele>1045</ele>
        <time>2023-02-11T13:02:33.000Z</time>
      </trkpt>
      <trkpt lat="41.765282" lon="-2.46045">
        <ele>1045.2</ele>
        <time>2023-02-11T13:02:34.000Z</time>
      </trkpt>
      <trkpt lat="41.765262" lon="-2.460501">
        <ele>1045.6</ele>
        <time>2023-02-11T13:02:35.000Z</time>
      </trkpt>
      <trkpt lat="41.765241" lon="-2.460549">
        <ele>1046</ele>
        <time>2023-02-11T13:02:36.000Z</time>
      </trkpt>
      <trkpt lat="41.765216" lon="-2.460597">
        <ele>1046</ele>
        <time>2023-02-11T13:02:37.000Z</time>
      </trkpt>
      <trkpt lat="41.765192" lon="-2.460645">
        <ele>1046.6</ele>
        <time>2023-02-11T13:02:38.000Z</time>
      </trkpt>
      <trkpt lat="41.765171" lon="-2.460696">
        <ele>1046.8</ele>
        <time>2023-02-11T13:02:39.000Z</time>
      </trkpt>
      <trkpt lat="41.765152" lon="-2.46075">
        <ele>1047.2</ele>
        <time>2023-02-11T13:02:40.000Z</time>
      </trkpt>
      <trkpt lat="41.765134" lon="-2.460803">
        <ele>1047.2</ele>
        <time>2023-02-11T13:02:41.000Z</time>
      </trkpt>
      <trkpt lat="41.765118" lon="-2.460856">
        <ele>1047.4</ele>
        <time>2023-02-11T13:02:42.000Z</time>
      </trkpt>
      <trkpt lat="41.765104" lon="-2.46091">
        <ele>1047.6</ele>
        <time>2023-02-11T13:02:43.000Z</time>
      </trkpt>
      <trkpt lat="41.765089" lon="-2.46096">
        <ele>1047.8</ele>
        <time>2023-02-11T13:02:44.000Z</time>
      </trkpt>
      <trkpt lat="41.765072" lon="-2.46101">
        <ele>1048.2</ele>
        <time>2023-02-11T13:02:45.000Z</time>
      </trkpt>
      <trkpt lat="41.765058" lon="-2.46106">
        <ele>1048.2</ele>
        <time>2023-02-11T13:02:46.000Z</time>
      </trkpt>
      <trkpt lat="41.765044" lon="-2.461111">
        <ele>1048.6</ele>
        <time>2023-02-11T13:02:47.000Z</time>
      </trkpt>
      <trkpt lat="41.765029" lon="-2.461166">
        <ele>1048.6</ele>
        <time>2023-02-11T13:02:48.000Z</time>
      </trkpt>
      <trkpt lat="41.765013" lon="-2.461221">
        <ele>1049</ele>
        <time>2023-02-11T13:02:49.000Z</time>
      </trkpt>
      <trkpt lat="41.764998" lon="-2.461271">
        <ele>1049</ele>
        <time>2023-02-11T13:02:50.000Z</time>
      </trkpt>
      <trkpt lat="41.764987" lon="-2.46132">
        <ele>1049.4</ele>
        <time>2023-02-11T13:02:51.000Z</time>
      </trkpt>
      <trkpt lat="41.764978" lon="-2.461371">
        <ele>1049.6</ele>
        <time>2023-02-11T13:02:52.000Z</time>
      </trkpt>
      <trkpt lat="41.764974" lon="-2.461419">
        <ele>1050</ele>
        <time>2023-02-11T13:02:53.000Z</time>
      </trkpt>
      <trkpt lat="41.764971" lon="-2.461466">
        <ele>1050.4</ele>
        <time>2023-02-11T13:02:54.000Z</time>
      </trkpt>
      <trkpt lat="41.764966" lon="-2.461518">
        <ele>1050.8</ele>
        <time>2023-02-11T13:02:55.000Z</time>
      </trkpt>
      <trkpt lat="41.764961" lon="-2.461567">
        <ele>1051.6</ele>
        <time>2023-02-11T13:02:56.000Z</time>
      </trkpt>
      <trkpt lat="41.764958" lon="-2.461616">
        <ele>1051.8</ele>
        <time>2023-02-11T13:02:57.000Z</time>
      </trkpt>
      <trkpt lat="41.764957" lon="-2.461666">
        <ele>1052.2</ele>
        <time>2023-02-11T13:02:58.000Z</time>
      </trkpt>
      <trkpt lat="41.764958" lon="-2.461717">
        <ele>1052.4</ele>
        <time>2023-02-11T13:02:59.000Z</time>
      </trkpt>
      <trkpt lat="41.764957" lon="-2.461774">
        <ele>1052.8</ele>
        <time>2023-02-11T13:03:00.000Z</time>
      </trkpt>
      <trkpt lat="41.764957" lon="-2.461833">
        <ele>1053</ele>
        <time>2023-02-11T13:03:01.000Z</time>
      </trkpt>
      <trkpt lat="41.764958" lon="-2.46189">
        <ele>1053.4</ele>
        <time>2023-02-11T13:03:02.000Z</time>
      </trkpt>
      <trkpt lat="41.764965" lon="-2.461947">
        <ele>1053.6</ele>
        <time>2023-02-11T13:03:03.000Z</time>
      </trkpt>
      <trkpt lat="41.764978" lon="-2.461998">
        <ele>1054.2</ele>
        <time>2023-02-11T13:03:04.000Z</time>
      </trkpt>
      <trkpt lat="41.764994" lon="-2.46205">
        <ele>1054.8</ele>
        <time>2023-02-11T13:03:05.000Z</time>
      </trkpt>
      <trkpt lat="41.765013" lon="-2.462098">
        <ele>1055</ele>
        <time>2023-02-11T13:03:06.000Z</time>
      </trkpt>
      <trkpt lat="41.765034" lon="-2.462143">
        <ele>1055.4</ele>
        <time>2023-02-11T13:03:07.000Z</time>
      </trkpt>
      <trkpt lat="41.765057" lon="-2.462185">
        <ele>1055.6</ele>
        <time>2023-02-11T13:03:08.000Z</time>
      </trkpt>
      <trkpt lat="41.765082" lon="-2.462223">
        <ele>1055.8</ele>
        <time>2023-02-11T13:03:09.000Z</time>
      </trkpt>
      <trkpt lat="41.765108" lon="-2.462256">
        <ele>1056</ele>
        <time>2023-02-11T13:03:10.000Z</time>
      </trkpt>
      <trkpt lat="41.765135" lon="-2.462285">
        <ele>1056.4</ele>
        <time>2023-02-11T13:03:11.000Z</time>
      </trkpt>
      <trkpt lat="41.765163" lon="-2.462311">
        <ele>1056.6</ele>
        <time>2023-02-11T13:03:12.000Z</time>
      </trkpt>
      <trkpt lat="41.765196" lon="-2.462337">
        <ele>1057.2</ele>
        <time>2023-02-11T13:03:13.000Z</time>
      </trkpt>
      <trkpt lat="41.765232" lon="-2.462362">
        <ele>1057.8</ele>
        <time>2023-02-11T13:03:14.000Z</time>
      </trkpt>
      <trkpt lat="41.765269" lon="-2.462382">
        <ele>1057.8</ele>
        <time>2023-02-11T13:03:15.000Z</time>
      </trkpt>
      <trkpt lat="41.765306" lon="-2.462392">
        <ele>1058.2</ele>
        <time>2023-02-11T13:03:16.000Z</time>
      </trkpt>
      <trkpt lat="41.765346" lon="-2.462391">
        <ele>1058.2</ele>
        <time>2023-02-11T13:03:17.000Z</time>
      </trkpt>
      <trkpt lat="41.76539" lon="-2.462385">
        <ele>1058.6</ele>
        <time>2023-02-11T13:03:18.000Z</time>
      </trkpt>
      <trkpt lat="41.765442" lon="-2.462378">
        <ele>1058.8</ele>
        <time>2023-02-11T13:03:19.000Z</time>
      </trkpt>
      <trkpt lat="41.765494" lon="-2.462364">
        <ele>1059.2</ele>
        <time>2023-02-11T13:03:20.000Z</time>
      </trkpt>
      <trkpt lat="41.765557" lon="-2.46234">
        <ele>1059.6</ele>
        <time>2023-02-11T13:03:21.000Z</time>
      </trkpt>
      <trkpt lat="41.765627" lon="-2.46232">
        <ele>1060.6</ele>
        <time>2023-02-11T13:03:22.000Z</time>
      </trkpt>
      <trkpt lat="41.76565" lon="-2.462294">
        <ele>1060.8</ele>
        <time>2023-02-11T13:03:23.000Z</time>
      </trkpt>
      <trkpt lat="41.765713" lon="-2.462271">
        <ele>1061</ele>
        <time>2023-02-11T13:03:24.000Z</time>
      </trkpt>
      <trkpt lat="41.765775" lon="-2.462246">
        <ele>1061.4</ele>
        <time>2023-02-11T13:03:25.000Z</time>
      </trkpt>
      <trkpt lat="41.765834" lon="-2.462223">
        <ele>1061.6</ele>
        <time>2023-02-11T13:03:26.000Z</time>
      </trkpt>
      <trkpt lat="41.765878" lon="-2.462198">
        <ele>1062</ele>
        <time>2023-02-11T13:03:27.000Z</time>
      </trkpt>
      <trkpt lat="41.765923" lon="-2.462173">
        <ele>1062.2</ele>
        <time>2023-02-11T13:03:28.000Z</time>
      </trkpt>
      <trkpt lat="41.765967" lon="-2.462148">
        <ele>1062.6</ele>
        <time>2023-02-11T13:03:29.000Z</time>
      </trkpt>
      <trkpt lat="41.766006" lon="-2.462125">
        <ele>1062.8</ele>
        <time>2023-02-11T13:03:30.000Z</time>
      </trkpt>
      <trkpt lat="41.766053" lon="-2.462103">
        <ele>1063</ele>
        <time>2023-02-11T13:03:31.000Z</time>
      </trkpt>
      <trkpt lat="41.766086" lon="-2.462074">
        <ele>1063.4</ele>
        <time>2023-02-11T13:03:32.000Z</time>
      </trkpt>
      <trkpt lat="41.766122" lon="-2.462042">
        <ele>1063.8</ele>
        <time>2023-02-11T13:03:33.000Z</time>
      </trkpt>
      <trkpt lat="41.766155" lon="-2.462016">
        <ele>1064.2</ele>
        <time>2023-02-11T13:03:34.000Z</time>
      </trkpt>
      <trkpt lat="41.766175" lon="-2.461991">
        <ele>1064.4</ele>
        <time>2023-02-11T13:03:35.000Z</time>
      </trkpt>
      <trkpt lat="41.766188" lon="-2.461957">
        <ele>1064.8</ele>
        <time>2023-02-11T13:03:36.000Z</time>
      </trkpt>
      <trkpt lat="41.766203" lon="-2.461925">
        <ele>1065</ele>
        <time>2023-02-11T13:03:37.000Z</time>
      </trkpt>
      <trkpt lat="41.766213" lon="-2.461908">
        <ele>1065.6</ele>
        <time>2023-02-11T13:03:38.000Z</time>
      </trkpt>
      <trkpt lat="41.766243" lon="-2.461897">
        <ele>1065.6</ele>
        <time>2023-02-11T13:03:39.000Z</time>
      </trkpt>
      <trkpt lat="41.766268" lon="-2.461886">
        <ele>1065.8</ele>
        <time>2023-02-11T13:03:40.000Z</time>
      </trkpt>
      <trkpt lat="41.766286" lon="-2.461881">
        <ele>1066</ele>
        <time>2023-02-11T13:03:41.000Z</time>
      </trkpt>
      <trkpt lat="41.766286" lon="-2.461891">
        <ele>1067</ele>
        <time>2023-02-11T13:03:42.000Z</time>
      </trkpt>
      <trkpt lat="41.766314" lon="-2.461902">
        <ele>1067.2</ele>
        <time>2023-02-11T13:03:43.000Z</time>
      </trkpt>
      <trkpt lat="41.766336" lon="-2.46193">
        <ele>1067.6</ele>
        <time>2023-02-11T13:03:44.000Z</time>
      </trkpt>
      <trkpt lat="41.766358" lon="-2.461971">
        <ele>1068</ele>
        <time>2023-02-11T13:03:45.000Z</time>
      </trkpt>
      <trkpt lat="41.76637" lon="-2.462017">
        <ele>1068.2</ele>
        <time>2023-02-11T13:03:46.000Z</time>
      </trkpt>
      <trkpt lat="41.766379" lon="-2.462074">
        <ele>1068.4</ele>
        <time>2023-02-11T13:03:47.000Z</time>
      </trkpt>
      <trkpt lat="41.766391" lon="-2.462133">
        <ele>1068.6</ele>
        <time>2023-02-11T13:03:48.000Z</time>
      </trkpt>
      <trkpt lat="41.766396" lon="-2.462193">
        <ele>1068.8</ele>
        <time>2023-02-11T13:03:49.000Z</time>
      </trkpt>
      <trkpt lat="41.766389" lon="-2.462246">
        <ele>1069</ele>
        <time>2023-02-11T13:03:50.000Z</time>
      </trkpt>
      <trkpt lat="41.766361" lon="-2.462297">
        <ele>1069.4</ele>
        <time>2023-02-11T13:03:51.000Z</time>
      </trkpt>
      <trkpt lat="41.766344" lon="-2.462351">
        <ele>1069.6</ele>
        <time>2023-02-11T13:03:52.000Z</time>
      </trkpt>
      <trkpt lat="41.76634" lon="-2.462411">
        <ele>1070</ele>
        <time>2023-02-11T13:03:53.000Z</time>
      </trkpt>
      <trkpt lat="41.766336" lon="-2.462473">
        <ele>1070.6</ele>
        <time>2023-02-11T13:03:54.000Z</time>
      </trkpt>
      <trkpt lat="41.76633" lon="-2.462538">
        <ele>1070.8</ele>
        <time>2023-02-11T13:03:55.000Z</time>
      </trkpt>
      <trkpt lat="41.766316" lon="-2.462607">
        <ele>1071</ele>
        <time>2023-02-11T13:03:56.000Z</time>
      </trkpt>
      <trkpt lat="41.766307" lon="-2.462678">
        <ele>1071.6</ele>
        <time>2023-02-11T13:03:57.000Z</time>
      </trkpt>
      <trkpt lat="41.766303" lon="-2.462741">
        <ele>1072</ele>
        <time>2023-02-11T13:03:58.000Z</time>
      </trkpt>
      <trkpt lat="41.766301" lon="-2.462803">
        <ele>1072</ele>
        <time>2023-02-11T13:03:59.000Z</time>
      </trkpt>
      <trkpt lat="41.766296" lon="-2.462869">
        <ele>1072.6</ele>
        <time>2023-02-11T13:04:00.000Z</time>
      </trkpt>
      <trkpt lat="41.766297" lon="-2.462929">
        <ele>1072.8</ele>
        <time>2023-02-11T13:04:01.000Z</time>
      </trkpt>
      <trkpt lat="41.766303" lon="-2.462987">
        <ele>1073.2</ele>
        <time>2023-02-11T13:04:02.000Z</time>
      </trkpt>
      <trkpt lat="41.766311" lon="-2.46304">
        <ele>1074</ele>
        <time>2023-02-11T13:04:03.000Z</time>
      </trkpt>
      <trkpt lat="41.766322" lon="-2.46309">
        <ele>1074.2</ele>
        <time>2023-02-11T13:04:04.000Z</time>
      </trkpt>
      <trkpt lat="41.766337" lon="-2.463142">
        <ele>1074.6</ele>
        <time>2023-02-11T13:04:05.000Z</time>
      </trkpt>
      <trkpt lat="41.766353" lon="-2.463198">
        <ele>1074.8</ele>
        <time>2023-02-11T13:04:06.000Z</time>
      </trkpt>
      <trkpt lat="41.766375" lon="-2.463253">
        <ele>1075.4</ele>
        <time>2023-02-11T13:04:07.000Z</time>
      </trkpt>
      <trkpt lat="41.7664" lon="-2.463306">
        <ele>1075.6</ele>
        <time>2023-02-11T13:04:08.000Z</time>
      </trkpt>
      <trkpt lat="41.766423" lon="-2.463362">
        <ele>1076</ele>
        <time>2023-02-11T13:04:09.000Z</time>
      </trkpt>
      <trkpt lat="41.766446" lon="-2.46342">
        <ele>1076.2</ele>
        <time>2023-02-11T13:04:10.000Z</time>
      </trkpt>
      <trkpt lat="41.766471" lon="-2.463478">
        <ele>1076.6</ele>
        <time>2023-02-11T13:04:11.000Z</time>
      </trkpt>
      <trkpt lat="41.766496" lon="-2.463534">
        <ele>1076.8</ele>
        <time>2023-02-11T13:04:12.000Z</time>
      </trkpt>
      <trkpt lat="41.766522" lon="-2.463587">
        <ele>1077.4</ele>
        <time>2023-02-11T13:04:13.000Z</time>
      </trkpt>
      <trkpt lat="41.766547" lon="-2.463643">
        <ele>1077.4</ele>
        <time>2023-02-11T13:04:14.000Z</time>
      </trkpt>
      <trkpt lat="41.766571" lon="-2.463697">
        <ele>1077.8</ele>
        <time>2023-02-11T13:04:15.000Z</time>
      </trkpt>
      <trkpt lat="41.766598" lon="-2.46375">
        <ele>1078.2</ele>
        <time>2023-02-11T13:04:16.000Z</time>
      </trkpt>
      <trkpt lat="41.766623" lon="-2.463804">
        <ele>1078.4</ele>
        <time>2023-02-11T13:04:17.000Z</time>
      </trkpt>
      <trkpt lat="41.76665" lon="-2.463857">
        <ele>1078.6</ele>
        <time>2023-02-11T13:04:18.000Z</time>
      </trkpt>
      <trkpt lat="41.766676" lon="-2.463916">
        <ele>1078.8</ele>
        <time>2023-02-11T13:04:19.000Z</time>
      </trkpt>
      <trkpt lat="41.766701" lon="-2.463974">
        <ele>1079.4</ele>
        <time>2023-02-11T13:04:20.000Z</time>
      </trkpt>
      <trkpt lat="41.766725" lon="-2.464032">
        <ele>1079.4</ele>
        <time>2023-02-11T13:04:21.000Z</time>
      </trkpt>
      <trkpt lat="41.76675" lon="-2.464092">
        <ele>1080</ele>
        <time>2023-02-11T13:04:22.000Z</time>
      </trkpt>
      <trkpt lat="41.766776" lon="-2.464154">
        <ele>1080.4</ele>
        <time>2023-02-11T13:04:23.000Z</time>
      </trkpt>
      <trkpt lat="41.766802" lon="-2.46421">
        <ele>1080.6</ele>
        <time>2023-02-11T13:04:24.000Z</time>
      </trkpt>
      <trkpt lat="41.766827" lon="-2.464269">
        <ele>1080.8</ele>
        <time>2023-02-11T13:04:25.000Z</time>
      </trkpt>
      <trkpt lat="41.766854" lon="-2.464329">
        <ele>1080.8</ele>
        <time>2023-02-11T13:04:26.000Z</time>
      </trkpt>
      <trkpt lat="41.766884" lon="-2.464393">
        <ele>1081.4</ele>
        <time>2023-02-11T13:04:27.000Z</time>
      </trkpt>
      <trkpt lat="41.766918" lon="-2.464449">
        <ele>1081.8</ele>
        <time>2023-02-11T13:04:28.000Z</time>
      </trkpt>
      <trkpt lat="41.766959" lon="-2.464494">
        <ele>1082.4</ele>
        <time>2023-02-11T13:04:29.000Z</time>
      </trkpt>
      <trkpt lat="41.767006" lon="-2.464527">
        <ele>1082.6</ele>
        <time>2023-02-11T13:04:30.000Z</time>
      </trkpt>
      <trkpt lat="41.767054" lon="-2.464536">
        <ele>1082.6</ele>
        <time>2023-02-11T13:04:31.000Z</time>
      </trkpt>
      <trkpt lat="41.767095" lon="-2.464534">
        <ele>1083.2</ele>
        <time>2023-02-11T13:04:32.000Z</time>
      </trkpt>
      <trkpt lat="41.76713" lon="-2.464519">
        <ele>1083.2</ele>
        <time>2023-02-11T13:04:33.000Z</time>
      </trkpt>
      <trkpt lat="41.767155" lon="-2.464501">
        <ele>1083.6</ele>
        <time>2023-02-11T13:04:34.000Z</time>
      </trkpt>
      <trkpt lat="41.767168" lon="-2.464514">
        <ele>1083.8</ele>
        <time>2023-02-11T13:04:35.000Z</time>
      </trkpt>
      <trkpt lat="41.767167" lon="-2.464532">
        <ele>1084</ele>
        <time>2023-02-11T13:04:36.000Z</time>
      </trkpt>
      <trkpt lat="41.767167" lon="-2.46455">
        <ele>1084.2</ele>
        <time>2023-02-11T13:04:37.000Z</time>
      </trkpt>
      <trkpt lat="41.767167" lon="-2.464568">
        <ele>1084.4</ele>
        <time>2023-02-11T13:04:38.000Z</time>
      </trkpt>
      <trkpt lat="41.767167" lon="-2.464586">
        <ele>1084.4</ele>
        <time>2023-02-11T13:04:39.000Z</time>
      </trkpt>
      <trkpt lat="41.767162" lon="-2.464668">
        <ele>1085</ele>
        <time>2023-02-11T13:04:40.000Z</time>
      </trkpt>
      <trkpt lat="41.767157" lon="-2.464768">
        <ele>1085.2</ele>
        <time>2023-02-11T13:04:41.000Z</time>
      </trkpt>
      <trkpt lat="41.767142" lon="-2.46486">
        <ele>1085.2</ele>
        <time>2023-02-11T13:04:42.000Z</time>
      </trkpt>
      <trkpt lat="41.76712" lon="-2.464972">
        <ele>1085.6</ele>
        <time>2023-02-11T13:04:43.000Z</time>
      </trkpt>
      <trkpt lat="41.767071" lon="-2.465103">
        <ele>1085.8</ele>
        <time>2023-02-11T13:04:44.000Z</time>
      </trkpt>
      <trkpt lat="41.767054" lon="-2.465205">
        <ele>1086</ele>
        <time>2023-02-11T13:04:45.000Z</time>
      </trkpt>
      <trkpt lat="41.767051" lon="-2.465286">
        <ele>1086.2</ele>
        <time>2023-02-11T13:04:46.000Z</time>
      </trkpt>
      <trkpt lat="41.767047" lon="-2.465367">
        <ele>1086.2</ele>
        <time>2023-02-11T13:04:47.000Z</time>
      </trkpt>
      <trkpt lat="41.76704" lon="-2.465445">
        <ele>1086.2</ele>
        <time>2023-02-11T13:04:48.000Z</time>
      </trkpt>
      <trkpt lat="41.76703" lon="-2.465537">
        <ele>1086.4</ele>
        <time>2023-02-11T13:04:49.000Z</time>
      </trkpt>
      <trkpt lat="41.767021" lon="-2.465622">
        <ele>1086.6</ele>
        <time>2023-02-11T13:04:50.000Z</time>
      </trkpt>
      <trkpt lat="41.767009" lon="-2.465708">
        <ele>1087</ele>
        <time>2023-02-11T13:04:51.000Z</time>
      </trkpt>
      <trkpt lat="41.766993" lon="-2.465799">
        <ele>1087.2</ele>
        <time>2023-02-11T13:04:52.000Z</time>
      </trkpt>
      <trkpt lat="41.766984" lon="-2.465883">
        <ele>1087.4</ele>
        <time>2023-02-11T13:04:53.000Z</time>
      </trkpt>
      <trkpt lat="41.766974" lon="-2.465963">
        <ele>1087.8</ele>
        <time>2023-02-11T13:04:54.000Z</time>
      </trkpt>
      <trkpt lat="41.766958" lon="-2.466057">
        <ele>1087.8</ele>
        <time>2023-02-11T13:04:55.000Z</time>
      </trkpt>
      <trkpt lat="41.766941" lon="-2.466145">
        <ele>1088.4</ele>
        <time>2023-02-11T13:04:56.000Z</time>
      </trkpt>
      <trkpt lat="41.766922" lon="-2.466226">
        <ele>1088.6</ele>
        <time>2023-02-11T13:04:57.000Z</time>
      </trkpt>
      <trkpt lat="41.766904" lon="-2.466302">
        <ele>1089.2</ele>
        <time>2023-02-11T13:04:58.000Z</time>
      </trkpt>
      <trkpt lat="41.766888" lon="-2.466389">
        <ele>1089.2</ele>
        <time>2023-02-11T13:04:59.000Z</time>
      </trkpt>
      <trkpt lat="41.766871" lon="-2.46646">
        <ele>1089.8</ele>
        <time>2023-02-11T13:05:01.000Z</time>
      </trkpt>
      <trkpt lat="41.766864" lon="-2.466522">
        <ele>1090</ele>
        <time>2023-02-11T13:05:02.000Z</time>
      </trkpt>
      <trkpt lat="41.766862" lon="-2.466578">
        <ele>1090.4</ele>
        <time>2023-02-11T13:05:03.000Z</time>
      </trkpt>
      <trkpt lat="41.766856" lon="-2.466626">
        <ele>1090.6</ele>
        <time>2023-02-11T13:05:04.000Z</time>
      </trkpt>
      <trkpt lat="41.766849" lon="-2.466669">
        <ele>1090.8</ele>
        <time>2023-02-11T13:05:05.000Z</time>
      </trkpt>
      <trkpt lat="41.766843" lon="-2.466712">
        <ele>1091</ele>
        <time>2023-02-11T13:05:06.000Z</time>
      </trkpt>
      <trkpt lat="41.766838" lon="-2.466758">
        <ele>1091.2</ele>
        <time>2023-02-11T13:05:07.000Z</time>
      </trkpt>
      <trkpt lat="41.766824" lon="-2.466811">
        <ele>1091.6</ele>
        <time>2023-02-11T13:05:08.000Z</time>
      </trkpt>
      <trkpt lat="41.766813" lon="-2.46687">
        <ele>1091.6</ele>
        <time>2023-02-11T13:05:09.000Z</time>
      </trkpt>
      <trkpt lat="41.766807" lon="-2.466935">
        <ele>1092</ele>
        <time>2023-02-11T13:05:10.000Z</time>
      </trkpt>
      <trkpt lat="41.766798" lon="-2.467006">
        <ele>1092</ele>
        <time>2023-02-11T13:05:11.000Z</time>
      </trkpt>
      <trkpt lat="41.766783" lon="-2.467082">
        <ele>1092.2</ele>
        <time>2023-02-11T13:05:12.000Z</time>
      </trkpt>
      <trkpt lat="41.766748" lon="-2.467167">
        <ele>1092.2</ele>
        <time>2023-02-11T13:05:13.000Z</time>
      </trkpt>
      <trkpt lat="41.766739" lon="-2.467248">
        <ele>1092.2</ele>
        <time>2023-02-11T13:05:14.000Z</time>
      </trkpt>
      <trkpt lat="41.766728" lon="-2.467324">
        <ele>1092.4</ele>
        <time>2023-02-11T13:05:15.000Z</time>
      </trkpt>
      <trkpt lat="41.766718" lon="-2.46741">
        <ele>1092.4</ele>
        <time>2023-02-11T13:05:16.000Z</time>
      </trkpt>
      <trkpt lat="41.766708" lon="-2.467495">
        <ele>1092.4</ele>
        <time>2023-02-11T13:05:17.000Z</time>
      </trkpt>
      <trkpt lat="41.766693" lon="-2.467576">
        <ele>1092.4</ele>
        <time>2023-02-11T13:05:18.000Z</time>
      </trkpt>
      <trkpt lat="41.76668" lon="-2.46766">
        <ele>1092.4</ele>
        <time>2023-02-11T13:05:19.000Z</time>
      </trkpt>
      <trkpt lat="41.766662" lon="-2.467742">
        <ele>1092.2</ele>
        <time>2023-02-11T13:05:20.000Z</time>
      </trkpt>
      <trkpt lat="41.766655" lon="-2.467818">
        <ele>1092.2</ele>
        <time>2023-02-11T13:05:21.000Z</time>
      </trkpt>
      <trkpt lat="41.76666" lon="-2.467867">
        <ele>1092.2</ele>
        <time>2023-02-11T13:05:22.000Z</time>
      </trkpt>
      <trkpt lat="41.766718" lon="-2.467881">
        <ele>1092</ele>
        <time>2023-02-11T13:05:23.000Z</time>
      </trkpt>
      <trkpt lat="41.766805" lon="-2.467875">
        <ele>1092</ele>
        <time>2023-02-11T13:05:24.000Z</time>
      </trkpt>
      <trkpt lat="41.766869" lon="-2.467872">
        <ele>1092</ele>
        <time>2023-02-11T13:05:25.000Z</time>
      </trkpt>
      <trkpt lat="41.766907" lon="-2.467856">
        <ele>1092</ele>
        <time>2023-02-11T13:05:26.000Z</time>
      </trkpt>
      <trkpt lat="41.766954" lon="-2.467858">
        <ele>1092.2</ele>
        <time>2023-02-11T13:05:27.000Z</time>
      </trkpt>
      <trkpt lat="41.766995" lon="-2.467846">
        <ele>1092.2</ele>
        <time>2023-02-11T13:05:28.000Z</time>
      </trkpt>
      <trkpt lat="41.767025" lon="-2.467859">
        <ele>1092.2</ele>
        <time>2023-02-11T13:05:29.000Z</time>
      </trkpt>
      <trkpt lat="41.767052" lon="-2.467916">
        <ele>1092.6</ele>
        <time>2023-02-11T13:05:30.000Z</time>
      </trkpt>
      <trkpt lat="41.767074" lon="-2.467976">
        <ele>1092.8</ele>
        <time>2023-02-11T13:05:31.000Z</time>
      </trkpt>
      <trkpt lat="41.767072" lon="-2.468036">
        <ele>1093.2</ele>
        <time>2023-02-11T13:05:32.000Z</time>
      </trkpt>
      <trkpt lat="41.767066" lon="-2.468093">
        <ele>1093.6</ele>
        <time>2023-02-11T13:05:33.000Z</time>
      </trkpt>
      <trkpt lat="41.767064" lon="-2.468156">
        <ele>1093.8</ele>
        <time>2023-02-11T13:05:34.000Z</time>
      </trkpt>
      <trkpt lat="41.767059" lon="-2.468227">
        <ele>1094.2</ele>
        <time>2023-02-11T13:05:35.000Z</time>
      </trkpt>
    </trkseg>
  </trk>
</gpx>
